﻿<?xml version="1.0" encoding="UTF-8"?>
<gpx xmlns="http://www.topografix.com/GPX/1/1" creator="HOLUX ezTour Plus" version="1.1">
<metadata>
<link href="http://www.holux.com"><text>HOLUX Technology, Inc.</text></link>
<time>2012-08-01T18:52:28Z</time></metadata>
<trk>
<name><![CDATA[raw10]]></name>
<trkseg>
<trkpt lat="63.749572754" lon="-20.240041733">
<ele>12.020996</ele>
<time>2012-07-27T10:48:28Z</time>
<speed>0.020000</speed>
<extensions>
<speed>0.0</speed>
<temp>0.00</temp>
<bpm>0</bpm>
<rpm>0.00</rpm>
</extensions>
</trkpt>
<trkpt lat="63.749618530" lon="-20.240074158">
<ele>30.614746</ele>
<time>2012-07-27T10:48:33Z</time>
<speed>0.020000</speed>
<extensions>
<speed>0.0</speed>
<temp>0.00</temp>
<bpm>0</bpm>
<rpm>0.00</rpm>
</extensions>
</trkpt>
<trkpt lat="63.749618530" lon="-20.240083694">
<ele>34.152344</ele>
<time>2012-07-27T10:48:38Z</time>
<extensions>
<speed>0.0</speed>
<temp>0.00</temp>
<bpm>0</bpm>
<rpm>0.00</rpm>
</extensions>
</trkpt>
<trkpt lat="63.749649048" lon="-20.240112305">
<ele>34.547852</ele>
<time>2012-07-27T10:48:43Z</time>
<extensions>
<speed>0.0</speed>
<temp>0.00</temp>
<bpm>0</bpm>
<rpm>0.00</rpm>
</extensions>
</trkpt>
<trkpt lat="63.749641418" lon="-20.240097046">
<ele>31.542480</ele>
<time>2012-07-27T10:48:48Z</time>
<extensions>
<speed>0.0</speed>
<temp>0.00</temp>
<bpm>0</bpm>
<rpm>0.00</rpm>
</extensions>
</trkpt>
<trkpt lat="63.749637604" lon="-20.240095139">
<ele>30.936523</ele>
<time>2012-07-27T10:48:53Z</time>
<speed>0.010000</speed>
<extensions>
<speed>0.0</speed>
<temp>0.00</temp>
<bpm>0</bpm>
<rpm>0.00</rpm>
</extensions>
</trkpt>
<trkpt lat="63.749649048" lon="-20.240102768">
<ele>28.798340</ele>
<time>2012-07-27T10:48:58Z</time>
<speed>0.010000</speed>
<extensions>
<speed>0.0</speed>
<temp>0.00</temp>
<bpm>0</bpm>
<rpm>0.00</rpm>
</extensions>
</trkpt>
<trkpt lat="63.749652863" lon="-20.240097046">
<ele>27.535645</ele>
<time>2012-07-27T10:49:03Z</time>
<extensions>
<speed>0.0</speed>
<temp>0.00</temp>
<bpm>0</bpm>
<rpm>0.00</rpm>
</extensions>
</trkpt>
<trkpt lat="63.749652863" lon="-20.240097046">
<ele>27.471680</ele>
<time>2012-07-27T10:49:08Z</time>
<speed>0.010000</speed>
<extensions>
<speed>0.0</speed>
<temp>0.00</temp>
<bpm>0</bpm>
<rpm>0.00</rpm>
</extensions>
</trkpt>
<trkpt lat="63.749652863" lon="-20.240097046">
<ele>27.413574</ele>
<time>2012-07-27T10:49:13Z</time>
<extensions>
<speed>0.0</speed>
<temp>0.00</temp>
<bpm>0</bpm>
<rpm>0.00</rpm>
</extensions>
</trkpt>
<trkpt lat="63.749652863" lon="-20.240097046">
<ele>27.345703</ele>
<time>2012-07-27T10:49:18Z</time>
<extensions>
<speed>0.0</speed>
<temp>0.00</temp>
<bpm>0</bpm>
<rpm>0.00</rpm>
</extensions>
</trkpt>
<trkpt lat="63.749652863" lon="-20.240097046">
<ele>27.297852</ele>
<time>2012-07-27T10:49:23Z</time>
<extensions>
<speed>0.0</speed>
<temp>0.00</temp>
<bpm>0</bpm>
<rpm>0.00</rpm>
</extensions>
</trkpt>
<trkpt lat="63.749652863" lon="-20.240097046">
<ele>27.261719</ele>
<time>2012-07-27T10:49:28Z</time>
<extensions>
<speed>0.0</speed>
<temp>0.00</temp>
<bpm>0</bpm>
<rpm>0.00</rpm>
</extensions>
</trkpt>
<trkpt lat="63.749652863" lon="-20.240097046">
<ele>27.269043</ele>
<time>2012-07-27T10:49:33Z</time>
<speed>0.020000</speed>
<extensions>
<speed>0.0</speed>
<temp>0.00</temp>
<bpm>0</bpm>
<rpm>0.00</rpm>
</extensions>
</trkpt>
<trkpt lat="63.749652863" lon="-20.240097046">
<ele>27.280762</ele>
<time>2012-07-27T10:49:38Z</time>
<extensions>
<speed>0.0</speed>
<temp>0.00</temp>
<bpm>0</bpm>
<rpm>0.00</rpm>
</extensions>
</trkpt>
<trkpt lat="63.749652863" lon="-20.240097046">
<ele>27.318848</ele>
<time>2012-07-27T10:49:43Z</time>
<extensions>
<speed>0.0</speed>
<temp>0.00</temp>
<bpm>0</bpm>
<rpm>0.00</rpm>
</extensions>
</trkpt>
<trkpt lat="63.749656677" lon="-20.240095139">
<ele>27.346680</ele>
<time>2012-07-27T10:49:48Z</time>
<speed>0.010000</speed>
<extensions>
<speed>0.0</speed>
<temp>0.00</temp>
<bpm>0</bpm>
<rpm>0.00</rpm>
</extensions>
</trkpt>
<trkpt lat="63.749656677" lon="-20.240095139">
<ele>27.413086</ele>
<time>2012-07-27T10:49:53Z</time>
<extensions>
<speed>0.0</speed>
<temp>0.00</temp>
<bpm>0</bpm>
<rpm>0.00</rpm>
</extensions>
</trkpt>
<trkpt lat="63.749656677" lon="-20.240095139">
<ele>27.417969</ele>
<time>2012-07-27T10:49:58Z</time>
<speed>0.010000</speed>
<extensions>
<speed>0.0</speed>
<temp>0.00</temp>
<bpm>0</bpm>
<rpm>0.00</rpm>
</extensions>
</trkpt>
<trkpt lat="63.749656677" lon="-20.240095139">
<ele>27.382813</ele>
<time>2012-07-27T10:50:03Z</time>
<extensions>
<speed>0.0</speed>
<temp>0.00</temp>
<bpm>0</bpm>
<rpm>0.00</rpm>
</extensions>
</trkpt>
<trkpt lat="63.749652863" lon="-20.240093231">
<ele>27.323730</ele>
<time>2012-07-27T10:50:08Z</time>
<speed>0.020000</speed>
<extensions>
<speed>0.0</speed>
<temp>0.00</temp>
<bpm>0</bpm>
<rpm>0.00</rpm>
</extensions>
</trkpt>
<trkpt lat="63.749652863" lon="-20.240095139">
<ele>27.279297</ele>
<time>2012-07-27T10:50:13Z</time>
<speed>0.010000</speed>
<extensions>
<speed>0.0</speed>
<temp>0.00</temp>
<bpm>0</bpm>
<rpm>0.00</rpm>
</extensions>
</trkpt>
<trkpt lat="63.749652863" lon="-20.240095139">
<ele>27.216309</ele>
<time>2012-07-27T10:50:18Z</time>
<speed>0.060000</speed>
<extensions>
<speed>0.1</speed>
<temp>0.00</temp>
<bpm>0</bpm>
<rpm>0.00</rpm>
</extensions>
</trkpt>
<trkpt lat="63.749652863" lon="-20.240091324">
<ele>27.207031</ele>
<time>2012-07-27T10:50:23Z</time>
<extensions>
<speed>0.0</speed>
<temp>0.00</temp>
<bpm>0</bpm>
<rpm>0.00</rpm>
</extensions>
</trkpt>
<trkpt lat="63.749652863" lon="-20.240091324">
<ele>27.152832</ele>
<time>2012-07-27T10:50:28Z</time>
<speed>0.010000</speed>
<extensions>
<speed>0.0</speed>
<temp>0.00</temp>
<bpm>0</bpm>
<rpm>0.00</rpm>
</extensions>
</trkpt>
<trkpt lat="63.749649048" lon="-20.240091324">
<ele>27.066895</ele>
<time>2012-07-27T10:50:33Z</time>
<extensions>
<speed>0.0</speed>
<temp>0.00</temp>
<bpm>0</bpm>
<rpm>0.00</rpm>
</extensions>
</trkpt>
<trkpt lat="63.749649048" lon="-20.240089417">
<ele>26.975098</ele>
<time>2012-07-27T10:50:38Z</time>
<extensions>
<speed>0.0</speed>
<temp>0.00</temp>
<bpm>0</bpm>
<rpm>0.00</rpm>
</extensions>
</trkpt>
<trkpt lat="63.749649048" lon="-20.240089417">
<ele>26.898438</ele>
<time>2012-07-27T10:50:43Z</time>
<extensions>
<speed>0.0</speed>
<temp>0.00</temp>
<bpm>0</bpm>
<rpm>0.00</rpm>
</extensions>
</trkpt>
<trkpt lat="63.749649048" lon="-20.240089417">
<ele>26.836914</ele>
<time>2012-07-27T10:50:48Z</time>
<extensions>
<speed>0.0</speed>
<temp>0.00</temp>
<bpm>0</bpm>
<rpm>0.00</rpm>
</extensions>
</trkpt>
<trkpt lat="63.749649048" lon="-20.240089417">
<ele>26.777832</ele>
<time>2012-07-27T10:50:53Z</time>
<extensions>
<speed>0.0</speed>
<temp>0.00</temp>
<bpm>0</bpm>
<rpm>0.00</rpm>
</extensions>
</trkpt>
<trkpt lat="63.749649048" lon="-20.240089417">
<ele>26.728027</ele>
<time>2012-07-27T10:50:58Z</time>
<extensions>
<speed>0.0</speed>
<temp>0.00</temp>
<bpm>0</bpm>
<rpm>0.00</rpm>
</extensions>
</trkpt>
<trkpt lat="63.749649048" lon="-20.240087509">
<ele>26.642578</ele>
<time>2012-07-27T10:51:03Z</time>
<extensions>
<speed>0.0</speed>
<temp>0.00</temp>
<bpm>0</bpm>
<rpm>0.00</rpm>
</extensions>
</trkpt>
<trkpt lat="63.749645233" lon="-20.240085602">
<ele>26.564453</ele>
<time>2012-07-27T10:51:08Z</time>
<extensions>
<speed>0.0</speed>
<temp>0.00</temp>
<bpm>0</bpm>
<rpm>0.00</rpm>
</extensions>
</trkpt>
<trkpt lat="63.749641418" lon="-20.240083694">
<ele>26.487305</ele>
<time>2012-07-27T10:51:13Z</time>
<extensions>
<speed>0.0</speed>
<temp>0.00</temp>
<bpm>0</bpm>
<rpm>0.00</rpm>
</extensions>
</trkpt>
<trkpt lat="63.749637604" lon="-20.240081787">
<ele>26.481445</ele>
<time>2012-07-27T10:51:18Z</time>
<speed>0.010000</speed>
<extensions>
<speed>0.0</speed>
<temp>0.00</temp>
<bpm>0</bpm>
<rpm>0.00</rpm>
</extensions>
</trkpt>
<trkpt lat="63.749637604" lon="-20.240081787">
<ele>26.614258</ele>
<time>2012-07-27T10:51:23Z</time>
<speed>0.040000</speed>
<extensions>
<speed>0.0</speed>
<temp>0.00</temp>
<bpm>0</bpm>
<rpm>0.00</rpm>
</extensions>
</trkpt>
<trkpt lat="63.749637604" lon="-20.240081787">
<ele>26.632324</ele>
<time>2012-07-27T10:51:28Z</time>
<extensions>
<speed>0.0</speed>
<temp>0.00</temp>
<bpm>0</bpm>
<rpm>0.00</rpm>
</extensions>
</trkpt>
<trkpt lat="63.749641418" lon="-20.240081787">
<ele>26.581055</ele>
<time>2012-07-27T10:51:33Z</time>
<speed>0.120000</speed>
<extensions>
<speed>0.1</speed>
<temp>0.00</temp>
<bpm>0</bpm>
<rpm>0.00</rpm>
</extensions>
</trkpt>
<trkpt lat="63.749637604" lon="-20.240076065">
<ele>26.362305</ele>
<time>2012-07-27T10:51:38Z</time>
<speed>0.060000</speed>
<extensions>
<speed>0.1</speed>
<temp>0.00</temp>
<bpm>0</bpm>
<rpm>0.00</rpm>
</extensions>
</trkpt>
<trkpt lat="63.749637604" lon="-20.240077972">
<ele>26.125488</ele>
<time>2012-07-27T10:51:43Z</time>
<speed>0.030000</speed>
<extensions>
<speed>0.0</speed>
<temp>0.00</temp>
<bpm>0</bpm>
<rpm>0.00</rpm>
</extensions>
</trkpt>
<trkpt lat="63.749637604" lon="-20.240077972">
<ele>25.986816</ele>
<time>2012-07-27T10:51:48Z</time>
<speed>0.060000</speed>
<extensions>
<speed>0.1</speed>
<temp>0.00</temp>
<bpm>0</bpm>
<rpm>0.00</rpm>
</extensions>
</trkpt>
<trkpt lat="63.749633789" lon="-20.240072250">
<ele>25.932129</ele>
<time>2012-07-27T10:51:53Z</time>
<speed>0.100000</speed>
<extensions>
<speed>0.1</speed>
<temp>0.00</temp>
<bpm>0</bpm>
<rpm>0.00</rpm>
</extensions>
</trkpt>
<trkpt lat="63.749629974" lon="-20.240070343">
<ele>25.902344</ele>
<time>2012-07-27T10:51:58Z</time>
<speed>0.020000</speed>
<extensions>
<speed>0.0</speed>
<temp>0.00</temp>
<bpm>0</bpm>
<rpm>0.00</rpm>
</extensions>
</trkpt>
<trkpt lat="63.749629974" lon="-20.240070343">
<ele>25.877441</ele>
<time>2012-07-27T10:52:03Z</time>
<speed>0.040000</speed>
<extensions>
<speed>0.0</speed>
<temp>0.00</temp>
<bpm>0</bpm>
<rpm>0.00</rpm>
</extensions>
</trkpt>
<trkpt lat="63.749629974" lon="-20.240070343">
<ele>25.877441</ele>
<time>2012-07-27T10:52:08Z</time>
<speed>0.010000</speed>
<extensions>
<speed>0.0</speed>
<temp>0.00</temp>
<bpm>0</bpm>
<rpm>0.00</rpm>
</extensions>
</trkpt>
<trkpt lat="63.749626160" lon="-20.240066528">
<ele>25.982910</ele>
<time>2012-07-27T10:52:13Z</time>
<speed>0.020000</speed>
<extensions>
<speed>0.0</speed>
<temp>0.00</temp>
<bpm>0</bpm>
<rpm>0.00</rpm>
</extensions>
</trkpt>
<trkpt lat="63.749622345" lon="-20.240062714">
<ele>26.075684</ele>
<time>2012-07-27T10:52:18Z</time>
<speed>0.110000</speed>
<extensions>
<speed>0.1</speed>
<temp>0.00</temp>
<bpm>0</bpm>
<rpm>0.00</rpm>
</extensions>
</trkpt>
<trkpt lat="63.749618530" lon="-20.240058899">
<ele>26.251465</ele>
<time>2012-07-27T10:52:23Z</time>
<speed>0.100000</speed>
<extensions>
<speed>0.1</speed>
<temp>0.00</temp>
<bpm>0</bpm>
<rpm>0.00</rpm>
</extensions>
</trkpt>
<trkpt lat="63.749614716" lon="-20.240055084">
<ele>26.324219</ele>
<time>2012-07-27T10:52:28Z</time>
<speed>0.020000</speed>
<extensions>
<speed>0.0</speed>
<temp>0.00</temp>
<bpm>0</bpm>
<rpm>0.00</rpm>
</extensions>
</trkpt>
<trkpt lat="63.749610901" lon="-20.240053177">
<ele>26.414551</ele>
<time>2012-07-27T10:52:33Z</time>
<speed>0.020000</speed>
<extensions>
<speed>0.0</speed>
<temp>0.00</temp>
<bpm>0</bpm>
<rpm>0.00</rpm>
</extensions>
</trkpt>
<trkpt lat="63.749610901" lon="-20.240047455">
<ele>26.623047</ele>
<time>2012-07-27T10:52:38Z</time>
<speed>0.080000</speed>
<extensions>
<speed>0.1</speed>
<temp>0.00</temp>
<bpm>0</bpm>
<rpm>0.00</rpm>
</extensions>
</trkpt>
<trkpt lat="63.749607086" lon="-20.240045547">
<ele>26.611328</ele>
<time>2012-07-27T10:52:43Z</time>
<extensions>
<speed>0.0</speed>
<temp>0.00</temp>
<bpm>0</bpm>
<rpm>0.00</rpm>
</extensions>
</trkpt>
<trkpt lat="63.749607086" lon="-20.240045547">
<ele>26.583008</ele>
<time>2012-07-27T10:52:48Z</time>
<speed>0.090000</speed>
<extensions>
<speed>0.1</speed>
<temp>0.00</temp>
<bpm>0</bpm>
<rpm>0.00</rpm>
</extensions>
</trkpt>
<trkpt lat="63.749610901" lon="-20.240045547">
<ele>26.476074</ele>
<time>2012-07-27T10:52:53Z</time>
<speed>0.230000</speed>
<extensions>
<speed>0.2</speed>
<temp>0.00</temp>
<bpm>0</bpm>
<rpm>0.00</rpm>
</extensions>
</trkpt>
<trkpt lat="63.749607086" lon="-20.240022659">
<ele>26.170898</ele>
<time>2012-07-27T10:52:58Z</time>
<speed>0.420000</speed>
<extensions>
<speed>0.4</speed>
<temp>0.00</temp>
<bpm>0</bpm>
<rpm>0.00</rpm>
</extensions>
</trkpt>
<trkpt lat="63.749572754" lon="-20.240039825">
<ele>26.114258</ele>
<time>2012-07-27T10:53:03Z</time>
<speed>0.260000</speed>
<extensions>
<speed>0.3</speed>
<temp>0.00</temp>
<bpm>0</bpm>
<rpm>0.00</rpm>
</extensions>
</trkpt>
<trkpt lat="63.749557495" lon="-20.240022659">
<ele>26.103516</ele>
<time>2012-07-27T10:53:08Z</time>
<speed>0.330000</speed>
<extensions>
<speed>0.3</speed>
<temp>0.00</temp>
<bpm>0</bpm>
<rpm>0.00</rpm>
</extensions>
</trkpt>
<trkpt lat="63.749542236" lon="-20.240022659">
<ele>26.460938</ele>
<time>2012-07-27T10:53:13Z</time>
<speed>0.040000</speed>
<extensions>
<speed>0.0</speed>
<temp>0.00</temp>
<bpm>0</bpm>
<rpm>0.00</rpm>
</extensions>
</trkpt>
<trkpt lat="63.749538422" lon="-20.240028381">
<ele>26.304199</ele>
<time>2012-07-27T10:53:18Z</time>
<speed>0.170000</speed>
<extensions>
<speed>0.2</speed>
<temp>0.00</temp>
<bpm>0</bpm>
<rpm>0.00</rpm>
</extensions>
</trkpt>
<trkpt lat="63.749568939" lon="-20.240011215">
<ele>24.469238</ele>
<time>2012-07-27T10:53:23Z</time>
<speed>0.680000</speed>
<extensions>
<speed>0.7</speed>
<temp>0.00</temp>
<bpm>0</bpm>
<rpm>0.00</rpm>
</extensions>
</trkpt>
<trkpt lat="63.749629974" lon="-20.239873886">
<ele>23.379395</ele>
<time>2012-07-27T10:53:28Z</time>
<speed>1.680000</speed>
<extensions>
<speed>1.7</speed>
<temp>0.00</temp>
<bpm>0</bpm>
<rpm>0.00</rpm>
</extensions>
</trkpt>
<trkpt lat="63.749675751" lon="-20.239732742">
<ele>22.495117</ele>
<time>2012-07-27T10:53:33Z</time>
<speed>1.610000</speed>
<extensions>
<speed>1.6</speed>
<temp>0.00</temp>
<bpm>0</bpm>
<rpm>0.00</rpm>
</extensions>
</trkpt>
<trkpt lat="63.749706268" lon="-20.239582062">
<ele>21.407227</ele>
<time>2012-07-27T10:53:38Z</time>
<speed>1.540000</speed>
<extensions>
<speed>1.5</speed>
<temp>0.00</temp>
<bpm>0</bpm>
<rpm>0.00</rpm>
</extensions>
</trkpt>
<trkpt lat="63.749732971" lon="-20.239400864">
<ele>19.366211</ele>
<time>2012-07-27T10:53:43Z</time>
<speed>1.620000</speed>
<extensions>
<speed>1.6</speed>
<temp>0.00</temp>
<bpm>0</bpm>
<rpm>0.00</rpm>
</extensions>
</trkpt>
<trkpt lat="63.749752045" lon="-20.239191055">
<ele>17.173340</ele>
<time>2012-07-27T10:53:48Z</time>
<speed>2.370000</speed>
<extensions>
<speed>2.4</speed>
<temp>0.00</temp>
<bpm>0</bpm>
<rpm>0.00</rpm>
</extensions>
</trkpt>
<trkpt lat="63.749782562" lon="-20.238910675">
<ele>16.692383</ele>
<time>2012-07-27T10:53:53Z</time>
<speed>2.590000</speed>
<extensions>
<speed>2.6</speed>
<temp>0.00</temp>
<bpm>0</bpm>
<rpm>0.00</rpm>
</extensions>
</trkpt>
<trkpt lat="63.749832153" lon="-20.238674164">
<ele>14.018555</ele>
<time>2012-07-27T10:53:58Z</time>
<speed>2.840000</speed>
<extensions>
<speed>2.8</speed>
<temp>0.00</temp>
<bpm>0</bpm>
<rpm>0.00</rpm>
</extensions>
</trkpt>
<trkpt lat="63.749931335" lon="-20.238695145">
<ele>10.907959</ele>
<time>2012-07-27T10:54:03Z</time>
<speed>2.970000</speed>
<extensions>
<speed>3.0</speed>
<temp>0.00</temp>
<bpm>0</bpm>
<rpm>0.00</rpm>
</extensions>
</trkpt>
<trkpt lat="63.750049591" lon="-20.238870621">
<ele>10.600586</ele>
<time>2012-07-27T10:54:08Z</time>
<speed>2.930000</speed>
<extensions>
<speed>2.9</speed>
<temp>0.00</temp>
<bpm>0</bpm>
<rpm>0.00</rpm>
</extensions>
</trkpt>
<trkpt lat="63.750175476" lon="-20.238988876">
<ele>11.699951</ele>
<time>2012-07-27T10:54:13Z</time>
<speed>2.520000</speed>
<extensions>
<speed>2.5</speed>
<temp>0.00</temp>
<bpm>0</bpm>
<rpm>0.00</rpm>
</extensions>
</trkpt>
<trkpt lat="63.750213623" lon="-20.238895416">
<ele>11.800049</ele>
<time>2012-07-27T10:54:18Z</time>
<speed>1.870000</speed>
<extensions>
<speed>1.9</speed>
<temp>0.00</temp>
<bpm>0</bpm>
<rpm>0.00</rpm>
</extensions>
</trkpt>
<trkpt lat="63.750244141" lon="-20.238716125">
<ele>10.155518</ele>
<time>2012-07-27T10:54:23Z</time>
<speed>2.230000</speed>
<extensions>
<speed>2.2</speed>
<temp>0.00</temp>
<bpm>0</bpm>
<rpm>0.00</rpm>
</extensions>
</trkpt>
<trkpt lat="63.750263214" lon="-20.238468170">
<ele>8.655518</ele>
<time>2012-07-27T10:54:28Z</time>
<speed>2.670000</speed>
<extensions>
<speed>2.7</speed>
<temp>0.00</temp>
<bpm>0</bpm>
<rpm>0.00</rpm>
</extensions>
</trkpt>
<trkpt lat="63.750289917" lon="-20.238178253">
<ele>5.784302</ele>
<time>2012-07-27T10:54:33Z</time>
<speed>2.840000</speed>
<extensions>
<speed>2.8</speed>
<temp>0.00</temp>
<bpm>0</bpm>
<rpm>0.00</rpm>
</extensions>
</trkpt>
<trkpt lat="63.750328064" lon="-20.237890244">
<ele>2.095337</ele>
<time>2012-07-27T10:54:38Z</time>
<speed>2.780000</speed>
<extensions>
<speed>2.8</speed>
<temp>0.00</temp>
<bpm>0</bpm>
<rpm>0.00</rpm>
</extensions>
</trkpt>
<trkpt lat="63.750362396" lon="-20.237569809">
<ele>-2.140076</ele>
<time>2012-07-27T10:54:43Z</time>
<speed>2.990000</speed>
<extensions>
<speed>3.0</speed>
<temp>0.00</temp>
<bpm>0</bpm>
<rpm>0.00</rpm>
</extensions>
</trkpt>
<trkpt lat="63.750400543" lon="-20.237247467">
<ele>-8.099609</ele>
<time>2012-07-27T10:54:48Z</time>
<speed>3.110000</speed>
<extensions>
<speed>3.1</speed>
<temp>0.00</temp>
<bpm>0</bpm>
<rpm>0.00</rpm>
</extensions>
</trkpt>
<trkpt lat="63.750488281" lon="-20.236972809">
<ele>-7.791504</ele>
<time>2012-07-27T10:54:53Z</time>
<speed>3.190000</speed>
<extensions>
<speed>3.2</speed>
<temp>0.00</temp>
<bpm>0</bpm>
<rpm>0.00</rpm>
</extensions>
</trkpt>
<trkpt lat="63.750606537" lon="-20.236795425">
<ele>-2.247620</ele>
<time>2012-07-27T10:54:58Z</time>
<speed>3.070000</speed>
<extensions>
<speed>3.1</speed>
<temp>0.00</temp>
<bpm>0</bpm>
<rpm>0.00</rpm>
</extensions>
</trkpt>
<trkpt lat="63.750720978" lon="-20.236654282">
<ele>0.941757</ele>
<time>2012-07-27T10:55:03Z</time>
<speed>2.910000</speed>
<extensions>
<speed>2.9</speed>
<temp>0.00</temp>
<bpm>0</bpm>
<rpm>0.00</rpm>
</extensions>
</trkpt>
<trkpt lat="63.750831604" lon="-20.236486435">
<ele>3.828369</ele>
<time>2012-07-27T10:55:08Z</time>
<speed>2.880000</speed>
<extensions>
<speed>2.9</speed>
<temp>0.00</temp>
<bpm>0</bpm>
<rpm>0.00</rpm>
</extensions>
</trkpt>
<trkpt lat="63.750907898" lon="-20.236331940">
<ele>5.302124</ele>
<time>2012-07-27T10:55:13Z</time>
<speed>1.660000</speed>
<extensions>
<speed>1.7</speed>
<temp>0.00</temp>
<bpm>0</bpm>
<rpm>0.00</rpm>
</extensions>
</trkpt>
<trkpt lat="63.750976563" lon="-20.236087799">
<ele>3.932495</ele>
<time>2012-07-27T10:55:18Z</time>
<speed>2.740000</speed>
<extensions>
<speed>2.7</speed>
<temp>0.00</temp>
<bpm>0</bpm>
<rpm>0.00</rpm>
</extensions>
</trkpt>
<trkpt lat="63.751049042" lon="-20.235864639">
<ele>3.110596</ele>
<time>2012-07-27T10:55:23Z</time>
<speed>2.840000</speed>
<extensions>
<speed>2.8</speed>
<temp>0.00</temp>
<bpm>0</bpm>
<rpm>0.00</rpm>
</extensions>
</trkpt>
<trkpt lat="63.751125336" lon="-20.235641479">
<ele>4.166382</ele>
<time>2012-07-27T10:55:28Z</time>
<speed>2.340000</speed>
<extensions>
<speed>2.3</speed>
<temp>0.00</temp>
<bpm>0</bpm>
<rpm>0.00</rpm>
</extensions>
</trkpt>
<trkpt lat="63.751140594" lon="-20.235454559">
<ele>2.862732</ele>
<time>2012-07-27T10:55:33Z</time>
<speed>1.960000</speed>
<extensions>
<speed>2.0</speed>
<temp>0.00</temp>
<bpm>0</bpm>
<rpm>0.00</rpm>
</extensions>
</trkpt>
<trkpt lat="63.751106262" lon="-20.235317230">
<ele>6.447388</ele>
<time>2012-07-27T10:55:38Z</time>
<speed>2.610000</speed>
<extensions>
<speed>2.6</speed>
<temp>0.00</temp>
<bpm>0</bpm>
<rpm>0.00</rpm>
</extensions>
</trkpt>
<trkpt lat="63.751007080" lon="-20.235153198">
<ele>8.337402</ele>
<time>2012-07-27T10:55:43Z</time>
<speed>3.290000</speed>
<extensions>
<speed>3.3</speed>
<temp>0.00</temp>
<bpm>0</bpm>
<rpm>0.00</rpm>
</extensions>
</trkpt>
<trkpt lat="63.750888824" lon="-20.234968185">
<ele>9.372559</ele>
<time>2012-07-27T10:55:48Z</time>
<speed>3.360000</speed>
<extensions>
<speed>3.4</speed>
<temp>0.00</temp>
<bpm>0</bpm>
<rpm>0.00</rpm>
</extensions>
</trkpt>
<trkpt lat="63.750774384" lon="-20.234788895">
<ele>11.507324</ele>
<time>2012-07-27T10:55:53Z</time>
<speed>3.550000</speed>
<extensions>
<speed>3.5</speed>
<temp>0.00</temp>
<bpm>0</bpm>
<rpm>0.00</rpm>
</extensions>
</trkpt>
<trkpt lat="63.750644684" lon="-20.234582901">
<ele>11.920654</ele>
<time>2012-07-27T10:55:58Z</time>
<speed>3.770000</speed>
<extensions>
<speed>3.8</speed>
<temp>0.00</temp>
<bpm>0</bpm>
<rpm>0.00</rpm>
</extensions>
</trkpt>
<trkpt lat="63.750507355" lon="-20.234369278">
<ele>12.241211</ele>
<time>2012-07-27T10:56:03Z</time>
<speed>3.760000</speed>
<extensions>
<speed>3.8</speed>
<temp>0.00</temp>
<bpm>0</bpm>
<rpm>0.00</rpm>
</extensions>
</trkpt>
<trkpt lat="63.750370026" lon="-20.234138489">
<ele>12.806885</ele>
<time>2012-07-27T10:56:08Z</time>
<speed>3.810000</speed>
<extensions>
<speed>3.8</speed>
<temp>0.00</temp>
<bpm>0</bpm>
<rpm>0.00</rpm>
</extensions>
</trkpt>
<trkpt lat="63.750225067" lon="-20.233919144">
<ele>13.298828</ele>
<time>2012-07-27T10:56:13Z</time>
<speed>3.820000</speed>
<extensions>
<speed>3.8</speed>
<temp>0.00</temp>
<bpm>0</bpm>
<rpm>0.00</rpm>
</extensions>
</trkpt>
<trkpt lat="63.750087738" lon="-20.233737946">
<ele>15.475342</ele>
<time>2012-07-27T10:56:18Z</time>
<speed>3.390000</speed>
<extensions>
<speed>3.4</speed>
<temp>0.00</temp>
<bpm>0</bpm>
<rpm>0.00</rpm>
</extensions>
</trkpt>
<trkpt lat="63.749977112" lon="-20.233560562">
<ele>15.745605</ele>
<time>2012-07-27T10:56:23Z</time>
<speed>2.170000</speed>
<extensions>
<speed>2.2</speed>
<temp>0.00</temp>
<bpm>0</bpm>
<rpm>0.00</rpm>
</extensions>
</trkpt>
<trkpt lat="63.749969482" lon="-20.233533859">
<ele>14.572021</ele>
<time>2012-07-27T10:56:28Z</time>
<speed>0.080000</speed>
<extensions>
<speed>0.1</speed>
<temp>0.00</temp>
<bpm>0</bpm>
<rpm>0.00</rpm>
</extensions>
</trkpt>
<trkpt lat="63.749965668" lon="-20.233530045">
<ele>14.299316</ele>
<time>2012-07-27T10:56:33Z</time>
<speed>0.090000</speed>
<extensions>
<speed>0.1</speed>
<temp>0.00</temp>
<bpm>0</bpm>
<rpm>0.00</rpm>
</extensions>
</trkpt>
<trkpt lat="63.749965668" lon="-20.233530045">
<ele>14.174805</ele>
<time>2012-07-27T10:56:38Z</time>
<speed>0.010000</speed>
<extensions>
<speed>0.0</speed>
<temp>0.00</temp>
<bpm>0</bpm>
<rpm>0.00</rpm>
</extensions>
</trkpt>
<trkpt lat="63.749965668" lon="-20.233531952">
<ele>14.124512</ele>
<time>2012-07-27T10:56:43Z</time>
<speed>0.100000</speed>
<extensions>
<speed>0.1</speed>
<temp>0.00</temp>
<bpm>0</bpm>
<rpm>0.00</rpm>
</extensions>
</trkpt>
<trkpt lat="63.749958038" lon="-20.233514786">
<ele>14.217041</ele>
<time>2012-07-27T10:56:48Z</time>
<speed>1.230000</speed>
<extensions>
<speed>1.2</speed>
<temp>0.00</temp>
<bpm>0</bpm>
<rpm>0.00</rpm>
</extensions>
</trkpt>
<trkpt lat="63.749988556" lon="-20.233314514">
<ele>15.513184</ele>
<time>2012-07-27T10:56:53Z</time>
<speed>2.400000</speed>
<extensions>
<speed>2.4</speed>
<temp>0.00</temp>
<bpm>0</bpm>
<rpm>0.00</rpm>
</extensions>
</trkpt>
<trkpt lat="63.750022888" lon="-20.233182907">
<ele>16.089355</ele>
<time>2012-07-27T10:56:58Z</time>
<speed>2.320000</speed>
<extensions>
<speed>2.3</speed>
<temp>0.00</temp>
<bpm>0</bpm>
<rpm>0.00</rpm>
</extensions>
</trkpt>
<trkpt lat="63.750076294" lon="-20.233003616">
<ele>13.171387</ele>
<time>2012-07-27T10:57:03Z</time>
<speed>2.620000</speed>
<extensions>
<speed>2.6</speed>
<temp>0.00</temp>
<bpm>0</bpm>
<rpm>0.00</rpm>
</extensions>
</trkpt>
<trkpt lat="63.750091553" lon="-20.232803345">
<ele>13.931396</ele>
<time>2012-07-27T10:57:08Z</time>
<speed>0.490000</speed>
<extensions>
<speed>0.5</speed>
<temp>0.00</temp>
<bpm>0</bpm>
<rpm>0.00</rpm>
</extensions>
</trkpt>
<trkpt lat="63.750041962" lon="-20.232898712">
<ele>12.695557</ele>
<time>2012-07-27T10:57:13Z</time>
<speed>2.380000</speed>
<extensions>
<speed>2.4</speed>
<temp>0.00</temp>
<bpm>0</bpm>
<rpm>0.00</rpm>
</extensions>
</trkpt>
<trkpt lat="63.749973297" lon="-20.232957840">
<ele>12.041016</ele>
<time>2012-07-27T10:57:18Z</time>
<speed>1.050000</speed>
<extensions>
<speed>1.0</speed>
<temp>0.00</temp>
<bpm>0</bpm>
<rpm>0.00</rpm>
</extensions>
</trkpt>
<trkpt lat="63.749950409" lon="-20.232934952">
<ele>14.658936</ele>
<time>2012-07-27T10:57:23Z</time>
<speed>0.560000</speed>
<extensions>
<speed>0.6</speed>
<temp>0.00</temp>
<bpm>0</bpm>
<rpm>0.00</rpm>
</extensions>
</trkpt>
<trkpt lat="63.749950409" lon="-20.232976913">
<ele>16.852539</ele>
<time>2012-07-27T10:57:28Z</time>
<speed>0.060000</speed>
<extensions>
<speed>0.1</speed>
<temp>0.00</temp>
<bpm>0</bpm>
<rpm>0.00</rpm>
</extensions>
</trkpt>
<trkpt lat="63.749950409" lon="-20.232971191">
<ele>16.955566</ele>
<time>2012-07-27T10:57:33Z</time>
<speed>0.010000</speed>
<extensions>
<speed>0.0</speed>
<temp>0.00</temp>
<bpm>0</bpm>
<rpm>0.00</rpm>
</extensions>
</trkpt>
<trkpt lat="63.749950409" lon="-20.232973099">
<ele>17.036621</ele>
<time>2012-07-27T10:57:38Z</time>
<extensions>
<speed>0.0</speed>
<temp>0.00</temp>
<bpm>0</bpm>
<rpm>0.00</rpm>
</extensions>
</trkpt>
<trkpt lat="63.749950409" lon="-20.232973099">
<ele>17.109375</ele>
<time>2012-07-27T10:57:43Z</time>
<extensions>
<speed>0.0</speed>
<temp>0.00</temp>
<bpm>0</bpm>
<rpm>0.00</rpm>
</extensions>
</trkpt>
<trkpt lat="63.749950409" lon="-20.232973099">
<ele>17.190430</ele>
<time>2012-07-27T10:57:48Z</time>
<speed>0.010000</speed>
<extensions>
<speed>0.0</speed>
<temp>0.00</temp>
<bpm>0</bpm>
<rpm>0.00</rpm>
</extensions>
</trkpt>
<trkpt lat="63.749950409" lon="-20.232973099">
<ele>17.261719</ele>
<time>2012-07-27T10:57:53Z</time>
<speed>0.010000</speed>
<extensions>
<speed>0.0</speed>
<temp>0.00</temp>
<bpm>0</bpm>
<rpm>0.00</rpm>
</extensions>
</trkpt>
<trkpt lat="63.749950409" lon="-20.232973099">
<ele>17.309570</ele>
<time>2012-07-27T10:57:58Z</time>
<speed>0.020000</speed>
<extensions>
<speed>0.0</speed>
<temp>0.00</temp>
<bpm>0</bpm>
<rpm>0.00</rpm>
</extensions>
</trkpt>
<trkpt lat="63.749950409" lon="-20.232973099">
<ele>17.360840</ele>
<time>2012-07-27T10:58:03Z</time>
<extensions>
<speed>0.0</speed>
<temp>0.00</temp>
<bpm>0</bpm>
<rpm>0.00</rpm>
</extensions>
</trkpt>
<trkpt lat="63.749950409" lon="-20.232975006">
<ele>17.394531</ele>
<time>2012-07-27T10:58:08Z</time>
<extensions>
<speed>0.0</speed>
<temp>0.00</temp>
<bpm>0</bpm>
<rpm>0.00</rpm>
</extensions>
</trkpt>
<trkpt lat="63.749950409" lon="-20.232975006">
<ele>17.433594</ele>
<time>2012-07-27T10:58:13Z</time>
<speed>0.010000</speed>
<extensions>
<speed>0.0</speed>
<temp>0.00</temp>
<bpm>0</bpm>
<rpm>0.00</rpm>
</extensions>
</trkpt>
<trkpt lat="63.749950409" lon="-20.232976913">
<ele>17.483398</ele>
<time>2012-07-27T10:58:18Z</time>
<extensions>
<speed>0.0</speed>
<temp>0.00</temp>
<bpm>0</bpm>
<rpm>0.00</rpm>
</extensions>
</trkpt>
<trkpt lat="63.749954224" lon="-20.232978821">
<ele>17.519043</ele>
<time>2012-07-27T10:58:23Z</time>
<extensions>
<speed>0.0</speed>
<temp>0.00</temp>
<bpm>0</bpm>
<rpm>0.00</rpm>
</extensions>
</trkpt>
<trkpt lat="63.749954224" lon="-20.232978821">
<ele>17.550293</ele>
<time>2012-07-27T10:58:28Z</time>
<speed>0.010000</speed>
<extensions>
<speed>0.0</speed>
<temp>0.00</temp>
<bpm>0</bpm>
<rpm>0.00</rpm>
</extensions>
</trkpt>
<trkpt lat="63.749954224" lon="-20.232978821">
<ele>17.572754</ele>
<time>2012-07-27T10:58:33Z</time>
<extensions>
<speed>0.0</speed>
<temp>0.00</temp>
<bpm>0</bpm>
<rpm>0.00</rpm>
</extensions>
</trkpt>
<trkpt lat="63.749954224" lon="-20.232978821">
<ele>17.589355</ele>
<time>2012-07-27T10:58:38Z</time>
<extensions>
<speed>0.0</speed>
<temp>0.00</temp>
<bpm>0</bpm>
<rpm>0.00</rpm>
</extensions>
</trkpt>
<trkpt lat="63.749954224" lon="-20.232980728">
<ele>17.612793</ele>
<time>2012-07-27T10:58:43Z</time>
<extensions>
<speed>0.0</speed>
<temp>0.00</temp>
<bpm>0</bpm>
<rpm>0.00</rpm>
</extensions>
</trkpt>
<trkpt lat="63.749954224" lon="-20.232978821">
<ele>17.635254</ele>
<time>2012-07-27T10:58:48Z</time>
<speed>0.020000</speed>
<extensions>
<speed>0.0</speed>
<temp>0.00</temp>
<bpm>0</bpm>
<rpm>0.00</rpm>
</extensions>
</trkpt>
<trkpt lat="63.749954224" lon="-20.232980728">
<ele>17.677734</ele>
<time>2012-07-27T10:58:53Z</time>
<speed>0.010000</speed>
<extensions>
<speed>0.0</speed>
<temp>0.00</temp>
<bpm>0</bpm>
<rpm>0.00</rpm>
</extensions>
</trkpt>
<trkpt lat="63.749954224" lon="-20.232980728">
<ele>17.703125</ele>
<time>2012-07-27T10:58:58Z</time>
<speed>0.010000</speed>
<extensions>
<speed>0.0</speed>
<temp>0.00</temp>
<bpm>0</bpm>
<rpm>0.00</rpm>
</extensions>
</trkpt>
<trkpt lat="63.749954224" lon="-20.232982635">
<ele>17.738281</ele>
<time>2012-07-27T10:59:03Z</time>
<speed>0.010000</speed>
<extensions>
<speed>0.0</speed>
<temp>0.00</temp>
<bpm>0</bpm>
<rpm>0.00</rpm>
</extensions>
</trkpt>
<trkpt lat="63.749954224" lon="-20.232982635">
<ele>17.770020</ele>
<time>2012-07-27T10:59:08Z</time>
<extensions>
<speed>0.0</speed>
<temp>0.00</temp>
<bpm>0</bpm>
<rpm>0.00</rpm>
</extensions>
</trkpt>
<trkpt lat="63.749954224" lon="-20.232982635">
<ele>17.792969</ele>
<time>2012-07-27T10:59:13Z</time>
<extensions>
<speed>0.0</speed>
<temp>0.00</temp>
<bpm>0</bpm>
<rpm>0.00</rpm>
</extensions>
</trkpt>
<trkpt lat="63.749954224" lon="-20.232984543">
<ele>17.818359</ele>
<time>2012-07-27T10:59:18Z</time>
<extensions>
<speed>0.0</speed>
<temp>0.00</temp>
<bpm>0</bpm>
<rpm>0.00</rpm>
</extensions>
</trkpt>
<trkpt lat="63.749954224" lon="-20.232984543">
<ele>17.848145</ele>
<time>2012-07-27T10:59:23Z</time>
<extensions>
<speed>0.0</speed>
<temp>0.00</temp>
<bpm>0</bpm>
<rpm>0.00</rpm>
</extensions>
</trkpt>
<trkpt lat="63.749954224" lon="-20.232984543">
<ele>17.881348</ele>
<time>2012-07-27T10:59:28Z</time>
<extensions>
<speed>0.0</speed>
<temp>0.00</temp>
<bpm>0</bpm>
<rpm>0.00</rpm>
</extensions>
</trkpt>
<trkpt lat="63.749954224" lon="-20.232986450">
<ele>17.906250</ele>
<time>2012-07-27T10:59:33Z</time>
<extensions>
<speed>0.0</speed>
<temp>0.00</temp>
<bpm>0</bpm>
<rpm>0.00</rpm>
</extensions>
</trkpt>
<trkpt lat="63.749954224" lon="-20.232986450">
<ele>17.939453</ele>
<time>2012-07-27T10:59:38Z</time>
<extensions>
<speed>0.0</speed>
<temp>0.00</temp>
<bpm>0</bpm>
<rpm>0.00</rpm>
</extensions>
</trkpt>
<trkpt lat="63.749954224" lon="-20.232986450">
<ele>17.978027</ele>
<time>2012-07-27T10:59:43Z</time>
<speed>0.010000</speed>
<extensions>
<speed>0.0</speed>
<temp>0.00</temp>
<bpm>0</bpm>
<rpm>0.00</rpm>
</extensions>
</trkpt>
<trkpt lat="63.749954224" lon="-20.232988358">
<ele>18.009277</ele>
<time>2012-07-27T10:59:48Z</time>
<extensions>
<speed>0.0</speed>
<temp>0.00</temp>
<bpm>0</bpm>
<rpm>0.00</rpm>
</extensions>
</trkpt>
<trkpt lat="63.749954224" lon="-20.232988358">
<ele>18.038574</ele>
<time>2012-07-27T10:59:53Z</time>
<speed>0.010000</speed>
<extensions>
<speed>0.0</speed>
<temp>0.00</temp>
<bpm>0</bpm>
<rpm>0.00</rpm>
</extensions>
</trkpt>
<trkpt lat="63.749954224" lon="-20.232990265">
<ele>18.079102</ele>
<time>2012-07-27T10:59:58Z</time>
<extensions>
<speed>0.0</speed>
<temp>0.00</temp>
<bpm>0</bpm>
<rpm>0.00</rpm>
</extensions>
</trkpt>
<trkpt lat="63.749954224" lon="-20.232990265">
<ele>18.099121</ele>
<time>2012-07-27T11:00:03Z</time>
<speed>0.010000</speed>
<extensions>
<speed>0.0</speed>
<temp>0.00</temp>
<bpm>0</bpm>
<rpm>0.00</rpm>
</extensions>
</trkpt>
<trkpt lat="63.749954224" lon="-20.232990265">
<ele>18.139160</ele>
<time>2012-07-27T11:00:08Z</time>
<extensions>
<speed>0.0</speed>
<temp>0.00</temp>
<bpm>0</bpm>
<rpm>0.00</rpm>
</extensions>
</trkpt>
<trkpt lat="63.749954224" lon="-20.232992172">
<ele>18.196777</ele>
<time>2012-07-27T11:00:13Z</time>
<extensions>
<speed>0.0</speed>
<temp>0.00</temp>
<bpm>0</bpm>
<rpm>0.00</rpm>
</extensions>
</trkpt>
<trkpt lat="63.749954224" lon="-20.232992172">
<ele>18.237305</ele>
<time>2012-07-27T11:00:18Z</time>
<extensions>
<speed>0.0</speed>
<temp>0.00</temp>
<bpm>0</bpm>
<rpm>0.00</rpm>
</extensions>
</trkpt>
<trkpt lat="63.749954224" lon="-20.232992172">
<ele>18.279785</ele>
<time>2012-07-27T11:00:23Z</time>
<extensions>
<speed>0.0</speed>
<temp>0.00</temp>
<bpm>0</bpm>
<rpm>0.00</rpm>
</extensions>
</trkpt>
<trkpt lat="63.749958038" lon="-20.232994080">
<ele>18.322266</ele>
<time>2012-07-27T11:00:28Z</time>
<extensions>
<speed>0.0</speed>
<temp>0.00</temp>
<bpm>0</bpm>
<rpm>0.00</rpm>
</extensions>
</trkpt>
<trkpt lat="63.749958038" lon="-20.232994080">
<ele>18.361816</ele>
<time>2012-07-27T11:00:33Z</time>
<extensions>
<speed>0.0</speed>
<temp>0.00</temp>
<bpm>0</bpm>
<rpm>0.00</rpm>
</extensions>
</trkpt>
<trkpt lat="63.749958038" lon="-20.232994080">
<ele>18.386230</ele>
<time>2012-07-27T11:00:38Z</time>
<speed>0.010000</speed>
<extensions>
<speed>0.0</speed>
<temp>0.00</temp>
<bpm>0</bpm>
<rpm>0.00</rpm>
</extensions>
</trkpt>
<trkpt lat="63.749958038" lon="-20.232995987">
<ele>18.414551</ele>
<time>2012-07-27T11:00:43Z</time>
<speed>0.010000</speed>
<extensions>
<speed>0.0</speed>
<temp>0.00</temp>
<bpm>0</bpm>
<rpm>0.00</rpm>
</extensions>
</trkpt>
<trkpt lat="63.749958038" lon="-20.232995987">
<ele>18.457031</ele>
<time>2012-07-27T11:00:48Z</time>
<extensions>
<speed>0.0</speed>
<temp>0.00</temp>
<bpm>0</bpm>
<rpm>0.00</rpm>
</extensions>
</trkpt>
<trkpt lat="63.749958038" lon="-20.232995987">
<ele>18.485352</ele>
<time>2012-07-27T11:00:53Z</time>
<extensions>
<speed>0.0</speed>
<temp>0.00</temp>
<bpm>0</bpm>
<rpm>0.00</rpm>
</extensions>
</trkpt>
<trkpt lat="63.749958038" lon="-20.232997894">
<ele>18.522949</ele>
<time>2012-07-27T11:00:58Z</time>
<speed>0.010000</speed>
<extensions>
<speed>0.0</speed>
<temp>0.00</temp>
<bpm>0</bpm>
<rpm>0.00</rpm>
</extensions>
</trkpt>
<trkpt lat="63.749958038" lon="-20.232997894">
<ele>18.559082</ele>
<time>2012-07-27T11:01:03Z</time>
<extensions>
<speed>0.0</speed>
<temp>0.00</temp>
<bpm>0</bpm>
<rpm>0.00</rpm>
</extensions>
</trkpt>
<trkpt lat="63.749958038" lon="-20.232997894">
<ele>18.595703</ele>
<time>2012-07-27T11:01:08Z</time>
<extensions>
<speed>0.0</speed>
<temp>0.00</temp>
<bpm>0</bpm>
<rpm>0.00</rpm>
</extensions>
</trkpt>
<trkpt lat="63.749958038" lon="-20.232999802">
<ele>18.630859</ele>
<time>2012-07-27T11:01:13Z</time>
<extensions>
<speed>0.0</speed>
<temp>0.00</temp>
<bpm>0</bpm>
<rpm>0.00</rpm>
</extensions>
</trkpt>
<trkpt lat="63.749958038" lon="-20.232999802">
<ele>18.660645</ele>
<time>2012-07-27T11:01:18Z</time>
<extensions>
<speed>0.0</speed>
<temp>0.00</temp>
<bpm>0</bpm>
<rpm>0.00</rpm>
</extensions>
</trkpt>
<trkpt lat="63.749958038" lon="-20.232999802">
<ele>18.689453</ele>
<time>2012-07-27T11:01:23Z</time>
<extensions>
<speed>0.0</speed>
<temp>0.00</temp>
<bpm>0</bpm>
<rpm>0.00</rpm>
</extensions>
</trkpt>
<trkpt lat="63.749958038" lon="-20.233001709">
<ele>18.718750</ele>
<time>2012-07-27T11:01:28Z</time>
<extensions>
<speed>0.0</speed>
<temp>0.00</temp>
<bpm>0</bpm>
<rpm>0.00</rpm>
</extensions>
</trkpt>
<trkpt lat="63.749958038" lon="-20.233001709">
<ele>18.755371</ele>
<time>2012-07-27T11:01:33Z</time>
<extensions>
<speed>0.0</speed>
<temp>0.00</temp>
<bpm>0</bpm>
<rpm>0.00</rpm>
</extensions>
</trkpt>
<trkpt lat="63.749958038" lon="-20.233001709">
<ele>18.787109</ele>
<time>2012-07-27T11:01:38Z</time>
<extensions>
<speed>0.0</speed>
<temp>0.00</temp>
<bpm>0</bpm>
<rpm>0.00</rpm>
</extensions>
</trkpt>
<trkpt lat="63.749958038" lon="-20.233001709">
<ele>18.816406</ele>
<time>2012-07-27T11:01:43Z</time>
<speed>0.010000</speed>
<extensions>
<speed>0.0</speed>
<temp>0.00</temp>
<bpm>0</bpm>
<rpm>0.00</rpm>
</extensions>
</trkpt>
<trkpt lat="63.749958038" lon="-20.233001709">
<ele>18.849121</ele>
<time>2012-07-27T11:01:48Z</time>
<extensions>
<speed>0.0</speed>
<temp>0.00</temp>
<bpm>0</bpm>
<rpm>0.00</rpm>
</extensions>
</trkpt>
<trkpt lat="63.749958038" lon="-20.233001709">
<ele>18.879395</ele>
<time>2012-07-27T11:01:53Z</time>
<extensions>
<speed>0.0</speed>
<temp>0.00</temp>
<bpm>0</bpm>
<rpm>0.00</rpm>
</extensions>
</trkpt>
<trkpt lat="63.749958038" lon="-20.233003616">
<ele>18.911133</ele>
<time>2012-07-27T11:01:58Z</time>
<extensions>
<speed>0.0</speed>
<temp>0.00</temp>
<bpm>0</bpm>
<rpm>0.00</rpm>
</extensions>
</trkpt>
<trkpt lat="63.749958038" lon="-20.233003616">
<ele>18.939941</ele>
<time>2012-07-27T11:02:03Z</time>
<extensions>
<speed>0.0</speed>
<temp>0.00</temp>
<bpm>0</bpm>
<rpm>0.00</rpm>
</extensions>
</trkpt>
<trkpt lat="63.749958038" lon="-20.233003616">
<ele>18.969727</ele>
<time>2012-07-27T11:02:08Z</time>
<speed>0.010000</speed>
<extensions>
<speed>0.0</speed>
<temp>0.00</temp>
<bpm>0</bpm>
<rpm>0.00</rpm>
</extensions>
</trkpt>
<trkpt lat="63.749958038" lon="-20.233003616">
<ele>18.998047</ele>
<time>2012-07-27T11:02:13Z</time>
<extensions>
<speed>0.0</speed>
<temp>0.00</temp>
<bpm>0</bpm>
<rpm>0.00</rpm>
</extensions>
</trkpt>
<trkpt lat="63.749958038" lon="-20.233003616">
<ele>19.020508</ele>
<time>2012-07-27T11:02:18Z</time>
<extensions>
<speed>0.0</speed>
<temp>0.00</temp>
<bpm>0</bpm>
<rpm>0.00</rpm>
</extensions>
</trkpt>
<trkpt lat="63.749958038" lon="-20.233003616">
<ele>19.046875</ele>
<time>2012-07-27T11:02:23Z</time>
<extensions>
<speed>0.0</speed>
<temp>0.00</temp>
<bpm>0</bpm>
<rpm>0.00</rpm>
</extensions>
</trkpt>
<trkpt lat="63.749958038" lon="-20.233003616">
<ele>19.069824</ele>
<time>2012-07-27T11:02:28Z</time>
<extensions>
<speed>0.0</speed>
<temp>0.00</temp>
<bpm>0</bpm>
<rpm>0.00</rpm>
</extensions>
</trkpt>
<trkpt lat="63.749958038" lon="-20.233003616">
<ele>19.095215</ele>
<time>2012-07-27T11:02:33Z</time>
<extensions>
<speed>0.0</speed>
<temp>0.00</temp>
<bpm>0</bpm>
<rpm>0.00</rpm>
</extensions>
</trkpt>
<trkpt lat="63.749958038" lon="-20.233005524">
<ele>19.118164</ele>
<time>2012-07-27T11:02:38Z</time>
<extensions>
<speed>0.0</speed>
<temp>0.00</temp>
<bpm>0</bpm>
<rpm>0.00</rpm>
</extensions>
</trkpt>
<trkpt lat="63.749958038" lon="-20.233005524">
<ele>19.142578</ele>
<time>2012-07-27T11:02:43Z</time>
<extensions>
<speed>0.0</speed>
<temp>0.00</temp>
<bpm>0</bpm>
<rpm>0.00</rpm>
</extensions>
</trkpt>
<trkpt lat="63.749958038" lon="-20.233005524">
<ele>19.166992</ele>
<time>2012-07-27T11:02:48Z</time>
<extensions>
<speed>0.0</speed>
<temp>0.00</temp>
<bpm>0</bpm>
<rpm>0.00</rpm>
</extensions>
</trkpt>
<trkpt lat="63.749958038" lon="-20.233005524">
<ele>19.194336</ele>
<time>2012-07-27T11:02:53Z</time>
<extensions>
<speed>0.0</speed>
<temp>0.00</temp>
<bpm>0</bpm>
<rpm>0.00</rpm>
</extensions>
</trkpt>
<trkpt lat="63.749958038" lon="-20.233005524">
<ele>19.217285</ele>
<time>2012-07-27T11:02:58Z</time>
<extensions>
<speed>0.0</speed>
<temp>0.00</temp>
<bpm>0</bpm>
<rpm>0.00</rpm>
</extensions>
</trkpt>
<trkpt lat="63.749958038" lon="-20.233005524">
<ele>19.236816</ele>
<time>2012-07-27T11:03:03Z</time>
<extensions>
<speed>0.0</speed>
<temp>0.00</temp>
<bpm>0</bpm>
<rpm>0.00</rpm>
</extensions>
</trkpt>
<trkpt lat="63.749958038" lon="-20.233007431">
<ele>19.257324</ele>
<time>2012-07-27T11:03:08Z</time>
<extensions>
<speed>0.0</speed>
<temp>0.00</temp>
<bpm>0</bpm>
<rpm>0.00</rpm>
</extensions>
</trkpt>
<trkpt lat="63.749958038" lon="-20.233007431">
<ele>19.282227</ele>
<time>2012-07-27T11:03:13Z</time>
<extensions>
<speed>0.0</speed>
<temp>0.00</temp>
<bpm>0</bpm>
<rpm>0.00</rpm>
</extensions>
</trkpt>
<trkpt lat="63.749958038" lon="-20.233007431">
<ele>19.313965</ele>
<time>2012-07-27T11:03:18Z</time>
<speed>0.010000</speed>
<extensions>
<speed>0.0</speed>
<temp>0.00</temp>
<bpm>0</bpm>
<rpm>0.00</rpm>
</extensions>
</trkpt>
<trkpt lat="63.749958038" lon="-20.233007431">
<ele>19.346191</ele>
<time>2012-07-27T11:03:23Z</time>
<extensions>
<speed>0.0</speed>
<temp>0.00</temp>
<bpm>0</bpm>
<rpm>0.00</rpm>
</extensions>
</trkpt>
<trkpt lat="63.749958038" lon="-20.233007431">
<ele>19.379395</ele>
<time>2012-07-27T11:03:28Z</time>
<extensions>
<speed>0.0</speed>
<temp>0.00</temp>
<bpm>0</bpm>
<rpm>0.00</rpm>
</extensions>
</trkpt>
<trkpt lat="63.749958038" lon="-20.233007431">
<ele>19.406738</ele>
<time>2012-07-27T11:03:33Z</time>
<extensions>
<speed>0.0</speed>
<temp>0.00</temp>
<bpm>0</bpm>
<rpm>0.00</rpm>
</extensions>
</trkpt>
<trkpt lat="63.749958038" lon="-20.233007431">
<ele>19.437988</ele>
<time>2012-07-27T11:03:38Z</time>
<speed>0.010000</speed>
<extensions>
<speed>0.0</speed>
<temp>0.00</temp>
<bpm>0</bpm>
<rpm>0.00</rpm>
</extensions>
</trkpt>
<trkpt lat="63.749958038" lon="-20.233007431">
<ele>19.465332</ele>
<time>2012-07-27T11:03:43Z</time>
<extensions>
<speed>0.0</speed>
<temp>0.00</temp>
<bpm>0</bpm>
<rpm>0.00</rpm>
</extensions>
</trkpt>
<trkpt lat="63.749958038" lon="-20.233007431">
<ele>19.480957</ele>
<time>2012-07-27T11:03:48Z</time>
<speed>0.010000</speed>
<extensions>
<speed>0.0</speed>
<temp>0.00</temp>
<bpm>0</bpm>
<rpm>0.00</rpm>
</extensions>
</trkpt>
<trkpt lat="63.749958038" lon="-20.233009338">
<ele>19.500977</ele>
<time>2012-07-27T11:03:53Z</time>
<speed>0.010000</speed>
<extensions>
<speed>0.0</speed>
<temp>0.00</temp>
<bpm>0</bpm>
<rpm>0.00</rpm>
</extensions>
</trkpt>
<trkpt lat="63.749958038" lon="-20.233009338">
<ele>19.532227</ele>
<time>2012-07-27T11:03:58Z</time>
<extensions>
<speed>0.0</speed>
<temp>0.00</temp>
<bpm>0</bpm>
<rpm>0.00</rpm>
</extensions>
</trkpt>
<trkpt lat="63.749958038" lon="-20.233009338">
<ele>19.568359</ele>
<time>2012-07-27T11:04:03Z</time>
<extensions>
<speed>0.0</speed>
<temp>0.00</temp>
<bpm>0</bpm>
<rpm>0.00</rpm>
</extensions>
</trkpt>
<trkpt lat="63.749958038" lon="-20.233009338">
<ele>19.598145</ele>
<time>2012-07-27T11:04:08Z</time>
<extensions>
<speed>0.0</speed>
<temp>0.00</temp>
<bpm>0</bpm>
<rpm>0.00</rpm>
</extensions>
</trkpt>
<trkpt lat="63.749958038" lon="-20.233009338">
<ele>19.625488</ele>
<time>2012-07-27T11:04:13Z</time>
<speed>0.010000</speed>
<extensions>
<speed>0.0</speed>
<temp>0.00</temp>
<bpm>0</bpm>
<rpm>0.00</rpm>
</extensions>
</trkpt>
<trkpt lat="63.749958038" lon="-20.233009338">
<ele>19.644531</ele>
<time>2012-07-27T11:04:18Z</time>
<speed>0.010000</speed>
<extensions>
<speed>0.0</speed>
<temp>0.00</temp>
<bpm>0</bpm>
<rpm>0.00</rpm>
</extensions>
</trkpt>
<trkpt lat="63.749958038" lon="-20.233009338">
<ele>19.660156</ele>
<time>2012-07-27T11:04:23Z</time>
<extensions>
<speed>0.0</speed>
<temp>0.00</temp>
<bpm>0</bpm>
<rpm>0.00</rpm>
</extensions>
</trkpt>
<trkpt lat="63.749958038" lon="-20.233009338">
<ele>19.684570</ele>
<time>2012-07-27T11:04:28Z</time>
<speed>0.020000</speed>
<extensions>
<speed>0.0</speed>
<temp>0.00</temp>
<bpm>0</bpm>
<rpm>0.00</rpm>
</extensions>
</trkpt>
<trkpt lat="63.749958038" lon="-20.233011246">
<ele>19.707520</ele>
<time>2012-07-27T11:04:33Z</time>
<speed>0.010000</speed>
<extensions>
<speed>0.0</speed>
<temp>0.00</temp>
<bpm>0</bpm>
<rpm>0.00</rpm>
</extensions>
</trkpt>
<trkpt lat="63.749958038" lon="-20.233011246">
<ele>19.740234</ele>
<time>2012-07-27T11:04:38Z</time>
<extensions>
<speed>0.0</speed>
<temp>0.00</temp>
<bpm>0</bpm>
<rpm>0.00</rpm>
</extensions>
</trkpt>
<trkpt lat="63.749958038" lon="-20.233011246">
<ele>19.770020</ele>
<time>2012-07-27T11:04:43Z</time>
<extensions>
<speed>0.0</speed>
<temp>0.00</temp>
<bpm>0</bpm>
<rpm>0.00</rpm>
</extensions>
</trkpt>
<trkpt lat="63.749958038" lon="-20.233011246">
<ele>19.792480</ele>
<time>2012-07-27T11:04:48Z</time>
<speed>0.010000</speed>
<extensions>
<speed>0.0</speed>
<temp>0.00</temp>
<bpm>0</bpm>
<rpm>0.00</rpm>
</extensions>
</trkpt>
<trkpt lat="63.749958038" lon="-20.233013153">
<ele>19.811523</ele>
<time>2012-07-27T11:04:53Z</time>
<speed>0.010000</speed>
<extensions>
<speed>0.0</speed>
<temp>0.00</temp>
<bpm>0</bpm>
<rpm>0.00</rpm>
</extensions>
</trkpt>
<trkpt lat="63.749958038" lon="-20.233013153">
<ele>19.843750</ele>
<time>2012-07-27T11:04:58Z</time>
<extensions>
<speed>0.0</speed>
<temp>0.00</temp>
<bpm>0</bpm>
<rpm>0.00</rpm>
</extensions>
</trkpt>
<trkpt lat="63.749958038" lon="-20.233013153">
<ele>19.873047</ele>
<time>2012-07-27T11:05:03Z</time>
<speed>0.010000</speed>
<extensions>
<speed>0.0</speed>
<temp>0.00</temp>
<bpm>0</bpm>
<rpm>0.00</rpm>
</extensions>
</trkpt>
<trkpt lat="63.749958038" lon="-20.233013153">
<ele>19.895020</ele>
<time>2012-07-27T11:05:08Z</time>
<speed>0.010000</speed>
<extensions>
<speed>0.0</speed>
<temp>0.00</temp>
<bpm>0</bpm>
<rpm>0.00</rpm>
</extensions>
</trkpt>
<trkpt lat="63.749958038" lon="-20.233013153">
<ele>19.920898</ele>
<time>2012-07-27T11:05:13Z</time>
<speed>0.010000</speed>
<extensions>
<speed>0.0</speed>
<temp>0.00</temp>
<bpm>0</bpm>
<rpm>0.00</rpm>
</extensions>
</trkpt>
<trkpt lat="63.749958038" lon="-20.233013153">
<ele>19.938477</ele>
<time>2012-07-27T11:05:18Z</time>
<extensions>
<speed>0.0</speed>
<temp>0.00</temp>
<bpm>0</bpm>
<rpm>0.00</rpm>
</extensions>
</trkpt>
<trkpt lat="63.749958038" lon="-20.233013153">
<ele>19.960449</ele>
<time>2012-07-27T11:05:23Z</time>
<extensions>
<speed>0.0</speed>
<temp>0.00</temp>
<bpm>0</bpm>
<rpm>0.00</rpm>
</extensions>
</trkpt>
<trkpt lat="63.749958038" lon="-20.233013153">
<ele>19.979980</ele>
<time>2012-07-27T11:05:28Z</time>
<speed>0.010000</speed>
<extensions>
<speed>0.0</speed>
<temp>0.00</temp>
<bpm>0</bpm>
<rpm>0.00</rpm>
</extensions>
</trkpt>
<trkpt lat="63.749961853" lon="-20.233013153">
<ele>20.002930</ele>
<time>2012-07-27T11:05:33Z</time>
<extensions>
<speed>0.0</speed>
<temp>0.00</temp>
<bpm>0</bpm>
<rpm>0.00</rpm>
</extensions>
</trkpt>
<trkpt lat="63.749961853" lon="-20.233013153">
<ele>20.025391</ele>
<time>2012-07-27T11:05:38Z</time>
<extensions>
<speed>0.0</speed>
<temp>0.00</temp>
<bpm>0</bpm>
<rpm>0.00</rpm>
</extensions>
</trkpt>
<trkpt lat="63.749961853" lon="-20.233013153">
<ele>20.043457</ele>
<time>2012-07-27T11:05:43Z</time>
<extensions>
<speed>0.0</speed>
<temp>0.00</temp>
<bpm>0</bpm>
<rpm>0.00</rpm>
</extensions>
</trkpt>
<trkpt lat="63.749961853" lon="-20.233013153">
<ele>20.064941</ele>
<time>2012-07-27T11:05:48Z</time>
<speed>0.010000</speed>
<extensions>
<speed>0.0</speed>
<temp>0.00</temp>
<bpm>0</bpm>
<rpm>0.00</rpm>
</extensions>
</trkpt>
<trkpt lat="63.749961853" lon="-20.233011246">
<ele>20.086914</ele>
<time>2012-07-27T11:05:53Z</time>
<extensions>
<speed>0.0</speed>
<temp>0.00</temp>
<bpm>0</bpm>
<rpm>0.00</rpm>
</extensions>
</trkpt>
<trkpt lat="63.749961853" lon="-20.233011246">
<ele>20.103027</ele>
<time>2012-07-27T11:05:58Z</time>
<extensions>
<speed>0.0</speed>
<temp>0.00</temp>
<bpm>0</bpm>
<rpm>0.00</rpm>
</extensions>
</trkpt>
<trkpt lat="63.749961853" lon="-20.233011246">
<ele>20.118652</ele>
<time>2012-07-27T11:06:03Z</time>
<extensions>
<speed>0.0</speed>
<temp>0.00</temp>
<bpm>0</bpm>
<rpm>0.00</rpm>
</extensions>
</trkpt>
<trkpt lat="63.749961853" lon="-20.233011246">
<ele>20.134277</ele>
<time>2012-07-27T11:06:08Z</time>
<extensions>
<speed>0.0</speed>
<temp>0.00</temp>
<bpm>0</bpm>
<rpm>0.00</rpm>
</extensions>
</trkpt>
<trkpt lat="63.749961853" lon="-20.233011246">
<ele>20.158203</ele>
<time>2012-07-27T11:06:13Z</time>
<extensions>
<speed>0.0</speed>
<temp>0.00</temp>
<bpm>0</bpm>
<rpm>0.00</rpm>
</extensions>
</trkpt>
<trkpt lat="63.749961853" lon="-20.233011246">
<ele>20.181152</ele>
<time>2012-07-27T11:06:18Z</time>
<speed>0.010000</speed>
<extensions>
<speed>0.0</speed>
<temp>0.00</temp>
<bpm>0</bpm>
<rpm>0.00</rpm>
</extensions>
</trkpt>
<trkpt lat="63.749961853" lon="-20.233011246">
<ele>20.211426</ele>
<time>2012-07-27T11:06:23Z</time>
<speed>0.010000</speed>
<extensions>
<speed>0.0</speed>
<temp>0.00</temp>
<bpm>0</bpm>
<rpm>0.00</rpm>
</extensions>
</trkpt>
<trkpt lat="63.749961853" lon="-20.233013153">
<ele>20.248047</ele>
<time>2012-07-27T11:06:28Z</time>
<extensions>
<speed>0.0</speed>
<temp>0.00</temp>
<bpm>0</bpm>
<rpm>0.00</rpm>
</extensions>
</trkpt>
<trkpt lat="63.749961853" lon="-20.233013153">
<ele>20.282715</ele>
<time>2012-07-27T11:06:33Z</time>
<extensions>
<speed>0.0</speed>
<temp>0.00</temp>
<bpm>0</bpm>
<rpm>0.00</rpm>
</extensions>
</trkpt>
<trkpt lat="63.749961853" lon="-20.233013153">
<ele>20.313965</ele>
<time>2012-07-27T11:06:38Z</time>
<speed>0.010000</speed>
<extensions>
<speed>0.0</speed>
<temp>0.00</temp>
<bpm>0</bpm>
<rpm>0.00</rpm>
</extensions>
</trkpt>
<trkpt lat="63.749961853" lon="-20.233013153">
<ele>20.337891</ele>
<time>2012-07-27T11:06:43Z</time>
<speed>0.010000</speed>
<extensions>
<speed>0.0</speed>
<temp>0.00</temp>
<bpm>0</bpm>
<rpm>0.00</rpm>
</extensions>
</trkpt>
<trkpt lat="63.749961853" lon="-20.233013153">
<ele>20.364746</ele>
<time>2012-07-27T11:06:48Z</time>
<speed>0.020000</speed>
<extensions>
<speed>0.0</speed>
<temp>0.00</temp>
<bpm>0</bpm>
<rpm>0.00</rpm>
</extensions>
</trkpt>
<trkpt lat="63.749961853" lon="-20.233013153">
<ele>20.393066</ele>
<time>2012-07-27T11:06:53Z</time>
<extensions>
<speed>0.0</speed>
<temp>0.00</temp>
<bpm>0</bpm>
<rpm>0.00</rpm>
</extensions>
</trkpt>
<trkpt lat="63.749961853" lon="-20.233015060">
<ele>20.417969</ele>
<time>2012-07-27T11:06:58Z</time>
<extensions>
<speed>0.0</speed>
<temp>0.00</temp>
<bpm>0</bpm>
<rpm>0.00</rpm>
</extensions>
</trkpt>
<trkpt lat="63.749965668" lon="-20.233015060">
<ele>20.437012</ele>
<time>2012-07-27T11:07:03Z</time>
<extensions>
<speed>0.0</speed>
<temp>0.00</temp>
<bpm>0</bpm>
<rpm>0.00</rpm>
</extensions>
</trkpt>
<trkpt lat="63.749965668" lon="-20.233015060">
<ele>20.460449</ele>
<time>2012-07-27T11:07:08Z</time>
<extensions>
<speed>0.0</speed>
<temp>0.00</temp>
<bpm>0</bpm>
<rpm>0.00</rpm>
</extensions>
</trkpt>
<trkpt lat="63.749965668" lon="-20.233015060">
<ele>20.484375</ele>
<time>2012-07-27T11:07:13Z</time>
<extensions>
<speed>0.0</speed>
<temp>0.00</temp>
<bpm>0</bpm>
<rpm>0.00</rpm>
</extensions>
</trkpt>
<trkpt lat="63.749965668" lon="-20.233016968">
<ele>20.509766</ele>
<time>2012-07-27T11:07:18Z</time>
<speed>0.010000</speed>
<extensions>
<speed>0.0</speed>
<temp>0.00</temp>
<bpm>0</bpm>
<rpm>0.00</rpm>
</extensions>
</trkpt>
<trkpt lat="63.749965668" lon="-20.233016968">
<ele>20.535156</ele>
<time>2012-07-27T11:07:23Z</time>
<extensions>
<speed>0.0</speed>
<temp>0.00</temp>
<bpm>0</bpm>
<rpm>0.00</rpm>
</extensions>
</trkpt>
<trkpt lat="63.749965668" lon="-20.233016968">
<ele>20.562988</ele>
<time>2012-07-27T11:07:28Z</time>
<extensions>
<speed>0.0</speed>
<temp>0.00</temp>
<bpm>0</bpm>
<rpm>0.00</rpm>
</extensions>
</trkpt>
<trkpt lat="63.749965668" lon="-20.233016968">
<ele>20.588867</ele>
<time>2012-07-27T11:07:33Z</time>
<extensions>
<speed>0.0</speed>
<temp>0.00</temp>
<bpm>0</bpm>
<rpm>0.00</rpm>
</extensions>
</trkpt>
<trkpt lat="63.749965668" lon="-20.233018875">
<ele>20.615234</ele>
<time>2012-07-27T11:07:38Z</time>
<extensions>
<speed>0.0</speed>
<temp>0.00</temp>
<bpm>0</bpm>
<rpm>0.00</rpm>
</extensions>
</trkpt>
<trkpt lat="63.749965668" lon="-20.233018875">
<ele>20.638672</ele>
<time>2012-07-27T11:07:43Z</time>
<extensions>
<speed>0.0</speed>
<temp>0.00</temp>
<bpm>0</bpm>
<rpm>0.00</rpm>
</extensions>
</trkpt>
<trkpt lat="63.749965668" lon="-20.233018875">
<ele>20.664063</ele>
<time>2012-07-27T11:07:48Z</time>
<speed>0.010000</speed>
<extensions>
<speed>0.0</speed>
<temp>0.00</temp>
<bpm>0</bpm>
<rpm>0.00</rpm>
</extensions>
</trkpt>
<trkpt lat="63.749965668" lon="-20.233020782">
<ele>20.690430</ele>
<time>2012-07-27T11:07:53Z</time>
<speed>0.010000</speed>
<extensions>
<speed>0.0</speed>
<temp>0.00</temp>
<bpm>0</bpm>
<rpm>0.00</rpm>
</extensions>
</trkpt>
<trkpt lat="63.749965668" lon="-20.233020782">
<ele>20.716309</ele>
<time>2012-07-27T11:07:58Z</time>
<speed>0.010000</speed>
<extensions>
<speed>0.0</speed>
<temp>0.00</temp>
<bpm>0</bpm>
<rpm>0.00</rpm>
</extensions>
</trkpt>
<trkpt lat="63.749965668" lon="-20.233020782">
<ele>20.740234</ele>
<time>2012-07-27T11:08:03Z</time>
<extensions>
<speed>0.0</speed>
<temp>0.00</temp>
<bpm>0</bpm>
<rpm>0.00</rpm>
</extensions>
</trkpt>
<trkpt lat="63.749965668" lon="-20.233022690">
<ele>20.758301</ele>
<time>2012-07-27T11:08:08Z</time>
<extensions>
<speed>0.0</speed>
<temp>0.00</temp>
<bpm>0</bpm>
<rpm>0.00</rpm>
</extensions>
</trkpt>
<trkpt lat="63.749965668" lon="-20.233022690">
<ele>20.772461</ele>
<time>2012-07-27T11:08:13Z</time>
<speed>0.010000</speed>
<extensions>
<speed>0.0</speed>
<temp>0.00</temp>
<bpm>0</bpm>
<rpm>0.00</rpm>
</extensions>
</trkpt>
<trkpt lat="63.749965668" lon="-20.233022690">
<ele>20.792969</ele>
<time>2012-07-27T11:08:18Z</time>
<speed>0.010000</speed>
<extensions>
<speed>0.0</speed>
<temp>0.00</temp>
<bpm>0</bpm>
<rpm>0.00</rpm>
</extensions>
</trkpt>
<trkpt lat="63.749965668" lon="-20.233022690">
<ele>20.819336</ele>
<time>2012-07-27T11:08:23Z</time>
<extensions>
<speed>0.0</speed>
<temp>0.00</temp>
<bpm>0</bpm>
<rpm>0.00</rpm>
</extensions>
</trkpt>
<trkpt lat="63.749965668" lon="-20.233024597">
<ele>20.846680</ele>
<time>2012-07-27T11:08:28Z</time>
<speed>0.010000</speed>
<extensions>
<speed>0.0</speed>
<temp>0.00</temp>
<bpm>0</bpm>
<rpm>0.00</rpm>
</extensions>
</trkpt>
<trkpt lat="63.749965668" lon="-20.233024597">
<ele>20.872559</ele>
<time>2012-07-27T11:08:33Z</time>
<extensions>
<speed>0.0</speed>
<temp>0.00</temp>
<bpm>0</bpm>
<rpm>0.00</rpm>
</extensions>
</trkpt>
<trkpt lat="63.749965668" lon="-20.233026505">
<ele>20.903809</ele>
<time>2012-07-27T11:08:38Z</time>
<extensions>
<speed>0.0</speed>
<temp>0.00</temp>
<bpm>0</bpm>
<rpm>0.00</rpm>
</extensions>
</trkpt>
<trkpt lat="63.749965668" lon="-20.233026505">
<ele>20.928711</ele>
<time>2012-07-27T11:08:43Z</time>
<extensions>
<speed>0.0</speed>
<temp>0.00</temp>
<bpm>0</bpm>
<rpm>0.00</rpm>
</extensions>
</trkpt>
<trkpt lat="63.749965668" lon="-20.233026505">
<ele>20.952637</ele>
<time>2012-07-27T11:08:48Z</time>
<speed>0.130000</speed>
<extensions>
<speed>0.1</speed>
<temp>0.00</temp>
<bpm>0</bpm>
<rpm>0.00</rpm>
</extensions>
</trkpt>
<trkpt lat="63.749965668" lon="-20.233028412">
<ele>20.984375</ele>
<time>2012-07-27T11:08:53Z</time>
<extensions>
<speed>0.0</speed>
<temp>0.00</temp>
<bpm>0</bpm>
<rpm>0.00</rpm>
</extensions>
</trkpt>
<trkpt lat="63.749965668" lon="-20.233028412">
<ele>21.014648</ele>
<time>2012-07-27T11:08:58Z</time>
<extensions>
<speed>0.0</speed>
<temp>0.00</temp>
<bpm>0</bpm>
<rpm>0.00</rpm>
</extensions>
</trkpt>
<trkpt lat="63.749965668" lon="-20.233028412">
<ele>21.048340</ele>
<time>2012-07-27T11:09:03Z</time>
<extensions>
<speed>0.0</speed>
<temp>0.00</temp>
<bpm>0</bpm>
<rpm>0.00</rpm>
</extensions>
</trkpt>
<trkpt lat="63.749965668" lon="-20.233028412">
<ele>21.083496</ele>
<time>2012-07-27T11:09:08Z</time>
<extensions>
<speed>0.0</speed>
<temp>0.00</temp>
<bpm>0</bpm>
<rpm>0.00</rpm>
</extensions>
</trkpt>
<trkpt lat="63.749965668" lon="-20.233028412">
<ele>21.110352</ele>
<time>2012-07-27T11:09:13Z</time>
<extensions>
<speed>0.0</speed>
<temp>0.00</temp>
<bpm>0</bpm>
<rpm>0.00</rpm>
</extensions>
</trkpt>
<trkpt lat="63.749965668" lon="-20.233028412">
<ele>21.146973</ele>
<time>2012-07-27T11:09:18Z</time>
<extensions>
<speed>0.0</speed>
<temp>0.00</temp>
<bpm>0</bpm>
<rpm>0.00</rpm>
</extensions>
</trkpt>
<trkpt lat="63.749965668" lon="-20.233028412">
<ele>21.182129</ele>
<time>2012-07-27T11:09:23Z</time>
<speed>0.010000</speed>
<extensions>
<speed>0.0</speed>
<temp>0.00</temp>
<bpm>0</bpm>
<rpm>0.00</rpm>
</extensions>
</trkpt>
<trkpt lat="63.749965668" lon="-20.233030319">
<ele>21.216797</ele>
<time>2012-07-27T11:09:28Z</time>
<extensions>
<speed>0.0</speed>
<temp>0.00</temp>
<bpm>0</bpm>
<rpm>0.00</rpm>
</extensions>
</trkpt>
<trkpt lat="63.749965668" lon="-20.233030319">
<ele>21.249023</ele>
<time>2012-07-27T11:09:33Z</time>
<extensions>
<speed>0.0</speed>
<temp>0.00</temp>
<bpm>0</bpm>
<rpm>0.00</rpm>
</extensions>
</trkpt>
<trkpt lat="63.749965668" lon="-20.233030319">
<ele>21.279297</ele>
<time>2012-07-27T11:09:38Z</time>
<extensions>
<speed>0.0</speed>
<temp>0.00</temp>
<bpm>0</bpm>
<rpm>0.00</rpm>
</extensions>
</trkpt>
<trkpt lat="63.749965668" lon="-20.233030319">
<ele>21.309570</ele>
<time>2012-07-27T11:09:43Z</time>
<extensions>
<speed>0.0</speed>
<temp>0.00</temp>
<bpm>0</bpm>
<rpm>0.00</rpm>
</extensions>
</trkpt>
<trkpt lat="63.749965668" lon="-20.233030319">
<ele>21.335449</ele>
<time>2012-07-27T11:09:48Z</time>
<extensions>
<speed>0.0</speed>
<temp>0.00</temp>
<bpm>0</bpm>
<rpm>0.00</rpm>
</extensions>
</trkpt>
<trkpt lat="63.749965668" lon="-20.233030319">
<ele>21.367188</ele>
<time>2012-07-27T11:09:53Z</time>
<extensions>
<speed>0.0</speed>
<temp>0.00</temp>
<bpm>0</bpm>
<rpm>0.00</rpm>
</extensions>
</trkpt>
<trkpt lat="63.749965668" lon="-20.233030319">
<ele>21.392090</ele>
<time>2012-07-27T11:09:58Z</time>
<extensions>
<speed>0.0</speed>
<temp>0.00</temp>
<bpm>0</bpm>
<rpm>0.00</rpm>
</extensions>
</trkpt>
<trkpt lat="63.749965668" lon="-20.233030319">
<ele>21.421387</ele>
<time>2012-07-27T11:10:03Z</time>
<extensions>
<speed>0.0</speed>
<temp>0.00</temp>
<bpm>0</bpm>
<rpm>0.00</rpm>
</extensions>
</trkpt>
<trkpt lat="63.749965668" lon="-20.233030319">
<ele>21.449219</ele>
<time>2012-07-27T11:10:08Z</time>
<extensions>
<speed>0.0</speed>
<temp>0.00</temp>
<bpm>0</bpm>
<rpm>0.00</rpm>
</extensions>
</trkpt>
<trkpt lat="63.749965668" lon="-20.233030319">
<ele>21.472168</ele>
<time>2012-07-27T11:10:13Z</time>
<extensions>
<speed>0.0</speed>
<temp>0.00</temp>
<bpm>0</bpm>
<rpm>0.00</rpm>
</extensions>
</trkpt>
<trkpt lat="63.749965668" lon="-20.233032227">
<ele>21.507813</ele>
<time>2012-07-27T11:10:18Z</time>
<speed>0.010000</speed>
<extensions>
<speed>0.0</speed>
<temp>0.00</temp>
<bpm>0</bpm>
<rpm>0.00</rpm>
</extensions>
</trkpt>
<trkpt lat="63.749965668" lon="-20.233032227">
<ele>21.540039</ele>
<time>2012-07-27T11:10:23Z</time>
<extensions>
<speed>0.0</speed>
<temp>0.00</temp>
<bpm>0</bpm>
<rpm>0.00</rpm>
</extensions>
</trkpt>
<trkpt lat="63.749965668" lon="-20.233032227">
<ele>21.569336</ele>
<time>2012-07-27T11:10:28Z</time>
<speed>0.010000</speed>
<extensions>
<speed>0.0</speed>
<temp>0.00</temp>
<bpm>0</bpm>
<rpm>0.00</rpm>
</extensions>
</trkpt>
<trkpt lat="63.749965668" lon="-20.233032227">
<ele>21.597168</ele>
<time>2012-07-27T11:10:33Z</time>
<extensions>
<speed>0.0</speed>
<temp>0.00</temp>
<bpm>0</bpm>
<rpm>0.00</rpm>
</extensions>
</trkpt>
<trkpt lat="63.749965668" lon="-20.233032227">
<ele>21.626465</ele>
<time>2012-07-27T11:10:38Z</time>
<extensions>
<speed>0.0</speed>
<temp>0.00</temp>
<bpm>0</bpm>
<rpm>0.00</rpm>
</extensions>
</trkpt>
<trkpt lat="63.749965668" lon="-20.233032227">
<ele>21.656250</ele>
<time>2012-07-27T11:10:43Z</time>
<extensions>
<speed>0.0</speed>
<temp>0.00</temp>
<bpm>0</bpm>
<rpm>0.00</rpm>
</extensions>
</trkpt>
<trkpt lat="63.749965668" lon="-20.233032227">
<ele>21.687500</ele>
<time>2012-07-27T11:10:48Z</time>
<extensions>
<speed>0.0</speed>
<temp>0.00</temp>
<bpm>0</bpm>
<rpm>0.00</rpm>
</extensions>
</trkpt>
<trkpt lat="63.749965668" lon="-20.233032227">
<ele>21.713867</ele>
<time>2012-07-27T11:10:53Z</time>
<extensions>
<speed>0.0</speed>
<temp>0.00</temp>
<bpm>0</bpm>
<rpm>0.00</rpm>
</extensions>
</trkpt>
<trkpt lat="63.749965668" lon="-20.233032227">
<ele>21.734863</ele>
<time>2012-07-27T11:10:58Z</time>
<extensions>
<speed>0.0</speed>
<temp>0.00</temp>
<bpm>0</bpm>
<rpm>0.00</rpm>
</extensions>
</trkpt>
<trkpt lat="63.749965668" lon="-20.233032227">
<ele>21.761719</ele>
<time>2012-07-27T11:11:03Z</time>
<extensions>
<speed>0.0</speed>
<temp>0.00</temp>
<bpm>0</bpm>
<rpm>0.00</rpm>
</extensions>
</trkpt>
<trkpt lat="63.749965668" lon="-20.233032227">
<ele>21.785645</ele>
<time>2012-07-27T11:11:08Z</time>
<extensions>
<speed>0.0</speed>
<temp>0.00</temp>
<bpm>0</bpm>
<rpm>0.00</rpm>
</extensions>
</trkpt>
<trkpt lat="63.749965668" lon="-20.233032227">
<ele>21.821289</ele>
<time>2012-07-27T11:11:13Z</time>
<extensions>
<speed>0.0</speed>
<temp>0.00</temp>
<bpm>0</bpm>
<rpm>0.00</rpm>
</extensions>
</trkpt>
<trkpt lat="63.749965668" lon="-20.233034134">
<ele>21.863281</ele>
<time>2012-07-27T11:11:18Z</time>
<speed>0.010000</speed>
<extensions>
<speed>0.0</speed>
<temp>0.00</temp>
<bpm>0</bpm>
<rpm>0.00</rpm>
</extensions>
</trkpt>
<trkpt lat="63.749965668" lon="-20.233034134">
<ele>21.905762</ele>
<time>2012-07-27T11:11:23Z</time>
<extensions>
<speed>0.0</speed>
<temp>0.00</temp>
<bpm>0</bpm>
<rpm>0.00</rpm>
</extensions>
</trkpt>
<trkpt lat="63.749965668" lon="-20.233036041">
<ele>21.939453</ele>
<time>2012-07-27T11:11:28Z</time>
<extensions>
<speed>0.0</speed>
<temp>0.00</temp>
<bpm>0</bpm>
<rpm>0.00</rpm>
</extensions>
</trkpt>
<trkpt lat="63.749965668" lon="-20.233036041">
<ele>21.979492</ele>
<time>2012-07-27T11:11:33Z</time>
<extensions>
<speed>0.0</speed>
<temp>0.00</temp>
<bpm>0</bpm>
<rpm>0.00</rpm>
</extensions>
</trkpt>
<trkpt lat="63.749965668" lon="-20.233036041">
<ele>22.012695</ele>
<time>2012-07-27T11:11:38Z</time>
<extensions>
<speed>0.0</speed>
<temp>0.00</temp>
<bpm>0</bpm>
<rpm>0.00</rpm>
</extensions>
</trkpt>
<trkpt lat="63.749969482" lon="-20.233036041">
<ele>22.047363</ele>
<time>2012-07-27T11:11:43Z</time>
<speed>0.010000</speed>
<extensions>
<speed>0.0</speed>
<temp>0.00</temp>
<bpm>0</bpm>
<rpm>0.00</rpm>
</extensions>
</trkpt>
<trkpt lat="63.749969482" lon="-20.233036041">
<ele>22.082520</ele>
<time>2012-07-27T11:11:48Z</time>
<extensions>
<speed>0.0</speed>
<temp>0.00</temp>
<bpm>0</bpm>
<rpm>0.00</rpm>
</extensions>
</trkpt>
<trkpt lat="63.749969482" lon="-20.233036041">
<ele>22.108398</ele>
<time>2012-07-27T11:11:53Z</time>
<speed>0.010000</speed>
<extensions>
<speed>0.0</speed>
<temp>0.00</temp>
<bpm>0</bpm>
<rpm>0.00</rpm>
</extensions>
</trkpt>
<trkpt lat="63.749969482" lon="-20.233036041">
<ele>22.142090</ele>
<time>2012-07-27T11:11:58Z</time>
<extensions>
<speed>0.0</speed>
<temp>0.00</temp>
<bpm>0</bpm>
<rpm>0.00</rpm>
</extensions>
</trkpt>
<trkpt lat="63.749969482" lon="-20.233037949">
<ele>22.175293</ele>
<time>2012-07-27T11:12:03Z</time>
<extensions>
<speed>0.0</speed>
<temp>0.00</temp>
<bpm>0</bpm>
<rpm>0.00</rpm>
</extensions>
</trkpt>
<trkpt lat="63.749969482" lon="-20.233037949">
<ele>22.208008</ele>
<time>2012-07-27T11:12:08Z</time>
<extensions>
<speed>0.0</speed>
<temp>0.00</temp>
<bpm>0</bpm>
<rpm>0.00</rpm>
</extensions>
</trkpt>
<trkpt lat="63.749969482" lon="-20.233037949">
<ele>22.234375</ele>
<time>2012-07-27T11:12:13Z</time>
<speed>0.010000</speed>
<extensions>
<speed>0.0</speed>
<temp>0.00</temp>
<bpm>0</bpm>
<rpm>0.00</rpm>
</extensions>
</trkpt>
<trkpt lat="63.749969482" lon="-20.233037949">
<ele>22.264648</ele>
<time>2012-07-27T11:12:18Z</time>
<extensions>
<speed>0.0</speed>
<temp>0.00</temp>
<bpm>0</bpm>
<rpm>0.00</rpm>
</extensions>
</trkpt>
<trkpt lat="63.749969482" lon="-20.233037949">
<ele>22.295898</ele>
<time>2012-07-27T11:12:23Z</time>
<extensions>
<speed>0.0</speed>
<temp>0.00</temp>
<bpm>0</bpm>
<rpm>0.00</rpm>
</extensions>
</trkpt>
<trkpt lat="63.749969482" lon="-20.233037949">
<ele>22.328125</ele>
<time>2012-07-27T11:12:28Z</time>
<speed>0.010000</speed>
<extensions>
<speed>0.0</speed>
<temp>0.00</temp>
<bpm>0</bpm>
<rpm>0.00</rpm>
</extensions>
</trkpt>
<trkpt lat="63.749969482" lon="-20.233037949">
<ele>22.357910</ele>
<time>2012-07-27T11:12:33Z</time>
<extensions>
<speed>0.0</speed>
<temp>0.00</temp>
<bpm>0</bpm>
<rpm>0.00</rpm>
</extensions>
</trkpt>
<trkpt lat="63.749969482" lon="-20.233037949">
<ele>22.390625</ele>
<time>2012-07-27T11:12:38Z</time>
<extensions>
<speed>0.0</speed>
<temp>0.00</temp>
<bpm>0</bpm>
<rpm>0.00</rpm>
</extensions>
</trkpt>
<trkpt lat="63.749969482" lon="-20.233039856">
<ele>22.419434</ele>
<time>2012-07-27T11:12:43Z</time>
<speed>0.010000</speed>
<extensions>
<speed>0.0</speed>
<temp>0.00</temp>
<bpm>0</bpm>
<rpm>0.00</rpm>
</extensions>
</trkpt>
<trkpt lat="63.749969482" lon="-20.233039856">
<ele>22.454102</ele>
<time>2012-07-27T11:12:48Z</time>
<extensions>
<speed>0.0</speed>
<temp>0.00</temp>
<bpm>0</bpm>
<rpm>0.00</rpm>
</extensions>
</trkpt>
<trkpt lat="63.749969482" lon="-20.233039856">
<ele>22.486328</ele>
<time>2012-07-27T11:12:53Z</time>
<extensions>
<speed>0.0</speed>
<temp>0.00</temp>
<bpm>0</bpm>
<rpm>0.00</rpm>
</extensions>
</trkpt>
<trkpt lat="63.749969482" lon="-20.233039856">
<ele>22.520020</ele>
<time>2012-07-27T11:12:58Z</time>
<speed>0.010000</speed>
<extensions>
<speed>0.0</speed>
<temp>0.00</temp>
<bpm>0</bpm>
<rpm>0.00</rpm>
</extensions>
</trkpt>
<trkpt lat="63.749969482" lon="-20.233041763">
<ele>22.554199</ele>
<time>2012-07-27T11:13:03Z</time>
<extensions>
<speed>0.0</speed>
<temp>0.00</temp>
<bpm>0</bpm>
<rpm>0.00</rpm>
</extensions>
</trkpt>
<trkpt lat="63.749969482" lon="-20.233041763">
<ele>22.585449</ele>
<time>2012-07-27T11:13:08Z</time>
<extensions>
<speed>0.0</speed>
<temp>0.00</temp>
<bpm>0</bpm>
<rpm>0.00</rpm>
</extensions>
</trkpt>
<trkpt lat="63.749969482" lon="-20.233041763">
<ele>22.617676</ele>
<time>2012-07-27T11:13:13Z</time>
<extensions>
<speed>0.0</speed>
<temp>0.00</temp>
<bpm>0</bpm>
<rpm>0.00</rpm>
</extensions>
</trkpt>
<trkpt lat="63.749969482" lon="-20.233041763">
<ele>22.662109</ele>
<time>2012-07-27T11:13:18Z</time>
<extensions>
<speed>0.0</speed>
<temp>0.00</temp>
<bpm>0</bpm>
<rpm>0.00</rpm>
</extensions>
</trkpt>
<trkpt lat="63.749969482" lon="-20.233041763">
<ele>22.686523</ele>
<time>2012-07-27T11:13:23Z</time>
<speed>0.010000</speed>
<extensions>
<speed>0.0</speed>
<temp>0.00</temp>
<bpm>0</bpm>
<rpm>0.00</rpm>
</extensions>
</trkpt>
<trkpt lat="63.749969482" lon="-20.233041763">
<ele>22.718750</ele>
<time>2012-07-27T11:13:28Z</time>
<extensions>
<speed>0.0</speed>
<temp>0.00</temp>
<bpm>0</bpm>
<rpm>0.00</rpm>
</extensions>
</trkpt>
<trkpt lat="63.749969482" lon="-20.233041763">
<ele>22.733398</ele>
<time>2012-07-27T11:13:33Z</time>
<extensions>
<speed>0.0</speed>
<temp>0.00</temp>
<bpm>0</bpm>
<rpm>0.00</rpm>
</extensions>
</trkpt>
<trkpt lat="63.749969482" lon="-20.233041763">
<ele>22.755859</ele>
<time>2012-07-27T11:13:38Z</time>
<extensions>
<speed>0.0</speed>
<temp>0.00</temp>
<bpm>0</bpm>
<rpm>0.00</rpm>
</extensions>
</trkpt>
<trkpt lat="63.749969482" lon="-20.233041763">
<ele>22.774414</ele>
<time>2012-07-27T11:13:43Z</time>
<extensions>
<speed>0.0</speed>
<temp>0.00</temp>
<bpm>0</bpm>
<rpm>0.00</rpm>
</extensions>
</trkpt>
<trkpt lat="63.749969482" lon="-20.233041763">
<ele>22.789551</ele>
<time>2012-07-27T11:13:48Z</time>
<speed>0.010000</speed>
<extensions>
<speed>0.0</speed>
<temp>0.00</temp>
<bpm>0</bpm>
<rpm>0.00</rpm>
</extensions>
</trkpt>
<trkpt lat="63.749969482" lon="-20.233041763">
<ele>22.835938</ele>
<time>2012-07-27T11:13:53Z</time>
<extensions>
<speed>0.0</speed>
<temp>0.00</temp>
<bpm>0</bpm>
<rpm>0.00</rpm>
</extensions>
</trkpt>
<trkpt lat="63.749969482" lon="-20.233041763">
<ele>22.879395</ele>
<time>2012-07-27T11:13:58Z</time>
<extensions>
<speed>0.0</speed>
<temp>0.00</temp>
<bpm>0</bpm>
<rpm>0.00</rpm>
</extensions>
</trkpt>
<trkpt lat="63.749969482" lon="-20.233043671">
<ele>22.903809</ele>
<time>2012-07-27T11:14:03Z</time>
<extensions>
<speed>0.0</speed>
<temp>0.00</temp>
<bpm>0</bpm>
<rpm>0.00</rpm>
</extensions>
</trkpt>
<trkpt lat="63.749969482" lon="-20.233043671">
<ele>22.922852</ele>
<time>2012-07-27T11:14:08Z</time>
<extensions>
<speed>0.0</speed>
<temp>0.00</temp>
<bpm>0</bpm>
<rpm>0.00</rpm>
</extensions>
</trkpt>
<trkpt lat="63.749969482" lon="-20.233043671">
<ele>22.943848</ele>
<time>2012-07-27T11:14:13Z</time>
<extensions>
<speed>0.0</speed>
<temp>0.00</temp>
<bpm>0</bpm>
<rpm>0.00</rpm>
</extensions>
</trkpt>
<trkpt lat="63.749969482" lon="-20.233043671">
<ele>22.962402</ele>
<time>2012-07-27T11:14:18Z</time>
<extensions>
<speed>0.0</speed>
<temp>0.00</temp>
<bpm>0</bpm>
<rpm>0.00</rpm>
</extensions>
</trkpt>
<trkpt lat="63.749969482" lon="-20.233043671">
<ele>22.983398</ele>
<time>2012-07-27T11:14:23Z</time>
<speed>0.020000</speed>
<extensions>
<speed>0.0</speed>
<temp>0.00</temp>
<bpm>0</bpm>
<rpm>0.00</rpm>
</extensions>
</trkpt>
<trkpt lat="63.749969482" lon="-20.233043671">
<ele>23.000977</ele>
<time>2012-07-27T11:14:28Z</time>
<extensions>
<speed>0.0</speed>
<temp>0.00</temp>
<bpm>0</bpm>
<rpm>0.00</rpm>
</extensions>
</trkpt>
<trkpt lat="63.749969482" lon="-20.233041763">
<ele>23.019531</ele>
<time>2012-07-27T11:14:33Z</time>
<extensions>
<speed>0.0</speed>
<temp>0.00</temp>
<bpm>0</bpm>
<rpm>0.00</rpm>
</extensions>
</trkpt>
<trkpt lat="63.749969482" lon="-20.233041763">
<ele>23.038574</ele>
<time>2012-07-27T11:14:38Z</time>
<extensions>
<speed>0.0</speed>
<temp>0.00</temp>
<bpm>0</bpm>
<rpm>0.00</rpm>
</extensions>
</trkpt>
<trkpt lat="63.749969482" lon="-20.233041763">
<ele>23.053711</ele>
<time>2012-07-27T11:14:43Z</time>
<extensions>
<speed>0.0</speed>
<temp>0.00</temp>
<bpm>0</bpm>
<rpm>0.00</rpm>
</extensions>
</trkpt>
<trkpt lat="63.749969482" lon="-20.233041763">
<ele>23.072754</ele>
<time>2012-07-27T11:14:48Z</time>
<extensions>
<speed>0.0</speed>
<temp>0.00</temp>
<bpm>0</bpm>
<rpm>0.00</rpm>
</extensions>
</trkpt>
<trkpt lat="63.749969482" lon="-20.233041763">
<ele>23.104004</ele>
<time>2012-07-27T11:14:53Z</time>
<extensions>
<speed>0.0</speed>
<temp>0.00</temp>
<bpm>0</bpm>
<rpm>0.00</rpm>
</extensions>
</trkpt>
<trkpt lat="63.749969482" lon="-20.233043671">
<ele>23.143555</ele>
<time>2012-07-27T11:14:58Z</time>
<extensions>
<speed>0.0</speed>
<temp>0.00</temp>
<bpm>0</bpm>
<rpm>0.00</rpm>
</extensions>
</trkpt>
<trkpt lat="63.749969482" lon="-20.233043671">
<ele>23.171875</ele>
<time>2012-07-27T11:15:03Z</time>
<extensions>
<speed>0.0</speed>
<temp>0.00</temp>
<bpm>0</bpm>
<rpm>0.00</rpm>
</extensions>
</trkpt>
<trkpt lat="63.749969482" lon="-20.233043671">
<ele>23.197266</ele>
<time>2012-07-27T11:15:08Z</time>
<extensions>
<speed>0.0</speed>
<temp>0.00</temp>
<bpm>0</bpm>
<rpm>0.00</rpm>
</extensions>
</trkpt>
<trkpt lat="63.749969482" lon="-20.233043671">
<ele>23.235352</ele>
<time>2012-07-27T11:15:13Z</time>
<extensions>
<speed>0.0</speed>
<temp>0.00</temp>
<bpm>0</bpm>
<rpm>0.00</rpm>
</extensions>
</trkpt>
<trkpt lat="63.749969482" lon="-20.233043671">
<ele>23.252930</ele>
<time>2012-07-27T11:15:18Z</time>
<extensions>
<speed>0.0</speed>
<temp>0.00</temp>
<bpm>0</bpm>
<rpm>0.00</rpm>
</extensions>
</trkpt>
<trkpt lat="63.749969482" lon="-20.233043671">
<ele>23.285156</ele>
<time>2012-07-27T11:15:23Z</time>
<extensions>
<speed>0.0</speed>
<temp>0.00</temp>
<bpm>0</bpm>
<rpm>0.00</rpm>
</extensions>
</trkpt>
<trkpt lat="63.749969482" lon="-20.233043671">
<ele>23.309570</ele>
<time>2012-07-27T11:15:28Z</time>
<extensions>
<speed>0.0</speed>
<temp>0.00</temp>
<bpm>0</bpm>
<rpm>0.00</rpm>
</extensions>
</trkpt>
<trkpt lat="63.749969482" lon="-20.233043671">
<ele>23.337891</ele>
<time>2012-07-27T11:15:33Z</time>
<speed>0.010000</speed>
<extensions>
<speed>0.0</speed>
<temp>0.00</temp>
<bpm>0</bpm>
<rpm>0.00</rpm>
</extensions>
</trkpt>
<trkpt lat="63.749969482" lon="-20.233045578">
<ele>23.356934</ele>
<time>2012-07-27T11:15:38Z</time>
<extensions>
<speed>0.0</speed>
<temp>0.00</temp>
<bpm>0</bpm>
<rpm>0.00</rpm>
</extensions>
</trkpt>
<trkpt lat="63.749969482" lon="-20.233045578">
<ele>23.376465</ele>
<time>2012-07-27T11:15:43Z</time>
<speed>0.010000</speed>
<extensions>
<speed>0.0</speed>
<temp>0.00</temp>
<bpm>0</bpm>
<rpm>0.00</rpm>
</extensions>
</trkpt>
<trkpt lat="63.749969482" lon="-20.233045578">
<ele>23.394043</ele>
<time>2012-07-27T11:15:48Z</time>
<extensions>
<speed>0.0</speed>
<temp>0.00</temp>
<bpm>0</bpm>
<rpm>0.00</rpm>
</extensions>
</trkpt>
<trkpt lat="63.749969482" lon="-20.233047485">
<ele>23.413574</ele>
<time>2012-07-27T11:15:53Z</time>
<extensions>
<speed>0.0</speed>
<temp>0.00</temp>
<bpm>0</bpm>
<rpm>0.00</rpm>
</extensions>
</trkpt>
<trkpt lat="63.749969482" lon="-20.233047485">
<ele>23.431152</ele>
<time>2012-07-27T11:15:58Z</time>
<extensions>
<speed>0.0</speed>
<temp>0.00</temp>
<bpm>0</bpm>
<rpm>0.00</rpm>
</extensions>
</trkpt>
<trkpt lat="63.749969482" lon="-20.233047485">
<ele>23.452637</ele>
<time>2012-07-27T11:16:03Z</time>
<speed>0.010000</speed>
<extensions>
<speed>0.0</speed>
<temp>0.00</temp>
<bpm>0</bpm>
<rpm>0.00</rpm>
</extensions>
</trkpt>
<trkpt lat="63.749969482" lon="-20.233047485">
<ele>23.469727</ele>
<time>2012-07-27T11:16:08Z</time>
<extensions>
<speed>0.0</speed>
<temp>0.00</temp>
<bpm>0</bpm>
<rpm>0.00</rpm>
</extensions>
</trkpt>
<trkpt lat="63.749969482" lon="-20.233047485">
<ele>23.493164</ele>
<time>2012-07-27T11:16:13Z</time>
<extensions>
<speed>0.0</speed>
<temp>0.00</temp>
<bpm>0</bpm>
<rpm>0.00</rpm>
</extensions>
</trkpt>
<trkpt lat="63.749969482" lon="-20.233049393">
<ele>23.515137</ele>
<time>2012-07-27T11:16:18Z</time>
<speed>0.010000</speed>
<extensions>
<speed>0.0</speed>
<temp>0.00</temp>
<bpm>0</bpm>
<rpm>0.00</rpm>
</extensions>
</trkpt>
<trkpt lat="63.749969482" lon="-20.233049393">
<ele>23.529785</ele>
<time>2012-07-27T11:16:23Z</time>
<speed>0.010000</speed>
<extensions>
<speed>0.0</speed>
<temp>0.00</temp>
<bpm>0</bpm>
<rpm>0.00</rpm>
</extensions>
</trkpt>
<trkpt lat="63.749969482" lon="-20.233049393">
<ele>23.543457</ele>
<time>2012-07-27T11:16:28Z</time>
<speed>0.010000</speed>
<extensions>
<speed>0.0</speed>
<temp>0.00</temp>
<bpm>0</bpm>
<rpm>0.00</rpm>
</extensions>
</trkpt>
<trkpt lat="63.749969482" lon="-20.233049393">
<ele>23.556152</ele>
<time>2012-07-27T11:16:33Z</time>
<extensions>
<speed>0.0</speed>
<temp>0.00</temp>
<bpm>0</bpm>
<rpm>0.00</rpm>
</extensions>
</trkpt>
<trkpt lat="63.749969482" lon="-20.233051300">
<ele>23.569824</ele>
<time>2012-07-27T11:16:38Z</time>
<extensions>
<speed>0.0</speed>
<temp>0.00</temp>
<bpm>0</bpm>
<rpm>0.00</rpm>
</extensions>
</trkpt>
<trkpt lat="63.749969482" lon="-20.233051300">
<ele>23.584961</ele>
<time>2012-07-27T11:16:43Z</time>
<extensions>
<speed>0.0</speed>
<temp>0.00</temp>
<bpm>0</bpm>
<rpm>0.00</rpm>
</extensions>
</trkpt>
<trkpt lat="63.749969482" lon="-20.233051300">
<ele>23.597656</ele>
<time>2012-07-27T11:16:48Z</time>
<extensions>
<speed>0.0</speed>
<temp>0.00</temp>
<bpm>0</bpm>
<rpm>0.00</rpm>
</extensions>
</trkpt>
<trkpt lat="63.749969482" lon="-20.233051300">
<ele>23.605469</ele>
<time>2012-07-27T11:16:53Z</time>
<extensions>
<speed>0.0</speed>
<temp>0.00</temp>
<bpm>0</bpm>
<rpm>0.00</rpm>
</extensions>
</trkpt>
<trkpt lat="63.749969482" lon="-20.233051300">
<ele>23.612305</ele>
<time>2012-07-27T11:16:58Z</time>
<speed>0.010000</speed>
<extensions>
<speed>0.0</speed>
<temp>0.00</temp>
<bpm>0</bpm>
<rpm>0.00</rpm>
</extensions>
</trkpt>
<trkpt lat="63.749969482" lon="-20.233051300">
<ele>23.618652</ele>
<time>2012-07-27T11:17:03Z</time>
<speed>0.020000</speed>
<extensions>
<speed>0.0</speed>
<temp>0.00</temp>
<bpm>0</bpm>
<rpm>0.00</rpm>
</extensions>
</trkpt>
<trkpt lat="63.749969482" lon="-20.233051300">
<ele>23.626465</ele>
<time>2012-07-27T11:17:08Z</time>
<extensions>
<speed>0.0</speed>
<temp>0.00</temp>
<bpm>0</bpm>
<rpm>0.00</rpm>
</extensions>
</trkpt>
<trkpt lat="63.749969482" lon="-20.233051300">
<ele>23.633789</ele>
<time>2012-07-27T11:17:13Z</time>
<extensions>
<speed>0.0</speed>
<temp>0.00</temp>
<bpm>0</bpm>
<rpm>0.00</rpm>
</extensions>
</trkpt>
<trkpt lat="63.749969482" lon="-20.233051300">
<ele>23.640625</ele>
<time>2012-07-27T11:17:18Z</time>
<speed>0.010000</speed>
<extensions>
<speed>0.0</speed>
<temp>0.00</temp>
<bpm>0</bpm>
<rpm>0.00</rpm>
</extensions>
</trkpt>
<trkpt lat="63.749969482" lon="-20.233051300">
<ele>23.654785</ele>
<time>2012-07-27T11:17:23Z</time>
<speed>0.010000</speed>
<extensions>
<speed>0.0</speed>
<temp>0.00</temp>
<bpm>0</bpm>
<rpm>0.00</rpm>
</extensions>
</trkpt>
<trkpt lat="63.749969482" lon="-20.233053207">
<ele>23.685547</ele>
<time>2012-07-27T11:17:28Z</time>
<speed>0.010000</speed>
<extensions>
<speed>0.0</speed>
<temp>0.00</temp>
<bpm>0</bpm>
<rpm>0.00</rpm>
</extensions>
</trkpt>
<trkpt lat="63.749969482" lon="-20.233053207">
<ele>23.696289</ele>
<time>2012-07-27T11:17:33Z</time>
<extensions>
<speed>0.0</speed>
<temp>0.00</temp>
<bpm>0</bpm>
<rpm>0.00</rpm>
</extensions>
</trkpt>
<trkpt lat="63.749969482" lon="-20.233053207">
<ele>23.717285</ele>
<time>2012-07-27T11:17:38Z</time>
<speed>0.010000</speed>
<extensions>
<speed>0.0</speed>
<temp>0.00</temp>
<bpm>0</bpm>
<rpm>0.00</rpm>
</extensions>
</trkpt>
<trkpt lat="63.749969482" lon="-20.233053207">
<ele>23.725586</ele>
<time>2012-07-27T11:17:43Z</time>
<extensions>
<speed>0.0</speed>
<temp>0.00</temp>
<bpm>0</bpm>
<rpm>0.00</rpm>
</extensions>
</trkpt>
<trkpt lat="63.749969482" lon="-20.233053207">
<ele>23.737793</ele>
<time>2012-07-27T11:17:48Z</time>
<extensions>
<speed>0.0</speed>
<temp>0.00</temp>
<bpm>0</bpm>
<rpm>0.00</rpm>
</extensions>
</trkpt>
<trkpt lat="63.749969482" lon="-20.233053207">
<ele>23.741211</ele>
<time>2012-07-27T11:17:53Z</time>
<speed>0.010000</speed>
<extensions>
<speed>0.0</speed>
<temp>0.00</temp>
<bpm>0</bpm>
<rpm>0.00</rpm>
</extensions>
</trkpt>
<trkpt lat="63.749969482" lon="-20.233053207">
<ele>23.739258</ele>
<time>2012-07-27T11:17:58Z</time>
<speed>0.010000</speed>
<extensions>
<speed>0.0</speed>
<temp>0.00</temp>
<bpm>0</bpm>
<rpm>0.00</rpm>
</extensions>
</trkpt>
<trkpt lat="63.749969482" lon="-20.233053207">
<ele>23.739258</ele>
<time>2012-07-27T11:18:03Z</time>
<extensions>
<speed>0.0</speed>
<temp>0.00</temp>
<bpm>0</bpm>
<rpm>0.00</rpm>
</extensions>
</trkpt>
<trkpt lat="63.749969482" lon="-20.233053207">
<ele>23.746094</ele>
<time>2012-07-27T11:18:08Z</time>
<extensions>
<speed>0.0</speed>
<temp>0.00</temp>
<bpm>0</bpm>
<rpm>0.00</rpm>
</extensions>
</trkpt>
<trkpt lat="63.749969482" lon="-20.233053207">
<ele>23.744141</ele>
<time>2012-07-27T11:18:13Z</time>
<extensions>
<speed>0.0</speed>
<temp>0.00</temp>
<bpm>0</bpm>
<rpm>0.00</rpm>
</extensions>
</trkpt>
<trkpt lat="63.749969482" lon="-20.233053207">
<ele>23.756836</ele>
<time>2012-07-27T11:18:18Z</time>
<extensions>
<speed>0.0</speed>
<temp>0.00</temp>
<bpm>0</bpm>
<rpm>0.00</rpm>
</extensions>
</trkpt>
<trkpt lat="63.749969482" lon="-20.233053207">
<ele>23.770996</ele>
<time>2012-07-27T11:18:23Z</time>
<speed>0.010000</speed>
<extensions>
<speed>0.0</speed>
<temp>0.00</temp>
<bpm>0</bpm>
<rpm>0.00</rpm>
</extensions>
</trkpt>
<trkpt lat="63.749969482" lon="-20.233053207">
<ele>23.770508</ele>
<time>2012-07-27T11:18:28Z</time>
<extensions>
<speed>0.0</speed>
<temp>0.00</temp>
<bpm>0</bpm>
<rpm>0.00</rpm>
</extensions>
</trkpt>
<trkpt lat="63.749969482" lon="-20.233053207">
<ele>23.773438</ele>
<time>2012-07-27T11:18:33Z</time>
<extensions>
<speed>0.0</speed>
<temp>0.00</temp>
<bpm>0</bpm>
<rpm>0.00</rpm>
</extensions>
</trkpt>
<trkpt lat="63.749969482" lon="-20.233053207">
<ele>23.769531</ele>
<time>2012-07-27T11:18:38Z</time>
<extensions>
<speed>0.0</speed>
<temp>0.00</temp>
<bpm>0</bpm>
<rpm>0.00</rpm>
</extensions>
</trkpt>
<trkpt lat="63.749969482" lon="-20.233053207">
<ele>23.766113</ele>
<time>2012-07-27T11:18:43Z</time>
<extensions>
<speed>0.0</speed>
<temp>0.00</temp>
<bpm>0</bpm>
<rpm>0.00</rpm>
</extensions>
</trkpt>
<trkpt lat="63.749969482" lon="-20.233051300">
<ele>23.766602</ele>
<time>2012-07-27T11:18:48Z</time>
<extensions>
<speed>0.0</speed>
<temp>0.00</temp>
<bpm>0</bpm>
<rpm>0.00</rpm>
</extensions>
</trkpt>
<trkpt lat="63.749969482" lon="-20.233051300">
<ele>23.773926</ele>
<time>2012-07-27T11:18:53Z</time>
<speed>0.010000</speed>
<extensions>
<speed>0.0</speed>
<temp>0.00</temp>
<bpm>0</bpm>
<rpm>0.00</rpm>
</extensions>
</trkpt>
<trkpt lat="63.749969482" lon="-20.233053207">
<ele>23.785645</ele>
<time>2012-07-27T11:18:58Z</time>
<extensions>
<speed>0.0</speed>
<temp>0.00</temp>
<bpm>0</bpm>
<rpm>0.00</rpm>
</extensions>
</trkpt>
<trkpt lat="63.749969482" lon="-20.233051300">
<ele>23.784668</ele>
<time>2012-07-27T11:19:03Z</time>
<speed>0.010000</speed>
<extensions>
<speed>0.0</speed>
<temp>0.00</temp>
<bpm>0</bpm>
<rpm>0.00</rpm>
</extensions>
</trkpt>
<trkpt lat="63.749969482" lon="-20.233053207">
<ele>23.802734</ele>
<time>2012-07-27T11:19:08Z</time>
<speed>0.020000</speed>
<extensions>
<speed>0.0</speed>
<temp>0.00</temp>
<bpm>0</bpm>
<rpm>0.00</rpm>
</extensions>
</trkpt>
<trkpt lat="63.749969482" lon="-20.233053207">
<ele>23.815430</ele>
<time>2012-07-27T11:19:13Z</time>
<speed>0.010000</speed>
<extensions>
<speed>0.0</speed>
<temp>0.00</temp>
<bpm>0</bpm>
<rpm>0.00</rpm>
</extensions>
</trkpt>
<trkpt lat="63.749969482" lon="-20.233053207">
<ele>23.822754</ele>
<time>2012-07-27T11:19:18Z</time>
<extensions>
<speed>0.0</speed>
<temp>0.00</temp>
<bpm>0</bpm>
<rpm>0.00</rpm>
</extensions>
</trkpt>
<trkpt lat="63.749969482" lon="-20.233053207">
<ele>23.868652</ele>
<time>2012-07-27T11:19:23Z</time>
<speed>0.010000</speed>
<extensions>
<speed>0.0</speed>
<temp>0.00</temp>
<bpm>0</bpm>
<rpm>0.00</rpm>
</extensions>
</trkpt>
<trkpt lat="63.749969482" lon="-20.233055115">
<ele>23.904297</ele>
<time>2012-07-27T11:19:28Z</time>
<speed>0.020000</speed>
<extensions>
<speed>0.0</speed>
<temp>0.00</temp>
<bpm>0</bpm>
<rpm>0.00</rpm>
</extensions>
</trkpt>
<trkpt lat="63.749969482" lon="-20.233055115">
<ele>23.935547</ele>
<time>2012-07-27T11:19:33Z</time>
<speed>0.010000</speed>
<extensions>
<speed>0.0</speed>
<temp>0.00</temp>
<bpm>0</bpm>
<rpm>0.00</rpm>
</extensions>
</trkpt>
<trkpt lat="63.749969482" lon="-20.233055115">
<ele>23.943848</ele>
<time>2012-07-27T11:19:38Z</time>
<speed>0.010000</speed>
<extensions>
<speed>0.0</speed>
<temp>0.00</temp>
<bpm>0</bpm>
<rpm>0.00</rpm>
</extensions>
</trkpt>
<trkpt lat="63.749969482" lon="-20.233055115">
<ele>23.966309</ele>
<time>2012-07-27T11:19:43Z</time>
<speed>0.020000</speed>
<extensions>
<speed>0.0</speed>
<temp>0.00</temp>
<bpm>0</bpm>
<rpm>0.00</rpm>
</extensions>
</trkpt>
<trkpt lat="63.749969482" lon="-20.233057022">
<ele>23.996094</ele>
<time>2012-07-27T11:19:48Z</time>
<speed>0.010000</speed>
<extensions>
<speed>0.0</speed>
<temp>0.00</temp>
<bpm>0</bpm>
<rpm>0.00</rpm>
</extensions>
</trkpt>
<trkpt lat="63.749969482" lon="-20.233057022">
<ele>24.013672</ele>
<time>2012-07-27T11:19:53Z</time>
<speed>0.010000</speed>
<extensions>
<speed>0.0</speed>
<temp>0.00</temp>
<bpm>0</bpm>
<rpm>0.00</rpm>
</extensions>
</trkpt>
<trkpt lat="63.749969482" lon="-20.233058929">
<ele>24.038574</ele>
<time>2012-07-27T11:19:58Z</time>
<extensions>
<speed>0.0</speed>
<temp>0.00</temp>
<bpm>0</bpm>
<rpm>0.00</rpm>
</extensions>
</trkpt>
<trkpt lat="63.749969482" lon="-20.233058929">
<ele>24.060059</ele>
<time>2012-07-27T11:20:03Z</time>
<extensions>
<speed>0.0</speed>
<temp>0.00</temp>
<bpm>0</bpm>
<rpm>0.00</rpm>
</extensions>
</trkpt>
<trkpt lat="63.749969482" lon="-20.233058929">
<ele>24.081055</ele>
<time>2012-07-27T11:20:08Z</time>
<extensions>
<speed>0.0</speed>
<temp>0.00</temp>
<bpm>0</bpm>
<rpm>0.00</rpm>
</extensions>
</trkpt>
<trkpt lat="63.749969482" lon="-20.233058929">
<ele>24.105469</ele>
<time>2012-07-27T11:20:13Z</time>
<extensions>
<speed>0.0</speed>
<temp>0.00</temp>
<bpm>0</bpm>
<rpm>0.00</rpm>
</extensions>
</trkpt>
<trkpt lat="63.749969482" lon="-20.233060837">
<ele>24.123535</ele>
<time>2012-07-27T11:20:18Z</time>
<extensions>
<speed>0.0</speed>
<temp>0.00</temp>
<bpm>0</bpm>
<rpm>0.00</rpm>
</extensions>
</trkpt>
<trkpt lat="63.749969482" lon="-20.233060837">
<ele>24.143066</ele>
<time>2012-07-27T11:20:23Z</time>
<extensions>
<speed>0.0</speed>
<temp>0.00</temp>
<bpm>0</bpm>
<rpm>0.00</rpm>
</extensions>
</trkpt>
<trkpt lat="63.749969482" lon="-20.233060837">
<ele>24.161133</ele>
<time>2012-07-27T11:20:28Z</time>
<extensions>
<speed>0.0</speed>
<temp>0.00</temp>
<bpm>0</bpm>
<rpm>0.00</rpm>
</extensions>
</trkpt>
<trkpt lat="63.749969482" lon="-20.233060837">
<ele>24.178711</ele>
<time>2012-07-27T11:20:33Z</time>
<extensions>
<speed>0.0</speed>
<temp>0.00</temp>
<bpm>0</bpm>
<rpm>0.00</rpm>
</extensions>
</trkpt>
<trkpt lat="63.749969482" lon="-20.233060837">
<ele>24.198242</ele>
<time>2012-07-27T11:20:38Z</time>
<extensions>
<speed>0.0</speed>
<temp>0.00</temp>
<bpm>0</bpm>
<rpm>0.00</rpm>
</extensions>
</trkpt>
<trkpt lat="63.749969482" lon="-20.233060837">
<ele>24.212891</ele>
<time>2012-07-27T11:20:43Z</time>
<extensions>
<speed>0.0</speed>
<temp>0.00</temp>
<bpm>0</bpm>
<rpm>0.00</rpm>
</extensions>
</trkpt>
<trkpt lat="63.749969482" lon="-20.233062744">
<ele>24.231934</ele>
<time>2012-07-27T11:20:48Z</time>
<speed>0.010000</speed>
<extensions>
<speed>0.0</speed>
<temp>0.00</temp>
<bpm>0</bpm>
<rpm>0.00</rpm>
</extensions>
</trkpt>
<trkpt lat="63.749969482" lon="-20.233062744">
<ele>24.250000</ele>
<time>2012-07-27T11:20:53Z</time>
<extensions>
<speed>0.0</speed>
<temp>0.00</temp>
<bpm>0</bpm>
<rpm>0.00</rpm>
</extensions>
</trkpt>
<trkpt lat="63.749969482" lon="-20.233062744">
<ele>24.264160</ele>
<time>2012-07-27T11:20:58Z</time>
<extensions>
<speed>0.0</speed>
<temp>0.00</temp>
<bpm>0</bpm>
<rpm>0.00</rpm>
</extensions>
</trkpt>
<trkpt lat="63.749969482" lon="-20.233062744">
<ele>24.276855</ele>
<time>2012-07-27T11:21:03Z</time>
<extensions>
<speed>0.0</speed>
<temp>0.00</temp>
<bpm>0</bpm>
<rpm>0.00</rpm>
</extensions>
</trkpt>
<trkpt lat="63.749969482" lon="-20.233062744">
<ele>24.288086</ele>
<time>2012-07-27T11:21:08Z</time>
<extensions>
<speed>0.0</speed>
<temp>0.00</temp>
<bpm>0</bpm>
<rpm>0.00</rpm>
</extensions>
</trkpt>
<trkpt lat="63.749969482" lon="-20.233064651">
<ele>24.301270</ele>
<time>2012-07-27T11:21:13Z</time>
<extensions>
<speed>0.0</speed>
<temp>0.00</temp>
<bpm>0</bpm>
<rpm>0.00</rpm>
</extensions>
</trkpt>
<trkpt lat="63.749969482" lon="-20.233064651">
<ele>24.313477</ele>
<time>2012-07-27T11:21:18Z</time>
<extensions>
<speed>0.0</speed>
<temp>0.00</temp>
<bpm>0</bpm>
<rpm>0.00</rpm>
</extensions>
</trkpt>
<trkpt lat="63.749969482" lon="-20.233064651">
<ele>24.322754</ele>
<time>2012-07-27T11:21:23Z</time>
<extensions>
<speed>0.0</speed>
<temp>0.00</temp>
<bpm>0</bpm>
<rpm>0.00</rpm>
</extensions>
</trkpt>
<trkpt lat="63.749969482" lon="-20.233064651">
<ele>24.333984</ele>
<time>2012-07-27T11:21:28Z</time>
<speed>0.010000</speed>
<extensions>
<speed>0.0</speed>
<temp>0.00</temp>
<bpm>0</bpm>
<rpm>0.00</rpm>
</extensions>
</trkpt>
<trkpt lat="63.749969482" lon="-20.233064651">
<ele>24.349121</ele>
<time>2012-07-27T11:21:33Z</time>
<extensions>
<speed>0.0</speed>
<temp>0.00</temp>
<bpm>0</bpm>
<rpm>0.00</rpm>
</extensions>
</trkpt>
<trkpt lat="63.749969482" lon="-20.233064651">
<ele>24.359863</ele>
<time>2012-07-27T11:21:38Z</time>
<extensions>
<speed>0.0</speed>
<temp>0.00</temp>
<bpm>0</bpm>
<rpm>0.00</rpm>
</extensions>
</trkpt>
<trkpt lat="63.749969482" lon="-20.233064651">
<ele>24.371582</ele>
<time>2012-07-27T11:21:43Z</time>
<extensions>
<speed>0.0</speed>
<temp>0.00</temp>
<bpm>0</bpm>
<rpm>0.00</rpm>
</extensions>
</trkpt>
<trkpt lat="63.749969482" lon="-20.233064651">
<ele>24.382324</ele>
<time>2012-07-27T11:21:48Z</time>
<extensions>
<speed>0.0</speed>
<temp>0.00</temp>
<bpm>0</bpm>
<rpm>0.00</rpm>
</extensions>
</trkpt>
<trkpt lat="63.749969482" lon="-20.233064651">
<ele>24.390625</ele>
<time>2012-07-27T11:21:53Z</time>
<speed>0.010000</speed>
<extensions>
<speed>0.0</speed>
<temp>0.00</temp>
<bpm>0</bpm>
<rpm>0.00</rpm>
</extensions>
</trkpt>
<trkpt lat="63.749969482" lon="-20.233064651">
<ele>24.395508</ele>
<time>2012-07-27T11:21:58Z</time>
<speed>0.010000</speed>
<extensions>
<speed>0.0</speed>
<temp>0.00</temp>
<bpm>0</bpm>
<rpm>0.00</rpm>
</extensions>
</trkpt>
<trkpt lat="63.749969482" lon="-20.233064651">
<ele>24.404785</ele>
<time>2012-07-27T11:22:03Z</time>
<extensions>
<speed>0.0</speed>
<temp>0.00</temp>
<bpm>0</bpm>
<rpm>0.00</rpm>
</extensions>
</trkpt>
<trkpt lat="63.749969482" lon="-20.233066559">
<ele>24.411621</ele>
<time>2012-07-27T11:22:08Z</time>
<extensions>
<speed>0.0</speed>
<temp>0.00</temp>
<bpm>0</bpm>
<rpm>0.00</rpm>
</extensions>
</trkpt>
<trkpt lat="63.749969482" lon="-20.233066559">
<ele>24.417480</ele>
<time>2012-07-27T11:22:13Z</time>
<extensions>
<speed>0.0</speed>
<temp>0.00</temp>
<bpm>0</bpm>
<rpm>0.00</rpm>
</extensions>
</trkpt>
<trkpt lat="63.749969482" lon="-20.233066559">
<ele>24.424805</ele>
<time>2012-07-27T11:22:18Z</time>
<speed>0.010000</speed>
<extensions>
<speed>0.0</speed>
<temp>0.00</temp>
<bpm>0</bpm>
<rpm>0.00</rpm>
</extensions>
</trkpt>
<trkpt lat="63.749969482" lon="-20.233066559">
<ele>24.434082</ele>
<time>2012-07-27T11:22:23Z</time>
<extensions>
<speed>0.0</speed>
<temp>0.00</temp>
<bpm>0</bpm>
<rpm>0.00</rpm>
</extensions>
</trkpt>
<trkpt lat="63.749969482" lon="-20.233066559">
<ele>24.442383</ele>
<time>2012-07-27T11:22:28Z</time>
<extensions>
<speed>0.0</speed>
<temp>0.00</temp>
<bpm>0</bpm>
<rpm>0.00</rpm>
</extensions>
</trkpt>
<trkpt lat="63.749969482" lon="-20.233066559">
<ele>24.452637</ele>
<time>2012-07-27T11:22:33Z</time>
<extensions>
<speed>0.0</speed>
<temp>0.00</temp>
<bpm>0</bpm>
<rpm>0.00</rpm>
</extensions>
</trkpt>
<trkpt lat="63.749969482" lon="-20.233066559">
<ele>24.462402</ele>
<time>2012-07-27T11:22:38Z</time>
<extensions>
<speed>0.0</speed>
<temp>0.00</temp>
<bpm>0</bpm>
<rpm>0.00</rpm>
</extensions>
</trkpt>
<trkpt lat="63.749969482" lon="-20.233066559">
<ele>24.472656</ele>
<time>2012-07-27T11:22:43Z</time>
<extensions>
<speed>0.0</speed>
<temp>0.00</temp>
<bpm>0</bpm>
<rpm>0.00</rpm>
</extensions>
</trkpt>
<trkpt lat="63.749969482" lon="-20.233066559">
<ele>24.484375</ele>
<time>2012-07-27T11:22:48Z</time>
<extensions>
<speed>0.0</speed>
<temp>0.00</temp>
<bpm>0</bpm>
<rpm>0.00</rpm>
</extensions>
</trkpt>
<trkpt lat="63.749969482" lon="-20.233068466">
<ele>24.497559</ele>
<time>2012-07-27T11:22:53Z</time>
<extensions>
<speed>0.0</speed>
<temp>0.00</temp>
<bpm>0</bpm>
<rpm>0.00</rpm>
</extensions>
</trkpt>
<trkpt lat="63.749969482" lon="-20.233068466">
<ele>24.509766</ele>
<time>2012-07-27T11:22:58Z</time>
<extensions>
<speed>0.0</speed>
<temp>0.00</temp>
<bpm>0</bpm>
<rpm>0.00</rpm>
</extensions>
</trkpt>
<trkpt lat="63.749969482" lon="-20.233068466">
<ele>24.523438</ele>
<time>2012-07-27T11:23:03Z</time>
<extensions>
<speed>0.0</speed>
<temp>0.00</temp>
<bpm>0</bpm>
<rpm>0.00</rpm>
</extensions>
</trkpt>
<trkpt lat="63.749969482" lon="-20.233068466">
<ele>24.536133</ele>
<time>2012-07-27T11:23:08Z</time>
<speed>0.020000</speed>
<extensions>
<speed>0.0</speed>
<temp>0.00</temp>
<bpm>0</bpm>
<rpm>0.00</rpm>
</extensions>
</trkpt>
<trkpt lat="63.749969482" lon="-20.233068466">
<ele>24.548340</ele>
<time>2012-07-27T11:23:13Z</time>
<extensions>
<speed>0.0</speed>
<temp>0.00</temp>
<bpm>0</bpm>
<rpm>0.00</rpm>
</extensions>
</trkpt>
<trkpt lat="63.749969482" lon="-20.233068466">
<ele>24.558594</ele>
<time>2012-07-27T11:23:18Z</time>
<extensions>
<speed>0.0</speed>
<temp>0.00</temp>
<bpm>0</bpm>
<rpm>0.00</rpm>
</extensions>
</trkpt>
<trkpt lat="63.749969482" lon="-20.233068466">
<ele>24.566895</ele>
<time>2012-07-27T11:23:23Z</time>
<extensions>
<speed>0.0</speed>
<temp>0.00</temp>
<bpm>0</bpm>
<rpm>0.00</rpm>
</extensions>
</trkpt>
<trkpt lat="63.749969482" lon="-20.233068466">
<ele>24.575195</ele>
<time>2012-07-27T11:23:28Z</time>
<extensions>
<speed>0.0</speed>
<temp>0.00</temp>
<bpm>0</bpm>
<rpm>0.00</rpm>
</extensions>
</trkpt>
<trkpt lat="63.749969482" lon="-20.233068466">
<ele>24.579102</ele>
<time>2012-07-27T11:23:33Z</time>
<extensions>
<speed>0.0</speed>
<temp>0.00</temp>
<bpm>0</bpm>
<rpm>0.00</rpm>
</extensions>
</trkpt>
<trkpt lat="63.749969482" lon="-20.233070374">
<ele>24.587402</ele>
<time>2012-07-27T11:23:38Z</time>
<extensions>
<speed>0.0</speed>
<temp>0.00</temp>
<bpm>0</bpm>
<rpm>0.00</rpm>
</extensions>
</trkpt>
<trkpt lat="63.749973297" lon="-20.233070374">
<ele>24.598145</ele>
<time>2012-07-27T11:23:43Z</time>
<extensions>
<speed>0.0</speed>
<temp>0.00</temp>
<bpm>0</bpm>
<rpm>0.00</rpm>
</extensions>
</trkpt>
<trkpt lat="63.749973297" lon="-20.233070374">
<ele>24.609375</ele>
<time>2012-07-27T11:23:48Z</time>
<extensions>
<speed>0.0</speed>
<temp>0.00</temp>
<bpm>0</bpm>
<rpm>0.00</rpm>
</extensions>
</trkpt>
<trkpt lat="63.749973297" lon="-20.233070374">
<ele>24.619141</ele>
<time>2012-07-27T11:23:53Z</time>
<extensions>
<speed>0.0</speed>
<temp>0.00</temp>
<bpm>0</bpm>
<rpm>0.00</rpm>
</extensions>
</trkpt>
<trkpt lat="63.749973297" lon="-20.233070374">
<ele>24.625977</ele>
<time>2012-07-27T11:23:58Z</time>
<extensions>
<speed>0.0</speed>
<temp>0.00</temp>
<bpm>0</bpm>
<rpm>0.00</rpm>
</extensions>
</trkpt>
<trkpt lat="63.749973297" lon="-20.233070374">
<ele>24.636719</ele>
<time>2012-07-27T11:24:03Z</time>
<extensions>
<speed>0.0</speed>
<temp>0.00</temp>
<bpm>0</bpm>
<rpm>0.00</rpm>
</extensions>
</trkpt>
<trkpt lat="63.749973297" lon="-20.233070374">
<ele>24.647949</ele>
<time>2012-07-27T11:24:08Z</time>
<extensions>
<speed>0.0</speed>
<temp>0.00</temp>
<bpm>0</bpm>
<rpm>0.00</rpm>
</extensions>
</trkpt>
<trkpt lat="63.749973297" lon="-20.233070374">
<ele>24.659180</ele>
<time>2012-07-27T11:24:13Z</time>
<speed>0.010000</speed>
<extensions>
<speed>0.0</speed>
<temp>0.00</temp>
<bpm>0</bpm>
<rpm>0.00</rpm>
</extensions>
</trkpt>
<trkpt lat="63.749973297" lon="-20.233070374">
<ele>24.664063</ele>
<time>2012-07-27T11:24:18Z</time>
<extensions>
<speed>0.0</speed>
<temp>0.00</temp>
<bpm>0</bpm>
<rpm>0.00</rpm>
</extensions>
</trkpt>
<trkpt lat="63.749973297" lon="-20.233070374">
<ele>24.676758</ele>
<time>2012-07-27T11:24:23Z</time>
<extensions>
<speed>0.0</speed>
<temp>0.00</temp>
<bpm>0</bpm>
<rpm>0.00</rpm>
</extensions>
</trkpt>
<trkpt lat="63.749973297" lon="-20.233070374">
<ele>24.671875</ele>
<time>2012-07-27T11:24:28Z</time>
<extensions>
<speed>0.0</speed>
<temp>0.00</temp>
<bpm>0</bpm>
<rpm>0.00</rpm>
</extensions>
</trkpt>
<trkpt lat="63.749973297" lon="-20.233070374">
<ele>24.681152</ele>
<time>2012-07-27T11:24:33Z</time>
<extensions>
<speed>0.0</speed>
<temp>0.00</temp>
<bpm>0</bpm>
<rpm>0.00</rpm>
</extensions>
</trkpt>
<trkpt lat="63.749973297" lon="-20.233070374">
<ele>24.701660</ele>
<time>2012-07-27T11:24:38Z</time>
<extensions>
<speed>0.0</speed>
<temp>0.00</temp>
<bpm>0</bpm>
<rpm>0.00</rpm>
</extensions>
</trkpt>
<trkpt lat="63.749973297" lon="-20.233072281">
<ele>24.719727</ele>
<time>2012-07-27T11:24:43Z</time>
<extensions>
<speed>0.0</speed>
<temp>0.00</temp>
<bpm>0</bpm>
<rpm>0.00</rpm>
</extensions>
</trkpt>
<trkpt lat="63.749973297" lon="-20.233072281">
<ele>24.731934</ele>
<time>2012-07-27T11:24:48Z</time>
<speed>0.010000</speed>
<extensions>
<speed>0.0</speed>
<temp>0.00</temp>
<bpm>0</bpm>
<rpm>0.00</rpm>
</extensions>
</trkpt>
<trkpt lat="63.749973297" lon="-20.233072281">
<ele>24.735840</ele>
<time>2012-07-27T11:24:53Z</time>
<speed>0.010000</speed>
<extensions>
<speed>0.0</speed>
<temp>0.00</temp>
<bpm>0</bpm>
<rpm>0.00</rpm>
</extensions>
</trkpt>
<trkpt lat="63.749973297" lon="-20.233072281">
<ele>24.732422</ele>
<time>2012-07-27T11:24:58Z</time>
<speed>0.030000</speed>
<extensions>
<speed>0.0</speed>
<temp>0.00</temp>
<bpm>0</bpm>
<rpm>0.00</rpm>
</extensions>
</trkpt>
<trkpt lat="63.749973297" lon="-20.233072281">
<ele>24.741699</ele>
<time>2012-07-27T11:25:03Z</time>
<extensions>
<speed>0.0</speed>
<temp>0.00</temp>
<bpm>0</bpm>
<rpm>0.00</rpm>
</extensions>
</trkpt>
<trkpt lat="63.749973297" lon="-20.233072281">
<ele>24.753418</ele>
<time>2012-07-27T11:25:08Z</time>
<extensions>
<speed>0.0</speed>
<temp>0.00</temp>
<bpm>0</bpm>
<rpm>0.00</rpm>
</extensions>
</trkpt>
<trkpt lat="63.749973297" lon="-20.233072281">
<ele>24.770020</ele>
<time>2012-07-27T11:25:13Z</time>
<extensions>
<speed>0.0</speed>
<temp>0.00</temp>
<bpm>0</bpm>
<rpm>0.00</rpm>
</extensions>
</trkpt>
<trkpt lat="63.749973297" lon="-20.233072281">
<ele>24.787598</ele>
<time>2012-07-27T11:25:18Z</time>
<speed>0.010000</speed>
<extensions>
<speed>0.0</speed>
<temp>0.00</temp>
<bpm>0</bpm>
<rpm>0.00</rpm>
</extensions>
</trkpt>
<trkpt lat="63.749973297" lon="-20.233072281">
<ele>24.807617</ele>
<time>2012-07-27T11:25:23Z</time>
<extensions>
<speed>0.0</speed>
<temp>0.00</temp>
<bpm>0</bpm>
<rpm>0.00</rpm>
</extensions>
</trkpt>
<trkpt lat="63.749973297" lon="-20.233074188">
<ele>24.825684</ele>
<time>2012-07-27T11:25:28Z</time>
<extensions>
<speed>0.0</speed>
<temp>0.00</temp>
<bpm>0</bpm>
<rpm>0.00</rpm>
</extensions>
</trkpt>
<trkpt lat="63.749973297" lon="-20.233074188">
<ele>24.838867</ele>
<time>2012-07-27T11:25:33Z</time>
<extensions>
<speed>0.0</speed>
<temp>0.00</temp>
<bpm>0</bpm>
<rpm>0.00</rpm>
</extensions>
</trkpt>
<trkpt lat="63.749973297" lon="-20.233074188">
<ele>24.851074</ele>
<time>2012-07-27T11:25:38Z</time>
<extensions>
<speed>0.0</speed>
<temp>0.00</temp>
<bpm>0</bpm>
<rpm>0.00</rpm>
</extensions>
</trkpt>
<trkpt lat="63.749973297" lon="-20.233074188">
<ele>24.863770</ele>
<time>2012-07-27T11:25:43Z</time>
<extensions>
<speed>0.0</speed>
<temp>0.00</temp>
<bpm>0</bpm>
<rpm>0.00</rpm>
</extensions>
</trkpt>
<trkpt lat="63.749973297" lon="-20.233074188">
<ele>24.882813</ele>
<time>2012-07-27T11:25:48Z</time>
<extensions>
<speed>0.0</speed>
<temp>0.00</temp>
<bpm>0</bpm>
<rpm>0.00</rpm>
</extensions>
</trkpt>
<trkpt lat="63.749973297" lon="-20.233074188">
<ele>24.907715</ele>
<time>2012-07-27T11:25:53Z</time>
<extensions>
<speed>0.0</speed>
<temp>0.00</temp>
<bpm>0</bpm>
<rpm>0.00</rpm>
</extensions>
</trkpt>
<trkpt lat="63.749973297" lon="-20.233074188">
<ele>24.927734</ele>
<time>2012-07-27T11:25:58Z</time>
<extensions>
<speed>0.0</speed>
<temp>0.00</temp>
<bpm>0</bpm>
<rpm>0.00</rpm>
</extensions>
</trkpt>
<trkpt lat="63.749973297" lon="-20.233074188">
<ele>24.941406</ele>
<time>2012-07-27T11:26:03Z</time>
<extensions>
<speed>0.0</speed>
<temp>0.00</temp>
<bpm>0</bpm>
<rpm>0.00</rpm>
</extensions>
</trkpt>
<trkpt lat="63.749973297" lon="-20.233074188">
<ele>24.962891</ele>
<time>2012-07-27T11:26:08Z</time>
<speed>0.010000</speed>
<extensions>
<speed>0.0</speed>
<temp>0.00</temp>
<bpm>0</bpm>
<rpm>0.00</rpm>
</extensions>
</trkpt>
<trkpt lat="63.749973297" lon="-20.233074188">
<ele>24.980469</ele>
<time>2012-07-27T11:26:13Z</time>
<extensions>
<speed>0.0</speed>
<temp>0.00</temp>
<bpm>0</bpm>
<rpm>0.00</rpm>
</extensions>
</trkpt>
<trkpt lat="63.749973297" lon="-20.233074188">
<ele>25.012207</ele>
<time>2012-07-27T11:26:18Z</time>
<extensions>
<speed>0.0</speed>
<temp>0.00</temp>
<bpm>0</bpm>
<rpm>0.00</rpm>
</extensions>
</trkpt>
<trkpt lat="63.749973297" lon="-20.233074188">
<ele>25.053223</ele>
<time>2012-07-27T11:26:23Z</time>
<extensions>
<speed>0.0</speed>
<temp>0.00</temp>
<bpm>0</bpm>
<rpm>0.00</rpm>
</extensions>
</trkpt>
<trkpt lat="63.749973297" lon="-20.233074188">
<ele>25.104980</ele>
<time>2012-07-27T11:26:28Z</time>
<speed>0.010000</speed>
<extensions>
<speed>0.0</speed>
<temp>0.00</temp>
<bpm>0</bpm>
<rpm>0.00</rpm>
</extensions>
</trkpt>
<trkpt lat="63.749973297" lon="-20.233074188">
<ele>25.139648</ele>
<time>2012-07-27T11:26:33Z</time>
<extensions>
<speed>0.0</speed>
<temp>0.00</temp>
<bpm>0</bpm>
<rpm>0.00</rpm>
</extensions>
</trkpt>
<trkpt lat="63.749973297" lon="-20.233074188">
<ele>25.170898</ele>
<time>2012-07-27T11:26:38Z</time>
<speed>0.010000</speed>
<extensions>
<speed>0.0</speed>
<temp>0.00</temp>
<bpm>0</bpm>
<rpm>0.00</rpm>
</extensions>
</trkpt>
<trkpt lat="63.749973297" lon="-20.233074188">
<ele>25.196289</ele>
<time>2012-07-27T11:26:43Z</time>
<speed>0.030000</speed>
<extensions>
<speed>0.0</speed>
<temp>0.00</temp>
<bpm>0</bpm>
<rpm>0.00</rpm>
</extensions>
</trkpt>
<trkpt lat="63.749973297" lon="-20.233074188">
<ele>25.219727</ele>
<time>2012-07-27T11:26:48Z</time>
<extensions>
<speed>0.0</speed>
<temp>0.00</temp>
<bpm>0</bpm>
<rpm>0.00</rpm>
</extensions>
</trkpt>
<trkpt lat="63.749973297" lon="-20.233074188">
<ele>25.244141</ele>
<time>2012-07-27T11:26:53Z</time>
<extensions>
<speed>0.0</speed>
<temp>0.00</temp>
<bpm>0</bpm>
<rpm>0.00</rpm>
</extensions>
</trkpt>
<trkpt lat="63.749973297" lon="-20.233072281">
<ele>25.263672</ele>
<time>2012-07-27T11:26:58Z</time>
<extensions>
<speed>0.0</speed>
<temp>0.00</temp>
<bpm>0</bpm>
<rpm>0.00</rpm>
</extensions>
</trkpt>
<trkpt lat="63.749973297" lon="-20.233072281">
<ele>25.289063</ele>
<time>2012-07-27T11:27:03Z</time>
<extensions>
<speed>0.0</speed>
<temp>0.00</temp>
<bpm>0</bpm>
<rpm>0.00</rpm>
</extensions>
</trkpt>
<trkpt lat="63.749973297" lon="-20.233072281">
<ele>25.307129</ele>
<time>2012-07-27T11:27:08Z</time>
<extensions>
<speed>0.0</speed>
<temp>0.00</temp>
<bpm>0</bpm>
<rpm>0.00</rpm>
</extensions>
</trkpt>
<trkpt lat="63.749973297" lon="-20.233072281">
<ele>25.328125</ele>
<time>2012-07-27T11:27:13Z</time>
<extensions>
<speed>0.0</speed>
<temp>0.00</temp>
<bpm>0</bpm>
<rpm>0.00</rpm>
</extensions>
</trkpt>
<trkpt lat="63.749973297" lon="-20.233072281">
<ele>25.354492</ele>
<time>2012-07-27T11:27:18Z</time>
<speed>0.010000</speed>
<extensions>
<speed>0.0</speed>
<temp>0.00</temp>
<bpm>0</bpm>
<rpm>0.00</rpm>
</extensions>
</trkpt>
<trkpt lat="63.749973297" lon="-20.233072281">
<ele>25.385254</ele>
<time>2012-07-27T11:27:23Z</time>
<extensions>
<speed>0.0</speed>
<temp>0.00</temp>
<bpm>0</bpm>
<rpm>0.00</rpm>
</extensions>
</trkpt>
<trkpt lat="63.749973297" lon="-20.233072281">
<ele>25.409180</ele>
<time>2012-07-27T11:27:28Z</time>
<extensions>
<speed>0.0</speed>
<temp>0.00</temp>
<bpm>0</bpm>
<rpm>0.00</rpm>
</extensions>
</trkpt>
<trkpt lat="63.749973297" lon="-20.233072281">
<ele>25.437012</ele>
<time>2012-07-27T11:27:33Z</time>
<speed>0.010000</speed>
<extensions>
<speed>0.0</speed>
<temp>0.00</temp>
<bpm>0</bpm>
<rpm>0.00</rpm>
</extensions>
</trkpt>
<trkpt lat="63.749973297" lon="-20.233072281">
<ele>25.451660</ele>
<time>2012-07-27T11:27:38Z</time>
<extensions>
<speed>0.0</speed>
<temp>0.00</temp>
<bpm>0</bpm>
<rpm>0.00</rpm>
</extensions>
</trkpt>
<trkpt lat="63.749973297" lon="-20.233072281">
<ele>25.476074</ele>
<time>2012-07-27T11:27:43Z</time>
<extensions>
<speed>0.0</speed>
<temp>0.00</temp>
<bpm>0</bpm>
<rpm>0.00</rpm>
</extensions>
</trkpt>
<trkpt lat="63.749973297" lon="-20.233072281">
<ele>25.502441</ele>
<time>2012-07-27T11:27:48Z</time>
<extensions>
<speed>0.0</speed>
<temp>0.00</temp>
<bpm>0</bpm>
<rpm>0.00</rpm>
</extensions>
</trkpt>
<trkpt lat="63.749973297" lon="-20.233072281">
<ele>25.529785</ele>
<time>2012-07-27T11:27:53Z</time>
<extensions>
<speed>0.0</speed>
<temp>0.00</temp>
<bpm>0</bpm>
<rpm>0.00</rpm>
</extensions>
</trkpt>
<trkpt lat="63.749973297" lon="-20.233072281">
<ele>25.562988</ele>
<time>2012-07-27T11:27:58Z</time>
<extensions>
<speed>0.0</speed>
<temp>0.00</temp>
<bpm>0</bpm>
<rpm>0.00</rpm>
</extensions>
</trkpt>
<trkpt lat="63.749973297" lon="-20.233070374">
<ele>25.587402</ele>
<time>2012-07-27T11:28:03Z</time>
<speed>0.010000</speed>
<extensions>
<speed>0.0</speed>
<temp>0.00</temp>
<bpm>0</bpm>
<rpm>0.00</rpm>
</extensions>
</trkpt>
<trkpt lat="63.749973297" lon="-20.233070374">
<ele>25.612793</ele>
<time>2012-07-27T11:28:08Z</time>
<extensions>
<speed>0.0</speed>
<temp>0.00</temp>
<bpm>0</bpm>
<rpm>0.00</rpm>
</extensions>
</trkpt>
<trkpt lat="63.749973297" lon="-20.233070374">
<ele>25.631348</ele>
<time>2012-07-27T11:28:13Z</time>
<extensions>
<speed>0.0</speed>
<temp>0.00</temp>
<bpm>0</bpm>
<rpm>0.00</rpm>
</extensions>
</trkpt>
<trkpt lat="63.749973297" lon="-20.233070374">
<ele>25.640625</ele>
<time>2012-07-27T11:28:18Z</time>
<extensions>
<speed>0.0</speed>
<temp>0.00</temp>
<bpm>0</bpm>
<rpm>0.00</rpm>
</extensions>
</trkpt>
<trkpt lat="63.749973297" lon="-20.233070374">
<ele>25.663086</ele>
<time>2012-07-27T11:28:23Z</time>
<extensions>
<speed>0.0</speed>
<temp>0.00</temp>
<bpm>0</bpm>
<rpm>0.00</rpm>
</extensions>
</trkpt>
<trkpt lat="63.749973297" lon="-20.233070374">
<ele>25.697754</ele>
<time>2012-07-27T11:28:28Z</time>
<extensions>
<speed>0.0</speed>
<temp>0.00</temp>
<bpm>0</bpm>
<rpm>0.00</rpm>
</extensions>
</trkpt>
<trkpt lat="63.749973297" lon="-20.233070374">
<ele>25.720215</ele>
<time>2012-07-27T11:28:33Z</time>
<extensions>
<speed>0.0</speed>
<temp>0.00</temp>
<bpm>0</bpm>
<rpm>0.00</rpm>
</extensions>
</trkpt>
<trkpt lat="63.749973297" lon="-20.233070374">
<ele>25.742676</ele>
<time>2012-07-27T11:28:38Z</time>
<extensions>
<speed>0.0</speed>
<temp>0.00</temp>
<bpm>0</bpm>
<rpm>0.00</rpm>
</extensions>
</trkpt>
<trkpt lat="63.749977112" lon="-20.233070374">
<ele>25.773438</ele>
<time>2012-07-27T11:28:43Z</time>
<extensions>
<speed>0.0</speed>
<temp>0.00</temp>
<bpm>0</bpm>
<rpm>0.00</rpm>
</extensions>
</trkpt>
<trkpt lat="63.749977112" lon="-20.233070374">
<ele>25.799316</ele>
<time>2012-07-27T11:28:48Z</time>
<extensions>
<speed>0.0</speed>
<temp>0.00</temp>
<bpm>0</bpm>
<rpm>0.00</rpm>
</extensions>
</trkpt>
<trkpt lat="63.749977112" lon="-20.233070374">
<ele>25.816406</ele>
<time>2012-07-27T11:28:53Z</time>
<extensions>
<speed>0.0</speed>
<temp>0.00</temp>
<bpm>0</bpm>
<rpm>0.00</rpm>
</extensions>
</trkpt>
<trkpt lat="63.749977112" lon="-20.233070374">
<ele>25.837402</ele>
<time>2012-07-27T11:28:58Z</time>
<speed>0.010000</speed>
<extensions>
<speed>0.0</speed>
<temp>0.00</temp>
<bpm>0</bpm>
<rpm>0.00</rpm>
</extensions>
</trkpt>
<trkpt lat="63.749977112" lon="-20.233072281">
<ele>25.858398</ele>
<time>2012-07-27T11:29:03Z</time>
<extensions>
<speed>0.0</speed>
<temp>0.00</temp>
<bpm>0</bpm>
<rpm>0.00</rpm>
</extensions>
</trkpt>
<trkpt lat="63.749977112" lon="-20.233072281">
<ele>25.886719</ele>
<time>2012-07-27T11:29:08Z</time>
<speed>0.010000</speed>
<extensions>
<speed>0.0</speed>
<temp>0.00</temp>
<bpm>0</bpm>
<rpm>0.00</rpm>
</extensions>
</trkpt>
<trkpt lat="63.749977112" lon="-20.233072281">
<ele>25.907715</ele>
<time>2012-07-27T11:29:13Z</time>
<extensions>
<speed>0.0</speed>
<temp>0.00</temp>
<bpm>0</bpm>
<rpm>0.00</rpm>
</extensions>
</trkpt>
<trkpt lat="63.749977112" lon="-20.233072281">
<ele>25.932129</ele>
<time>2012-07-27T11:29:18Z</time>
<extensions>
<speed>0.0</speed>
<temp>0.00</temp>
<bpm>0</bpm>
<rpm>0.00</rpm>
</extensions>
</trkpt>
<trkpt lat="63.749977112" lon="-20.233072281">
<ele>25.953613</ele>
<time>2012-07-27T11:29:23Z</time>
<extensions>
<speed>0.0</speed>
<temp>0.00</temp>
<bpm>0</bpm>
<rpm>0.00</rpm>
</extensions>
</trkpt>
<trkpt lat="63.749977112" lon="-20.233072281">
<ele>25.973145</ele>
<time>2012-07-27T11:29:28Z</time>
<extensions>
<speed>0.0</speed>
<temp>0.00</temp>
<bpm>0</bpm>
<rpm>0.00</rpm>
</extensions>
</trkpt>
<trkpt lat="63.749977112" lon="-20.233072281">
<ele>25.997070</ele>
<time>2012-07-27T11:29:33Z</time>
<extensions>
<speed>0.0</speed>
<temp>0.00</temp>
<bpm>0</bpm>
<rpm>0.00</rpm>
</extensions>
</trkpt>
<trkpt lat="63.749977112" lon="-20.233072281">
<ele>26.015625</ele>
<time>2012-07-27T11:29:38Z</time>
<extensions>
<speed>0.0</speed>
<temp>0.00</temp>
<bpm>0</bpm>
<rpm>0.00</rpm>
</extensions>
</trkpt>
<trkpt lat="63.749977112" lon="-20.233072281">
<ele>26.041504</ele>
<time>2012-07-27T11:29:43Z</time>
<extensions>
<speed>0.0</speed>
<temp>0.00</temp>
<bpm>0</bpm>
<rpm>0.00</rpm>
</extensions>
</trkpt>
<trkpt lat="63.749977112" lon="-20.233072281">
<ele>26.062012</ele>
<time>2012-07-27T11:29:48Z</time>
<extensions>
<speed>0.0</speed>
<temp>0.00</temp>
<bpm>0</bpm>
<rpm>0.00</rpm>
</extensions>
</trkpt>
<trkpt lat="63.749977112" lon="-20.233072281">
<ele>26.080566</ele>
<time>2012-07-27T11:29:53Z</time>
<speed>0.010000</speed>
<extensions>
<speed>0.0</speed>
<temp>0.00</temp>
<bpm>0</bpm>
<rpm>0.00</rpm>
</extensions>
</trkpt>
<trkpt lat="63.749977112" lon="-20.233074188">
<ele>26.104980</ele>
<time>2012-07-27T11:29:58Z</time>
<extensions>
<speed>0.0</speed>
<temp>0.00</temp>
<bpm>0</bpm>
<rpm>0.00</rpm>
</extensions>
</trkpt>
<trkpt lat="63.749977112" lon="-20.233074188">
<ele>26.127930</ele>
<time>2012-07-27T11:30:03Z</time>
<extensions>
<speed>0.0</speed>
<temp>0.00</temp>
<bpm>0</bpm>
<rpm>0.00</rpm>
</extensions>
</trkpt>
<trkpt lat="63.749977112" lon="-20.233074188">
<ele>26.151855</ele>
<time>2012-07-27T11:30:08Z</time>
<extensions>
<speed>0.0</speed>
<temp>0.00</temp>
<bpm>0</bpm>
<rpm>0.00</rpm>
</extensions>
</trkpt>
<trkpt lat="63.749977112" lon="-20.233074188">
<ele>26.171875</ele>
<time>2012-07-27T11:30:13Z</time>
<extensions>
<speed>0.0</speed>
<temp>0.00</temp>
<bpm>0</bpm>
<rpm>0.00</rpm>
</extensions>
</trkpt>
<trkpt lat="63.749977112" lon="-20.233074188">
<ele>26.191895</ele>
<time>2012-07-27T11:30:18Z</time>
<speed>0.010000</speed>
<extensions>
<speed>0.0</speed>
<temp>0.00</temp>
<bpm>0</bpm>
<rpm>0.00</rpm>
</extensions>
</trkpt>
<trkpt lat="63.749977112" lon="-20.233074188">
<ele>26.212402</ele>
<time>2012-07-27T11:30:23Z</time>
<extensions>
<speed>0.0</speed>
<temp>0.00</temp>
<bpm>0</bpm>
<rpm>0.00</rpm>
</extensions>
</trkpt>
<trkpt lat="63.749977112" lon="-20.233074188">
<ele>26.235840</ele>
<time>2012-07-27T11:30:28Z</time>
<extensions>
<speed>0.0</speed>
<temp>0.00</temp>
<bpm>0</bpm>
<rpm>0.00</rpm>
</extensions>
</trkpt>
<trkpt lat="63.749977112" lon="-20.233074188">
<ele>26.259766</ele>
<time>2012-07-27T11:30:33Z</time>
<extensions>
<speed>0.0</speed>
<temp>0.00</temp>
<bpm>0</bpm>
<rpm>0.00</rpm>
</extensions>
</trkpt>
<trkpt lat="63.749977112" lon="-20.233074188">
<ele>26.284668</ele>
<time>2012-07-27T11:30:38Z</time>
<speed>0.010000</speed>
<extensions>
<speed>0.0</speed>
<temp>0.00</temp>
<bpm>0</bpm>
<rpm>0.00</rpm>
</extensions>
</trkpt>
<trkpt lat="63.749980927" lon="-20.233074188">
<ele>26.309570</ele>
<time>2012-07-27T11:30:43Z</time>
<speed>0.010000</speed>
<extensions>
<speed>0.0</speed>
<temp>0.00</temp>
<bpm>0</bpm>
<rpm>0.00</rpm>
</extensions>
</trkpt>
<trkpt lat="63.749980927" lon="-20.233076096">
<ele>26.325195</ele>
<time>2012-07-27T11:30:48Z</time>
<extensions>
<speed>0.0</speed>
<temp>0.00</temp>
<bpm>0</bpm>
<rpm>0.00</rpm>
</extensions>
</trkpt>
<trkpt lat="63.749980927" lon="-20.233076096">
<ele>26.338379</ele>
<time>2012-07-27T11:30:53Z</time>
<extensions>
<speed>0.0</speed>
<temp>0.00</temp>
<bpm>0</bpm>
<rpm>0.00</rpm>
</extensions>
</trkpt>
<trkpt lat="63.749980927" lon="-20.233076096">
<ele>26.346191</ele>
<time>2012-07-27T11:30:58Z</time>
<extensions>
<speed>0.0</speed>
<temp>0.00</temp>
<bpm>0</bpm>
<rpm>0.00</rpm>
</extensions>
</trkpt>
<trkpt lat="63.749980927" lon="-20.233076096">
<ele>26.355957</ele>
<time>2012-07-27T11:31:03Z</time>
<extensions>
<speed>0.0</speed>
<temp>0.00</temp>
<bpm>0</bpm>
<rpm>0.00</rpm>
</extensions>
</trkpt>
<trkpt lat="63.749980927" lon="-20.233076096">
<ele>26.361816</ele>
<time>2012-07-27T11:31:08Z</time>
<extensions>
<speed>0.0</speed>
<temp>0.00</temp>
<bpm>0</bpm>
<rpm>0.00</rpm>
</extensions>
</trkpt>
<trkpt lat="63.749980927" lon="-20.233076096">
<ele>26.375977</ele>
<time>2012-07-27T11:31:13Z</time>
<extensions>
<speed>0.0</speed>
<temp>0.00</temp>
<bpm>0</bpm>
<rpm>0.00</rpm>
</extensions>
</trkpt>
<trkpt lat="63.749980927" lon="-20.233076096">
<ele>26.388672</ele>
<time>2012-07-27T11:31:18Z</time>
<extensions>
<speed>0.0</speed>
<temp>0.00</temp>
<bpm>0</bpm>
<rpm>0.00</rpm>
</extensions>
</trkpt>
<trkpt lat="63.749980927" lon="-20.233076096">
<ele>26.400879</ele>
<time>2012-07-27T11:31:23Z</time>
<extensions>
<speed>0.0</speed>
<temp>0.00</temp>
<bpm>0</bpm>
<rpm>0.00</rpm>
</extensions>
</trkpt>
<trkpt lat="63.749980927" lon="-20.233076096">
<ele>26.410645</ele>
<time>2012-07-27T11:31:28Z</time>
<speed>0.010000</speed>
<extensions>
<speed>0.0</speed>
<temp>0.00</temp>
<bpm>0</bpm>
<rpm>0.00</rpm>
</extensions>
</trkpt>
<trkpt lat="63.749980927" lon="-20.233076096">
<ele>26.421387</ele>
<time>2012-07-27T11:31:33Z</time>
<speed>0.010000</speed>
<extensions>
<speed>0.0</speed>
<temp>0.00</temp>
<bpm>0</bpm>
<rpm>0.00</rpm>
</extensions>
</trkpt>
<trkpt lat="63.749980927" lon="-20.233076096">
<ele>26.433594</ele>
<time>2012-07-27T11:31:38Z</time>
<extensions>
<speed>0.0</speed>
<temp>0.00</temp>
<bpm>0</bpm>
<rpm>0.00</rpm>
</extensions>
</trkpt>
<trkpt lat="63.749980927" lon="-20.233076096">
<ele>26.441406</ele>
<time>2012-07-27T11:31:43Z</time>
<extensions>
<speed>0.0</speed>
<temp>0.00</temp>
<bpm>0</bpm>
<rpm>0.00</rpm>
</extensions>
</trkpt>
<trkpt lat="63.749980927" lon="-20.233076096">
<ele>26.449219</ele>
<time>2012-07-27T11:31:48Z</time>
<extensions>
<speed>0.0</speed>
<temp>0.00</temp>
<bpm>0</bpm>
<rpm>0.00</rpm>
</extensions>
</trkpt>
<trkpt lat="63.749980927" lon="-20.233076096">
<ele>26.456055</ele>
<time>2012-07-27T11:31:53Z</time>
<extensions>
<speed>0.0</speed>
<temp>0.00</temp>
<bpm>0</bpm>
<rpm>0.00</rpm>
</extensions>
</trkpt>
<trkpt lat="63.749980927" lon="-20.233076096">
<ele>26.464844</ele>
<time>2012-07-27T11:31:58Z</time>
<extensions>
<speed>0.0</speed>
<temp>0.00</temp>
<bpm>0</bpm>
<rpm>0.00</rpm>
</extensions>
</trkpt>
<trkpt lat="63.749980927" lon="-20.233076096">
<ele>26.475098</ele>
<time>2012-07-27T11:32:03Z</time>
<speed>0.010000</speed>
<extensions>
<speed>0.0</speed>
<temp>0.00</temp>
<bpm>0</bpm>
<rpm>0.00</rpm>
</extensions>
</trkpt>
<trkpt lat="63.749980927" lon="-20.233076096">
<ele>26.486816</ele>
<time>2012-07-27T11:32:08Z</time>
<extensions>
<speed>0.0</speed>
<temp>0.00</temp>
<bpm>0</bpm>
<rpm>0.00</rpm>
</extensions>
</trkpt>
<trkpt lat="63.749980927" lon="-20.233076096">
<ele>26.499512</ele>
<time>2012-07-27T11:32:13Z</time>
<extensions>
<speed>0.0</speed>
<temp>0.00</temp>
<bpm>0</bpm>
<rpm>0.00</rpm>
</extensions>
</trkpt>
<trkpt lat="63.749980927" lon="-20.233076096">
<ele>26.507813</ele>
<time>2012-07-27T11:32:18Z</time>
<extensions>
<speed>0.0</speed>
<temp>0.00</temp>
<bpm>0</bpm>
<rpm>0.00</rpm>
</extensions>
</trkpt>
<trkpt lat="63.749980927" lon="-20.233076096">
<ele>26.514648</ele>
<time>2012-07-27T11:32:23Z</time>
<extensions>
<speed>0.0</speed>
<temp>0.00</temp>
<bpm>0</bpm>
<rpm>0.00</rpm>
</extensions>
</trkpt>
<trkpt lat="63.749980927" lon="-20.233076096">
<ele>26.520020</ele>
<time>2012-07-27T11:32:28Z</time>
<speed>0.010000</speed>
<extensions>
<speed>0.0</speed>
<temp>0.00</temp>
<bpm>0</bpm>
<rpm>0.00</rpm>
</extensions>
</trkpt>
<trkpt lat="63.749980927" lon="-20.233076096">
<ele>26.524902</ele>
<time>2012-07-27T11:32:33Z</time>
<extensions>
<speed>0.0</speed>
<temp>0.00</temp>
<bpm>0</bpm>
<rpm>0.00</rpm>
</extensions>
</trkpt>
<trkpt lat="63.749980927" lon="-20.233076096">
<ele>26.533203</ele>
<time>2012-07-27T11:32:38Z</time>
<speed>0.010000</speed>
<extensions>
<speed>0.0</speed>
<temp>0.00</temp>
<bpm>0</bpm>
<rpm>0.00</rpm>
</extensions>
</trkpt>
<trkpt lat="63.749980927" lon="-20.233076096">
<ele>26.538574</ele>
<time>2012-07-27T11:32:43Z</time>
<extensions>
<speed>0.0</speed>
<temp>0.00</temp>
<bpm>0</bpm>
<rpm>0.00</rpm>
</extensions>
</trkpt>
<trkpt lat="63.749980927" lon="-20.233076096">
<ele>26.549316</ele>
<time>2012-07-27T11:32:48Z</time>
<speed>0.010000</speed>
<extensions>
<speed>0.0</speed>
<temp>0.00</temp>
<bpm>0</bpm>
<rpm>0.00</rpm>
</extensions>
</trkpt>
<trkpt lat="63.749980927" lon="-20.233078003">
<ele>26.555664</ele>
<time>2012-07-27T11:32:53Z</time>
<speed>0.010000</speed>
<extensions>
<speed>0.0</speed>
<temp>0.00</temp>
<bpm>0</bpm>
<rpm>0.00</rpm>
</extensions>
</trkpt>
<trkpt lat="63.749980927" lon="-20.233078003">
<ele>26.563477</ele>
<time>2012-07-27T11:32:58Z</time>
<speed>0.010000</speed>
<extensions>
<speed>0.0</speed>
<temp>0.00</temp>
<bpm>0</bpm>
<rpm>0.00</rpm>
</extensions>
</trkpt>
<trkpt lat="63.749980927" lon="-20.233078003">
<ele>26.568359</ele>
<time>2012-07-27T11:33:03Z</time>
<extensions>
<speed>0.0</speed>
<temp>0.00</temp>
<bpm>0</bpm>
<rpm>0.00</rpm>
</extensions>
</trkpt>
<trkpt lat="63.749980927" lon="-20.233078003">
<ele>26.576172</ele>
<time>2012-07-27T11:33:08Z</time>
<speed>0.010000</speed>
<extensions>
<speed>0.0</speed>
<temp>0.00</temp>
<bpm>0</bpm>
<rpm>0.00</rpm>
</extensions>
</trkpt>
<trkpt lat="63.749980927" lon="-20.233078003">
<ele>26.583984</ele>
<time>2012-07-27T11:33:13Z</time>
<extensions>
<speed>0.0</speed>
<temp>0.00</temp>
<bpm>0</bpm>
<rpm>0.00</rpm>
</extensions>
</trkpt>
<trkpt lat="63.749980927" lon="-20.233078003">
<ele>26.593750</ele>
<time>2012-07-27T11:33:18Z</time>
<speed>0.010000</speed>
<extensions>
<speed>0.0</speed>
<temp>0.00</temp>
<bpm>0</bpm>
<rpm>0.00</rpm>
</extensions>
</trkpt>
<trkpt lat="63.749980927" lon="-20.233078003">
<ele>26.604004</ele>
<time>2012-07-27T11:33:23Z</time>
<speed>0.010000</speed>
<extensions>
<speed>0.0</speed>
<temp>0.00</temp>
<bpm>0</bpm>
<rpm>0.00</rpm>
</extensions>
</trkpt>
<trkpt lat="63.749980927" lon="-20.233078003">
<ele>26.607910</ele>
<time>2012-07-27T11:33:28Z</time>
<speed>0.010000</speed>
<extensions>
<speed>0.0</speed>
<temp>0.00</temp>
<bpm>0</bpm>
<rpm>0.00</rpm>
</extensions>
</trkpt>
<trkpt lat="63.749980927" lon="-20.233076096">
<ele>26.613770</ele>
<time>2012-07-27T11:33:33Z</time>
<extensions>
<speed>0.0</speed>
<temp>0.00</temp>
<bpm>0</bpm>
<rpm>0.00</rpm>
</extensions>
</trkpt>
<trkpt lat="63.749980927" lon="-20.233076096">
<ele>26.617188</ele>
<time>2012-07-27T11:33:38Z</time>
<extensions>
<speed>0.0</speed>
<temp>0.00</temp>
<bpm>0</bpm>
<rpm>0.00</rpm>
</extensions>
</trkpt>
<trkpt lat="63.749980927" lon="-20.233076096">
<ele>26.618164</ele>
<time>2012-07-27T11:33:43Z</time>
<speed>0.010000</speed>
<extensions>
<speed>0.0</speed>
<temp>0.00</temp>
<bpm>0</bpm>
<rpm>0.00</rpm>
</extensions>
</trkpt>
<trkpt lat="63.749980927" lon="-20.233076096">
<ele>26.619141</ele>
<time>2012-07-27T11:33:48Z</time>
<extensions>
<speed>0.0</speed>
<temp>0.00</temp>
<bpm>0</bpm>
<rpm>0.00</rpm>
</extensions>
</trkpt>
<trkpt lat="63.749980927" lon="-20.233076096">
<ele>26.621582</ele>
<time>2012-07-27T11:33:53Z</time>
<extensions>
<speed>0.0</speed>
<temp>0.00</temp>
<bpm>0</bpm>
<rpm>0.00</rpm>
</extensions>
</trkpt>
<trkpt lat="63.749980927" lon="-20.233076096">
<ele>26.624512</ele>
<time>2012-07-27T11:33:58Z</time>
<speed>0.010000</speed>
<extensions>
<speed>0.0</speed>
<temp>0.00</temp>
<bpm>0</bpm>
<rpm>0.00</rpm>
</extensions>
</trkpt>
<trkpt lat="63.749980927" lon="-20.233078003">
<ele>26.628418</ele>
<time>2012-07-27T11:34:03Z</time>
<extensions>
<speed>0.0</speed>
<temp>0.00</temp>
<bpm>0</bpm>
<rpm>0.00</rpm>
</extensions>
</trkpt>
<trkpt lat="63.749980927" lon="-20.233078003">
<ele>26.632813</ele>
<time>2012-07-27T11:34:08Z</time>
<extensions>
<speed>0.0</speed>
<temp>0.00</temp>
<bpm>0</bpm>
<rpm>0.00</rpm>
</extensions>
</trkpt>
<trkpt lat="63.749980927" lon="-20.233078003">
<ele>26.634277</ele>
<time>2012-07-27T11:34:13Z</time>
<extensions>
<speed>0.0</speed>
<temp>0.00</temp>
<bpm>0</bpm>
<rpm>0.00</rpm>
</extensions>
</trkpt>
<trkpt lat="63.749980927" lon="-20.233078003">
<ele>26.637695</ele>
<time>2012-07-27T11:34:18Z</time>
<extensions>
<speed>0.0</speed>
<temp>0.00</temp>
<bpm>0</bpm>
<rpm>0.00</rpm>
</extensions>
</trkpt>
<trkpt lat="63.749980927" lon="-20.233078003">
<ele>26.637207</ele>
<time>2012-07-27T11:34:23Z</time>
<extensions>
<speed>0.0</speed>
<temp>0.00</temp>
<bpm>0</bpm>
<rpm>0.00</rpm>
</extensions>
</trkpt>
<trkpt lat="63.749980927" lon="-20.233078003">
<ele>26.643066</ele>
<time>2012-07-27T11:34:28Z</time>
<speed>0.010000</speed>
<extensions>
<speed>0.0</speed>
<temp>0.00</temp>
<bpm>0</bpm>
<rpm>0.00</rpm>
</extensions>
</trkpt>
<trkpt lat="63.749980927" lon="-20.233078003">
<ele>26.651855</ele>
<time>2012-07-27T11:34:33Z</time>
<speed>0.020000</speed>
<extensions>
<speed>0.0</speed>
<temp>0.00</temp>
<bpm>0</bpm>
<rpm>0.00</rpm>
</extensions>
</trkpt>
<trkpt lat="63.749980927" lon="-20.233078003">
<ele>26.661133</ele>
<time>2012-07-27T11:34:38Z</time>
<speed>0.020000</speed>
<extensions>
<speed>0.0</speed>
<temp>0.00</temp>
<bpm>0</bpm>
<rpm>0.00</rpm>
</extensions>
</trkpt>
<trkpt lat="63.749980927" lon="-20.233078003">
<ele>26.666992</ele>
<time>2012-07-27T11:34:43Z</time>
<extensions>
<speed>0.0</speed>
<temp>0.00</temp>
<bpm>0</bpm>
<rpm>0.00</rpm>
</extensions>
</trkpt>
<trkpt lat="63.749980927" lon="-20.233078003">
<ele>26.666992</ele>
<time>2012-07-27T11:34:48Z</time>
<speed>0.020000</speed>
<extensions>
<speed>0.0</speed>
<temp>0.00</temp>
<bpm>0</bpm>
<rpm>0.00</rpm>
</extensions>
</trkpt>
<trkpt lat="63.749980927" lon="-20.233078003">
<ele>26.666992</ele>
<time>2012-07-27T11:34:53Z</time>
<speed>0.080000</speed>
<extensions>
<speed>0.1</speed>
<temp>0.00</temp>
<bpm>0</bpm>
<rpm>0.00</rpm>
</extensions>
</trkpt>
<trkpt lat="63.749973297" lon="-20.233070374">
<ele>27.140137</ele>
<time>2012-07-27T11:34:58Z</time>
<speed>0.010000</speed>
<extensions>
<speed>0.0</speed>
<temp>0.00</temp>
<bpm>0</bpm>
<rpm>0.00</rpm>
</extensions>
</trkpt>
<trkpt lat="63.749973297" lon="-20.233070374">
<ele>27.159668</ele>
<time>2012-07-27T11:35:03Z</time>
<speed>0.010000</speed>
<extensions>
<speed>0.0</speed>
<temp>0.00</temp>
<bpm>0</bpm>
<rpm>0.00</rpm>
</extensions>
</trkpt>
<trkpt lat="63.749973297" lon="-20.233070374">
<ele>27.188965</ele>
<time>2012-07-27T11:35:08Z</time>
<extensions>
<speed>0.0</speed>
<temp>0.00</temp>
<bpm>0</bpm>
<rpm>0.00</rpm>
</extensions>
</trkpt>
<trkpt lat="63.749973297" lon="-20.233070374">
<ele>27.208496</ele>
<time>2012-07-27T11:35:13Z</time>
<speed>0.010000</speed>
<extensions>
<speed>0.0</speed>
<temp>0.00</temp>
<bpm>0</bpm>
<rpm>0.00</rpm>
</extensions>
</trkpt>
<trkpt lat="63.749973297" lon="-20.233072281">
<ele>27.245605</ele>
<time>2012-07-27T11:35:18Z</time>
<extensions>
<speed>0.0</speed>
<temp>0.00</temp>
<bpm>0</bpm>
<rpm>0.00</rpm>
</extensions>
</trkpt>
<trkpt lat="63.749973297" lon="-20.233072281">
<ele>27.297852</ele>
<time>2012-07-27T11:35:23Z</time>
<speed>0.100000</speed>
<extensions>
<speed>0.1</speed>
<temp>0.00</temp>
<bpm>0</bpm>
<rpm>0.00</rpm>
</extensions>
</trkpt>
<trkpt lat="63.749973297" lon="-20.233070374">
<ele>27.349609</ele>
<time>2012-07-27T11:35:28Z</time>
<speed>0.430000</speed>
<extensions>
<speed>0.4</speed>
<temp>0.00</temp>
<bpm>0</bpm>
<rpm>0.00</rpm>
</extensions>
</trkpt>
<trkpt lat="63.749946594" lon="-20.233036041">
<ele>27.151855</ele>
<time>2012-07-27T11:35:33Z</time>
<speed>1.040000</speed>
<extensions>
<speed>1.0</speed>
<temp>0.00</temp>
<bpm>0</bpm>
<rpm>0.00</rpm>
</extensions>
</trkpt>
<trkpt lat="63.749923706" lon="-20.233026505">
<ele>26.586426</ele>
<time>2012-07-27T11:35:38Z</time>
<speed>0.100000</speed>
<extensions>
<speed>0.1</speed>
<temp>0.00</temp>
<bpm>0</bpm>
<rpm>0.00</rpm>
</extensions>
</trkpt>
<trkpt lat="63.749923706" lon="-20.233024597">
<ele>25.083008</ele>
<time>2012-07-27T11:35:43Z</time>
<speed>0.040000</speed>
<extensions>
<speed>0.0</speed>
<temp>0.00</temp>
<bpm>0</bpm>
<rpm>0.00</rpm>
</extensions>
</trkpt>
<trkpt lat="63.749927521" lon="-20.233020782">
<ele>24.089355</ele>
<time>2012-07-27T11:35:48Z</time>
<speed>0.040000</speed>
<extensions>
<speed>0.0</speed>
<temp>0.00</temp>
<bpm>0</bpm>
<rpm>0.00</rpm>
</extensions>
</trkpt>
<trkpt lat="63.749927521" lon="-20.233022690">
<ele>23.565430</ele>
<time>2012-07-27T11:35:53Z</time>
<speed>0.030000</speed>
<extensions>
<speed>0.0</speed>
<temp>0.00</temp>
<bpm>0</bpm>
<rpm>0.00</rpm>
</extensions>
</trkpt>
<trkpt lat="63.749923706" lon="-20.233028412">
<ele>23.615723</ele>
<time>2012-07-27T11:35:58Z</time>
<extensions>
<speed>0.0</speed>
<temp>0.00</temp>
<bpm>0</bpm>
<rpm>0.00</rpm>
</extensions>
</trkpt>
<trkpt lat="63.749923706" lon="-20.233030319">
<ele>23.666016</ele>
<time>2012-07-27T11:36:03Z</time>
<extensions>
<speed>0.0</speed>
<temp>0.00</temp>
<bpm>0</bpm>
<rpm>0.00</rpm>
</extensions>
</trkpt>
<trkpt lat="63.749923706" lon="-20.233032227">
<ele>23.684082</ele>
<time>2012-07-27T11:36:08Z</time>
<extensions>
<speed>0.0</speed>
<temp>0.00</temp>
<bpm>0</bpm>
<rpm>0.00</rpm>
</extensions>
</trkpt>
<trkpt lat="63.749923706" lon="-20.233032227">
<ele>23.692383</ele>
<time>2012-07-27T11:36:13Z</time>
<speed>0.010000</speed>
<extensions>
<speed>0.0</speed>
<temp>0.00</temp>
<bpm>0</bpm>
<rpm>0.00</rpm>
</extensions>
</trkpt>
<trkpt lat="63.749923706" lon="-20.233034134">
<ele>23.711426</ele>
<time>2012-07-27T11:36:18Z</time>
<speed>0.010000</speed>
<extensions>
<speed>0.0</speed>
<temp>0.00</temp>
<bpm>0</bpm>
<rpm>0.00</rpm>
</extensions>
</trkpt>
<trkpt lat="63.749923706" lon="-20.233034134">
<ele>23.731934</ele>
<time>2012-07-27T11:36:23Z</time>
<speed>1.470000</speed>
<extensions>
<speed>1.5</speed>
<temp>0.00</temp>
<bpm>0</bpm>
<rpm>0.00</rpm>
</extensions>
</trkpt>
<trkpt lat="63.749961853" lon="-20.233182907">
<ele>24.732422</ele>
<time>2012-07-27T11:36:28Z</time>
<speed>1.890000</speed>
<extensions>
<speed>1.9</speed>
<temp>0.00</temp>
<bpm>0</bpm>
<rpm>0.00</rpm>
</extensions>
</trkpt>
<trkpt lat="63.750034332" lon="-20.233367920">
<ele>25.075684</ele>
<time>2012-07-27T11:36:33Z</time>
<speed>2.950000</speed>
<extensions>
<speed>2.9</speed>
<temp>0.00</temp>
<bpm>0</bpm>
<rpm>0.00</rpm>
</extensions>
</trkpt>
<trkpt lat="63.750137329" lon="-20.233566284">
<ele>25.244629</ele>
<time>2012-07-27T11:36:38Z</time>
<speed>3.200000</speed>
<extensions>
<speed>3.2</speed>
<temp>0.00</temp>
<bpm>0</bpm>
<rpm>0.00</rpm>
</extensions>
</trkpt>
<trkpt lat="63.750247955" lon="-20.233745575">
<ele>26.077637</ele>
<time>2012-07-27T11:36:43Z</time>
<speed>2.820000</speed>
<extensions>
<speed>2.8</speed>
<temp>0.00</temp>
<bpm>0</bpm>
<rpm>0.00</rpm>
</extensions>
</trkpt>
<trkpt lat="63.750339508" lon="-20.233974457">
<ele>26.681641</ele>
<time>2012-07-27T11:36:48Z</time>
<speed>3.290000</speed>
<extensions>
<speed>3.3</speed>
<temp>0.00</temp>
<bpm>0</bpm>
<rpm>0.00</rpm>
</extensions>
</trkpt>
<trkpt lat="63.750473022" lon="-20.234186172">
<ele>27.613281</ele>
<time>2012-07-27T11:36:53Z</time>
<speed>3.650000</speed>
<extensions>
<speed>3.7</speed>
<temp>0.00</temp>
<bpm>0</bpm>
<rpm>0.00</rpm>
</extensions>
</trkpt>
<trkpt lat="63.750614166" lon="-20.234397888">
<ele>28.583496</ele>
<time>2012-07-27T11:36:58Z</time>
<speed>3.710000</speed>
<extensions>
<speed>3.7</speed>
<temp>0.00</temp>
<bpm>0</bpm>
<rpm>0.00</rpm>
</extensions>
</trkpt>
<trkpt lat="63.750766754" lon="-20.234615326">
<ele>29.599121</ele>
<time>2012-07-27T11:37:03Z</time>
<speed>4.180000</speed>
<extensions>
<speed>4.2</speed>
<temp>0.00</temp>
<bpm>0</bpm>
<rpm>0.00</rpm>
</extensions>
</trkpt>
<trkpt lat="63.750915527" lon="-20.234842300">
<ele>30.368164</ele>
<time>2012-07-27T11:37:08Z</time>
<speed>3.790000</speed>
<extensions>
<speed>3.8</speed>
<temp>0.00</temp>
<bpm>0</bpm>
<rpm>0.00</rpm>
</extensions>
</trkpt>
<trkpt lat="63.751060486" lon="-20.235071182">
<ele>29.766602</ele>
<time>2012-07-27T11:37:13Z</time>
<speed>3.800000</speed>
<extensions>
<speed>3.8</speed>
<temp>0.00</temp>
<bpm>0</bpm>
<rpm>0.00</rpm>
</extensions>
</trkpt>
<trkpt lat="63.751213074" lon="-20.235279083">
<ele>30.404785</ele>
<time>2012-07-27T11:37:18Z</time>
<speed>3.940000</speed>
<extensions>
<speed>3.9</speed>
<temp>0.00</temp>
<bpm>0</bpm>
<rpm>0.00</rpm>
</extensions>
</trkpt>
<trkpt lat="63.751365662" lon="-20.235507965">
<ele>31.212402</ele>
<time>2012-07-27T11:37:23Z</time>
<speed>4.110000</speed>
<extensions>
<speed>4.1</speed>
<temp>0.00</temp>
<bpm>0</bpm>
<rpm>0.00</rpm>
</extensions>
</trkpt>
<trkpt lat="63.751514435" lon="-20.235757828">
<ele>31.391602</ele>
<time>2012-07-27T11:37:28Z</time>
<speed>4.260000</speed>
<extensions>
<speed>4.3</speed>
<temp>0.00</temp>
<bpm>0</bpm>
<rpm>0.00</rpm>
</extensions>
</trkpt>
<trkpt lat="63.751674652" lon="-20.236005783">
<ele>31.837402</ele>
<time>2012-07-27T11:37:33Z</time>
<speed>4.140000</speed>
<extensions>
<speed>4.1</speed>
<temp>0.00</temp>
<bpm>0</bpm>
<rpm>0.00</rpm>
</extensions>
</trkpt>
<trkpt lat="63.751823425" lon="-20.236211777">
<ele>32.700195</ele>
<time>2012-07-27T11:37:38Z</time>
<speed>3.900000</speed>
<extensions>
<speed>3.9</speed>
<temp>0.00</temp>
<bpm>0</bpm>
<rpm>0.00</rpm>
</extensions>
</trkpt>
<trkpt lat="63.751968384" lon="-20.236446381">
<ele>33.048828</ele>
<time>2012-07-27T11:37:43Z</time>
<speed>3.950000</speed>
<extensions>
<speed>4.0</speed>
<temp>0.00</temp>
<bpm>0</bpm>
<rpm>0.00</rpm>
</extensions>
</trkpt>
<trkpt lat="63.752117157" lon="-20.236684799">
<ele>33.953125</ele>
<time>2012-07-27T11:37:48Z</time>
<speed>4.200000</speed>
<extensions>
<speed>4.2</speed>
<temp>0.00</temp>
<bpm>0</bpm>
<rpm>0.00</rpm>
</extensions>
</trkpt>
<trkpt lat="63.752254486" lon="-20.236949921">
<ele>34.388672</ele>
<time>2012-07-27T11:37:53Z</time>
<speed>4.030000</speed>
<extensions>
<speed>4.0</speed>
<temp>0.00</temp>
<bpm>0</bpm>
<rpm>0.00</rpm>
</extensions>
</trkpt>
<trkpt lat="63.752395630" lon="-20.237174988">
<ele>34.911133</ele>
<time>2012-07-27T11:37:58Z</time>
<speed>3.670000</speed>
<extensions>
<speed>3.7</speed>
<temp>0.00</temp>
<bpm>0</bpm>
<rpm>0.00</rpm>
</extensions>
</trkpt>
<trkpt lat="63.752529144" lon="-20.237369537">
<ele>35.485352</ele>
<time>2012-07-27T11:38:03Z</time>
<speed>3.400000</speed>
<extensions>
<speed>3.4</speed>
<temp>0.00</temp>
<bpm>0</bpm>
<rpm>0.00</rpm>
</extensions>
</trkpt>
<trkpt lat="63.752647400" lon="-20.237552643">
<ele>36.210938</ele>
<time>2012-07-27T11:38:08Z</time>
<speed>3.390000</speed>
<extensions>
<speed>3.4</speed>
<temp>0.00</temp>
<bpm>0</bpm>
<rpm>0.00</rpm>
</extensions>
</trkpt>
<trkpt lat="63.752784729" lon="-20.237754822">
<ele>36.275391</ele>
<time>2012-07-27T11:38:13Z</time>
<speed>3.850000</speed>
<extensions>
<speed>3.8</speed>
<temp>0.00</temp>
<bpm>0</bpm>
<rpm>0.00</rpm>
</extensions>
</trkpt>
<trkpt lat="63.752941132" lon="-20.237977982">
<ele>36.478516</ele>
<time>2012-07-27T11:38:18Z</time>
<speed>4.110000</speed>
<extensions>
<speed>4.1</speed>
<temp>0.00</temp>
<bpm>0</bpm>
<rpm>0.00</rpm>
</extensions>
</trkpt>
<trkpt lat="63.753108978" lon="-20.238206863">
<ele>36.980469</ele>
<time>2012-07-27T11:38:23Z</time>
<speed>4.150000</speed>
<extensions>
<speed>4.1</speed>
<temp>0.00</temp>
<bpm>0</bpm>
<rpm>0.00</rpm>
</extensions>
</trkpt>
<trkpt lat="63.753265381" lon="-20.238451004">
<ele>37.257813</ele>
<time>2012-07-27T11:38:28Z</time>
<speed>4.260000</speed>
<extensions>
<speed>4.3</speed>
<temp>0.00</temp>
<bpm>0</bpm>
<rpm>0.00</rpm>
</extensions>
</trkpt>
<trkpt lat="63.753437042" lon="-20.238716125">
<ele>37.710938</ele>
<time>2012-07-27T11:38:33Z</time>
<speed>4.490000</speed>
<extensions>
<speed>4.5</speed>
<temp>0.00</temp>
<bpm>0</bpm>
<rpm>0.00</rpm>
</extensions>
</trkpt>
<trkpt lat="63.753597260" lon="-20.238971710">
<ele>38.159180</ele>
<time>2012-07-27T11:38:38Z</time>
<speed>4.510000</speed>
<extensions>
<speed>4.5</speed>
<temp>0.00</temp>
<bpm>0</bpm>
<rpm>0.00</rpm>
</extensions>
</trkpt>
<trkpt lat="63.753765106" lon="-20.239229202">
<ele>38.525391</ele>
<time>2012-07-27T11:38:43Z</time>
<speed>4.670000</speed>
<extensions>
<speed>4.7</speed>
<temp>0.00</temp>
<bpm>0</bpm>
<rpm>0.00</rpm>
</extensions>
</trkpt>
<trkpt lat="63.753932953" lon="-20.239501953">
<ele>39.077148</ele>
<time>2012-07-27T11:38:48Z</time>
<speed>4.560000</speed>
<extensions>
<speed>4.6</speed>
<temp>0.00</temp>
<bpm>0</bpm>
<rpm>0.00</rpm>
</extensions>
</trkpt>
<trkpt lat="63.754096985" lon="-20.239757538">
<ele>39.304688</ele>
<time>2012-07-27T11:38:53Z</time>
<speed>4.470000</speed>
<extensions>
<speed>4.5</speed>
<temp>0.00</temp>
<bpm>0</bpm>
<rpm>0.00</rpm>
</extensions>
</trkpt>
<trkpt lat="63.754264832" lon="-20.240018845">
<ele>39.379883</ele>
<time>2012-07-27T11:38:58Z</time>
<speed>4.680000</speed>
<extensions>
<speed>4.7</speed>
<temp>0.00</temp>
<bpm>0</bpm>
<rpm>0.00</rpm>
</extensions>
</trkpt>
<trkpt lat="63.754447937" lon="-20.240285873">
<ele>39.524414</ele>
<time>2012-07-27T11:39:03Z</time>
<speed>4.850000</speed>
<extensions>
<speed>4.8</speed>
<temp>0.00</temp>
<bpm>0</bpm>
<rpm>0.00</rpm>
</extensions>
</trkpt>
<trkpt lat="63.754627228" lon="-20.240564346">
<ele>39.692383</ele>
<time>2012-07-27T11:39:08Z</time>
<speed>4.830000</speed>
<extensions>
<speed>4.8</speed>
<temp>0.00</temp>
<bpm>0</bpm>
<rpm>0.00</rpm>
</extensions>
</trkpt>
<trkpt lat="63.754795074" lon="-20.240835190">
<ele>40.301758</ele>
<time>2012-07-27T11:39:13Z</time>
<speed>4.300000</speed>
<extensions>
<speed>4.3</speed>
<temp>0.00</temp>
<bpm>0</bpm>
<rpm>0.00</rpm>
</extensions>
</trkpt>
<trkpt lat="63.754951477" lon="-20.241100311">
<ele>40.086914</ele>
<time>2012-07-27T11:39:18Z</time>
<speed>4.580000</speed>
<extensions>
<speed>4.6</speed>
<temp>0.00</temp>
<bpm>0</bpm>
<rpm>0.00</rpm>
</extensions>
</trkpt>
<trkpt lat="63.755115509" lon="-20.241353989">
<ele>40.029297</ele>
<time>2012-07-27T11:39:23Z</time>
<speed>4.110000</speed>
<extensions>
<speed>4.1</speed>
<temp>0.00</temp>
<bpm>0</bpm>
<rpm>0.00</rpm>
</extensions>
</trkpt>
<trkpt lat="63.755256653" lon="-20.241579056">
<ele>39.835938</ele>
<time>2012-07-27T11:39:28Z</time>
<speed>3.940000</speed>
<extensions>
<speed>3.9</speed>
<temp>0.00</temp>
<bpm>0</bpm>
<rpm>0.00</rpm>
</extensions>
</trkpt>
<trkpt lat="63.755401611" lon="-20.241813660">
<ele>39.015625</ele>
<time>2012-07-27T11:39:33Z</time>
<speed>4.160000</speed>
<extensions>
<speed>4.2</speed>
<temp>0.00</temp>
<bpm>0</bpm>
<rpm>0.00</rpm>
</extensions>
</trkpt>
<trkpt lat="63.755558014" lon="-20.242069244">
<ele>38.489258</ele>
<time>2012-07-27T11:39:38Z</time>
<speed>4.330000</speed>
<extensions>
<speed>4.3</speed>
<temp>0.00</temp>
<bpm>0</bpm>
<rpm>0.00</rpm>
</extensions>
</trkpt>
<trkpt lat="63.755718231" lon="-20.242343903">
<ele>37.804688</ele>
<time>2012-07-27T11:39:43Z</time>
<speed>4.550000</speed>
<extensions>
<speed>4.5</speed>
<temp>0.00</temp>
<bpm>0</bpm>
<rpm>0.00</rpm>
</extensions>
</trkpt>
<trkpt lat="63.755886078" lon="-20.242612839">
<ele>37.278320</ele>
<time>2012-07-27T11:39:48Z</time>
<speed>4.590000</speed>
<extensions>
<speed>4.6</speed>
<temp>0.00</temp>
<bpm>0</bpm>
<rpm>0.00</rpm>
</extensions>
</trkpt>
<trkpt lat="63.756053925" lon="-20.242876053">
<ele>37.322266</ele>
<time>2012-07-27T11:39:53Z</time>
<speed>4.720000</speed>
<extensions>
<speed>4.7</speed>
<temp>0.00</temp>
<bpm>0</bpm>
<rpm>0.00</rpm>
</extensions>
</trkpt>
<trkpt lat="63.756229401" lon="-20.243158340">
<ele>36.576172</ele>
<time>2012-07-27T11:39:58Z</time>
<speed>4.760000</speed>
<extensions>
<speed>4.8</speed>
<temp>0.00</temp>
<bpm>0</bpm>
<rpm>0.00</rpm>
</extensions>
</trkpt>
<trkpt lat="63.756401062" lon="-20.243431091">
<ele>35.655273</ele>
<time>2012-07-27T11:40:03Z</time>
<speed>4.820000</speed>
<extensions>
<speed>4.8</speed>
<temp>0.00</temp>
<bpm>0</bpm>
<rpm>0.00</rpm>
</extensions>
</trkpt>
<trkpt lat="63.756580353" lon="-20.243713379">
<ele>35.339844</ele>
<time>2012-07-27T11:40:08Z</time>
<speed>4.860000</speed>
<extensions>
<speed>4.9</speed>
<temp>0.00</temp>
<bpm>0</bpm>
<rpm>0.00</rpm>
</extensions>
</trkpt>
<trkpt lat="63.756763458" lon="-20.244001389">
<ele>34.768555</ele>
<time>2012-07-27T11:40:13Z</time>
<speed>5.000000</speed>
<extensions>
<speed>5.0</speed>
<temp>0.00</temp>
<bpm>0</bpm>
<rpm>0.00</rpm>
</extensions>
</trkpt>
<trkpt lat="63.756938934" lon="-20.244287491">
<ele>34.375000</ele>
<time>2012-07-27T11:40:18Z</time>
<speed>4.900000</speed>
<extensions>
<speed>4.9</speed>
<temp>0.00</temp>
<bpm>0</bpm>
<rpm>0.00</rpm>
</extensions>
</trkpt>
<trkpt lat="63.757122040" lon="-20.244575500">
<ele>33.775391</ele>
<time>2012-07-27T11:40:23Z</time>
<speed>4.950000</speed>
<extensions>
<speed>4.9</speed>
<temp>0.00</temp>
<bpm>0</bpm>
<rpm>0.00</rpm>
</extensions>
</trkpt>
<trkpt lat="63.757305145" lon="-20.244853973">
<ele>33.414063</ele>
<time>2012-07-27T11:40:28Z</time>
<speed>4.780000</speed>
<extensions>
<speed>4.8</speed>
<temp>0.00</temp>
<bpm>0</bpm>
<rpm>0.00</rpm>
</extensions>
</trkpt>
<trkpt lat="63.757480621" lon="-20.245136261">
<ele>32.679688</ele>
<time>2012-07-27T11:40:33Z</time>
<speed>4.760000</speed>
<extensions>
<speed>4.8</speed>
<temp>0.00</temp>
<bpm>0</bpm>
<rpm>0.00</rpm>
</extensions>
</trkpt>
<trkpt lat="63.757656097" lon="-20.245420456">
<ele>32.237305</ele>
<time>2012-07-27T11:40:38Z</time>
<speed>4.880000</speed>
<extensions>
<speed>4.9</speed>
<temp>0.00</temp>
<bpm>0</bpm>
<rpm>0.00</rpm>
</extensions>
</trkpt>
<trkpt lat="63.757835388" lon="-20.245714188">
<ele>31.103516</ele>
<time>2012-07-27T11:40:43Z</time>
<speed>4.850000</speed>
<extensions>
<speed>4.8</speed>
<temp>0.00</temp>
<bpm>0</bpm>
<rpm>0.00</rpm>
</extensions>
</trkpt>
<trkpt lat="63.758010864" lon="-20.246015549">
<ele>29.951660</ele>
<time>2012-07-27T11:40:48Z</time>
<speed>4.870000</speed>
<extensions>
<speed>4.9</speed>
<temp>0.00</temp>
<bpm>0</bpm>
<rpm>0.00</rpm>
</extensions>
</trkpt>
<trkpt lat="63.758190155" lon="-20.246309280">
<ele>29.654785</ele>
<time>2012-07-27T11:40:53Z</time>
<speed>4.910000</speed>
<extensions>
<speed>4.9</speed>
<temp>0.00</temp>
<bpm>0</bpm>
<rpm>0.00</rpm>
</extensions>
</trkpt>
<trkpt lat="63.758361816" lon="-20.246618271">
<ele>29.092285</ele>
<time>2012-07-27T11:40:58Z</time>
<speed>4.760000</speed>
<extensions>
<speed>4.8</speed>
<temp>0.00</temp>
<bpm>0</bpm>
<rpm>0.00</rpm>
</extensions>
</trkpt>
<trkpt lat="63.758529663" lon="-20.246919632">
<ele>28.889160</ele>
<time>2012-07-27T11:41:03Z</time>
<speed>4.790000</speed>
<extensions>
<speed>4.8</speed>
<temp>0.00</temp>
<bpm>0</bpm>
<rpm>0.00</rpm>
</extensions>
</trkpt>
<trkpt lat="63.758693695" lon="-20.247238159">
<ele>28.544434</ele>
<time>2012-07-27T11:41:08Z</time>
<speed>5.020000</speed>
<extensions>
<speed>5.0</speed>
<temp>0.00</temp>
<bpm>0</bpm>
<rpm>0.00</rpm>
</extensions>
</trkpt>
<trkpt lat="63.758869171" lon="-20.247550964">
<ele>28.191895</ele>
<time>2012-07-27T11:41:13Z</time>
<speed>5.070000</speed>
<extensions>
<speed>5.1</speed>
<temp>0.00</temp>
<bpm>0</bpm>
<rpm>0.00</rpm>
</extensions>
</trkpt>
<trkpt lat="63.759040833" lon="-20.247869492">
<ele>27.962402</ele>
<time>2012-07-27T11:41:18Z</time>
<speed>4.940000</speed>
<extensions>
<speed>4.9</speed>
<temp>0.00</temp>
<bpm>0</bpm>
<rpm>0.00</rpm>
</extensions>
</trkpt>
<trkpt lat="63.759193420" lon="-20.248176575">
<ele>27.760742</ele>
<time>2012-07-27T11:41:23Z</time>
<speed>4.420000</speed>
<extensions>
<speed>4.4</speed>
<temp>0.00</temp>
<bpm>0</bpm>
<rpm>0.00</rpm>
</extensions>
</trkpt>
<trkpt lat="63.759346008" lon="-20.248485565">
<ele>27.599121</ele>
<time>2012-07-27T11:41:28Z</time>
<speed>4.660000</speed>
<extensions>
<speed>4.7</speed>
<temp>0.00</temp>
<bpm>0</bpm>
<rpm>0.00</rpm>
</extensions>
</trkpt>
<trkpt lat="63.759498596" lon="-20.248806000">
<ele>27.452637</ele>
<time>2012-07-27T11:41:33Z</time>
<speed>4.580000</speed>
<extensions>
<speed>4.6</speed>
<temp>0.00</temp>
<bpm>0</bpm>
<rpm>0.00</rpm>
</extensions>
</trkpt>
<trkpt lat="63.759647369" lon="-20.249116898">
<ele>27.375977</ele>
<time>2012-07-27T11:41:38Z</time>
<speed>4.410000</speed>
<extensions>
<speed>4.4</speed>
<temp>0.00</temp>
<bpm>0</bpm>
<rpm>0.00</rpm>
</extensions>
</trkpt>
<trkpt lat="63.759777069" lon="-20.249397278">
<ele>27.241699</ele>
<time>2012-07-27T11:41:43Z</time>
<speed>3.650000</speed>
<extensions>
<speed>3.7</speed>
<temp>0.00</temp>
<bpm>0</bpm>
<rpm>0.00</rpm>
</extensions>
</trkpt>
<trkpt lat="63.759899139" lon="-20.249649048">
<ele>27.361816</ele>
<time>2012-07-27T11:41:48Z</time>
<speed>3.860000</speed>
<extensions>
<speed>3.9</speed>
<temp>0.00</temp>
<bpm>0</bpm>
<rpm>0.00</rpm>
</extensions>
</trkpt>
<trkpt lat="63.760032654" lon="-20.249917984">
<ele>27.325684</ele>
<time>2012-07-27T11:41:53Z</time>
<speed>3.900000</speed>
<extensions>
<speed>3.9</speed>
<temp>0.00</temp>
<bpm>0</bpm>
<rpm>0.00</rpm>
</extensions>
</trkpt>
<trkpt lat="63.760162354" lon="-20.250207901">
<ele>27.142090</ele>
<time>2012-07-27T11:41:58Z</time>
<speed>4.360000</speed>
<extensions>
<speed>4.4</speed>
<temp>0.00</temp>
<bpm>0</bpm>
<rpm>0.00</rpm>
</extensions>
</trkpt>
<trkpt lat="63.760307312" lon="-20.250518799">
<ele>27.063965</ele>
<time>2012-07-27T11:42:03Z</time>
<speed>4.660000</speed>
<extensions>
<speed>4.7</speed>
<temp>0.00</temp>
<bpm>0</bpm>
<rpm>0.00</rpm>
</extensions>
</trkpt>
<trkpt lat="63.760467529" lon="-20.250846863">
<ele>27.049316</ele>
<time>2012-07-27T11:42:08Z</time>
<speed>4.710000</speed>
<extensions>
<speed>4.7</speed>
<temp>0.00</temp>
<bpm>0</bpm>
<rpm>0.00</rpm>
</extensions>
</trkpt>
<trkpt lat="63.760620117" lon="-20.251161575">
<ele>27.193359</ele>
<time>2012-07-27T11:42:13Z</time>
<speed>4.290000</speed>
<extensions>
<speed>4.3</speed>
<temp>0.00</temp>
<bpm>0</bpm>
<rpm>0.00</rpm>
</extensions>
</trkpt>
<trkpt lat="63.760761261" lon="-20.251455307">
<ele>27.145020</ele>
<time>2012-07-27T11:42:18Z</time>
<speed>4.320000</speed>
<extensions>
<speed>4.3</speed>
<temp>0.00</temp>
<bpm>0</bpm>
<rpm>0.00</rpm>
</extensions>
</trkpt>
<trkpt lat="63.760906219" lon="-20.251754761">
<ele>28.179688</ele>
<time>2012-07-27T11:42:23Z</time>
<speed>4.820000</speed>
<extensions>
<speed>4.8</speed>
<temp>0.00</temp>
<bpm>0</bpm>
<rpm>0.00</rpm>
</extensions>
</trkpt>
<trkpt lat="63.761054993" lon="-20.252027512">
<ele>29.601074</ele>
<time>2012-07-27T11:42:28Z</time>
<speed>5.020000</speed>
<extensions>
<speed>5.0</speed>
<temp>0.00</temp>
<bpm>0</bpm>
<rpm>0.00</rpm>
</extensions>
</trkpt>
<trkpt lat="63.761199951" lon="-20.252321243">
<ele>30.611816</ele>
<time>2012-07-27T11:42:33Z</time>
<speed>4.160000</speed>
<extensions>
<speed>4.2</speed>
<temp>0.00</temp>
<bpm>0</bpm>
<rpm>0.00</rpm>
</extensions>
</trkpt>
<trkpt lat="63.761322021" lon="-20.252601624">
<ele>30.247559</ele>
<time>2012-07-27T11:42:38Z</time>
<speed>3.840000</speed>
<extensions>
<speed>3.8</speed>
<temp>0.00</temp>
<bpm>0</bpm>
<rpm>0.00</rpm>
</extensions>
</trkpt>
<trkpt lat="63.761451721" lon="-20.252883911">
<ele>30.319336</ele>
<time>2012-07-27T11:42:43Z</time>
<speed>4.120000</speed>
<extensions>
<speed>4.1</speed>
<temp>0.00</temp>
<bpm>0</bpm>
<rpm>0.00</rpm>
</extensions>
</trkpt>
<trkpt lat="63.761592865" lon="-20.253170013">
<ele>31.237305</ele>
<time>2012-07-27T11:42:48Z</time>
<speed>4.390000</speed>
<extensions>
<speed>4.4</speed>
<temp>0.00</temp>
<bpm>0</bpm>
<rpm>0.00</rpm>
</extensions>
</trkpt>
<trkpt lat="63.761711121" lon="-20.253437042">
<ele>31.601563</ele>
<time>2012-07-27T11:42:53Z</time>
<speed>3.460000</speed>
<extensions>
<speed>3.5</speed>
<temp>0.00</temp>
<bpm>0</bpm>
<rpm>0.00</rpm>
</extensions>
</trkpt>
<trkpt lat="63.761821747" lon="-20.253715515">
<ele>31.484863</ele>
<time>2012-07-27T11:42:58Z</time>
<speed>4.060000</speed>
<extensions>
<speed>4.1</speed>
<temp>0.00</temp>
<bpm>0</bpm>
<rpm>0.00</rpm>
</extensions>
</trkpt>
<trkpt lat="63.761955261" lon="-20.254005432">
<ele>31.575195</ele>
<time>2012-07-27T11:43:03Z</time>
<speed>4.110000</speed>
<extensions>
<speed>4.1</speed>
<temp>0.00</temp>
<bpm>0</bpm>
<rpm>0.00</rpm>
</extensions>
</trkpt>
<trkpt lat="63.762100220" lon="-20.254285812">
<ele>31.946289</ele>
<time>2012-07-27T11:43:08Z</time>
<speed>4.170000</speed>
<extensions>
<speed>4.2</speed>
<temp>0.00</temp>
<bpm>0</bpm>
<rpm>0.00</rpm>
</extensions>
</trkpt>
<trkpt lat="63.762241364" lon="-20.254570007">
<ele>32.048828</ele>
<time>2012-07-27T11:43:13Z</time>
<speed>4.340000</speed>
<extensions>
<speed>4.3</speed>
<temp>0.00</temp>
<bpm>0</bpm>
<rpm>0.00</rpm>
</extensions>
</trkpt>
<trkpt lat="63.762371063" lon="-20.254835129">
<ele>31.661621</ele>
<time>2012-07-27T11:43:18Z</time>
<speed>3.730000</speed>
<extensions>
<speed>3.7</speed>
<temp>0.00</temp>
<bpm>0</bpm>
<rpm>0.00</rpm>
</extensions>
</trkpt>
<trkpt lat="63.762489319" lon="-20.255090714">
<ele>31.718262</ele>
<time>2012-07-27T11:43:23Z</time>
<speed>3.930000</speed>
<extensions>
<speed>3.9</speed>
<temp>0.00</temp>
<bpm>0</bpm>
<rpm>0.00</rpm>
</extensions>
</trkpt>
<trkpt lat="63.762615204" lon="-20.255365372">
<ele>33.265625</ele>
<time>2012-07-27T11:43:28Z</time>
<speed>3.790000</speed>
<extensions>
<speed>3.8</speed>
<temp>0.00</temp>
<bpm>0</bpm>
<rpm>0.00</rpm>
</extensions>
</trkpt>
<trkpt lat="63.762737274" lon="-20.255649567">
<ele>33.447266</ele>
<time>2012-07-27T11:43:33Z</time>
<speed>4.240000</speed>
<extensions>
<speed>4.2</speed>
<temp>0.00</temp>
<bpm>0</bpm>
<rpm>0.00</rpm>
</extensions>
</trkpt>
<trkpt lat="63.762874603" lon="-20.255964279">
<ele>33.343750</ele>
<time>2012-07-27T11:43:38Z</time>
<speed>4.370000</speed>
<extensions>
<speed>4.4</speed>
<temp>0.00</temp>
<bpm>0</bpm>
<rpm>0.00</rpm>
</extensions>
</trkpt>
<trkpt lat="63.763000488" lon="-20.256238937">
<ele>32.617188</ele>
<time>2012-07-27T11:43:43Z</time>
<speed>3.600000</speed>
<extensions>
<speed>3.6</speed>
<temp>0.00</temp>
<bpm>0</bpm>
<rpm>0.00</rpm>
</extensions>
</trkpt>
<trkpt lat="63.763122559" lon="-20.256515503">
<ele>32.192383</ele>
<time>2012-07-27T11:43:48Z</time>
<speed>4.250000</speed>
<extensions>
<speed>4.3</speed>
<temp>0.00</temp>
<bpm>0</bpm>
<rpm>0.00</rpm>
</extensions>
</trkpt>
<trkpt lat="63.763271332" lon="-20.256822586">
<ele>32.007813</ele>
<time>2012-07-27T11:43:53Z</time>
<speed>4.630000</speed>
<extensions>
<speed>4.6</speed>
<temp>0.00</temp>
<bpm>0</bpm>
<rpm>0.00</rpm>
</extensions>
</trkpt>
<trkpt lat="63.763427734" lon="-20.257164001">
<ele>31.819336</ele>
<time>2012-07-27T11:43:58Z</time>
<speed>4.790000</speed>
<extensions>
<speed>4.8</speed>
<temp>0.00</temp>
<bpm>0</bpm>
<rpm>0.00</rpm>
</extensions>
</trkpt>
<trkpt lat="63.763584137" lon="-20.257518768">
<ele>31.408203</ele>
<time>2012-07-27T11:44:03Z</time>
<speed>5.070000</speed>
<extensions>
<speed>5.1</speed>
<temp>0.00</temp>
<bpm>0</bpm>
<rpm>0.00</rpm>
</extensions>
</trkpt>
<trkpt lat="63.763751984" lon="-20.257879257">
<ele>31.451172</ele>
<time>2012-07-27T11:44:08Z</time>
<speed>5.130000</speed>
<extensions>
<speed>5.1</speed>
<temp>0.00</temp>
<bpm>0</bpm>
<rpm>0.00</rpm>
</extensions>
</trkpt>
<trkpt lat="63.763923645" lon="-20.258234024">
<ele>31.384766</ele>
<time>2012-07-27T11:44:13Z</time>
<speed>5.120000</speed>
<extensions>
<speed>5.1</speed>
<temp>0.00</temp>
<bpm>0</bpm>
<rpm>0.00</rpm>
</extensions>
</trkpt>
<trkpt lat="63.764087677" lon="-20.258590698">
<ele>31.126465</ele>
<time>2012-07-27T11:44:18Z</time>
<speed>4.970000</speed>
<extensions>
<speed>5.0</speed>
<temp>0.00</temp>
<bpm>0</bpm>
<rpm>0.00</rpm>
</extensions>
</trkpt>
<trkpt lat="63.764251709" lon="-20.258941650">
<ele>31.385254</ele>
<time>2012-07-27T11:44:23Z</time>
<speed>4.900000</speed>
<extensions>
<speed>4.9</speed>
<temp>0.00</temp>
<bpm>0</bpm>
<rpm>0.00</rpm>
</extensions>
</trkpt>
<trkpt lat="63.764415741" lon="-20.259292603">
<ele>31.575684</ele>
<time>2012-07-27T11:44:28Z</time>
<speed>5.040000</speed>
<extensions>
<speed>5.0</speed>
<temp>0.00</temp>
<bpm>0</bpm>
<rpm>0.00</rpm>
</extensions>
</trkpt>
<trkpt lat="63.764579773" lon="-20.259643555">
<ele>31.656738</ele>
<time>2012-07-27T11:44:33Z</time>
<speed>4.980000</speed>
<extensions>
<speed>5.0</speed>
<temp>0.00</temp>
<bpm>0</bpm>
<rpm>0.00</rpm>
</extensions>
</trkpt>
<trkpt lat="63.764751434" lon="-20.259986877">
<ele>31.641602</ele>
<time>2012-07-27T11:44:38Z</time>
<speed>5.170000</speed>
<extensions>
<speed>5.2</speed>
<temp>0.00</temp>
<bpm>0</bpm>
<rpm>0.00</rpm>
</extensions>
</trkpt>
<trkpt lat="63.764896393" lon="-20.260311127">
<ele>31.170410</ele>
<time>2012-07-27T11:44:43Z</time>
<speed>4.260000</speed>
<extensions>
<speed>4.3</speed>
<temp>0.00</temp>
<bpm>0</bpm>
<rpm>0.00</rpm>
</extensions>
</trkpt>
<trkpt lat="63.765037537" lon="-20.260614395">
<ele>28.595215</ele>
<time>2012-07-27T11:44:48Z</time>
<speed>4.630000</speed>
<extensions>
<speed>4.6</speed>
<temp>0.00</temp>
<bpm>0</bpm>
<rpm>0.00</rpm>
</extensions>
</trkpt>
<trkpt lat="63.765190125" lon="-20.260925293">
<ele>29.026855</ele>
<time>2012-07-27T11:44:53Z</time>
<speed>4.300000</speed>
<extensions>
<speed>4.3</speed>
<temp>0.00</temp>
<bpm>0</bpm>
<rpm>0.00</rpm>
</extensions>
</trkpt>
<trkpt lat="63.765316010" lon="-20.261198044">
<ele>28.928711</ele>
<time>2012-07-27T11:44:58Z</time>
<speed>3.600000</speed>
<extensions>
<speed>3.6</speed>
<temp>0.00</temp>
<bpm>0</bpm>
<rpm>0.00</rpm>
</extensions>
</trkpt>
<trkpt lat="63.765430450" lon="-20.261436462">
<ele>28.938965</ele>
<time>2012-07-27T11:45:03Z</time>
<speed>3.020000</speed>
<extensions>
<speed>3.0</speed>
<temp>0.00</temp>
<bpm>0</bpm>
<rpm>0.00</rpm>
</extensions>
</trkpt>
<trkpt lat="63.765506744" lon="-20.261604309">
<ele>29.455078</ele>
<time>2012-07-27T11:45:08Z</time>
<speed>2.190000</speed>
<extensions>
<speed>2.2</speed>
<temp>0.00</temp>
<bpm>0</bpm>
<rpm>0.00</rpm>
</extensions>
</trkpt>
<trkpt lat="63.765602112" lon="-20.261804581">
<ele>29.560547</ele>
<time>2012-07-27T11:45:13Z</time>
<speed>3.990000</speed>
<extensions>
<speed>4.0</speed>
<temp>0.00</temp>
<bpm>0</bpm>
<rpm>0.00</rpm>
</extensions>
</trkpt>
<trkpt lat="63.765735626" lon="-20.262096405">
<ele>29.597168</ele>
<time>2012-07-27T11:45:18Z</time>
<speed>4.300000</speed>
<extensions>
<speed>4.3</speed>
<temp>0.00</temp>
<bpm>0</bpm>
<rpm>0.00</rpm>
</extensions>
</trkpt>
<trkpt lat="63.765880585" lon="-20.262401581">
<ele>30.178223</ele>
<time>2012-07-27T11:45:23Z</time>
<speed>4.580000</speed>
<extensions>
<speed>4.6</speed>
<temp>0.00</temp>
<bpm>0</bpm>
<rpm>0.00</rpm>
</extensions>
</trkpt>
<trkpt lat="63.766033173" lon="-20.262741089">
<ele>30.435059</ele>
<time>2012-07-27T11:45:28Z</time>
<speed>4.720000</speed>
<extensions>
<speed>4.7</speed>
<temp>0.00</temp>
<bpm>0</bpm>
<rpm>0.00</rpm>
</extensions>
</trkpt>
<trkpt lat="63.766181946" lon="-20.263061523">
<ele>30.715332</ele>
<time>2012-07-27T11:45:33Z</time>
<speed>4.540000</speed>
<extensions>
<speed>4.5</speed>
<temp>0.00</temp>
<bpm>0</bpm>
<rpm>0.00</rpm>
</extensions>
</trkpt>
<trkpt lat="63.766330719" lon="-20.263364792">
<ele>30.853027</ele>
<time>2012-07-27T11:45:38Z</time>
<speed>4.550000</speed>
<extensions>
<speed>4.5</speed>
<temp>0.00</temp>
<bpm>0</bpm>
<rpm>0.00</rpm>
</extensions>
</trkpt>
<trkpt lat="63.766479492" lon="-20.263677597">
<ele>30.756348</ele>
<time>2012-07-27T11:45:43Z</time>
<speed>4.580000</speed>
<extensions>
<speed>4.6</speed>
<temp>0.00</temp>
<bpm>0</bpm>
<rpm>0.00</rpm>
</extensions>
</trkpt>
<trkpt lat="63.766632080" lon="-20.263990402">
<ele>30.518066</ele>
<time>2012-07-27T11:45:48Z</time>
<speed>4.450000</speed>
<extensions>
<speed>4.5</speed>
<temp>0.00</temp>
<bpm>0</bpm>
<rpm>0.00</rpm>
</extensions>
</trkpt>
<trkpt lat="63.766777039" lon="-20.264312744">
<ele>30.414551</ele>
<time>2012-07-27T11:45:53Z</time>
<speed>4.560000</speed>
<extensions>
<speed>4.6</speed>
<temp>0.00</temp>
<bpm>0</bpm>
<rpm>0.00</rpm>
</extensions>
</trkpt>
<trkpt lat="63.766921997" lon="-20.264619827">
<ele>30.632324</ele>
<time>2012-07-27T11:45:58Z</time>
<speed>4.380000</speed>
<extensions>
<speed>4.4</speed>
<temp>0.00</temp>
<bpm>0</bpm>
<rpm>0.00</rpm>
</extensions>
</trkpt>
<trkpt lat="63.767078400" lon="-20.264938354">
<ele>30.833496</ele>
<time>2012-07-27T11:46:03Z</time>
<speed>4.670000</speed>
<extensions>
<speed>4.7</speed>
<temp>0.00</temp>
<bpm>0</bpm>
<rpm>0.00</rpm>
</extensions>
</trkpt>
<trkpt lat="63.767242432" lon="-20.265277863">
<ele>30.550781</ele>
<time>2012-07-27T11:46:08Z</time>
<speed>4.890000</speed>
<extensions>
<speed>4.9</speed>
<temp>0.00</temp>
<bpm>0</bpm>
<rpm>0.00</rpm>
</extensions>
</trkpt>
<trkpt lat="63.767398834" lon="-20.265615463">
<ele>29.207520</ele>
<time>2012-07-27T11:46:13Z</time>
<speed>5.020000</speed>
<extensions>
<speed>5.0</speed>
<temp>0.00</temp>
<bpm>0</bpm>
<rpm>0.00</rpm>
</extensions>
</trkpt>
<trkpt lat="63.767562866" lon="-20.265962601">
<ele>28.723145</ele>
<time>2012-07-27T11:46:18Z</time>
<speed>5.050000</speed>
<extensions>
<speed>5.1</speed>
<temp>0.00</temp>
<bpm>0</bpm>
<rpm>0.00</rpm>
</extensions>
</trkpt>
<trkpt lat="63.767726898" lon="-20.266311646">
<ele>28.205078</ele>
<time>2012-07-27T11:46:23Z</time>
<speed>5.010000</speed>
<extensions>
<speed>5.0</speed>
<temp>0.00</temp>
<bpm>0</bpm>
<rpm>0.00</rpm>
</extensions>
</trkpt>
<trkpt lat="63.767890930" lon="-20.266674042">
<ele>28.225586</ele>
<time>2012-07-27T11:46:28Z</time>
<speed>5.010000</speed>
<extensions>
<speed>5.0</speed>
<temp>0.00</temp>
<bpm>0</bpm>
<rpm>0.00</rpm>
</extensions>
</trkpt>
<trkpt lat="63.768058777" lon="-20.267032623">
<ele>27.854004</ele>
<time>2012-07-27T11:46:33Z</time>
<speed>5.160000</speed>
<extensions>
<speed>5.2</speed>
<temp>0.00</temp>
<bpm>0</bpm>
<rpm>0.00</rpm>
</extensions>
</trkpt>
<trkpt lat="63.768230438" lon="-20.267400742">
<ele>28.056641</ele>
<time>2012-07-27T11:46:38Z</time>
<speed>5.060000</speed>
<extensions>
<speed>5.1</speed>
<temp>0.00</temp>
<bpm>0</bpm>
<rpm>0.00</rpm>
</extensions>
</trkpt>
<trkpt lat="63.768390656" lon="-20.267751694">
<ele>27.705566</ele>
<time>2012-07-27T11:46:43Z</time>
<speed>4.970000</speed>
<extensions>
<speed>5.0</speed>
<temp>0.00</temp>
<bpm>0</bpm>
<rpm>0.00</rpm>
</extensions>
</trkpt>
<trkpt lat="63.768547058" lon="-20.268056870">
<ele>27.279297</ele>
<time>2012-07-27T11:46:48Z</time>
<speed>4.370000</speed>
<extensions>
<speed>4.4</speed>
<temp>0.00</temp>
<bpm>0</bpm>
<rpm>0.00</rpm>
</extensions>
</trkpt>
<trkpt lat="63.768665314" lon="-20.268318176">
<ele>27.186035</ele>
<time>2012-07-27T11:46:53Z</time>
<speed>3.330000</speed>
<extensions>
<speed>3.3</speed>
<temp>0.00</temp>
<bpm>0</bpm>
<rpm>0.00</rpm>
</extensions>
</trkpt>
<trkpt lat="63.768760681" lon="-20.268516541">
<ele>26.984863</ele>
<time>2012-07-27T11:46:58Z</time>
<speed>2.610000</speed>
<extensions>
<speed>2.6</speed>
<temp>0.00</temp>
<bpm>0</bpm>
<rpm>0.00</rpm>
</extensions>
</trkpt>
<trkpt lat="63.768863678" lon="-20.268730164">
<ele>27.346680</ele>
<time>2012-07-27T11:47:03Z</time>
<speed>3.490000</speed>
<extensions>
<speed>3.5</speed>
<temp>0.00</temp>
<bpm>0</bpm>
<rpm>0.00</rpm>
</extensions>
</trkpt>
<trkpt lat="63.768974304" lon="-20.268987656">
<ele>26.284668</ele>
<time>2012-07-27T11:47:08Z</time>
<speed>3.410000</speed>
<extensions>
<speed>3.4</speed>
<temp>0.00</temp>
<bpm>0</bpm>
<rpm>0.00</rpm>
</extensions>
</trkpt>
<trkpt lat="63.769100189" lon="-20.269256592">
<ele>26.436035</ele>
<time>2012-07-27T11:47:13Z</time>
<speed>3.600000</speed>
<extensions>
<speed>3.6</speed>
<temp>0.00</temp>
<bpm>0</bpm>
<rpm>0.00</rpm>
</extensions>
</trkpt>
<trkpt lat="63.769199371" lon="-20.269483566">
<ele>26.358887</ele>
<time>2012-07-27T11:47:18Z</time>
<speed>2.730000</speed>
<extensions>
<speed>2.7</speed>
<temp>0.00</temp>
<bpm>0</bpm>
<rpm>0.00</rpm>
</extensions>
</trkpt>
<trkpt lat="63.769279480" lon="-20.269647598">
<ele>26.511719</ele>
<time>2012-07-27T11:47:23Z</time>
<speed>2.040000</speed>
<extensions>
<speed>2.0</speed>
<temp>0.00</temp>
<bpm>0</bpm>
<rpm>0.00</rpm>
</extensions>
</trkpt>
<trkpt lat="63.769340515" lon="-20.269775391">
<ele>26.474121</ele>
<time>2012-07-27T11:47:28Z</time>
<speed>1.480000</speed>
<extensions>
<speed>1.5</speed>
<temp>0.00</temp>
<bpm>0</bpm>
<rpm>0.00</rpm>
</extensions>
</trkpt>
<trkpt lat="63.769397736" lon="-20.269922256">
<ele>26.682617</ele>
<time>2012-07-27T11:47:33Z</time>
<speed>2.390000</speed>
<extensions>
<speed>2.4</speed>
<temp>0.00</temp>
<bpm>0</bpm>
<rpm>0.00</rpm>
</extensions>
</trkpt>
<trkpt lat="63.769493103" lon="-20.270133972">
<ele>26.400391</ele>
<time>2012-07-27T11:47:38Z</time>
<speed>3.230000</speed>
<extensions>
<speed>3.2</speed>
<temp>0.00</temp>
<bpm>0</bpm>
<rpm>0.00</rpm>
</extensions>
</trkpt>
<trkpt lat="63.769611359" lon="-20.270376205">
<ele>26.124512</ele>
<time>2012-07-27T11:47:43Z</time>
<speed>3.660000</speed>
<extensions>
<speed>3.7</speed>
<temp>0.00</temp>
<bpm>0</bpm>
<rpm>0.00</rpm>
</extensions>
</trkpt>
<trkpt lat="63.769702911" lon="-20.270593643">
<ele>25.974609</ele>
<time>2012-07-27T11:47:48Z</time>
<speed>0.980000</speed>
<extensions>
<speed>1.0</speed>
<temp>0.00</temp>
<bpm>0</bpm>
<rpm>0.00</rpm>
</extensions>
</trkpt>
<trkpt lat="63.769699097" lon="-20.270641327">
<ele>24.666504</ele>
<time>2012-07-27T11:47:53Z</time>
<speed>0.040000</speed>
<extensions>
<speed>0.0</speed>
<temp>0.00</temp>
<bpm>0</bpm>
<rpm>0.00</rpm>
</extensions>
</trkpt>
<trkpt lat="63.769699097" lon="-20.270641327">
<ele>24.666992</ele>
<time>2012-07-27T11:47:58Z</time>
<speed>0.040000</speed>
<extensions>
<speed>0.0</speed>
<temp>0.00</temp>
<bpm>0</bpm>
<rpm>0.00</rpm>
</extensions>
</trkpt>
<trkpt lat="63.769699097" lon="-20.270635605">
<ele>24.802734</ele>
<time>2012-07-27T11:48:03Z</time>
<speed>0.180000</speed>
<extensions>
<speed>0.2</speed>
<temp>0.00</temp>
<bpm>0</bpm>
<rpm>0.00</rpm>
</extensions>
</trkpt>
<trkpt lat="63.769706726" lon="-20.270618439">
<ele>24.932129</ele>
<time>2012-07-27T11:48:08Z</time>
<speed>0.530000</speed>
<extensions>
<speed>0.5</speed>
<temp>0.00</temp>
<bpm>0</bpm>
<rpm>0.00</rpm>
</extensions>
</trkpt>
<trkpt lat="63.769721985" lon="-20.270614624">
<ele>25.151855</ele>
<time>2012-07-27T11:48:13Z</time>
<speed>0.130000</speed>
<extensions>
<speed>0.1</speed>
<temp>0.00</temp>
<bpm>0</bpm>
<rpm>0.00</rpm>
</extensions>
</trkpt>
<trkpt lat="63.769725800" lon="-20.270610809">
<ele>25.275879</ele>
<time>2012-07-27T11:48:18Z</time>
<speed>0.060000</speed>
<extensions>
<speed>0.1</speed>
<temp>0.00</temp>
<bpm>0</bpm>
<rpm>0.00</rpm>
</extensions>
</trkpt>
<trkpt lat="63.769721985" lon="-20.270608902">
<ele>25.468262</ele>
<time>2012-07-27T11:48:23Z</time>
<speed>0.030000</speed>
<extensions>
<speed>0.0</speed>
<temp>0.00</temp>
<bpm>0</bpm>
<rpm>0.00</rpm>
</extensions>
</trkpt>
<trkpt lat="63.769721985" lon="-20.270608902">
<ele>25.597656</ele>
<time>2012-07-27T11:48:28Z</time>
<speed>0.060000</speed>
<extensions>
<speed>0.1</speed>
<temp>0.00</temp>
<bpm>0</bpm>
<rpm>0.00</rpm>
</extensions>
</trkpt>
<trkpt lat="63.769721985" lon="-20.270606995">
<ele>25.678223</ele>
<time>2012-07-27T11:48:33Z</time>
<speed>0.010000</speed>
<extensions>
<speed>0.0</speed>
<temp>0.00</temp>
<bpm>0</bpm>
<rpm>0.00</rpm>
</extensions>
</trkpt>
<trkpt lat="63.769721985" lon="-20.270608902">
<ele>25.666016</ele>
<time>2012-07-27T11:48:38Z</time>
<speed>0.040000</speed>
<extensions>
<speed>0.0</speed>
<temp>0.00</temp>
<bpm>0</bpm>
<rpm>0.00</rpm>
</extensions>
</trkpt>
<trkpt lat="63.769718170" lon="-20.270605087">
<ele>25.718750</ele>
<time>2012-07-27T11:48:43Z</time>
<speed>0.010000</speed>
<extensions>
<speed>0.0</speed>
<temp>0.00</temp>
<bpm>0</bpm>
<rpm>0.00</rpm>
</extensions>
</trkpt>
<trkpt lat="63.769718170" lon="-20.270605087">
<ele>25.758789</ele>
<time>2012-07-27T11:48:48Z</time>
<speed>0.010000</speed>
<extensions>
<speed>0.0</speed>
<temp>0.00</temp>
<bpm>0</bpm>
<rpm>0.00</rpm>
</extensions>
</trkpt>
<trkpt lat="63.769718170" lon="-20.270605087">
<ele>25.768555</ele>
<time>2012-07-27T11:48:53Z</time>
<extensions>
<speed>0.0</speed>
<temp>0.00</temp>
<bpm>0</bpm>
<rpm>0.00</rpm>
</extensions>
</trkpt>
<trkpt lat="63.769718170" lon="-20.270605087">
<ele>25.758789</ele>
<time>2012-07-27T11:48:58Z</time>
<extensions>
<speed>0.0</speed>
<temp>0.00</temp>
<bpm>0</bpm>
<rpm>0.00</rpm>
</extensions>
</trkpt>
<trkpt lat="63.769718170" lon="-20.270605087">
<ele>25.760254</ele>
<time>2012-07-27T11:49:03Z</time>
<extensions>
<speed>0.0</speed>
<temp>0.00</temp>
<bpm>0</bpm>
<rpm>0.00</rpm>
</extensions>
</trkpt>
<trkpt lat="63.769721985" lon="-20.270605087">
<ele>25.741211</ele>
<time>2012-07-27T11:49:08Z</time>
<speed>0.030000</speed>
<extensions>
<speed>0.0</speed>
<temp>0.00</temp>
<bpm>0</bpm>
<rpm>0.00</rpm>
</extensions>
</trkpt>
<trkpt lat="63.769721985" lon="-20.270605087">
<ele>25.764648</ele>
<time>2012-07-27T11:49:13Z</time>
<extensions>
<speed>0.0</speed>
<temp>0.00</temp>
<bpm>0</bpm>
<rpm>0.00</rpm>
</extensions>
</trkpt>
<trkpt lat="63.769718170" lon="-20.270605087">
<ele>25.784180</ele>
<time>2012-07-27T11:49:18Z</time>
<speed>0.020000</speed>
<extensions>
<speed>0.0</speed>
<temp>0.00</temp>
<bpm>0</bpm>
<rpm>0.00</rpm>
</extensions>
</trkpt>
<trkpt lat="63.769718170" lon="-20.270606995">
<ele>25.773438</ele>
<time>2012-07-27T11:49:23Z</time>
<speed>0.020000</speed>
<extensions>
<speed>0.0</speed>
<temp>0.00</temp>
<bpm>0</bpm>
<rpm>0.00</rpm>
</extensions>
</trkpt>
<trkpt lat="63.769718170" lon="-20.270605087">
<ele>25.782715</ele>
<time>2012-07-27T11:49:28Z</time>
<extensions>
<speed>0.0</speed>
<temp>0.00</temp>
<bpm>0</bpm>
<rpm>0.00</rpm>
</extensions>
</trkpt>
<trkpt lat="63.769718170" lon="-20.270605087">
<ele>25.790527</ele>
<time>2012-07-27T11:49:33Z</time>
<extensions>
<speed>0.0</speed>
<temp>0.00</temp>
<bpm>0</bpm>
<rpm>0.00</rpm>
</extensions>
</trkpt>
<trkpt lat="63.769718170" lon="-20.270605087">
<ele>25.793945</ele>
<time>2012-07-27T11:49:38Z</time>
<extensions>
<speed>0.0</speed>
<temp>0.00</temp>
<bpm>0</bpm>
<rpm>0.00</rpm>
</extensions>
</trkpt>
<trkpt lat="63.769718170" lon="-20.270605087">
<ele>25.793457</ele>
<time>2012-07-27T11:49:43Z</time>
<extensions>
<speed>0.0</speed>
<temp>0.00</temp>
<bpm>0</bpm>
<rpm>0.00</rpm>
</extensions>
</trkpt>
<trkpt lat="63.769718170" lon="-20.270605087">
<ele>25.795898</ele>
<time>2012-07-27T11:49:48Z</time>
<speed>0.020000</speed>
<extensions>
<speed>0.0</speed>
<temp>0.00</temp>
<bpm>0</bpm>
<rpm>0.00</rpm>
</extensions>
</trkpt>
<trkpt lat="63.769718170" lon="-20.270605087">
<ele>25.801270</ele>
<time>2012-07-27T11:49:53Z</time>
<extensions>
<speed>0.0</speed>
<temp>0.00</temp>
<bpm>0</bpm>
<rpm>0.00</rpm>
</extensions>
</trkpt>
<trkpt lat="63.769718170" lon="-20.270603180">
<ele>25.801758</ele>
<time>2012-07-27T11:49:58Z</time>
<extensions>
<speed>0.0</speed>
<temp>0.00</temp>
<bpm>0</bpm>
<rpm>0.00</rpm>
</extensions>
</trkpt>
<trkpt lat="63.769718170" lon="-20.270603180">
<ele>25.804199</ele>
<time>2012-07-27T11:50:03Z</time>
<speed>0.010000</speed>
<extensions>
<speed>0.0</speed>
<temp>0.00</temp>
<bpm>0</bpm>
<rpm>0.00</rpm>
</extensions>
</trkpt>
<trkpt lat="63.769718170" lon="-20.270603180">
<ele>25.810547</ele>
<time>2012-07-27T11:50:08Z</time>
<speed>0.010000</speed>
<extensions>
<speed>0.0</speed>
<temp>0.00</temp>
<bpm>0</bpm>
<rpm>0.00</rpm>
</extensions>
</trkpt>
<trkpt lat="63.769718170" lon="-20.270603180">
<ele>25.812500</ele>
<time>2012-07-27T11:50:13Z</time>
<speed>0.010000</speed>
<extensions>
<speed>0.0</speed>
<temp>0.00</temp>
<bpm>0</bpm>
<rpm>0.00</rpm>
</extensions>
</trkpt>
<trkpt lat="63.769718170" lon="-20.270603180">
<ele>25.820313</ele>
<time>2012-07-27T11:50:18Z</time>
<extensions>
<speed>0.0</speed>
<temp>0.00</temp>
<bpm>0</bpm>
<rpm>0.00</rpm>
</extensions>
</trkpt>
<trkpt lat="63.769718170" lon="-20.270603180">
<ele>25.827637</ele>
<time>2012-07-27T11:50:23Z</time>
<speed>0.010000</speed>
<extensions>
<speed>0.0</speed>
<temp>0.00</temp>
<bpm>0</bpm>
<rpm>0.00</rpm>
</extensions>
</trkpt>
<trkpt lat="63.769718170" lon="-20.270603180">
<ele>25.835938</ele>
<time>2012-07-27T11:50:28Z</time>
<speed>0.010000</speed>
<extensions>
<speed>0.0</speed>
<temp>0.00</temp>
<bpm>0</bpm>
<rpm>0.00</rpm>
</extensions>
</trkpt>
<trkpt lat="63.769718170" lon="-20.270603180">
<ele>25.832031</ele>
<time>2012-07-27T11:50:33Z</time>
<extensions>
<speed>0.0</speed>
<temp>0.00</temp>
<bpm>0</bpm>
<rpm>0.00</rpm>
</extensions>
</trkpt>
<trkpt lat="63.769718170" lon="-20.270603180">
<ele>25.827637</ele>
<time>2012-07-27T11:50:38Z</time>
<extensions>
<speed>0.0</speed>
<temp>0.00</temp>
<bpm>0</bpm>
<rpm>0.00</rpm>
</extensions>
</trkpt>
<trkpt lat="63.769718170" lon="-20.270603180">
<ele>25.831055</ele>
<time>2012-07-27T11:50:43Z</time>
<speed>0.010000</speed>
<extensions>
<speed>0.0</speed>
<temp>0.00</temp>
<bpm>0</bpm>
<rpm>0.00</rpm>
</extensions>
</trkpt>
<trkpt lat="63.769718170" lon="-20.270603180">
<ele>25.826172</ele>
<time>2012-07-27T11:50:48Z</time>
<extensions>
<speed>0.0</speed>
<temp>0.00</temp>
<bpm>0</bpm>
<rpm>0.00</rpm>
</extensions>
</trkpt>
<trkpt lat="63.769718170" lon="-20.270603180">
<ele>25.815430</ele>
<time>2012-07-27T11:50:53Z</time>
<speed>0.010000</speed>
<extensions>
<speed>0.0</speed>
<temp>0.00</temp>
<bpm>0</bpm>
<rpm>0.00</rpm>
</extensions>
</trkpt>
<trkpt lat="63.769718170" lon="-20.270603180">
<ele>25.796875</ele>
<time>2012-07-27T11:50:58Z</time>
<extensions>
<speed>0.0</speed>
<temp>0.00</temp>
<bpm>0</bpm>
<rpm>0.00</rpm>
</extensions>
</trkpt>
<trkpt lat="63.769718170" lon="-20.270603180">
<ele>25.782227</ele>
<time>2012-07-27T11:51:03Z</time>
<extensions>
<speed>0.0</speed>
<temp>0.00</temp>
<bpm>0</bpm>
<rpm>0.00</rpm>
</extensions>
</trkpt>
<trkpt lat="63.769718170" lon="-20.270603180">
<ele>25.761719</ele>
<time>2012-07-27T11:51:08Z</time>
<extensions>
<speed>0.0</speed>
<temp>0.00</temp>
<bpm>0</bpm>
<rpm>0.00</rpm>
</extensions>
</trkpt>
<trkpt lat="63.769718170" lon="-20.270603180">
<ele>25.732910</ele>
<time>2012-07-27T11:51:13Z</time>
<extensions>
<speed>0.0</speed>
<temp>0.00</temp>
<bpm>0</bpm>
<rpm>0.00</rpm>
</extensions>
</trkpt>
<trkpt lat="63.769718170" lon="-20.270603180">
<ele>25.712402</ele>
<time>2012-07-27T11:51:18Z</time>
<extensions>
<speed>0.0</speed>
<temp>0.00</temp>
<bpm>0</bpm>
<rpm>0.00</rpm>
</extensions>
</trkpt>
<trkpt lat="63.769718170" lon="-20.270603180">
<ele>25.698730</ele>
<time>2012-07-27T11:51:23Z</time>
<extensions>
<speed>0.0</speed>
<temp>0.00</temp>
<bpm>0</bpm>
<rpm>0.00</rpm>
</extensions>
</trkpt>
<trkpt lat="63.769718170" lon="-20.270603180">
<ele>25.704102</ele>
<time>2012-07-27T11:51:28Z</time>
<extensions>
<speed>0.0</speed>
<temp>0.00</temp>
<bpm>0</bpm>
<rpm>0.00</rpm>
</extensions>
</trkpt>
<trkpt lat="63.769718170" lon="-20.270603180">
<ele>25.706055</ele>
<time>2012-07-27T11:51:33Z</time>
<extensions>
<speed>0.0</speed>
<temp>0.00</temp>
<bpm>0</bpm>
<rpm>0.00</rpm>
</extensions>
</trkpt>
<trkpt lat="63.769718170" lon="-20.270603180">
<ele>25.706543</ele>
<time>2012-07-27T11:51:38Z</time>
<speed>0.010000</speed>
<extensions>
<speed>0.0</speed>
<temp>0.00</temp>
<bpm>0</bpm>
<rpm>0.00</rpm>
</extensions>
</trkpt>
<trkpt lat="63.769718170" lon="-20.270603180">
<ele>25.707031</ele>
<time>2012-07-27T11:51:43Z</time>
<speed>0.010000</speed>
<extensions>
<speed>0.0</speed>
<temp>0.00</temp>
<bpm>0</bpm>
<rpm>0.00</rpm>
</extensions>
</trkpt>
<trkpt lat="63.769718170" lon="-20.270603180">
<ele>25.711426</ele>
<time>2012-07-27T11:51:48Z</time>
<speed>0.010000</speed>
<extensions>
<speed>0.0</speed>
<temp>0.00</temp>
<bpm>0</bpm>
<rpm>0.00</rpm>
</extensions>
</trkpt>
<trkpt lat="63.769718170" lon="-20.270603180">
<ele>25.715332</ele>
<time>2012-07-27T11:51:53Z</time>
<extensions>
<speed>0.0</speed>
<temp>0.00</temp>
<bpm>0</bpm>
<rpm>0.00</rpm>
</extensions>
</trkpt>
<trkpt lat="63.769718170" lon="-20.270603180">
<ele>25.717285</ele>
<time>2012-07-27T11:51:58Z</time>
<extensions>
<speed>0.0</speed>
<temp>0.00</temp>
<bpm>0</bpm>
<rpm>0.00</rpm>
</extensions>
</trkpt>
<trkpt lat="63.769718170" lon="-20.270601273">
<ele>25.721191</ele>
<time>2012-07-27T11:52:03Z</time>
<extensions>
<speed>0.0</speed>
<temp>0.00</temp>
<bpm>0</bpm>
<rpm>0.00</rpm>
</extensions>
</trkpt>
<trkpt lat="63.769718170" lon="-20.270601273">
<ele>25.725098</ele>
<time>2012-07-27T11:52:08Z</time>
<extensions>
<speed>0.0</speed>
<temp>0.00</temp>
<bpm>0</bpm>
<rpm>0.00</rpm>
</extensions>
</trkpt>
<trkpt lat="63.769718170" lon="-20.270601273">
<ele>25.733398</ele>
<time>2012-07-27T11:52:13Z</time>
<speed>0.290000</speed>
<extensions>
<speed>0.3</speed>
<temp>0.00</temp>
<bpm>0</bpm>
<rpm>0.00</rpm>
</extensions>
</trkpt>
<trkpt lat="63.769718170" lon="-20.270601273">
<ele>25.733887</ele>
<time>2012-07-27T11:52:18Z</time>
<extensions>
<speed>0.0</speed>
<temp>0.00</temp>
<bpm>0</bpm>
<rpm>0.00</rpm>
</extensions>
</trkpt>
<trkpt lat="63.769718170" lon="-20.270601273">
<ele>25.737305</ele>
<time>2012-07-27T11:52:23Z</time>
<extensions>
<speed>0.0</speed>
<temp>0.00</temp>
<bpm>0</bpm>
<rpm>0.00</rpm>
</extensions>
</trkpt>
<trkpt lat="63.769718170" lon="-20.270599365">
<ele>25.744629</ele>
<time>2012-07-27T11:52:28Z</time>
<extensions>
<speed>0.0</speed>
<temp>0.00</temp>
<bpm>0</bpm>
<rpm>0.00</rpm>
</extensions>
</trkpt>
<trkpt lat="63.769718170" lon="-20.270599365">
<ele>25.745117</ele>
<time>2012-07-27T11:52:33Z</time>
<extensions>
<speed>0.0</speed>
<temp>0.00</temp>
<bpm>0</bpm>
<rpm>0.00</rpm>
</extensions>
</trkpt>
<trkpt lat="63.769718170" lon="-20.270599365">
<ele>25.744629</ele>
<time>2012-07-27T11:52:38Z</time>
<extensions>
<speed>0.0</speed>
<temp>0.00</temp>
<bpm>0</bpm>
<rpm>0.00</rpm>
</extensions>
</trkpt>
<trkpt lat="63.769718170" lon="-20.270599365">
<ele>25.744141</ele>
<time>2012-07-27T11:52:43Z</time>
<extensions>
<speed>0.0</speed>
<temp>0.00</temp>
<bpm>0</bpm>
<rpm>0.00</rpm>
</extensions>
</trkpt>
<trkpt lat="63.769718170" lon="-20.270599365">
<ele>25.747559</ele>
<time>2012-07-27T11:52:48Z</time>
<extensions>
<speed>0.0</speed>
<temp>0.00</temp>
<bpm>0</bpm>
<rpm>0.00</rpm>
</extensions>
</trkpt>
<trkpt lat="63.769718170" lon="-20.270599365">
<ele>25.752930</ele>
<time>2012-07-27T11:52:53Z</time>
<extensions>
<speed>0.0</speed>
<temp>0.00</temp>
<bpm>0</bpm>
<rpm>0.00</rpm>
</extensions>
</trkpt>
<trkpt lat="63.769718170" lon="-20.270599365">
<ele>25.753906</ele>
<time>2012-07-27T11:52:58Z</time>
<extensions>
<speed>0.0</speed>
<temp>0.00</temp>
<bpm>0</bpm>
<rpm>0.00</rpm>
</extensions>
</trkpt>
<trkpt lat="63.769718170" lon="-20.270599365">
<ele>25.761230</ele>
<time>2012-07-27T11:53:03Z</time>
<extensions>
<speed>0.0</speed>
<temp>0.00</temp>
<bpm>0</bpm>
<rpm>0.00</rpm>
</extensions>
</trkpt>
<trkpt lat="63.769718170" lon="-20.270599365">
<ele>25.759277</ele>
<time>2012-07-27T11:53:08Z</time>
<extensions>
<speed>0.0</speed>
<temp>0.00</temp>
<bpm>0</bpm>
<rpm>0.00</rpm>
</extensions>
</trkpt>
<trkpt lat="63.769718170" lon="-20.270599365">
<ele>25.760742</ele>
<time>2012-07-27T11:53:13Z</time>
<extensions>
<speed>0.0</speed>
<temp>0.00</temp>
<bpm>0</bpm>
<rpm>0.00</rpm>
</extensions>
</trkpt>
<trkpt lat="63.769718170" lon="-20.270599365">
<ele>25.760254</ele>
<time>2012-07-27T11:53:18Z</time>
<extensions>
<speed>0.0</speed>
<temp>0.00</temp>
<bpm>0</bpm>
<rpm>0.00</rpm>
</extensions>
</trkpt>
<trkpt lat="63.769718170" lon="-20.270599365">
<ele>25.764648</ele>
<time>2012-07-27T11:53:23Z</time>
<extensions>
<speed>0.0</speed>
<temp>0.00</temp>
<bpm>0</bpm>
<rpm>0.00</rpm>
</extensions>
</trkpt>
<trkpt lat="63.769718170" lon="-20.270599365">
<ele>25.772461</ele>
<time>2012-07-27T11:53:28Z</time>
<extensions>
<speed>0.0</speed>
<temp>0.00</temp>
<bpm>0</bpm>
<rpm>0.00</rpm>
</extensions>
</trkpt>
<trkpt lat="63.769718170" lon="-20.270599365">
<ele>25.774902</ele>
<time>2012-07-27T11:53:33Z</time>
<extensions>
<speed>0.0</speed>
<temp>0.00</temp>
<bpm>0</bpm>
<rpm>0.00</rpm>
</extensions>
</trkpt>
<trkpt lat="63.769718170" lon="-20.270597458">
<ele>25.772949</ele>
<time>2012-07-27T11:53:38Z</time>
<extensions>
<speed>0.0</speed>
<temp>0.00</temp>
<bpm>0</bpm>
<rpm>0.00</rpm>
</extensions>
</trkpt>
<trkpt lat="63.769718170" lon="-20.270597458">
<ele>25.777832</ele>
<time>2012-07-27T11:53:43Z</time>
<extensions>
<speed>0.0</speed>
<temp>0.00</temp>
<bpm>0</bpm>
<rpm>0.00</rpm>
</extensions>
</trkpt>
<trkpt lat="63.769718170" lon="-20.270597458">
<ele>25.777832</ele>
<time>2012-07-27T11:53:48Z</time>
<extensions>
<speed>0.0</speed>
<temp>0.00</temp>
<bpm>0</bpm>
<rpm>0.00</rpm>
</extensions>
</trkpt>
<trkpt lat="63.769718170" lon="-20.270597458">
<ele>25.782227</ele>
<time>2012-07-27T11:53:53Z</time>
<extensions>
<speed>0.0</speed>
<temp>0.00</temp>
<bpm>0</bpm>
<rpm>0.00</rpm>
</extensions>
</trkpt>
<trkpt lat="63.769718170" lon="-20.270597458">
<ele>25.843262</ele>
<time>2012-07-27T11:53:58Z</time>
<speed>0.320000</speed>
<extensions>
<speed>0.3</speed>
<temp>0.00</temp>
<bpm>0</bpm>
<rpm>0.00</rpm>
</extensions>
</trkpt>
<trkpt lat="63.769729614" lon="-20.270593643">
<ele>26.386719</ele>
<time>2012-07-27T11:54:03Z</time>
<speed>0.170000</speed>
<extensions>
<speed>0.2</speed>
<temp>0.00</temp>
<bpm>0</bpm>
<rpm>0.00</rpm>
</extensions>
</trkpt>
<trkpt lat="63.769733429" lon="-20.270593643">
<ele>26.713867</ele>
<time>2012-07-27T11:54:08Z</time>
<speed>0.070000</speed>
<extensions>
<speed>0.1</speed>
<temp>0.00</temp>
<bpm>0</bpm>
<rpm>0.00</rpm>
</extensions>
</trkpt>
<trkpt lat="63.769737244" lon="-20.270593643">
<ele>27.080078</ele>
<time>2012-07-27T11:54:13Z</time>
<speed>0.020000</speed>
<extensions>
<speed>0.0</speed>
<temp>0.00</temp>
<bpm>0</bpm>
<rpm>0.00</rpm>
</extensions>
</trkpt>
<trkpt lat="63.769737244" lon="-20.270593643">
<ele>27.477051</ele>
<time>2012-07-27T11:54:18Z</time>
<speed>0.010000</speed>
<extensions>
<speed>0.0</speed>
<temp>0.00</temp>
<bpm>0</bpm>
<rpm>0.00</rpm>
</extensions>
</trkpt>
<trkpt lat="63.769737244" lon="-20.270593643">
<ele>27.918945</ele>
<time>2012-07-27T11:54:23Z</time>
<speed>0.020000</speed>
<extensions>
<speed>0.0</speed>
<temp>0.00</temp>
<bpm>0</bpm>
<rpm>0.00</rpm>
</extensions>
</trkpt>
<trkpt lat="63.769741058" lon="-20.270591736">
<ele>28.459473</ele>
<time>2012-07-27T11:54:28Z</time>
<speed>0.010000</speed>
<extensions>
<speed>0.0</speed>
<temp>0.00</temp>
<bpm>0</bpm>
<rpm>0.00</rpm>
</extensions>
</trkpt>
<trkpt lat="63.769741058" lon="-20.270589828">
<ele>29.086426</ele>
<time>2012-07-27T11:54:33Z</time>
<speed>0.020000</speed>
<extensions>
<speed>0.0</speed>
<temp>0.00</temp>
<bpm>0</bpm>
<rpm>0.00</rpm>
</extensions>
</trkpt>
<trkpt lat="63.769741058" lon="-20.270589828">
<ele>29.788574</ele>
<time>2012-07-27T11:54:38Z</time>
<speed>0.020000</speed>
<extensions>
<speed>0.0</speed>
<temp>0.00</temp>
<bpm>0</bpm>
<rpm>0.00</rpm>
</extensions>
</trkpt>
<trkpt lat="63.769741058" lon="-20.270586014">
<ele>30.563477</ele>
<time>2012-07-27T11:54:43Z</time>
<speed>0.040000</speed>
<extensions>
<speed>0.0</speed>
<temp>0.00</temp>
<bpm>0</bpm>
<rpm>0.00</rpm>
</extensions>
</trkpt>
<trkpt lat="63.769737244" lon="-20.270582199">
<ele>31.469727</ele>
<time>2012-07-27T11:54:48Z</time>
<speed>0.090000</speed>
<extensions>
<speed>0.1</speed>
<temp>0.00</temp>
<bpm>0</bpm>
<rpm>0.00</rpm>
</extensions>
</trkpt>
<trkpt lat="63.769733429" lon="-20.270576477">
<ele>32.433594</ele>
<time>2012-07-27T11:54:53Z</time>
<speed>0.060000</speed>
<extensions>
<speed>0.1</speed>
<temp>0.00</temp>
<bpm>0</bpm>
<rpm>0.00</rpm>
</extensions>
</trkpt>
<trkpt lat="63.769733429" lon="-20.270572662">
<ele>33.407227</ele>
<time>2012-07-27T11:54:58Z</time>
<speed>0.050000</speed>
<extensions>
<speed>0.1</speed>
<temp>0.00</temp>
<bpm>0</bpm>
<rpm>0.00</rpm>
</extensions>
</trkpt>
<trkpt lat="63.769729614" lon="-20.270568848">
<ele>34.367188</ele>
<time>2012-07-27T11:55:03Z</time>
<speed>0.040000</speed>
<extensions>
<speed>0.0</speed>
<temp>0.00</temp>
<bpm>0</bpm>
<rpm>0.00</rpm>
</extensions>
</trkpt>
<trkpt lat="63.769729614" lon="-20.270566940">
<ele>35.324219</ele>
<time>2012-07-27T11:55:08Z</time>
<speed>0.020000</speed>
<extensions>
<speed>0.0</speed>
<temp>0.00</temp>
<bpm>0</bpm>
<rpm>0.00</rpm>
</extensions>
</trkpt>
<trkpt lat="63.769729614" lon="-20.270563126">
<ele>36.353516</ele>
<time>2012-07-27T11:55:13Z</time>
<speed>0.070000</speed>
<extensions>
<speed>0.1</speed>
<temp>0.00</temp>
<bpm>0</bpm>
<rpm>0.00</rpm>
</extensions>
</trkpt>
<trkpt lat="63.769733429" lon="-20.270559311">
<ele>37.348633</ele>
<time>2012-07-27T11:55:18Z</time>
<speed>0.050000</speed>
<extensions>
<speed>0.1</speed>
<temp>0.00</temp>
<bpm>0</bpm>
<rpm>0.00</rpm>
</extensions>
</trkpt>
<trkpt lat="63.769733429" lon="-20.270555496">
<ele>38.300781</ele>
<time>2012-07-27T11:55:23Z</time>
<speed>0.050000</speed>
<extensions>
<speed>0.1</speed>
<temp>0.00</temp>
<bpm>0</bpm>
<rpm>0.00</rpm>
</extensions>
</trkpt>
<trkpt lat="63.769733429" lon="-20.270553589">
<ele>39.236328</ele>
<time>2012-07-27T11:55:28Z</time>
<speed>0.040000</speed>
<extensions>
<speed>0.0</speed>
<temp>0.00</temp>
<bpm>0</bpm>
<rpm>0.00</rpm>
</extensions>
</trkpt>
<trkpt lat="63.769733429" lon="-20.270549774">
<ele>40.091797</ele>
<time>2012-07-27T11:55:33Z</time>
<speed>0.040000</speed>
<extensions>
<speed>0.0</speed>
<temp>0.00</temp>
<bpm>0</bpm>
<rpm>0.00</rpm>
</extensions>
</trkpt>
<trkpt lat="63.769733429" lon="-20.270547867">
<ele>40.838867</ele>
<time>2012-07-27T11:55:38Z</time>
<speed>0.020000</speed>
<extensions>
<speed>0.0</speed>
<temp>0.00</temp>
<bpm>0</bpm>
<rpm>0.00</rpm>
</extensions>
</trkpt>
<trkpt lat="63.769733429" lon="-20.270547867">
<ele>41.600586</ele>
<time>2012-07-27T11:55:43Z</time>
<speed>0.030000</speed>
<extensions>
<speed>0.0</speed>
<temp>0.00</temp>
<bpm>0</bpm>
<rpm>0.00</rpm>
</extensions>
</trkpt>
<trkpt lat="63.769733429" lon="-20.270544052">
<ele>42.333984</ele>
<time>2012-07-27T11:55:48Z</time>
<speed>0.060000</speed>
<extensions>
<speed>0.1</speed>
<temp>0.00</temp>
<bpm>0</bpm>
<rpm>0.00</rpm>
</extensions>
</trkpt>
<trkpt lat="63.769733429" lon="-20.270542145">
<ele>42.708008</ele>
<time>2012-07-27T11:55:53Z</time>
<speed>0.030000</speed>
<extensions>
<speed>0.0</speed>
<temp>0.00</temp>
<bpm>0</bpm>
<rpm>0.00</rpm>
</extensions>
</trkpt>
<trkpt lat="63.769733429" lon="-20.270540237">
<ele>42.789063</ele>
<time>2012-07-27T11:55:58Z</time>
<speed>0.010000</speed>
<extensions>
<speed>0.0</speed>
<temp>0.00</temp>
<bpm>0</bpm>
<rpm>0.00</rpm>
</extensions>
</trkpt>
<trkpt lat="63.769733429" lon="-20.270540237">
<ele>42.727539</ele>
<time>2012-07-27T11:56:03Z</time>
<extensions>
<speed>0.0</speed>
<temp>0.00</temp>
<bpm>0</bpm>
<rpm>0.00</rpm>
</extensions>
</trkpt>
<trkpt lat="63.769733429" lon="-20.270540237">
<ele>42.681641</ele>
<time>2012-07-27T11:56:08Z</time>
<extensions>
<speed>0.0</speed>
<temp>0.00</temp>
<bpm>0</bpm>
<rpm>0.00</rpm>
</extensions>
</trkpt>
<trkpt lat="63.769733429" lon="-20.270542145">
<ele>42.653320</ele>
<time>2012-07-27T11:56:13Z</time>
<speed>0.060000</speed>
<extensions>
<speed>0.1</speed>
<temp>0.00</temp>
<bpm>0</bpm>
<rpm>0.00</rpm>
</extensions>
</trkpt>
<trkpt lat="63.769733429" lon="-20.270540237">
<ele>42.568359</ele>
<time>2012-07-27T11:56:18Z</time>
<speed>0.010000</speed>
<extensions>
<speed>0.0</speed>
<temp>0.00</temp>
<bpm>0</bpm>
<rpm>0.00</rpm>
</extensions>
</trkpt>
<trkpt lat="63.769733429" lon="-20.270540237">
<ele>42.541016</ele>
<time>2012-07-27T11:56:23Z</time>
<speed>0.010000</speed>
<extensions>
<speed>0.0</speed>
<temp>0.00</temp>
<bpm>0</bpm>
<rpm>0.00</rpm>
</extensions>
</trkpt>
<trkpt lat="63.769733429" lon="-20.270540237">
<ele>42.463867</ele>
<time>2012-07-27T11:56:28Z</time>
<speed>0.010000</speed>
<extensions>
<speed>0.0</speed>
<temp>0.00</temp>
<bpm>0</bpm>
<rpm>0.00</rpm>
</extensions>
</trkpt>
<trkpt lat="63.769733429" lon="-20.270542145">
<ele>42.455078</ele>
<time>2012-07-27T11:56:33Z</time>
<speed>0.030000</speed>
<extensions>
<speed>0.0</speed>
<temp>0.00</temp>
<bpm>0</bpm>
<rpm>0.00</rpm>
</extensions>
</trkpt>
<trkpt lat="63.769733429" lon="-20.270542145">
<ele>42.453125</ele>
<time>2012-07-27T11:56:38Z</time>
<speed>0.010000</speed>
<extensions>
<speed>0.0</speed>
<temp>0.00</temp>
<bpm>0</bpm>
<rpm>0.00</rpm>
</extensions>
</trkpt>
<trkpt lat="63.769729614" lon="-20.270534515">
<ele>42.597656</ele>
<time>2012-07-27T11:56:43Z</time>
<speed>0.060000</speed>
<extensions>
<speed>0.1</speed>
<temp>0.00</temp>
<bpm>0</bpm>
<rpm>0.00</rpm>
</extensions>
</trkpt>
<trkpt lat="63.769721985" lon="-20.270528793">
<ele>42.458984</ele>
<time>2012-07-27T11:56:48Z</time>
<speed>0.030000</speed>
<extensions>
<speed>0.0</speed>
<temp>0.00</temp>
<bpm>0</bpm>
<rpm>0.00</rpm>
</extensions>
</trkpt>
<trkpt lat="63.769721985" lon="-20.270528793">
<ele>42.452148</ele>
<time>2012-07-27T11:56:53Z</time>
<speed>0.020000</speed>
<extensions>
<speed>0.0</speed>
<temp>0.00</temp>
<bpm>0</bpm>
<rpm>0.00</rpm>
</extensions>
</trkpt>
<trkpt lat="63.769721985" lon="-20.270528793">
<ele>42.456055</ele>
<time>2012-07-27T11:56:58Z</time>
<speed>0.020000</speed>
<extensions>
<speed>0.0</speed>
<temp>0.00</temp>
<bpm>0</bpm>
<rpm>0.00</rpm>
</extensions>
</trkpt>
<trkpt lat="63.769721985" lon="-20.270528793">
<ele>42.467773</ele>
<time>2012-07-27T11:57:03Z</time>
<extensions>
<speed>0.0</speed>
<temp>0.00</temp>
<bpm>0</bpm>
<rpm>0.00</rpm>
</extensions>
</trkpt>
<trkpt lat="63.769721985" lon="-20.270528793">
<ele>42.475586</ele>
<time>2012-07-27T11:57:08Z</time>
<speed>0.010000</speed>
<extensions>
<speed>0.0</speed>
<temp>0.00</temp>
<bpm>0</bpm>
<rpm>0.00</rpm>
</extensions>
</trkpt>
<trkpt lat="63.769721985" lon="-20.270528793">
<ele>42.488281</ele>
<time>2012-07-27T11:57:13Z</time>
<speed>0.010000</speed>
<extensions>
<speed>0.0</speed>
<temp>0.00</temp>
<bpm>0</bpm>
<rpm>0.00</rpm>
</extensions>
</trkpt>
<trkpt lat="63.769721985" lon="-20.270528793">
<ele>42.485352</ele>
<time>2012-07-27T11:57:18Z</time>
<extensions>
<speed>0.0</speed>
<temp>0.00</temp>
<bpm>0</bpm>
<rpm>0.00</rpm>
</extensions>
</trkpt>
<trkpt lat="63.769721985" lon="-20.270528793">
<ele>42.530273</ele>
<time>2012-07-27T11:57:23Z</time>
<extensions>
<speed>0.0</speed>
<temp>0.00</temp>
<bpm>0</bpm>
<rpm>0.00</rpm>
</extensions>
</trkpt>
<trkpt lat="63.769721985" lon="-20.270528793">
<ele>42.527344</ele>
<time>2012-07-27T11:57:28Z</time>
<speed>0.010000</speed>
<extensions>
<speed>0.0</speed>
<temp>0.00</temp>
<bpm>0</bpm>
<rpm>0.00</rpm>
</extensions>
</trkpt>
<trkpt lat="63.769721985" lon="-20.270530701">
<ele>42.518555</ele>
<time>2012-07-27T11:57:33Z</time>
<speed>0.020000</speed>
<extensions>
<speed>0.0</speed>
<temp>0.00</temp>
<bpm>0</bpm>
<rpm>0.00</rpm>
</extensions>
</trkpt>
<trkpt lat="63.769721985" lon="-20.270530701">
<ele>42.505859</ele>
<time>2012-07-27T11:57:38Z</time>
<speed>0.020000</speed>
<extensions>
<speed>0.0</speed>
<temp>0.00</temp>
<bpm>0</bpm>
<rpm>0.00</rpm>
</extensions>
</trkpt>
<trkpt lat="63.769725800" lon="-20.270526886">
<ele>42.381836</ele>
<time>2012-07-27T11:57:43Z</time>
<speed>0.040000</speed>
<extensions>
<speed>0.0</speed>
<temp>0.00</temp>
<bpm>0</bpm>
<rpm>0.00</rpm>
</extensions>
</trkpt>
<trkpt lat="63.769725800" lon="-20.270526886">
<ele>42.395508</ele>
<time>2012-07-27T11:57:48Z</time>
<extensions>
<speed>0.0</speed>
<temp>0.00</temp>
<bpm>0</bpm>
<rpm>0.00</rpm>
</extensions>
</trkpt>
<trkpt lat="63.769725800" lon="-20.270526886">
<ele>42.387695</ele>
<time>2012-07-27T11:57:53Z</time>
<extensions>
<speed>0.0</speed>
<temp>0.00</temp>
<bpm>0</bpm>
<rpm>0.00</rpm>
</extensions>
</trkpt>
<trkpt lat="63.769725800" lon="-20.270526886">
<ele>42.376953</ele>
<time>2012-07-27T11:57:58Z</time>
<extensions>
<speed>0.0</speed>
<temp>0.00</temp>
<bpm>0</bpm>
<rpm>0.00</rpm>
</extensions>
</trkpt>
<trkpt lat="63.769725800" lon="-20.270526886">
<ele>42.363281</ele>
<time>2012-07-27T11:58:03Z</time>
<extensions>
<speed>0.0</speed>
<temp>0.00</temp>
<bpm>0</bpm>
<rpm>0.00</rpm>
</extensions>
</trkpt>
<trkpt lat="63.769725800" lon="-20.270526886">
<ele>42.401367</ele>
<time>2012-07-27T11:58:08Z</time>
<speed>0.180000</speed>
<extensions>
<speed>0.2</speed>
<temp>0.00</temp>
<bpm>0</bpm>
<rpm>0.00</rpm>
</extensions>
</trkpt>
<trkpt lat="63.769725800" lon="-20.270572662">
<ele>41.497070</ele>
<time>2012-07-27T11:58:13Z</time>
<speed>0.860000</speed>
<extensions>
<speed>0.9</speed>
<temp>0.00</temp>
<bpm>0</bpm>
<rpm>0.00</rpm>
</extensions>
</trkpt>
<trkpt lat="63.769721985" lon="-20.270631790">
<ele>40.621094</ele>
<time>2012-07-27T11:58:18Z</time>
<speed>0.060000</speed>
<extensions>
<speed>0.1</speed>
<temp>0.00</temp>
<bpm>0</bpm>
<rpm>0.00</rpm>
</extensions>
</trkpt>
<trkpt lat="63.769767761" lon="-20.270719528">
<ele>39.851563</ele>
<time>2012-07-27T11:58:23Z</time>
<speed>1.350000</speed>
<extensions>
<speed>1.4</speed>
<temp>0.00</temp>
<bpm>0</bpm>
<rpm>0.00</rpm>
</extensions>
</trkpt>
<trkpt lat="63.769783020" lon="-20.270740509">
<ele>39.071289</ele>
<time>2012-07-27T11:58:28Z</time>
<speed>0.030000</speed>
<extensions>
<speed>0.0</speed>
<temp>0.00</temp>
<bpm>0</bpm>
<rpm>0.00</rpm>
</extensions>
</trkpt>
<trkpt lat="63.769802094" lon="-20.270763397">
<ele>38.713867</ele>
<time>2012-07-27T11:58:33Z</time>
<speed>1.480000</speed>
<extensions>
<speed>1.5</speed>
<temp>0.00</temp>
<bpm>0</bpm>
<rpm>0.00</rpm>
</extensions>
</trkpt>
<trkpt lat="63.769886017" lon="-20.270904541">
<ele>37.731445</ele>
<time>2012-07-27T11:58:38Z</time>
<speed>2.320000</speed>
<extensions>
<speed>2.3</speed>
<temp>0.00</temp>
<bpm>0</bpm>
<rpm>0.00</rpm>
</extensions>
</trkpt>
<trkpt lat="63.769969940" lon="-20.271080017">
<ele>37.126953</ele>
<time>2012-07-27T11:58:43Z</time>
<speed>2.660000</speed>
<extensions>
<speed>2.7</speed>
<temp>0.00</temp>
<bpm>0</bpm>
<rpm>0.00</rpm>
</extensions>
</trkpt>
<trkpt lat="63.770061493" lon="-20.271249771">
<ele>37.001953</ele>
<time>2012-07-27T11:58:48Z</time>
<speed>2.750000</speed>
<extensions>
<speed>2.7</speed>
<temp>0.00</temp>
<bpm>0</bpm>
<rpm>0.00</rpm>
</extensions>
</trkpt>
<trkpt lat="63.770153046" lon="-20.271425247">
<ele>36.483398</ele>
<time>2012-07-27T11:58:53Z</time>
<speed>2.770000</speed>
<extensions>
<speed>2.8</speed>
<temp>0.00</temp>
<bpm>0</bpm>
<rpm>0.00</rpm>
</extensions>
</trkpt>
<trkpt lat="63.770244598" lon="-20.271608353">
<ele>36.100586</ele>
<time>2012-07-27T11:58:58Z</time>
<speed>2.720000</speed>
<extensions>
<speed>2.7</speed>
<temp>0.00</temp>
<bpm>0</bpm>
<rpm>0.00</rpm>
</extensions>
</trkpt>
<trkpt lat="63.770339966" lon="-20.271800995">
<ele>35.800781</ele>
<time>2012-07-27T11:59:03Z</time>
<speed>3.170000</speed>
<extensions>
<speed>3.2</speed>
<temp>0.00</temp>
<bpm>0</bpm>
<rpm>0.00</rpm>
</extensions>
</trkpt>
<trkpt lat="63.770458221" lon="-20.272045135">
<ele>35.906250</ele>
<time>2012-07-27T11:59:08Z</time>
<speed>3.820000</speed>
<extensions>
<speed>3.8</speed>
<temp>0.00</temp>
<bpm>0</bpm>
<rpm>0.00</rpm>
</extensions>
</trkpt>
<trkpt lat="63.770587921" lon="-20.272300720">
<ele>35.985352</ele>
<time>2012-07-27T11:59:13Z</time>
<speed>3.630000</speed>
<extensions>
<speed>3.6</speed>
<temp>0.00</temp>
<bpm>0</bpm>
<rpm>0.00</rpm>
</extensions>
</trkpt>
<trkpt lat="63.770694733" lon="-20.272516251">
<ele>35.804688</ele>
<time>2012-07-27T11:59:18Z</time>
<speed>2.700000</speed>
<extensions>
<speed>2.7</speed>
<temp>0.00</temp>
<bpm>0</bpm>
<rpm>0.00</rpm>
</extensions>
</trkpt>
<trkpt lat="63.770771027" lon="-20.272684097">
<ele>35.953125</ele>
<time>2012-07-27T11:59:23Z</time>
<speed>2.300000</speed>
<extensions>
<speed>2.3</speed>
<temp>0.00</temp>
<bpm>0</bpm>
<rpm>0.00</rpm>
</extensions>
</trkpt>
<trkpt lat="63.770866394" lon="-20.272861481">
<ele>36.448242</ele>
<time>2012-07-27T11:59:28Z</time>
<speed>2.720000</speed>
<extensions>
<speed>2.7</speed>
<temp>0.00</temp>
<bpm>0</bpm>
<rpm>0.00</rpm>
</extensions>
</trkpt>
<trkpt lat="63.770973206" lon="-20.273052216">
<ele>36.587891</ele>
<time>2012-07-27T11:59:33Z</time>
<speed>3.440000</speed>
<extensions>
<speed>3.4</speed>
<temp>0.00</temp>
<bpm>0</bpm>
<rpm>0.00</rpm>
</extensions>
</trkpt>
<trkpt lat="63.771091461" lon="-20.273273468">
<ele>36.804688</ele>
<time>2012-07-27T11:59:38Z</time>
<speed>3.100000</speed>
<extensions>
<speed>3.1</speed>
<temp>0.00</temp>
<bpm>0</bpm>
<rpm>0.00</rpm>
</extensions>
</trkpt>
<trkpt lat="63.771183014" lon="-20.273452759">
<ele>36.868164</ele>
<time>2012-07-27T11:59:43Z</time>
<speed>2.050000</speed>
<extensions>
<speed>2.1</speed>
<temp>0.00</temp>
<bpm>0</bpm>
<rpm>0.00</rpm>
</extensions>
</trkpt>
<trkpt lat="63.771186829" lon="-20.273488998">
<ele>37.089844</ele>
<time>2012-07-27T11:59:48Z</time>
<speed>0.030000</speed>
<extensions>
<speed>0.0</speed>
<temp>0.00</temp>
<bpm>0</bpm>
<rpm>0.00</rpm>
</extensions>
</trkpt>
<trkpt lat="63.771186829" lon="-20.273488998">
<ele>37.050781</ele>
<time>2012-07-27T11:59:53Z</time>
<extensions>
<speed>0.0</speed>
<temp>0.00</temp>
<bpm>0</bpm>
<rpm>0.00</rpm>
</extensions>
</trkpt>
<trkpt lat="63.771186829" lon="-20.273490906">
<ele>37.013672</ele>
<time>2012-07-27T11:59:58Z</time>
<speed>0.220000</speed>
<extensions>
<speed>0.2</speed>
<temp>0.00</temp>
<bpm>0</bpm>
<rpm>0.00</rpm>
</extensions>
</trkpt>
<trkpt lat="63.771190643" lon="-20.273490906">
<ele>36.957031</ele>
<time>2012-07-27T12:00:03Z</time>
<speed>0.080000</speed>
<extensions>
<speed>0.1</speed>
<temp>0.00</temp>
<bpm>0</bpm>
<rpm>0.00</rpm>
</extensions>
</trkpt>
<trkpt lat="63.771190643" lon="-20.273490906">
<ele>36.824219</ele>
<time>2012-07-27T12:00:08Z</time>
<speed>0.010000</speed>
<extensions>
<speed>0.0</speed>
<temp>0.00</temp>
<bpm>0</bpm>
<rpm>0.00</rpm>
</extensions>
</trkpt>
<trkpt lat="63.771190643" lon="-20.273494720">
<ele>36.770508</ele>
<time>2012-07-27T12:00:13Z</time>
<speed>0.070000</speed>
<extensions>
<speed>0.1</speed>
<temp>0.00</temp>
<bpm>0</bpm>
<rpm>0.00</rpm>
</extensions>
</trkpt>
<trkpt lat="63.771190643" lon="-20.273492813">
<ele>36.773438</ele>
<time>2012-07-27T12:00:18Z</time>
<speed>0.030000</speed>
<extensions>
<speed>0.0</speed>
<temp>0.00</temp>
<bpm>0</bpm>
<rpm>0.00</rpm>
</extensions>
</trkpt>
<trkpt lat="63.771186829" lon="-20.273488998">
<ele>36.886719</ele>
<time>2012-07-27T12:00:23Z</time>
<extensions>
<speed>0.0</speed>
<temp>0.00</temp>
<bpm>0</bpm>
<rpm>0.00</rpm>
</extensions>
</trkpt>
<trkpt lat="63.771186829" lon="-20.273488998">
<ele>36.886719</ele>
<time>2012-07-27T12:00:28Z</time>
<extensions>
<speed>0.0</speed>
<temp>0.00</temp>
<bpm>0</bpm>
<rpm>0.00</rpm>
</extensions>
</trkpt>
<trkpt lat="63.771186829" lon="-20.273488998">
<ele>36.886719</ele>
<time>2012-07-27T12:00:33Z</time>
<speed>0.030000</speed>
<extensions>
<speed>0.0</speed>
<temp>0.00</temp>
<bpm>0</bpm>
<rpm>0.00</rpm>
</extensions>
</trkpt>
<trkpt lat="63.771186829" lon="-20.273483276">
<ele>37.922852</ele>
<time>2012-07-27T12:00:38Z</time>
<speed>0.010000</speed>
<extensions>
<speed>0.0</speed>
<temp>0.00</temp>
<bpm>0</bpm>
<rpm>0.00</rpm>
</extensions>
</trkpt>
<trkpt lat="63.771186829" lon="-20.273483276">
<ele>37.954102</ele>
<time>2012-07-27T12:00:43Z</time>
<speed>0.010000</speed>
<extensions>
<speed>0.0</speed>
<temp>0.00</temp>
<bpm>0</bpm>
<rpm>0.00</rpm>
</extensions>
</trkpt>
<trkpt lat="63.771186829" lon="-20.273483276">
<ele>37.959961</ele>
<time>2012-07-27T12:00:48Z</time>
<speed>0.020000</speed>
<extensions>
<speed>0.0</speed>
<temp>0.00</temp>
<bpm>0</bpm>
<rpm>0.00</rpm>
</extensions>
</trkpt>
<trkpt lat="63.771194458" lon="-20.273494720">
<ele>38.227539</ele>
<time>2012-07-27T12:00:53Z</time>
<speed>0.730000</speed>
<extensions>
<speed>0.7</speed>
<temp>0.00</temp>
<bpm>0</bpm>
<rpm>0.00</rpm>
</extensions>
</trkpt>
<trkpt lat="63.771236420" lon="-20.273599625">
<ele>37.996094</ele>
<time>2012-07-27T12:00:58Z</time>
<speed>2.370000</speed>
<extensions>
<speed>2.4</speed>
<temp>0.00</temp>
<bpm>0</bpm>
<rpm>0.00</rpm>
</extensions>
</trkpt>
<trkpt lat="63.771350861" lon="-20.273777008">
<ele>38.181641</ele>
<time>2012-07-27T12:01:03Z</time>
<speed>3.570000</speed>
<extensions>
<speed>3.6</speed>
<temp>0.00</temp>
<bpm>0</bpm>
<rpm>0.00</rpm>
</extensions>
</trkpt>
<trkpt lat="63.771495819" lon="-20.274030685">
<ele>38.471680</ele>
<time>2012-07-27T12:01:08Z</time>
<speed>4.240000</speed>
<extensions>
<speed>4.2</speed>
<temp>0.00</temp>
<bpm>0</bpm>
<rpm>0.00</rpm>
</extensions>
</trkpt>
<trkpt lat="63.771656036" lon="-20.274293900">
<ele>38.622070</ele>
<time>2012-07-27T12:01:13Z</time>
<speed>4.420000</speed>
<extensions>
<speed>4.4</speed>
<temp>0.00</temp>
<bpm>0</bpm>
<rpm>0.00</rpm>
</extensions>
</trkpt>
<trkpt lat="63.771816254" lon="-20.274555206">
<ele>38.435547</ele>
<time>2012-07-27T12:01:18Z</time>
<speed>4.360000</speed>
<extensions>
<speed>4.4</speed>
<temp>0.00</temp>
<bpm>0</bpm>
<rpm>0.00</rpm>
</extensions>
</trkpt>
<trkpt lat="63.771968842" lon="-20.274799347">
<ele>38.400391</ele>
<time>2012-07-27T12:01:23Z</time>
<speed>3.920000</speed>
<extensions>
<speed>3.9</speed>
<temp>0.00</temp>
<bpm>0</bpm>
<rpm>0.00</rpm>
</extensions>
</trkpt>
<trkpt lat="63.772117615" lon="-20.275045395">
<ele>38.348633</ele>
<time>2012-07-27T12:01:28Z</time>
<speed>4.320000</speed>
<extensions>
<speed>4.3</speed>
<temp>0.00</temp>
<bpm>0</bpm>
<rpm>0.00</rpm>
</extensions>
</trkpt>
<trkpt lat="63.772270203" lon="-20.275285721">
<ele>38.093750</ele>
<time>2012-07-27T12:01:33Z</time>
<speed>4.120000</speed>
<extensions>
<speed>4.1</speed>
<temp>0.00</temp>
<bpm>0</bpm>
<rpm>0.00</rpm>
</extensions>
</trkpt>
<trkpt lat="63.772441864" lon="-20.275535583">
<ele>38.743164</ele>
<time>2012-07-27T12:01:38Z</time>
<speed>4.630000</speed>
<extensions>
<speed>4.6</speed>
<temp>0.00</temp>
<bpm>0</bpm>
<rpm>0.00</rpm>
</extensions>
</trkpt>
<trkpt lat="63.772621155" lon="-20.275787354">
<ele>39.185547</ele>
<time>2012-07-27T12:01:43Z</time>
<speed>4.560000</speed>
<extensions>
<speed>4.6</speed>
<temp>0.00</temp>
<bpm>0</bpm>
<rpm>0.00</rpm>
</extensions>
</trkpt>
<trkpt lat="63.772792816" lon="-20.276029587">
<ele>39.112305</ele>
<time>2012-07-27T12:01:48Z</time>
<speed>4.610000</speed>
<extensions>
<speed>4.6</speed>
<temp>0.00</temp>
<bpm>0</bpm>
<rpm>0.00</rpm>
</extensions>
</trkpt>
<trkpt lat="63.772979736" lon="-20.276287079">
<ele>39.371094</ele>
<time>2012-07-27T12:01:53Z</time>
<speed>4.760000</speed>
<extensions>
<speed>4.8</speed>
<temp>0.00</temp>
<bpm>0</bpm>
<rpm>0.00</rpm>
</extensions>
</trkpt>
<trkpt lat="63.773166656" lon="-20.276504517">
<ele>39.478516</ele>
<time>2012-07-27T12:01:58Z</time>
<speed>4.630000</speed>
<extensions>
<speed>4.6</speed>
<temp>0.00</temp>
<bpm>0</bpm>
<rpm>0.00</rpm>
</extensions>
</trkpt>
<trkpt lat="63.773349762" lon="-20.276750565">
<ele>39.557617</ele>
<time>2012-07-27T12:02:03Z</time>
<speed>4.760000</speed>
<extensions>
<speed>4.8</speed>
<temp>0.00</temp>
<bpm>0</bpm>
<rpm>0.00</rpm>
</extensions>
</trkpt>
<trkpt lat="63.773540497" lon="-20.276983261">
<ele>39.198242</ele>
<time>2012-07-27T12:02:08Z</time>
<speed>4.920000</speed>
<extensions>
<speed>4.9</speed>
<temp>0.00</temp>
<bpm>0</bpm>
<rpm>0.00</rpm>
</extensions>
</trkpt>
<trkpt lat="63.773742676" lon="-20.277212143">
<ele>38.773438</ele>
<time>2012-07-27T12:02:13Z</time>
<speed>5.180000</speed>
<extensions>
<speed>5.2</speed>
<temp>0.00</temp>
<bpm>0</bpm>
<rpm>0.00</rpm>
</extensions>
</trkpt>
<trkpt lat="63.773963928" lon="-20.277477264">
<ele>38.141602</ele>
<time>2012-07-27T12:02:18Z</time>
<speed>5.700000</speed>
<extensions>
<speed>5.7</speed>
<temp>0.00</temp>
<bpm>0</bpm>
<rpm>0.00</rpm>
</extensions>
</trkpt>
<trkpt lat="63.774196625" lon="-20.277769089">
<ele>37.171875</ele>
<time>2012-07-27T12:02:23Z</time>
<speed>5.980000</speed>
<extensions>
<speed>6.0</speed>
<temp>0.00</temp>
<bpm>0</bpm>
<rpm>0.00</rpm>
</extensions>
</trkpt>
<trkpt lat="63.774436951" lon="-20.278064728">
<ele>36.241211</ele>
<time>2012-07-27T12:02:28Z</time>
<speed>6.240000</speed>
<extensions>
<speed>6.2</speed>
<temp>0.00</temp>
<bpm>0</bpm>
<rpm>0.00</rpm>
</extensions>
</trkpt>
<trkpt lat="63.774700165" lon="-20.278388977">
<ele>35.033203</ele>
<time>2012-07-27T12:02:33Z</time>
<speed>6.910000</speed>
<extensions>
<speed>6.9</speed>
<temp>0.00</temp>
<bpm>0</bpm>
<rpm>0.00</rpm>
</extensions>
</trkpt>
<trkpt lat="63.774982452" lon="-20.278717041">
<ele>33.862305</ele>
<time>2012-07-27T12:02:38Z</time>
<speed>7.240000</speed>
<extensions>
<speed>7.2</speed>
<temp>0.00</temp>
<bpm>0</bpm>
<rpm>0.00</rpm>
</extensions>
</trkpt>
<trkpt lat="63.775276184" lon="-20.279079437">
<ele>32.824219</ele>
<time>2012-07-27T12:02:43Z</time>
<speed>7.480000</speed>
<extensions>
<speed>7.5</speed>
<temp>0.00</temp>
<bpm>0</bpm>
<rpm>0.00</rpm>
</extensions>
</trkpt>
<trkpt lat="63.775577545" lon="-20.279430389">
<ele>31.479980</ele>
<time>2012-07-27T12:02:48Z</time>
<speed>7.680000</speed>
<extensions>
<speed>7.7</speed>
<temp>0.00</temp>
<bpm>0</bpm>
<rpm>0.00</rpm>
</extensions>
</trkpt>
<trkpt lat="63.775878906" lon="-20.279802322">
<ele>30.264160</ele>
<time>2012-07-27T12:02:53Z</time>
<speed>7.500000</speed>
<extensions>
<speed>7.5</speed>
<temp>0.00</temp>
<bpm>0</bpm>
<rpm>0.00</rpm>
</extensions>
</trkpt>
<trkpt lat="63.776172638" lon="-20.280170441">
<ele>29.568359</ele>
<time>2012-07-27T12:02:58Z</time>
<speed>7.510000</speed>
<extensions>
<speed>7.5</speed>
<temp>0.00</temp>
<bpm>0</bpm>
<rpm>0.00</rpm>
</extensions>
</trkpt>
<trkpt lat="63.776473999" lon="-20.280506134">
<ele>28.778809</ele>
<time>2012-07-27T12:03:03Z</time>
<speed>7.370000</speed>
<extensions>
<speed>7.4</speed>
<temp>0.00</temp>
<bpm>0</bpm>
<rpm>0.00</rpm>
</extensions>
</trkpt>
<trkpt lat="63.776763916" lon="-20.280849457">
<ele>28.391113</ele>
<time>2012-07-27T12:03:08Z</time>
<speed>7.090000</speed>
<extensions>
<speed>7.1</speed>
<temp>0.00</temp>
<bpm>0</bpm>
<rpm>0.00</rpm>
</extensions>
</trkpt>
<trkpt lat="63.777027130" lon="-20.281162262">
<ele>27.818359</ele>
<time>2012-07-27T12:03:13Z</time>
<speed>6.640000</speed>
<extensions>
<speed>6.6</speed>
<temp>0.00</temp>
<bpm>0</bpm>
<rpm>0.00</rpm>
</extensions>
</trkpt>
<trkpt lat="63.777290344" lon="-20.281471252">
<ele>27.373535</ele>
<time>2012-07-27T12:03:18Z</time>
<speed>6.410000</speed>
<extensions>
<speed>6.4</speed>
<temp>0.00</temp>
<bpm>0</bpm>
<rpm>0.00</rpm>
</extensions>
</trkpt>
<trkpt lat="63.777542114" lon="-20.281795502">
<ele>27.236328</ele>
<time>2012-07-27T12:03:23Z</time>
<speed>6.340000</speed>
<extensions>
<speed>6.3</speed>
<temp>0.00</temp>
<bpm>0</bpm>
<rpm>0.00</rpm>
</extensions>
</trkpt>
<trkpt lat="63.777786255" lon="-20.282085419">
<ele>27.566406</ele>
<time>2012-07-27T12:03:28Z</time>
<speed>5.960000</speed>
<extensions>
<speed>6.0</speed>
<temp>0.00</temp>
<bpm>0</bpm>
<rpm>0.00</rpm>
</extensions>
</trkpt>
<trkpt lat="63.778015137" lon="-20.282358170">
<ele>28.035156</ele>
<time>2012-07-27T12:03:33Z</time>
<speed>5.700000</speed>
<extensions>
<speed>5.7</speed>
<temp>0.00</temp>
<bpm>0</bpm>
<rpm>0.00</rpm>
</extensions>
</trkpt>
<trkpt lat="63.778232574" lon="-20.282617569">
<ele>28.239258</ele>
<time>2012-07-27T12:03:38Z</time>
<speed>5.200000</speed>
<extensions>
<speed>5.2</speed>
<temp>0.00</temp>
<bpm>0</bpm>
<rpm>0.00</rpm>
</extensions>
</trkpt>
<trkpt lat="63.778434753" lon="-20.282838821">
<ele>28.901367</ele>
<time>2012-07-27T12:03:43Z</time>
<speed>5.120000</speed>
<extensions>
<speed>5.1</speed>
<temp>0.00</temp>
<bpm>0</bpm>
<rpm>0.00</rpm>
</extensions>
</trkpt>
<trkpt lat="63.778640747" lon="-20.283069611">
<ele>29.696289</ele>
<time>2012-07-27T12:03:48Z</time>
<speed>5.150000</speed>
<extensions>
<speed>5.2</speed>
<temp>0.00</temp>
<bpm>0</bpm>
<rpm>0.00</rpm>
</extensions>
</trkpt>
<trkpt lat="63.778842926" lon="-20.283323288">
<ele>29.928223</ele>
<time>2012-07-27T12:03:53Z</time>
<speed>5.170000</speed>
<extensions>
<speed>5.2</speed>
<temp>0.00</temp>
<bpm>0</bpm>
<rpm>0.00</rpm>
</extensions>
</trkpt>
<trkpt lat="63.779033661" lon="-20.283582687">
<ele>30.540527</ele>
<time>2012-07-27T12:03:58Z</time>
<speed>4.840000</speed>
<extensions>
<speed>4.8</speed>
<temp>0.00</temp>
<bpm>0</bpm>
<rpm>0.00</rpm>
</extensions>
</trkpt>
<trkpt lat="63.779220581" lon="-20.283826828">
<ele>30.939453</ele>
<time>2012-07-27T12:04:03Z</time>
<speed>4.470000</speed>
<extensions>
<speed>4.5</speed>
<temp>0.00</temp>
<bpm>0</bpm>
<rpm>0.00</rpm>
</extensions>
</trkpt>
<trkpt lat="63.779396057" lon="-20.284049988">
<ele>31.075684</ele>
<time>2012-07-27T12:04:08Z</time>
<speed>4.640000</speed>
<extensions>
<speed>4.6</speed>
<temp>0.00</temp>
<bpm>0</bpm>
<rpm>0.00</rpm>
</extensions>
</trkpt>
<trkpt lat="63.779575348" lon="-20.284290314">
<ele>31.217773</ele>
<time>2012-07-27T12:04:13Z</time>
<speed>4.640000</speed>
<extensions>
<speed>4.6</speed>
<temp>0.00</temp>
<bpm>0</bpm>
<rpm>0.00</rpm>
</extensions>
</trkpt>
<trkpt lat="63.779747009" lon="-20.284524918">
<ele>31.674805</ele>
<time>2012-07-27T12:04:18Z</time>
<speed>4.380000</speed>
<extensions>
<speed>4.4</speed>
<temp>0.00</temp>
<bpm>0</bpm>
<rpm>0.00</rpm>
</extensions>
</trkpt>
<trkpt lat="63.779907227" lon="-20.284757614">
<ele>31.880371</ele>
<time>2012-07-27T12:04:23Z</time>
<speed>4.180000</speed>
<extensions>
<speed>4.2</speed>
<temp>0.00</temp>
<bpm>0</bpm>
<rpm>0.00</rpm>
</extensions>
</trkpt>
<trkpt lat="63.780056000" lon="-20.284986496">
<ele>32.036133</ele>
<time>2012-07-27T12:04:28Z</time>
<speed>4.080000</speed>
<extensions>
<speed>4.1</speed>
<temp>0.00</temp>
<bpm>0</bpm>
<rpm>0.00</rpm>
</extensions>
</trkpt>
<trkpt lat="63.780204773" lon="-20.285202026">
<ele>32.466797</ele>
<time>2012-07-27T12:04:33Z</time>
<speed>3.430000</speed>
<extensions>
<speed>3.4</speed>
<temp>0.00</temp>
<bpm>0</bpm>
<rpm>0.00</rpm>
</extensions>
</trkpt>
<trkpt lat="63.780326843" lon="-20.285358429">
<ele>32.809570</ele>
<time>2012-07-27T12:04:38Z</time>
<speed>2.960000</speed>
<extensions>
<speed>3.0</speed>
<temp>0.00</temp>
<bpm>0</bpm>
<rpm>0.00</rpm>
</extensions>
</trkpt>
<trkpt lat="63.780437469" lon="-20.285503387">
<ele>32.619141</ele>
<time>2012-07-27T12:04:43Z</time>
<speed>3.090000</speed>
<extensions>
<speed>3.1</speed>
<temp>0.00</temp>
<bpm>0</bpm>
<rpm>0.00</rpm>
</extensions>
</trkpt>
<trkpt lat="63.780559540" lon="-20.285699844">
<ele>32.665039</ele>
<time>2012-07-27T12:04:48Z</time>
<speed>3.630000</speed>
<extensions>
<speed>3.6</speed>
<temp>0.00</temp>
<bpm>0</bpm>
<rpm>0.00</rpm>
</extensions>
</trkpt>
<trkpt lat="63.780685425" lon="-20.285896301">
<ele>32.586914</ele>
<time>2012-07-27T12:04:53Z</time>
<speed>2.990000</speed>
<extensions>
<speed>3.0</speed>
<temp>0.00</temp>
<bpm>0</bpm>
<rpm>0.00</rpm>
</extensions>
</trkpt>
<trkpt lat="63.780792236" lon="-20.286060333">
<ele>32.491211</ele>
<time>2012-07-27T12:04:58Z</time>
<speed>3.190000</speed>
<extensions>
<speed>3.2</speed>
<temp>0.00</temp>
<bpm>0</bpm>
<rpm>0.00</rpm>
</extensions>
</trkpt>
<trkpt lat="63.780906677" lon="-20.286264420">
<ele>33.083008</ele>
<time>2012-07-27T12:05:03Z</time>
<speed>3.210000</speed>
<extensions>
<speed>3.2</speed>
<temp>0.00</temp>
<bpm>0</bpm>
<rpm>0.00</rpm>
</extensions>
</trkpt>
<trkpt lat="63.781040192" lon="-20.286468506">
<ele>33.521484</ele>
<time>2012-07-27T12:05:08Z</time>
<speed>3.550000</speed>
<extensions>
<speed>3.5</speed>
<temp>0.00</temp>
<bpm>0</bpm>
<rpm>0.00</rpm>
</extensions>
</trkpt>
<trkpt lat="63.781169891" lon="-20.286661148">
<ele>34.022461</ele>
<time>2012-07-27T12:05:13Z</time>
<speed>3.460000</speed>
<extensions>
<speed>3.5</speed>
<temp>0.00</temp>
<bpm>0</bpm>
<rpm>0.00</rpm>
</extensions>
</trkpt>
<trkpt lat="63.781299591" lon="-20.286886215">
<ele>34.345703</ele>
<time>2012-07-27T12:05:18Z</time>
<speed>3.620000</speed>
<extensions>
<speed>3.6</speed>
<temp>0.00</temp>
<bpm>0</bpm>
<rpm>0.00</rpm>
</extensions>
</trkpt>
<trkpt lat="63.781436920" lon="-20.287084579">
<ele>34.755859</ele>
<time>2012-07-27T12:05:23Z</time>
<speed>3.800000</speed>
<extensions>
<speed>3.8</speed>
<temp>0.00</temp>
<bpm>0</bpm>
<rpm>0.00</rpm>
</extensions>
</trkpt>
<trkpt lat="63.781581879" lon="-20.287284851">
<ele>34.900391</ele>
<time>2012-07-27T12:05:28Z</time>
<speed>3.710000</speed>
<extensions>
<speed>3.7</speed>
<temp>0.00</temp>
<bpm>0</bpm>
<rpm>0.00</rpm>
</extensions>
</trkpt>
<trkpt lat="63.781719208" lon="-20.287511826">
<ele>35.126953</ele>
<time>2012-07-27T12:05:33Z</time>
<speed>3.790000</speed>
<extensions>
<speed>3.8</speed>
<temp>0.00</temp>
<bpm>0</bpm>
<rpm>0.00</rpm>
</extensions>
</trkpt>
<trkpt lat="63.781856537" lon="-20.287721634">
<ele>35.333984</ele>
<time>2012-07-27T12:05:38Z</time>
<speed>3.730000</speed>
<extensions>
<speed>3.7</speed>
<temp>0.00</temp>
<bpm>0</bpm>
<rpm>0.00</rpm>
</extensions>
</trkpt>
<trkpt lat="63.781997681" lon="-20.287942886">
<ele>35.344727</ele>
<time>2012-07-27T12:05:43Z</time>
<speed>4.010000</speed>
<extensions>
<speed>4.0</speed>
<temp>0.00</temp>
<bpm>0</bpm>
<rpm>0.00</rpm>
</extensions>
</trkpt>
<trkpt lat="63.782146454" lon="-20.288185120">
<ele>35.613281</ele>
<time>2012-07-27T12:05:48Z</time>
<speed>3.990000</speed>
<extensions>
<speed>4.0</speed>
<temp>0.00</temp>
<bpm>0</bpm>
<rpm>0.00</rpm>
</extensions>
</trkpt>
<trkpt lat="63.782299042" lon="-20.288415909">
<ele>35.733398</ele>
<time>2012-07-27T12:05:53Z</time>
<speed>4.260000</speed>
<extensions>
<speed>4.3</speed>
<temp>0.00</temp>
<bpm>0</bpm>
<rpm>0.00</rpm>
</extensions>
</trkpt>
<trkpt lat="63.782463074" lon="-20.288642883">
<ele>35.696289</ele>
<time>2012-07-27T12:05:58Z</time>
<speed>4.180000</speed>
<extensions>
<speed>4.2</speed>
<temp>0.00</temp>
<bpm>0</bpm>
<rpm>0.00</rpm>
</extensions>
</trkpt>
<trkpt lat="63.782611847" lon="-20.288879395">
<ele>35.842773</ele>
<time>2012-07-27T12:06:03Z</time>
<speed>4.200000</speed>
<extensions>
<speed>4.2</speed>
<temp>0.00</temp>
<bpm>0</bpm>
<rpm>0.00</rpm>
</extensions>
</trkpt>
<trkpt lat="63.782775879" lon="-20.289121628">
<ele>36.174805</ele>
<time>2012-07-27T12:06:08Z</time>
<speed>4.270000</speed>
<extensions>
<speed>4.3</speed>
<temp>0.00</temp>
<bpm>0</bpm>
<rpm>0.00</rpm>
</extensions>
</trkpt>
<trkpt lat="63.782932281" lon="-20.289350510">
<ele>36.139648</ele>
<time>2012-07-27T12:06:13Z</time>
<speed>4.420000</speed>
<extensions>
<speed>4.4</speed>
<temp>0.00</temp>
<bpm>0</bpm>
<rpm>0.00</rpm>
</extensions>
</trkpt>
<trkpt lat="63.783103943" lon="-20.289598465">
<ele>36.109375</ele>
<time>2012-07-27T12:06:18Z</time>
<speed>4.380000</speed>
<extensions>
<speed>4.4</speed>
<temp>0.00</temp>
<bpm>0</bpm>
<rpm>0.00</rpm>
</extensions>
</trkpt>
<trkpt lat="63.783256531" lon="-20.289825439">
<ele>36.171875</ele>
<time>2012-07-27T12:06:23Z</time>
<speed>4.140000</speed>
<extensions>
<speed>4.1</speed>
<temp>0.00</temp>
<bpm>0</bpm>
<rpm>0.00</rpm>
</extensions>
</trkpt>
<trkpt lat="63.783409119" lon="-20.290060043">
<ele>36.353516</ele>
<time>2012-07-27T12:06:28Z</time>
<speed>4.090000</speed>
<extensions>
<speed>4.1</speed>
<temp>0.00</temp>
<bpm>0</bpm>
<rpm>0.00</rpm>
</extensions>
</trkpt>
<trkpt lat="63.783561707" lon="-20.290296555">
<ele>36.523438</ele>
<time>2012-07-27T12:06:33Z</time>
<speed>4.160000</speed>
<extensions>
<speed>4.2</speed>
<temp>0.00</temp>
<bpm>0</bpm>
<rpm>0.00</rpm>
</extensions>
</trkpt>
<trkpt lat="63.783725739" lon="-20.290546417">
<ele>36.454102</ele>
<time>2012-07-27T12:06:38Z</time>
<speed>4.460000</speed>
<extensions>
<speed>4.5</speed>
<temp>0.00</temp>
<bpm>0</bpm>
<rpm>0.00</rpm>
</extensions>
</trkpt>
<trkpt lat="63.783885956" lon="-20.290782928">
<ele>36.731445</ele>
<time>2012-07-27T12:06:43Z</time>
<speed>4.110000</speed>
<extensions>
<speed>4.1</speed>
<temp>0.00</temp>
<bpm>0</bpm>
<rpm>0.00</rpm>
</extensions>
</trkpt>
<trkpt lat="63.784038544" lon="-20.291013718">
<ele>36.403320</ele>
<time>2012-07-27T12:06:48Z</time>
<speed>4.220000</speed>
<extensions>
<speed>4.2</speed>
<temp>0.00</temp>
<bpm>0</bpm>
<rpm>0.00</rpm>
</extensions>
</trkpt>
<trkpt lat="63.784206390" lon="-20.291257858">
<ele>36.730469</ele>
<time>2012-07-27T12:06:53Z</time>
<speed>4.560000</speed>
<extensions>
<speed>4.6</speed>
<temp>0.00</temp>
<bpm>0</bpm>
<rpm>0.00</rpm>
</extensions>
</trkpt>
<trkpt lat="63.784381866" lon="-20.291513443">
<ele>36.201172</ele>
<time>2012-07-27T12:06:58Z</time>
<speed>4.690000</speed>
<extensions>
<speed>4.7</speed>
<temp>0.00</temp>
<bpm>0</bpm>
<rpm>0.00</rpm>
</extensions>
</trkpt>
<trkpt lat="63.784561157" lon="-20.291776657">
<ele>36.315430</ele>
<time>2012-07-27T12:07:03Z</time>
<speed>4.600000</speed>
<extensions>
<speed>4.6</speed>
<temp>0.00</temp>
<bpm>0</bpm>
<rpm>0.00</rpm>
</extensions>
</trkpt>
<trkpt lat="63.784736633" lon="-20.292047501">
<ele>36.438477</ele>
<time>2012-07-27T12:07:08Z</time>
<speed>4.550000</speed>
<extensions>
<speed>4.5</speed>
<temp>0.00</temp>
<bpm>0</bpm>
<rpm>0.00</rpm>
</extensions>
</trkpt>
<trkpt lat="63.784904480" lon="-20.292297363">
<ele>36.600586</ele>
<time>2012-07-27T12:07:13Z</time>
<speed>4.470000</speed>
<extensions>
<speed>4.5</speed>
<temp>0.00</temp>
<bpm>0</bpm>
<rpm>0.00</rpm>
</extensions>
</trkpt>
<trkpt lat="63.785057068" lon="-20.292537689">
<ele>36.571289</ele>
<time>2012-07-27T12:07:18Z</time>
<speed>3.950000</speed>
<extensions>
<speed>4.0</speed>
<temp>0.00</temp>
<bpm>0</bpm>
<rpm>0.00</rpm>
</extensions>
</trkpt>
<trkpt lat="63.785213470" lon="-20.292760849">
<ele>36.826172</ele>
<time>2012-07-27T12:07:23Z</time>
<speed>4.200000</speed>
<extensions>
<speed>4.2</speed>
<temp>0.00</temp>
<bpm>0</bpm>
<rpm>0.00</rpm>
</extensions>
</trkpt>
<trkpt lat="63.785362244" lon="-20.292984009">
<ele>36.668945</ele>
<time>2012-07-27T12:07:28Z</time>
<speed>3.890000</speed>
<extensions>
<speed>3.9</speed>
<temp>0.00</temp>
<bpm>0</bpm>
<rpm>0.00</rpm>
</extensions>
</trkpt>
<trkpt lat="63.785499573" lon="-20.293197632">
<ele>37.004883</ele>
<time>2012-07-27T12:07:33Z</time>
<speed>3.520000</speed>
<extensions>
<speed>3.5</speed>
<temp>0.00</temp>
<bpm>0</bpm>
<rpm>0.00</rpm>
</extensions>
</trkpt>
<trkpt lat="63.785621643" lon="-20.293386459">
<ele>37.184570</ele>
<time>2012-07-27T12:07:38Z</time>
<speed>3.670000</speed>
<extensions>
<speed>3.7</speed>
<temp>0.00</temp>
<bpm>0</bpm>
<rpm>0.00</rpm>
</extensions>
</trkpt>
<trkpt lat="63.785762787" lon="-20.293586731">
<ele>37.527344</ele>
<time>2012-07-27T12:07:43Z</time>
<speed>3.470000</speed>
<extensions>
<speed>3.5</speed>
<temp>0.00</temp>
<bpm>0</bpm>
<rpm>0.00</rpm>
</extensions>
</trkpt>
<trkpt lat="63.785869598" lon="-20.293756485">
<ele>38.008789</ele>
<time>2012-07-27T12:07:48Z</time>
<speed>2.880000</speed>
<extensions>
<speed>2.9</speed>
<temp>0.00</temp>
<bpm>0</bpm>
<rpm>0.00</rpm>
</extensions>
</trkpt>
<trkpt lat="63.785987854" lon="-20.293903351">
<ele>38.578125</ele>
<time>2012-07-27T12:07:53Z</time>
<speed>2.960000</speed>
<extensions>
<speed>3.0</speed>
<temp>0.00</temp>
<bpm>0</bpm>
<rpm>0.00</rpm>
</extensions>
</trkpt>
<trkpt lat="63.786106110" lon="-20.294084549">
<ele>39.091797</ele>
<time>2012-07-27T12:07:58Z</time>
<speed>3.260000</speed>
<extensions>
<speed>3.3</speed>
<temp>0.00</temp>
<bpm>0</bpm>
<rpm>0.00</rpm>
</extensions>
</trkpt>
<trkpt lat="63.786220551" lon="-20.294263840">
<ele>39.105469</ele>
<time>2012-07-27T12:08:03Z</time>
<speed>3.070000</speed>
<extensions>
<speed>3.1</speed>
<temp>0.00</temp>
<bpm>0</bpm>
<rpm>0.00</rpm>
</extensions>
</trkpt>
<trkpt lat="63.786346436" lon="-20.294462204">
<ele>39.424805</ele>
<time>2012-07-27T12:08:08Z</time>
<speed>3.330000</speed>
<extensions>
<speed>3.3</speed>
<temp>0.00</temp>
<bpm>0</bpm>
<rpm>0.00</rpm>
</extensions>
</trkpt>
<trkpt lat="63.786472321" lon="-20.294649124">
<ele>39.418945</ele>
<time>2012-07-27T12:08:13Z</time>
<speed>3.590000</speed>
<extensions>
<speed>3.6</speed>
<temp>0.00</temp>
<bpm>0</bpm>
<rpm>0.00</rpm>
</extensions>
</trkpt>
<trkpt lat="63.786613464" lon="-20.294862747">
<ele>39.429688</ele>
<time>2012-07-27T12:08:18Z</time>
<speed>3.790000</speed>
<extensions>
<speed>3.8</speed>
<temp>0.00</temp>
<bpm>0</bpm>
<rpm>0.00</rpm>
</extensions>
</trkpt>
<trkpt lat="63.786750793" lon="-20.295063019">
<ele>39.482422</ele>
<time>2012-07-27T12:08:23Z</time>
<speed>3.780000</speed>
<extensions>
<speed>3.8</speed>
<temp>0.00</temp>
<bpm>0</bpm>
<rpm>0.00</rpm>
</extensions>
</trkpt>
<trkpt lat="63.786891937" lon="-20.295278549">
<ele>39.225586</ele>
<time>2012-07-27T12:08:28Z</time>
<speed>3.740000</speed>
<extensions>
<speed>3.7</speed>
<temp>0.00</temp>
<bpm>0</bpm>
<rpm>0.00</rpm>
</extensions>
</trkpt>
<trkpt lat="63.787036896" lon="-20.295488358">
<ele>39.261719</ele>
<time>2012-07-27T12:08:33Z</time>
<speed>3.810000</speed>
<extensions>
<speed>3.8</speed>
<temp>0.00</temp>
<bpm>0</bpm>
<rpm>0.00</rpm>
</extensions>
</trkpt>
<trkpt lat="63.787193298" lon="-20.295719147">
<ele>39.458008</ele>
<time>2012-07-27T12:08:38Z</time>
<speed>4.360000</speed>
<extensions>
<speed>4.4</speed>
<temp>0.00</temp>
<bpm>0</bpm>
<rpm>0.00</rpm>
</extensions>
</trkpt>
<trkpt lat="63.787357330" lon="-20.295974731">
<ele>39.672852</ele>
<time>2012-07-27T12:08:43Z</time>
<speed>4.870000</speed>
<extensions>
<speed>4.9</speed>
<temp>0.00</temp>
<bpm>0</bpm>
<rpm>0.00</rpm>
</extensions>
</trkpt>
<trkpt lat="63.787551880" lon="-20.296268463">
<ele>39.706055</ele>
<time>2012-07-27T12:08:48Z</time>
<speed>5.270000</speed>
<extensions>
<speed>5.3</speed>
<temp>0.00</temp>
<bpm>0</bpm>
<rpm>0.00</rpm>
</extensions>
</trkpt>
<trkpt lat="63.787734985" lon="-20.296545029">
<ele>39.720703</ele>
<time>2012-07-27T12:08:53Z</time>
<speed>4.740000</speed>
<extensions>
<speed>4.7</speed>
<temp>0.00</temp>
<bpm>0</bpm>
<rpm>0.00</rpm>
</extensions>
</trkpt>
<trkpt lat="63.787899017" lon="-20.296787262">
<ele>39.555664</ele>
<time>2012-07-27T12:08:58Z</time>
<speed>4.410000</speed>
<extensions>
<speed>4.4</speed>
<temp>0.00</temp>
<bpm>0</bpm>
<rpm>0.00</rpm>
</extensions>
</trkpt>
<trkpt lat="63.788070679" lon="-20.297052383">
<ele>38.750977</ele>
<time>2012-07-27T12:09:03Z</time>
<speed>4.500000</speed>
<extensions>
<speed>4.5</speed>
<temp>0.00</temp>
<bpm>0</bpm>
<rpm>0.00</rpm>
</extensions>
</trkpt>
<trkpt lat="63.788234711" lon="-20.297294617">
<ele>38.705078</ele>
<time>2012-07-27T12:09:08Z</time>
<speed>4.420000</speed>
<extensions>
<speed>4.4</speed>
<temp>0.00</temp>
<bpm>0</bpm>
<rpm>0.00</rpm>
</extensions>
</trkpt>
<trkpt lat="63.788402557" lon="-20.297538757">
<ele>38.946289</ele>
<time>2012-07-27T12:09:13Z</time>
<speed>4.520000</speed>
<extensions>
<speed>4.5</speed>
<temp>0.00</temp>
<bpm>0</bpm>
<rpm>0.00</rpm>
</extensions>
</trkpt>
<trkpt lat="63.788574219" lon="-20.297811508">
<ele>38.693359</ele>
<time>2012-07-27T12:09:18Z</time>
<speed>4.570000</speed>
<extensions>
<speed>4.6</speed>
<temp>0.00</temp>
<bpm>0</bpm>
<rpm>0.00</rpm>
</extensions>
</trkpt>
<trkpt lat="63.788745880" lon="-20.298088074">
<ele>38.464844</ele>
<time>2012-07-27T12:09:23Z</time>
<speed>4.830000</speed>
<extensions>
<speed>4.8</speed>
<temp>0.00</temp>
<bpm>0</bpm>
<rpm>0.00</rpm>
</extensions>
</trkpt>
<trkpt lat="63.788928986" lon="-20.298351288">
<ele>38.409180</ele>
<time>2012-07-27T12:09:28Z</time>
<speed>4.610000</speed>
<extensions>
<speed>4.6</speed>
<temp>0.00</temp>
<bpm>0</bpm>
<rpm>0.00</rpm>
</extensions>
</trkpt>
<trkpt lat="63.789100647" lon="-20.298606873">
<ele>38.461914</ele>
<time>2012-07-27T12:09:33Z</time>
<speed>4.680000</speed>
<extensions>
<speed>4.7</speed>
<temp>0.00</temp>
<bpm>0</bpm>
<rpm>0.00</rpm>
</extensions>
</trkpt>
<trkpt lat="63.789276123" lon="-20.298866272">
<ele>38.572266</ele>
<time>2012-07-27T12:09:38Z</time>
<speed>4.700000</speed>
<extensions>
<speed>4.7</speed>
<temp>0.00</temp>
<bpm>0</bpm>
<rpm>0.00</rpm>
</extensions>
</trkpt>
<trkpt lat="63.789451599" lon="-20.299131393">
<ele>38.385742</ele>
<time>2012-07-27T12:09:43Z</time>
<speed>4.430000</speed>
<extensions>
<speed>4.4</speed>
<temp>0.00</temp>
<bpm>0</bpm>
<rpm>0.00</rpm>
</extensions>
</trkpt>
<trkpt lat="63.789615631" lon="-20.299371719">
<ele>38.502930</ele>
<time>2012-07-27T12:09:48Z</time>
<speed>4.320000</speed>
<extensions>
<speed>4.3</speed>
<temp>0.00</temp>
<bpm>0</bpm>
<rpm>0.00</rpm>
</extensions>
</trkpt>
<trkpt lat="63.789775848" lon="-20.299631119">
<ele>37.940430</ele>
<time>2012-07-27T12:09:53Z</time>
<speed>4.390000</speed>
<extensions>
<speed>4.4</speed>
<temp>0.00</temp>
<bpm>0</bpm>
<rpm>0.00</rpm>
</extensions>
</trkpt>
<trkpt lat="63.789943695" lon="-20.299903870">
<ele>37.241211</ele>
<time>2012-07-27T12:09:58Z</time>
<speed>4.460000</speed>
<extensions>
<speed>4.5</speed>
<temp>0.00</temp>
<bpm>0</bpm>
<rpm>0.00</rpm>
</extensions>
</trkpt>
<trkpt lat="63.790096283" lon="-20.300172806">
<ele>37.195313</ele>
<time>2012-07-27T12:10:03Z</time>
<speed>4.190000</speed>
<extensions>
<speed>4.2</speed>
<temp>0.00</temp>
<bpm>0</bpm>
<rpm>0.00</rpm>
</extensions>
</trkpt>
<trkpt lat="63.790248871" lon="-20.300470352">
<ele>36.817383</ele>
<time>2012-07-27T12:10:08Z</time>
<speed>4.940000</speed>
<extensions>
<speed>4.9</speed>
<temp>0.00</temp>
<bpm>0</bpm>
<rpm>0.00</rpm>
</extensions>
</trkpt>
<trkpt lat="63.790409088" lon="-20.300786972">
<ele>36.094727</ele>
<time>2012-07-27T12:10:13Z</time>
<speed>4.670000</speed>
<extensions>
<speed>4.7</speed>
<temp>0.00</temp>
<bpm>0</bpm>
<rpm>0.00</rpm>
</extensions>
</trkpt>
<trkpt lat="63.790561676" lon="-20.301099777">
<ele>35.601563</ele>
<time>2012-07-27T12:10:18Z</time>
<speed>4.720000</speed>
<extensions>
<speed>4.7</speed>
<temp>0.00</temp>
<bpm>0</bpm>
<rpm>0.00</rpm>
</extensions>
</trkpt>
<trkpt lat="63.790729523" lon="-20.301448822">
<ele>35.368164</ele>
<time>2012-07-27T12:10:23Z</time>
<speed>5.470000</speed>
<extensions>
<speed>5.5</speed>
<temp>0.00</temp>
<bpm>0</bpm>
<rpm>0.00</rpm>
</extensions>
</trkpt>
<trkpt lat="63.790908813" lon="-20.301836014">
<ele>35.023438</ele>
<time>2012-07-27T12:10:28Z</time>
<speed>5.420000</speed>
<extensions>
<speed>5.4</speed>
<temp>0.00</temp>
<bpm>0</bpm>
<rpm>0.00</rpm>
</extensions>
</trkpt>
<trkpt lat="63.791091919" lon="-20.302228928">
<ele>34.916016</ele>
<time>2012-07-27T12:10:33Z</time>
<speed>5.810000</speed>
<extensions>
<speed>5.8</speed>
<temp>0.00</temp>
<bpm>0</bpm>
<rpm>0.00</rpm>
</extensions>
</trkpt>
<trkpt lat="63.791267395" lon="-20.302648544">
<ele>34.196289</ele>
<time>2012-07-27T12:10:38Z</time>
<speed>5.710000</speed>
<extensions>
<speed>5.7</speed>
<temp>0.00</temp>
<bpm>0</bpm>
<rpm>0.00</rpm>
</extensions>
</trkpt>
<trkpt lat="63.791461945" lon="-20.303091049">
<ele>33.397461</ele>
<time>2012-07-27T12:10:43Z</time>
<speed>6.370000</speed>
<extensions>
<speed>6.4</speed>
<temp>0.00</temp>
<bpm>0</bpm>
<rpm>0.00</rpm>
</extensions>
</trkpt>
<trkpt lat="63.791675568" lon="-20.303562164">
<ele>32.564453</ele>
<time>2012-07-27T12:10:48Z</time>
<speed>6.780000</speed>
<extensions>
<speed>6.8</speed>
<temp>0.00</temp>
<bpm>0</bpm>
<rpm>0.00</rpm>
</extensions>
</trkpt>
<trkpt lat="63.791893005" lon="-20.304063797">
<ele>32.244141</ele>
<time>2012-07-27T12:10:53Z</time>
<speed>7.060000</speed>
<extensions>
<speed>7.1</speed>
<temp>0.00</temp>
<bpm>0</bpm>
<rpm>0.00</rpm>
</extensions>
</trkpt>
<trkpt lat="63.792102814" lon="-20.304557800">
<ele>31.420898</ele>
<time>2012-07-27T12:10:58Z</time>
<speed>6.590000</speed>
<extensions>
<speed>6.6</speed>
<temp>0.00</temp>
<bpm>0</bpm>
<rpm>0.00</rpm>
</extensions>
</trkpt>
<trkpt lat="63.792301178" lon="-20.305028915">
<ele>31.106445</ele>
<time>2012-07-27T12:11:03Z</time>
<speed>6.590000</speed>
<extensions>
<speed>6.6</speed>
<temp>0.00</temp>
<bpm>0</bpm>
<rpm>0.00</rpm>
</extensions>
</trkpt>
<trkpt lat="63.792507172" lon="-20.305498123">
<ele>30.930664</ele>
<time>2012-07-27T12:11:08Z</time>
<speed>6.410000</speed>
<extensions>
<speed>6.4</speed>
<temp>0.00</temp>
<bpm>0</bpm>
<rpm>0.00</rpm>
</extensions>
</trkpt>
<trkpt lat="63.792705536" lon="-20.305952072">
<ele>30.945801</ele>
<time>2012-07-27T12:11:13Z</time>
<speed>6.050000</speed>
<extensions>
<speed>6.1</speed>
<temp>0.00</temp>
<bpm>0</bpm>
<rpm>0.00</rpm>
</extensions>
</trkpt>
<trkpt lat="63.792884827" lon="-20.306367874">
<ele>30.959961</ele>
<time>2012-07-27T12:11:18Z</time>
<speed>5.610000</speed>
<extensions>
<speed>5.6</speed>
<temp>0.00</temp>
<bpm>0</bpm>
<rpm>0.00</rpm>
</extensions>
</trkpt>
<trkpt lat="63.793052673" lon="-20.306777954">
<ele>31.018066</ele>
<time>2012-07-27T12:11:23Z</time>
<speed>5.400000</speed>
<extensions>
<speed>5.4</speed>
<temp>0.00</temp>
<bpm>0</bpm>
<rpm>0.00</rpm>
</extensions>
</trkpt>
<trkpt lat="63.793224335" lon="-20.307176590">
<ele>31.281250</ele>
<time>2012-07-27T12:11:28Z</time>
<speed>5.320000</speed>
<extensions>
<speed>5.3</speed>
<temp>0.00</temp>
<bpm>0</bpm>
<rpm>0.00</rpm>
</extensions>
</trkpt>
<trkpt lat="63.793388367" lon="-20.307563782">
<ele>31.456055</ele>
<time>2012-07-27T12:11:33Z</time>
<speed>5.050000</speed>
<extensions>
<speed>5.1</speed>
<temp>0.00</temp>
<bpm>0</bpm>
<rpm>0.00</rpm>
</extensions>
</trkpt>
<trkpt lat="63.793533325" lon="-20.307926178">
<ele>31.688477</ele>
<time>2012-07-27T12:11:38Z</time>
<speed>4.550000</speed>
<extensions>
<speed>4.5</speed>
<temp>0.00</temp>
<bpm>0</bpm>
<rpm>0.00</rpm>
</extensions>
</trkpt>
<trkpt lat="63.793659210" lon="-20.308252335">
<ele>31.786133</ele>
<time>2012-07-27T12:11:43Z</time>
<speed>4.190000</speed>
<extensions>
<speed>4.2</speed>
<temp>0.00</temp>
<bpm>0</bpm>
<rpm>0.00</rpm>
</extensions>
</trkpt>
<trkpt lat="63.793792725" lon="-20.308568954">
<ele>31.761719</ele>
<time>2012-07-27T12:11:48Z</time>
<speed>4.670000</speed>
<extensions>
<speed>4.7</speed>
<temp>0.00</temp>
<bpm>0</bpm>
<rpm>0.00</rpm>
</extensions>
</trkpt>
<trkpt lat="63.793945313" lon="-20.308891296">
<ele>32.182617</ele>
<time>2012-07-27T12:11:53Z</time>
<speed>4.480000</speed>
<extensions>
<speed>4.5</speed>
<temp>0.00</temp>
<bpm>0</bpm>
<rpm>0.00</rpm>
</extensions>
</trkpt>
<trkpt lat="63.794086456" lon="-20.309211731">
<ele>32.533203</ele>
<time>2012-07-27T12:11:58Z</time>
<speed>4.430000</speed>
<extensions>
<speed>4.4</speed>
<temp>0.00</temp>
<bpm>0</bpm>
<rpm>0.00</rpm>
</extensions>
</trkpt>
<trkpt lat="63.794227600" lon="-20.309535980">
<ele>32.266602</ele>
<time>2012-07-27T12:12:03Z</time>
<speed>4.510000</speed>
<extensions>
<speed>4.5</speed>
<temp>0.00</temp>
<bpm>0</bpm>
<rpm>0.00</rpm>
</extensions>
</trkpt>
<trkpt lat="63.794368744" lon="-20.309856415">
<ele>32.673828</ele>
<time>2012-07-27T12:12:08Z</time>
<speed>4.180000</speed>
<extensions>
<speed>4.2</speed>
<temp>0.00</temp>
<bpm>0</bpm>
<rpm>0.00</rpm>
</extensions>
</trkpt>
<trkpt lat="63.794494629" lon="-20.310150146">
<ele>32.779297</ele>
<time>2012-07-27T12:12:13Z</time>
<speed>4.130000</speed>
<extensions>
<speed>4.1</speed>
<temp>0.00</temp>
<bpm>0</bpm>
<rpm>0.00</rpm>
</extensions>
</trkpt>
<trkpt lat="63.794620514" lon="-20.310432434">
<ele>33.029297</ele>
<time>2012-07-27T12:12:18Z</time>
<speed>3.910000</speed>
<extensions>
<speed>3.9</speed>
<temp>0.00</temp>
<bpm>0</bpm>
<rpm>0.00</rpm>
</extensions>
</trkpt>
<trkpt lat="63.794746399" lon="-20.310701370">
<ele>33.236328</ele>
<time>2012-07-27T12:12:23Z</time>
<speed>3.880000</speed>
<extensions>
<speed>3.9</speed>
<temp>0.00</temp>
<bpm>0</bpm>
<rpm>0.00</rpm>
</extensions>
</trkpt>
<trkpt lat="63.794872284" lon="-20.310976028">
<ele>33.513672</ele>
<time>2012-07-27T12:12:28Z</time>
<speed>3.810000</speed>
<extensions>
<speed>3.8</speed>
<temp>0.00</temp>
<bpm>0</bpm>
<rpm>0.00</rpm>
</extensions>
</trkpt>
<trkpt lat="63.795001984" lon="-20.311260223">
<ele>34.172852</ele>
<time>2012-07-27T12:12:33Z</time>
<speed>4.030000</speed>
<extensions>
<speed>4.0</speed>
<temp>0.00</temp>
<bpm>0</bpm>
<rpm>0.00</rpm>
</extensions>
</trkpt>
<trkpt lat="63.795139313" lon="-20.311567307">
<ele>34.340820</ele>
<time>2012-07-27T12:12:38Z</time>
<speed>4.570000</speed>
<extensions>
<speed>4.6</speed>
<temp>0.00</temp>
<bpm>0</bpm>
<rpm>0.00</rpm>
</extensions>
</trkpt>
<trkpt lat="63.795295715" lon="-20.311895370">
<ele>34.789063</ele>
<time>2012-07-27T12:12:43Z</time>
<speed>4.480000</speed>
<extensions>
<speed>4.5</speed>
<temp>0.00</temp>
<bpm>0</bpm>
<rpm>0.00</rpm>
</extensions>
</trkpt>
<trkpt lat="63.795433044" lon="-20.312177658">
<ele>35.425781</ele>
<time>2012-07-27T12:12:48Z</time>
<speed>4.110000</speed>
<extensions>
<speed>4.1</speed>
<temp>0.00</temp>
<bpm>0</bpm>
<rpm>0.00</rpm>
</extensions>
</trkpt>
<trkpt lat="63.795566559" lon="-20.312429428">
<ele>35.957031</ele>
<time>2012-07-27T12:12:53Z</time>
<speed>4.010000</speed>
<extensions>
<speed>4.0</speed>
<temp>0.00</temp>
<bpm>0</bpm>
<rpm>0.00</rpm>
</extensions>
</trkpt>
<trkpt lat="63.795696259" lon="-20.312713623">
<ele>36.309570</ele>
<time>2012-07-27T12:12:58Z</time>
<speed>4.030000</speed>
<extensions>
<speed>4.0</speed>
<temp>0.00</temp>
<bpm>0</bpm>
<rpm>0.00</rpm>
</extensions>
</trkpt>
<trkpt lat="63.795837402" lon="-20.312974930">
<ele>36.790039</ele>
<time>2012-07-27T12:13:03Z</time>
<speed>4.100000</speed>
<extensions>
<speed>4.1</speed>
<temp>0.00</temp>
<bpm>0</bpm>
<rpm>0.00</rpm>
</extensions>
</trkpt>
<trkpt lat="63.795982361" lon="-20.313245773">
<ele>37.251953</ele>
<time>2012-07-27T12:13:08Z</time>
<speed>4.310000</speed>
<extensions>
<speed>4.3</speed>
<temp>0.00</temp>
<bpm>0</bpm>
<rpm>0.00</rpm>
</extensions>
</trkpt>
<trkpt lat="63.796134949" lon="-20.313526154">
<ele>37.624023</ele>
<time>2012-07-27T12:13:13Z</time>
<speed>4.370000</speed>
<extensions>
<speed>4.4</speed>
<temp>0.00</temp>
<bpm>0</bpm>
<rpm>0.00</rpm>
</extensions>
</trkpt>
<trkpt lat="63.796283722" lon="-20.313810349">
<ele>37.967773</ele>
<time>2012-07-27T12:13:18Z</time>
<speed>4.260000</speed>
<extensions>
<speed>4.3</speed>
<temp>0.00</temp>
<bpm>0</bpm>
<rpm>0.00</rpm>
</extensions>
</trkpt>
<trkpt lat="63.796428680" lon="-20.314085007">
<ele>37.962891</ele>
<time>2012-07-27T12:13:23Z</time>
<speed>3.980000</speed>
<extensions>
<speed>4.0</speed>
<temp>0.00</temp>
<bpm>0</bpm>
<rpm>0.00</rpm>
</extensions>
</trkpt>
<trkpt lat="63.796573639" lon="-20.314361572">
<ele>37.949219</ele>
<time>2012-07-27T12:13:28Z</time>
<speed>4.310000</speed>
<extensions>
<speed>4.3</speed>
<temp>0.00</temp>
<bpm>0</bpm>
<rpm>0.00</rpm>
</extensions>
</trkpt>
<trkpt lat="63.796718597" lon="-20.314619064">
<ele>38.296875</ele>
<time>2012-07-27T12:13:33Z</time>
<speed>4.390000</speed>
<extensions>
<speed>4.4</speed>
<temp>0.00</temp>
<bpm>0</bpm>
<rpm>0.00</rpm>
</extensions>
</trkpt>
<trkpt lat="63.796878815" lon="-20.314908981">
<ele>38.785156</ele>
<time>2012-07-27T12:13:38Z</time>
<speed>4.590000</speed>
<extensions>
<speed>4.6</speed>
<temp>0.00</temp>
<bpm>0</bpm>
<rpm>0.00</rpm>
</extensions>
</trkpt>
<trkpt lat="63.797035217" lon="-20.315200806">
<ele>38.984375</ele>
<time>2012-07-27T12:13:43Z</time>
<speed>4.690000</speed>
<extensions>
<speed>4.7</speed>
<temp>0.00</temp>
<bpm>0</bpm>
<rpm>0.00</rpm>
</extensions>
</trkpt>
<trkpt lat="63.797199249" lon="-20.315523148">
<ele>39.004883</ele>
<time>2012-07-27T12:13:48Z</time>
<speed>4.790000</speed>
<extensions>
<speed>4.8</speed>
<temp>0.00</temp>
<bpm>0</bpm>
<rpm>0.00</rpm>
</extensions>
</trkpt>
<trkpt lat="63.797367096" lon="-20.315822601">
<ele>39.142578</ele>
<time>2012-07-27T12:13:53Z</time>
<speed>4.430000</speed>
<extensions>
<speed>4.4</speed>
<temp>0.00</temp>
<bpm>0</bpm>
<rpm>0.00</rpm>
</extensions>
</trkpt>
<trkpt lat="63.797496796" lon="-20.316072464">
<ele>38.996094</ele>
<time>2012-07-27T12:13:58Z</time>
<speed>3.320000</speed>
<extensions>
<speed>3.3</speed>
<temp>0.00</temp>
<bpm>0</bpm>
<rpm>0.00</rpm>
</extensions>
</trkpt>
<trkpt lat="63.797641754" lon="-20.316324234">
<ele>39.583008</ele>
<time>2012-07-27T12:14:03Z</time>
<speed>4.630000</speed>
<extensions>
<speed>4.6</speed>
<temp>0.00</temp>
<bpm>0</bpm>
<rpm>0.00</rpm>
</extensions>
</trkpt>
<trkpt lat="63.797805786" lon="-20.316642761">
<ele>39.608398</ele>
<time>2012-07-27T12:14:08Z</time>
<speed>5.000000</speed>
<extensions>
<speed>5.0</speed>
<temp>0.00</temp>
<bpm>0</bpm>
<rpm>0.00</rpm>
</extensions>
</trkpt>
<trkpt lat="63.797985077" lon="-20.316967010">
<ele>39.871094</ele>
<time>2012-07-27T12:14:13Z</time>
<speed>5.220000</speed>
<extensions>
<speed>5.2</speed>
<temp>0.00</temp>
<bpm>0</bpm>
<rpm>0.00</rpm>
</extensions>
</trkpt>
<trkpt lat="63.798171997" lon="-20.317306519">
<ele>40.169922</ele>
<time>2012-07-27T12:14:18Z</time>
<speed>5.390000</speed>
<extensions>
<speed>5.4</speed>
<temp>0.00</temp>
<bpm>0</bpm>
<rpm>0.00</rpm>
</extensions>
</trkpt>
<trkpt lat="63.798366547" lon="-20.317638397">
<ele>40.503906</ele>
<time>2012-07-27T12:14:23Z</time>
<speed>5.030000</speed>
<extensions>
<speed>5.0</speed>
<temp>0.00</temp>
<bpm>0</bpm>
<rpm>0.00</rpm>
</extensions>
</trkpt>
<trkpt lat="63.798530579" lon="-20.317943573">
<ele>40.804688</ele>
<time>2012-07-27T12:14:28Z</time>
<speed>4.840000</speed>
<extensions>
<speed>4.8</speed>
<temp>0.00</temp>
<bpm>0</bpm>
<rpm>0.00</rpm>
</extensions>
</trkpt>
<trkpt lat="63.798698425" lon="-20.318256378">
<ele>40.778320</ele>
<time>2012-07-27T12:14:33Z</time>
<speed>4.770000</speed>
<extensions>
<speed>4.8</speed>
<temp>0.00</temp>
<bpm>0</bpm>
<rpm>0.00</rpm>
</extensions>
</trkpt>
<trkpt lat="63.798866272" lon="-20.318557739">
<ele>40.856445</ele>
<time>2012-07-27T12:14:38Z</time>
<speed>4.710000</speed>
<extensions>
<speed>4.7</speed>
<temp>0.00</temp>
<bpm>0</bpm>
<rpm>0.00</rpm>
</extensions>
</trkpt>
<trkpt lat="63.799030304" lon="-20.318841934">
<ele>40.794922</ele>
<time>2012-07-27T12:14:43Z</time>
<speed>4.620000</speed>
<extensions>
<speed>4.6</speed>
<temp>0.00</temp>
<bpm>0</bpm>
<rpm>0.00</rpm>
</extensions>
</trkpt>
<trkpt lat="63.799190521" lon="-20.319139481">
<ele>40.732422</ele>
<time>2012-07-27T12:14:48Z</time>
<speed>4.230000</speed>
<extensions>
<speed>4.2</speed>
<temp>0.00</temp>
<bpm>0</bpm>
<rpm>0.00</rpm>
</extensions>
</trkpt>
<trkpt lat="63.799339294" lon="-20.319419861">
<ele>40.876953</ele>
<time>2012-07-27T12:14:53Z</time>
<speed>4.720000</speed>
<extensions>
<speed>4.7</speed>
<temp>0.00</temp>
<bpm>0</bpm>
<rpm>0.00</rpm>
</extensions>
</trkpt>
<trkpt lat="63.799507141" lon="-20.319721222">
<ele>41.021484</ele>
<time>2012-07-27T12:14:58Z</time>
<speed>4.810000</speed>
<extensions>
<speed>4.8</speed>
<temp>0.00</temp>
<bpm>0</bpm>
<rpm>0.00</rpm>
</extensions>
</trkpt>
<trkpt lat="63.799671173" lon="-20.320022583">
<ele>41.045898</ele>
<time>2012-07-27T12:15:03Z</time>
<speed>4.780000</speed>
<extensions>
<speed>4.8</speed>
<temp>0.00</temp>
<bpm>0</bpm>
<rpm>0.00</rpm>
</extensions>
</trkpt>
<trkpt lat="63.799839020" lon="-20.320322037">
<ele>40.939453</ele>
<time>2012-07-27T12:15:08Z</time>
<speed>4.310000</speed>
<extensions>
<speed>4.3</speed>
<temp>0.00</temp>
<bpm>0</bpm>
<rpm>0.00</rpm>
</extensions>
</trkpt>
<trkpt lat="63.799987793" lon="-20.320602417">
<ele>40.825195</ele>
<time>2012-07-27T12:15:13Z</time>
<speed>4.610000</speed>
<extensions>
<speed>4.6</speed>
<temp>0.00</temp>
<bpm>0</bpm>
<rpm>0.00</rpm>
</extensions>
</trkpt>
<trkpt lat="63.800155640" lon="-20.320905685">
<ele>41.149414</ele>
<time>2012-07-27T12:15:18Z</time>
<speed>4.620000</speed>
<extensions>
<speed>4.6</speed>
<temp>0.00</temp>
<bpm>0</bpm>
<rpm>0.00</rpm>
</extensions>
</trkpt>
<trkpt lat="63.800304413" lon="-20.321178436">
<ele>41.361328</ele>
<time>2012-07-27T12:15:23Z</time>
<speed>4.520000</speed>
<extensions>
<speed>4.5</speed>
<temp>0.00</temp>
<bpm>0</bpm>
<rpm>0.00</rpm>
</extensions>
</trkpt>
<trkpt lat="63.800464630" lon="-20.321464539">
<ele>41.648438</ele>
<time>2012-07-27T12:15:28Z</time>
<speed>4.620000</speed>
<extensions>
<speed>4.6</speed>
<temp>0.00</temp>
<bpm>0</bpm>
<rpm>0.00</rpm>
</extensions>
</trkpt>
<trkpt lat="63.800617218" lon="-20.321737289">
<ele>41.834961</ele>
<time>2012-07-27T12:15:33Z</time>
<speed>4.090000</speed>
<extensions>
<speed>4.1</speed>
<temp>0.00</temp>
<bpm>0</bpm>
<rpm>0.00</rpm>
</extensions>
</trkpt>
<trkpt lat="63.800762177" lon="-20.322002411">
<ele>41.872070</ele>
<time>2012-07-27T12:15:38Z</time>
<speed>4.150000</speed>
<extensions>
<speed>4.1</speed>
<temp>0.00</temp>
<bpm>0</bpm>
<rpm>0.00</rpm>
</extensions>
</trkpt>
<trkpt lat="63.800895691" lon="-20.322254181">
<ele>42.102539</ele>
<time>2012-07-27T12:15:43Z</time>
<speed>3.680000</speed>
<extensions>
<speed>3.7</speed>
<temp>0.00</temp>
<bpm>0</bpm>
<rpm>0.00</rpm>
</extensions>
</trkpt>
<trkpt lat="63.801021576" lon="-20.322471619">
<ele>41.821289</ele>
<time>2012-07-27T12:15:48Z</time>
<speed>3.460000</speed>
<extensions>
<speed>3.5</speed>
<temp>0.00</temp>
<bpm>0</bpm>
<rpm>0.00</rpm>
</extensions>
</trkpt>
<trkpt lat="63.801143646" lon="-20.322689056">
<ele>41.928711</ele>
<time>2012-07-27T12:15:53Z</time>
<speed>3.530000</speed>
<extensions>
<speed>3.5</speed>
<temp>0.00</temp>
<bpm>0</bpm>
<rpm>0.00</rpm>
</extensions>
</trkpt>
<trkpt lat="63.801269531" lon="-20.322921753">
<ele>41.930664</ele>
<time>2012-07-27T12:15:58Z</time>
<speed>3.420000</speed>
<extensions>
<speed>3.4</speed>
<temp>0.00</temp>
<bpm>0</bpm>
<rpm>0.00</rpm>
</extensions>
</trkpt>
<trkpt lat="63.801391602" lon="-20.323146820">
<ele>41.899414</ele>
<time>2012-07-27T12:16:03Z</time>
<speed>3.550000</speed>
<extensions>
<speed>3.5</speed>
<temp>0.00</temp>
<bpm>0</bpm>
<rpm>0.00</rpm>
</extensions>
</trkpt>
<trkpt lat="63.801525116" lon="-20.323366165">
<ele>41.931641</ele>
<time>2012-07-27T12:16:08Z</time>
<speed>3.580000</speed>
<extensions>
<speed>3.6</speed>
<temp>0.00</temp>
<bpm>0</bpm>
<rpm>0.00</rpm>
</extensions>
</trkpt>
<trkpt lat="63.801643372" lon="-20.323579788">
<ele>42.292969</ele>
<time>2012-07-27T12:16:13Z</time>
<speed>3.290000</speed>
<extensions>
<speed>3.3</speed>
<temp>0.00</temp>
<bpm>0</bpm>
<rpm>0.00</rpm>
</extensions>
</trkpt>
<trkpt lat="63.801761627" lon="-20.323799133">
<ele>42.552734</ele>
<time>2012-07-27T12:16:18Z</time>
<speed>3.490000</speed>
<extensions>
<speed>3.5</speed>
<temp>0.00</temp>
<bpm>0</bpm>
<rpm>0.00</rpm>
</extensions>
</trkpt>
<trkpt lat="63.801876068" lon="-20.324010849">
<ele>42.521484</ele>
<time>2012-07-27T12:16:23Z</time>
<speed>3.340000</speed>
<extensions>
<speed>3.3</speed>
<temp>0.00</temp>
<bpm>0</bpm>
<rpm>0.00</rpm>
</extensions>
</trkpt>
<trkpt lat="63.801986694" lon="-20.324207306">
<ele>43.008789</ele>
<time>2012-07-27T12:16:28Z</time>
<speed>3.050000</speed>
<extensions>
<speed>3.0</speed>
<temp>0.00</temp>
<bpm>0</bpm>
<rpm>0.00</rpm>
</extensions>
</trkpt>
<trkpt lat="63.802097321" lon="-20.324419022">
<ele>42.799805</ele>
<time>2012-07-27T12:16:33Z</time>
<speed>3.370000</speed>
<extensions>
<speed>3.4</speed>
<temp>0.00</temp>
<bpm>0</bpm>
<rpm>0.00</rpm>
</extensions>
</trkpt>
<trkpt lat="63.802219391" lon="-20.324636459">
<ele>42.780273</ele>
<time>2012-07-27T12:16:38Z</time>
<speed>3.280000</speed>
<extensions>
<speed>3.3</speed>
<temp>0.00</temp>
<bpm>0</bpm>
<rpm>0.00</rpm>
</extensions>
</trkpt>
<trkpt lat="63.802337646" lon="-20.324831009">
<ele>42.711914</ele>
<time>2012-07-27T12:16:43Z</time>
<speed>3.290000</speed>
<extensions>
<speed>3.3</speed>
<temp>0.00</temp>
<bpm>0</bpm>
<rpm>0.00</rpm>
</extensions>
</trkpt>
<trkpt lat="63.802452087" lon="-20.325048447">
<ele>43.036133</ele>
<time>2012-07-27T12:16:48Z</time>
<speed>3.450000</speed>
<extensions>
<speed>3.5</speed>
<temp>0.00</temp>
<bpm>0</bpm>
<rpm>0.00</rpm>
</extensions>
</trkpt>
<trkpt lat="63.802574158" lon="-20.325283051">
<ele>42.256836</ele>
<time>2012-07-27T12:16:53Z</time>
<speed>3.540000</speed>
<extensions>
<speed>3.5</speed>
<temp>0.00</temp>
<bpm>0</bpm>
<rpm>0.00</rpm>
</extensions>
</trkpt>
<trkpt lat="63.802700043" lon="-20.325521469">
<ele>41.905273</ele>
<time>2012-07-27T12:16:58Z</time>
<speed>3.640000</speed>
<extensions>
<speed>3.6</speed>
<temp>0.00</temp>
<bpm>0</bpm>
<rpm>0.00</rpm>
</extensions>
</trkpt>
<trkpt lat="63.802822113" lon="-20.325752258">
<ele>42.269531</ele>
<time>2012-07-27T12:17:03Z</time>
<speed>3.620000</speed>
<extensions>
<speed>3.6</speed>
<temp>0.00</temp>
<bpm>0</bpm>
<rpm>0.00</rpm>
</extensions>
</trkpt>
<trkpt lat="63.802940369" lon="-20.325965881">
<ele>42.484375</ele>
<time>2012-07-27T12:17:08Z</time>
<speed>3.380000</speed>
<extensions>
<speed>3.4</speed>
<temp>0.00</temp>
<bpm>0</bpm>
<rpm>0.00</rpm>
</extensions>
</trkpt>
<trkpt lat="63.803089142" lon="-20.326227188">
<ele>42.304688</ele>
<time>2012-07-27T12:17:13Z</time>
<speed>4.500000</speed>
<extensions>
<speed>4.5</speed>
<temp>0.00</temp>
<bpm>0</bpm>
<rpm>0.00</rpm>
</extensions>
</trkpt>
<trkpt lat="63.803237915" lon="-20.326517105">
<ele>42.524414</ele>
<time>2012-07-27T12:17:18Z</time>
<speed>4.300000</speed>
<extensions>
<speed>4.3</speed>
<temp>0.00</temp>
<bpm>0</bpm>
<rpm>0.00</rpm>
</extensions>
</trkpt>
<trkpt lat="63.803398132" lon="-20.326810837">
<ele>42.519531</ele>
<time>2012-07-27T12:17:23Z</time>
<speed>4.460000</speed>
<extensions>
<speed>4.5</speed>
<temp>0.00</temp>
<bpm>0</bpm>
<rpm>0.00</rpm>
</extensions>
</trkpt>
<trkpt lat="63.803546906" lon="-20.327091217">
<ele>42.398438</ele>
<time>2012-07-27T12:17:28Z</time>
<speed>4.440000</speed>
<extensions>
<speed>4.4</speed>
<temp>0.00</temp>
<bpm>0</bpm>
<rpm>0.00</rpm>
</extensions>
</trkpt>
<trkpt lat="63.803703308" lon="-20.327373505">
<ele>42.541016</ele>
<time>2012-07-27T12:17:33Z</time>
<speed>4.470000</speed>
<extensions>
<speed>4.5</speed>
<temp>0.00</temp>
<bpm>0</bpm>
<rpm>0.00</rpm>
</extensions>
</trkpt>
<trkpt lat="63.803859711" lon="-20.327667236">
<ele>42.082031</ele>
<time>2012-07-27T12:17:38Z</time>
<speed>4.420000</speed>
<extensions>
<speed>4.4</speed>
<temp>0.00</temp>
<bpm>0</bpm>
<rpm>0.00</rpm>
</extensions>
</trkpt>
<trkpt lat="63.804008484" lon="-20.327941895">
<ele>42.504883</ele>
<time>2012-07-27T12:17:43Z</time>
<speed>4.200000</speed>
<extensions>
<speed>4.2</speed>
<temp>0.00</temp>
<bpm>0</bpm>
<rpm>0.00</rpm>
</extensions>
</trkpt>
<trkpt lat="63.804157257" lon="-20.328212738">
<ele>42.582031</ele>
<time>2012-07-27T12:17:48Z</time>
<speed>4.370000</speed>
<extensions>
<speed>4.4</speed>
<temp>0.00</temp>
<bpm>0</bpm>
<rpm>0.00</rpm>
</extensions>
</trkpt>
<trkpt lat="63.804317474" lon="-20.328489304">
<ele>42.660156</ele>
<time>2012-07-27T12:17:53Z</time>
<speed>4.360000</speed>
<extensions>
<speed>4.4</speed>
<temp>0.00</temp>
<bpm>0</bpm>
<rpm>0.00</rpm>
</extensions>
</trkpt>
<trkpt lat="63.804477692" lon="-20.328784943">
<ele>42.841797</ele>
<time>2012-07-27T12:17:58Z</time>
<speed>4.500000</speed>
<extensions>
<speed>4.5</speed>
<temp>0.00</temp>
<bpm>0</bpm>
<rpm>0.00</rpm>
</extensions>
</trkpt>
<trkpt lat="63.804630280" lon="-20.329071045">
<ele>42.868164</ele>
<time>2012-07-27T12:18:03Z</time>
<speed>4.460000</speed>
<extensions>
<speed>4.5</speed>
<temp>0.00</temp>
<bpm>0</bpm>
<rpm>0.00</rpm>
</extensions>
</trkpt>
<trkpt lat="63.804779053" lon="-20.329345703">
<ele>43.137695</ele>
<time>2012-07-27T12:18:08Z</time>
<speed>4.480000</speed>
<extensions>
<speed>4.5</speed>
<temp>0.00</temp>
<bpm>0</bpm>
<rpm>0.00</rpm>
</extensions>
</trkpt>
<trkpt lat="63.804931641" lon="-20.329629898">
<ele>43.267578</ele>
<time>2012-07-27T12:18:13Z</time>
<speed>3.980000</speed>
<extensions>
<speed>4.0</speed>
<temp>0.00</temp>
<bpm>0</bpm>
<rpm>0.00</rpm>
</extensions>
</trkpt>
<trkpt lat="63.805072784" lon="-20.329891205">
<ele>43.499023</ele>
<time>2012-07-27T12:18:18Z</time>
<speed>4.330000</speed>
<extensions>
<speed>4.3</speed>
<temp>0.00</temp>
<bpm>0</bpm>
<rpm>0.00</rpm>
</extensions>
</trkpt>
<trkpt lat="63.805233002" lon="-20.330183029">
<ele>43.446289</ele>
<time>2012-07-27T12:18:23Z</time>
<speed>4.700000</speed>
<extensions>
<speed>4.7</speed>
<temp>0.00</temp>
<bpm>0</bpm>
<rpm>0.00</rpm>
</extensions>
</trkpt>
<trkpt lat="63.805397034" lon="-20.330488205">
<ele>43.265625</ele>
<time>2012-07-27T12:18:28Z</time>
<speed>4.790000</speed>
<extensions>
<speed>4.8</speed>
<temp>0.00</temp>
<bpm>0</bpm>
<rpm>0.00</rpm>
</extensions>
</trkpt>
<trkpt lat="63.805557251" lon="-20.330791473">
<ele>43.219727</ele>
<time>2012-07-27T12:18:33Z</time>
<speed>4.010000</speed>
<extensions>
<speed>4.0</speed>
<temp>0.00</temp>
<bpm>0</bpm>
<rpm>0.00</rpm>
</extensions>
</trkpt>
<trkpt lat="63.805671692" lon="-20.331001282">
<ele>43.379883</ele>
<time>2012-07-27T12:18:38Z</time>
<speed>2.780000</speed>
<extensions>
<speed>2.8</speed>
<temp>0.00</temp>
<bpm>0</bpm>
<rpm>0.00</rpm>
</extensions>
</trkpt>
<trkpt lat="63.805763245" lon="-20.331165314">
<ele>43.274414</ele>
<time>2012-07-27T12:18:43Z</time>
<speed>2.930000</speed>
<extensions>
<speed>2.9</speed>
<temp>0.00</temp>
<bpm>0</bpm>
<rpm>0.00</rpm>
</extensions>
</trkpt>
<trkpt lat="63.805877686" lon="-20.331378937">
<ele>42.960938</ele>
<time>2012-07-27T12:18:48Z</time>
<speed>3.890000</speed>
<extensions>
<speed>3.9</speed>
<temp>0.00</temp>
<bpm>0</bpm>
<rpm>0.00</rpm>
</extensions>
</trkpt>
<trkpt lat="63.806022644" lon="-20.331636429">
<ele>43.069336</ele>
<time>2012-07-27T12:18:53Z</time>
<speed>4.250000</speed>
<extensions>
<speed>4.3</speed>
<temp>0.00</temp>
<bpm>0</bpm>
<rpm>0.00</rpm>
</extensions>
</trkpt>
<trkpt lat="63.806175232" lon="-20.331924438">
<ele>43.116211</ele>
<time>2012-07-27T12:18:58Z</time>
<speed>4.520000</speed>
<extensions>
<speed>4.5</speed>
<temp>0.00</temp>
<bpm>0</bpm>
<rpm>0.00</rpm>
</extensions>
</trkpt>
<trkpt lat="63.806339264" lon="-20.332218170">
<ele>43.529297</ele>
<time>2012-07-27T12:19:03Z</time>
<speed>4.730000</speed>
<extensions>
<speed>4.7</speed>
<temp>0.00</temp>
<bpm>0</bpm>
<rpm>0.00</rpm>
</extensions>
</trkpt>
<trkpt lat="63.806503296" lon="-20.332521439">
<ele>43.032227</ele>
<time>2012-07-27T12:19:08Z</time>
<speed>4.260000</speed>
<extensions>
<speed>4.3</speed>
<temp>0.00</temp>
<bpm>0</bpm>
<rpm>0.00</rpm>
</extensions>
</trkpt>
<trkpt lat="63.806636810" lon="-20.332756042">
<ele>42.899414</ele>
<time>2012-07-27T12:19:13Z</time>
<speed>3.960000</speed>
<extensions>
<speed>4.0</speed>
<temp>0.00</temp>
<bpm>0</bpm>
<rpm>0.00</rpm>
</extensions>
</trkpt>
<trkpt lat="63.806789398" lon="-20.333026886">
<ele>42.605469</ele>
<time>2012-07-27T12:19:18Z</time>
<speed>4.400000</speed>
<extensions>
<speed>4.4</speed>
<temp>0.00</temp>
<bpm>0</bpm>
<rpm>0.00</rpm>
</extensions>
</trkpt>
<trkpt lat="63.806945801" lon="-20.333316803">
<ele>42.523438</ele>
<time>2012-07-27T12:19:23Z</time>
<speed>4.630000</speed>
<extensions>
<speed>4.6</speed>
<temp>0.00</temp>
<bpm>0</bpm>
<rpm>0.00</rpm>
</extensions>
</trkpt>
<trkpt lat="63.807102203" lon="-20.333593369">
<ele>42.538086</ele>
<time>2012-07-27T12:19:28Z</time>
<speed>3.940000</speed>
<extensions>
<speed>3.9</speed>
<temp>0.00</temp>
<bpm>0</bpm>
<rpm>0.00</rpm>
</extensions>
</trkpt>
<trkpt lat="63.807224274" lon="-20.333820343">
<ele>42.344727</ele>
<time>2012-07-27T12:19:33Z</time>
<speed>3.550000</speed>
<extensions>
<speed>3.5</speed>
<temp>0.00</temp>
<bpm>0</bpm>
<rpm>0.00</rpm>
</extensions>
</trkpt>
<trkpt lat="63.807357788" lon="-20.334053040">
<ele>42.734375</ele>
<time>2012-07-27T12:19:38Z</time>
<speed>3.720000</speed>
<extensions>
<speed>3.7</speed>
<temp>0.00</temp>
<bpm>0</bpm>
<rpm>0.00</rpm>
</extensions>
</trkpt>
<trkpt lat="63.807498932" lon="-20.334312439">
<ele>42.968750</ele>
<time>2012-07-27T12:19:43Z</time>
<speed>4.340000</speed>
<extensions>
<speed>4.3</speed>
<temp>0.00</temp>
<bpm>0</bpm>
<rpm>0.00</rpm>
</extensions>
</trkpt>
<trkpt lat="63.807655334" lon="-20.334589005">
<ele>42.454102</ele>
<time>2012-07-27T12:19:48Z</time>
<speed>4.660000</speed>
<extensions>
<speed>4.7</speed>
<temp>0.00</temp>
<bpm>0</bpm>
<rpm>0.00</rpm>
</extensions>
</trkpt>
<trkpt lat="63.807811737" lon="-20.334867477">
<ele>42.386719</ele>
<time>2012-07-27T12:19:53Z</time>
<speed>4.010000</speed>
<extensions>
<speed>4.0</speed>
<temp>0.00</temp>
<bpm>0</bpm>
<rpm>0.00</rpm>
</extensions>
</trkpt>
<trkpt lat="63.807937622" lon="-20.335073471">
<ele>42.583984</ele>
<time>2012-07-27T12:19:58Z</time>
<speed>3.340000</speed>
<extensions>
<speed>3.3</speed>
<temp>0.00</temp>
<bpm>0</bpm>
<rpm>0.00</rpm>
</extensions>
</trkpt>
<trkpt lat="63.808082581" lon="-20.335302353">
<ele>42.647461</ele>
<time>2012-07-27T12:20:03Z</time>
<speed>4.270000</speed>
<extensions>
<speed>4.3</speed>
<temp>0.00</temp>
<bpm>0</bpm>
<rpm>0.00</rpm>
</extensions>
</trkpt>
<trkpt lat="63.808238983" lon="-20.335573196">
<ele>42.088867</ele>
<time>2012-07-27T12:20:08Z</time>
<speed>4.590000</speed>
<extensions>
<speed>4.6</speed>
<temp>0.00</temp>
<bpm>0</bpm>
<rpm>0.00</rpm>
</extensions>
</trkpt>
<trkpt lat="63.808406830" lon="-20.335865021">
<ele>42.238281</ele>
<time>2012-07-27T12:20:13Z</time>
<speed>4.850000</speed>
<extensions>
<speed>4.8</speed>
<temp>0.00</temp>
<bpm>0</bpm>
<rpm>0.00</rpm>
</extensions>
</trkpt>
<trkpt lat="63.808578491" lon="-20.336126328">
<ele>42.792969</ele>
<time>2012-07-27T12:20:18Z</time>
<speed>4.250000</speed>
<extensions>
<speed>4.3</speed>
<temp>0.00</temp>
<bpm>0</bpm>
<rpm>0.00</rpm>
</extensions>
</trkpt>
<trkpt lat="63.808723450" lon="-20.336345673">
<ele>43.030273</ele>
<time>2012-07-27T12:20:23Z</time>
<speed>3.650000</speed>
<extensions>
<speed>3.7</speed>
<temp>0.00</temp>
<bpm>0</bpm>
<rpm>0.00</rpm>
</extensions>
</trkpt>
<trkpt lat="63.808868408" lon="-20.336589813">
<ele>42.620117</ele>
<time>2012-07-27T12:20:28Z</time>
<speed>4.540000</speed>
<extensions>
<speed>4.5</speed>
<temp>0.00</temp>
<bpm>0</bpm>
<rpm>0.00</rpm>
</extensions>
</trkpt>
<trkpt lat="63.809040070" lon="-20.336868286">
<ele>42.916992</ele>
<time>2012-07-27T12:20:33Z</time>
<speed>4.890000</speed>
<extensions>
<speed>4.9</speed>
<temp>0.00</temp>
<bpm>0</bpm>
<rpm>0.00</rpm>
</extensions>
</trkpt>
<trkpt lat="63.809234619" lon="-20.337163925">
<ele>42.664063</ele>
<time>2012-07-27T12:20:38Z</time>
<speed>5.210000</speed>
<extensions>
<speed>5.2</speed>
<temp>0.00</temp>
<bpm>0</bpm>
<rpm>0.00</rpm>
</extensions>
</trkpt>
<trkpt lat="63.809413910" lon="-20.337434769">
<ele>42.503906</ele>
<time>2012-07-27T12:20:43Z</time>
<speed>4.460000</speed>
<extensions>
<speed>4.5</speed>
<temp>0.00</temp>
<bpm>0</bpm>
<rpm>0.00</rpm>
</extensions>
</trkpt>
<trkpt lat="63.809566498" lon="-20.337667465">
<ele>42.680664</ele>
<time>2012-07-27T12:20:48Z</time>
<speed>4.130000</speed>
<extensions>
<speed>4.1</speed>
<temp>0.00</temp>
<bpm>0</bpm>
<rpm>0.00</rpm>
</extensions>
</trkpt>
<trkpt lat="63.809738159" lon="-20.337926865">
<ele>42.168945</ele>
<time>2012-07-27T12:20:53Z</time>
<speed>4.780000</speed>
<extensions>
<speed>4.8</speed>
<temp>0.00</temp>
<bpm>0</bpm>
<rpm>0.00</rpm>
</extensions>
</trkpt>
<trkpt lat="63.809917450" lon="-20.338184357">
<ele>41.611328</ele>
<time>2012-07-27T12:20:58Z</time>
<speed>4.700000</speed>
<extensions>
<speed>4.7</speed>
<temp>0.00</temp>
<bpm>0</bpm>
<rpm>0.00</rpm>
</extensions>
</trkpt>
<trkpt lat="63.810108185" lon="-20.338466644">
<ele>40.533203</ele>
<time>2012-07-27T12:21:03Z</time>
<speed>5.350000</speed>
<extensions>
<speed>5.4</speed>
<temp>0.00</temp>
<bpm>0</bpm>
<rpm>0.00</rpm>
</extensions>
</trkpt>
<trkpt lat="63.810306549" lon="-20.338743210">
<ele>40.427734</ele>
<time>2012-07-27T12:21:08Z</time>
<speed>4.780000</speed>
<extensions>
<speed>4.8</speed>
<temp>0.00</temp>
<bpm>0</bpm>
<rpm>0.00</rpm>
</extensions>
</trkpt>
<trkpt lat="63.810478210" lon="-20.338962555">
<ele>40.816406</ele>
<time>2012-07-27T12:21:13Z</time>
<speed>4.070000</speed>
<extensions>
<speed>4.1</speed>
<temp>0.00</temp>
<bpm>0</bpm>
<rpm>0.00</rpm>
</extensions>
</trkpt>
<trkpt lat="63.810638428" lon="-20.339179993">
<ele>40.281250</ele>
<time>2012-07-27T12:21:18Z</time>
<speed>4.650000</speed>
<extensions>
<speed>4.6</speed>
<temp>0.00</temp>
<bpm>0</bpm>
<rpm>0.00</rpm>
</extensions>
</trkpt>
<trkpt lat="63.810832977" lon="-20.339410782">
<ele>40.633789</ele>
<time>2012-07-27T12:21:23Z</time>
<speed>4.850000</speed>
<extensions>
<speed>4.8</speed>
<temp>0.00</temp>
<bpm>0</bpm>
<rpm>0.00</rpm>
</extensions>
</trkpt>
<trkpt lat="63.811012268" lon="-20.339683533">
<ele>39.658203</ele>
<time>2012-07-27T12:21:28Z</time>
<speed>4.610000</speed>
<extensions>
<speed>4.6</speed>
<temp>0.00</temp>
<bpm>0</bpm>
<rpm>0.00</rpm>
</extensions>
</trkpt>
<trkpt lat="63.811183929" lon="-20.339893341">
<ele>41.158203</ele>
<time>2012-07-27T12:21:33Z</time>
<speed>4.080000</speed>
<extensions>
<speed>4.1</speed>
<temp>0.00</temp>
<bpm>0</bpm>
<rpm>0.00</rpm>
</extensions>
</trkpt>
<trkpt lat="63.811363220" lon="-20.340112686">
<ele>41.395508</ele>
<time>2012-07-27T12:21:38Z</time>
<speed>4.900000</speed>
<extensions>
<speed>4.9</speed>
<temp>0.00</temp>
<bpm>0</bpm>
<rpm>0.00</rpm>
</extensions>
</trkpt>
<trkpt lat="63.811546326" lon="-20.340391159">
<ele>39.868164</ele>
<time>2012-07-27T12:21:43Z</time>
<speed>5.050000</speed>
<extensions>
<speed>5.1</speed>
<temp>0.00</temp>
<bpm>0</bpm>
<rpm>0.00</rpm>
</extensions>
</trkpt>
<trkpt lat="63.811740875" lon="-20.340665817">
<ele>42.206055</ele>
<time>2012-07-27T12:21:48Z</time>
<speed>5.250000</speed>
<extensions>
<speed>5.2</speed>
<temp>0.00</temp>
<bpm>0</bpm>
<rpm>0.00</rpm>
</extensions>
</trkpt>
<trkpt lat="63.811939240" lon="-20.340948105">
<ele>41.468750</ele>
<time>2012-07-27T12:21:53Z</time>
<speed>5.270000</speed>
<extensions>
<speed>5.3</speed>
<temp>0.00</temp>
<bpm>0</bpm>
<rpm>0.00</rpm>
</extensions>
</trkpt>
<trkpt lat="63.812129974" lon="-20.341260910">
<ele>38.831055</ele>
<time>2012-07-27T12:21:58Z</time>
<speed>5.090000</speed>
<extensions>
<speed>5.1</speed>
<temp>0.00</temp>
<bpm>0</bpm>
<rpm>0.00</rpm>
</extensions>
</trkpt>
<trkpt lat="63.812316895" lon="-20.341566086">
<ele>38.594727</ele>
<time>2012-07-27T12:22:03Z</time>
<speed>5.170000</speed>
<extensions>
<speed>5.2</speed>
<temp>0.00</temp>
<bpm>0</bpm>
<rpm>0.00</rpm>
</extensions>
</trkpt>
<trkpt lat="63.812500000" lon="-20.341884613">
<ele>37.350586</ele>
<time>2012-07-27T12:22:08Z</time>
<speed>4.780000</speed>
<extensions>
<speed>4.8</speed>
<temp>0.00</temp>
<bpm>0</bpm>
<rpm>0.00</rpm>
</extensions>
</trkpt>
<trkpt lat="63.812660217" lon="-20.342184067">
<ele>37.016602</ele>
<time>2012-07-27T12:22:13Z</time>
<speed>4.570000</speed>
<extensions>
<speed>4.6</speed>
<temp>0.00</temp>
<bpm>0</bpm>
<rpm>0.00</rpm>
</extensions>
</trkpt>
<trkpt lat="63.812820435" lon="-20.342481613">
<ele>36.569336</ele>
<time>2012-07-27T12:22:18Z</time>
<speed>4.570000</speed>
<extensions>
<speed>4.6</speed>
<temp>0.00</temp>
<bpm>0</bpm>
<rpm>0.00</rpm>
</extensions>
</trkpt>
<trkpt lat="63.812980652" lon="-20.342781067">
<ele>36.326172</ele>
<time>2012-07-27T12:22:23Z</time>
<speed>4.610000</speed>
<extensions>
<speed>4.6</speed>
<temp>0.00</temp>
<bpm>0</bpm>
<rpm>0.00</rpm>
</extensions>
</trkpt>
<trkpt lat="63.813125610" lon="-20.343084335">
<ele>36.179688</ele>
<time>2012-07-27T12:22:28Z</time>
<speed>4.320000</speed>
<extensions>
<speed>4.3</speed>
<temp>0.00</temp>
<bpm>0</bpm>
<rpm>0.00</rpm>
</extensions>
</trkpt>
<trkpt lat="63.813255310" lon="-20.343362808">
<ele>37.043945</ele>
<time>2012-07-27T12:22:33Z</time>
<speed>4.150000</speed>
<extensions>
<speed>4.1</speed>
<temp>0.00</temp>
<bpm>0</bpm>
<rpm>0.00</rpm>
</extensions>
</trkpt>
<trkpt lat="63.813373566" lon="-20.343618393">
<ele>37.465820</ele>
<time>2012-07-27T12:22:38Z</time>
<speed>3.180000</speed>
<extensions>
<speed>3.2</speed>
<temp>0.00</temp>
<bpm>0</bpm>
<rpm>0.00</rpm>
</extensions>
</trkpt>
<trkpt lat="63.813476563" lon="-20.343858719">
<ele>37.550781</ele>
<time>2012-07-27T12:22:43Z</time>
<speed>3.580000</speed>
<extensions>
<speed>3.6</speed>
<temp>0.00</temp>
<bpm>0</bpm>
<rpm>0.00</rpm>
</extensions>
</trkpt>
<trkpt lat="63.813591003" lon="-20.344116211">
<ele>37.779297</ele>
<time>2012-07-27T12:22:48Z</time>
<speed>3.710000</speed>
<extensions>
<speed>3.7</speed>
<temp>0.00</temp>
<bpm>0</bpm>
<rpm>0.00</rpm>
</extensions>
</trkpt>
<trkpt lat="63.813713074" lon="-20.344381332">
<ele>37.753906</ele>
<time>2012-07-27T12:22:53Z</time>
<speed>3.630000</speed>
<extensions>
<speed>3.6</speed>
<temp>0.00</temp>
<bpm>0</bpm>
<rpm>0.00</rpm>
</extensions>
</trkpt>
<trkpt lat="63.813831329" lon="-20.344650269">
<ele>37.070313</ele>
<time>2012-07-27T12:22:58Z</time>
<speed>3.630000</speed>
<extensions>
<speed>3.6</speed>
<temp>0.00</temp>
<bpm>0</bpm>
<rpm>0.00</rpm>
</extensions>
</trkpt>
<trkpt lat="63.813953400" lon="-20.344928741">
<ele>36.679688</ele>
<time>2012-07-27T12:23:03Z</time>
<speed>3.540000</speed>
<extensions>
<speed>3.5</speed>
<temp>0.00</temp>
<bpm>0</bpm>
<rpm>0.00</rpm>
</extensions>
</trkpt>
<trkpt lat="63.814071655" lon="-20.345188141">
<ele>37.184570</ele>
<time>2012-07-27T12:23:08Z</time>
<speed>3.720000</speed>
<extensions>
<speed>3.7</speed>
<temp>0.00</temp>
<bpm>0</bpm>
<rpm>0.00</rpm>
</extensions>
</trkpt>
<trkpt lat="63.814186096" lon="-20.345455170">
<ele>37.571289</ele>
<time>2012-07-27T12:23:13Z</time>
<speed>3.620000</speed>
<extensions>
<speed>3.6</speed>
<temp>0.00</temp>
<bpm>0</bpm>
<rpm>0.00</rpm>
</extensions>
</trkpt>
<trkpt lat="63.814285278" lon="-20.345670700">
<ele>38.015625</ele>
<time>2012-07-27T12:23:18Z</time>
<speed>3.160000</speed>
<extensions>
<speed>3.2</speed>
<temp>0.00</temp>
<bpm>0</bpm>
<rpm>0.00</rpm>
</extensions>
</trkpt>
<trkpt lat="63.814384460" lon="-20.345907211">
<ele>38.214844</ele>
<time>2012-07-27T12:23:23Z</time>
<speed>3.250000</speed>
<extensions>
<speed>3.2</speed>
<temp>0.00</temp>
<bpm>0</bpm>
<rpm>0.00</rpm>
</extensions>
</trkpt>
<trkpt lat="63.814483643" lon="-20.346136093">
<ele>38.669922</ele>
<time>2012-07-27T12:23:28Z</time>
<speed>3.190000</speed>
<extensions>
<speed>3.2</speed>
<temp>0.00</temp>
<bpm>0</bpm>
<rpm>0.00</rpm>
</extensions>
</trkpt>
<trkpt lat="63.814586639" lon="-20.346361160">
<ele>38.418945</ele>
<time>2012-07-27T12:23:33Z</time>
<speed>3.070000</speed>
<extensions>
<speed>3.1</speed>
<temp>0.00</temp>
<bpm>0</bpm>
<rpm>0.00</rpm>
</extensions>
</trkpt>
<trkpt lat="63.814682007" lon="-20.346580505">
<ele>39.057617</ele>
<time>2012-07-27T12:23:38Z</time>
<speed>3.140000</speed>
<extensions>
<speed>3.1</speed>
<temp>0.00</temp>
<bpm>0</bpm>
<rpm>0.00</rpm>
</extensions>
</trkpt>
<trkpt lat="63.814788818" lon="-20.346841812">
<ele>39.070313</ele>
<time>2012-07-27T12:23:43Z</time>
<speed>3.430000</speed>
<extensions>
<speed>3.4</speed>
<temp>0.00</temp>
<bpm>0</bpm>
<rpm>0.00</rpm>
</extensions>
</trkpt>
<trkpt lat="63.814907074" lon="-20.347097397">
<ele>39.661133</ele>
<time>2012-07-27T12:23:48Z</time>
<speed>3.710000</speed>
<extensions>
<speed>3.7</speed>
<temp>0.00</temp>
<bpm>0</bpm>
<rpm>0.00</rpm>
</extensions>
</trkpt>
<trkpt lat="63.815029144" lon="-20.347366333">
<ele>39.973633</ele>
<time>2012-07-27T12:23:53Z</time>
<speed>3.560000</speed>
<extensions>
<speed>3.6</speed>
<temp>0.00</temp>
<bpm>0</bpm>
<rpm>0.00</rpm>
</extensions>
</trkpt>
<trkpt lat="63.815116882" lon="-20.347564697">
<ele>40.289063</ele>
<time>2012-07-27T12:23:58Z</time>
<speed>2.350000</speed>
<extensions>
<speed>2.4</speed>
<temp>0.00</temp>
<bpm>0</bpm>
<rpm>0.00</rpm>
</extensions>
</trkpt>
<trkpt lat="63.815212250" lon="-20.347763062">
<ele>40.678711</ele>
<time>2012-07-27T12:24:03Z</time>
<speed>3.370000</speed>
<extensions>
<speed>3.4</speed>
<temp>0.00</temp>
<bpm>0</bpm>
<rpm>0.00</rpm>
</extensions>
</trkpt>
<trkpt lat="63.815326691" lon="-20.348016739">
<ele>41.283203</ele>
<time>2012-07-27T12:24:08Z</time>
<speed>3.740000</speed>
<extensions>
<speed>3.7</speed>
<temp>0.00</temp>
<bpm>0</bpm>
<rpm>0.00</rpm>
</extensions>
</trkpt>
<trkpt lat="63.815444946" lon="-20.348260880">
<ele>41.916016</ele>
<time>2012-07-27T12:24:13Z</time>
<speed>3.420000</speed>
<extensions>
<speed>3.4</speed>
<temp>0.00</temp>
<bpm>0</bpm>
<rpm>0.00</rpm>
</extensions>
</trkpt>
<trkpt lat="63.815570831" lon="-20.348520279">
<ele>42.046875</ele>
<time>2012-07-27T12:24:18Z</time>
<speed>4.200000</speed>
<extensions>
<speed>4.2</speed>
<temp>0.00</temp>
<bpm>0</bpm>
<rpm>0.00</rpm>
</extensions>
</trkpt>
<trkpt lat="63.815719604" lon="-20.348802567">
<ele>42.367188</ele>
<time>2012-07-27T12:24:23Z</time>
<speed>4.570000</speed>
<extensions>
<speed>4.6</speed>
<temp>0.00</temp>
<bpm>0</bpm>
<rpm>0.00</rpm>
</extensions>
</trkpt>
<trkpt lat="63.815868378" lon="-20.349098206">
<ele>42.482422</ele>
<time>2012-07-27T12:24:28Z</time>
<speed>3.900000</speed>
<extensions>
<speed>3.9</speed>
<temp>0.00</temp>
<bpm>0</bpm>
<rpm>0.00</rpm>
</extensions>
</trkpt>
<trkpt lat="63.815982819" lon="-20.349330902">
<ele>42.556641</ele>
<time>2012-07-27T12:24:33Z</time>
<speed>3.100000</speed>
<extensions>
<speed>3.1</speed>
<temp>0.00</temp>
<bpm>0</bpm>
<rpm>0.00</rpm>
</extensions>
</trkpt>
<trkpt lat="63.816085815" lon="-20.349519730">
<ele>42.614258</ele>
<time>2012-07-27T12:24:38Z</time>
<speed>3.120000</speed>
<extensions>
<speed>3.1</speed>
<temp>0.00</temp>
<bpm>0</bpm>
<rpm>0.00</rpm>
</extensions>
</trkpt>
<trkpt lat="63.816204071" lon="-20.349754333">
<ele>43.103516</ele>
<time>2012-07-27T12:24:43Z</time>
<speed>3.890000</speed>
<extensions>
<speed>3.9</speed>
<temp>0.00</temp>
<bpm>0</bpm>
<rpm>0.00</rpm>
</extensions>
</trkpt>
<trkpt lat="63.816356659" lon="-20.350028992">
<ele>43.236328</ele>
<time>2012-07-27T12:24:48Z</time>
<speed>4.380000</speed>
<extensions>
<speed>4.4</speed>
<temp>0.00</temp>
<bpm>0</bpm>
<rpm>0.00</rpm>
</extensions>
</trkpt>
<trkpt lat="63.816497803" lon="-20.350288391">
<ele>43.472656</ele>
<time>2012-07-27T12:24:53Z</time>
<speed>3.890000</speed>
<extensions>
<speed>3.9</speed>
<temp>0.00</temp>
<bpm>0</bpm>
<rpm>0.00</rpm>
</extensions>
</trkpt>
<trkpt lat="63.816631317" lon="-20.350522995">
<ele>43.547852</ele>
<time>2012-07-27T12:24:58Z</time>
<speed>3.430000</speed>
<extensions>
<speed>3.4</speed>
<temp>0.00</temp>
<bpm>0</bpm>
<rpm>0.00</rpm>
</extensions>
</trkpt>
<trkpt lat="63.816745758" lon="-20.350721359">
<ele>43.500977</ele>
<time>2012-07-27T12:25:03Z</time>
<speed>3.230000</speed>
<extensions>
<speed>3.2</speed>
<temp>0.00</temp>
<bpm>0</bpm>
<rpm>0.00</rpm>
</extensions>
</trkpt>
<trkpt lat="63.816875458" lon="-20.350959778">
<ele>42.969727</ele>
<time>2012-07-27T12:25:08Z</time>
<speed>4.060000</speed>
<extensions>
<speed>4.1</speed>
<temp>0.00</temp>
<bpm>0</bpm>
<rpm>0.00</rpm>
</extensions>
</trkpt>
<trkpt lat="63.817028046" lon="-20.351219177">
<ele>42.547852</ele>
<time>2012-07-27T12:25:13Z</time>
<speed>4.590000</speed>
<extensions>
<speed>4.6</speed>
<temp>0.00</temp>
<bpm>0</bpm>
<rpm>0.00</rpm>
</extensions>
</trkpt>
<trkpt lat="63.817195892" lon="-20.351511002">
<ele>42.130859</ele>
<time>2012-07-27T12:25:18Z</time>
<speed>4.380000</speed>
<extensions>
<speed>4.4</speed>
<temp>0.00</temp>
<bpm>0</bpm>
<rpm>0.00</rpm>
</extensions>
</trkpt>
<trkpt lat="63.817344666" lon="-20.351768494">
<ele>41.592773</ele>
<time>2012-07-27T12:25:23Z</time>
<speed>4.080000</speed>
<extensions>
<speed>4.1</speed>
<temp>0.00</temp>
<bpm>0</bpm>
<rpm>0.00</rpm>
</extensions>
</trkpt>
<trkpt lat="63.817497253" lon="-20.352006912">
<ele>40.980469</ele>
<time>2012-07-27T12:25:28Z</time>
<speed>4.170000</speed>
<extensions>
<speed>4.2</speed>
<temp>0.00</temp>
<bpm>0</bpm>
<rpm>0.00</rpm>
</extensions>
</trkpt>
<trkpt lat="63.817661285" lon="-20.352237701">
<ele>40.427734</ele>
<time>2012-07-27T12:25:33Z</time>
<speed>4.230000</speed>
<extensions>
<speed>4.2</speed>
<temp>0.00</temp>
<bpm>0</bpm>
<rpm>0.00</rpm>
</extensions>
</trkpt>
<trkpt lat="63.817821503" lon="-20.352472305">
<ele>39.735352</ele>
<time>2012-07-27T12:25:38Z</time>
<speed>4.210000</speed>
<extensions>
<speed>4.2</speed>
<temp>0.00</temp>
<bpm>0</bpm>
<rpm>0.00</rpm>
</extensions>
</trkpt>
<trkpt lat="63.817970276" lon="-20.352703094">
<ele>39.530273</ele>
<time>2012-07-27T12:25:43Z</time>
<speed>4.140000</speed>
<extensions>
<speed>4.1</speed>
<temp>0.00</temp>
<bpm>0</bpm>
<rpm>0.00</rpm>
</extensions>
</trkpt>
<trkpt lat="63.818134308" lon="-20.352945328">
<ele>38.182617</ele>
<time>2012-07-27T12:25:48Z</time>
<speed>4.730000</speed>
<extensions>
<speed>4.7</speed>
<temp>0.00</temp>
<bpm>0</bpm>
<rpm>0.00</rpm>
</extensions>
</trkpt>
<trkpt lat="63.818332672" lon="-20.353225708">
<ele>36.916992</ele>
<time>2012-07-27T12:25:53Z</time>
<speed>5.360000</speed>
<extensions>
<speed>5.4</speed>
<temp>0.00</temp>
<bpm>0</bpm>
<rpm>0.00</rpm>
</extensions>
</trkpt>
<trkpt lat="63.818546295" lon="-20.353536606">
<ele>35.143555</ele>
<time>2012-07-27T12:25:58Z</time>
<speed>6.060000</speed>
<extensions>
<speed>6.1</speed>
<temp>0.00</temp>
<bpm>0</bpm>
<rpm>0.00</rpm>
</extensions>
</trkpt>
<trkpt lat="63.818790436" lon="-20.353879929">
<ele>33.110352</ele>
<time>2012-07-27T12:26:03Z</time>
<speed>6.620000</speed>
<extensions>
<speed>6.6</speed>
<temp>0.00</temp>
<bpm>0</bpm>
<rpm>0.00</rpm>
</extensions>
</trkpt>
<trkpt lat="63.819038391" lon="-20.354221344">
<ele>31.296875</ele>
<time>2012-07-27T12:26:08Z</time>
<speed>5.990000</speed>
<extensions>
<speed>6.0</speed>
<temp>0.00</temp>
<bpm>0</bpm>
<rpm>0.00</rpm>
</extensions>
</trkpt>
<trkpt lat="63.819263458" lon="-20.354520798">
<ele>29.843262</ele>
<time>2012-07-27T12:26:13Z</time>
<speed>5.550000</speed>
<extensions>
<speed>5.5</speed>
<temp>0.00</temp>
<bpm>0</bpm>
<rpm>0.00</rpm>
</extensions>
</trkpt>
<trkpt lat="63.819461823" lon="-20.354797363">
<ele>27.813477</ele>
<time>2012-07-27T12:26:18Z</time>
<speed>5.060000</speed>
<extensions>
<speed>5.1</speed>
<temp>0.00</temp>
<bpm>0</bpm>
<rpm>0.00</rpm>
</extensions>
</trkpt>
<trkpt lat="63.819644928" lon="-20.355030060">
<ele>26.130859</ele>
<time>2012-07-27T12:26:23Z</time>
<speed>4.750000</speed>
<extensions>
<speed>4.8</speed>
<temp>0.00</temp>
<bpm>0</bpm>
<rpm>0.00</rpm>
</extensions>
</trkpt>
<trkpt lat="63.819828033" lon="-20.355306625">
<ele>27.622559</ele>
<time>2012-07-27T12:26:28Z</time>
<speed>4.990000</speed>
<extensions>
<speed>5.0</speed>
<temp>0.00</temp>
<bpm>0</bpm>
<rpm>0.00</rpm>
</extensions>
</trkpt>
<trkpt lat="63.820011139" lon="-20.355573654">
<ele>26.681641</ele>
<time>2012-07-27T12:26:33Z</time>
<speed>4.620000</speed>
<extensions>
<speed>4.6</speed>
<temp>0.00</temp>
<bpm>0</bpm>
<rpm>0.00</rpm>
</extensions>
</trkpt>
<trkpt lat="63.820182800" lon="-20.355796814">
<ele>25.758301</ele>
<time>2012-07-27T12:26:38Z</time>
<speed>4.550000</speed>
<extensions>
<speed>4.5</speed>
<temp>0.00</temp>
<bpm>0</bpm>
<rpm>0.00</rpm>
</extensions>
</trkpt>
<trkpt lat="63.820362091" lon="-20.356060028">
<ele>24.375000</ele>
<time>2012-07-27T12:26:43Z</time>
<speed>4.760000</speed>
<extensions>
<speed>4.8</speed>
<temp>0.00</temp>
<bpm>0</bpm>
<rpm>0.00</rpm>
</extensions>
</trkpt>
<trkpt lat="63.820549011" lon="-20.356321335">
<ele>22.837891</ele>
<time>2012-07-27T12:26:48Z</time>
<speed>5.130000</speed>
<extensions>
<speed>5.1</speed>
<temp>0.00</temp>
<bpm>0</bpm>
<rpm>0.00</rpm>
</extensions>
</trkpt>
<trkpt lat="63.820743561" lon="-20.356582642">
<ele>21.220703</ele>
<time>2012-07-27T12:26:53Z</time>
<speed>4.650000</speed>
<extensions>
<speed>4.6</speed>
<temp>0.00</temp>
<bpm>0</bpm>
<rpm>0.00</rpm>
</extensions>
</trkpt>
<trkpt lat="63.820922852" lon="-20.356779099">
<ele>23.779785</ele>
<time>2012-07-27T12:26:58Z</time>
<speed>4.220000</speed>
<extensions>
<speed>4.2</speed>
<temp>0.00</temp>
<bpm>0</bpm>
<rpm>0.00</rpm>
</extensions>
</trkpt>
<trkpt lat="63.821102142" lon="-20.357017517">
<ele>25.056641</ele>
<time>2012-07-27T12:27:03Z</time>
<speed>4.610000</speed>
<extensions>
<speed>4.6</speed>
<temp>0.00</temp>
<bpm>0</bpm>
<rpm>0.00</rpm>
</extensions>
</trkpt>
<trkpt lat="63.821269989" lon="-20.357284546">
<ele>20.216309</ele>
<time>2012-07-27T12:27:08Z</time>
<speed>4.430000</speed>
<extensions>
<speed>4.4</speed>
<temp>0.00</temp>
<bpm>0</bpm>
<rpm>0.00</rpm>
</extensions>
</trkpt>
<trkpt lat="63.821437836" lon="-20.357513428">
<ele>17.875000</ele>
<time>2012-07-27T12:27:13Z</time>
<speed>4.480000</speed>
<extensions>
<speed>4.5</speed>
<temp>0.00</temp>
<bpm>0</bpm>
<rpm>0.00</rpm>
</extensions>
</trkpt>
<trkpt lat="63.821590424" lon="-20.357736588">
<ele>17.273438</ele>
<time>2012-07-27T12:27:18Z</time>
<speed>3.620000</speed>
<extensions>
<speed>3.6</speed>
<temp>0.00</temp>
<bpm>0</bpm>
<rpm>0.00</rpm>
</extensions>
</trkpt>
<trkpt lat="63.821735382" lon="-20.357940674">
<ele>17.607910</ele>
<time>2012-07-27T12:27:23Z</time>
<speed>3.890000</speed>
<extensions>
<speed>3.9</speed>
<temp>0.00</temp>
<bpm>0</bpm>
<rpm>0.00</rpm>
</extensions>
</trkpt>
<trkpt lat="63.821868896" lon="-20.358150482">
<ele>18.833008</ele>
<time>2012-07-27T12:27:28Z</time>
<speed>3.560000</speed>
<extensions>
<speed>3.6</speed>
<temp>0.00</temp>
<bpm>0</bpm>
<rpm>0.00</rpm>
</extensions>
</trkpt>
<trkpt lat="63.821994781" lon="-20.358348846">
<ele>19.861328</ele>
<time>2012-07-27T12:27:33Z</time>
<speed>3.440000</speed>
<extensions>
<speed>3.4</speed>
<temp>0.00</temp>
<bpm>0</bpm>
<rpm>0.00</rpm>
</extensions>
</trkpt>
<trkpt lat="63.822124481" lon="-20.358552933">
<ele>20.383301</ele>
<time>2012-07-27T12:27:38Z</time>
<speed>3.550000</speed>
<extensions>
<speed>3.5</speed>
<temp>0.00</temp>
<bpm>0</bpm>
<rpm>0.00</rpm>
</extensions>
</trkpt>
<trkpt lat="63.822250366" lon="-20.358741760">
<ele>20.678223</ele>
<time>2012-07-27T12:27:43Z</time>
<speed>3.450000</speed>
<extensions>
<speed>3.5</speed>
<temp>0.00</temp>
<bpm>0</bpm>
<rpm>0.00</rpm>
</extensions>
</trkpt>
<trkpt lat="63.822380066" lon="-20.358942032">
<ele>20.849609</ele>
<time>2012-07-27T12:27:48Z</time>
<speed>3.450000</speed>
<extensions>
<speed>3.5</speed>
<temp>0.00</temp>
<bpm>0</bpm>
<rpm>0.00</rpm>
</extensions>
</trkpt>
<trkpt lat="63.822486877" lon="-20.359121323">
<ele>20.413574</ele>
<time>2012-07-27T12:27:53Z</time>
<speed>2.480000</speed>
<extensions>
<speed>2.5</speed>
<temp>0.00</temp>
<bpm>0</bpm>
<rpm>0.00</rpm>
</extensions>
</trkpt>
<trkpt lat="63.822589874" lon="-20.359289169">
<ele>20.435547</ele>
<time>2012-07-27T12:27:58Z</time>
<speed>3.040000</speed>
<extensions>
<speed>3.0</speed>
<temp>0.00</temp>
<bpm>0</bpm>
<rpm>0.00</rpm>
</extensions>
</trkpt>
<trkpt lat="63.822696686" lon="-20.359472275">
<ele>21.398438</ele>
<time>2012-07-27T12:28:03Z</time>
<speed>2.980000</speed>
<extensions>
<speed>3.0</speed>
<temp>0.00</temp>
<bpm>0</bpm>
<rpm>0.00</rpm>
</extensions>
</trkpt>
<trkpt lat="63.822807312" lon="-20.359651566">
<ele>22.467285</ele>
<time>2012-07-27T12:28:08Z</time>
<speed>3.010000</speed>
<extensions>
<speed>3.0</speed>
<temp>0.00</temp>
<bpm>0</bpm>
<rpm>0.00</rpm>
</extensions>
</trkpt>
<trkpt lat="63.822914124" lon="-20.359840393">
<ele>22.809570</ele>
<time>2012-07-27T12:28:13Z</time>
<speed>2.960000</speed>
<extensions>
<speed>3.0</speed>
<temp>0.00</temp>
<bpm>0</bpm>
<rpm>0.00</rpm>
</extensions>
</trkpt>
<trkpt lat="63.823017120" lon="-20.360031128">
<ele>23.320313</ele>
<time>2012-07-27T12:28:18Z</time>
<speed>2.960000</speed>
<extensions>
<speed>3.0</speed>
<temp>0.00</temp>
<bpm>0</bpm>
<rpm>0.00</rpm>
</extensions>
</trkpt>
<trkpt lat="63.823127747" lon="-20.360200882">
<ele>24.258789</ele>
<time>2012-07-27T12:28:23Z</time>
<speed>2.830000</speed>
<extensions>
<speed>2.8</speed>
<temp>0.00</temp>
<bpm>0</bpm>
<rpm>0.00</rpm>
</extensions>
</trkpt>
<trkpt lat="63.823223114" lon="-20.360364914">
<ele>24.626953</ele>
<time>2012-07-27T12:28:28Z</time>
<speed>2.210000</speed>
<extensions>
<speed>2.2</speed>
<temp>0.00</temp>
<bpm>0</bpm>
<rpm>0.00</rpm>
</extensions>
</trkpt>
<trkpt lat="63.823280334" lon="-20.360475540">
<ele>25.715820</ele>
<time>2012-07-27T12:28:33Z</time>
<speed>1.940000</speed>
<extensions>
<speed>1.9</speed>
<temp>0.00</temp>
<bpm>0</bpm>
<rpm>0.00</rpm>
</extensions>
</trkpt>
<trkpt lat="63.823364258" lon="-20.360618591">
<ele>26.194336</ele>
<time>2012-07-27T12:28:38Z</time>
<speed>2.420000</speed>
<extensions>
<speed>2.4</speed>
<temp>0.00</temp>
<bpm>0</bpm>
<rpm>0.00</rpm>
</extensions>
</trkpt>
<trkpt lat="63.823448181" lon="-20.360782623">
<ele>27.501465</ele>
<time>2012-07-27T12:28:43Z</time>
<speed>2.630000</speed>
<extensions>
<speed>2.6</speed>
<temp>0.00</temp>
<bpm>0</bpm>
<rpm>0.00</rpm>
</extensions>
</trkpt>
<trkpt lat="63.823535919" lon="-20.360933304">
<ele>28.232422</ele>
<time>2012-07-27T12:28:48Z</time>
<speed>2.450000</speed>
<extensions>
<speed>2.4</speed>
<temp>0.00</temp>
<bpm>0</bpm>
<rpm>0.00</rpm>
</extensions>
</trkpt>
<trkpt lat="63.823623657" lon="-20.361101151">
<ele>29.378418</ele>
<time>2012-07-27T12:28:53Z</time>
<speed>2.600000</speed>
<extensions>
<speed>2.6</speed>
<temp>0.00</temp>
<bpm>0</bpm>
<rpm>0.00</rpm>
</extensions>
</trkpt>
<trkpt lat="63.823715210" lon="-20.361270905">
<ele>30.481445</ele>
<time>2012-07-27T12:28:58Z</time>
<speed>2.590000</speed>
<extensions>
<speed>2.6</speed>
<temp>0.00</temp>
<bpm>0</bpm>
<rpm>0.00</rpm>
</extensions>
</trkpt>
<trkpt lat="63.823806763" lon="-20.361440659">
<ele>30.907715</ele>
<time>2012-07-27T12:29:03Z</time>
<speed>2.550000</speed>
<extensions>
<speed>2.6</speed>
<temp>0.00</temp>
<bpm>0</bpm>
<rpm>0.00</rpm>
</extensions>
</trkpt>
<trkpt lat="63.823890686" lon="-20.361612320">
<ele>31.996582</ele>
<time>2012-07-27T12:29:08Z</time>
<speed>2.660000</speed>
<extensions>
<speed>2.7</speed>
<temp>0.00</temp>
<bpm>0</bpm>
<rpm>0.00</rpm>
</extensions>
</trkpt>
<trkpt lat="63.823978424" lon="-20.361793518">
<ele>32.693359</ele>
<time>2012-07-27T12:29:13Z</time>
<speed>2.660000</speed>
<extensions>
<speed>2.7</speed>
<temp>0.00</temp>
<bpm>0</bpm>
<rpm>0.00</rpm>
</extensions>
</trkpt>
<trkpt lat="63.824066162" lon="-20.361978531">
<ele>33.458984</ele>
<time>2012-07-27T12:29:18Z</time>
<speed>2.740000</speed>
<extensions>
<speed>2.7</speed>
<temp>0.00</temp>
<bpm>0</bpm>
<rpm>0.00</rpm>
</extensions>
</trkpt>
<trkpt lat="63.824157715" lon="-20.362176895">
<ele>33.910156</ele>
<time>2012-07-27T12:29:23Z</time>
<speed>2.940000</speed>
<extensions>
<speed>2.9</speed>
<temp>0.00</temp>
<bpm>0</bpm>
<rpm>0.00</rpm>
</extensions>
</trkpt>
<trkpt lat="63.824245453" lon="-20.362377167">
<ele>33.970703</ele>
<time>2012-07-27T12:29:28Z</time>
<speed>2.780000</speed>
<extensions>
<speed>2.8</speed>
<temp>0.00</temp>
<bpm>0</bpm>
<rpm>0.00</rpm>
</extensions>
</trkpt>
<trkpt lat="63.824344635" lon="-20.362600327">
<ele>34.314453</ele>
<time>2012-07-27T12:29:33Z</time>
<speed>3.240000</speed>
<extensions>
<speed>3.2</speed>
<temp>0.00</temp>
<bpm>0</bpm>
<rpm>0.00</rpm>
</extensions>
</trkpt>
<trkpt lat="63.824451447" lon="-20.362842560">
<ele>34.835938</ele>
<time>2012-07-27T12:29:38Z</time>
<speed>3.310000</speed>
<extensions>
<speed>3.3</speed>
<temp>0.00</temp>
<bpm>0</bpm>
<rpm>0.00</rpm>
</extensions>
</trkpt>
<trkpt lat="63.824539185" lon="-20.363039017">
<ele>35.052734</ele>
<time>2012-07-27T12:29:43Z</time>
<speed>2.140000</speed>
<extensions>
<speed>2.1</speed>
<temp>0.00</temp>
<bpm>0</bpm>
<rpm>0.00</rpm>
</extensions>
</trkpt>
<trkpt lat="63.824592590" lon="-20.363180161">
<ele>34.786133</ele>
<time>2012-07-27T12:29:48Z</time>
<speed>2.240000</speed>
<extensions>
<speed>2.2</speed>
<temp>0.00</temp>
<bpm>0</bpm>
<rpm>0.00</rpm>
</extensions>
</trkpt>
<trkpt lat="63.824680328" lon="-20.363391876">
<ele>35.071289</ele>
<time>2012-07-27T12:29:53Z</time>
<speed>3.280000</speed>
<extensions>
<speed>3.3</speed>
<temp>0.00</temp>
<bpm>0</bpm>
<rpm>0.00</rpm>
</extensions>
</trkpt>
<trkpt lat="63.824783325" lon="-20.363643646">
<ele>35.627930</ele>
<time>2012-07-27T12:29:58Z</time>
<speed>3.510000</speed>
<extensions>
<speed>3.5</speed>
<temp>0.00</temp>
<bpm>0</bpm>
<rpm>0.00</rpm>
</extensions>
</trkpt>
<trkpt lat="63.824893951" lon="-20.363924026">
<ele>35.652344</ele>
<time>2012-07-27T12:30:03Z</time>
<speed>3.740000</speed>
<extensions>
<speed>3.7</speed>
<temp>0.00</temp>
<bpm>0</bpm>
<rpm>0.00</rpm>
</extensions>
</trkpt>
<trkpt lat="63.824989319" lon="-20.364177704">
<ele>35.633789</ele>
<time>2012-07-27T12:30:08Z</time>
<speed>2.650000</speed>
<extensions>
<speed>2.6</speed>
<temp>0.00</temp>
<bpm>0</bpm>
<rpm>0.00</rpm>
</extensions>
</trkpt>
<trkpt lat="63.825046539" lon="-20.364343643">
<ele>35.846680</ele>
<time>2012-07-27T12:30:13Z</time>
<speed>1.450000</speed>
<extensions>
<speed>1.4</speed>
<temp>0.00</temp>
<bpm>0</bpm>
<rpm>0.00</rpm>
</extensions>
</trkpt>
<trkpt lat="63.825065613" lon="-20.364366531">
<ele>37.049805</ele>
<time>2012-07-27T12:30:18Z</time>
<speed>0.090000</speed>
<extensions>
<speed>0.1</speed>
<temp>0.00</temp>
<bpm>0</bpm>
<rpm>0.00</rpm>
</extensions>
</trkpt>
<trkpt lat="63.825069427" lon="-20.364368439">
<ele>37.103516</ele>
<time>2012-07-27T12:30:23Z</time>
<speed>0.090000</speed>
<extensions>
<speed>0.1</speed>
<temp>0.00</temp>
<bpm>0</bpm>
<rpm>0.00</rpm>
</extensions>
</trkpt>
<trkpt lat="63.825073242" lon="-20.364370346">
<ele>37.054688</ele>
<time>2012-07-27T12:30:28Z</time>
<speed>0.010000</speed>
<extensions>
<speed>0.0</speed>
<temp>0.00</temp>
<bpm>0</bpm>
<rpm>0.00</rpm>
</extensions>
</trkpt>
<trkpt lat="63.825073242" lon="-20.364370346">
<ele>37.087891</ele>
<time>2012-07-27T12:30:33Z</time>
<speed>0.010000</speed>
<extensions>
<speed>0.0</speed>
<temp>0.00</temp>
<bpm>0</bpm>
<rpm>0.00</rpm>
</extensions>
</trkpt>
<trkpt lat="63.825073242" lon="-20.364370346">
<ele>37.083984</ele>
<time>2012-07-27T12:30:38Z</time>
<speed>0.010000</speed>
<extensions>
<speed>0.0</speed>
<temp>0.00</temp>
<bpm>0</bpm>
<rpm>0.00</rpm>
</extensions>
</trkpt>
<trkpt lat="63.825073242" lon="-20.364370346">
<ele>37.118164</ele>
<time>2012-07-27T12:30:43Z</time>
<extensions>
<speed>0.0</speed>
<temp>0.00</temp>
<bpm>0</bpm>
<rpm>0.00</rpm>
</extensions>
</trkpt>
<trkpt lat="63.825073242" lon="-20.364370346">
<ele>37.128906</ele>
<time>2012-07-27T12:30:48Z</time>
<extensions>
<speed>0.0</speed>
<temp>0.00</temp>
<bpm>0</bpm>
<rpm>0.00</rpm>
</extensions>
</trkpt>
<trkpt lat="63.825073242" lon="-20.364368439">
<ele>37.155273</ele>
<time>2012-07-27T12:30:53Z</time>
<speed>0.010000</speed>
<extensions>
<speed>0.0</speed>
<temp>0.00</temp>
<bpm>0</bpm>
<rpm>0.00</rpm>
</extensions>
</trkpt>
<trkpt lat="63.825073242" lon="-20.364368439">
<ele>37.181641</ele>
<time>2012-07-27T12:30:58Z</time>
<speed>0.010000</speed>
<extensions>
<speed>0.0</speed>
<temp>0.00</temp>
<bpm>0</bpm>
<rpm>0.00</rpm>
</extensions>
</trkpt>
<trkpt lat="63.825073242" lon="-20.364368439">
<ele>37.216797</ele>
<time>2012-07-27T12:31:03Z</time>
<extensions>
<speed>0.0</speed>
<temp>0.00</temp>
<bpm>0</bpm>
<rpm>0.00</rpm>
</extensions>
</trkpt>
<trkpt lat="63.825073242" lon="-20.364368439">
<ele>37.250977</ele>
<time>2012-07-27T12:31:08Z</time>
<speed>0.060000</speed>
<extensions>
<speed>0.1</speed>
<temp>0.00</temp>
<bpm>0</bpm>
<rpm>0.00</rpm>
</extensions>
</trkpt>
<trkpt lat="63.825069427" lon="-20.364368439">
<ele>37.284180</ele>
<time>2012-07-27T12:31:13Z</time>
<speed>0.010000</speed>
<extensions>
<speed>0.0</speed>
<temp>0.00</temp>
<bpm>0</bpm>
<rpm>0.00</rpm>
</extensions>
</trkpt>
<trkpt lat="63.825069427" lon="-20.364377975">
<ele>37.305664</ele>
<time>2012-07-27T12:31:18Z</time>
<speed>0.490000</speed>
<extensions>
<speed>0.5</speed>
<temp>0.00</temp>
<bpm>0</bpm>
<rpm>0.00</rpm>
</extensions>
</trkpt>
<trkpt lat="63.825096130" lon="-20.364465714">
<ele>37.435547</ele>
<time>2012-07-27T12:31:23Z</time>
<speed>1.130000</speed>
<extensions>
<speed>1.1</speed>
<temp>0.00</temp>
<bpm>0</bpm>
<rpm>0.00</rpm>
</extensions>
</trkpt>
<trkpt lat="63.825122833" lon="-20.364519119">
<ele>37.541016</ele>
<time>2012-07-27T12:31:28Z</time>
<speed>0.250000</speed>
<extensions>
<speed>0.2</speed>
<temp>0.00</temp>
<bpm>0</bpm>
<rpm>0.00</rpm>
</extensions>
</trkpt>
<trkpt lat="63.825122833" lon="-20.364522934">
<ele>37.645508</ele>
<time>2012-07-27T12:31:33Z</time>
<speed>0.010000</speed>
<extensions>
<speed>0.0</speed>
<temp>0.00</temp>
<bpm>0</bpm>
<rpm>0.00</rpm>
</extensions>
</trkpt>
<trkpt lat="63.825122833" lon="-20.364522934">
<ele>37.639648</ele>
<time>2012-07-27T12:31:38Z</time>
<extensions>
<speed>0.0</speed>
<temp>0.00</temp>
<bpm>0</bpm>
<rpm>0.00</rpm>
</extensions>
</trkpt>
<trkpt lat="63.825122833" lon="-20.364522934">
<ele>37.646484</ele>
<time>2012-07-27T12:31:43Z</time>
<speed>0.150000</speed>
<extensions>
<speed>0.2</speed>
<temp>0.00</temp>
<bpm>0</bpm>
<rpm>0.00</rpm>
</extensions>
</trkpt>
<trkpt lat="63.825122833" lon="-20.364530563">
<ele>37.569336</ele>
<time>2012-07-27T12:31:48Z</time>
<speed>0.010000</speed>
<extensions>
<speed>0.0</speed>
<temp>0.00</temp>
<bpm>0</bpm>
<rpm>0.00</rpm>
</extensions>
</trkpt>
<trkpt lat="63.825122833" lon="-20.364528656">
<ele>37.566406</ele>
<time>2012-07-27T12:31:53Z</time>
<extensions>
<speed>0.0</speed>
<temp>0.00</temp>
<bpm>0</bpm>
<rpm>0.00</rpm>
</extensions>
</trkpt>
<trkpt lat="63.825126648" lon="-20.364530563">
<ele>37.572266</ele>
<time>2012-07-27T12:31:58Z</time>
<extensions>
<speed>0.0</speed>
<temp>0.00</temp>
<bpm>0</bpm>
<rpm>0.00</rpm>
</extensions>
</trkpt>
<trkpt lat="63.825126648" lon="-20.364530563">
<ele>37.582031</ele>
<time>2012-07-27T12:32:03Z</time>
<speed>0.010000</speed>
<extensions>
<speed>0.0</speed>
<temp>0.00</temp>
<bpm>0</bpm>
<rpm>0.00</rpm>
</extensions>
</trkpt>
<trkpt lat="63.825126648" lon="-20.364530563">
<ele>37.584961</ele>
<time>2012-07-27T12:32:08Z</time>
<extensions>
<speed>0.0</speed>
<temp>0.00</temp>
<bpm>0</bpm>
<rpm>0.00</rpm>
</extensions>
</trkpt>
<trkpt lat="63.825126648" lon="-20.364530563">
<ele>37.587891</ele>
<time>2012-07-27T12:32:13Z</time>
<extensions>
<speed>0.0</speed>
<temp>0.00</temp>
<bpm>0</bpm>
<rpm>0.00</rpm>
</extensions>
</trkpt>
<trkpt lat="63.825126648" lon="-20.364530563">
<ele>37.590820</ele>
<time>2012-07-27T12:32:18Z</time>
<speed>0.010000</speed>
<extensions>
<speed>0.0</speed>
<temp>0.00</temp>
<bpm>0</bpm>
<rpm>0.00</rpm>
</extensions>
</trkpt>
<trkpt lat="63.825126648" lon="-20.364530563">
<ele>37.594727</ele>
<time>2012-07-27T12:32:23Z</time>
<speed>0.040000</speed>
<extensions>
<speed>0.0</speed>
<temp>0.00</temp>
<bpm>0</bpm>
<rpm>0.00</rpm>
</extensions>
</trkpt>
<trkpt lat="63.825126648" lon="-20.364530563">
<ele>37.598633</ele>
<time>2012-07-27T12:32:28Z</time>
<extensions>
<speed>0.0</speed>
<temp>0.00</temp>
<bpm>0</bpm>
<rpm>0.00</rpm>
</extensions>
</trkpt>
<trkpt lat="63.825126648" lon="-20.364530563">
<ele>37.601563</ele>
<time>2012-07-27T12:32:33Z</time>
<extensions>
<speed>0.0</speed>
<temp>0.00</temp>
<bpm>0</bpm>
<rpm>0.00</rpm>
</extensions>
</trkpt>
<trkpt lat="63.825126648" lon="-20.364532471">
<ele>37.700195</ele>
<time>2012-07-27T12:32:38Z</time>
<speed>0.010000</speed>
<extensions>
<speed>0.0</speed>
<temp>0.00</temp>
<bpm>0</bpm>
<rpm>0.00</rpm>
</extensions>
</trkpt>
<trkpt lat="63.825130463" lon="-20.364540100">
<ele>37.525391</ele>
<time>2012-07-27T12:32:43Z</time>
<speed>0.140000</speed>
<extensions>
<speed>0.1</speed>
<temp>0.00</temp>
<bpm>0</bpm>
<rpm>0.00</rpm>
</extensions>
</trkpt>
<trkpt lat="63.825130463" lon="-20.364578247">
<ele>36.700195</ele>
<time>2012-07-27T12:32:48Z</time>
<speed>1.190000</speed>
<extensions>
<speed>1.2</speed>
<temp>0.00</temp>
<bpm>0</bpm>
<rpm>0.00</rpm>
</extensions>
</trkpt>
<trkpt lat="63.825176239" lon="-20.364732742">
<ele>36.617188</ele>
<time>2012-07-27T12:32:53Z</time>
<speed>2.480000</speed>
<extensions>
<speed>2.5</speed>
<temp>0.00</temp>
<bpm>0</bpm>
<rpm>0.00</rpm>
</extensions>
</trkpt>
<trkpt lat="63.825256348" lon="-20.364973068">
<ele>36.683594</ele>
<time>2012-07-27T12:32:58Z</time>
<speed>3.290000</speed>
<extensions>
<speed>3.3</speed>
<temp>0.00</temp>
<bpm>0</bpm>
<rpm>0.00</rpm>
</extensions>
</trkpt>
<trkpt lat="63.825347900" lon="-20.365234375">
<ele>36.943359</ele>
<time>2012-07-27T12:33:03Z</time>
<speed>2.980000</speed>
<extensions>
<speed>3.0</speed>
<temp>0.00</temp>
<bpm>0</bpm>
<rpm>0.00</rpm>
</extensions>
</trkpt>
<trkpt lat="63.825428009" lon="-20.365509033">
<ele>37.110352</ele>
<time>2012-07-27T12:33:08Z</time>
<speed>3.310000</speed>
<extensions>
<speed>3.3</speed>
<temp>0.00</temp>
<bpm>0</bpm>
<rpm>0.00</rpm>
</extensions>
</trkpt>
<trkpt lat="63.825504303" lon="-20.365751266">
<ele>36.854492</ele>
<time>2012-07-27T12:33:13Z</time>
<speed>2.930000</speed>
<extensions>
<speed>2.9</speed>
<temp>0.00</temp>
<bpm>0</bpm>
<rpm>0.00</rpm>
</extensions>
</trkpt>
<trkpt lat="63.825595856" lon="-20.366020203">
<ele>37.218750</ele>
<time>2012-07-27T12:33:18Z</time>
<speed>3.570000</speed>
<extensions>
<speed>3.6</speed>
<temp>0.00</temp>
<bpm>0</bpm>
<rpm>0.00</rpm>
</extensions>
</trkpt>
<trkpt lat="63.825675964" lon="-20.366323471">
<ele>36.852539</ele>
<time>2012-07-27T12:33:23Z</time>
<speed>3.780000</speed>
<extensions>
<speed>3.8</speed>
<temp>0.00</temp>
<bpm>0</bpm>
<rpm>0.00</rpm>
</extensions>
</trkpt>
<trkpt lat="63.825775146" lon="-20.366664886">
<ele>36.842773</ele>
<time>2012-07-27T12:33:28Z</time>
<speed>4.080000</speed>
<extensions>
<speed>4.1</speed>
<temp>0.00</temp>
<bpm>0</bpm>
<rpm>0.00</rpm>
</extensions>
</trkpt>
<trkpt lat="63.825866699" lon="-20.366985321">
<ele>36.591797</ele>
<time>2012-07-27T12:33:33Z</time>
<speed>3.510000</speed>
<extensions>
<speed>3.5</speed>
<temp>0.00</temp>
<bpm>0</bpm>
<rpm>0.00</rpm>
</extensions>
</trkpt>
<trkpt lat="63.825962067" lon="-20.367317200">
<ele>36.103516</ele>
<time>2012-07-27T12:33:38Z</time>
<speed>4.090000</speed>
<extensions>
<speed>4.1</speed>
<temp>0.00</temp>
<bpm>0</bpm>
<rpm>0.00</rpm>
</extensions>
</trkpt>
<trkpt lat="63.826053619" lon="-20.367645264">
<ele>35.614258</ele>
<time>2012-07-27T12:33:43Z</time>
<speed>4.190000</speed>
<extensions>
<speed>4.2</speed>
<temp>0.00</temp>
<bpm>0</bpm>
<rpm>0.00</rpm>
</extensions>
</trkpt>
<trkpt lat="63.826156616" lon="-20.368028641">
<ele>35.574219</ele>
<time>2012-07-27T12:33:48Z</time>
<speed>4.640000</speed>
<extensions>
<speed>4.6</speed>
<temp>0.00</temp>
<bpm>0</bpm>
<rpm>0.00</rpm>
</extensions>
</trkpt>
<trkpt lat="63.826267242" lon="-20.368440628">
<ele>35.095703</ele>
<time>2012-07-27T12:33:53Z</time>
<speed>4.770000</speed>
<extensions>
<speed>4.8</speed>
<temp>0.00</temp>
<bpm>0</bpm>
<rpm>0.00</rpm>
</extensions>
</trkpt>
<trkpt lat="63.826381683" lon="-20.368883133">
<ele>34.341797</ele>
<time>2012-07-27T12:33:58Z</time>
<speed>5.440000</speed>
<extensions>
<speed>5.4</speed>
<temp>0.00</temp>
<bpm>0</bpm>
<rpm>0.00</rpm>
</extensions>
</trkpt>
<trkpt lat="63.826503754" lon="-20.369382858">
<ele>33.660156</ele>
<time>2012-07-27T12:34:03Z</time>
<speed>5.930000</speed>
<extensions>
<speed>5.9</speed>
<temp>0.00</temp>
<bpm>0</bpm>
<rpm>0.00</rpm>
</extensions>
</trkpt>
<trkpt lat="63.826633453" lon="-20.369937897">
<ele>33.026367</ele>
<time>2012-07-27T12:34:08Z</time>
<speed>6.300000</speed>
<extensions>
<speed>6.3</speed>
<temp>0.00</temp>
<bpm>0</bpm>
<rpm>0.00</rpm>
</extensions>
</trkpt>
<trkpt lat="63.826763153" lon="-20.370517731">
<ele>32.934570</ele>
<time>2012-07-27T12:34:13Z</time>
<speed>6.260000</speed>
<extensions>
<speed>6.3</speed>
<temp>0.00</temp>
<bpm>0</bpm>
<rpm>0.00</rpm>
</extensions>
</trkpt>
<trkpt lat="63.826885223" lon="-20.371059418">
<ele>32.896484</ele>
<time>2012-07-27T12:34:18Z</time>
<speed>5.830000</speed>
<extensions>
<speed>5.8</speed>
<temp>0.00</temp>
<bpm>0</bpm>
<rpm>0.00</rpm>
</extensions>
</trkpt>
<trkpt lat="63.827007294" lon="-20.371614456">
<ele>32.012695</ele>
<time>2012-07-27T12:34:23Z</time>
<speed>6.110000</speed>
<extensions>
<speed>6.1</speed>
<temp>0.00</temp>
<bpm>0</bpm>
<rpm>0.00</rpm>
</extensions>
</trkpt>
<trkpt lat="63.827144623" lon="-20.372184753">
<ele>31.906250</ele>
<time>2012-07-27T12:34:28Z</time>
<speed>6.600000</speed>
<extensions>
<speed>6.6</speed>
<temp>0.00</temp>
<bpm>0</bpm>
<rpm>0.00</rpm>
</extensions>
</trkpt>
<trkpt lat="63.827281952" lon="-20.372797012">
<ele>31.467773</ele>
<time>2012-07-27T12:34:33Z</time>
<speed>6.800000</speed>
<extensions>
<speed>6.8</speed>
<temp>0.00</temp>
<bpm>0</bpm>
<rpm>0.00</rpm>
</extensions>
</trkpt>
<trkpt lat="63.827419281" lon="-20.373403549">
<ele>30.554199</ele>
<time>2012-07-27T12:34:38Z</time>
<speed>6.350000</speed>
<extensions>
<speed>6.4</speed>
<temp>0.00</temp>
<bpm>0</bpm>
<rpm>0.00</rpm>
</extensions>
</trkpt>
<trkpt lat="63.827548981" lon="-20.373973846">
<ele>30.143066</ele>
<time>2012-07-27T12:34:43Z</time>
<speed>6.190000</speed>
<extensions>
<speed>6.2</speed>
<temp>0.00</temp>
<bpm>0</bpm>
<rpm>0.00</rpm>
</extensions>
</trkpt>
<trkpt lat="63.827674866" lon="-20.374549866">
<ele>29.924316</ele>
<time>2012-07-27T12:34:48Z</time>
<speed>6.530000</speed>
<extensions>
<speed>6.5</speed>
<temp>0.00</temp>
<bpm>0</bpm>
<rpm>0.00</rpm>
</extensions>
</trkpt>
<trkpt lat="63.827812195" lon="-20.375156403">
<ele>28.813965</ele>
<time>2012-07-27T12:34:53Z</time>
<speed>6.530000</speed>
<extensions>
<speed>6.5</speed>
<temp>0.00</temp>
<bpm>0</bpm>
<rpm>0.00</rpm>
</extensions>
</trkpt>
<trkpt lat="63.827934265" lon="-20.375743866">
<ele>27.835449</ele>
<time>2012-07-27T12:34:58Z</time>
<speed>6.250000</speed>
<extensions>
<speed>6.3</speed>
<temp>0.00</temp>
<bpm>0</bpm>
<rpm>0.00</rpm>
</extensions>
</trkpt>
<trkpt lat="63.828060150" lon="-20.376279831">
<ele>27.501953</ele>
<time>2012-07-27T12:35:03Z</time>
<speed>5.740000</speed>
<extensions>
<speed>5.7</speed>
<temp>0.00</temp>
<bpm>0</bpm>
<rpm>0.00</rpm>
</extensions>
</trkpt>
<trkpt lat="63.828174591" lon="-20.376802444">
<ele>27.840332</ele>
<time>2012-07-27T12:35:08Z</time>
<speed>5.790000</speed>
<extensions>
<speed>5.8</speed>
<temp>0.00</temp>
<bpm>0</bpm>
<rpm>0.00</rpm>
</extensions>
</trkpt>
<trkpt lat="63.828285217" lon="-20.377305984">
<ele>28.130371</ele>
<time>2012-07-27T12:35:13Z</time>
<speed>5.190000</speed>
<extensions>
<speed>5.2</speed>
<temp>0.00</temp>
<bpm>0</bpm>
<rpm>0.00</rpm>
</extensions>
</trkpt>
<trkpt lat="63.828376770" lon="-20.377700806">
<ele>28.833496</ele>
<time>2012-07-27T12:35:18Z</time>
<speed>3.640000</speed>
<extensions>
<speed>3.6</speed>
<temp>0.00</temp>
<bpm>0</bpm>
<rpm>0.00</rpm>
</extensions>
</trkpt>
<trkpt lat="63.828445435" lon="-20.378004074">
<ele>29.944336</ele>
<time>2012-07-27T12:35:23Z</time>
<speed>2.960000</speed>
<extensions>
<speed>3.0</speed>
<temp>0.00</temp>
<bpm>0</bpm>
<rpm>0.00</rpm>
</extensions>
</trkpt>
<trkpt lat="63.828495026" lon="-20.378255844">
<ele>30.016602</ele>
<time>2012-07-27T12:35:28Z</time>
<speed>2.270000</speed>
<extensions>
<speed>2.3</speed>
<temp>0.00</temp>
<bpm>0</bpm>
<rpm>0.00</rpm>
</extensions>
</trkpt>
<trkpt lat="63.828536987" lon="-20.378433228">
<ele>29.946777</ele>
<time>2012-07-27T12:35:33Z</time>
<speed>1.830000</speed>
<extensions>
<speed>1.8</speed>
<temp>0.00</temp>
<bpm>0</bpm>
<rpm>0.00</rpm>
</extensions>
</trkpt>
<trkpt lat="63.828571320" lon="-20.378595352">
<ele>30.351563</ele>
<time>2012-07-27T12:35:38Z</time>
<speed>1.880000</speed>
<extensions>
<speed>1.9</speed>
<temp>0.00</temp>
<bpm>0</bpm>
<rpm>0.00</rpm>
</extensions>
</trkpt>
<trkpt lat="63.828620911" lon="-20.378789902">
<ele>30.621094</ele>
<time>2012-07-27T12:35:43Z</time>
<speed>2.190000</speed>
<extensions>
<speed>2.2</speed>
<temp>0.00</temp>
<bpm>0</bpm>
<rpm>0.00</rpm>
</extensions>
</trkpt>
<trkpt lat="63.828659058" lon="-20.378973007">
<ele>30.870117</ele>
<time>2012-07-27T12:35:48Z</time>
<speed>2.090000</speed>
<extensions>
<speed>2.1</speed>
<temp>0.00</temp>
<bpm>0</bpm>
<rpm>0.00</rpm>
</extensions>
</trkpt>
<trkpt lat="63.828708649" lon="-20.379167557">
<ele>31.579102</ele>
<time>2012-07-27T12:35:53Z</time>
<speed>2.470000</speed>
<extensions>
<speed>2.5</speed>
<temp>0.00</temp>
<bpm>0</bpm>
<rpm>0.00</rpm>
</extensions>
</trkpt>
<trkpt lat="63.828758240" lon="-20.379388809">
<ele>32.284180</ele>
<time>2012-07-27T12:35:58Z</time>
<speed>2.380000</speed>
<extensions>
<speed>2.4</speed>
<temp>0.00</temp>
<bpm>0</bpm>
<rpm>0.00</rpm>
</extensions>
</trkpt>
<trkpt lat="63.828807831" lon="-20.379617691">
<ele>32.401367</ele>
<time>2012-07-27T12:36:03Z</time>
<speed>2.560000</speed>
<extensions>
<speed>2.6</speed>
<temp>0.00</temp>
<bpm>0</bpm>
<rpm>0.00</rpm>
</extensions>
</trkpt>
<trkpt lat="63.828865051" lon="-20.379861832">
<ele>32.125000</ele>
<time>2012-07-27T12:36:08Z</time>
<speed>2.700000</speed>
<extensions>
<speed>2.7</speed>
<temp>0.00</temp>
<bpm>0</bpm>
<rpm>0.00</rpm>
</extensions>
</trkpt>
<trkpt lat="63.828914642" lon="-20.380102158">
<ele>32.619141</ele>
<time>2012-07-27T12:36:13Z</time>
<speed>2.740000</speed>
<extensions>
<speed>2.7</speed>
<temp>0.00</temp>
<bpm>0</bpm>
<rpm>0.00</rpm>
</extensions>
</trkpt>
<trkpt lat="63.828968048" lon="-20.380336761">
<ele>33.438477</ele>
<time>2012-07-27T12:36:18Z</time>
<speed>2.670000</speed>
<extensions>
<speed>2.7</speed>
<temp>0.00</temp>
<bpm>0</bpm>
<rpm>0.00</rpm>
</extensions>
</trkpt>
<trkpt lat="63.829029083" lon="-20.380578995">
<ele>33.694336</ele>
<time>2012-07-27T12:36:23Z</time>
<speed>3.160000</speed>
<extensions>
<speed>3.2</speed>
<temp>0.00</temp>
<bpm>0</bpm>
<rpm>0.00</rpm>
</extensions>
</trkpt>
<trkpt lat="63.829093933" lon="-20.380868912">
<ele>33.846680</ele>
<time>2012-07-27T12:36:28Z</time>
<speed>3.100000</speed>
<extensions>
<speed>3.1</speed>
<temp>0.00</temp>
<bpm>0</bpm>
<rpm>0.00</rpm>
</extensions>
</trkpt>
<trkpt lat="63.829151154" lon="-20.381134033">
<ele>34.278320</ele>
<time>2012-07-27T12:36:33Z</time>
<speed>2.900000</speed>
<extensions>
<speed>2.9</speed>
<temp>0.00</temp>
<bpm>0</bpm>
<rpm>0.00</rpm>
</extensions>
</trkpt>
<trkpt lat="63.829219818" lon="-20.381418228">
<ele>34.298828</ele>
<time>2012-07-27T12:36:38Z</time>
<speed>2.810000</speed>
<extensions>
<speed>2.8</speed>
<temp>0.00</temp>
<bpm>0</bpm>
<rpm>0.00</rpm>
</extensions>
</trkpt>
<trkpt lat="63.829265594" lon="-20.381671906">
<ele>35.545898</ele>
<time>2012-07-27T12:36:43Z</time>
<speed>2.970000</speed>
<extensions>
<speed>3.0</speed>
<temp>0.00</temp>
<bpm>0</bpm>
<rpm>0.00</rpm>
</extensions>
</trkpt>
<trkpt lat="63.829334259" lon="-20.381973267">
<ele>36.018555</ele>
<time>2012-07-27T12:36:48Z</time>
<speed>3.240000</speed>
<extensions>
<speed>3.2</speed>
<temp>0.00</temp>
<bpm>0</bpm>
<rpm>0.00</rpm>
</extensions>
</trkpt>
<trkpt lat="63.829402924" lon="-20.382236481">
<ele>36.064453</ele>
<time>2012-07-27T12:36:53Z</time>
<speed>2.870000</speed>
<extensions>
<speed>2.9</speed>
<temp>0.00</temp>
<bpm>0</bpm>
<rpm>0.00</rpm>
</extensions>
</trkpt>
<trkpt lat="63.829463959" lon="-20.382514954">
<ele>35.586914</ele>
<time>2012-07-27T12:36:58Z</time>
<speed>3.180000</speed>
<extensions>
<speed>3.2</speed>
<temp>0.00</temp>
<bpm>0</bpm>
<rpm>0.00</rpm>
</extensions>
</trkpt>
<trkpt lat="63.829528809" lon="-20.382789612">
<ele>36.000000</ele>
<time>2012-07-27T12:37:03Z</time>
<speed>3.140000</speed>
<extensions>
<speed>3.1</speed>
<temp>0.00</temp>
<bpm>0</bpm>
<rpm>0.00</rpm>
</extensions>
</trkpt>
<trkpt lat="63.829601288" lon="-20.383077621">
<ele>36.467773</ele>
<time>2012-07-27T12:37:08Z</time>
<speed>3.460000</speed>
<extensions>
<speed>3.5</speed>
<temp>0.00</temp>
<bpm>0</bpm>
<rpm>0.00</rpm>
</extensions>
</trkpt>
<trkpt lat="63.829666138" lon="-20.383398056">
<ele>35.527344</ele>
<time>2012-07-27T12:37:13Z</time>
<speed>3.570000</speed>
<extensions>
<speed>3.6</speed>
<temp>0.00</temp>
<bpm>0</bpm>
<rpm>0.00</rpm>
</extensions>
</trkpt>
<trkpt lat="63.829742432" lon="-20.383745193">
<ele>34.741211</ele>
<time>2012-07-27T12:37:18Z</time>
<speed>3.800000</speed>
<extensions>
<speed>3.8</speed>
<temp>0.00</temp>
<bpm>0</bpm>
<rpm>0.00</rpm>
</extensions>
</trkpt>
<trkpt lat="63.829822540" lon="-20.384094238">
<ele>34.374023</ele>
<time>2012-07-27T12:37:23Z</time>
<speed>3.390000</speed>
<extensions>
<speed>3.4</speed>
<temp>0.00</temp>
<bpm>0</bpm>
<rpm>0.00</rpm>
</extensions>
</trkpt>
<trkpt lat="63.829891205" lon="-20.384428024">
<ele>34.454102</ele>
<time>2012-07-27T12:37:28Z</time>
<speed>3.970000</speed>
<extensions>
<speed>4.0</speed>
<temp>0.00</temp>
<bpm>0</bpm>
<rpm>0.00</rpm>
</extensions>
</trkpt>
<trkpt lat="63.829967499" lon="-20.384777069">
<ele>34.748047</ele>
<time>2012-07-27T12:37:33Z</time>
<speed>4.050000</speed>
<extensions>
<speed>4.0</speed>
<temp>0.00</temp>
<bpm>0</bpm>
<rpm>0.00</rpm>
</extensions>
</trkpt>
<trkpt lat="63.830051422" lon="-20.385118484">
<ele>35.402344</ele>
<time>2012-07-27T12:37:38Z</time>
<speed>3.820000</speed>
<extensions>
<speed>3.8</speed>
<temp>0.00</temp>
<bpm>0</bpm>
<rpm>0.00</rpm>
</extensions>
</trkpt>
<trkpt lat="63.830120087" lon="-20.385433197">
<ele>35.387695</ele>
<time>2012-07-27T12:37:43Z</time>
<speed>3.120000</speed>
<extensions>
<speed>3.1</speed>
<temp>0.00</temp>
<bpm>0</bpm>
<rpm>0.00</rpm>
</extensions>
</trkpt>
<trkpt lat="63.830196381" lon="-20.385766983">
<ele>35.272461</ele>
<time>2012-07-27T12:37:48Z</time>
<speed>4.080000</speed>
<extensions>
<speed>4.1</speed>
<temp>0.00</temp>
<bpm>0</bpm>
<rpm>0.00</rpm>
</extensions>
</trkpt>
<trkpt lat="63.830276489" lon="-20.386137009">
<ele>34.747070</ele>
<time>2012-07-27T12:37:53Z</time>
<speed>3.980000</speed>
<extensions>
<speed>4.0</speed>
<temp>0.00</temp>
<bpm>0</bpm>
<rpm>0.00</rpm>
</extensions>
</trkpt>
<trkpt lat="63.830360413" lon="-20.386505127">
<ele>34.228516</ele>
<time>2012-07-27T12:37:58Z</time>
<speed>4.460000</speed>
<extensions>
<speed>4.5</speed>
<temp>0.00</temp>
<bpm>0</bpm>
<rpm>0.00</rpm>
</extensions>
</trkpt>
<trkpt lat="63.830448151" lon="-20.386915207">
<ele>34.332031</ele>
<time>2012-07-27T12:38:03Z</time>
<speed>4.380000</speed>
<extensions>
<speed>4.4</speed>
<temp>0.00</temp>
<bpm>0</bpm>
<rpm>0.00</rpm>
</extensions>
</trkpt>
<trkpt lat="63.830532074" lon="-20.387296677">
<ele>34.249023</ele>
<time>2012-07-27T12:38:08Z</time>
<speed>4.000000</speed>
<extensions>
<speed>4.0</speed>
<temp>0.00</temp>
<bpm>0</bpm>
<rpm>0.00</rpm>
</extensions>
</trkpt>
<trkpt lat="63.830608368" lon="-20.387630463">
<ele>34.156250</ele>
<time>2012-07-27T12:38:13Z</time>
<speed>3.980000</speed>
<extensions>
<speed>4.0</speed>
<temp>0.00</temp>
<bpm>0</bpm>
<rpm>0.00</rpm>
</extensions>
</trkpt>
<trkpt lat="63.830696106" lon="-20.388004303">
<ele>34.435547</ele>
<time>2012-07-27T12:38:18Z</time>
<speed>4.450000</speed>
<extensions>
<speed>4.5</speed>
<temp>0.00</temp>
<bpm>0</bpm>
<rpm>0.00</rpm>
</extensions>
</trkpt>
<trkpt lat="63.830780029" lon="-20.388372421">
<ele>34.677734</ele>
<time>2012-07-27T12:38:23Z</time>
<speed>3.870000</speed>
<extensions>
<speed>3.9</speed>
<temp>0.00</temp>
<bpm>0</bpm>
<rpm>0.00</rpm>
</extensions>
</trkpt>
<trkpt lat="63.830860138" lon="-20.388731003">
<ele>34.730469</ele>
<time>2012-07-27T12:38:28Z</time>
<speed>3.690000</speed>
<extensions>
<speed>3.7</speed>
<temp>0.00</temp>
<bpm>0</bpm>
<rpm>0.00</rpm>
</extensions>
</trkpt>
<trkpt lat="63.830936432" lon="-20.389062881">
<ele>33.918945</ele>
<time>2012-07-27T12:38:33Z</time>
<speed>4.040000</speed>
<extensions>
<speed>4.0</speed>
<temp>0.00</temp>
<bpm>0</bpm>
<rpm>0.00</rpm>
</extensions>
</trkpt>
<trkpt lat="63.831020355" lon="-20.389446259">
<ele>35.104492</ele>
<time>2012-07-27T12:38:38Z</time>
<speed>3.970000</speed>
<extensions>
<speed>4.0</speed>
<temp>0.00</temp>
<bpm>0</bpm>
<rpm>0.00</rpm>
</extensions>
</trkpt>
<trkpt lat="63.831100464" lon="-20.389812469">
<ele>34.845703</ele>
<time>2012-07-27T12:38:43Z</time>
<speed>4.130000</speed>
<extensions>
<speed>4.1</speed>
<temp>0.00</temp>
<bpm>0</bpm>
<rpm>0.00</rpm>
</extensions>
</trkpt>
<trkpt lat="63.831184387" lon="-20.390192032">
<ele>34.237305</ele>
<time>2012-07-27T12:38:48Z</time>
<speed>4.150000</speed>
<extensions>
<speed>4.1</speed>
<temp>0.00</temp>
<bpm>0</bpm>
<rpm>0.00</rpm>
</extensions>
</trkpt>
<trkpt lat="63.831268311" lon="-20.390569687">
<ele>33.769531</ele>
<time>2012-07-27T12:38:53Z</time>
<speed>4.230000</speed>
<extensions>
<speed>4.2</speed>
<temp>0.00</temp>
<bpm>0</bpm>
<rpm>0.00</rpm>
</extensions>
</trkpt>
<trkpt lat="63.831356049" lon="-20.390960693">
<ele>34.482422</ele>
<time>2012-07-27T12:38:58Z</time>
<speed>3.850000</speed>
<extensions>
<speed>3.8</speed>
<temp>0.00</temp>
<bpm>0</bpm>
<rpm>0.00</rpm>
</extensions>
</trkpt>
<trkpt lat="63.831439972" lon="-20.391326904">
<ele>34.202148</ele>
<time>2012-07-27T12:39:03Z</time>
<speed>4.180000</speed>
<extensions>
<speed>4.2</speed>
<temp>0.00</temp>
<bpm>0</bpm>
<rpm>0.00</rpm>
</extensions>
</trkpt>
<trkpt lat="63.831520081" lon="-20.391687393">
<ele>34.445313</ele>
<time>2012-07-27T12:39:08Z</time>
<speed>3.780000</speed>
<extensions>
<speed>3.8</speed>
<temp>0.00</temp>
<bpm>0</bpm>
<rpm>0.00</rpm>
</extensions>
</trkpt>
<trkpt lat="63.831607819" lon="-20.392065048">
<ele>34.686523</ele>
<time>2012-07-27T12:39:13Z</time>
<speed>4.280000</speed>
<extensions>
<speed>4.3</speed>
<temp>0.00</temp>
<bpm>0</bpm>
<rpm>0.00</rpm>
</extensions>
</trkpt>
<trkpt lat="63.831699371" lon="-20.392459869">
<ele>34.998047</ele>
<time>2012-07-27T12:39:18Z</time>
<speed>4.360000</speed>
<extensions>
<speed>4.4</speed>
<temp>0.00</temp>
<bpm>0</bpm>
<rpm>0.00</rpm>
</extensions>
</trkpt>
<trkpt lat="63.831787109" lon="-20.392818451">
<ele>34.533203</ele>
<time>2012-07-27T12:39:23Z</time>
<speed>4.050000</speed>
<extensions>
<speed>4.0</speed>
<temp>0.00</temp>
<bpm>0</bpm>
<rpm>0.00</rpm>
</extensions>
</trkpt>
<trkpt lat="63.831882477" lon="-20.393226624">
<ele>35.031250</ele>
<time>2012-07-27T12:39:28Z</time>
<speed>4.760000</speed>
<extensions>
<speed>4.8</speed>
<temp>0.00</temp>
<bpm>0</bpm>
<rpm>0.00</rpm>
</extensions>
</trkpt>
<trkpt lat="63.831966400" lon="-20.393636703">
<ele>35.240234</ele>
<time>2012-07-27T12:39:33Z</time>
<speed>4.570000</speed>
<extensions>
<speed>4.6</speed>
<temp>0.00</temp>
<bpm>0</bpm>
<rpm>0.00</rpm>
</extensions>
</trkpt>
<trkpt lat="63.832054138" lon="-20.394033432">
<ele>34.783203</ele>
<time>2012-07-27T12:39:38Z</time>
<speed>4.420000</speed>
<extensions>
<speed>4.4</speed>
<temp>0.00</temp>
<bpm>0</bpm>
<rpm>0.00</rpm>
</extensions>
</trkpt>
<trkpt lat="63.832145691" lon="-20.394449234">
<ele>35.226563</ele>
<time>2012-07-27T12:39:43Z</time>
<speed>4.620000</speed>
<extensions>
<speed>4.6</speed>
<temp>0.00</temp>
<bpm>0</bpm>
<rpm>0.00</rpm>
</extensions>
</trkpt>
<trkpt lat="63.832244873" lon="-20.394861221">
<ele>35.143555</ele>
<time>2012-07-27T12:39:48Z</time>
<speed>4.490000</speed>
<extensions>
<speed>4.5</speed>
<temp>0.00</temp>
<bpm>0</bpm>
<rpm>0.00</rpm>
</extensions>
</trkpt>
<trkpt lat="63.832328796" lon="-20.395223618">
<ele>35.563477</ele>
<time>2012-07-27T12:39:53Z</time>
<speed>3.860000</speed>
<extensions>
<speed>3.9</speed>
<temp>0.00</temp>
<bpm>0</bpm>
<rpm>0.00</rpm>
</extensions>
</trkpt>
<trkpt lat="63.832393646" lon="-20.395553589">
<ele>34.004883</ele>
<time>2012-07-27T12:39:58Z</time>
<speed>3.270000</speed>
<extensions>
<speed>3.3</speed>
<temp>0.00</temp>
<bpm>0</bpm>
<rpm>0.00</rpm>
</extensions>
</trkpt>
<trkpt lat="63.832462311" lon="-20.395885468">
<ele>33.778320</ele>
<time>2012-07-27T12:40:03Z</time>
<speed>4.040000</speed>
<extensions>
<speed>4.0</speed>
<temp>0.00</temp>
<bpm>0</bpm>
<rpm>0.00</rpm>
</extensions>
</trkpt>
<trkpt lat="63.832553864" lon="-20.396280289">
<ele>33.865234</ele>
<time>2012-07-27T12:40:08Z</time>
<speed>4.540000</speed>
<extensions>
<speed>4.5</speed>
<temp>0.00</temp>
<bpm>0</bpm>
<rpm>0.00</rpm>
</extensions>
</trkpt>
<trkpt lat="63.832653046" lon="-20.396697998">
<ele>33.473633</ele>
<time>2012-07-27T12:40:13Z</time>
<speed>4.750000</speed>
<extensions>
<speed>4.8</speed>
<temp>0.00</temp>
<bpm>0</bpm>
<rpm>0.00</rpm>
</extensions>
</trkpt>
<trkpt lat="63.832736969" lon="-20.397089005">
<ele>32.707031</ele>
<time>2012-07-27T12:40:18Z</time>
<speed>4.020000</speed>
<extensions>
<speed>4.0</speed>
<temp>0.00</temp>
<bpm>0</bpm>
<rpm>0.00</rpm>
</extensions>
</trkpt>
<trkpt lat="63.832813263" lon="-20.397430420">
<ele>32.707031</ele>
<time>2012-07-27T12:40:23Z</time>
<speed>3.510000</speed>
<extensions>
<speed>3.5</speed>
<temp>0.00</temp>
<bpm>0</bpm>
<rpm>0.00</rpm>
</extensions>
</trkpt>
<trkpt lat="63.832885742" lon="-20.397724152">
<ele>32.508789</ele>
<time>2012-07-27T12:40:28Z</time>
<speed>3.240000</speed>
<extensions>
<speed>3.2</speed>
<temp>0.00</temp>
<bpm>0</bpm>
<rpm>0.00</rpm>
</extensions>
</trkpt>
<trkpt lat="63.832942963" lon="-20.398006439">
<ele>32.845703</ele>
<time>2012-07-27T12:40:33Z</time>
<speed>2.880000</speed>
<extensions>
<speed>2.9</speed>
<temp>0.00</temp>
<bpm>0</bpm>
<rpm>0.00</rpm>
</extensions>
</trkpt>
<trkpt lat="63.833003998" lon="-20.398281097">
<ele>32.952148</ele>
<time>2012-07-27T12:40:38Z</time>
<speed>3.400000</speed>
<extensions>
<speed>3.4</speed>
<temp>0.00</temp>
<bpm>0</bpm>
<rpm>0.00</rpm>
</extensions>
</trkpt>
<trkpt lat="63.833076477" lon="-20.398569107">
<ele>33.007813</ele>
<time>2012-07-27T12:40:43Z</time>
<speed>3.230000</speed>
<extensions>
<speed>3.2</speed>
<temp>0.00</temp>
<bpm>0</bpm>
<rpm>0.00</rpm>
</extensions>
</trkpt>
<trkpt lat="63.833152771" lon="-20.398889542">
<ele>32.819336</ele>
<time>2012-07-27T12:40:48Z</time>
<speed>4.000000</speed>
<extensions>
<speed>4.0</speed>
<temp>0.00</temp>
<bpm>0</bpm>
<rpm>0.00</rpm>
</extensions>
</trkpt>
<trkpt lat="63.833263397" lon="-20.399213791">
<ele>34.119141</ele>
<time>2012-07-27T12:40:53Z</time>
<speed>3.320000</speed>
<extensions>
<speed>3.3</speed>
<temp>0.00</temp>
<bpm>0</bpm>
<rpm>0.00</rpm>
</extensions>
</trkpt>
<trkpt lat="63.833316803" lon="-20.399436951">
<ele>33.333984</ele>
<time>2012-07-27T12:40:58Z</time>
<speed>1.790000</speed>
<extensions>
<speed>1.8</speed>
<temp>0.00</temp>
<bpm>0</bpm>
<rpm>0.00</rpm>
</extensions>
</trkpt>
<trkpt lat="63.833370209" lon="-20.399623871">
<ele>32.963867</ele>
<time>2012-07-27T12:41:03Z</time>
<speed>3.140000</speed>
<extensions>
<speed>3.1</speed>
<temp>0.00</temp>
<bpm>0</bpm>
<rpm>0.00</rpm>
</extensions>
</trkpt>
<trkpt lat="63.833469391" lon="-20.399925232">
<ele>32.789063</ele>
<time>2012-07-27T12:41:08Z</time>
<speed>3.580000</speed>
<extensions>
<speed>3.6</speed>
<temp>0.00</temp>
<bpm>0</bpm>
<rpm>0.00</rpm>
</extensions>
</trkpt>
<trkpt lat="63.833564758" lon="-20.400209427">
<ele>31.334961</ele>
<time>2012-07-27T12:41:13Z</time>
<speed>3.270000</speed>
<extensions>
<speed>3.3</speed>
<temp>0.00</temp>
<bpm>0</bpm>
<rpm>0.00</rpm>
</extensions>
</trkpt>
<trkpt lat="63.833663940" lon="-20.400474548">
<ele>30.788574</ele>
<time>2012-07-27T12:41:18Z</time>
<speed>3.470000</speed>
<extensions>
<speed>3.5</speed>
<temp>0.00</temp>
<bpm>0</bpm>
<rpm>0.00</rpm>
</extensions>
</trkpt>
<trkpt lat="63.833766937" lon="-20.400739670">
<ele>31.132813</ele>
<time>2012-07-27T12:41:23Z</time>
<speed>3.550000</speed>
<extensions>
<speed>3.5</speed>
<temp>0.00</temp>
<bpm>0</bpm>
<rpm>0.00</rpm>
</extensions>
</trkpt>
<trkpt lat="63.833873749" lon="-20.400997162">
<ele>30.315430</ele>
<time>2012-07-27T12:41:28Z</time>
<speed>3.390000</speed>
<extensions>
<speed>3.4</speed>
<temp>0.00</temp>
<bpm>0</bpm>
<rpm>0.00</rpm>
</extensions>
</trkpt>
<trkpt lat="63.833976746" lon="-20.401206970">
<ele>30.295410</ele>
<time>2012-07-27T12:41:33Z</time>
<speed>2.890000</speed>
<extensions>
<speed>2.9</speed>
<temp>0.00</temp>
<bpm>0</bpm>
<rpm>0.00</rpm>
</extensions>
</trkpt>
<trkpt lat="63.834079742" lon="-20.401412964">
<ele>29.865723</ele>
<time>2012-07-27T12:41:38Z</time>
<speed>3.520000</speed>
<extensions>
<speed>3.5</speed>
<temp>0.00</temp>
<bpm>0</bpm>
<rpm>0.00</rpm>
</extensions>
</trkpt>
<trkpt lat="63.834197998" lon="-20.401659012">
<ele>30.812988</ele>
<time>2012-07-27T12:41:43Z</time>
<speed>3.850000</speed>
<extensions>
<speed>3.8</speed>
<temp>0.00</temp>
<bpm>0</bpm>
<rpm>0.00</rpm>
</extensions>
</trkpt>
<trkpt lat="63.834320068" lon="-20.401895523">
<ele>32.331055</ele>
<time>2012-07-27T12:41:48Z</time>
<speed>3.480000</speed>
<extensions>
<speed>3.5</speed>
<temp>0.00</temp>
<bpm>0</bpm>
<rpm>0.00</rpm>
</extensions>
</trkpt>
<trkpt lat="63.834476471" lon="-20.401870728">
<ele>38.608398</ele>
<time>2012-07-27T12:41:53Z</time>
<speed>3.460000</speed>
<extensions>
<speed>3.5</speed>
<temp>0.00</temp>
<bpm>0</bpm>
<rpm>0.00</rpm>
</extensions>
</trkpt>
<trkpt lat="63.834590912" lon="-20.401605606">
<ele>40.400391</ele>
<time>2012-07-27T12:41:58Z</time>
<speed>3.550000</speed>
<extensions>
<speed>3.5</speed>
<temp>0.00</temp>
<bpm>0</bpm>
<rpm>0.00</rpm>
</extensions>
</trkpt>
<trkpt lat="63.834671021" lon="-20.401350021">
<ele>40.479492</ele>
<time>2012-07-27T12:42:03Z</time>
<speed>2.550000</speed>
<extensions>
<speed>2.6</speed>
<temp>0.00</temp>
<bpm>0</bpm>
<rpm>0.00</rpm>
</extensions>
</trkpt>
<trkpt lat="63.834701538" lon="-20.401168823">
<ele>40.681641</ele>
<time>2012-07-27T12:42:08Z</time>
<speed>0.720000</speed>
<extensions>
<speed>0.7</speed>
<temp>0.00</temp>
<bpm>0</bpm>
<rpm>0.00</rpm>
</extensions>
</trkpt>
<trkpt lat="63.834724426" lon="-20.401147842">
<ele>41.785156</ele>
<time>2012-07-27T12:42:13Z</time>
<speed>0.560000</speed>
<extensions>
<speed>0.6</speed>
<temp>0.00</temp>
<bpm>0</bpm>
<rpm>0.00</rpm>
</extensions>
</trkpt>
<trkpt lat="63.834712982" lon="-20.401100159">
<ele>42.184570</ele>
<time>2012-07-27T12:42:18Z</time>
<speed>2.160000</speed>
<extensions>
<speed>2.2</speed>
<temp>0.00</temp>
<bpm>0</bpm>
<rpm>0.00</rpm>
</extensions>
</trkpt>
<trkpt lat="63.834674835" lon="-20.401115417">
<ele>42.492188</ele>
<time>2012-07-27T12:42:23Z</time>
<speed>0.090000</speed>
<extensions>
<speed>0.1</speed>
<temp>0.00</temp>
<bpm>0</bpm>
<rpm>0.00</rpm>
</extensions>
</trkpt>
<trkpt lat="63.834674835" lon="-20.401117325">
<ele>42.662109</ele>
<time>2012-07-27T12:42:28Z</time>
<speed>0.010000</speed>
<extensions>
<speed>0.0</speed>
<temp>0.00</temp>
<bpm>0</bpm>
<rpm>0.00</rpm>
</extensions>
</trkpt>
<trkpt lat="63.834674835" lon="-20.401117325">
<ele>42.724609</ele>
<time>2012-07-27T12:42:33Z</time>
<speed>0.190000</speed>
<extensions>
<speed>0.2</speed>
<temp>0.00</temp>
<bpm>0</bpm>
<rpm>0.00</rpm>
</extensions>
</trkpt>
<trkpt lat="63.834663391" lon="-20.401107788">
<ele>42.913086</ele>
<time>2012-07-27T12:42:38Z</time>
<speed>0.130000</speed>
<extensions>
<speed>0.1</speed>
<temp>0.00</temp>
<bpm>0</bpm>
<rpm>0.00</rpm>
</extensions>
</trkpt>
<trkpt lat="63.834659576" lon="-20.401109695">
<ele>42.715820</ele>
<time>2012-07-27T12:42:43Z</time>
<speed>0.430000</speed>
<extensions>
<speed>0.4</speed>
<temp>0.00</temp>
<bpm>0</bpm>
<rpm>0.00</rpm>
</extensions>
</trkpt>
<trkpt lat="63.834602356" lon="-20.401042938">
<ele>42.130859</ele>
<time>2012-07-27T12:42:48Z</time>
<speed>1.950000</speed>
<extensions>
<speed>1.9</speed>
<temp>0.00</temp>
<bpm>0</bpm>
<rpm>0.00</rpm>
</extensions>
</trkpt>
<trkpt lat="63.834537506" lon="-20.400941849">
<ele>42.690430</ele>
<time>2012-07-27T12:42:53Z</time>
<speed>1.450000</speed>
<extensions>
<speed>1.4</speed>
<temp>0.00</temp>
<bpm>0</bpm>
<rpm>0.00</rpm>
</extensions>
</trkpt>
<trkpt lat="63.834533691" lon="-20.400892258">
<ele>42.252930</ele>
<time>2012-07-27T12:42:58Z</time>
<speed>0.040000</speed>
<extensions>
<speed>0.0</speed>
<temp>0.00</temp>
<bpm>0</bpm>
<rpm>0.00</rpm>
</extensions>
</trkpt>
<trkpt lat="63.834533691" lon="-20.400892258">
<ele>42.268555</ele>
<time>2012-07-27T12:43:03Z</time>
<speed>0.020000</speed>
<extensions>
<speed>0.0</speed>
<temp>0.00</temp>
<bpm>0</bpm>
<rpm>0.00</rpm>
</extensions>
</trkpt>
<trkpt lat="63.834537506" lon="-20.400899887">
<ele>42.282227</ele>
<time>2012-07-27T12:43:08Z</time>
<speed>0.070000</speed>
<extensions>
<speed>0.1</speed>
<temp>0.00</temp>
<bpm>0</bpm>
<rpm>0.00</rpm>
</extensions>
</trkpt>
<trkpt lat="63.834537506" lon="-20.400894165">
<ele>42.262695</ele>
<time>2012-07-27T12:43:13Z</time>
<speed>0.020000</speed>
<extensions>
<speed>0.0</speed>
<temp>0.00</temp>
<bpm>0</bpm>
<rpm>0.00</rpm>
</extensions>
</trkpt>
<trkpt lat="63.834537506" lon="-20.400894165">
<ele>42.252930</ele>
<time>2012-07-27T12:43:18Z</time>
<speed>0.010000</speed>
<extensions>
<speed>0.0</speed>
<temp>0.00</temp>
<bpm>0</bpm>
<rpm>0.00</rpm>
</extensions>
</trkpt>
<trkpt lat="63.834533691" lon="-20.400894165">
<ele>42.282227</ele>
<time>2012-07-27T12:43:23Z</time>
<speed>0.040000</speed>
<extensions>
<speed>0.0</speed>
<temp>0.00</temp>
<bpm>0</bpm>
<rpm>0.00</rpm>
</extensions>
</trkpt>
<trkpt lat="63.834533691" lon="-20.400894165">
<ele>42.281250</ele>
<time>2012-07-27T12:43:28Z</time>
<speed>0.010000</speed>
<extensions>
<speed>0.0</speed>
<temp>0.00</temp>
<bpm>0</bpm>
<rpm>0.00</rpm>
</extensions>
</trkpt>
<trkpt lat="63.834533691" lon="-20.400894165">
<ele>42.275391</ele>
<time>2012-07-27T12:43:33Z</time>
<speed>0.010000</speed>
<extensions>
<speed>0.0</speed>
<temp>0.00</temp>
<bpm>0</bpm>
<rpm>0.00</rpm>
</extensions>
</trkpt>
<trkpt lat="63.834533691" lon="-20.400894165">
<ele>42.260742</ele>
<time>2012-07-27T12:43:38Z</time>
<extensions>
<speed>0.0</speed>
<temp>0.00</temp>
<bpm>0</bpm>
<rpm>0.00</rpm>
</extensions>
</trkpt>
<trkpt lat="63.834533691" lon="-20.400894165">
<ele>42.254883</ele>
<time>2012-07-27T12:43:43Z</time>
<extensions>
<speed>0.0</speed>
<temp>0.00</temp>
<bpm>0</bpm>
<rpm>0.00</rpm>
</extensions>
</trkpt>
<trkpt lat="63.834533691" lon="-20.400894165">
<ele>42.249023</ele>
<time>2012-07-27T12:43:48Z</time>
<extensions>
<speed>0.0</speed>
<temp>0.00</temp>
<bpm>0</bpm>
<rpm>0.00</rpm>
</extensions>
</trkpt>
<trkpt lat="63.834533691" lon="-20.400894165">
<ele>42.245117</ele>
<time>2012-07-27T12:43:53Z</time>
<speed>0.010000</speed>
<extensions>
<speed>0.0</speed>
<temp>0.00</temp>
<bpm>0</bpm>
<rpm>0.00</rpm>
</extensions>
</trkpt>
<trkpt lat="63.834533691" lon="-20.400894165">
<ele>42.240234</ele>
<time>2012-07-27T12:43:58Z</time>
<speed>0.010000</speed>
<extensions>
<speed>0.0</speed>
<temp>0.00</temp>
<bpm>0</bpm>
<rpm>0.00</rpm>
</extensions>
</trkpt>
<trkpt lat="63.834533691" lon="-20.400894165">
<ele>42.237305</ele>
<time>2012-07-27T12:44:03Z</time>
<extensions>
<speed>0.0</speed>
<temp>0.00</temp>
<bpm>0</bpm>
<rpm>0.00</rpm>
</extensions>
</trkpt>
<trkpt lat="63.834533691" lon="-20.400892258">
<ele>42.225586</ele>
<time>2012-07-27T12:44:08Z</time>
<extensions>
<speed>0.0</speed>
<temp>0.00</temp>
<bpm>0</bpm>
<rpm>0.00</rpm>
</extensions>
</trkpt>
<trkpt lat="63.834533691" lon="-20.400892258">
<ele>42.213867</ele>
<time>2012-07-27T12:44:13Z</time>
<extensions>
<speed>0.0</speed>
<temp>0.00</temp>
<bpm>0</bpm>
<rpm>0.00</rpm>
</extensions>
</trkpt>
<trkpt lat="63.834533691" lon="-20.400892258">
<ele>42.203125</ele>
<time>2012-07-27T12:44:18Z</time>
<extensions>
<speed>0.0</speed>
<temp>0.00</temp>
<bpm>0</bpm>
<rpm>0.00</rpm>
</extensions>
</trkpt>
<trkpt lat="63.834533691" lon="-20.400892258">
<ele>42.197266</ele>
<time>2012-07-27T12:44:23Z</time>
<extensions>
<speed>0.0</speed>
<temp>0.00</temp>
<bpm>0</bpm>
<rpm>0.00</rpm>
</extensions>
</trkpt>
<trkpt lat="63.834533691" lon="-20.400892258">
<ele>42.187500</ele>
<time>2012-07-27T12:44:28Z</time>
<speed>0.010000</speed>
<extensions>
<speed>0.0</speed>
<temp>0.00</temp>
<bpm>0</bpm>
<rpm>0.00</rpm>
</extensions>
</trkpt>
<trkpt lat="63.834533691" lon="-20.400892258">
<ele>42.181641</ele>
<time>2012-07-27T12:44:33Z</time>
<extensions>
<speed>0.0</speed>
<temp>0.00</temp>
<bpm>0</bpm>
<rpm>0.00</rpm>
</extensions>
</trkpt>
<trkpt lat="63.834533691" lon="-20.400890350">
<ele>42.179688</ele>
<time>2012-07-27T12:44:38Z</time>
<extensions>
<speed>0.0</speed>
<temp>0.00</temp>
<bpm>0</bpm>
<rpm>0.00</rpm>
</extensions>
</trkpt>
<trkpt lat="63.834533691" lon="-20.400890350">
<ele>42.179688</ele>
<time>2012-07-27T12:44:43Z</time>
<extensions>
<speed>0.0</speed>
<temp>0.00</temp>
<bpm>0</bpm>
<rpm>0.00</rpm>
</extensions>
</trkpt>
<trkpt lat="63.834533691" lon="-20.400890350">
<ele>42.181641</ele>
<time>2012-07-27T12:44:48Z</time>
<speed>0.010000</speed>
<extensions>
<speed>0.0</speed>
<temp>0.00</temp>
<bpm>0</bpm>
<rpm>0.00</rpm>
</extensions>
</trkpt>
<trkpt lat="63.834533691" lon="-20.400890350">
<ele>42.186523</ele>
<time>2012-07-27T12:44:53Z</time>
<speed>0.010000</speed>
<extensions>
<speed>0.0</speed>
<temp>0.00</temp>
<bpm>0</bpm>
<rpm>0.00</rpm>
</extensions>
</trkpt>
<trkpt lat="63.834533691" lon="-20.400890350">
<ele>42.188477</ele>
<time>2012-07-27T12:44:58Z</time>
<extensions>
<speed>0.0</speed>
<temp>0.00</temp>
<bpm>0</bpm>
<rpm>0.00</rpm>
</extensions>
</trkpt>
<trkpt lat="63.834533691" lon="-20.400890350">
<ele>42.188477</ele>
<time>2012-07-27T12:45:03Z</time>
<extensions>
<speed>0.0</speed>
<temp>0.00</temp>
<bpm>0</bpm>
<rpm>0.00</rpm>
</extensions>
</trkpt>
<trkpt lat="63.834533691" lon="-20.400890350">
<ele>42.192383</ele>
<time>2012-07-27T12:45:08Z</time>
<speed>0.010000</speed>
<extensions>
<speed>0.0</speed>
<temp>0.00</temp>
<bpm>0</bpm>
<rpm>0.00</rpm>
</extensions>
</trkpt>
<trkpt lat="63.834533691" lon="-20.400892258">
<ele>42.201172</ele>
<time>2012-07-27T12:45:13Z</time>
<extensions>
<speed>0.0</speed>
<temp>0.00</temp>
<bpm>0</bpm>
<rpm>0.00</rpm>
</extensions>
</trkpt>
<trkpt lat="63.834533691" lon="-20.400892258">
<ele>42.205078</ele>
<time>2012-07-27T12:45:18Z</time>
<speed>0.010000</speed>
<extensions>
<speed>0.0</speed>
<temp>0.00</temp>
<bpm>0</bpm>
<rpm>0.00</rpm>
</extensions>
</trkpt>
<trkpt lat="63.834533691" lon="-20.400892258">
<ele>42.209961</ele>
<time>2012-07-27T12:45:23Z</time>
<extensions>
<speed>0.0</speed>
<temp>0.00</temp>
<bpm>0</bpm>
<rpm>0.00</rpm>
</extensions>
</trkpt>
<trkpt lat="63.834533691" lon="-20.400892258">
<ele>42.209961</ele>
<time>2012-07-27T12:45:28Z</time>
<extensions>
<speed>0.0</speed>
<temp>0.00</temp>
<bpm>0</bpm>
<rpm>0.00</rpm>
</extensions>
</trkpt>
<trkpt lat="63.834533691" lon="-20.400892258">
<ele>42.213867</ele>
<time>2012-07-27T12:45:33Z</time>
<speed>0.010000</speed>
<extensions>
<speed>0.0</speed>
<temp>0.00</temp>
<bpm>0</bpm>
<rpm>0.00</rpm>
</extensions>
</trkpt>
<trkpt lat="63.834533691" lon="-20.400892258">
<ele>42.208008</ele>
<time>2012-07-27T12:45:38Z</time>
<extensions>
<speed>0.0</speed>
<temp>0.00</temp>
<bpm>0</bpm>
<rpm>0.00</rpm>
</extensions>
</trkpt>
<trkpt lat="63.834533691" lon="-20.400892258">
<ele>42.220703</ele>
<time>2012-07-27T12:45:43Z</time>
<speed>0.010000</speed>
<extensions>
<speed>0.0</speed>
<temp>0.00</temp>
<bpm>0</bpm>
<rpm>0.00</rpm>
</extensions>
</trkpt>
<trkpt lat="63.834533691" lon="-20.400894165">
<ele>42.235352</ele>
<time>2012-07-27T12:45:48Z</time>
<extensions>
<speed>0.0</speed>
<temp>0.00</temp>
<bpm>0</bpm>
<rpm>0.00</rpm>
</extensions>
</trkpt>
<trkpt lat="63.834533691" lon="-20.400894165">
<ele>42.244141</ele>
<time>2012-07-27T12:45:53Z</time>
<extensions>
<speed>0.0</speed>
<temp>0.00</temp>
<bpm>0</bpm>
<rpm>0.00</rpm>
</extensions>
</trkpt>
<trkpt lat="63.834533691" lon="-20.400894165">
<ele>42.257813</ele>
<time>2012-07-27T12:45:58Z</time>
<extensions>
<speed>0.0</speed>
<temp>0.00</temp>
<bpm>0</bpm>
<rpm>0.00</rpm>
</extensions>
</trkpt>
<trkpt lat="63.834533691" lon="-20.400894165">
<ele>42.261719</ele>
<time>2012-07-27T12:46:03Z</time>
<speed>0.010000</speed>
<extensions>
<speed>0.0</speed>
<temp>0.00</temp>
<bpm>0</bpm>
<rpm>0.00</rpm>
</extensions>
</trkpt>
<trkpt lat="63.834533691" lon="-20.400896072">
<ele>42.264648</ele>
<time>2012-07-27T12:46:08Z</time>
<extensions>
<speed>0.0</speed>
<temp>0.00</temp>
<bpm>0</bpm>
<rpm>0.00</rpm>
</extensions>
</trkpt>
<trkpt lat="63.834533691" lon="-20.400896072">
<ele>42.268555</ele>
<time>2012-07-27T12:46:13Z</time>
<extensions>
<speed>0.0</speed>
<temp>0.00</temp>
<bpm>0</bpm>
<rpm>0.00</rpm>
</extensions>
</trkpt>
<trkpt lat="63.834533691" lon="-20.400896072">
<ele>42.275391</ele>
<time>2012-07-27T12:46:18Z</time>
<extensions>
<speed>0.0</speed>
<temp>0.00</temp>
<bpm>0</bpm>
<rpm>0.00</rpm>
</extensions>
</trkpt>
<trkpt lat="63.834533691" lon="-20.400896072">
<ele>42.275391</ele>
<time>2012-07-27T12:46:23Z</time>
<extensions>
<speed>0.0</speed>
<temp>0.00</temp>
<bpm>0</bpm>
<rpm>0.00</rpm>
</extensions>
</trkpt>
<trkpt lat="63.834533691" lon="-20.400896072">
<ele>42.276367</ele>
<time>2012-07-27T12:46:28Z</time>
<extensions>
<speed>0.0</speed>
<temp>0.00</temp>
<bpm>0</bpm>
<rpm>0.00</rpm>
</extensions>
</trkpt>
<trkpt lat="63.834533691" lon="-20.400896072">
<ele>42.272461</ele>
<time>2012-07-27T12:46:33Z</time>
<extensions>
<speed>0.0</speed>
<temp>0.00</temp>
<bpm>0</bpm>
<rpm>0.00</rpm>
</extensions>
</trkpt>
<trkpt lat="63.834533691" lon="-20.400896072">
<ele>42.274414</ele>
<time>2012-07-27T12:46:38Z</time>
<speed>0.030000</speed>
<extensions>
<speed>0.0</speed>
<temp>0.00</temp>
<bpm>0</bpm>
<rpm>0.00</rpm>
</extensions>
</trkpt>
<trkpt lat="63.834533691" lon="-20.400896072">
<ele>42.271484</ele>
<time>2012-07-27T12:46:43Z</time>
<speed>0.010000</speed>
<extensions>
<speed>0.0</speed>
<temp>0.00</temp>
<bpm>0</bpm>
<rpm>0.00</rpm>
</extensions>
</trkpt>
<trkpt lat="63.834533691" lon="-20.400896072">
<ele>42.264648</ele>
<time>2012-07-27T12:46:48Z</time>
<extensions>
<speed>0.0</speed>
<temp>0.00</temp>
<bpm>0</bpm>
<rpm>0.00</rpm>
</extensions>
</trkpt>
<trkpt lat="63.834533691" lon="-20.400896072">
<ele>42.273438</ele>
<time>2012-07-27T12:46:53Z</time>
<speed>0.010000</speed>
<extensions>
<speed>0.0</speed>
<temp>0.00</temp>
<bpm>0</bpm>
<rpm>0.00</rpm>
</extensions>
</trkpt>
<trkpt lat="63.834529877" lon="-20.400896072">
<ele>42.280273</ele>
<time>2012-07-27T12:46:58Z</time>
<extensions>
<speed>0.0</speed>
<temp>0.00</temp>
<bpm>0</bpm>
<rpm>0.00</rpm>
</extensions>
</trkpt>
<trkpt lat="63.834529877" lon="-20.400896072">
<ele>42.280273</ele>
<time>2012-07-27T12:47:03Z</time>
<speed>0.010000</speed>
<extensions>
<speed>0.0</speed>
<temp>0.00</temp>
<bpm>0</bpm>
<rpm>0.00</rpm>
</extensions>
</trkpt>
<trkpt lat="63.834529877" lon="-20.400896072">
<ele>42.276367</ele>
<time>2012-07-27T12:47:08Z</time>
<extensions>
<speed>0.0</speed>
<temp>0.00</temp>
<bpm>0</bpm>
<rpm>0.00</rpm>
</extensions>
</trkpt>
<trkpt lat="63.834529877" lon="-20.400896072">
<ele>42.275391</ele>
<time>2012-07-27T12:47:13Z</time>
<extensions>
<speed>0.0</speed>
<temp>0.00</temp>
<bpm>0</bpm>
<rpm>0.00</rpm>
</extensions>
</trkpt>
<trkpt lat="63.834529877" lon="-20.400894165">
<ele>42.268555</ele>
<time>2012-07-27T12:47:18Z</time>
<extensions>
<speed>0.0</speed>
<temp>0.00</temp>
<bpm>0</bpm>
<rpm>0.00</rpm>
</extensions>
</trkpt>
<trkpt lat="63.834529877" lon="-20.400894165">
<ele>42.264648</ele>
<time>2012-07-27T12:47:23Z</time>
<extensions>
<speed>0.0</speed>
<temp>0.00</temp>
<bpm>0</bpm>
<rpm>0.00</rpm>
</extensions>
</trkpt>
<trkpt lat="63.834529877" lon="-20.400896072">
<ele>42.258789</ele>
<time>2012-07-27T12:47:28Z</time>
<speed>0.010000</speed>
<extensions>
<speed>0.0</speed>
<temp>0.00</temp>
<bpm>0</bpm>
<rpm>0.00</rpm>
</extensions>
</trkpt>
<trkpt lat="63.834529877" lon="-20.400896072">
<ele>42.258789</ele>
<time>2012-07-27T12:47:33Z</time>
<speed>0.010000</speed>
<extensions>
<speed>0.0</speed>
<temp>0.00</temp>
<bpm>0</bpm>
<rpm>0.00</rpm>
</extensions>
</trkpt>
<trkpt lat="63.834529877" lon="-20.400896072">
<ele>42.250000</ele>
<time>2012-07-27T12:47:38Z</time>
<extensions>
<speed>0.0</speed>
<temp>0.00</temp>
<bpm>0</bpm>
<rpm>0.00</rpm>
</extensions>
</trkpt>
<trkpt lat="63.834529877" lon="-20.400894165">
<ele>42.243164</ele>
<time>2012-07-27T12:47:43Z</time>
<extensions>
<speed>0.0</speed>
<temp>0.00</temp>
<bpm>0</bpm>
<rpm>0.00</rpm>
</extensions>
</trkpt>
<trkpt lat="63.834529877" lon="-20.400896072">
<ele>42.248047</ele>
<time>2012-07-27T12:47:48Z</time>
<speed>0.010000</speed>
<extensions>
<speed>0.0</speed>
<temp>0.00</temp>
<bpm>0</bpm>
<rpm>0.00</rpm>
</extensions>
</trkpt>
<trkpt lat="63.834529877" lon="-20.400896072">
<ele>42.243164</ele>
<time>2012-07-27T12:47:53Z</time>
<extensions>
<speed>0.0</speed>
<temp>0.00</temp>
<bpm>0</bpm>
<rpm>0.00</rpm>
</extensions>
</trkpt>
<trkpt lat="63.834529877" lon="-20.400896072">
<ele>42.243164</ele>
<time>2012-07-27T12:47:58Z</time>
<speed>0.020000</speed>
<extensions>
<speed>0.0</speed>
<temp>0.00</temp>
<bpm>0</bpm>
<rpm>0.00</rpm>
</extensions>
</trkpt>
<trkpt lat="63.834529877" lon="-20.400897980">
<ele>42.250000</ele>
<time>2012-07-27T12:48:03Z</time>
<extensions>
<speed>0.0</speed>
<temp>0.00</temp>
<bpm>0</bpm>
<rpm>0.00</rpm>
</extensions>
</trkpt>
<trkpt lat="63.834529877" lon="-20.400897980">
<ele>42.245117</ele>
<time>2012-07-27T12:48:08Z</time>
<extensions>
<speed>0.0</speed>
<temp>0.00</temp>
<bpm>0</bpm>
<rpm>0.00</rpm>
</extensions>
</trkpt>
<trkpt lat="63.834529877" lon="-20.400897980">
<ele>42.244141</ele>
<time>2012-07-27T12:48:13Z</time>
<extensions>
<speed>0.0</speed>
<temp>0.00</temp>
<bpm>0</bpm>
<rpm>0.00</rpm>
</extensions>
</trkpt>
<trkpt lat="63.834529877" lon="-20.400899887">
<ele>42.250977</ele>
<time>2012-07-27T12:48:18Z</time>
<extensions>
<speed>0.0</speed>
<temp>0.00</temp>
<bpm>0</bpm>
<rpm>0.00</rpm>
</extensions>
</trkpt>
<trkpt lat="63.834529877" lon="-20.400899887">
<ele>42.252930</ele>
<time>2012-07-27T12:48:23Z</time>
<extensions>
<speed>0.0</speed>
<temp>0.00</temp>
<bpm>0</bpm>
<rpm>0.00</rpm>
</extensions>
</trkpt>
<trkpt lat="63.834526062" lon="-20.400899887">
<ele>42.249023</ele>
<time>2012-07-27T12:48:28Z</time>
<extensions>
<speed>0.0</speed>
<temp>0.00</temp>
<bpm>0</bpm>
<rpm>0.00</rpm>
</extensions>
</trkpt>
<trkpt lat="63.834526062" lon="-20.400899887">
<ele>42.250000</ele>
<time>2012-07-27T12:48:33Z</time>
<extensions>
<speed>0.0</speed>
<temp>0.00</temp>
<bpm>0</bpm>
<rpm>0.00</rpm>
</extensions>
</trkpt>
<trkpt lat="63.834526062" lon="-20.400899887">
<ele>42.251953</ele>
<time>2012-07-27T12:48:38Z</time>
<speed>0.020000</speed>
<extensions>
<speed>0.0</speed>
<temp>0.00</temp>
<bpm>0</bpm>
<rpm>0.00</rpm>
</extensions>
</trkpt>
<trkpt lat="63.834526062" lon="-20.400901794">
<ele>42.250000</ele>
<time>2012-07-27T12:48:43Z</time>
<speed>0.020000</speed>
<extensions>
<speed>0.0</speed>
<temp>0.00</temp>
<bpm>0</bpm>
<rpm>0.00</rpm>
</extensions>
</trkpt>
<trkpt lat="63.834526062" lon="-20.400901794">
<ele>42.250000</ele>
<time>2012-07-27T12:48:48Z</time>
<extensions>
<speed>0.0</speed>
<temp>0.00</temp>
<bpm>0</bpm>
<rpm>0.00</rpm>
</extensions>
</trkpt>
<trkpt lat="63.834526062" lon="-20.400901794">
<ele>42.243164</ele>
<time>2012-07-27T12:48:53Z</time>
<extensions>
<speed>0.0</speed>
<temp>0.00</temp>
<bpm>0</bpm>
<rpm>0.00</rpm>
</extensions>
</trkpt>
<trkpt lat="63.834526062" lon="-20.400901794">
<ele>42.236328</ele>
<time>2012-07-27T12:48:58Z</time>
<speed>0.010000</speed>
<extensions>
<speed>0.0</speed>
<temp>0.00</temp>
<bpm>0</bpm>
<rpm>0.00</rpm>
</extensions>
</trkpt>
<trkpt lat="63.834526062" lon="-20.400901794">
<ele>42.228516</ele>
<time>2012-07-27T12:49:03Z</time>
<speed>0.010000</speed>
<extensions>
<speed>0.0</speed>
<temp>0.00</temp>
<bpm>0</bpm>
<rpm>0.00</rpm>
</extensions>
</trkpt>
<trkpt lat="63.834526062" lon="-20.400901794">
<ele>42.214844</ele>
<time>2012-07-27T12:49:08Z</time>
<speed>0.010000</speed>
<extensions>
<speed>0.0</speed>
<temp>0.00</temp>
<bpm>0</bpm>
<rpm>0.00</rpm>
</extensions>
</trkpt>
<trkpt lat="63.834526062" lon="-20.400901794">
<ele>42.208008</ele>
<time>2012-07-27T12:49:13Z</time>
<speed>0.010000</speed>
<extensions>
<speed>0.0</speed>
<temp>0.00</temp>
<bpm>0</bpm>
<rpm>0.00</rpm>
</extensions>
</trkpt>
<trkpt lat="63.834526062" lon="-20.400901794">
<ele>42.202148</ele>
<time>2012-07-27T12:49:18Z</time>
<extensions>
<speed>0.0</speed>
<temp>0.00</temp>
<bpm>0</bpm>
<rpm>0.00</rpm>
</extensions>
</trkpt>
<trkpt lat="63.834526062" lon="-20.400901794">
<ele>42.200195</ele>
<time>2012-07-27T12:49:23Z</time>
<speed>0.010000</speed>
<extensions>
<speed>0.0</speed>
<temp>0.00</temp>
<bpm>0</bpm>
<rpm>0.00</rpm>
</extensions>
</trkpt>
<trkpt lat="63.834526062" lon="-20.400903702">
<ele>42.194336</ele>
<time>2012-07-27T12:49:28Z</time>
<speed>0.010000</speed>
<extensions>
<speed>0.0</speed>
<temp>0.00</temp>
<bpm>0</bpm>
<rpm>0.00</rpm>
</extensions>
</trkpt>
<trkpt lat="63.834526062" lon="-20.400903702">
<ele>42.183594</ele>
<time>2012-07-27T12:49:33Z</time>
<speed>0.010000</speed>
<extensions>
<speed>0.0</speed>
<temp>0.00</temp>
<bpm>0</bpm>
<rpm>0.00</rpm>
</extensions>
</trkpt>
<trkpt lat="63.834526062" lon="-20.400903702">
<ele>42.179688</ele>
<time>2012-07-27T12:49:38Z</time>
<extensions>
<speed>0.0</speed>
<temp>0.00</temp>
<bpm>0</bpm>
<rpm>0.00</rpm>
</extensions>
</trkpt>
<trkpt lat="63.834526062" lon="-20.400903702">
<ele>42.175781</ele>
<time>2012-07-27T12:49:43Z</time>
<extensions>
<speed>0.0</speed>
<temp>0.00</temp>
<bpm>0</bpm>
<rpm>0.00</rpm>
</extensions>
</trkpt>
<trkpt lat="63.834526062" lon="-20.400903702">
<ele>42.167969</ele>
<time>2012-07-27T12:49:48Z</time>
<extensions>
<speed>0.0</speed>
<temp>0.00</temp>
<bpm>0</bpm>
<rpm>0.00</rpm>
</extensions>
</trkpt>
<trkpt lat="63.834526062" lon="-20.400903702">
<ele>42.161133</ele>
<time>2012-07-27T12:49:53Z</time>
<extensions>
<speed>0.0</speed>
<temp>0.00</temp>
<bpm>0</bpm>
<rpm>0.00</rpm>
</extensions>
</trkpt>
<trkpt lat="63.834526062" lon="-20.400903702">
<ele>42.153320</ele>
<time>2012-07-27T12:49:58Z</time>
<extensions>
<speed>0.0</speed>
<temp>0.00</temp>
<bpm>0</bpm>
<rpm>0.00</rpm>
</extensions>
</trkpt>
<trkpt lat="63.834526062" lon="-20.400903702">
<ele>42.141602</ele>
<time>2012-07-27T12:50:03Z</time>
<speed>0.010000</speed>
<extensions>
<speed>0.0</speed>
<temp>0.00</temp>
<bpm>0</bpm>
<rpm>0.00</rpm>
</extensions>
</trkpt>
<trkpt lat="63.834526062" lon="-20.400903702">
<ele>42.133789</ele>
<time>2012-07-27T12:50:08Z</time>
<speed>0.010000</speed>
<extensions>
<speed>0.0</speed>
<temp>0.00</temp>
<bpm>0</bpm>
<rpm>0.00</rpm>
</extensions>
</trkpt>
<trkpt lat="63.834526062" lon="-20.400903702">
<ele>42.120117</ele>
<time>2012-07-27T12:50:13Z</time>
<speed>0.010000</speed>
<extensions>
<speed>0.0</speed>
<temp>0.00</temp>
<bpm>0</bpm>
<rpm>0.00</rpm>
</extensions>
</trkpt>
<trkpt lat="63.834526062" lon="-20.400903702">
<ele>42.098633</ele>
<time>2012-07-27T12:50:18Z</time>
<speed>0.010000</speed>
<extensions>
<speed>0.0</speed>
<temp>0.00</temp>
<bpm>0</bpm>
<rpm>0.00</rpm>
</extensions>
</trkpt>
<trkpt lat="63.834526062" lon="-20.400903702">
<ele>42.079102</ele>
<time>2012-07-27T12:50:23Z</time>
<extensions>
<speed>0.0</speed>
<temp>0.00</temp>
<bpm>0</bpm>
<rpm>0.00</rpm>
</extensions>
</trkpt>
<trkpt lat="63.834526062" lon="-20.400903702">
<ele>42.056641</ele>
<time>2012-07-27T12:50:28Z</time>
<extensions>
<speed>0.0</speed>
<temp>0.00</temp>
<bpm>0</bpm>
<rpm>0.00</rpm>
</extensions>
</trkpt>
<trkpt lat="63.834526062" lon="-20.400903702">
<ele>42.024414</ele>
<time>2012-07-27T12:50:33Z</time>
<speed>0.020000</speed>
<extensions>
<speed>0.0</speed>
<temp>0.00</temp>
<bpm>0</bpm>
<rpm>0.00</rpm>
</extensions>
</trkpt>
<trkpt lat="63.834526062" lon="-20.400903702">
<ele>42.001953</ele>
<time>2012-07-27T12:50:38Z</time>
<extensions>
<speed>0.0</speed>
<temp>0.00</temp>
<bpm>0</bpm>
<rpm>0.00</rpm>
</extensions>
</trkpt>
<trkpt lat="63.834526062" lon="-20.400903702">
<ele>41.976563</ele>
<time>2012-07-27T12:50:43Z</time>
<extensions>
<speed>0.0</speed>
<temp>0.00</temp>
<bpm>0</bpm>
<rpm>0.00</rpm>
</extensions>
</trkpt>
<trkpt lat="63.834526062" lon="-20.400903702">
<ele>41.953125</ele>
<time>2012-07-27T12:50:48Z</time>
<speed>0.010000</speed>
<extensions>
<speed>0.0</speed>
<temp>0.00</temp>
<bpm>0</bpm>
<rpm>0.00</rpm>
</extensions>
</trkpt>
<trkpt lat="63.834526062" lon="-20.400903702">
<ele>41.935547</ele>
<time>2012-07-27T12:50:53Z</time>
<extensions>
<speed>0.0</speed>
<temp>0.00</temp>
<bpm>0</bpm>
<rpm>0.00</rpm>
</extensions>
</trkpt>
<trkpt lat="63.834526062" lon="-20.400903702">
<ele>41.926758</ele>
<time>2012-07-27T12:50:58Z</time>
<speed>0.010000</speed>
<extensions>
<speed>0.0</speed>
<temp>0.00</temp>
<bpm>0</bpm>
<rpm>0.00</rpm>
</extensions>
</trkpt>
<trkpt lat="63.834526062" lon="-20.400903702">
<ele>41.918945</ele>
<time>2012-07-27T12:51:03Z</time>
<extensions>
<speed>0.0</speed>
<temp>0.00</temp>
<bpm>0</bpm>
<rpm>0.00</rpm>
</extensions>
</trkpt>
<trkpt lat="63.834526062" lon="-20.400903702">
<ele>41.908203</ele>
<time>2012-07-27T12:51:08Z</time>
<speed>0.010000</speed>
<extensions>
<speed>0.0</speed>
<temp>0.00</temp>
<bpm>0</bpm>
<rpm>0.00</rpm>
</extensions>
</trkpt>
<trkpt lat="63.834526062" lon="-20.400905609">
<ele>41.897461</ele>
<time>2012-07-27T12:51:13Z</time>
<extensions>
<speed>0.0</speed>
<temp>0.00</temp>
<bpm>0</bpm>
<rpm>0.00</rpm>
</extensions>
</trkpt>
<trkpt lat="63.834526062" lon="-20.400905609">
<ele>41.888672</ele>
<time>2012-07-27T12:51:18Z</time>
<extensions>
<speed>0.0</speed>
<temp>0.00</temp>
<bpm>0</bpm>
<rpm>0.00</rpm>
</extensions>
</trkpt>
<trkpt lat="63.834526062" lon="-20.400905609">
<ele>41.885742</ele>
<time>2012-07-27T12:51:23Z</time>
<extensions>
<speed>0.0</speed>
<temp>0.00</temp>
<bpm>0</bpm>
<rpm>0.00</rpm>
</extensions>
</trkpt>
<trkpt lat="63.834526062" lon="-20.400905609">
<ele>41.876953</ele>
<time>2012-07-27T12:51:28Z</time>
<extensions>
<speed>0.0</speed>
<temp>0.00</temp>
<bpm>0</bpm>
<rpm>0.00</rpm>
</extensions>
</trkpt>
<trkpt lat="63.834526062" lon="-20.400905609">
<ele>41.868164</ele>
<time>2012-07-27T12:51:33Z</time>
<extensions>
<speed>0.0</speed>
<temp>0.00</temp>
<bpm>0</bpm>
<rpm>0.00</rpm>
</extensions>
</trkpt>
<trkpt lat="63.834526062" lon="-20.400905609">
<ele>41.863281</ele>
<time>2012-07-27T12:51:38Z</time>
<extensions>
<speed>0.0</speed>
<temp>0.00</temp>
<bpm>0</bpm>
<rpm>0.00</rpm>
</extensions>
</trkpt>
<trkpt lat="63.834526062" lon="-20.400907516">
<ele>41.858398</ele>
<time>2012-07-27T12:51:43Z</time>
<extensions>
<speed>0.0</speed>
<temp>0.00</temp>
<bpm>0</bpm>
<rpm>0.00</rpm>
</extensions>
</trkpt>
<trkpt lat="63.834526062" lon="-20.400907516">
<ele>41.863281</ele>
<time>2012-07-27T12:51:48Z</time>
<speed>0.010000</speed>
<extensions>
<speed>0.0</speed>
<temp>0.00</temp>
<bpm>0</bpm>
<rpm>0.00</rpm>
</extensions>
</trkpt>
<trkpt lat="63.834526062" lon="-20.400907516">
<ele>41.867188</ele>
<time>2012-07-27T12:51:53Z</time>
<extensions>
<speed>0.0</speed>
<temp>0.00</temp>
<bpm>0</bpm>
<rpm>0.00</rpm>
</extensions>
</trkpt>
<trkpt lat="63.834526062" lon="-20.400907516">
<ele>41.863281</ele>
<time>2012-07-27T12:51:58Z</time>
<extensions>
<speed>0.0</speed>
<temp>0.00</temp>
<bpm>0</bpm>
<rpm>0.00</rpm>
</extensions>
</trkpt>
<trkpt lat="63.834526062" lon="-20.400907516">
<ele>41.855469</ele>
<time>2012-07-27T12:52:03Z</time>
<extensions>
<speed>0.0</speed>
<temp>0.00</temp>
<bpm>0</bpm>
<rpm>0.00</rpm>
</extensions>
</trkpt>
<trkpt lat="63.834526062" lon="-20.400907516">
<ele>41.848633</ele>
<time>2012-07-27T12:52:08Z</time>
<speed>0.010000</speed>
<extensions>
<speed>0.0</speed>
<temp>0.00</temp>
<bpm>0</bpm>
<rpm>0.00</rpm>
</extensions>
</trkpt>
<trkpt lat="63.834526062" lon="-20.400905609">
<ele>41.842773</ele>
<time>2012-07-27T12:52:13Z</time>
<extensions>
<speed>0.0</speed>
<temp>0.00</temp>
<bpm>0</bpm>
<rpm>0.00</rpm>
</extensions>
</trkpt>
<trkpt lat="63.834526062" lon="-20.400905609">
<ele>41.842773</ele>
<time>2012-07-27T12:52:18Z</time>
<extensions>
<speed>0.0</speed>
<temp>0.00</temp>
<bpm>0</bpm>
<rpm>0.00</rpm>
</extensions>
</trkpt>
<trkpt lat="63.834526062" lon="-20.400905609">
<ele>41.839844</ele>
<time>2012-07-27T12:52:23Z</time>
<extensions>
<speed>0.0</speed>
<temp>0.00</temp>
<bpm>0</bpm>
<rpm>0.00</rpm>
</extensions>
</trkpt>
<trkpt lat="63.834526062" lon="-20.400905609">
<ele>41.844727</ele>
<time>2012-07-27T12:52:28Z</time>
<extensions>
<speed>0.0</speed>
<temp>0.00</temp>
<bpm>0</bpm>
<rpm>0.00</rpm>
</extensions>
</trkpt>
<trkpt lat="63.834526062" lon="-20.400905609">
<ele>41.848633</ele>
<time>2012-07-27T12:52:33Z</time>
<extensions>
<speed>0.0</speed>
<temp>0.00</temp>
<bpm>0</bpm>
<rpm>0.00</rpm>
</extensions>
</trkpt>
<trkpt lat="63.834526062" lon="-20.400905609">
<ele>41.849609</ele>
<time>2012-07-27T12:52:38Z</time>
<extensions>
<speed>0.0</speed>
<temp>0.00</temp>
<bpm>0</bpm>
<rpm>0.00</rpm>
</extensions>
</trkpt>
<trkpt lat="63.834526062" lon="-20.400905609">
<ele>41.849609</ele>
<time>2012-07-27T12:52:43Z</time>
<speed>0.010000</speed>
<extensions>
<speed>0.0</speed>
<temp>0.00</temp>
<bpm>0</bpm>
<rpm>0.00</rpm>
</extensions>
</trkpt>
<trkpt lat="63.834526062" lon="-20.400903702">
<ele>41.851563</ele>
<time>2012-07-27T12:52:48Z</time>
<extensions>
<speed>0.0</speed>
<temp>0.00</temp>
<bpm>0</bpm>
<rpm>0.00</rpm>
</extensions>
</trkpt>
<trkpt lat="63.834526062" lon="-20.400905609">
<ele>41.862305</ele>
<time>2012-07-27T12:52:53Z</time>
<extensions>
<speed>0.0</speed>
<temp>0.00</temp>
<bpm>0</bpm>
<rpm>0.00</rpm>
</extensions>
</trkpt>
<trkpt lat="63.834526062" lon="-20.400903702">
<ele>41.868164</ele>
<time>2012-07-27T12:52:58Z</time>
<extensions>
<speed>0.0</speed>
<temp>0.00</temp>
<bpm>0</bpm>
<rpm>0.00</rpm>
</extensions>
</trkpt>
<trkpt lat="63.834526062" lon="-20.400903702">
<ele>41.874023</ele>
<time>2012-07-27T12:53:03Z</time>
<extensions>
<speed>0.0</speed>
<temp>0.00</temp>
<bpm>0</bpm>
<rpm>0.00</rpm>
</extensions>
</trkpt>
<trkpt lat="63.834526062" lon="-20.400903702">
<ele>41.887695</ele>
<time>2012-07-27T12:53:08Z</time>
<speed>0.010000</speed>
<extensions>
<speed>0.0</speed>
<temp>0.00</temp>
<bpm>0</bpm>
<rpm>0.00</rpm>
</extensions>
</trkpt>
<trkpt lat="63.834526062" lon="-20.400905609">
<ele>41.899414</ele>
<time>2012-07-27T12:53:13Z</time>
<extensions>
<speed>0.0</speed>
<temp>0.00</temp>
<bpm>0</bpm>
<rpm>0.00</rpm>
</extensions>
</trkpt>
<trkpt lat="63.834526062" lon="-20.400905609">
<ele>41.907227</ele>
<time>2012-07-27T12:53:18Z</time>
<speed>0.010000</speed>
<extensions>
<speed>0.0</speed>
<temp>0.00</temp>
<bpm>0</bpm>
<rpm>0.00</rpm>
</extensions>
</trkpt>
<trkpt lat="63.834526062" lon="-20.400905609">
<ele>41.920898</ele>
<time>2012-07-27T12:53:23Z</time>
<extensions>
<speed>0.0</speed>
<temp>0.00</temp>
<bpm>0</bpm>
<rpm>0.00</rpm>
</extensions>
</trkpt>
<trkpt lat="63.834526062" lon="-20.400905609">
<ele>41.938477</ele>
<time>2012-07-27T12:53:28Z</time>
<extensions>
<speed>0.0</speed>
<temp>0.00</temp>
<bpm>0</bpm>
<rpm>0.00</rpm>
</extensions>
</trkpt>
<trkpt lat="63.834526062" lon="-20.400905609">
<ele>41.950195</ele>
<time>2012-07-27T12:53:33Z</time>
<extensions>
<speed>0.0</speed>
<temp>0.00</temp>
<bpm>0</bpm>
<rpm>0.00</rpm>
</extensions>
</trkpt>
<trkpt lat="63.834526062" lon="-20.400905609">
<ele>41.960938</ele>
<time>2012-07-27T12:53:38Z</time>
<speed>0.010000</speed>
<extensions>
<speed>0.0</speed>
<temp>0.00</temp>
<bpm>0</bpm>
<rpm>0.00</rpm>
</extensions>
</trkpt>
<trkpt lat="63.834526062" lon="-20.400905609">
<ele>41.967773</ele>
<time>2012-07-27T12:53:43Z</time>
<extensions>
<speed>0.0</speed>
<temp>0.00</temp>
<bpm>0</bpm>
<rpm>0.00</rpm>
</extensions>
</trkpt>
<trkpt lat="63.834526062" lon="-20.400905609">
<ele>41.966797</ele>
<time>2012-07-27T12:53:48Z</time>
<extensions>
<speed>0.0</speed>
<temp>0.00</temp>
<bpm>0</bpm>
<rpm>0.00</rpm>
</extensions>
</trkpt>
<trkpt lat="63.834526062" lon="-20.400907516">
<ele>41.967773</ele>
<time>2012-07-27T12:53:53Z</time>
<extensions>
<speed>0.0</speed>
<temp>0.00</temp>
<bpm>0</bpm>
<rpm>0.00</rpm>
</extensions>
</trkpt>
<trkpt lat="63.834526062" lon="-20.400907516">
<ele>41.961914</ele>
<time>2012-07-27T12:53:58Z</time>
<speed>0.010000</speed>
<extensions>
<speed>0.0</speed>
<temp>0.00</temp>
<bpm>0</bpm>
<rpm>0.00</rpm>
</extensions>
</trkpt>
<trkpt lat="63.834526062" lon="-20.400907516">
<ele>41.960938</ele>
<time>2012-07-27T12:54:03Z</time>
<speed>0.010000</speed>
<extensions>
<speed>0.0</speed>
<temp>0.00</temp>
<bpm>0</bpm>
<rpm>0.00</rpm>
</extensions>
</trkpt>
<trkpt lat="63.834526062" lon="-20.400907516">
<ele>41.961914</ele>
<time>2012-07-27T12:54:08Z</time>
<speed>0.010000</speed>
<extensions>
<speed>0.0</speed>
<temp>0.00</temp>
<bpm>0</bpm>
<rpm>0.00</rpm>
</extensions>
</trkpt>
<trkpt lat="63.834526062" lon="-20.400907516">
<ele>41.965820</ele>
<time>2012-07-27T12:54:13Z</time>
<extensions>
<speed>0.0</speed>
<temp>0.00</temp>
<bpm>0</bpm>
<rpm>0.00</rpm>
</extensions>
</trkpt>
<trkpt lat="63.834526062" lon="-20.400907516">
<ele>41.963867</ele>
<time>2012-07-27T12:54:18Z</time>
<extensions>
<speed>0.0</speed>
<temp>0.00</temp>
<bpm>0</bpm>
<rpm>0.00</rpm>
</extensions>
</trkpt>
<trkpt lat="63.834526062" lon="-20.400907516">
<ele>41.957031</ele>
<time>2012-07-27T12:54:23Z</time>
<extensions>
<speed>0.0</speed>
<temp>0.00</temp>
<bpm>0</bpm>
<rpm>0.00</rpm>
</extensions>
</trkpt>
<trkpt lat="63.834526062" lon="-20.400907516">
<ele>41.950195</ele>
<time>2012-07-27T12:54:28Z</time>
<extensions>
<speed>0.0</speed>
<temp>0.00</temp>
<bpm>0</bpm>
<rpm>0.00</rpm>
</extensions>
</trkpt>
<trkpt lat="63.834526062" lon="-20.400907516">
<ele>41.946289</ele>
<time>2012-07-27T12:54:33Z</time>
<extensions>
<speed>0.0</speed>
<temp>0.00</temp>
<bpm>0</bpm>
<rpm>0.00</rpm>
</extensions>
</trkpt>
<trkpt lat="63.834526062" lon="-20.400907516">
<ele>41.946289</ele>
<time>2012-07-27T12:54:38Z</time>
<extensions>
<speed>0.0</speed>
<temp>0.00</temp>
<bpm>0</bpm>
<rpm>0.00</rpm>
</extensions>
</trkpt>
<trkpt lat="63.834526062" lon="-20.400909424">
<ele>41.971680</ele>
<time>2012-07-27T12:54:43Z</time>
<speed>0.010000</speed>
<extensions>
<speed>0.0</speed>
<temp>0.00</temp>
<bpm>0</bpm>
<rpm>0.00</rpm>
</extensions>
</trkpt>
<trkpt lat="63.834526062" lon="-20.400909424">
<ele>41.984375</ele>
<time>2012-07-27T12:54:48Z</time>
<extensions>
<speed>0.0</speed>
<temp>0.00</temp>
<bpm>0</bpm>
<rpm>0.00</rpm>
</extensions>
</trkpt>
<trkpt lat="63.834526062" lon="-20.400911331">
<ele>41.995117</ele>
<time>2012-07-27T12:54:53Z</time>
<extensions>
<speed>0.0</speed>
<temp>0.00</temp>
<bpm>0</bpm>
<rpm>0.00</rpm>
</extensions>
</trkpt>
<trkpt lat="63.834526062" lon="-20.400911331">
<ele>41.997070</ele>
<time>2012-07-27T12:54:58Z</time>
<extensions>
<speed>0.0</speed>
<temp>0.00</temp>
<bpm>0</bpm>
<rpm>0.00</rpm>
</extensions>
</trkpt>
<trkpt lat="63.834526062" lon="-20.400911331">
<ele>41.991211</ele>
<time>2012-07-27T12:55:03Z</time>
<extensions>
<speed>0.0</speed>
<temp>0.00</temp>
<bpm>0</bpm>
<rpm>0.00</rpm>
</extensions>
</trkpt>
<trkpt lat="63.834526062" lon="-20.400911331">
<ele>41.994141</ele>
<time>2012-07-27T12:55:08Z</time>
<speed>0.010000</speed>
<extensions>
<speed>0.0</speed>
<temp>0.00</temp>
<bpm>0</bpm>
<rpm>0.00</rpm>
</extensions>
</trkpt>
<trkpt lat="63.834526062" lon="-20.400911331">
<ele>41.987305</ele>
<time>2012-07-27T12:55:13Z</time>
<speed>0.010000</speed>
<extensions>
<speed>0.0</speed>
<temp>0.00</temp>
<bpm>0</bpm>
<rpm>0.00</rpm>
</extensions>
</trkpt>
<trkpt lat="63.834526062" lon="-20.400911331">
<ele>41.986328</ele>
<time>2012-07-27T12:55:18Z</time>
<extensions>
<speed>0.0</speed>
<temp>0.00</temp>
<bpm>0</bpm>
<rpm>0.00</rpm>
</extensions>
</trkpt>
<trkpt lat="63.834526062" lon="-20.400911331">
<ele>41.986328</ele>
<time>2012-07-27T12:55:23Z</time>
<extensions>
<speed>0.0</speed>
<temp>0.00</temp>
<bpm>0</bpm>
<rpm>0.00</rpm>
</extensions>
</trkpt>
<trkpt lat="63.834526062" lon="-20.400911331">
<ele>41.994141</ele>
<time>2012-07-27T12:55:28Z</time>
<extensions>
<speed>0.0</speed>
<temp>0.00</temp>
<bpm>0</bpm>
<rpm>0.00</rpm>
</extensions>
</trkpt>
<trkpt lat="63.834526062" lon="-20.400911331">
<ele>41.995117</ele>
<time>2012-07-27T12:55:33Z</time>
<speed>0.010000</speed>
<extensions>
<speed>0.0</speed>
<temp>0.00</temp>
<bpm>0</bpm>
<rpm>0.00</rpm>
</extensions>
</trkpt>
<trkpt lat="63.834526062" lon="-20.400911331">
<ele>41.999023</ele>
<time>2012-07-27T12:55:38Z</time>
<extensions>
<speed>0.0</speed>
<temp>0.00</temp>
<bpm>0</bpm>
<rpm>0.00</rpm>
</extensions>
</trkpt>
<trkpt lat="63.834526062" lon="-20.400911331">
<ele>42.005859</ele>
<time>2012-07-27T12:55:43Z</time>
<speed>0.010000</speed>
<extensions>
<speed>0.0</speed>
<temp>0.00</temp>
<bpm>0</bpm>
<rpm>0.00</rpm>
</extensions>
</trkpt>
<trkpt lat="63.834526062" lon="-20.400909424">
<ele>42.000977</ele>
<time>2012-07-27T12:55:48Z</time>
<speed>0.010000</speed>
<extensions>
<speed>0.0</speed>
<temp>0.00</temp>
<bpm>0</bpm>
<rpm>0.00</rpm>
</extensions>
</trkpt>
<trkpt lat="63.834526062" lon="-20.400911331">
<ele>41.997070</ele>
<time>2012-07-27T12:55:53Z</time>
<extensions>
<speed>0.0</speed>
<temp>0.00</temp>
<bpm>0</bpm>
<rpm>0.00</rpm>
</extensions>
</trkpt>
<trkpt lat="63.834526062" lon="-20.400909424">
<ele>41.992188</ele>
<time>2012-07-27T12:55:58Z</time>
<speed>0.010000</speed>
<extensions>
<speed>0.0</speed>
<temp>0.00</temp>
<bpm>0</bpm>
<rpm>0.00</rpm>
</extensions>
</trkpt>
<trkpt lat="63.834526062" lon="-20.400909424">
<ele>41.996094</ele>
<time>2012-07-27T12:56:03Z</time>
<extensions>
<speed>0.0</speed>
<temp>0.00</temp>
<bpm>0</bpm>
<rpm>0.00</rpm>
</extensions>
</trkpt>
<trkpt lat="63.834526062" lon="-20.400909424">
<ele>41.997070</ele>
<time>2012-07-27T12:56:08Z</time>
<extensions>
<speed>0.0</speed>
<temp>0.00</temp>
<bpm>0</bpm>
<rpm>0.00</rpm>
</extensions>
</trkpt>
<trkpt lat="63.834526062" lon="-20.400909424">
<ele>41.991211</ele>
<time>2012-07-27T12:56:13Z</time>
<extensions>
<speed>0.0</speed>
<temp>0.00</temp>
<bpm>0</bpm>
<rpm>0.00</rpm>
</extensions>
</trkpt>
<trkpt lat="63.834526062" lon="-20.400909424">
<ele>41.991211</ele>
<time>2012-07-27T12:56:18Z</time>
<extensions>
<speed>0.0</speed>
<temp>0.00</temp>
<bpm>0</bpm>
<rpm>0.00</rpm>
</extensions>
</trkpt>
<trkpt lat="63.834526062" lon="-20.400907516">
<ele>41.990234</ele>
<time>2012-07-27T12:56:23Z</time>
<extensions>
<speed>0.0</speed>
<temp>0.00</temp>
<bpm>0</bpm>
<rpm>0.00</rpm>
</extensions>
</trkpt>
<trkpt lat="63.834526062" lon="-20.400907516">
<ele>41.995117</ele>
<time>2012-07-27T12:56:28Z</time>
<speed>0.010000</speed>
<extensions>
<speed>0.0</speed>
<temp>0.00</temp>
<bpm>0</bpm>
<rpm>0.00</rpm>
</extensions>
</trkpt>
<trkpt lat="63.834526062" lon="-20.400907516">
<ele>41.998047</ele>
<time>2012-07-27T12:56:33Z</time>
<extensions>
<speed>0.0</speed>
<temp>0.00</temp>
<bpm>0</bpm>
<rpm>0.00</rpm>
</extensions>
</trkpt>
<trkpt lat="63.834526062" lon="-20.400907516">
<ele>41.993164</ele>
<time>2012-07-27T12:56:38Z</time>
<speed>0.010000</speed>
<extensions>
<speed>0.0</speed>
<temp>0.00</temp>
<bpm>0</bpm>
<rpm>0.00</rpm>
</extensions>
</trkpt>
<trkpt lat="63.834526062" lon="-20.400905609">
<ele>41.988281</ele>
<time>2012-07-27T12:56:43Z</time>
<extensions>
<speed>0.0</speed>
<temp>0.00</temp>
<bpm>0</bpm>
<rpm>0.00</rpm>
</extensions>
</trkpt>
<trkpt lat="63.834526062" lon="-20.400905609">
<ele>41.973633</ele>
<time>2012-07-27T12:56:48Z</time>
<speed>0.030000</speed>
<extensions>
<speed>0.0</speed>
<temp>0.00</temp>
<bpm>0</bpm>
<rpm>0.00</rpm>
</extensions>
</trkpt>
<trkpt lat="63.834526062" lon="-20.400903702">
<ele>41.960938</ele>
<time>2012-07-27T12:56:53Z</time>
<extensions>
<speed>0.0</speed>
<temp>0.00</temp>
<bpm>0</bpm>
<rpm>0.00</rpm>
</extensions>
</trkpt>
<trkpt lat="63.834526062" lon="-20.400903702">
<ele>41.946289</ele>
<time>2012-07-27T12:56:58Z</time>
<extensions>
<speed>0.0</speed>
<temp>0.00</temp>
<bpm>0</bpm>
<rpm>0.00</rpm>
</extensions>
</trkpt>
<trkpt lat="63.834526062" lon="-20.400903702">
<ele>41.936523</ele>
<time>2012-07-27T12:57:03Z</time>
<speed>0.010000</speed>
<extensions>
<speed>0.0</speed>
<temp>0.00</temp>
<bpm>0</bpm>
<rpm>0.00</rpm>
</extensions>
</trkpt>
<trkpt lat="63.834526062" lon="-20.400903702">
<ele>41.942383</ele>
<time>2012-07-27T12:57:08Z</time>
<extensions>
<speed>0.0</speed>
<temp>0.00</temp>
<bpm>0</bpm>
<rpm>0.00</rpm>
</extensions>
</trkpt>
<trkpt lat="63.834526062" lon="-20.400903702">
<ele>41.938477</ele>
<time>2012-07-27T12:57:13Z</time>
<extensions>
<speed>0.0</speed>
<temp>0.00</temp>
<bpm>0</bpm>
<rpm>0.00</rpm>
</extensions>
</trkpt>
<trkpt lat="63.834526062" lon="-20.400905609">
<ele>41.938477</ele>
<time>2012-07-27T12:57:18Z</time>
<speed>0.010000</speed>
<extensions>
<speed>0.0</speed>
<temp>0.00</temp>
<bpm>0</bpm>
<rpm>0.00</rpm>
</extensions>
</trkpt>
<trkpt lat="63.834526062" lon="-20.400905609">
<ele>41.933594</ele>
<time>2012-07-27T12:57:23Z</time>
<extensions>
<speed>0.0</speed>
<temp>0.00</temp>
<bpm>0</bpm>
<rpm>0.00</rpm>
</extensions>
</trkpt>
<trkpt lat="63.834526062" lon="-20.400905609">
<ele>41.929688</ele>
<time>2012-07-27T12:57:28Z</time>
<extensions>
<speed>0.0</speed>
<temp>0.00</temp>
<bpm>0</bpm>
<rpm>0.00</rpm>
</extensions>
</trkpt>
<trkpt lat="63.834526062" lon="-20.400905609">
<ele>41.921875</ele>
<time>2012-07-27T12:57:33Z</time>
<speed>0.010000</speed>
<extensions>
<speed>0.0</speed>
<temp>0.00</temp>
<bpm>0</bpm>
<rpm>0.00</rpm>
</extensions>
</trkpt>
<trkpt lat="63.834526062" lon="-20.400907516">
<ele>41.915039</ele>
<time>2012-07-27T12:57:38Z</time>
<extensions>
<speed>0.0</speed>
<temp>0.00</temp>
<bpm>0</bpm>
<rpm>0.00</rpm>
</extensions>
</trkpt>
<trkpt lat="63.834526062" lon="-20.400907516">
<ele>41.913086</ele>
<time>2012-07-27T12:57:43Z</time>
<speed>0.010000</speed>
<extensions>
<speed>0.0</speed>
<temp>0.00</temp>
<bpm>0</bpm>
<rpm>0.00</rpm>
</extensions>
</trkpt>
<trkpt lat="63.834526062" lon="-20.400907516">
<ele>41.904297</ele>
<time>2012-07-27T12:57:48Z</time>
<extensions>
<speed>0.0</speed>
<temp>0.00</temp>
<bpm>0</bpm>
<rpm>0.00</rpm>
</extensions>
</trkpt>
<trkpt lat="63.834526062" lon="-20.400907516">
<ele>41.889648</ele>
<time>2012-07-27T12:57:53Z</time>
<extensions>
<speed>0.0</speed>
<temp>0.00</temp>
<bpm>0</bpm>
<rpm>0.00</rpm>
</extensions>
</trkpt>
<trkpt lat="63.834526062" lon="-20.400909424">
<ele>41.880859</ele>
<time>2012-07-27T12:57:58Z</time>
<extensions>
<speed>0.0</speed>
<temp>0.00</temp>
<bpm>0</bpm>
<rpm>0.00</rpm>
</extensions>
</trkpt>
<trkpt lat="63.834526062" lon="-20.400909424">
<ele>41.869141</ele>
<time>2012-07-27T12:58:03Z</time>
<extensions>
<speed>0.0</speed>
<temp>0.00</temp>
<bpm>0</bpm>
<rpm>0.00</rpm>
</extensions>
</trkpt>
<trkpt lat="63.834526062" lon="-20.400909424">
<ele>41.864258</ele>
<time>2012-07-27T12:58:08Z</time>
<extensions>
<speed>0.0</speed>
<temp>0.00</temp>
<bpm>0</bpm>
<rpm>0.00</rpm>
</extensions>
</trkpt>
<trkpt lat="63.834526062" lon="-20.400909424">
<ele>41.854492</ele>
<time>2012-07-27T12:58:13Z</time>
<extensions>
<speed>0.0</speed>
<temp>0.00</temp>
<bpm>0</bpm>
<rpm>0.00</rpm>
</extensions>
</trkpt>
<trkpt lat="63.834526062" lon="-20.400909424">
<ele>41.843750</ele>
<time>2012-07-27T12:58:18Z</time>
<extensions>
<speed>0.0</speed>
<temp>0.00</temp>
<bpm>0</bpm>
<rpm>0.00</rpm>
</extensions>
</trkpt>
<trkpt lat="63.834526062" lon="-20.400909424">
<ele>41.833984</ele>
<time>2012-07-27T12:58:23Z</time>
<extensions>
<speed>0.0</speed>
<temp>0.00</temp>
<bpm>0</bpm>
<rpm>0.00</rpm>
</extensions>
</trkpt>
<trkpt lat="63.834526062" lon="-20.400911331">
<ele>41.824219</ele>
<time>2012-07-27T12:58:28Z</time>
<extensions>
<speed>0.0</speed>
<temp>0.00</temp>
<bpm>0</bpm>
<rpm>0.00</rpm>
</extensions>
</trkpt>
<trkpt lat="63.834526062" lon="-20.400911331">
<ele>41.816406</ele>
<time>2012-07-27T12:58:33Z</time>
<speed>0.010000</speed>
<extensions>
<speed>0.0</speed>
<temp>0.00</temp>
<bpm>0</bpm>
<rpm>0.00</rpm>
</extensions>
</trkpt>
<trkpt lat="63.834526062" lon="-20.400911331">
<ele>41.809570</ele>
<time>2012-07-27T12:58:38Z</time>
<extensions>
<speed>0.0</speed>
<temp>0.00</temp>
<bpm>0</bpm>
<rpm>0.00</rpm>
</extensions>
</trkpt>
<trkpt lat="63.834526062" lon="-20.400911331">
<ele>41.797852</ele>
<time>2012-07-27T12:58:43Z</time>
<extensions>
<speed>0.0</speed>
<temp>0.00</temp>
<bpm>0</bpm>
<rpm>0.00</rpm>
</extensions>
</trkpt>
<trkpt lat="63.834526062" lon="-20.400911331">
<ele>41.786133</ele>
<time>2012-07-27T12:58:48Z</time>
<speed>0.010000</speed>
<extensions>
<speed>0.0</speed>
<temp>0.00</temp>
<bpm>0</bpm>
<rpm>0.00</rpm>
</extensions>
</trkpt>
<trkpt lat="63.834526062" lon="-20.400911331">
<ele>41.781250</ele>
<time>2012-07-27T12:58:53Z</time>
<speed>0.010000</speed>
<extensions>
<speed>0.0</speed>
<temp>0.00</temp>
<bpm>0</bpm>
<rpm>0.00</rpm>
</extensions>
</trkpt>
<trkpt lat="63.834526062" lon="-20.400911331">
<ele>41.775391</ele>
<time>2012-07-27T12:58:58Z</time>
<speed>0.010000</speed>
<extensions>
<speed>0.0</speed>
<temp>0.00</temp>
<bpm>0</bpm>
<rpm>0.00</rpm>
</extensions>
</trkpt>
<trkpt lat="63.834526062" lon="-20.400909424">
<ele>41.770508</ele>
<time>2012-07-27T12:59:03Z</time>
<extensions>
<speed>0.0</speed>
<temp>0.00</temp>
<bpm>0</bpm>
<rpm>0.00</rpm>
</extensions>
</trkpt>
<trkpt lat="63.834526062" lon="-20.400909424">
<ele>41.757813</ele>
<time>2012-07-27T12:59:08Z</time>
<speed>0.010000</speed>
<extensions>
<speed>0.0</speed>
<temp>0.00</temp>
<bpm>0</bpm>
<rpm>0.00</rpm>
</extensions>
</trkpt>
<trkpt lat="63.834526062" lon="-20.400909424">
<ele>41.742188</ele>
<time>2012-07-27T12:59:13Z</time>
<extensions>
<speed>0.0</speed>
<temp>0.00</temp>
<bpm>0</bpm>
<rpm>0.00</rpm>
</extensions>
</trkpt>
<trkpt lat="63.834526062" lon="-20.400909424">
<ele>41.721680</ele>
<time>2012-07-27T12:59:18Z</time>
<speed>0.010000</speed>
<extensions>
<speed>0.0</speed>
<temp>0.00</temp>
<bpm>0</bpm>
<rpm>0.00</rpm>
</extensions>
</trkpt>
<trkpt lat="63.834526062" lon="-20.400909424">
<ele>41.702148</ele>
<time>2012-07-27T12:59:23Z</time>
<extensions>
<speed>0.0</speed>
<temp>0.00</temp>
<bpm>0</bpm>
<rpm>0.00</rpm>
</extensions>
</trkpt>
<trkpt lat="63.834522247" lon="-20.400909424">
<ele>41.686523</ele>
<time>2012-07-27T12:59:28Z</time>
<extensions>
<speed>0.0</speed>
<temp>0.00</temp>
<bpm>0</bpm>
<rpm>0.00</rpm>
</extensions>
</trkpt>
<trkpt lat="63.834522247" lon="-20.400909424">
<ele>41.668945</ele>
<time>2012-07-27T12:59:33Z</time>
<extensions>
<speed>0.0</speed>
<temp>0.00</temp>
<bpm>0</bpm>
<rpm>0.00</rpm>
</extensions>
</trkpt>
<trkpt lat="63.834522247" lon="-20.400909424">
<ele>41.658203</ele>
<time>2012-07-27T12:59:38Z</time>
<speed>0.010000</speed>
<extensions>
<speed>0.0</speed>
<temp>0.00</temp>
<bpm>0</bpm>
<rpm>0.00</rpm>
</extensions>
</trkpt>
<trkpt lat="63.834522247" lon="-20.400909424">
<ele>41.648438</ele>
<time>2012-07-27T12:59:43Z</time>
<speed>0.010000</speed>
<extensions>
<speed>0.0</speed>
<temp>0.00</temp>
<bpm>0</bpm>
<rpm>0.00</rpm>
</extensions>
</trkpt>
<trkpt lat="63.834522247" lon="-20.400909424">
<ele>41.638672</ele>
<time>2012-07-27T12:59:48Z</time>
<speed>0.010000</speed>
<extensions>
<speed>0.0</speed>
<temp>0.00</temp>
<bpm>0</bpm>
<rpm>0.00</rpm>
</extensions>
</trkpt>
<trkpt lat="63.834522247" lon="-20.400909424">
<ele>41.626953</ele>
<time>2012-07-27T12:59:53Z</time>
<extensions>
<speed>0.0</speed>
<temp>0.00</temp>
<bpm>0</bpm>
<rpm>0.00</rpm>
</extensions>
</trkpt>
<trkpt lat="63.834522247" lon="-20.400909424">
<ele>41.611328</ele>
<time>2012-07-27T12:59:58Z</time>
<extensions>
<speed>0.0</speed>
<temp>0.00</temp>
<bpm>0</bpm>
<rpm>0.00</rpm>
</extensions>
</trkpt>
<trkpt lat="63.834522247" lon="-20.400911331">
<ele>41.605469</ele>
<time>2012-07-27T13:00:03Z</time>
<extensions>
<speed>0.0</speed>
<temp>0.00</temp>
<bpm>0</bpm>
<rpm>0.00</rpm>
</extensions>
</trkpt>
<trkpt lat="63.834522247" lon="-20.400911331">
<ele>41.587891</ele>
<time>2012-07-27T13:00:08Z</time>
<extensions>
<speed>0.0</speed>
<temp>0.00</temp>
<bpm>0</bpm>
<rpm>0.00</rpm>
</extensions>
</trkpt>
<trkpt lat="63.834522247" lon="-20.400911331">
<ele>41.581055</ele>
<time>2012-07-27T13:00:13Z</time>
<extensions>
<speed>0.0</speed>
<temp>0.00</temp>
<bpm>0</bpm>
<rpm>0.00</rpm>
</extensions>
</trkpt>
<trkpt lat="63.834522247" lon="-20.400911331">
<ele>41.564453</ele>
<time>2012-07-27T13:00:18Z</time>
<extensions>
<speed>0.0</speed>
<temp>0.00</temp>
<bpm>0</bpm>
<rpm>0.00</rpm>
</extensions>
</trkpt>
<trkpt lat="63.834522247" lon="-20.400911331">
<ele>41.553711</ele>
<time>2012-07-27T13:00:23Z</time>
<extensions>
<speed>0.0</speed>
<temp>0.00</temp>
<bpm>0</bpm>
<rpm>0.00</rpm>
</extensions>
</trkpt>
<trkpt lat="63.834522247" lon="-20.400911331">
<ele>41.534180</ele>
<time>2012-07-27T13:00:28Z</time>
<speed>0.010000</speed>
<extensions>
<speed>0.0</speed>
<temp>0.00</temp>
<bpm>0</bpm>
<rpm>0.00</rpm>
</extensions>
</trkpt>
<trkpt lat="63.834522247" lon="-20.400911331">
<ele>41.513672</ele>
<time>2012-07-27T13:00:33Z</time>
<extensions>
<speed>0.0</speed>
<temp>0.00</temp>
<bpm>0</bpm>
<rpm>0.00</rpm>
</extensions>
</trkpt>
<trkpt lat="63.834522247" lon="-20.400911331">
<ele>41.495117</ele>
<time>2012-07-27T13:00:38Z</time>
<speed>0.020000</speed>
<extensions>
<speed>0.0</speed>
<temp>0.00</temp>
<bpm>0</bpm>
<rpm>0.00</rpm>
</extensions>
</trkpt>
<trkpt lat="63.834522247" lon="-20.400911331">
<ele>41.479492</ele>
<time>2012-07-27T13:00:43Z</time>
<speed>0.010000</speed>
<extensions>
<speed>0.0</speed>
<temp>0.00</temp>
<bpm>0</bpm>
<rpm>0.00</rpm>
</extensions>
</trkpt>
<trkpt lat="63.834522247" lon="-20.400911331">
<ele>41.466797</ele>
<time>2012-07-27T13:00:48Z</time>
<speed>0.010000</speed>
<extensions>
<speed>0.0</speed>
<temp>0.00</temp>
<bpm>0</bpm>
<rpm>0.00</rpm>
</extensions>
</trkpt>
<trkpt lat="63.834522247" lon="-20.400911331">
<ele>41.465820</ele>
<time>2012-07-27T13:00:53Z</time>
<extensions>
<speed>0.0</speed>
<temp>0.00</temp>
<bpm>0</bpm>
<rpm>0.00</rpm>
</extensions>
</trkpt>
<trkpt lat="63.834522247" lon="-20.400911331">
<ele>41.464844</ele>
<time>2012-07-27T13:00:58Z</time>
<speed>0.010000</speed>
<extensions>
<speed>0.0</speed>
<temp>0.00</temp>
<bpm>0</bpm>
<rpm>0.00</rpm>
</extensions>
</trkpt>
<trkpt lat="63.834522247" lon="-20.400913239">
<ele>41.467773</ele>
<time>2012-07-27T13:01:03Z</time>
<extensions>
<speed>0.0</speed>
<temp>0.00</temp>
<bpm>0</bpm>
<rpm>0.00</rpm>
</extensions>
</trkpt>
<trkpt lat="63.834522247" lon="-20.400913239">
<ele>41.469727</ele>
<time>2012-07-27T13:01:08Z</time>
<extensions>
<speed>0.0</speed>
<temp>0.00</temp>
<bpm>0</bpm>
<rpm>0.00</rpm>
</extensions>
</trkpt>
<trkpt lat="63.834522247" lon="-20.400913239">
<ele>41.463867</ele>
<time>2012-07-27T13:01:13Z</time>
<speed>0.010000</speed>
<extensions>
<speed>0.0</speed>
<temp>0.00</temp>
<bpm>0</bpm>
<rpm>0.00</rpm>
</extensions>
</trkpt>
<trkpt lat="63.834522247" lon="-20.400913239">
<ele>41.464844</ele>
<time>2012-07-27T13:01:18Z</time>
<speed>0.010000</speed>
<extensions>
<speed>0.0</speed>
<temp>0.00</temp>
<bpm>0</bpm>
<rpm>0.00</rpm>
</extensions>
</trkpt>
<trkpt lat="63.834522247" lon="-20.400913239">
<ele>41.455078</ele>
<time>2012-07-27T13:01:23Z</time>
<extensions>
<speed>0.0</speed>
<temp>0.00</temp>
<bpm>0</bpm>
<rpm>0.00</rpm>
</extensions>
</trkpt>
<trkpt lat="63.834522247" lon="-20.400915146">
<ele>41.453125</ele>
<time>2012-07-27T13:01:28Z</time>
<extensions>
<speed>0.0</speed>
<temp>0.00</temp>
<bpm>0</bpm>
<rpm>0.00</rpm>
</extensions>
</trkpt>
<trkpt lat="63.834522247" lon="-20.400915146">
<ele>41.446289</ele>
<time>2012-07-27T13:01:33Z</time>
<extensions>
<speed>0.0</speed>
<temp>0.00</temp>
<bpm>0</bpm>
<rpm>0.00</rpm>
</extensions>
</trkpt>
<trkpt lat="63.834522247" lon="-20.400915146">
<ele>41.448242</ele>
<time>2012-07-27T13:01:38Z</time>
<speed>0.020000</speed>
<extensions>
<speed>0.0</speed>
<temp>0.00</temp>
<bpm>0</bpm>
<rpm>0.00</rpm>
</extensions>
</trkpt>
<trkpt lat="63.834522247" lon="-20.400915146">
<ele>41.449219</ele>
<time>2012-07-27T13:01:43Z</time>
<extensions>
<speed>0.0</speed>
<temp>0.00</temp>
<bpm>0</bpm>
<rpm>0.00</rpm>
</extensions>
</trkpt>
<trkpt lat="63.834522247" lon="-20.400915146">
<ele>41.443359</ele>
<time>2012-07-27T13:01:48Z</time>
<extensions>
<speed>0.0</speed>
<temp>0.00</temp>
<bpm>0</bpm>
<rpm>0.00</rpm>
</extensions>
</trkpt>
<trkpt lat="63.834522247" lon="-20.400915146">
<ele>41.439453</ele>
<time>2012-07-27T13:01:53Z</time>
<speed>0.010000</speed>
<extensions>
<speed>0.0</speed>
<temp>0.00</temp>
<bpm>0</bpm>
<rpm>0.00</rpm>
</extensions>
</trkpt>
<trkpt lat="63.834522247" lon="-20.400915146">
<ele>41.435547</ele>
<time>2012-07-27T13:01:58Z</time>
<extensions>
<speed>0.0</speed>
<temp>0.00</temp>
<bpm>0</bpm>
<rpm>0.00</rpm>
</extensions>
</trkpt>
<trkpt lat="63.834522247" lon="-20.400915146">
<ele>41.429688</ele>
<time>2012-07-27T13:02:03Z</time>
<extensions>
<speed>0.0</speed>
<temp>0.00</temp>
<bpm>0</bpm>
<rpm>0.00</rpm>
</extensions>
</trkpt>
<trkpt lat="63.834522247" lon="-20.400915146">
<ele>41.414063</ele>
<time>2012-07-27T13:02:08Z</time>
<extensions>
<speed>0.0</speed>
<temp>0.00</temp>
<bpm>0</bpm>
<rpm>0.00</rpm>
</extensions>
</trkpt>
<trkpt lat="63.834522247" lon="-20.400915146">
<ele>41.397461</ele>
<time>2012-07-27T13:02:13Z</time>
<extensions>
<speed>0.0</speed>
<temp>0.00</temp>
<bpm>0</bpm>
<rpm>0.00</rpm>
</extensions>
</trkpt>
<trkpt lat="63.834522247" lon="-20.400917053">
<ele>41.393555</ele>
<time>2012-07-27T13:02:18Z</time>
<speed>0.010000</speed>
<extensions>
<speed>0.0</speed>
<temp>0.00</temp>
<bpm>0</bpm>
<rpm>0.00</rpm>
</extensions>
</trkpt>
<trkpt lat="63.834522247" lon="-20.400917053">
<ele>41.394531</ele>
<time>2012-07-27T13:02:23Z</time>
<speed>0.010000</speed>
<extensions>
<speed>0.0</speed>
<temp>0.00</temp>
<bpm>0</bpm>
<rpm>0.00</rpm>
</extensions>
</trkpt>
<trkpt lat="63.834522247" lon="-20.400917053">
<ele>41.392578</ele>
<time>2012-07-27T13:02:28Z</time>
<extensions>
<speed>0.0</speed>
<temp>0.00</temp>
<bpm>0</bpm>
<rpm>0.00</rpm>
</extensions>
</trkpt>
<trkpt lat="63.834522247" lon="-20.400917053">
<ele>41.381836</ele>
<time>2012-07-27T13:02:33Z</time>
<extensions>
<speed>0.0</speed>
<temp>0.00</temp>
<bpm>0</bpm>
<rpm>0.00</rpm>
</extensions>
</trkpt>
<trkpt lat="63.834526062" lon="-20.400917053">
<ele>41.376953</ele>
<time>2012-07-27T13:02:38Z</time>
<extensions>
<speed>0.0</speed>
<temp>0.00</temp>
<bpm>0</bpm>
<rpm>0.00</rpm>
</extensions>
</trkpt>
<trkpt lat="63.834526062" lon="-20.400917053">
<ele>41.375977</ele>
<time>2012-07-27T13:02:43Z</time>
<extensions>
<speed>0.0</speed>
<temp>0.00</temp>
<bpm>0</bpm>
<rpm>0.00</rpm>
</extensions>
</trkpt>
<trkpt lat="63.834526062" lon="-20.400917053">
<ele>41.387695</ele>
<time>2012-07-27T13:02:48Z</time>
<extensions>
<speed>0.0</speed>
<temp>0.00</temp>
<bpm>0</bpm>
<rpm>0.00</rpm>
</extensions>
</trkpt>
<trkpt lat="63.834526062" lon="-20.400918961">
<ele>41.400391</ele>
<time>2012-07-27T13:02:53Z</time>
<extensions>
<speed>0.0</speed>
<temp>0.00</temp>
<bpm>0</bpm>
<rpm>0.00</rpm>
</extensions>
</trkpt>
<trkpt lat="63.834526062" lon="-20.400918961">
<ele>41.408203</ele>
<time>2012-07-27T13:02:58Z</time>
<extensions>
<speed>0.0</speed>
<temp>0.00</temp>
<bpm>0</bpm>
<rpm>0.00</rpm>
</extensions>
</trkpt>
<trkpt lat="63.834526062" lon="-20.400918961">
<ele>41.402344</ele>
<time>2012-07-27T13:03:03Z</time>
<extensions>
<speed>0.0</speed>
<temp>0.00</temp>
<bpm>0</bpm>
<rpm>0.00</rpm>
</extensions>
</trkpt>
<trkpt lat="63.834526062" lon="-20.400918961">
<ele>41.405273</ele>
<time>2012-07-27T13:03:08Z</time>
<speed>0.020000</speed>
<extensions>
<speed>0.0</speed>
<temp>0.00</temp>
<bpm>0</bpm>
<rpm>0.00</rpm>
</extensions>
</trkpt>
<trkpt lat="63.834526062" lon="-20.400918961">
<ele>41.402344</ele>
<time>2012-07-27T13:03:13Z</time>
<speed>0.010000</speed>
<extensions>
<speed>0.0</speed>
<temp>0.00</temp>
<bpm>0</bpm>
<rpm>0.00</rpm>
</extensions>
</trkpt>
<trkpt lat="63.834526062" lon="-20.400918961">
<ele>41.402344</ele>
<time>2012-07-27T13:03:18Z</time>
<speed>0.010000</speed>
<extensions>
<speed>0.0</speed>
<temp>0.00</temp>
<bpm>0</bpm>
<rpm>0.00</rpm>
</extensions>
</trkpt>
<trkpt lat="63.834526062" lon="-20.400920868">
<ele>41.403320</ele>
<time>2012-07-27T13:03:23Z</time>
<extensions>
<speed>0.0</speed>
<temp>0.00</temp>
<bpm>0</bpm>
<rpm>0.00</rpm>
</extensions>
</trkpt>
<trkpt lat="63.834526062" lon="-20.400920868">
<ele>41.402344</ele>
<time>2012-07-27T13:03:28Z</time>
<extensions>
<speed>0.0</speed>
<temp>0.00</temp>
<bpm>0</bpm>
<rpm>0.00</rpm>
</extensions>
</trkpt>
<trkpt lat="63.834526062" lon="-20.400920868">
<ele>41.395508</ele>
<time>2012-07-27T13:03:33Z</time>
<speed>0.010000</speed>
<extensions>
<speed>0.0</speed>
<temp>0.00</temp>
<bpm>0</bpm>
<rpm>0.00</rpm>
</extensions>
</trkpt>
<trkpt lat="63.834526062" lon="-20.400920868">
<ele>41.395508</ele>
<time>2012-07-27T13:03:38Z</time>
<speed>0.040000</speed>
<extensions>
<speed>0.0</speed>
<temp>0.00</temp>
<bpm>0</bpm>
<rpm>0.00</rpm>
</extensions>
</trkpt>
<trkpt lat="63.834526062" lon="-20.400920868">
<ele>41.379883</ele>
<time>2012-07-27T13:03:43Z</time>
<extensions>
<speed>0.0</speed>
<temp>0.00</temp>
<bpm>0</bpm>
<rpm>0.00</rpm>
</extensions>
</trkpt>
<trkpt lat="63.834526062" lon="-20.400920868">
<ele>41.373047</ele>
<time>2012-07-27T13:03:48Z</time>
<extensions>
<speed>0.0</speed>
<temp>0.00</temp>
<bpm>0</bpm>
<rpm>0.00</rpm>
</extensions>
</trkpt>
<trkpt lat="63.834526062" lon="-20.400920868">
<ele>41.359375</ele>
<time>2012-07-27T13:03:53Z</time>
<extensions>
<speed>0.0</speed>
<temp>0.00</temp>
<bpm>0</bpm>
<rpm>0.00</rpm>
</extensions>
</trkpt>
<trkpt lat="63.834526062" lon="-20.400920868">
<ele>41.351563</ele>
<time>2012-07-27T13:03:58Z</time>
<extensions>
<speed>0.0</speed>
<temp>0.00</temp>
<bpm>0</bpm>
<rpm>0.00</rpm>
</extensions>
</trkpt>
<trkpt lat="63.834526062" lon="-20.400920868">
<ele>41.338867</ele>
<time>2012-07-27T13:04:03Z</time>
<speed>0.010000</speed>
<extensions>
<speed>0.0</speed>
<temp>0.00</temp>
<bpm>0</bpm>
<rpm>0.00</rpm>
</extensions>
</trkpt>
<trkpt lat="63.834526062" lon="-20.400920868">
<ele>41.325195</ele>
<time>2012-07-27T13:04:08Z</time>
<extensions>
<speed>0.0</speed>
<temp>0.00</temp>
<bpm>0</bpm>
<rpm>0.00</rpm>
</extensions>
</trkpt>
<trkpt lat="63.834526062" lon="-20.400920868">
<ele>41.319336</ele>
<time>2012-07-27T13:04:13Z</time>
<extensions>
<speed>0.0</speed>
<temp>0.00</temp>
<bpm>0</bpm>
<rpm>0.00</rpm>
</extensions>
</trkpt>
<trkpt lat="63.834526062" lon="-20.400920868">
<ele>41.317383</ele>
<time>2012-07-27T13:04:18Z</time>
<extensions>
<speed>0.0</speed>
<temp>0.00</temp>
<bpm>0</bpm>
<rpm>0.00</rpm>
</extensions>
</trkpt>
<trkpt lat="63.834526062" lon="-20.400920868">
<ele>41.310547</ele>
<time>2012-07-27T13:04:23Z</time>
<extensions>
<speed>0.0</speed>
<temp>0.00</temp>
<bpm>0</bpm>
<rpm>0.00</rpm>
</extensions>
</trkpt>
<trkpt lat="63.834526062" lon="-20.400920868">
<ele>41.304688</ele>
<time>2012-07-27T13:04:28Z</time>
<extensions>
<speed>0.0</speed>
<temp>0.00</temp>
<bpm>0</bpm>
<rpm>0.00</rpm>
</extensions>
</trkpt>
<trkpt lat="63.834526062" lon="-20.400920868">
<ele>41.300781</ele>
<time>2012-07-27T13:04:33Z</time>
<extensions>
<speed>0.0</speed>
<temp>0.00</temp>
<bpm>0</bpm>
<rpm>0.00</rpm>
</extensions>
</trkpt>
<trkpt lat="63.834526062" lon="-20.400922775">
<ele>41.293945</ele>
<time>2012-07-27T13:04:38Z</time>
<extensions>
<speed>0.0</speed>
<temp>0.00</temp>
<bpm>0</bpm>
<rpm>0.00</rpm>
</extensions>
</trkpt>
<trkpt lat="63.834526062" lon="-20.400922775">
<ele>41.291016</ele>
<time>2012-07-27T13:04:43Z</time>
<extensions>
<speed>0.0</speed>
<temp>0.00</temp>
<bpm>0</bpm>
<rpm>0.00</rpm>
</extensions>
</trkpt>
<trkpt lat="63.834526062" lon="-20.400922775">
<ele>41.299805</ele>
<time>2012-07-27T13:04:48Z</time>
<speed>0.010000</speed>
<extensions>
<speed>0.0</speed>
<temp>0.00</temp>
<bpm>0</bpm>
<rpm>0.00</rpm>
</extensions>
</trkpt>
<trkpt lat="63.834526062" lon="-20.400924683">
<ele>41.305664</ele>
<time>2012-07-27T13:04:53Z</time>
<speed>0.010000</speed>
<extensions>
<speed>0.0</speed>
<temp>0.00</temp>
<bpm>0</bpm>
<rpm>0.00</rpm>
</extensions>
</trkpt>
<trkpt lat="63.834526062" lon="-20.400924683">
<ele>41.302734</ele>
<time>2012-07-27T13:04:58Z</time>
<extensions>
<speed>0.0</speed>
<temp>0.00</temp>
<bpm>0</bpm>
<rpm>0.00</rpm>
</extensions>
</trkpt>
<trkpt lat="63.834526062" lon="-20.400926590">
<ele>41.322266</ele>
<time>2012-07-27T13:05:03Z</time>
<speed>0.010000</speed>
<extensions>
<speed>0.0</speed>
<temp>0.00</temp>
<bpm>0</bpm>
<rpm>0.00</rpm>
</extensions>
</trkpt>
<trkpt lat="63.834526062" lon="-20.400926590">
<ele>41.331055</ele>
<time>2012-07-27T13:05:08Z</time>
<speed>0.010000</speed>
<extensions>
<speed>0.0</speed>
<temp>0.00</temp>
<bpm>0</bpm>
<rpm>0.00</rpm>
</extensions>
</trkpt>
<trkpt lat="63.834526062" lon="-20.400928497">
<ele>41.326172</ele>
<time>2012-07-27T13:05:13Z</time>
<extensions>
<speed>0.0</speed>
<temp>0.00</temp>
<bpm>0</bpm>
<rpm>0.00</rpm>
</extensions>
</trkpt>
<trkpt lat="63.834526062" lon="-20.400928497">
<ele>41.315430</ele>
<time>2012-07-27T13:05:18Z</time>
<extensions>
<speed>0.0</speed>
<temp>0.00</temp>
<bpm>0</bpm>
<rpm>0.00</rpm>
</extensions>
</trkpt>
<trkpt lat="63.834526062" lon="-20.400928497">
<ele>41.303711</ele>
<time>2012-07-27T13:05:23Z</time>
<extensions>
<speed>0.0</speed>
<temp>0.00</temp>
<bpm>0</bpm>
<rpm>0.00</rpm>
</extensions>
</trkpt>
<trkpt lat="63.834526062" lon="-20.400928497">
<ele>41.289063</ele>
<time>2012-07-27T13:05:28Z</time>
<extensions>
<speed>0.0</speed>
<temp>0.00</temp>
<bpm>0</bpm>
<rpm>0.00</rpm>
</extensions>
</trkpt>
<trkpt lat="63.834529877" lon="-20.400928497">
<ele>41.302734</ele>
<time>2012-07-27T13:05:33Z</time>
<extensions>
<speed>0.0</speed>
<temp>0.00</temp>
<bpm>0</bpm>
<rpm>0.00</rpm>
</extensions>
</trkpt>
<trkpt lat="63.834529877" lon="-20.400930405">
<ele>41.306641</ele>
<time>2012-07-27T13:05:38Z</time>
<speed>0.010000</speed>
<extensions>
<speed>0.0</speed>
<temp>0.00</temp>
<bpm>0</bpm>
<rpm>0.00</rpm>
</extensions>
</trkpt>
<trkpt lat="63.834529877" lon="-20.400930405">
<ele>41.303711</ele>
<time>2012-07-27T13:05:43Z</time>
<speed>0.010000</speed>
<extensions>
<speed>0.0</speed>
<temp>0.00</temp>
<bpm>0</bpm>
<rpm>0.00</rpm>
</extensions>
</trkpt>
<trkpt lat="63.834529877" lon="-20.400930405">
<ele>41.300781</ele>
<time>2012-07-27T13:05:48Z</time>
<speed>0.010000</speed>
<extensions>
<speed>0.0</speed>
<temp>0.00</temp>
<bpm>0</bpm>
<rpm>0.00</rpm>
</extensions>
</trkpt>
<trkpt lat="63.834529877" lon="-20.400930405">
<ele>41.297852</ele>
<time>2012-07-27T13:05:53Z</time>
<speed>0.020000</speed>
<extensions>
<speed>0.0</speed>
<temp>0.00</temp>
<bpm>0</bpm>
<rpm>0.00</rpm>
</extensions>
</trkpt>
<trkpt lat="63.834529877" lon="-20.400930405">
<ele>41.293945</ele>
<time>2012-07-27T13:05:58Z</time>
<extensions>
<speed>0.0</speed>
<temp>0.00</temp>
<bpm>0</bpm>
<rpm>0.00</rpm>
</extensions>
</trkpt>
<trkpt lat="63.834529877" lon="-20.400932312">
<ele>41.287109</ele>
<time>2012-07-27T13:06:03Z</time>
<speed>0.020000</speed>
<extensions>
<speed>0.0</speed>
<temp>0.00</temp>
<bpm>0</bpm>
<rpm>0.00</rpm>
</extensions>
</trkpt>
<trkpt lat="63.834529877" lon="-20.400932312">
<ele>41.289063</ele>
<time>2012-07-27T13:06:08Z</time>
<speed>0.010000</speed>
<extensions>
<speed>0.0</speed>
<temp>0.00</temp>
<bpm>0</bpm>
<rpm>0.00</rpm>
</extensions>
</trkpt>
<trkpt lat="63.834529877" lon="-20.400932312">
<ele>41.282227</ele>
<time>2012-07-27T13:06:13Z</time>
<extensions>
<speed>0.0</speed>
<temp>0.00</temp>
<bpm>0</bpm>
<rpm>0.00</rpm>
</extensions>
</trkpt>
<trkpt lat="63.834529877" lon="-20.400932312">
<ele>41.291016</ele>
<time>2012-07-27T13:06:18Z</time>
<speed>0.010000</speed>
<extensions>
<speed>0.0</speed>
<temp>0.00</temp>
<bpm>0</bpm>
<rpm>0.00</rpm>
</extensions>
</trkpt>
<trkpt lat="63.834529877" lon="-20.400934219">
<ele>41.285156</ele>
<time>2012-07-27T13:06:23Z</time>
<speed>0.020000</speed>
<extensions>
<speed>0.0</speed>
<temp>0.00</temp>
<bpm>0</bpm>
<rpm>0.00</rpm>
</extensions>
</trkpt>
<trkpt lat="63.834529877" lon="-20.400934219">
<ele>41.276367</ele>
<time>2012-07-27T13:06:28Z</time>
<extensions>
<speed>0.0</speed>
<temp>0.00</temp>
<bpm>0</bpm>
<rpm>0.00</rpm>
</extensions>
</trkpt>
<trkpt lat="63.834529877" lon="-20.400934219">
<ele>41.258789</ele>
<time>2012-07-27T13:06:33Z</time>
<extensions>
<speed>0.0</speed>
<temp>0.00</temp>
<bpm>0</bpm>
<rpm>0.00</rpm>
</extensions>
</trkpt>
<trkpt lat="63.834529877" lon="-20.400934219">
<ele>41.250000</ele>
<time>2012-07-27T13:06:38Z</time>
<speed>0.010000</speed>
<extensions>
<speed>0.0</speed>
<temp>0.00</temp>
<bpm>0</bpm>
<rpm>0.00</rpm>
</extensions>
</trkpt>
<trkpt lat="63.834529877" lon="-20.400934219">
<ele>41.250000</ele>
<time>2012-07-27T13:06:43Z</time>
<speed>0.010000</speed>
<extensions>
<speed>0.0</speed>
<temp>0.00</temp>
<bpm>0</bpm>
<rpm>0.00</rpm>
</extensions>
</trkpt>
<trkpt lat="63.834529877" lon="-20.400936127">
<ele>41.260742</ele>
<time>2012-07-27T13:06:48Z</time>
<extensions>
<speed>0.0</speed>
<temp>0.00</temp>
<bpm>0</bpm>
<rpm>0.00</rpm>
</extensions>
</trkpt>
<trkpt lat="63.834529877" lon="-20.400936127">
<ele>41.273438</ele>
<time>2012-07-27T13:06:53Z</time>
<extensions>
<speed>0.0</speed>
<temp>0.00</temp>
<bpm>0</bpm>
<rpm>0.00</rpm>
</extensions>
</trkpt>
<trkpt lat="63.834529877" lon="-20.400936127">
<ele>41.296875</ele>
<time>2012-07-27T13:06:58Z</time>
<extensions>
<speed>0.0</speed>
<temp>0.00</temp>
<bpm>0</bpm>
<rpm>0.00</rpm>
</extensions>
</trkpt>
<trkpt lat="63.834529877" lon="-20.400938034">
<ele>41.324219</ele>
<time>2012-07-27T13:07:03Z</time>
<speed>0.010000</speed>
<extensions>
<speed>0.0</speed>
<temp>0.00</temp>
<bpm>0</bpm>
<rpm>0.00</rpm>
</extensions>
</trkpt>
<trkpt lat="63.834529877" lon="-20.400938034">
<ele>41.344727</ele>
<time>2012-07-27T13:07:08Z</time>
<speed>0.010000</speed>
<extensions>
<speed>0.0</speed>
<temp>0.00</temp>
<bpm>0</bpm>
<rpm>0.00</rpm>
</extensions>
</trkpt>
<trkpt lat="63.834529877" lon="-20.400939941">
<ele>41.375977</ele>
<time>2012-07-27T13:07:13Z</time>
<speed>0.010000</speed>
<extensions>
<speed>0.0</speed>
<temp>0.00</temp>
<bpm>0</bpm>
<rpm>0.00</rpm>
</extensions>
</trkpt>
<trkpt lat="63.834529877" lon="-20.400941849">
<ele>41.405273</ele>
<time>2012-07-27T13:07:18Z</time>
<extensions>
<speed>0.0</speed>
<temp>0.00</temp>
<bpm>0</bpm>
<rpm>0.00</rpm>
</extensions>
</trkpt>
<trkpt lat="63.834533691" lon="-20.400941849">
<ele>41.458008</ele>
<time>2012-07-27T13:07:23Z</time>
<extensions>
<speed>0.0</speed>
<temp>0.00</temp>
<bpm>0</bpm>
<rpm>0.00</rpm>
</extensions>
</trkpt>
<trkpt lat="63.834533691" lon="-20.400943756">
<ele>41.501953</ele>
<time>2012-07-27T13:07:28Z</time>
<extensions>
<speed>0.0</speed>
<temp>0.00</temp>
<bpm>0</bpm>
<rpm>0.00</rpm>
</extensions>
</trkpt>
<trkpt lat="63.834533691" lon="-20.400945663">
<ele>41.556641</ele>
<time>2012-07-27T13:07:33Z</time>
<speed>0.010000</speed>
<extensions>
<speed>0.0</speed>
<temp>0.00</temp>
<bpm>0</bpm>
<rpm>0.00</rpm>
</extensions>
</trkpt>
<trkpt lat="63.834533691" lon="-20.400945663">
<ele>41.602539</ele>
<time>2012-07-27T13:07:38Z</time>
<speed>0.010000</speed>
<extensions>
<speed>0.0</speed>
<temp>0.00</temp>
<bpm>0</bpm>
<rpm>0.00</rpm>
</extensions>
</trkpt>
<trkpt lat="63.834533691" lon="-20.400947571">
<ele>41.642578</ele>
<time>2012-07-27T13:07:43Z</time>
<speed>0.010000</speed>
<extensions>
<speed>0.0</speed>
<temp>0.00</temp>
<bpm>0</bpm>
<rpm>0.00</rpm>
</extensions>
</trkpt>
<trkpt lat="63.834533691" lon="-20.400949478">
<ele>41.682617</ele>
<time>2012-07-27T13:07:48Z</time>
<speed>0.010000</speed>
<extensions>
<speed>0.0</speed>
<temp>0.00</temp>
<bpm>0</bpm>
<rpm>0.00</rpm>
</extensions>
</trkpt>
<trkpt lat="63.834533691" lon="-20.400951385">
<ele>41.714844</ele>
<time>2012-07-27T13:07:53Z</time>
<speed>0.010000</speed>
<extensions>
<speed>0.0</speed>
<temp>0.00</temp>
<bpm>0</bpm>
<rpm>0.00</rpm>
</extensions>
</trkpt>
<trkpt lat="63.834533691" lon="-20.400951385">
<ele>41.740234</ele>
<time>2012-07-27T13:07:58Z</time>
<extensions>
<speed>0.0</speed>
<temp>0.00</temp>
<bpm>0</bpm>
<rpm>0.00</rpm>
</extensions>
</trkpt>
<trkpt lat="63.834533691" lon="-20.400953293">
<ele>41.755859</ele>
<time>2012-07-27T13:08:03Z</time>
<speed>0.010000</speed>
<extensions>
<speed>0.0</speed>
<temp>0.00</temp>
<bpm>0</bpm>
<rpm>0.00</rpm>
</extensions>
</trkpt>
<trkpt lat="63.834533691" lon="-20.400953293">
<ele>41.762695</ele>
<time>2012-07-27T13:08:08Z</time>
<extensions>
<speed>0.0</speed>
<temp>0.00</temp>
<bpm>0</bpm>
<rpm>0.00</rpm>
</extensions>
</trkpt>
<trkpt lat="63.834533691" lon="-20.400953293">
<ele>41.763672</ele>
<time>2012-07-27T13:08:13Z</time>
<extensions>
<speed>0.0</speed>
<temp>0.00</temp>
<bpm>0</bpm>
<rpm>0.00</rpm>
</extensions>
</trkpt>
<trkpt lat="63.834533691" lon="-20.400953293">
<ele>41.766602</ele>
<time>2012-07-27T13:08:18Z</time>
<speed>0.010000</speed>
<extensions>
<speed>0.0</speed>
<temp>0.00</temp>
<bpm>0</bpm>
<rpm>0.00</rpm>
</extensions>
</trkpt>
<trkpt lat="63.834533691" lon="-20.400953293">
<ele>41.767578</ele>
<time>2012-07-27T13:08:23Z</time>
<extensions>
<speed>0.0</speed>
<temp>0.00</temp>
<bpm>0</bpm>
<rpm>0.00</rpm>
</extensions>
</trkpt>
<trkpt lat="63.834533691" lon="-20.400953293">
<ele>41.774414</ele>
<time>2012-07-27T13:08:28Z</time>
<speed>0.010000</speed>
<extensions>
<speed>0.0</speed>
<temp>0.00</temp>
<bpm>0</bpm>
<rpm>0.00</rpm>
</extensions>
</trkpt>
<trkpt lat="63.834533691" lon="-20.400955200">
<ele>41.767578</ele>
<time>2012-07-27T13:08:33Z</time>
<speed>0.010000</speed>
<extensions>
<speed>0.0</speed>
<temp>0.00</temp>
<bpm>0</bpm>
<rpm>0.00</rpm>
</extensions>
</trkpt>
<trkpt lat="63.834537506" lon="-20.400955200">
<ele>41.761719</ele>
<time>2012-07-27T13:08:38Z</time>
<extensions>
<speed>0.0</speed>
<temp>0.00</temp>
<bpm>0</bpm>
<rpm>0.00</rpm>
</extensions>
</trkpt>
<trkpt lat="63.834537506" lon="-20.400953293">
<ele>41.760742</ele>
<time>2012-07-27T13:08:43Z</time>
<extensions>
<speed>0.0</speed>
<temp>0.00</temp>
<bpm>0</bpm>
<rpm>0.00</rpm>
</extensions>
</trkpt>
<trkpt lat="63.834537506" lon="-20.400953293">
<ele>41.755859</ele>
<time>2012-07-27T13:08:48Z</time>
<extensions>
<speed>0.0</speed>
<temp>0.00</temp>
<bpm>0</bpm>
<rpm>0.00</rpm>
</extensions>
</trkpt>
<trkpt lat="63.834537506" lon="-20.400953293">
<ele>41.751953</ele>
<time>2012-07-27T13:08:53Z</time>
<speed>0.010000</speed>
<extensions>
<speed>0.0</speed>
<temp>0.00</temp>
<bpm>0</bpm>
<rpm>0.00</rpm>
</extensions>
</trkpt>
<trkpt lat="63.834537506" lon="-20.400953293">
<ele>41.745117</ele>
<time>2012-07-27T13:08:58Z</time>
<speed>0.010000</speed>
<extensions>
<speed>0.0</speed>
<temp>0.00</temp>
<bpm>0</bpm>
<rpm>0.00</rpm>
</extensions>
</trkpt>
<trkpt lat="63.834537506" lon="-20.400953293">
<ele>41.736328</ele>
<time>2012-07-27T13:09:03Z</time>
<extensions>
<speed>0.0</speed>
<temp>0.00</temp>
<bpm>0</bpm>
<rpm>0.00</rpm>
</extensions>
</trkpt>
<trkpt lat="63.834537506" lon="-20.400953293">
<ele>41.728516</ele>
<time>2012-07-27T13:09:08Z</time>
<speed>0.010000</speed>
<extensions>
<speed>0.0</speed>
<temp>0.00</temp>
<bpm>0</bpm>
<rpm>0.00</rpm>
</extensions>
</trkpt>
<trkpt lat="63.834537506" lon="-20.400953293">
<ele>41.730469</ele>
<time>2012-07-27T13:09:13Z</time>
<extensions>
<speed>0.0</speed>
<temp>0.00</temp>
<bpm>0</bpm>
<rpm>0.00</rpm>
</extensions>
</trkpt>
<trkpt lat="63.834537506" lon="-20.400953293">
<ele>41.744141</ele>
<time>2012-07-27T13:09:18Z</time>
<extensions>
<speed>0.0</speed>
<temp>0.00</temp>
<bpm>0</bpm>
<rpm>0.00</rpm>
</extensions>
</trkpt>
<trkpt lat="63.834537506" lon="-20.400953293">
<ele>41.753906</ele>
<time>2012-07-27T13:09:23Z</time>
<speed>0.010000</speed>
<extensions>
<speed>0.0</speed>
<temp>0.00</temp>
<bpm>0</bpm>
<rpm>0.00</rpm>
</extensions>
</trkpt>
<trkpt lat="63.834537506" lon="-20.400955200">
<ele>41.769531</ele>
<time>2012-07-27T13:09:28Z</time>
<extensions>
<speed>0.0</speed>
<temp>0.00</temp>
<bpm>0</bpm>
<rpm>0.00</rpm>
</extensions>
</trkpt>
<trkpt lat="63.834537506" lon="-20.400955200">
<ele>41.785156</ele>
<time>2012-07-27T13:09:33Z</time>
<speed>0.010000</speed>
<extensions>
<speed>0.0</speed>
<temp>0.00</temp>
<bpm>0</bpm>
<rpm>0.00</rpm>
</extensions>
</trkpt>
<trkpt lat="63.834537506" lon="-20.400955200">
<ele>41.791016</ele>
<time>2012-07-27T13:09:38Z</time>
<extensions>
<speed>0.0</speed>
<temp>0.00</temp>
<bpm>0</bpm>
<rpm>0.00</rpm>
</extensions>
</trkpt>
<trkpt lat="63.834537506" lon="-20.400957108">
<ele>41.800781</ele>
<time>2012-07-27T13:09:43Z</time>
<speed>0.010000</speed>
<extensions>
<speed>0.0</speed>
<temp>0.00</temp>
<bpm>0</bpm>
<rpm>0.00</rpm>
</extensions>
</trkpt>
<trkpt lat="63.834537506" lon="-20.400957108">
<ele>41.808594</ele>
<time>2012-07-27T13:09:48Z</time>
<speed>0.010000</speed>
<extensions>
<speed>0.0</speed>
<temp>0.00</temp>
<bpm>0</bpm>
<rpm>0.00</rpm>
</extensions>
</trkpt>
<trkpt lat="63.834537506" lon="-20.400957108">
<ele>41.820313</ele>
<time>2012-07-27T13:09:53Z</time>
<speed>0.010000</speed>
<extensions>
<speed>0.0</speed>
<temp>0.00</temp>
<bpm>0</bpm>
<rpm>0.00</rpm>
</extensions>
</trkpt>
<trkpt lat="63.834537506" lon="-20.400959015">
<ele>41.839844</ele>
<time>2012-07-27T13:09:58Z</time>
<speed>0.010000</speed>
<extensions>
<speed>0.0</speed>
<temp>0.00</temp>
<bpm>0</bpm>
<rpm>0.00</rpm>
</extensions>
</trkpt>
<trkpt lat="63.834537506" lon="-20.400959015">
<ele>41.853516</ele>
<time>2012-07-27T13:10:03Z</time>
<speed>0.010000</speed>
<extensions>
<speed>0.0</speed>
<temp>0.00</temp>
<bpm>0</bpm>
<rpm>0.00</rpm>
</extensions>
</trkpt>
<trkpt lat="63.834537506" lon="-20.400959015">
<ele>41.858398</ele>
<time>2012-07-27T13:10:08Z</time>
<extensions>
<speed>0.0</speed>
<temp>0.00</temp>
<bpm>0</bpm>
<rpm>0.00</rpm>
</extensions>
</trkpt>
<trkpt lat="63.834537506" lon="-20.400959015">
<ele>41.857422</ele>
<time>2012-07-27T13:10:13Z</time>
<extensions>
<speed>0.0</speed>
<temp>0.00</temp>
<bpm>0</bpm>
<rpm>0.00</rpm>
</extensions>
</trkpt>
<trkpt lat="63.834537506" lon="-20.400960922">
<ele>41.886719</ele>
<time>2012-07-27T13:10:18Z</time>
<speed>0.020000</speed>
<extensions>
<speed>0.0</speed>
<temp>0.00</temp>
<bpm>0</bpm>
<rpm>0.00</rpm>
</extensions>
</trkpt>
<trkpt lat="63.834537506" lon="-20.400960922">
<ele>41.890625</ele>
<time>2012-07-27T13:10:23Z</time>
<extensions>
<speed>0.0</speed>
<temp>0.00</temp>
<bpm>0</bpm>
<rpm>0.00</rpm>
</extensions>
</trkpt>
<trkpt lat="63.834537506" lon="-20.400960922">
<ele>41.897461</ele>
<time>2012-07-27T13:10:28Z</time>
<speed>0.010000</speed>
<extensions>
<speed>0.0</speed>
<temp>0.00</temp>
<bpm>0</bpm>
<rpm>0.00</rpm>
</extensions>
</trkpt>
<trkpt lat="63.834541321" lon="-20.400960922">
<ele>41.926758</ele>
<time>2012-07-27T13:10:33Z</time>
<extensions>
<speed>0.0</speed>
<temp>0.00</temp>
<bpm>0</bpm>
<rpm>0.00</rpm>
</extensions>
</trkpt>
<trkpt lat="63.834541321" lon="-20.400962830">
<ele>41.991211</ele>
<time>2012-07-27T13:10:38Z</time>
<speed>0.010000</speed>
<extensions>
<speed>0.0</speed>
<temp>0.00</temp>
<bpm>0</bpm>
<rpm>0.00</rpm>
</extensions>
</trkpt>
<trkpt lat="63.834541321" lon="-20.400964737">
<ele>42.081055</ele>
<time>2012-07-27T13:10:43Z</time>
<speed>0.010000</speed>
<extensions>
<speed>0.0</speed>
<temp>0.00</temp>
<bpm>0</bpm>
<rpm>0.00</rpm>
</extensions>
</trkpt>
<trkpt lat="63.834541321" lon="-20.400964737">
<ele>42.136719</ele>
<time>2012-07-27T13:10:48Z</time>
<speed>0.010000</speed>
<extensions>
<speed>0.0</speed>
<temp>0.00</temp>
<bpm>0</bpm>
<rpm>0.00</rpm>
</extensions>
</trkpt>
<trkpt lat="63.834541321" lon="-20.400964737">
<ele>42.139648</ele>
<time>2012-07-27T13:10:53Z</time>
<speed>0.010000</speed>
<extensions>
<speed>0.0</speed>
<temp>0.00</temp>
<bpm>0</bpm>
<rpm>0.00</rpm>
</extensions>
</trkpt>
<trkpt lat="63.834541321" lon="-20.400964737">
<ele>42.148438</ele>
<time>2012-07-27T13:10:58Z</time>
<extensions>
<speed>0.0</speed>
<temp>0.00</temp>
<bpm>0</bpm>
<rpm>0.00</rpm>
</extensions>
</trkpt>
<trkpt lat="63.834541321" lon="-20.400964737">
<ele>42.159180</ele>
<time>2012-07-27T13:11:03Z</time>
<extensions>
<speed>0.0</speed>
<temp>0.00</temp>
<bpm>0</bpm>
<rpm>0.00</rpm>
</extensions>
</trkpt>
<trkpt lat="63.834541321" lon="-20.400964737">
<ele>42.173828</ele>
<time>2012-07-27T13:11:08Z</time>
<extensions>
<speed>0.0</speed>
<temp>0.00</temp>
<bpm>0</bpm>
<rpm>0.00</rpm>
</extensions>
</trkpt>
<trkpt lat="63.834541321" lon="-20.400964737">
<ele>42.157227</ele>
<time>2012-07-27T13:11:13Z</time>
<extensions>
<speed>0.0</speed>
<temp>0.00</temp>
<bpm>0</bpm>
<rpm>0.00</rpm>
</extensions>
</trkpt>
<trkpt lat="63.834541321" lon="-20.400964737">
<ele>42.144531</ele>
<time>2012-07-27T13:11:18Z</time>
<extensions>
<speed>0.0</speed>
<temp>0.00</temp>
<bpm>0</bpm>
<rpm>0.00</rpm>
</extensions>
</trkpt>
<trkpt lat="63.834541321" lon="-20.400964737">
<ele>42.136719</ele>
<time>2012-07-27T13:11:23Z</time>
<extensions>
<speed>0.0</speed>
<temp>0.00</temp>
<bpm>0</bpm>
<rpm>0.00</rpm>
</extensions>
</trkpt>
<trkpt lat="63.834541321" lon="-20.400964737">
<ele>42.122070</ele>
<time>2012-07-27T13:11:28Z</time>
<extensions>
<speed>0.0</speed>
<temp>0.00</temp>
<bpm>0</bpm>
<rpm>0.00</rpm>
</extensions>
</trkpt>
<trkpt lat="63.834541321" lon="-20.400964737">
<ele>42.097656</ele>
<time>2012-07-27T13:11:33Z</time>
<extensions>
<speed>0.0</speed>
<temp>0.00</temp>
<bpm>0</bpm>
<rpm>0.00</rpm>
</extensions>
</trkpt>
<trkpt lat="63.834541321" lon="-20.400964737">
<ele>42.069336</ele>
<time>2012-07-27T13:11:38Z</time>
<extensions>
<speed>0.0</speed>
<temp>0.00</temp>
<bpm>0</bpm>
<rpm>0.00</rpm>
</extensions>
</trkpt>
<trkpt lat="63.834541321" lon="-20.400964737">
<ele>42.044922</ele>
<time>2012-07-27T13:11:43Z</time>
<extensions>
<speed>0.0</speed>
<temp>0.00</temp>
<bpm>0</bpm>
<rpm>0.00</rpm>
</extensions>
</trkpt>
<trkpt lat="63.834541321" lon="-20.400966644">
<ele>42.013672</ele>
<time>2012-07-27T13:11:48Z</time>
<extensions>
<speed>0.0</speed>
<temp>0.00</temp>
<bpm>0</bpm>
<rpm>0.00</rpm>
</extensions>
</trkpt>
<trkpt lat="63.834541321" lon="-20.400966644">
<ele>41.994141</ele>
<time>2012-07-27T13:11:53Z</time>
<speed>0.010000</speed>
<extensions>
<speed>0.0</speed>
<temp>0.00</temp>
<bpm>0</bpm>
<rpm>0.00</rpm>
</extensions>
</trkpt>
<trkpt lat="63.834541321" lon="-20.400966644">
<ele>41.968750</ele>
<time>2012-07-27T13:11:58Z</time>
<extensions>
<speed>0.0</speed>
<temp>0.00</temp>
<bpm>0</bpm>
<rpm>0.00</rpm>
</extensions>
</trkpt>
<trkpt lat="63.834541321" lon="-20.400966644">
<ele>41.942383</ele>
<time>2012-07-27T13:12:03Z</time>
<extensions>
<speed>0.0</speed>
<temp>0.00</temp>
<bpm>0</bpm>
<rpm>0.00</rpm>
</extensions>
</trkpt>
<trkpt lat="63.834541321" lon="-20.400966644">
<ele>41.926758</ele>
<time>2012-07-27T13:12:08Z</time>
<speed>0.010000</speed>
<extensions>
<speed>0.0</speed>
<temp>0.00</temp>
<bpm>0</bpm>
<rpm>0.00</rpm>
</extensions>
</trkpt>
<trkpt lat="63.834541321" lon="-20.400966644">
<ele>41.892578</ele>
<time>2012-07-27T13:12:13Z</time>
<speed>0.060000</speed>
<extensions>
<speed>0.1</speed>
<temp>0.00</temp>
<bpm>0</bpm>
<rpm>0.00</rpm>
</extensions>
</trkpt>
<trkpt lat="63.834541321" lon="-20.400966644">
<ele>41.916016</ele>
<time>2012-07-27T13:12:18Z</time>
<extensions>
<speed>0.0</speed>
<temp>0.00</temp>
<bpm>0</bpm>
<rpm>0.00</rpm>
</extensions>
</trkpt>
<trkpt lat="63.834541321" lon="-20.400966644">
<ele>41.924805</ele>
<time>2012-07-27T13:12:23Z</time>
<extensions>
<speed>0.0</speed>
<temp>0.00</temp>
<bpm>0</bpm>
<rpm>0.00</rpm>
</extensions>
</trkpt>
<trkpt lat="63.834541321" lon="-20.400966644">
<ele>41.923828</ele>
<time>2012-07-27T13:12:28Z</time>
<speed>0.020000</speed>
<extensions>
<speed>0.0</speed>
<temp>0.00</temp>
<bpm>0</bpm>
<rpm>0.00</rpm>
</extensions>
</trkpt>
<trkpt lat="63.834541321" lon="-20.400966644">
<ele>41.906250</ele>
<time>2012-07-27T13:12:33Z</time>
<speed>0.010000</speed>
<extensions>
<speed>0.0</speed>
<temp>0.00</temp>
<bpm>0</bpm>
<rpm>0.00</rpm>
</extensions>
</trkpt>
<trkpt lat="63.834541321" lon="-20.400966644">
<ele>41.908203</ele>
<time>2012-07-27T13:12:38Z</time>
<speed>0.030000</speed>
<extensions>
<speed>0.0</speed>
<temp>0.00</temp>
<bpm>0</bpm>
<rpm>0.00</rpm>
</extensions>
</trkpt>
<trkpt lat="63.834541321" lon="-20.400966644">
<ele>41.897461</ele>
<time>2012-07-27T13:12:43Z</time>
<speed>0.030000</speed>
<extensions>
<speed>0.0</speed>
<temp>0.00</temp>
<bpm>0</bpm>
<rpm>0.00</rpm>
</extensions>
</trkpt>
<trkpt lat="63.834541321" lon="-20.400966644">
<ele>41.869141</ele>
<time>2012-07-27T13:12:48Z</time>
<speed>0.010000</speed>
<extensions>
<speed>0.0</speed>
<temp>0.00</temp>
<bpm>0</bpm>
<rpm>0.00</rpm>
</extensions>
</trkpt>
<trkpt lat="63.834541321" lon="-20.400966644">
<ele>41.853516</ele>
<time>2012-07-27T13:12:53Z</time>
<speed>0.060000</speed>
<extensions>
<speed>0.1</speed>
<temp>0.00</temp>
<bpm>0</bpm>
<rpm>0.00</rpm>
</extensions>
</trkpt>
<trkpt lat="63.834541321" lon="-20.400966644">
<ele>41.805664</ele>
<time>2012-07-27T13:12:58Z</time>
<speed>0.040000</speed>
<extensions>
<speed>0.0</speed>
<temp>0.00</temp>
<bpm>0</bpm>
<rpm>0.00</rpm>
</extensions>
</trkpt>
<trkpt lat="63.834537506" lon="-20.400964737">
<ele>41.767578</ele>
<time>2012-07-27T13:13:03Z</time>
<speed>0.150000</speed>
<extensions>
<speed>0.2</speed>
<temp>0.00</temp>
<bpm>0</bpm>
<rpm>0.00</rpm>
</extensions>
</trkpt>
<trkpt lat="63.834537506" lon="-20.400962830">
<ele>41.842773</ele>
<time>2012-07-27T13:13:08Z</time>
<speed>0.010000</speed>
<extensions>
<speed>0.0</speed>
<temp>0.00</temp>
<bpm>0</bpm>
<rpm>0.00</rpm>
</extensions>
</trkpt>
<trkpt lat="63.834537506" lon="-20.400964737">
<ele>41.917969</ele>
<time>2012-07-27T13:13:13Z</time>
<speed>0.050000</speed>
<extensions>
<speed>0.1</speed>
<temp>0.00</temp>
<bpm>0</bpm>
<rpm>0.00</rpm>
</extensions>
</trkpt>
<trkpt lat="63.834537506" lon="-20.400964737">
<ele>41.913086</ele>
<time>2012-07-27T13:13:18Z</time>
<speed>0.040000</speed>
<extensions>
<speed>0.0</speed>
<temp>0.00</temp>
<bpm>0</bpm>
<rpm>0.00</rpm>
</extensions>
</trkpt>
<trkpt lat="63.834537506" lon="-20.400964737">
<ele>41.916016</ele>
<time>2012-07-27T13:13:23Z</time>
<speed>0.020000</speed>
<extensions>
<speed>0.0</speed>
<temp>0.00</temp>
<bpm>0</bpm>
<rpm>0.00</rpm>
</extensions>
</trkpt>
<trkpt lat="63.834537506" lon="-20.400964737">
<ele>41.893555</ele>
<time>2012-07-27T13:13:28Z</time>
<speed>0.010000</speed>
<extensions>
<speed>0.0</speed>
<temp>0.00</temp>
<bpm>0</bpm>
<rpm>0.00</rpm>
</extensions>
</trkpt>
<trkpt lat="63.834537506" lon="-20.400964737">
<ele>41.884766</ele>
<time>2012-07-27T13:13:33Z</time>
<extensions>
<speed>0.0</speed>
<temp>0.00</temp>
<bpm>0</bpm>
<rpm>0.00</rpm>
</extensions>
</trkpt>
<trkpt lat="63.834537506" lon="-20.400962830">
<ele>41.872070</ele>
<time>2012-07-27T13:13:38Z</time>
<extensions>
<speed>0.0</speed>
<temp>0.00</temp>
<bpm>0</bpm>
<rpm>0.00</rpm>
</extensions>
</trkpt>
<trkpt lat="63.834537506" lon="-20.400962830">
<ele>41.882813</ele>
<time>2012-07-27T13:13:43Z</time>
<speed>0.010000</speed>
<extensions>
<speed>0.0</speed>
<temp>0.00</temp>
<bpm>0</bpm>
<rpm>0.00</rpm>
</extensions>
</trkpt>
<trkpt lat="63.834537506" lon="-20.400962830">
<ele>41.885742</ele>
<time>2012-07-27T13:13:48Z</time>
<speed>0.030000</speed>
<extensions>
<speed>0.0</speed>
<temp>0.00</temp>
<bpm>0</bpm>
<rpm>0.00</rpm>
</extensions>
</trkpt>
<trkpt lat="63.834537506" lon="-20.400964737">
<ele>41.881836</ele>
<time>2012-07-27T13:13:53Z</time>
<extensions>
<speed>0.0</speed>
<temp>0.00</temp>
<bpm>0</bpm>
<rpm>0.00</rpm>
</extensions>
</trkpt>
<trkpt lat="63.834537506" lon="-20.400964737">
<ele>41.883789</ele>
<time>2012-07-27T13:13:58Z</time>
<speed>0.010000</speed>
<extensions>
<speed>0.0</speed>
<temp>0.00</temp>
<bpm>0</bpm>
<rpm>0.00</rpm>
</extensions>
</trkpt>
<trkpt lat="63.834537506" lon="-20.400962830">
<ele>41.889648</ele>
<time>2012-07-27T13:14:03Z</time>
<speed>0.010000</speed>
<extensions>
<speed>0.0</speed>
<temp>0.00</temp>
<bpm>0</bpm>
<rpm>0.00</rpm>
</extensions>
</trkpt>
<trkpt lat="63.834537506" lon="-20.400962830">
<ele>41.891602</ele>
<time>2012-07-27T13:14:08Z</time>
<extensions>
<speed>0.0</speed>
<temp>0.00</temp>
<bpm>0</bpm>
<rpm>0.00</rpm>
</extensions>
</trkpt>
<trkpt lat="63.834537506" lon="-20.400962830">
<ele>41.890625</ele>
<time>2012-07-27T13:14:13Z</time>
<extensions>
<speed>0.0</speed>
<temp>0.00</temp>
<bpm>0</bpm>
<rpm>0.00</rpm>
</extensions>
</trkpt>
<trkpt lat="63.834537506" lon="-20.400964737">
<ele>41.891602</ele>
<time>2012-07-27T13:14:18Z</time>
<extensions>
<speed>0.0</speed>
<temp>0.00</temp>
<bpm>0</bpm>
<rpm>0.00</rpm>
</extensions>
</trkpt>
<trkpt lat="63.834537506" lon="-20.400964737">
<ele>41.889648</ele>
<time>2012-07-27T13:14:23Z</time>
<extensions>
<speed>0.0</speed>
<temp>0.00</temp>
<bpm>0</bpm>
<rpm>0.00</rpm>
</extensions>
</trkpt>
<trkpt lat="63.834537506" lon="-20.400964737">
<ele>41.892578</ele>
<time>2012-07-27T13:14:28Z</time>
<extensions>
<speed>0.0</speed>
<temp>0.00</temp>
<bpm>0</bpm>
<rpm>0.00</rpm>
</extensions>
</trkpt>
<trkpt lat="63.834537506" lon="-20.400964737">
<ele>41.893555</ele>
<time>2012-07-27T13:14:33Z</time>
<extensions>
<speed>0.0</speed>
<temp>0.00</temp>
<bpm>0</bpm>
<rpm>0.00</rpm>
</extensions>
</trkpt>
<trkpt lat="63.834526062" lon="-20.400941849">
<ele>40.833008</ele>
<time>2012-07-27T13:14:38Z</time>
<speed>0.020000</speed>
<extensions>
<speed>0.0</speed>
<temp>0.00</temp>
<bpm>0</bpm>
<rpm>0.00</rpm>
</extensions>
</trkpt>
<trkpt lat="63.834518433" lon="-20.400938034">
<ele>40.602539</ele>
<time>2012-07-27T13:14:43Z</time>
<extensions>
<speed>0.0</speed>
<temp>0.00</temp>
<bpm>0</bpm>
<rpm>0.00</rpm>
</extensions>
</trkpt>
<trkpt lat="63.834522247" lon="-20.400938034">
<ele>40.610352</ele>
<time>2012-07-27T13:14:48Z</time>
<extensions>
<speed>0.0</speed>
<temp>0.00</temp>
<bpm>0</bpm>
<rpm>0.00</rpm>
</extensions>
</trkpt>
<trkpt lat="63.834522247" lon="-20.400938034">
<ele>40.603516</ele>
<time>2012-07-27T13:14:53Z</time>
<speed>0.090000</speed>
<extensions>
<speed>0.1</speed>
<temp>0.00</temp>
<bpm>0</bpm>
<rpm>0.00</rpm>
</extensions>
</trkpt>
<trkpt lat="63.834522247" lon="-20.400938034">
<ele>40.573242</ele>
<time>2012-07-27T13:14:58Z</time>
<extensions>
<speed>0.0</speed>
<temp>0.00</temp>
<bpm>0</bpm>
<rpm>0.00</rpm>
</extensions>
</trkpt>
<trkpt lat="63.834522247" lon="-20.400938034">
<ele>40.554688</ele>
<time>2012-07-27T13:15:03Z</time>
<speed>0.180000</speed>
<extensions>
<speed>0.2</speed>
<temp>0.00</temp>
<bpm>0</bpm>
<rpm>0.00</rpm>
</extensions>
</trkpt>
<trkpt lat="63.834556580" lon="-20.401029587">
<ele>40.055664</ele>
<time>2012-07-27T13:15:08Z</time>
<speed>1.400000</speed>
<extensions>
<speed>1.4</speed>
<temp>0.00</temp>
<bpm>0</bpm>
<rpm>0.00</rpm>
</extensions>
</trkpt>
<trkpt lat="63.834617615" lon="-20.401157379">
<ele>40.582031</ele>
<time>2012-07-27T13:15:13Z</time>
<speed>2.450000</speed>
<extensions>
<speed>2.4</speed>
<temp>0.00</temp>
<bpm>0</bpm>
<rpm>0.00</rpm>
</extensions>
</trkpt>
<trkpt lat="63.834732056" lon="-20.401361465">
<ele>41.903320</ele>
<time>2012-07-27T13:15:18Z</time>
<speed>3.350000</speed>
<extensions>
<speed>3.4</speed>
<temp>0.00</temp>
<bpm>0</bpm>
<rpm>0.00</rpm>
</extensions>
</trkpt>
<trkpt lat="63.834861755" lon="-20.401567459">
<ele>42.027344</ele>
<time>2012-07-27T13:15:23Z</time>
<speed>3.520000</speed>
<extensions>
<speed>3.5</speed>
<temp>0.00</temp>
<bpm>0</bpm>
<rpm>0.00</rpm>
</extensions>
</trkpt>
<trkpt lat="63.834972382" lon="-20.401769638">
<ele>41.662109</ele>
<time>2012-07-27T13:15:28Z</time>
<speed>2.830000</speed>
<extensions>
<speed>2.8</speed>
<temp>0.00</temp>
<bpm>0</bpm>
<rpm>0.00</rpm>
</extensions>
</trkpt>
<trkpt lat="63.835056305" lon="-20.401958466">
<ele>40.918945</ele>
<time>2012-07-27T13:15:33Z</time>
<speed>2.860000</speed>
<extensions>
<speed>2.9</speed>
<temp>0.00</temp>
<bpm>0</bpm>
<rpm>0.00</rpm>
</extensions>
</trkpt>
<trkpt lat="63.835105896" lon="-20.402084351">
<ele>40.370117</ele>
<time>2012-07-27T13:15:38Z</time>
<speed>1.710000</speed>
<extensions>
<speed>1.7</speed>
<temp>0.00</temp>
<bpm>0</bpm>
<rpm>0.00</rpm>
</extensions>
</trkpt>
<trkpt lat="63.835006714" lon="-20.402133942">
<ele>39.158203</ele>
<time>2012-07-27T13:15:43Z</time>
<speed>1.920000</speed>
<extensions>
<speed>1.9</speed>
<temp>0.00</temp>
<bpm>0</bpm>
<rpm>0.00</rpm>
</extensions>
</trkpt>
<trkpt lat="63.834922791" lon="-20.402111053">
<ele>38.336914</ele>
<time>2012-07-27T13:15:48Z</time>
<speed>2.620000</speed>
<extensions>
<speed>2.6</speed>
<temp>0.00</temp>
<bpm>0</bpm>
<rpm>0.00</rpm>
</extensions>
</trkpt>
<trkpt lat="63.834800720" lon="-20.401947021">
<ele>38.424805</ele>
<time>2012-07-27T13:15:53Z</time>
<speed>3.630000</speed>
<extensions>
<speed>3.6</speed>
<temp>0.00</temp>
<bpm>0</bpm>
<rpm>0.00</rpm>
</extensions>
</trkpt>
<trkpt lat="63.834663391" lon="-20.401905060">
<ele>37.536133</ele>
<time>2012-07-27T13:15:58Z</time>
<speed>3.390000</speed>
<extensions>
<speed>3.4</speed>
<temp>0.00</temp>
<bpm>0</bpm>
<rpm>0.00</rpm>
</extensions>
</trkpt>
<trkpt lat="63.834659576" lon="-20.402221680">
<ele>35.865234</ele>
<time>2012-07-27T13:16:03Z</time>
<speed>3.820000</speed>
<extensions>
<speed>3.8</speed>
<temp>0.00</temp>
<bpm>0</bpm>
<rpm>0.00</rpm>
</extensions>
</trkpt>
<trkpt lat="63.834808350" lon="-20.402408600">
<ele>35.076172</ele>
<time>2012-07-27T13:16:08Z</time>
<speed>3.810000</speed>
<extensions>
<speed>3.8</speed>
<temp>0.00</temp>
<bpm>0</bpm>
<rpm>0.00</rpm>
</extensions>
</trkpt>
<trkpt lat="63.834972382" lon="-20.402530670">
<ele>33.669922</ele>
<time>2012-07-27T13:16:13Z</time>
<speed>3.980000</speed>
<extensions>
<speed>4.0</speed>
<temp>0.00</temp>
<bpm>0</bpm>
<rpm>0.00</rpm>
</extensions>
</trkpt>
<trkpt lat="63.835136414" lon="-20.402645111">
<ele>31.048340</ele>
<time>2012-07-27T13:16:18Z</time>
<speed>4.280000</speed>
<extensions>
<speed>4.3</speed>
<temp>0.00</temp>
<bpm>0</bpm>
<rpm>0.00</rpm>
</extensions>
</trkpt>
<trkpt lat="63.835308075" lon="-20.402832031">
<ele>29.541992</ele>
<time>2012-07-27T13:16:23Z</time>
<speed>4.190000</speed>
<extensions>
<speed>4.2</speed>
<temp>0.00</temp>
<bpm>0</bpm>
<rpm>0.00</rpm>
</extensions>
</trkpt>
<trkpt lat="63.835472107" lon="-20.403087616">
<ele>29.437012</ele>
<time>2012-07-27T13:16:28Z</time>
<speed>4.340000</speed>
<extensions>
<speed>4.3</speed>
<temp>0.00</temp>
<bpm>0</bpm>
<rpm>0.00</rpm>
</extensions>
</trkpt>
<trkpt lat="63.835601807" lon="-20.403310776">
<ele>29.435547</ele>
<time>2012-07-27T13:16:33Z</time>
<speed>3.080000</speed>
<extensions>
<speed>3.1</speed>
<temp>0.00</temp>
<bpm>0</bpm>
<rpm>0.00</rpm>
</extensions>
</trkpt>
<trkpt lat="63.835689545" lon="-20.403509140">
<ele>29.913086</ele>
<time>2012-07-27T13:16:38Z</time>
<speed>2.760000</speed>
<extensions>
<speed>2.8</speed>
<temp>0.00</temp>
<bpm>0</bpm>
<rpm>0.00</rpm>
</extensions>
</trkpt>
<trkpt lat="63.835784912" lon="-20.403696060">
<ele>30.603027</ele>
<time>2012-07-27T13:16:43Z</time>
<speed>2.730000</speed>
<extensions>
<speed>2.7</speed>
<temp>0.00</temp>
<bpm>0</bpm>
<rpm>0.00</rpm>
</extensions>
</trkpt>
<trkpt lat="63.835887909" lon="-20.403869629">
<ele>31.178223</ele>
<time>2012-07-27T13:16:48Z</time>
<speed>2.930000</speed>
<extensions>
<speed>2.9</speed>
<temp>0.00</temp>
<bpm>0</bpm>
<rpm>0.00</rpm>
</extensions>
</trkpt>
<trkpt lat="63.835990906" lon="-20.404060364">
<ele>31.219238</ele>
<time>2012-07-27T13:16:53Z</time>
<speed>3.040000</speed>
<extensions>
<speed>3.0</speed>
<temp>0.00</temp>
<bpm>0</bpm>
<rpm>0.00</rpm>
</extensions>
</trkpt>
<trkpt lat="63.836097717" lon="-20.404273987">
<ele>31.106934</ele>
<time>2012-07-27T13:16:58Z</time>
<speed>2.940000</speed>
<extensions>
<speed>2.9</speed>
<temp>0.00</temp>
<bpm>0</bpm>
<rpm>0.00</rpm>
</extensions>
</trkpt>
<trkpt lat="63.836196899" lon="-20.404468536">
<ele>30.912109</ele>
<time>2012-07-27T13:17:03Z</time>
<speed>3.030000</speed>
<extensions>
<speed>3.0</speed>
<temp>0.00</temp>
<bpm>0</bpm>
<rpm>0.00</rpm>
</extensions>
</trkpt>
<trkpt lat="63.836299896" lon="-20.404659271">
<ele>31.135742</ele>
<time>2012-07-27T13:17:08Z</time>
<speed>2.920000</speed>
<extensions>
<speed>2.9</speed>
<temp>0.00</temp>
<bpm>0</bpm>
<rpm>0.00</rpm>
</extensions>
</trkpt>
<trkpt lat="63.836406708" lon="-20.404855728">
<ele>30.974121</ele>
<time>2012-07-27T13:17:13Z</time>
<speed>3.230000</speed>
<extensions>
<speed>3.2</speed>
<temp>0.00</temp>
<bpm>0</bpm>
<rpm>0.00</rpm>
</extensions>
</trkpt>
<trkpt lat="63.836513519" lon="-20.405042648">
<ele>31.134277</ele>
<time>2012-07-27T13:17:18Z</time>
<speed>3.070000</speed>
<extensions>
<speed>3.1</speed>
<temp>0.00</temp>
<bpm>0</bpm>
<rpm>0.00</rpm>
</extensions>
</trkpt>
<trkpt lat="63.836627960" lon="-20.405242920">
<ele>31.100098</ele>
<time>2012-07-27T13:17:23Z</time>
<speed>3.220000</speed>
<extensions>
<speed>3.2</speed>
<temp>0.00</temp>
<bpm>0</bpm>
<rpm>0.00</rpm>
</extensions>
</trkpt>
<trkpt lat="63.836757660" lon="-20.405422211">
<ele>31.435547</ele>
<time>2012-07-27T13:17:28Z</time>
<speed>2.990000</speed>
<extensions>
<speed>3.0</speed>
<temp>0.00</temp>
<bpm>0</bpm>
<rpm>0.00</rpm>
</extensions>
</trkpt>
<trkpt lat="63.836864471" lon="-20.405561447">
<ele>31.829590</ele>
<time>2012-07-27T13:17:33Z</time>
<speed>2.580000</speed>
<extensions>
<speed>2.6</speed>
<temp>0.00</temp>
<bpm>0</bpm>
<rpm>0.00</rpm>
</extensions>
</trkpt>
<trkpt lat="63.836975098" lon="-20.405731201">
<ele>31.784668</ele>
<time>2012-07-27T13:17:38Z</time>
<speed>2.810000</speed>
<extensions>
<speed>2.8</speed>
<temp>0.00</temp>
<bpm>0</bpm>
<rpm>0.00</rpm>
</extensions>
</trkpt>
<trkpt lat="63.837089539" lon="-20.405858994">
<ele>31.969727</ele>
<time>2012-07-27T13:17:43Z</time>
<speed>2.980000</speed>
<extensions>
<speed>3.0</speed>
<temp>0.00</temp>
<bpm>0</bpm>
<rpm>0.00</rpm>
</extensions>
</trkpt>
<trkpt lat="63.837230682" lon="-20.405998230">
<ele>32.281250</ele>
<time>2012-07-27T13:17:48Z</time>
<speed>3.130000</speed>
<extensions>
<speed>3.1</speed>
<temp>0.00</temp>
<bpm>0</bpm>
<rpm>0.00</rpm>
</extensions>
</trkpt>
<trkpt lat="63.837360382" lon="-20.406127930">
<ele>32.167969</ele>
<time>2012-07-27T13:17:53Z</time>
<speed>3.320000</speed>
<extensions>
<speed>3.3</speed>
<temp>0.00</temp>
<bpm>0</bpm>
<rpm>0.00</rpm>
</extensions>
</trkpt>
<trkpt lat="63.837493896" lon="-20.406250000">
<ele>32.366211</ele>
<time>2012-07-27T13:17:58Z</time>
<speed>3.260000</speed>
<extensions>
<speed>3.3</speed>
<temp>0.00</temp>
<bpm>0</bpm>
<rpm>0.00</rpm>
</extensions>
</trkpt>
<trkpt lat="63.837635040" lon="-20.406335831">
<ele>32.666992</ele>
<time>2012-07-27T13:18:03Z</time>
<speed>3.050000</speed>
<extensions>
<speed>3.0</speed>
<temp>0.00</temp>
<bpm>0</bpm>
<rpm>0.00</rpm>
</extensions>
</trkpt>
<trkpt lat="63.837749481" lon="-20.406398773">
<ele>32.806641</ele>
<time>2012-07-27T13:18:08Z</time>
<speed>2.200000</speed>
<extensions>
<speed>2.2</speed>
<temp>0.00</temp>
<bpm>0</bpm>
<rpm>0.00</rpm>
</extensions>
</trkpt>
<trkpt lat="63.837814331" lon="-20.406412125">
<ele>32.693359</ele>
<time>2012-07-27T13:18:13Z</time>
<speed>1.830000</speed>
<extensions>
<speed>1.8</speed>
<temp>0.00</temp>
<bpm>0</bpm>
<rpm>0.00</rpm>
</extensions>
</trkpt>
<trkpt lat="63.837898254" lon="-20.406457901">
<ele>33.153320</ele>
<time>2012-07-27T13:18:18Z</time>
<speed>1.700000</speed>
<extensions>
<speed>1.7</speed>
<temp>0.00</temp>
<bpm>0</bpm>
<rpm>0.00</rpm>
</extensions>
</trkpt>
<trkpt lat="63.837985992" lon="-20.406497955">
<ele>33.442383</ele>
<time>2012-07-27T13:18:23Z</time>
<speed>2.270000</speed>
<extensions>
<speed>2.3</speed>
<temp>0.00</temp>
<bpm>0</bpm>
<rpm>0.00</rpm>
</extensions>
</trkpt>
<trkpt lat="63.838081360" lon="-20.406528473">
<ele>33.498047</ele>
<time>2012-07-27T13:18:28Z</time>
<speed>2.350000</speed>
<extensions>
<speed>2.4</speed>
<temp>0.00</temp>
<bpm>0</bpm>
<rpm>0.00</rpm>
</extensions>
</trkpt>
<trkpt lat="63.838191986" lon="-20.406555176">
<ele>33.311523</ele>
<time>2012-07-27T13:18:33Z</time>
<speed>2.360000</speed>
<extensions>
<speed>2.4</speed>
<temp>0.00</temp>
<bpm>0</bpm>
<rpm>0.00</rpm>
</extensions>
</trkpt>
<trkpt lat="63.838294983" lon="-20.406606674">
<ele>34.073242</ele>
<time>2012-07-27T13:18:38Z</time>
<speed>2.240000</speed>
<extensions>
<speed>2.2</speed>
<temp>0.00</temp>
<bpm>0</bpm>
<rpm>0.00</rpm>
</extensions>
</trkpt>
<trkpt lat="63.838386536" lon="-20.406570435">
<ele>26.127441</ele>
<time>2012-07-27T13:18:43Z</time>
<speed>2.680000</speed>
<extensions>
<speed>2.7</speed>
<temp>0.00</temp>
<bpm>0</bpm>
<rpm>0.00</rpm>
</extensions>
</trkpt>
<trkpt lat="63.838489532" lon="-20.406604767">
<ele>24.421875</ele>
<time>2012-07-27T13:18:48Z</time>
<speed>2.450000</speed>
<extensions>
<speed>2.4</speed>
<temp>0.00</temp>
<bpm>0</bpm>
<rpm>0.00</rpm>
</extensions>
</trkpt>
<trkpt lat="63.838603973" lon="-20.406660080">
<ele>25.467285</ele>
<time>2012-07-27T13:18:53Z</time>
<speed>2.480000</speed>
<extensions>
<speed>2.5</speed>
<temp>0.00</temp>
<bpm>0</bpm>
<rpm>0.00</rpm>
</extensions>
</trkpt>
<trkpt lat="63.838714600" lon="-20.406707764">
<ele>26.399414</ele>
<time>2012-07-27T13:18:58Z</time>
<speed>2.430000</speed>
<extensions>
<speed>2.4</speed>
<temp>0.00</temp>
<bpm>0</bpm>
<rpm>0.00</rpm>
</extensions>
</trkpt>
<trkpt lat="63.838832855" lon="-20.406755447">
<ele>26.976074</ele>
<time>2012-07-27T13:19:03Z</time>
<speed>2.800000</speed>
<extensions>
<speed>2.8</speed>
<temp>0.00</temp>
<bpm>0</bpm>
<rpm>0.00</rpm>
</extensions>
</trkpt>
<trkpt lat="63.838954926" lon="-20.406803131">
<ele>28.319824</ele>
<time>2012-07-27T13:19:08Z</time>
<speed>2.700000</speed>
<extensions>
<speed>2.7</speed>
<temp>0.00</temp>
<bpm>0</bpm>
<rpm>0.00</rpm>
</extensions>
</trkpt>
<trkpt lat="63.839076996" lon="-20.406860352">
<ele>29.041504</ele>
<time>2012-07-27T13:19:13Z</time>
<speed>2.640000</speed>
<extensions>
<speed>2.6</speed>
<temp>0.00</temp>
<bpm>0</bpm>
<rpm>0.00</rpm>
</extensions>
</trkpt>
<trkpt lat="63.839187622" lon="-20.406911850">
<ele>30.412109</ele>
<time>2012-07-27T13:19:18Z</time>
<speed>2.730000</speed>
<extensions>
<speed>2.7</speed>
<temp>0.00</temp>
<bpm>0</bpm>
<rpm>0.00</rpm>
</extensions>
</trkpt>
<trkpt lat="63.839294434" lon="-20.406957626">
<ele>31.302734</ele>
<time>2012-07-27T13:19:23Z</time>
<speed>2.170000</speed>
<extensions>
<speed>2.2</speed>
<temp>0.00</temp>
<bpm>0</bpm>
<rpm>0.00</rpm>
</extensions>
</trkpt>
<trkpt lat="63.839416504" lon="-20.406997681">
<ele>33.083984</ele>
<time>2012-07-27T13:19:28Z</time>
<speed>3.020000</speed>
<extensions>
<speed>3.0</speed>
<temp>0.00</temp>
<bpm>0</bpm>
<rpm>0.00</rpm>
</extensions>
</trkpt>
<trkpt lat="63.839550018" lon="-20.407035828">
<ele>33.447266</ele>
<time>2012-07-27T13:19:33Z</time>
<speed>3.280000</speed>
<extensions>
<speed>3.3</speed>
<temp>0.00</temp>
<bpm>0</bpm>
<rpm>0.00</rpm>
</extensions>
</trkpt>
<trkpt lat="63.839675903" lon="-20.407075882">
<ele>32.207031</ele>
<time>2012-07-27T13:19:38Z</time>
<speed>2.720000</speed>
<extensions>
<speed>2.7</speed>
<temp>0.00</temp>
<bpm>0</bpm>
<rpm>0.00</rpm>
</extensions>
</trkpt>
<trkpt lat="63.839809418" lon="-20.407138824">
<ele>33.075195</ele>
<time>2012-07-27T13:19:43Z</time>
<speed>3.080000</speed>
<extensions>
<speed>3.1</speed>
<temp>0.00</temp>
<bpm>0</bpm>
<rpm>0.00</rpm>
</extensions>
</trkpt>
<trkpt lat="63.839954376" lon="-20.407190323">
<ele>33.967773</ele>
<time>2012-07-27T13:19:48Z</time>
<speed>3.520000</speed>
<extensions>
<speed>3.5</speed>
<temp>0.00</temp>
<bpm>0</bpm>
<rpm>0.00</rpm>
</extensions>
</trkpt>
<trkpt lat="63.840091705" lon="-20.407239914">
<ele>34.100586</ele>
<time>2012-07-27T13:19:53Z</time>
<speed>2.590000</speed>
<extensions>
<speed>2.6</speed>
<temp>0.00</temp>
<bpm>0</bpm>
<rpm>0.00</rpm>
</extensions>
</trkpt>
<trkpt lat="63.840229034" lon="-20.407297134">
<ele>34.494141</ele>
<time>2012-07-27T13:19:58Z</time>
<speed>3.480000</speed>
<extensions>
<speed>3.5</speed>
<temp>0.00</temp>
<bpm>0</bpm>
<rpm>0.00</rpm>
</extensions>
</trkpt>
<trkpt lat="63.840377808" lon="-20.407356262">
<ele>34.714844</ele>
<time>2012-07-27T13:20:03Z</time>
<speed>3.420000</speed>
<extensions>
<speed>3.4</speed>
<temp>0.00</temp>
<bpm>0</bpm>
<rpm>0.00</rpm>
</extensions>
</trkpt>
<trkpt lat="63.840534210" lon="-20.407413483">
<ele>35.037109</ele>
<time>2012-07-27T13:20:08Z</time>
<speed>3.650000</speed>
<extensions>
<speed>3.7</speed>
<temp>0.00</temp>
<bpm>0</bpm>
<rpm>0.00</rpm>
</extensions>
</trkpt>
<trkpt lat="63.840702057" lon="-20.407459259">
<ele>34.250977</ele>
<time>2012-07-27T13:20:13Z</time>
<speed>3.660000</speed>
<extensions>
<speed>3.7</speed>
<temp>0.00</temp>
<bpm>0</bpm>
<rpm>0.00</rpm>
</extensions>
</trkpt>
<trkpt lat="63.840858459" lon="-20.407524109">
<ele>34.236328</ele>
<time>2012-07-27T13:20:18Z</time>
<speed>3.440000</speed>
<extensions>
<speed>3.4</speed>
<temp>0.00</temp>
<bpm>0</bpm>
<rpm>0.00</rpm>
</extensions>
</trkpt>
<trkpt lat="63.841018677" lon="-20.407588959">
<ele>33.704102</ele>
<time>2012-07-27T13:20:23Z</time>
<speed>3.540000</speed>
<extensions>
<speed>3.5</speed>
<temp>0.00</temp>
<bpm>0</bpm>
<rpm>0.00</rpm>
</extensions>
</trkpt>
<trkpt lat="63.841171265" lon="-20.407669067">
<ele>33.963867</ele>
<time>2012-07-27T13:20:28Z</time>
<speed>3.390000</speed>
<extensions>
<speed>3.4</speed>
<temp>0.00</temp>
<bpm>0</bpm>
<rpm>0.00</rpm>
</extensions>
</trkpt>
<trkpt lat="63.841293335" lon="-20.407747269">
<ele>33.956055</ele>
<time>2012-07-27T13:20:33Z</time>
<speed>2.310000</speed>
<extensions>
<speed>2.3</speed>
<temp>0.00</temp>
<bpm>0</bpm>
<rpm>0.00</rpm>
</extensions>
</trkpt>
<trkpt lat="63.841415405" lon="-20.407787323">
<ele>33.499023</ele>
<time>2012-07-27T13:20:38Z</time>
<speed>3.030000</speed>
<extensions>
<speed>3.0</speed>
<temp>0.00</temp>
<bpm>0</bpm>
<rpm>0.00</rpm>
</extensions>
</trkpt>
<trkpt lat="63.841529846" lon="-20.407863617">
<ele>33.469727</ele>
<time>2012-07-27T13:20:43Z</time>
<speed>3.000000</speed>
<extensions>
<speed>3.0</speed>
<temp>0.00</temp>
<bpm>0</bpm>
<rpm>0.00</rpm>
</extensions>
</trkpt>
<trkpt lat="63.841651917" lon="-20.407947540">
<ele>34.551758</ele>
<time>2012-07-27T13:20:48Z</time>
<speed>2.420000</speed>
<extensions>
<speed>2.4</speed>
<temp>0.00</temp>
<bpm>0</bpm>
<rpm>0.00</rpm>
</extensions>
</trkpt>
<trkpt lat="63.841751099" lon="-20.408008575">
<ele>34.611328</ele>
<time>2012-07-27T13:20:53Z</time>
<speed>2.790000</speed>
<extensions>
<speed>2.8</speed>
<temp>0.00</temp>
<bpm>0</bpm>
<rpm>0.00</rpm>
</extensions>
</trkpt>
<trkpt lat="63.841888428" lon="-20.408098221">
<ele>33.751953</ele>
<time>2012-07-27T13:20:58Z</time>
<speed>3.340000</speed>
<extensions>
<speed>3.3</speed>
<temp>0.00</temp>
<bpm>0</bpm>
<rpm>0.00</rpm>
</extensions>
</trkpt>
<trkpt lat="63.842044830" lon="-20.408205032">
<ele>33.046875</ele>
<time>2012-07-27T13:21:03Z</time>
<speed>3.520000</speed>
<extensions>
<speed>3.5</speed>
<temp>0.00</temp>
<bpm>0</bpm>
<rpm>0.00</rpm>
</extensions>
</trkpt>
<trkpt lat="63.842174530" lon="-20.408315659">
<ele>33.307617</ele>
<time>2012-07-27T13:21:08Z</time>
<speed>2.850000</speed>
<extensions>
<speed>2.9</speed>
<temp>0.00</temp>
<bpm>0</bpm>
<rpm>0.00</rpm>
</extensions>
</trkpt>
<trkpt lat="63.842315674" lon="-20.408439636">
<ele>32.529297</ele>
<time>2012-07-27T13:21:13Z</time>
<speed>3.560000</speed>
<extensions>
<speed>3.6</speed>
<temp>0.00</temp>
<bpm>0</bpm>
<rpm>0.00</rpm>
</extensions>
</trkpt>
<trkpt lat="63.842464447" lon="-20.408576965">
<ele>33.696289</ele>
<time>2012-07-27T13:21:18Z</time>
<speed>3.840000</speed>
<extensions>
<speed>3.8</speed>
<temp>0.00</temp>
<bpm>0</bpm>
<rpm>0.00</rpm>
</extensions>
</trkpt>
<trkpt lat="63.842613220" lon="-20.408733368">
<ele>33.865234</ele>
<time>2012-07-27T13:21:23Z</time>
<speed>3.470000</speed>
<extensions>
<speed>3.5</speed>
<temp>0.00</temp>
<bpm>0</bpm>
<rpm>0.00</rpm>
</extensions>
</trkpt>
<trkpt lat="63.842754364" lon="-20.408906937">
<ele>35.003906</ele>
<time>2012-07-27T13:21:28Z</time>
<speed>3.730000</speed>
<extensions>
<speed>3.7</speed>
<temp>0.00</temp>
<bpm>0</bpm>
<rpm>0.00</rpm>
</extensions>
</trkpt>
<trkpt lat="63.842914581" lon="-20.409076691">
<ele>35.465820</ele>
<time>2012-07-27T13:21:33Z</time>
<speed>3.860000</speed>
<extensions>
<speed>3.9</speed>
<temp>0.00</temp>
<bpm>0</bpm>
<rpm>0.00</rpm>
</extensions>
</trkpt>
<trkpt lat="63.843070984" lon="-20.409271240">
<ele>36.357422</ele>
<time>2012-07-27T13:21:38Z</time>
<speed>4.060000</speed>
<extensions>
<speed>4.1</speed>
<temp>0.00</temp>
<bpm>0</bpm>
<rpm>0.00</rpm>
</extensions>
</trkpt>
<trkpt lat="63.843204498" lon="-20.409454346">
<ele>37.287109</ele>
<time>2012-07-27T13:21:43Z</time>
<speed>2.800000</speed>
<extensions>
<speed>2.8</speed>
<temp>0.00</temp>
<bpm>0</bpm>
<rpm>0.00</rpm>
</extensions>
</trkpt>
<trkpt lat="63.843322754" lon="-20.409608841">
<ele>37.388672</ele>
<time>2012-07-27T13:21:48Z</time>
<speed>3.360000</speed>
<extensions>
<speed>3.4</speed>
<temp>0.00</temp>
<bpm>0</bpm>
<rpm>0.00</rpm>
</extensions>
</trkpt>
<trkpt lat="63.843441010" lon="-20.409772873">
<ele>37.927734</ele>
<time>2012-07-27T13:21:53Z</time>
<speed>2.870000</speed>
<extensions>
<speed>2.9</speed>
<temp>0.00</temp>
<bpm>0</bpm>
<rpm>0.00</rpm>
</extensions>
</trkpt>
<trkpt lat="63.843555450" lon="-20.409921646">
<ele>38.013672</ele>
<time>2012-07-27T13:21:58Z</time>
<speed>2.900000</speed>
<extensions>
<speed>2.9</speed>
<temp>0.00</temp>
<bpm>0</bpm>
<rpm>0.00</rpm>
</extensions>
</trkpt>
<trkpt lat="63.843681335" lon="-20.410087585">
<ele>38.250977</ele>
<time>2012-07-27T13:22:03Z</time>
<speed>3.490000</speed>
<extensions>
<speed>3.5</speed>
<temp>0.00</temp>
<bpm>0</bpm>
<rpm>0.00</rpm>
</extensions>
</trkpt>
<trkpt lat="63.843795776" lon="-20.410259247">
<ele>39.007813</ele>
<time>2012-07-27T13:22:08Z</time>
<speed>2.350000</speed>
<extensions>
<speed>2.4</speed>
<temp>0.00</temp>
<bpm>0</bpm>
<rpm>0.00</rpm>
</extensions>
</trkpt>
<trkpt lat="63.843868256" lon="-20.410367966">
<ele>38.698242</ele>
<time>2012-07-27T13:22:13Z</time>
<speed>2.470000</speed>
<extensions>
<speed>2.5</speed>
<temp>0.00</temp>
<bpm>0</bpm>
<rpm>0.00</rpm>
</extensions>
</trkpt>
<trkpt lat="63.843990326" lon="-20.410549164">
<ele>38.765625</ele>
<time>2012-07-27T13:22:18Z</time>
<speed>3.530000</speed>
<extensions>
<speed>3.5</speed>
<temp>0.00</temp>
<bpm>0</bpm>
<rpm>0.00</rpm>
</extensions>
</trkpt>
<trkpt lat="63.844120026" lon="-20.410737991">
<ele>38.363281</ele>
<time>2012-07-27T13:22:23Z</time>
<speed>3.670000</speed>
<extensions>
<speed>3.7</speed>
<temp>0.00</temp>
<bpm>0</bpm>
<rpm>0.00</rpm>
</extensions>
</trkpt>
<trkpt lat="63.844264984" lon="-20.410942078">
<ele>38.133789</ele>
<time>2012-07-27T13:22:28Z</time>
<speed>3.960000</speed>
<extensions>
<speed>4.0</speed>
<temp>0.00</temp>
<bpm>0</bpm>
<rpm>0.00</rpm>
</extensions>
</trkpt>
<trkpt lat="63.844417572" lon="-20.411165237">
<ele>38.696289</ele>
<time>2012-07-27T13:22:33Z</time>
<speed>4.110000</speed>
<extensions>
<speed>4.1</speed>
<temp>0.00</temp>
<bpm>0</bpm>
<rpm>0.00</rpm>
</extensions>
</trkpt>
<trkpt lat="63.844562531" lon="-20.411378860">
<ele>38.573242</ele>
<time>2012-07-27T13:22:38Z</time>
<speed>3.910000</speed>
<extensions>
<speed>3.9</speed>
<temp>0.00</temp>
<bpm>0</bpm>
<rpm>0.00</rpm>
</extensions>
</trkpt>
<trkpt lat="63.844715118" lon="-20.411623001">
<ele>38.507813</ele>
<time>2012-07-27T13:22:43Z</time>
<speed>4.230000</speed>
<extensions>
<speed>4.2</speed>
<temp>0.00</temp>
<bpm>0</bpm>
<rpm>0.00</rpm>
</extensions>
</trkpt>
<trkpt lat="63.844860077" lon="-20.411842346">
<ele>38.252930</ele>
<time>2012-07-27T13:22:48Z</time>
<speed>3.880000</speed>
<extensions>
<speed>3.9</speed>
<temp>0.00</temp>
<bpm>0</bpm>
<rpm>0.00</rpm>
</extensions>
</trkpt>
<trkpt lat="63.845012665" lon="-20.412076950">
<ele>37.653320</ele>
<time>2012-07-27T13:22:53Z</time>
<speed>4.200000</speed>
<extensions>
<speed>4.2</speed>
<temp>0.00</temp>
<bpm>0</bpm>
<rpm>0.00</rpm>
</extensions>
</trkpt>
<trkpt lat="63.845149994" lon="-20.412284851">
<ele>37.299805</ele>
<time>2012-07-27T13:22:58Z</time>
<speed>3.680000</speed>
<extensions>
<speed>3.7</speed>
<temp>0.00</temp>
<bpm>0</bpm>
<rpm>0.00</rpm>
</extensions>
</trkpt>
<trkpt lat="63.845287323" lon="-20.412508011">
<ele>36.632813</ele>
<time>2012-07-27T13:23:03Z</time>
<speed>4.000000</speed>
<extensions>
<speed>4.0</speed>
<temp>0.00</temp>
<bpm>0</bpm>
<rpm>0.00</rpm>
</extensions>
</trkpt>
<trkpt lat="63.845436096" lon="-20.412742615">
<ele>36.365234</ele>
<time>2012-07-27T13:23:08Z</time>
<speed>4.230000</speed>
<extensions>
<speed>4.2</speed>
<temp>0.00</temp>
<bpm>0</bpm>
<rpm>0.00</rpm>
</extensions>
</trkpt>
<trkpt lat="63.845581055" lon="-20.412988663">
<ele>36.136719</ele>
<time>2012-07-27T13:23:13Z</time>
<speed>3.660000</speed>
<extensions>
<speed>3.7</speed>
<temp>0.00</temp>
<bpm>0</bpm>
<rpm>0.00</rpm>
</extensions>
</trkpt>
<trkpt lat="63.845718384" lon="-20.413200378">
<ele>36.511719</ele>
<time>2012-07-27T13:23:18Z</time>
<speed>3.950000</speed>
<extensions>
<speed>4.0</speed>
<temp>0.00</temp>
<bpm>0</bpm>
<rpm>0.00</rpm>
</extensions>
</trkpt>
<trkpt lat="63.845863342" lon="-20.413438797">
<ele>36.469727</ele>
<time>2012-07-27T13:23:23Z</time>
<speed>3.950000</speed>
<extensions>
<speed>4.0</speed>
<temp>0.00</temp>
<bpm>0</bpm>
<rpm>0.00</rpm>
</extensions>
</trkpt>
<trkpt lat="63.846008301" lon="-20.413679123">
<ele>36.830078</ele>
<time>2012-07-27T13:23:28Z</time>
<speed>3.650000</speed>
<extensions>
<speed>3.7</speed>
<temp>0.00</temp>
<bpm>0</bpm>
<rpm>0.00</rpm>
</extensions>
</trkpt>
<trkpt lat="63.846122742" lon="-20.413862228">
<ele>37.094727</ele>
<time>2012-07-27T13:23:33Z</time>
<speed>2.350000</speed>
<extensions>
<speed>2.4</speed>
<temp>0.00</temp>
<bpm>0</bpm>
<rpm>0.00</rpm>
</extensions>
</trkpt>
<trkpt lat="63.846206665" lon="-20.414007187">
<ele>37.395508</ele>
<time>2012-07-27T13:23:38Z</time>
<speed>2.020000</speed>
<extensions>
<speed>2.0</speed>
<temp>0.00</temp>
<bpm>0</bpm>
<rpm>0.00</rpm>
</extensions>
</trkpt>
<trkpt lat="63.846302032" lon="-20.414182663">
<ele>38.055664</ele>
<time>2012-07-27T13:23:43Z</time>
<speed>3.380000</speed>
<extensions>
<speed>3.4</speed>
<temp>0.00</temp>
<bpm>0</bpm>
<rpm>0.00</rpm>
</extensions>
</trkpt>
<trkpt lat="63.846431732" lon="-20.414398193">
<ele>38.232422</ele>
<time>2012-07-27T13:23:48Z</time>
<speed>3.790000</speed>
<extensions>
<speed>3.8</speed>
<temp>0.00</temp>
<bpm>0</bpm>
<rpm>0.00</rpm>
</extensions>
</trkpt>
<trkpt lat="63.846561432" lon="-20.414644241">
<ele>38.352539</ele>
<time>2012-07-27T13:23:53Z</time>
<speed>4.000000</speed>
<extensions>
<speed>4.0</speed>
<temp>0.00</temp>
<bpm>0</bpm>
<rpm>0.00</rpm>
</extensions>
</trkpt>
<trkpt lat="63.846691132" lon="-20.414907455">
<ele>38.707031</ele>
<time>2012-07-27T13:23:58Z</time>
<speed>3.430000</speed>
<extensions>
<speed>3.4</speed>
<temp>0.00</temp>
<bpm>0</bpm>
<rpm>0.00</rpm>
</extensions>
</trkpt>
<trkpt lat="63.846809387" lon="-20.415121078">
<ele>39.177734</ele>
<time>2012-07-27T13:24:03Z</time>
<speed>3.600000</speed>
<extensions>
<speed>3.6</speed>
<temp>0.00</temp>
<bpm>0</bpm>
<rpm>0.00</rpm>
</extensions>
</trkpt>
<trkpt lat="63.846939087" lon="-20.415361404">
<ele>39.615234</ele>
<time>2012-07-27T13:24:08Z</time>
<speed>3.700000</speed>
<extensions>
<speed>3.7</speed>
<temp>0.00</temp>
<bpm>0</bpm>
<rpm>0.00</rpm>
</extensions>
</trkpt>
<trkpt lat="63.847045898" lon="-20.415582657">
<ele>39.522461</ele>
<time>2012-07-27T13:24:13Z</time>
<speed>2.790000</speed>
<extensions>
<speed>2.8</speed>
<temp>0.00</temp>
<bpm>0</bpm>
<rpm>0.00</rpm>
</extensions>
</trkpt>
<trkpt lat="63.847148895" lon="-20.415794373">
<ele>39.645508</ele>
<time>2012-07-27T13:24:18Z</time>
<speed>3.480000</speed>
<extensions>
<speed>3.5</speed>
<temp>0.00</temp>
<bpm>0</bpm>
<rpm>0.00</rpm>
</extensions>
</trkpt>
<trkpt lat="63.847267151" lon="-20.416040421">
<ele>39.700195</ele>
<time>2012-07-27T13:24:23Z</time>
<speed>3.770000</speed>
<extensions>
<speed>3.8</speed>
<temp>0.00</temp>
<bpm>0</bpm>
<rpm>0.00</rpm>
</extensions>
</trkpt>
<trkpt lat="63.847366333" lon="-20.416263580">
<ele>39.862305</ele>
<time>2012-07-27T13:24:28Z</time>
<speed>2.540000</speed>
<extensions>
<speed>2.5</speed>
<temp>0.00</temp>
<bpm>0</bpm>
<rpm>0.00</rpm>
</extensions>
</trkpt>
<trkpt lat="63.847442627" lon="-20.416460037">
<ele>40.227539</ele>
<time>2012-07-27T13:24:33Z</time>
<speed>2.900000</speed>
<extensions>
<speed>2.9</speed>
<temp>0.00</temp>
<bpm>0</bpm>
<rpm>0.00</rpm>
</extensions>
</trkpt>
<trkpt lat="63.847553253" lon="-20.416698456">
<ele>40.259766</ele>
<time>2012-07-27T13:24:38Z</time>
<speed>3.560000</speed>
<extensions>
<speed>3.6</speed>
<temp>0.00</temp>
<bpm>0</bpm>
<rpm>0.00</rpm>
</extensions>
</trkpt>
<trkpt lat="63.847675323" lon="-20.416969299">
<ele>40.784180</ele>
<time>2012-07-27T13:24:43Z</time>
<speed>3.460000</speed>
<extensions>
<speed>3.5</speed>
<temp>0.00</temp>
<bpm>0</bpm>
<rpm>0.00</rpm>
</extensions>
</trkpt>
<trkpt lat="63.847770691" lon="-20.417182922">
<ele>41.024414</ele>
<time>2012-07-27T13:24:48Z</time>
<speed>3.260000</speed>
<extensions>
<speed>3.3</speed>
<temp>0.00</temp>
<bpm>0</bpm>
<rpm>0.00</rpm>
</extensions>
</trkpt>
<trkpt lat="63.847881317" lon="-20.417417526">
<ele>41.662109</ele>
<time>2012-07-27T13:24:53Z</time>
<speed>3.450000</speed>
<extensions>
<speed>3.5</speed>
<temp>0.00</temp>
<bpm>0</bpm>
<rpm>0.00</rpm>
</extensions>
</trkpt>
<trkpt lat="63.847999573" lon="-20.417661667">
<ele>41.968750</ele>
<time>2012-07-27T13:24:58Z</time>
<speed>3.470000</speed>
<extensions>
<speed>3.5</speed>
<temp>0.00</temp>
<bpm>0</bpm>
<rpm>0.00</rpm>
</extensions>
</trkpt>
<trkpt lat="63.848121643" lon="-20.417911530">
<ele>42.721680</ele>
<time>2012-07-27T13:25:03Z</time>
<speed>3.550000</speed>
<extensions>
<speed>3.5</speed>
<temp>0.00</temp>
<bpm>0</bpm>
<rpm>0.00</rpm>
</extensions>
</trkpt>
<trkpt lat="63.848239899" lon="-20.418169022">
<ele>43.572266</ele>
<time>2012-07-27T13:25:08Z</time>
<speed>3.700000</speed>
<extensions>
<speed>3.7</speed>
<temp>0.00</temp>
<bpm>0</bpm>
<rpm>0.00</rpm>
</extensions>
</trkpt>
<trkpt lat="63.848365784" lon="-20.418415070">
<ele>44.914063</ele>
<time>2012-07-27T13:25:13Z</time>
<speed>3.740000</speed>
<extensions>
<speed>3.7</speed>
<temp>0.00</temp>
<bpm>0</bpm>
<rpm>0.00</rpm>
</extensions>
</trkpt>
<trkpt lat="63.848487854" lon="-20.418622971">
<ele>45.824219</ele>
<time>2012-07-27T13:25:18Z</time>
<speed>3.160000</speed>
<extensions>
<speed>3.2</speed>
<temp>0.00</temp>
<bpm>0</bpm>
<rpm>0.00</rpm>
</extensions>
</trkpt>
<trkpt lat="63.848617554" lon="-20.418870926">
<ele>46.416016</ele>
<time>2012-07-27T13:25:23Z</time>
<speed>3.960000</speed>
<extensions>
<speed>4.0</speed>
<temp>0.00</temp>
<bpm>0</bpm>
<rpm>0.00</rpm>
</extensions>
</trkpt>
<trkpt lat="63.848758698" lon="-20.419113159">
<ele>46.868164</ele>
<time>2012-07-27T13:25:28Z</time>
<speed>3.920000</speed>
<extensions>
<speed>3.9</speed>
<temp>0.00</temp>
<bpm>0</bpm>
<rpm>0.00</rpm>
</extensions>
</trkpt>
<trkpt lat="63.848903656" lon="-20.419355392">
<ele>47.138672</ele>
<time>2012-07-27T13:25:33Z</time>
<speed>4.000000</speed>
<extensions>
<speed>4.0</speed>
<temp>0.00</temp>
<bpm>0</bpm>
<rpm>0.00</rpm>
</extensions>
</trkpt>
<trkpt lat="63.849060059" lon="-20.419620514">
<ele>47.437500</ele>
<time>2012-07-27T13:25:38Z</time>
<speed>4.000000</speed>
<extensions>
<speed>4.0</speed>
<temp>0.00</temp>
<bpm>0</bpm>
<rpm>0.00</rpm>
</extensions>
</trkpt>
<trkpt lat="63.849212646" lon="-20.419853210">
<ele>47.721680</ele>
<time>2012-07-27T13:25:43Z</time>
<speed>4.550000</speed>
<extensions>
<speed>4.5</speed>
<temp>0.00</temp>
<bpm>0</bpm>
<rpm>0.00</rpm>
</extensions>
</trkpt>
<trkpt lat="63.849376678" lon="-20.420116425">
<ele>47.968750</ele>
<time>2012-07-27T13:25:48Z</time>
<speed>4.420000</speed>
<extensions>
<speed>4.4</speed>
<temp>0.00</temp>
<bpm>0</bpm>
<rpm>0.00</rpm>
</extensions>
</trkpt>
<trkpt lat="63.849529266" lon="-20.420345306">
<ele>47.829102</ele>
<time>2012-07-27T13:25:53Z</time>
<speed>3.710000</speed>
<extensions>
<speed>3.7</speed>
<temp>0.00</temp>
<bpm>0</bpm>
<rpm>0.00</rpm>
</extensions>
</trkpt>
<trkpt lat="63.849681854" lon="-20.420583725">
<ele>47.676758</ele>
<time>2012-07-27T13:25:58Z</time>
<speed>4.280000</speed>
<extensions>
<speed>4.3</speed>
<temp>0.00</temp>
<bpm>0</bpm>
<rpm>0.00</rpm>
</extensions>
</trkpt>
<trkpt lat="63.849834442" lon="-20.420810699">
<ele>47.909180</ele>
<time>2012-07-27T13:26:03Z</time>
<speed>4.090000</speed>
<extensions>
<speed>4.1</speed>
<temp>0.00</temp>
<bpm>0</bpm>
<rpm>0.00</rpm>
</extensions>
</trkpt>
<trkpt lat="63.849990845" lon="-20.421058655">
<ele>47.258789</ele>
<time>2012-07-27T13:26:08Z</time>
<speed>4.520000</speed>
<extensions>
<speed>4.5</speed>
<temp>0.00</temp>
<bpm>0</bpm>
<rpm>0.00</rpm>
</extensions>
</trkpt>
<trkpt lat="63.850162506" lon="-20.421319962">
<ele>47.237305</ele>
<time>2012-07-27T13:26:13Z</time>
<speed>4.780000</speed>
<extensions>
<speed>4.8</speed>
<temp>0.00</temp>
<bpm>0</bpm>
<rpm>0.00</rpm>
</extensions>
</trkpt>
<trkpt lat="63.850330353" lon="-20.421581268">
<ele>46.778320</ele>
<time>2012-07-27T13:26:18Z</time>
<speed>4.100000</speed>
<extensions>
<speed>4.1</speed>
<temp>0.00</temp>
<bpm>0</bpm>
<rpm>0.00</rpm>
</extensions>
</trkpt>
<trkpt lat="63.850486755" lon="-20.421823502">
<ele>46.672852</ele>
<time>2012-07-27T13:26:23Z</time>
<speed>4.380000</speed>
<extensions>
<speed>4.4</speed>
<temp>0.00</temp>
<bpm>0</bpm>
<rpm>0.00</rpm>
</extensions>
</trkpt>
<trkpt lat="63.850646973" lon="-20.422084808">
<ele>46.723633</ele>
<time>2012-07-27T13:26:28Z</time>
<speed>4.560000</speed>
<extensions>
<speed>4.6</speed>
<temp>0.00</temp>
<bpm>0</bpm>
<rpm>0.00</rpm>
</extensions>
</trkpt>
<trkpt lat="63.850826263" lon="-20.422334671">
<ele>46.646484</ele>
<time>2012-07-27T13:26:33Z</time>
<speed>4.600000</speed>
<extensions>
<speed>4.6</speed>
<temp>0.00</temp>
<bpm>0</bpm>
<rpm>0.00</rpm>
</extensions>
</trkpt>
<trkpt lat="63.851013184" lon="-20.422590256">
<ele>46.845703</ele>
<time>2012-07-27T13:26:38Z</time>
<speed>5.170000</speed>
<extensions>
<speed>5.2</speed>
<temp>0.00</temp>
<bpm>0</bpm>
<rpm>0.00</rpm>
</extensions>
</trkpt>
<trkpt lat="63.851192474" lon="-20.422859192">
<ele>47.022461</ele>
<time>2012-07-27T13:26:43Z</time>
<speed>4.730000</speed>
<extensions>
<speed>4.7</speed>
<temp>0.00</temp>
<bpm>0</bpm>
<rpm>0.00</rpm>
</extensions>
</trkpt>
<trkpt lat="63.851364136" lon="-20.423126221">
<ele>47.208008</ele>
<time>2012-07-27T13:26:48Z</time>
<speed>4.270000</speed>
<extensions>
<speed>4.3</speed>
<temp>0.00</temp>
<bpm>0</bpm>
<rpm>0.00</rpm>
</extensions>
</trkpt>
<trkpt lat="63.851512909" lon="-20.423343658">
<ele>47.009766</ele>
<time>2012-07-27T13:26:53Z</time>
<speed>3.650000</speed>
<extensions>
<speed>3.7</speed>
<temp>0.00</temp>
<bpm>0</bpm>
<rpm>0.00</rpm>
</extensions>
</trkpt>
<trkpt lat="63.851650238" lon="-20.423587799">
<ele>46.921875</ele>
<time>2012-07-27T13:26:58Z</time>
<speed>4.210000</speed>
<extensions>
<speed>4.2</speed>
<temp>0.00</temp>
<bpm>0</bpm>
<rpm>0.00</rpm>
</extensions>
</trkpt>
<trkpt lat="63.851818085" lon="-20.423830032">
<ele>46.155273</ele>
<time>2012-07-27T13:27:03Z</time>
<speed>4.360000</speed>
<extensions>
<speed>4.4</speed>
<temp>0.00</temp>
<bpm>0</bpm>
<rpm>0.00</rpm>
</extensions>
</trkpt>
<trkpt lat="63.851993561" lon="-20.424081802">
<ele>46.002930</ele>
<time>2012-07-27T13:27:08Z</time>
<speed>4.690000</speed>
<extensions>
<speed>4.7</speed>
<temp>0.00</temp>
<bpm>0</bpm>
<rpm>0.00</rpm>
</extensions>
</trkpt>
<trkpt lat="63.852165222" lon="-20.424337387">
<ele>45.566406</ele>
<time>2012-07-27T13:27:13Z</time>
<speed>4.540000</speed>
<extensions>
<speed>4.5</speed>
<temp>0.00</temp>
<bpm>0</bpm>
<rpm>0.00</rpm>
</extensions>
</trkpt>
<trkpt lat="63.852340698" lon="-20.424596786">
<ele>45.530273</ele>
<time>2012-07-27T13:27:18Z</time>
<speed>4.690000</speed>
<extensions>
<speed>4.7</speed>
<temp>0.00</temp>
<bpm>0</bpm>
<rpm>0.00</rpm>
</extensions>
</trkpt>
<trkpt lat="63.852504730" lon="-20.424854279">
<ele>45.204102</ele>
<time>2012-07-27T13:27:23Z</time>
<speed>3.930000</speed>
<extensions>
<speed>3.9</speed>
<temp>0.00</temp>
<bpm>0</bpm>
<rpm>0.00</rpm>
</extensions>
</trkpt>
<trkpt lat="63.852626801" lon="-20.425041199">
<ele>44.892578</ele>
<time>2012-07-27T13:27:28Z</time>
<speed>2.520000</speed>
<extensions>
<speed>2.5</speed>
<temp>0.00</temp>
<bpm>0</bpm>
<rpm>0.00</rpm>
</extensions>
</trkpt>
<trkpt lat="63.852725983" lon="-20.425193787">
<ele>44.997070</ele>
<time>2012-07-27T13:27:33Z</time>
<speed>3.100000</speed>
<extensions>
<speed>3.1</speed>
<temp>0.00</temp>
<bpm>0</bpm>
<rpm>0.00</rpm>
</extensions>
</trkpt>
<trkpt lat="63.852855682" lon="-20.425386429">
<ele>44.930664</ele>
<time>2012-07-27T13:27:38Z</time>
<speed>3.600000</speed>
<extensions>
<speed>3.6</speed>
<temp>0.00</temp>
<bpm>0</bpm>
<rpm>0.00</rpm>
</extensions>
</trkpt>
<trkpt lat="63.852996826" lon="-20.425600052">
<ele>44.949219</ele>
<time>2012-07-27T13:27:43Z</time>
<speed>3.840000</speed>
<extensions>
<speed>3.8</speed>
<temp>0.00</temp>
<bpm>0</bpm>
<rpm>0.00</rpm>
</extensions>
</trkpt>
<trkpt lat="63.853134155" lon="-20.425830841">
<ele>44.942383</ele>
<time>2012-07-27T13:27:48Z</time>
<speed>3.980000</speed>
<extensions>
<speed>4.0</speed>
<temp>0.00</temp>
<bpm>0</bpm>
<rpm>0.00</rpm>
</extensions>
</trkpt>
<trkpt lat="63.853282928" lon="-20.426063538">
<ele>44.999023</ele>
<time>2012-07-27T13:27:53Z</time>
<speed>3.930000</speed>
<extensions>
<speed>3.9</speed>
<temp>0.00</temp>
<bpm>0</bpm>
<rpm>0.00</rpm>
</extensions>
</trkpt>
<trkpt lat="63.853408813" lon="-20.426242828">
<ele>44.998047</ele>
<time>2012-07-27T13:27:58Z</time>
<speed>2.620000</speed>
<extensions>
<speed>2.6</speed>
<temp>0.00</temp>
<bpm>0</bpm>
<rpm>0.00</rpm>
</extensions>
</trkpt>
<trkpt lat="63.853519440" lon="-20.426404953">
<ele>44.940430</ele>
<time>2012-07-27T13:28:03Z</time>
<speed>3.300000</speed>
<extensions>
<speed>3.3</speed>
<temp>0.00</temp>
<bpm>0</bpm>
<rpm>0.00</rpm>
</extensions>
</trkpt>
<trkpt lat="63.853656769" lon="-20.426593781">
<ele>45.444336</ele>
<time>2012-07-27T13:28:08Z</time>
<speed>3.650000</speed>
<extensions>
<speed>3.7</speed>
<temp>0.00</temp>
<bpm>0</bpm>
<rpm>0.00</rpm>
</extensions>
</trkpt>
<trkpt lat="63.853801727" lon="-20.426803589">
<ele>45.765625</ele>
<time>2012-07-27T13:28:13Z</time>
<speed>3.830000</speed>
<extensions>
<speed>3.8</speed>
<temp>0.00</temp>
<bpm>0</bpm>
<rpm>0.00</rpm>
</extensions>
</trkpt>
<trkpt lat="63.853950500" lon="-20.427030563">
<ele>45.880859</ele>
<time>2012-07-27T13:28:18Z</time>
<speed>4.010000</speed>
<extensions>
<speed>4.0</speed>
<temp>0.00</temp>
<bpm>0</bpm>
<rpm>0.00</rpm>
</extensions>
</trkpt>
<trkpt lat="63.854103088" lon="-20.427272797">
<ele>45.983398</ele>
<time>2012-07-27T13:28:23Z</time>
<speed>4.190000</speed>
<extensions>
<speed>4.2</speed>
<temp>0.00</temp>
<bpm>0</bpm>
<rpm>0.00</rpm>
</extensions>
</trkpt>
<trkpt lat="63.854244232" lon="-20.427484512">
<ele>46.922852</ele>
<time>2012-07-27T13:28:28Z</time>
<speed>3.130000</speed>
<extensions>
<speed>3.1</speed>
<temp>0.00</temp>
<bpm>0</bpm>
<rpm>0.00</rpm>
</extensions>
</trkpt>
<trkpt lat="63.854362488" lon="-20.427667618">
<ele>46.959961</ele>
<time>2012-07-27T13:28:33Z</time>
<speed>3.500000</speed>
<extensions>
<speed>3.5</speed>
<temp>0.00</temp>
<bpm>0</bpm>
<rpm>0.00</rpm>
</extensions>
</trkpt>
<trkpt lat="63.854507446" lon="-20.427864075">
<ele>47.100586</ele>
<time>2012-07-27T13:28:38Z</time>
<speed>3.730000</speed>
<extensions>
<speed>3.7</speed>
<temp>0.00</temp>
<bpm>0</bpm>
<rpm>0.00</rpm>
</extensions>
</trkpt>
<trkpt lat="63.854652405" lon="-20.428085327">
<ele>47.103516</ele>
<time>2012-07-27T13:28:43Z</time>
<speed>3.940000</speed>
<extensions>
<speed>3.9</speed>
<temp>0.00</temp>
<bpm>0</bpm>
<rpm>0.00</rpm>
</extensions>
</trkpt>
<trkpt lat="63.854801178" lon="-20.428316116">
<ele>47.083984</ele>
<time>2012-07-27T13:28:48Z</time>
<speed>3.840000</speed>
<extensions>
<speed>3.8</speed>
<temp>0.00</temp>
<bpm>0</bpm>
<rpm>0.00</rpm>
</extensions>
</trkpt>
<trkpt lat="63.854915619" lon="-20.428495407">
<ele>46.861328</ele>
<time>2012-07-27T13:28:53Z</time>
<speed>2.710000</speed>
<extensions>
<speed>2.7</speed>
<temp>0.00</temp>
<bpm>0</bpm>
<rpm>0.00</rpm>
</extensions>
</trkpt>
<trkpt lat="63.855003357" lon="-20.428636551">
<ele>46.813477</ele>
<time>2012-07-27T13:28:58Z</time>
<speed>2.080000</speed>
<extensions>
<speed>2.1</speed>
<temp>0.00</temp>
<bpm>0</bpm>
<rpm>0.00</rpm>
</extensions>
</trkpt>
<trkpt lat="63.855083466" lon="-20.428764343">
<ele>46.570313</ele>
<time>2012-07-27T13:29:03Z</time>
<speed>2.060000</speed>
<extensions>
<speed>2.1</speed>
<temp>0.00</temp>
<bpm>0</bpm>
<rpm>0.00</rpm>
</extensions>
</trkpt>
<trkpt lat="63.855140686" lon="-20.428865433">
<ele>46.509766</ele>
<time>2012-07-27T13:29:08Z</time>
<speed>1.690000</speed>
<extensions>
<speed>1.7</speed>
<temp>0.00</temp>
<bpm>0</bpm>
<rpm>0.00</rpm>
</extensions>
</trkpt>
<trkpt lat="63.855209351" lon="-20.428997040">
<ele>46.927734</ele>
<time>2012-07-27T13:29:13Z</time>
<speed>2.670000</speed>
<extensions>
<speed>2.7</speed>
<temp>0.00</temp>
<bpm>0</bpm>
<rpm>0.00</rpm>
</extensions>
</trkpt>
<trkpt lat="63.855319977" lon="-20.429143906">
<ele>46.853516</ele>
<time>2012-07-27T13:29:18Z</time>
<speed>2.840000</speed>
<extensions>
<speed>2.8</speed>
<temp>0.00</temp>
<bpm>0</bpm>
<rpm>0.00</rpm>
</extensions>
</trkpt>
<trkpt lat="63.855438232" lon="-20.429315567">
<ele>46.602539</ele>
<time>2012-07-27T13:29:23Z</time>
<speed>3.380000</speed>
<extensions>
<speed>3.4</speed>
<temp>0.00</temp>
<bpm>0</bpm>
<rpm>0.00</rpm>
</extensions>
</trkpt>
<trkpt lat="63.855571747" lon="-20.429512024">
<ele>46.157227</ele>
<time>2012-07-27T13:29:28Z</time>
<speed>3.720000</speed>
<extensions>
<speed>3.7</speed>
<temp>0.00</temp>
<bpm>0</bpm>
<rpm>0.00</rpm>
</extensions>
</trkpt>
<trkpt lat="63.855720520" lon="-20.429746628">
<ele>45.733398</ele>
<time>2012-07-27T13:29:33Z</time>
<speed>4.160000</speed>
<extensions>
<speed>4.2</speed>
<temp>0.00</temp>
<bpm>0</bpm>
<rpm>0.00</rpm>
</extensions>
</trkpt>
<trkpt lat="63.855865479" lon="-20.429967880">
<ele>45.529297</ele>
<time>2012-07-27T13:29:38Z</time>
<speed>3.370000</speed>
<extensions>
<speed>3.4</speed>
<temp>0.00</temp>
<bpm>0</bpm>
<rpm>0.00</rpm>
</extensions>
</trkpt>
<trkpt lat="63.855995178" lon="-20.430158615">
<ele>45.339844</ele>
<time>2012-07-27T13:29:43Z</time>
<speed>3.800000</speed>
<extensions>
<speed>3.8</speed>
<temp>0.00</temp>
<bpm>0</bpm>
<rpm>0.00</rpm>
</extensions>
</trkpt>
<trkpt lat="63.856155396" lon="-20.430379868">
<ele>45.440430</ele>
<time>2012-07-27T13:29:48Z</time>
<speed>3.770000</speed>
<extensions>
<speed>3.8</speed>
<temp>0.00</temp>
<bpm>0</bpm>
<rpm>0.00</rpm>
</extensions>
</trkpt>
<trkpt lat="63.856292725" lon="-20.430580139">
<ele>45.657227</ele>
<time>2012-07-27T13:29:53Z</time>
<speed>3.670000</speed>
<extensions>
<speed>3.7</speed>
<temp>0.00</temp>
<bpm>0</bpm>
<rpm>0.00</rpm>
</extensions>
</trkpt>
<trkpt lat="63.856437683" lon="-20.430791855">
<ele>45.321289</ele>
<time>2012-07-27T13:29:58Z</time>
<speed>3.700000</speed>
<extensions>
<speed>3.7</speed>
<temp>0.00</temp>
<bpm>0</bpm>
<rpm>0.00</rpm>
</extensions>
</trkpt>
<trkpt lat="63.856540680" lon="-20.430957794">
<ele>45.053711</ele>
<time>2012-07-27T13:30:03Z</time>
<speed>2.510000</speed>
<extensions>
<speed>2.5</speed>
<temp>0.00</temp>
<bpm>0</bpm>
<rpm>0.00</rpm>
</extensions>
</trkpt>
<trkpt lat="63.856639862" lon="-20.431133270">
<ele>44.422852</ele>
<time>2012-07-27T13:30:08Z</time>
<speed>3.450000</speed>
<extensions>
<speed>3.5</speed>
<temp>0.00</temp>
<bpm>0</bpm>
<rpm>0.00</rpm>
</extensions>
</trkpt>
<trkpt lat="63.856784821" lon="-20.431337357">
<ele>44.148438</ele>
<time>2012-07-27T13:30:13Z</time>
<speed>3.930000</speed>
<extensions>
<speed>3.9</speed>
<temp>0.00</temp>
<bpm>0</bpm>
<rpm>0.00</rpm>
</extensions>
</trkpt>
<trkpt lat="63.856933594" lon="-20.431556702">
<ele>44.041992</ele>
<time>2012-07-27T13:30:18Z</time>
<speed>3.490000</speed>
<extensions>
<speed>3.5</speed>
<temp>0.00</temp>
<bpm>0</bpm>
<rpm>0.00</rpm>
</extensions>
</trkpt>
<trkpt lat="63.857051849" lon="-20.431713104">
<ele>43.829102</ele>
<time>2012-07-27T13:30:23Z</time>
<speed>2.510000</speed>
<extensions>
<speed>2.5</speed>
<temp>0.00</temp>
<bpm>0</bpm>
<rpm>0.00</rpm>
</extensions>
</trkpt>
<trkpt lat="63.857154846" lon="-20.431890488">
<ele>44.081055</ele>
<time>2012-07-27T13:30:28Z</time>
<speed>3.660000</speed>
<extensions>
<speed>3.7</speed>
<temp>0.00</temp>
<bpm>0</bpm>
<rpm>0.00</rpm>
</extensions>
</trkpt>
<trkpt lat="63.857303619" lon="-20.432115555">
<ele>43.615234</ele>
<time>2012-07-27T13:30:33Z</time>
<speed>4.040000</speed>
<extensions>
<speed>4.0</speed>
<temp>0.00</temp>
<bpm>0</bpm>
<rpm>0.00</rpm>
</extensions>
</trkpt>
<trkpt lat="63.857452393" lon="-20.432348251">
<ele>43.266602</ele>
<time>2012-07-27T13:30:38Z</time>
<speed>4.180000</speed>
<extensions>
<speed>4.2</speed>
<temp>0.00</temp>
<bpm>0</bpm>
<rpm>0.00</rpm>
</extensions>
</trkpt>
<trkpt lat="63.857589722" lon="-20.432569504">
<ele>43.064453</ele>
<time>2012-07-27T13:30:43Z</time>
<speed>3.970000</speed>
<extensions>
<speed>4.0</speed>
<temp>0.00</temp>
<bpm>0</bpm>
<rpm>0.00</rpm>
</extensions>
</trkpt>
<trkpt lat="63.857742310" lon="-20.432807922">
<ele>42.639648</ele>
<time>2012-07-27T13:30:48Z</time>
<speed>4.110000</speed>
<extensions>
<speed>4.1</speed>
<temp>0.00</temp>
<bpm>0</bpm>
<rpm>0.00</rpm>
</extensions>
</trkpt>
<trkpt lat="63.857898712" lon="-20.433052063">
<ele>43.130859</ele>
<time>2012-07-27T13:30:53Z</time>
<speed>4.450000</speed>
<extensions>
<speed>4.5</speed>
<temp>0.00</temp>
<bpm>0</bpm>
<rpm>0.00</rpm>
</extensions>
</trkpt>
<trkpt lat="63.858047485" lon="-20.433273315">
<ele>42.464844</ele>
<time>2012-07-27T13:30:58Z</time>
<speed>3.630000</speed>
<extensions>
<speed>3.6</speed>
<temp>0.00</temp>
<bpm>0</bpm>
<rpm>0.00</rpm>
</extensions>
</trkpt>
<trkpt lat="63.858200073" lon="-20.433488846">
<ele>42.480469</ele>
<time>2012-07-27T13:31:03Z</time>
<speed>4.250000</speed>
<extensions>
<speed>4.3</speed>
<temp>0.00</temp>
<bpm>0</bpm>
<rpm>0.00</rpm>
</extensions>
</trkpt>
<trkpt lat="63.858364105" lon="-20.433729172">
<ele>42.032227</ele>
<time>2012-07-27T13:31:08Z</time>
<speed>4.070000</speed>
<extensions>
<speed>4.1</speed>
<temp>0.00</temp>
<bpm>0</bpm>
<rpm>0.00</rpm>
</extensions>
</trkpt>
<trkpt lat="63.858489990" lon="-20.433929443">
<ele>42.371094</ele>
<time>2012-07-27T13:31:13Z</time>
<speed>3.100000</speed>
<extensions>
<speed>3.1</speed>
<temp>0.00</temp>
<bpm>0</bpm>
<rpm>0.00</rpm>
</extensions>
</trkpt>
<trkpt lat="63.858608246" lon="-20.434122086">
<ele>41.726563</ele>
<time>2012-07-27T13:31:18Z</time>
<speed>3.230000</speed>
<extensions>
<speed>3.2</speed>
<temp>0.00</temp>
<bpm>0</bpm>
<rpm>0.00</rpm>
</extensions>
</trkpt>
<trkpt lat="63.858703613" lon="-20.434286118">
<ele>41.234375</ele>
<time>2012-07-27T13:31:23Z</time>
<speed>3.080000</speed>
<extensions>
<speed>3.1</speed>
<temp>0.00</temp>
<bpm>0</bpm>
<rpm>0.00</rpm>
</extensions>
</trkpt>
<trkpt lat="63.858848572" lon="-20.434488297">
<ele>41.748047</ele>
<time>2012-07-27T13:31:28Z</time>
<speed>3.980000</speed>
<extensions>
<speed>4.0</speed>
<temp>0.00</temp>
<bpm>0</bpm>
<rpm>0.00</rpm>
</extensions>
</trkpt>
<trkpt lat="63.858982086" lon="-20.434696198">
<ele>41.940430</ele>
<time>2012-07-27T13:31:33Z</time>
<speed>3.100000</speed>
<extensions>
<speed>3.1</speed>
<temp>0.00</temp>
<bpm>0</bpm>
<rpm>0.00</rpm>
</extensions>
</trkpt>
<trkpt lat="63.859119415" lon="-20.434883118">
<ele>41.805664</ele>
<time>2012-07-27T13:31:38Z</time>
<speed>3.840000</speed>
<extensions>
<speed>3.8</speed>
<temp>0.00</temp>
<bpm>0</bpm>
<rpm>0.00</rpm>
</extensions>
</trkpt>
<trkpt lat="63.859272003" lon="-20.435115814">
<ele>41.696289</ele>
<time>2012-07-27T13:31:43Z</time>
<speed>4.190000</speed>
<extensions>
<speed>4.2</speed>
<temp>0.00</temp>
<bpm>0</bpm>
<rpm>0.00</rpm>
</extensions>
</trkpt>
<trkpt lat="63.859397888" lon="-20.435321808">
<ele>41.749023</ele>
<time>2012-07-27T13:31:48Z</time>
<speed>3.540000</speed>
<extensions>
<speed>3.5</speed>
<temp>0.00</temp>
<bpm>0</bpm>
<rpm>0.00</rpm>
</extensions>
</trkpt>
<trkpt lat="63.859546661" lon="-20.435541153">
<ele>41.891602</ele>
<time>2012-07-27T13:31:53Z</time>
<speed>3.980000</speed>
<extensions>
<speed>4.0</speed>
<temp>0.00</temp>
<bpm>0</bpm>
<rpm>0.00</rpm>
</extensions>
</trkpt>
<trkpt lat="63.859695435" lon="-20.435773849">
<ele>42.196289</ele>
<time>2012-07-27T13:31:58Z</time>
<speed>4.080000</speed>
<extensions>
<speed>4.1</speed>
<temp>0.00</temp>
<bpm>0</bpm>
<rpm>0.00</rpm>
</extensions>
</trkpt>
<trkpt lat="63.859848022" lon="-20.436023712">
<ele>42.864258</ele>
<time>2012-07-27T13:32:03Z</time>
<speed>4.160000</speed>
<extensions>
<speed>4.2</speed>
<temp>0.00</temp>
<bpm>0</bpm>
<rpm>0.00</rpm>
</extensions>
</trkpt>
<trkpt lat="63.859992981" lon="-20.436239243">
<ele>43.616211</ele>
<time>2012-07-27T13:32:08Z</time>
<speed>4.020000</speed>
<extensions>
<speed>4.0</speed>
<temp>0.00</temp>
<bpm>0</bpm>
<rpm>0.00</rpm>
</extensions>
</trkpt>
<trkpt lat="63.860160828" lon="-20.436479568">
<ele>44.257813</ele>
<time>2012-07-27T13:32:13Z</time>
<speed>4.610000</speed>
<extensions>
<speed>4.6</speed>
<temp>0.00</temp>
<bpm>0</bpm>
<rpm>0.00</rpm>
</extensions>
</trkpt>
<trkpt lat="63.860336304" lon="-20.436733246">
<ele>44.290039</ele>
<time>2012-07-27T13:32:18Z</time>
<speed>4.400000</speed>
<extensions>
<speed>4.4</speed>
<temp>0.00</temp>
<bpm>0</bpm>
<rpm>0.00</rpm>
</extensions>
</trkpt>
<trkpt lat="63.860492706" lon="-20.436960220">
<ele>44.239258</ele>
<time>2012-07-27T13:32:23Z</time>
<speed>4.020000</speed>
<extensions>
<speed>4.0</speed>
<temp>0.00</temp>
<bpm>0</bpm>
<rpm>0.00</rpm>
</extensions>
</trkpt>
<trkpt lat="63.860649109" lon="-20.437200546">
<ele>43.541016</ele>
<time>2012-07-27T13:32:28Z</time>
<speed>4.290000</speed>
<extensions>
<speed>4.3</speed>
<temp>0.00</temp>
<bpm>0</bpm>
<rpm>0.00</rpm>
</extensions>
</trkpt>
<trkpt lat="63.860805511" lon="-20.437429428">
<ele>43.531250</ele>
<time>2012-07-27T13:32:33Z</time>
<speed>4.350000</speed>
<extensions>
<speed>4.3</speed>
<temp>0.00</temp>
<bpm>0</bpm>
<rpm>0.00</rpm>
</extensions>
</trkpt>
<trkpt lat="63.860965729" lon="-20.437675476">
<ele>44.019531</ele>
<time>2012-07-27T13:32:38Z</time>
<speed>3.650000</speed>
<extensions>
<speed>3.7</speed>
<temp>0.00</temp>
<bpm>0</bpm>
<rpm>0.00</rpm>
</extensions>
</trkpt>
<trkpt lat="63.861080170" lon="-20.437841415">
<ele>44.239258</ele>
<time>2012-07-27T13:32:43Z</time>
<speed>2.590000</speed>
<extensions>
<speed>2.6</speed>
<temp>0.00</temp>
<bpm>0</bpm>
<rpm>0.00</rpm>
</extensions>
</trkpt>
<trkpt lat="63.861186981" lon="-20.438001633">
<ele>44.127930</ele>
<time>2012-07-27T13:32:48Z</time>
<speed>3.370000</speed>
<extensions>
<speed>3.4</speed>
<temp>0.00</temp>
<bpm>0</bpm>
<rpm>0.00</rpm>
</extensions>
</trkpt>
<trkpt lat="63.861320496" lon="-20.438219070">
<ele>44.141602</ele>
<time>2012-07-27T13:32:53Z</time>
<speed>3.900000</speed>
<extensions>
<speed>3.9</speed>
<temp>0.00</temp>
<bpm>0</bpm>
<rpm>0.00</rpm>
</extensions>
</trkpt>
<trkpt lat="63.861476898" lon="-20.438451767">
<ele>43.496094</ele>
<time>2012-07-27T13:32:58Z</time>
<speed>4.290000</speed>
<extensions>
<speed>4.3</speed>
<temp>0.00</temp>
<bpm>0</bpm>
<rpm>0.00</rpm>
</extensions>
</trkpt>
<trkpt lat="63.861644745" lon="-20.438716888">
<ele>43.199219</ele>
<time>2012-07-27T13:33:03Z</time>
<speed>4.410000</speed>
<extensions>
<speed>4.4</speed>
<temp>0.00</temp>
<bpm>0</bpm>
<rpm>0.00</rpm>
</extensions>
</trkpt>
<trkpt lat="63.861801147" lon="-20.438953400">
<ele>42.787109</ele>
<time>2012-07-27T13:33:08Z</time>
<speed>3.960000</speed>
<extensions>
<speed>4.0</speed>
<temp>0.00</temp>
<bpm>0</bpm>
<rpm>0.00</rpm>
</extensions>
</trkpt>
<trkpt lat="63.861946106" lon="-20.439167023">
<ele>42.368164</ele>
<time>2012-07-27T13:33:13Z</time>
<speed>4.020000</speed>
<extensions>
<speed>4.0</speed>
<temp>0.00</temp>
<bpm>0</bpm>
<rpm>0.00</rpm>
</extensions>
</trkpt>
<trkpt lat="63.862113953" lon="-20.439409256">
<ele>41.500000</ele>
<time>2012-07-27T13:33:18Z</time>
<speed>4.490000</speed>
<extensions>
<speed>4.5</speed>
<temp>0.00</temp>
<bpm>0</bpm>
<rpm>0.00</rpm>
</extensions>
</trkpt>
<trkpt lat="63.862258911" lon="-20.439632416">
<ele>41.289063</ele>
<time>2012-07-27T13:33:23Z</time>
<speed>3.490000</speed>
<extensions>
<speed>3.5</speed>
<temp>0.00</temp>
<bpm>0</bpm>
<rpm>0.00</rpm>
</extensions>
</trkpt>
<trkpt lat="63.862377167" lon="-20.439805984">
<ele>41.307617</ele>
<time>2012-07-27T13:33:28Z</time>
<speed>2.830000</speed>
<extensions>
<speed>2.8</speed>
<temp>0.00</temp>
<bpm>0</bpm>
<rpm>0.00</rpm>
</extensions>
</trkpt>
<trkpt lat="63.862491608" lon="-20.439981461">
<ele>41.222656</ele>
<time>2012-07-27T13:33:33Z</time>
<speed>3.550000</speed>
<extensions>
<speed>3.5</speed>
<temp>0.00</temp>
<bpm>0</bpm>
<rpm>0.00</rpm>
</extensions>
</trkpt>
<trkpt lat="63.862636566" lon="-20.440206528">
<ele>40.983398</ele>
<time>2012-07-27T13:33:38Z</time>
<speed>4.400000</speed>
<extensions>
<speed>4.4</speed>
<temp>0.00</temp>
<bpm>0</bpm>
<rpm>0.00</rpm>
</extensions>
</trkpt>
<trkpt lat="63.862796783" lon="-20.440441132">
<ele>40.948242</ele>
<time>2012-07-27T13:33:43Z</time>
<speed>3.760000</speed>
<extensions>
<speed>3.8</speed>
<temp>0.00</temp>
<bpm>0</bpm>
<rpm>0.00</rpm>
</extensions>
</trkpt>
<trkpt lat="63.862922668" lon="-20.440637589">
<ele>40.800781</ele>
<time>2012-07-27T13:33:48Z</time>
<speed>3.660000</speed>
<extensions>
<speed>3.7</speed>
<temp>0.00</temp>
<bpm>0</bpm>
<rpm>0.00</rpm>
</extensions>
</trkpt>
<trkpt lat="63.863067627" lon="-20.440864563">
<ele>40.440430</ele>
<time>2012-07-27T13:33:53Z</time>
<speed>4.260000</speed>
<extensions>
<speed>4.3</speed>
<temp>0.00</temp>
<bpm>0</bpm>
<rpm>0.00</rpm>
</extensions>
</trkpt>
<trkpt lat="63.863220215" lon="-20.441102982">
<ele>40.201172</ele>
<time>2012-07-27T13:33:58Z</time>
<speed>3.740000</speed>
<extensions>
<speed>3.7</speed>
<temp>0.00</temp>
<bpm>0</bpm>
<rpm>0.00</rpm>
</extensions>
</trkpt>
<trkpt lat="63.863357544" lon="-20.441307068">
<ele>40.006836</ele>
<time>2012-07-27T13:34:03Z</time>
<speed>3.660000</speed>
<extensions>
<speed>3.7</speed>
<temp>0.00</temp>
<bpm>0</bpm>
<rpm>0.00</rpm>
</extensions>
</trkpt>
<trkpt lat="63.863506317" lon="-20.441526413">
<ele>39.715820</ele>
<time>2012-07-27T13:34:08Z</time>
<speed>4.090000</speed>
<extensions>
<speed>4.1</speed>
<temp>0.00</temp>
<bpm>0</bpm>
<rpm>0.00</rpm>
</extensions>
</trkpt>
<trkpt lat="63.863655090" lon="-20.441741943">
<ele>39.979492</ele>
<time>2012-07-27T13:34:13Z</time>
<speed>3.940000</speed>
<extensions>
<speed>3.9</speed>
<temp>0.00</temp>
<bpm>0</bpm>
<rpm>0.00</rpm>
</extensions>
</trkpt>
<trkpt lat="63.863796234" lon="-20.441949844">
<ele>39.594727</ele>
<time>2012-07-27T13:34:18Z</time>
<speed>3.500000</speed>
<extensions>
<speed>3.5</speed>
<temp>0.00</temp>
<bpm>0</bpm>
<rpm>0.00</rpm>
</extensions>
</trkpt>
<trkpt lat="63.863922119" lon="-20.442165375">
<ele>39.549805</ele>
<time>2012-07-27T13:34:23Z</time>
<speed>3.500000</speed>
<extensions>
<speed>3.5</speed>
<temp>0.00</temp>
<bpm>0</bpm>
<rpm>0.00</rpm>
</extensions>
</trkpt>
<trkpt lat="63.864055634" lon="-20.442371368">
<ele>39.300781</ele>
<time>2012-07-27T13:34:28Z</time>
<speed>4.010000</speed>
<extensions>
<speed>4.0</speed>
<temp>0.00</temp>
<bpm>0</bpm>
<rpm>0.00</rpm>
</extensions>
</trkpt>
<trkpt lat="63.864212036" lon="-20.442600250">
<ele>39.028320</ele>
<time>2012-07-27T13:34:33Z</time>
<speed>4.070000</speed>
<extensions>
<speed>4.1</speed>
<temp>0.00</temp>
<bpm>0</bpm>
<rpm>0.00</rpm>
</extensions>
</trkpt>
<trkpt lat="63.864360809" lon="-20.442829132">
<ele>39.613281</ele>
<time>2012-07-27T13:34:38Z</time>
<speed>3.890000</speed>
<extensions>
<speed>3.9</speed>
<temp>0.00</temp>
<bpm>0</bpm>
<rpm>0.00</rpm>
</extensions>
</trkpt>
<trkpt lat="63.864509583" lon="-20.443050385">
<ele>39.890625</ele>
<time>2012-07-27T13:34:43Z</time>
<speed>4.010000</speed>
<extensions>
<speed>4.0</speed>
<temp>0.00</temp>
<bpm>0</bpm>
<rpm>0.00</rpm>
</extensions>
</trkpt>
<trkpt lat="63.864635468" lon="-20.443235397">
<ele>39.733398</ele>
<time>2012-07-27T13:34:48Z</time>
<speed>2.510000</speed>
<extensions>
<speed>2.5</speed>
<temp>0.00</temp>
<bpm>0</bpm>
<rpm>0.00</rpm>
</extensions>
</trkpt>
<trkpt lat="63.864707947" lon="-20.443347931">
<ele>40.058594</ele>
<time>2012-07-27T13:34:53Z</time>
<speed>1.920000</speed>
<extensions>
<speed>1.9</speed>
<temp>0.00</temp>
<bpm>0</bpm>
<rpm>0.00</rpm>
</extensions>
</trkpt>
<trkpt lat="63.864784241" lon="-20.443428040">
<ele>40.327148</ele>
<time>2012-07-27T13:34:58Z</time>
<speed>2.070000</speed>
<extensions>
<speed>2.1</speed>
<temp>0.00</temp>
<bpm>0</bpm>
<rpm>0.00</rpm>
</extensions>
</trkpt>
<trkpt lat="63.864864349" lon="-20.443550110">
<ele>41.225586</ele>
<time>2012-07-27T13:35:03Z</time>
<speed>2.180000</speed>
<extensions>
<speed>2.2</speed>
<temp>0.00</temp>
<bpm>0</bpm>
<rpm>0.00</rpm>
</extensions>
</trkpt>
<trkpt lat="63.864936829" lon="-20.443693161">
<ele>41.794922</ele>
<time>2012-07-27T13:35:08Z</time>
<speed>2.210000</speed>
<extensions>
<speed>2.2</speed>
<temp>0.00</temp>
<bpm>0</bpm>
<rpm>0.00</rpm>
</extensions>
</trkpt>
<trkpt lat="63.865024567" lon="-20.443824768">
<ele>42.387695</ele>
<time>2012-07-27T13:35:13Z</time>
<speed>2.260000</speed>
<extensions>
<speed>2.3</speed>
<temp>0.00</temp>
<bpm>0</bpm>
<rpm>0.00</rpm>
</extensions>
</trkpt>
<trkpt lat="63.865104675" lon="-20.443954468">
<ele>42.506836</ele>
<time>2012-07-27T13:35:18Z</time>
<speed>2.260000</speed>
<extensions>
<speed>2.3</speed>
<temp>0.00</temp>
<bpm>0</bpm>
<rpm>0.00</rpm>
</extensions>
</trkpt>
<trkpt lat="63.865180969" lon="-20.444120407">
<ele>42.733398</ele>
<time>2012-07-27T13:35:23Z</time>
<speed>2.530000</speed>
<extensions>
<speed>2.5</speed>
<temp>0.00</temp>
<bpm>0</bpm>
<rpm>0.00</rpm>
</extensions>
</trkpt>
<trkpt lat="63.865249634" lon="-20.444248199">
<ele>43.226563</ele>
<time>2012-07-27T13:35:28Z</time>
<speed>2.000000</speed>
<extensions>
<speed>2.0</speed>
<temp>0.00</temp>
<bpm>0</bpm>
<rpm>0.00</rpm>
</extensions>
</trkpt>
<trkpt lat="63.865306854" lon="-20.444322586">
<ele>43.314453</ele>
<time>2012-07-27T13:35:33Z</time>
<speed>0.070000</speed>
<extensions>
<speed>0.1</speed>
<temp>0.00</temp>
<bpm>0</bpm>
<rpm>0.00</rpm>
</extensions>
</trkpt>
<trkpt lat="63.865303040" lon="-20.444332123">
<ele>42.635742</ele>
<time>2012-07-27T13:35:38Z</time>
<extensions>
<speed>0.0</speed>
<temp>0.00</temp>
<bpm>0</bpm>
<rpm>0.00</rpm>
</extensions>
</trkpt>
<trkpt lat="63.865303040" lon="-20.444334030">
<ele>42.702148</ele>
<time>2012-07-27T13:35:43Z</time>
<speed>0.010000</speed>
<extensions>
<speed>0.0</speed>
<temp>0.00</temp>
<bpm>0</bpm>
<rpm>0.00</rpm>
</extensions>
</trkpt>
<trkpt lat="63.865303040" lon="-20.444334030">
<ele>42.725586</ele>
<time>2012-07-27T13:35:48Z</time>
<speed>0.010000</speed>
<extensions>
<speed>0.0</speed>
<temp>0.00</temp>
<bpm>0</bpm>
<rpm>0.00</rpm>
</extensions>
</trkpt>
<trkpt lat="63.865303040" lon="-20.444334030">
<ele>42.735352</ele>
<time>2012-07-27T13:35:53Z</time>
<speed>0.010000</speed>
<extensions>
<speed>0.0</speed>
<temp>0.00</temp>
<bpm>0</bpm>
<rpm>0.00</rpm>
</extensions>
</trkpt>
<trkpt lat="63.865303040" lon="-20.444334030">
<ele>42.750977</ele>
<time>2012-07-27T13:35:58Z</time>
<speed>0.010000</speed>
<extensions>
<speed>0.0</speed>
<temp>0.00</temp>
<bpm>0</bpm>
<rpm>0.00</rpm>
</extensions>
</trkpt>
<trkpt lat="63.865303040" lon="-20.444334030">
<ele>42.746094</ele>
<time>2012-07-27T13:36:03Z</time>
<speed>0.090000</speed>
<extensions>
<speed>0.1</speed>
<temp>0.00</temp>
<bpm>0</bpm>
<rpm>0.00</rpm>
</extensions>
</trkpt>
<trkpt lat="63.865333557" lon="-20.444417953">
<ele>42.672852</ele>
<time>2012-07-27T13:36:08Z</time>
<speed>2.560000</speed>
<extensions>
<speed>2.6</speed>
<temp>0.00</temp>
<bpm>0</bpm>
<rpm>0.00</rpm>
</extensions>
</trkpt>
<trkpt lat="63.865436554" lon="-20.444629669">
<ele>42.835938</ele>
<time>2012-07-27T13:36:13Z</time>
<speed>3.500000</speed>
<extensions>
<speed>3.5</speed>
<temp>0.00</temp>
<bpm>0</bpm>
<rpm>0.00</rpm>
</extensions>
</trkpt>
<trkpt lat="63.865554810" lon="-20.444885254">
<ele>43.194336</ele>
<time>2012-07-27T13:36:18Z</time>
<speed>3.620000</speed>
<extensions>
<speed>3.6</speed>
<temp>0.00</temp>
<bpm>0</bpm>
<rpm>0.00</rpm>
</extensions>
</trkpt>
<trkpt lat="63.865680695" lon="-20.445182800">
<ele>43.319336</ele>
<time>2012-07-27T13:36:23Z</time>
<speed>4.150000</speed>
<extensions>
<speed>4.1</speed>
<temp>0.00</temp>
<bpm>0</bpm>
<rpm>0.00</rpm>
</extensions>
</trkpt>
<trkpt lat="63.865783691" lon="-20.445470810">
<ele>43.067383</ele>
<time>2012-07-27T13:36:28Z</time>
<speed>3.290000</speed>
<extensions>
<speed>3.3</speed>
<temp>0.00</temp>
<bpm>0</bpm>
<rpm>0.00</rpm>
</extensions>
</trkpt>
<trkpt lat="63.865875244" lon="-20.445699692">
<ele>42.804688</ele>
<time>2012-07-27T13:36:33Z</time>
<speed>3.330000</speed>
<extensions>
<speed>3.3</speed>
<temp>0.00</temp>
<bpm>0</bpm>
<rpm>0.00</rpm>
</extensions>
</trkpt>
<trkpt lat="63.865985870" lon="-20.445993423">
<ele>42.423828</ele>
<time>2012-07-27T13:36:38Z</time>
<speed>4.280000</speed>
<extensions>
<speed>4.3</speed>
<temp>0.00</temp>
<bpm>0</bpm>
<rpm>0.00</rpm>
</extensions>
</trkpt>
<trkpt lat="63.866100311" lon="-20.446342468">
<ele>41.849609</ele>
<time>2012-07-27T13:36:43Z</time>
<speed>3.950000</speed>
<extensions>
<speed>4.0</speed>
<temp>0.00</temp>
<bpm>0</bpm>
<rpm>0.00</rpm>
</extensions>
</trkpt>
<trkpt lat="63.866195679" lon="-20.446660995">
<ele>41.882813</ele>
<time>2012-07-27T13:36:48Z</time>
<speed>3.570000</speed>
<extensions>
<speed>3.6</speed>
<temp>0.00</temp>
<bpm>0</bpm>
<rpm>0.00</rpm>
</extensions>
</trkpt>
<trkpt lat="63.866287231" lon="-20.446975708">
<ele>41.497070</ele>
<time>2012-07-27T13:36:53Z</time>
<speed>4.180000</speed>
<extensions>
<speed>4.2</speed>
<temp>0.00</temp>
<bpm>0</bpm>
<rpm>0.00</rpm>
</extensions>
</trkpt>
<trkpt lat="63.866394043" lon="-20.447353363">
<ele>41.541992</ele>
<time>2012-07-27T13:36:58Z</time>
<speed>4.680000</speed>
<extensions>
<speed>4.7</speed>
<temp>0.00</temp>
<bpm>0</bpm>
<rpm>0.00</rpm>
</extensions>
</trkpt>
<trkpt lat="63.866497040" lon="-20.447772980">
<ele>41.426758</ele>
<time>2012-07-27T13:37:03Z</time>
<speed>4.760000</speed>
<extensions>
<speed>4.8</speed>
<temp>0.00</temp>
<bpm>0</bpm>
<rpm>0.00</rpm>
</extensions>
</trkpt>
<trkpt lat="63.866603851" lon="-20.448217392">
<ele>41.326172</ele>
<time>2012-07-27T13:37:08Z</time>
<speed>5.220000</speed>
<extensions>
<speed>5.2</speed>
<temp>0.00</temp>
<bpm>0</bpm>
<rpm>0.00</rpm>
</extensions>
</trkpt>
<trkpt lat="63.866710663" lon="-20.448730469">
<ele>41.850586</ele>
<time>2012-07-27T13:37:13Z</time>
<speed>5.350000</speed>
<extensions>
<speed>5.4</speed>
<temp>0.00</temp>
<bpm>0</bpm>
<rpm>0.00</rpm>
</extensions>
</trkpt>
<trkpt lat="63.866798401" lon="-20.449197769">
<ele>42.116211</ele>
<time>2012-07-27T13:37:18Z</time>
<speed>4.900000</speed>
<extensions>
<speed>4.9</speed>
<temp>0.00</temp>
<bpm>0</bpm>
<rpm>0.00</rpm>
</extensions>
</trkpt>
<trkpt lat="63.866886139" lon="-20.449680328">
<ele>42.166016</ele>
<time>2012-07-27T13:37:23Z</time>
<speed>5.200000</speed>
<extensions>
<speed>5.2</speed>
<temp>0.00</temp>
<bpm>0</bpm>
<rpm>0.00</rpm>
</extensions>
</trkpt>
<trkpt lat="63.866966248" lon="-20.450185776">
<ele>42.359375</ele>
<time>2012-07-27T13:37:28Z</time>
<speed>5.190000</speed>
<extensions>
<speed>5.2</speed>
<temp>0.00</temp>
<bpm>0</bpm>
<rpm>0.00</rpm>
</extensions>
</trkpt>
<trkpt lat="63.867027283" lon="-20.450700760">
<ele>42.294922</ele>
<time>2012-07-27T13:37:33Z</time>
<speed>4.970000</speed>
<extensions>
<speed>5.0</speed>
<temp>0.00</temp>
<bpm>0</bpm>
<rpm>0.00</rpm>
</extensions>
</trkpt>
<trkpt lat="63.867073059" lon="-20.451164246">
<ele>42.515625</ele>
<time>2012-07-27T13:37:38Z</time>
<speed>4.590000</speed>
<extensions>
<speed>4.6</speed>
<temp>0.00</temp>
<bpm>0</bpm>
<rpm>0.00</rpm>
</extensions>
</trkpt>
<trkpt lat="63.867111206" lon="-20.451601028">
<ele>43.095703</ele>
<time>2012-07-27T13:37:43Z</time>
<speed>4.270000</speed>
<extensions>
<speed>4.3</speed>
<temp>0.00</temp>
<bpm>0</bpm>
<rpm>0.00</rpm>
</extensions>
</trkpt>
<trkpt lat="63.867130280" lon="-20.452016830">
<ele>42.904297</ele>
<time>2012-07-27T13:37:48Z</time>
<speed>3.930000</speed>
<extensions>
<speed>3.9</speed>
<temp>0.00</temp>
<bpm>0</bpm>
<rpm>0.00</rpm>
</extensions>
</trkpt>
<trkpt lat="63.867145538" lon="-20.452388763">
<ele>42.921875</ele>
<time>2012-07-27T13:37:53Z</time>
<speed>3.850000</speed>
<extensions>
<speed>3.8</speed>
<temp>0.00</temp>
<bpm>0</bpm>
<rpm>0.00</rpm>
</extensions>
</trkpt>
<trkpt lat="63.867168427" lon="-20.452756882">
<ele>43.749023</ele>
<time>2012-07-27T13:37:58Z</time>
<speed>3.670000</speed>
<extensions>
<speed>3.7</speed>
<temp>0.00</temp>
<bpm>0</bpm>
<rpm>0.00</rpm>
</extensions>
</trkpt>
<trkpt lat="63.867179871" lon="-20.453145981">
<ele>44.553711</ele>
<time>2012-07-27T13:38:03Z</time>
<speed>3.890000</speed>
<extensions>
<speed>3.9</speed>
<temp>0.00</temp>
<bpm>0</bpm>
<rpm>0.00</rpm>
</extensions>
</trkpt>
<trkpt lat="63.867183685" lon="-20.453542709">
<ele>44.877930</ele>
<time>2012-07-27T13:38:08Z</time>
<speed>4.040000</speed>
<extensions>
<speed>4.0</speed>
<temp>0.00</temp>
<bpm>0</bpm>
<rpm>0.00</rpm>
</extensions>
</trkpt>
<trkpt lat="63.867195129" lon="-20.453950882">
<ele>45.949219</ele>
<time>2012-07-27T13:38:13Z</time>
<speed>4.070000</speed>
<extensions>
<speed>4.1</speed>
<temp>0.00</temp>
<bpm>0</bpm>
<rpm>0.00</rpm>
</extensions>
</trkpt>
<trkpt lat="63.867210388" lon="-20.454353333">
<ele>46.663086</ele>
<time>2012-07-27T13:38:18Z</time>
<speed>4.010000</speed>
<extensions>
<speed>4.0</speed>
<temp>0.00</temp>
<bpm>0</bpm>
<rpm>0.00</rpm>
</extensions>
</trkpt>
<trkpt lat="63.867210388" lon="-20.454761505">
<ele>47.653320</ele>
<time>2012-07-27T13:38:23Z</time>
<speed>3.850000</speed>
<extensions>
<speed>3.8</speed>
<temp>0.00</temp>
<bpm>0</bpm>
<rpm>0.00</rpm>
</extensions>
</trkpt>
<trkpt lat="63.867218018" lon="-20.455150604">
<ele>48.370117</ele>
<time>2012-07-27T13:38:28Z</time>
<speed>3.980000</speed>
<extensions>
<speed>4.0</speed>
<temp>0.00</temp>
<bpm>0</bpm>
<rpm>0.00</rpm>
</extensions>
</trkpt>
<trkpt lat="63.867221832" lon="-20.455554962">
<ele>48.600586</ele>
<time>2012-07-27T13:38:33Z</time>
<speed>4.080000</speed>
<extensions>
<speed>4.1</speed>
<temp>0.00</temp>
<bpm>0</bpm>
<rpm>0.00</rpm>
</extensions>
</trkpt>
<trkpt lat="63.867229462" lon="-20.455936432">
<ele>49.325195</ele>
<time>2012-07-27T13:38:38Z</time>
<speed>3.050000</speed>
<extensions>
<speed>3.0</speed>
<temp>0.00</temp>
<bpm>0</bpm>
<rpm>0.00</rpm>
</extensions>
</trkpt>
<trkpt lat="63.867237091" lon="-20.456239700">
<ele>50.150391</ele>
<time>2012-07-27T13:38:43Z</time>
<speed>2.900000</speed>
<extensions>
<speed>2.9</speed>
<temp>0.00</temp>
<bpm>0</bpm>
<rpm>0.00</rpm>
</extensions>
</trkpt>
<trkpt lat="63.867233276" lon="-20.456523895">
<ele>50.706055</ele>
<time>2012-07-27T13:38:48Z</time>
<speed>2.850000</speed>
<extensions>
<speed>2.9</speed>
<temp>0.00</temp>
<bpm>0</bpm>
<rpm>0.00</rpm>
</extensions>
</trkpt>
<trkpt lat="63.867244720" lon="-20.456811905">
<ele>50.851563</ele>
<time>2012-07-27T13:38:53Z</time>
<speed>2.810000</speed>
<extensions>
<speed>2.8</speed>
<temp>0.00</temp>
<bpm>0</bpm>
<rpm>0.00</rpm>
</extensions>
</trkpt>
<trkpt lat="63.867252350" lon="-20.457090378">
<ele>50.878906</ele>
<time>2012-07-27T13:38:58Z</time>
<speed>2.730000</speed>
<extensions>
<speed>2.7</speed>
<temp>0.00</temp>
<bpm>0</bpm>
<rpm>0.00</rpm>
</extensions>
</trkpt>
<trkpt lat="63.867252350" lon="-20.457365036">
<ele>51.533203</ele>
<time>2012-07-27T13:39:03Z</time>
<speed>2.860000</speed>
<extensions>
<speed>2.9</speed>
<temp>0.00</temp>
<bpm>0</bpm>
<rpm>0.00</rpm>
</extensions>
</trkpt>
<trkpt lat="63.867252350" lon="-20.457651138">
<ele>52.030273</ele>
<time>2012-07-27T13:39:08Z</time>
<speed>2.780000</speed>
<extensions>
<speed>2.8</speed>
<temp>0.00</temp>
<bpm>0</bpm>
<rpm>0.00</rpm>
</extensions>
</trkpt>
<trkpt lat="63.867256165" lon="-20.457941055">
<ele>52.039063</ele>
<time>2012-07-27T13:39:13Z</time>
<speed>2.950000</speed>
<extensions>
<speed>2.9</speed>
<temp>0.00</temp>
<bpm>0</bpm>
<rpm>0.00</rpm>
</extensions>
</trkpt>
<trkpt lat="63.867259979" lon="-20.458223343">
<ele>52.875000</ele>
<time>2012-07-27T13:39:18Z</time>
<speed>2.780000</speed>
<extensions>
<speed>2.8</speed>
<temp>0.00</temp>
<bpm>0</bpm>
<rpm>0.00</rpm>
</extensions>
</trkpt>
<trkpt lat="63.867267609" lon="-20.458511353">
<ele>53.137695</ele>
<time>2012-07-27T13:39:23Z</time>
<speed>2.940000</speed>
<extensions>
<speed>2.9</speed>
<temp>0.00</temp>
<bpm>0</bpm>
<rpm>0.00</rpm>
</extensions>
</trkpt>
<trkpt lat="63.867275238" lon="-20.458824158">
<ele>53.812500</ele>
<time>2012-07-27T13:39:28Z</time>
<speed>3.040000</speed>
<extensions>
<speed>3.0</speed>
<temp>0.00</temp>
<bpm>0</bpm>
<rpm>0.00</rpm>
</extensions>
</trkpt>
<trkpt lat="63.867279053" lon="-20.459150314">
<ele>53.725586</ele>
<time>2012-07-27T13:39:33Z</time>
<speed>3.430000</speed>
<extensions>
<speed>3.4</speed>
<temp>0.00</temp>
<bpm>0</bpm>
<rpm>0.00</rpm>
</extensions>
</trkpt>
<trkpt lat="63.867286682" lon="-20.459535599">
<ele>53.934570</ele>
<time>2012-07-27T13:39:38Z</time>
<speed>3.810000</speed>
<extensions>
<speed>3.8</speed>
<temp>0.00</temp>
<bpm>0</bpm>
<rpm>0.00</rpm>
</extensions>
</trkpt>
<trkpt lat="63.867298126" lon="-20.459918976">
<ele>54.227539</ele>
<time>2012-07-27T13:39:43Z</time>
<speed>3.900000</speed>
<extensions>
<speed>3.9</speed>
<temp>0.00</temp>
<bpm>0</bpm>
<rpm>0.00</rpm>
</extensions>
</trkpt>
<trkpt lat="63.867305756" lon="-20.460306168">
<ele>54.091797</ele>
<time>2012-07-27T13:39:48Z</time>
<speed>4.000000</speed>
<extensions>
<speed>4.0</speed>
<temp>0.00</temp>
<bpm>0</bpm>
<rpm>0.00</rpm>
</extensions>
</trkpt>
<trkpt lat="63.867313385" lon="-20.460721970">
<ele>53.613281</ele>
<time>2012-07-27T13:39:53Z</time>
<speed>3.870000</speed>
<extensions>
<speed>3.9</speed>
<temp>0.00</temp>
<bpm>0</bpm>
<rpm>0.00</rpm>
</extensions>
</trkpt>
<trkpt lat="63.867321014" lon="-20.461177826">
<ele>53.640625</ele>
<time>2012-07-27T13:39:58Z</time>
<speed>4.430000</speed>
<extensions>
<speed>4.4</speed>
<temp>0.00</temp>
<bpm>0</bpm>
<rpm>0.00</rpm>
</extensions>
</trkpt>
<trkpt lat="63.867332458" lon="-20.461637497">
<ele>53.865234</ele>
<time>2012-07-27T13:40:03Z</time>
<speed>4.670000</speed>
<extensions>
<speed>4.7</speed>
<temp>0.00</temp>
<bpm>0</bpm>
<rpm>0.00</rpm>
</extensions>
</trkpt>
<trkpt lat="63.867340088" lon="-20.462112427">
<ele>53.556641</ele>
<time>2012-07-27T13:40:08Z</time>
<speed>5.050000</speed>
<extensions>
<speed>5.1</speed>
<temp>0.00</temp>
<bpm>0</bpm>
<rpm>0.00</rpm>
</extensions>
</trkpt>
<trkpt lat="63.867366791" lon="-20.462615967">
<ele>53.572266</ele>
<time>2012-07-27T13:40:13Z</time>
<speed>5.150000</speed>
<extensions>
<speed>5.2</speed>
<temp>0.00</temp>
<bpm>0</bpm>
<rpm>0.00</rpm>
</extensions>
</trkpt>
<trkpt lat="63.867393494" lon="-20.463125229">
<ele>53.486328</ele>
<time>2012-07-27T13:40:18Z</time>
<speed>4.640000</speed>
<extensions>
<speed>4.6</speed>
<temp>0.00</temp>
<bpm>0</bpm>
<rpm>0.00</rpm>
</extensions>
</trkpt>
<trkpt lat="63.867435455" lon="-20.463615417">
<ele>53.402344</ele>
<time>2012-07-27T13:40:23Z</time>
<speed>4.930000</speed>
<extensions>
<speed>4.9</speed>
<temp>0.00</temp>
<bpm>0</bpm>
<rpm>0.00</rpm>
</extensions>
</trkpt>
<trkpt lat="63.867488861" lon="-20.464086533">
<ele>53.549805</ele>
<time>2012-07-27T13:40:28Z</time>
<speed>4.820000</speed>
<extensions>
<speed>4.8</speed>
<temp>0.00</temp>
<bpm>0</bpm>
<rpm>0.00</rpm>
</extensions>
</trkpt>
<trkpt lat="63.867549896" lon="-20.464544296">
<ele>53.839844</ele>
<time>2012-07-27T13:40:33Z</time>
<speed>4.510000</speed>
<extensions>
<speed>4.5</speed>
<temp>0.00</temp>
<bpm>0</bpm>
<rpm>0.00</rpm>
</extensions>
</trkpt>
<trkpt lat="63.867622375" lon="-20.464981079">
<ele>54.062500</ele>
<time>2012-07-27T13:40:38Z</time>
<speed>4.680000</speed>
<extensions>
<speed>4.7</speed>
<temp>0.00</temp>
<bpm>0</bpm>
<rpm>0.00</rpm>
</extensions>
</trkpt>
<trkpt lat="63.867698669" lon="-20.465396881">
<ele>54.216797</ele>
<time>2012-07-27T13:40:43Z</time>
<speed>4.390000</speed>
<extensions>
<speed>4.4</speed>
<temp>0.00</temp>
<bpm>0</bpm>
<rpm>0.00</rpm>
</extensions>
</trkpt>
<trkpt lat="63.867782593" lon="-20.465808868">
<ele>54.226563</ele>
<time>2012-07-27T13:40:48Z</time>
<speed>4.480000</speed>
<extensions>
<speed>4.5</speed>
<temp>0.00</temp>
<bpm>0</bpm>
<rpm>0.00</rpm>
</extensions>
</trkpt>
<trkpt lat="63.867885590" lon="-20.466220856">
<ele>54.371094</ele>
<time>2012-07-27T13:40:53Z</time>
<speed>4.390000</speed>
<extensions>
<speed>4.4</speed>
<temp>0.00</temp>
<bpm>0</bpm>
<rpm>0.00</rpm>
</extensions>
</trkpt>
<trkpt lat="63.867992401" lon="-20.466608047">
<ele>54.374023</ele>
<time>2012-07-27T13:40:58Z</time>
<speed>4.540000</speed>
<extensions>
<speed>4.5</speed>
<temp>0.00</temp>
<bpm>0</bpm>
<rpm>0.00</rpm>
</extensions>
</trkpt>
<trkpt lat="63.868106842" lon="-20.467004776">
<ele>54.606445</ele>
<time>2012-07-27T13:41:03Z</time>
<speed>4.810000</speed>
<extensions>
<speed>4.8</speed>
<temp>0.00</temp>
<bpm>0</bpm>
<rpm>0.00</rpm>
</extensions>
</trkpt>
<trkpt lat="63.868209839" lon="-20.467359543">
<ele>54.890625</ele>
<time>2012-07-27T13:41:08Z</time>
<speed>4.160000</speed>
<extensions>
<speed>4.2</speed>
<temp>0.00</temp>
<bpm>0</bpm>
<rpm>0.00</rpm>
</extensions>
</trkpt>
<trkpt lat="63.868324280" lon="-20.467704773">
<ele>54.639648</ele>
<time>2012-07-27T13:41:13Z</time>
<speed>4.460000</speed>
<extensions>
<speed>4.5</speed>
<temp>0.00</temp>
<bpm>0</bpm>
<rpm>0.00</rpm>
</extensions>
</trkpt>
<trkpt lat="63.868434906" lon="-20.468088150">
<ele>54.596680</ele>
<time>2012-07-27T13:41:18Z</time>
<speed>4.320000</speed>
<extensions>
<speed>4.3</speed>
<temp>0.00</temp>
<bpm>0</bpm>
<rpm>0.00</rpm>
</extensions>
</trkpt>
<trkpt lat="63.868564606" lon="-20.468461990">
<ele>55.545898</ele>
<time>2012-07-27T13:41:23Z</time>
<speed>4.340000</speed>
<extensions>
<speed>4.3</speed>
<temp>0.00</temp>
<bpm>0</bpm>
<rpm>0.00</rpm>
</extensions>
</trkpt>
<trkpt lat="63.868686676" lon="-20.468854904">
<ele>55.548828</ele>
<time>2012-07-27T13:41:28Z</time>
<speed>4.350000</speed>
<extensions>
<speed>4.3</speed>
<temp>0.00</temp>
<bpm>0</bpm>
<rpm>0.00</rpm>
</extensions>
</trkpt>
<trkpt lat="63.868804932" lon="-20.469207764">
<ele>55.420898</ele>
<time>2012-07-27T13:41:33Z</time>
<speed>4.060000</speed>
<extensions>
<speed>4.1</speed>
<temp>0.00</temp>
<bpm>0</bpm>
<rpm>0.00</rpm>
</extensions>
</trkpt>
<trkpt lat="63.868900299" lon="-20.469503403">
<ele>54.875977</ele>
<time>2012-07-27T13:41:38Z</time>
<speed>3.890000</speed>
<extensions>
<speed>3.9</speed>
<temp>0.00</temp>
<bpm>0</bpm>
<rpm>0.00</rpm>
</extensions>
</trkpt>
<trkpt lat="63.869014740" lon="-20.469856262">
<ele>54.265625</ele>
<time>2012-07-27T13:41:43Z</time>
<speed>4.560000</speed>
<extensions>
<speed>4.6</speed>
<temp>0.00</temp>
<bpm>0</bpm>
<rpm>0.00</rpm>
</extensions>
</trkpt>
<trkpt lat="63.869125366" lon="-20.470239639">
<ele>54.492188</ele>
<time>2012-07-27T13:41:48Z</time>
<speed>4.370000</speed>
<extensions>
<speed>4.4</speed>
<temp>0.00</temp>
<bpm>0</bpm>
<rpm>0.00</rpm>
</extensions>
</trkpt>
<trkpt lat="63.869239807" lon="-20.470602036">
<ele>55.048828</ele>
<time>2012-07-27T13:41:53Z</time>
<speed>4.290000</speed>
<extensions>
<speed>4.3</speed>
<temp>0.00</temp>
<bpm>0</bpm>
<rpm>0.00</rpm>
</extensions>
</trkpt>
<trkpt lat="63.869338989" lon="-20.470935822">
<ele>55.311523</ele>
<time>2012-07-27T13:41:58Z</time>
<speed>3.460000</speed>
<extensions>
<speed>3.5</speed>
<temp>0.00</temp>
<bpm>0</bpm>
<rpm>0.00</rpm>
</extensions>
</trkpt>
<trkpt lat="63.869441986" lon="-20.471246719">
<ele>55.222656</ele>
<time>2012-07-27T13:42:03Z</time>
<speed>3.890000</speed>
<extensions>
<speed>3.9</speed>
<temp>0.00</temp>
<bpm>0</bpm>
<rpm>0.00</rpm>
</extensions>
</trkpt>
<trkpt lat="63.869548798" lon="-20.471576691">
<ele>55.234375</ele>
<time>2012-07-27T13:42:08Z</time>
<speed>3.760000</speed>
<extensions>
<speed>3.8</speed>
<temp>0.00</temp>
<bpm>0</bpm>
<rpm>0.00</rpm>
</extensions>
</trkpt>
<trkpt lat="63.869640350" lon="-20.471874237">
<ele>55.423828</ele>
<time>2012-07-27T13:42:13Z</time>
<speed>3.700000</speed>
<extensions>
<speed>3.7</speed>
<temp>0.00</temp>
<bpm>0</bpm>
<rpm>0.00</rpm>
</extensions>
</trkpt>
<trkpt lat="63.869743347" lon="-20.472187042">
<ele>55.309570</ele>
<time>2012-07-27T13:42:18Z</time>
<speed>3.640000</speed>
<extensions>
<speed>3.6</speed>
<temp>0.00</temp>
<bpm>0</bpm>
<rpm>0.00</rpm>
</extensions>
</trkpt>
<trkpt lat="63.869842529" lon="-20.472471237">
<ele>55.561523</ele>
<time>2012-07-27T13:42:23Z</time>
<speed>3.860000</speed>
<extensions>
<speed>3.9</speed>
<temp>0.00</temp>
<bpm>0</bpm>
<rpm>0.00</rpm>
</extensions>
</trkpt>
<trkpt lat="63.869941711" lon="-20.472799301">
<ele>55.883789</ele>
<time>2012-07-27T13:42:28Z</time>
<speed>4.380000</speed>
<extensions>
<speed>4.4</speed>
<temp>0.00</temp>
<bpm>0</bpm>
<rpm>0.00</rpm>
</extensions>
</trkpt>
<trkpt lat="63.870063782" lon="-20.473182678">
<ele>56.012695</ele>
<time>2012-07-27T13:42:33Z</time>
<speed>4.760000</speed>
<extensions>
<speed>4.8</speed>
<temp>0.00</temp>
<bpm>0</bpm>
<rpm>0.00</rpm>
</extensions>
</trkpt>
<trkpt lat="63.870178223" lon="-20.473552704">
<ele>56.500000</ele>
<time>2012-07-27T13:42:38Z</time>
<speed>4.630000</speed>
<extensions>
<speed>4.6</speed>
<temp>0.00</temp>
<bpm>0</bpm>
<rpm>0.00</rpm>
</extensions>
</trkpt>
<trkpt lat="63.870304108" lon="-20.473972321">
<ele>55.881836</ele>
<time>2012-07-27T13:42:43Z</time>
<speed>5.200000</speed>
<extensions>
<speed>5.2</speed>
<temp>0.00</temp>
<bpm>0</bpm>
<rpm>0.00</rpm>
</extensions>
</trkpt>
<trkpt lat="63.870437622" lon="-20.474401474">
<ele>55.345703</ele>
<time>2012-07-27T13:42:48Z</time>
<speed>5.100000</speed>
<extensions>
<speed>5.1</speed>
<temp>0.00</temp>
<bpm>0</bpm>
<rpm>0.00</rpm>
</extensions>
</trkpt>
<trkpt lat="63.870567322" lon="-20.474807739">
<ele>55.315430</ele>
<time>2012-07-27T13:42:53Z</time>
<speed>4.480000</speed>
<extensions>
<speed>4.5</speed>
<temp>0.00</temp>
<bpm>0</bpm>
<rpm>0.00</rpm>
</extensions>
</trkpt>
<trkpt lat="63.870693207" lon="-20.475214005">
<ele>54.969727</ele>
<time>2012-07-27T13:42:58Z</time>
<speed>5.260000</speed>
<extensions>
<speed>5.3</speed>
<temp>0.00</temp>
<bpm>0</bpm>
<rpm>0.00</rpm>
</extensions>
</trkpt>
<trkpt lat="63.870822906" lon="-20.475618362">
<ele>54.465820</ele>
<time>2012-07-27T13:43:03Z</time>
<speed>4.910000</speed>
<extensions>
<speed>4.9</speed>
<temp>0.00</temp>
<bpm>0</bpm>
<rpm>0.00</rpm>
</extensions>
</trkpt>
<trkpt lat="63.870971680" lon="-20.476058960">
<ele>53.687500</ele>
<time>2012-07-27T13:43:08Z</time>
<speed>5.350000</speed>
<extensions>
<speed>5.4</speed>
<temp>0.00</temp>
<bpm>0</bpm>
<rpm>0.00</rpm>
</extensions>
</trkpt>
<trkpt lat="63.871109009" lon="-20.476484299">
<ele>53.699219</ele>
<time>2012-07-27T13:43:13Z</time>
<speed>5.130000</speed>
<extensions>
<speed>5.1</speed>
<temp>0.00</temp>
<bpm>0</bpm>
<rpm>0.00</rpm>
</extensions>
</trkpt>
<trkpt lat="63.871242523" lon="-20.476911545">
<ele>53.787109</ele>
<time>2012-07-27T13:43:18Z</time>
<speed>5.070000</speed>
<extensions>
<speed>5.1</speed>
<temp>0.00</temp>
<bpm>0</bpm>
<rpm>0.00</rpm>
</extensions>
</trkpt>
<trkpt lat="63.871372223" lon="-20.477336884">
<ele>53.743164</ele>
<time>2012-07-27T13:43:23Z</time>
<speed>5.400000</speed>
<extensions>
<speed>5.4</speed>
<temp>0.00</temp>
<bpm>0</bpm>
<rpm>0.00</rpm>
</extensions>
</trkpt>
<trkpt lat="63.871509552" lon="-20.477756500">
<ele>53.407227</ele>
<time>2012-07-27T13:43:28Z</time>
<speed>5.200000</speed>
<extensions>
<speed>5.2</speed>
<temp>0.00</temp>
<bpm>0</bpm>
<rpm>0.00</rpm>
</extensions>
</trkpt>
<trkpt lat="63.871650696" lon="-20.478208542">
<ele>52.922852</ele>
<time>2012-07-27T13:43:33Z</time>
<speed>5.360000</speed>
<extensions>
<speed>5.4</speed>
<temp>0.00</temp>
<bpm>0</bpm>
<rpm>0.00</rpm>
</extensions>
</trkpt>
<trkpt lat="63.871784210" lon="-20.478645325">
<ele>52.847656</ele>
<time>2012-07-27T13:43:38Z</time>
<speed>5.340000</speed>
<extensions>
<speed>5.3</speed>
<temp>0.00</temp>
<bpm>0</bpm>
<rpm>0.00</rpm>
</extensions>
</trkpt>
<trkpt lat="63.871921539" lon="-20.479080200">
<ele>53.332031</ele>
<time>2012-07-27T13:43:43Z</time>
<speed>5.100000</speed>
<extensions>
<speed>5.1</speed>
<temp>0.00</temp>
<bpm>0</bpm>
<rpm>0.00</rpm>
</extensions>
</trkpt>
<trkpt lat="63.872047424" lon="-20.479484558">
<ele>52.822266</ele>
<time>2012-07-27T13:43:48Z</time>
<speed>4.800000</speed>
<extensions>
<speed>4.8</speed>
<temp>0.00</temp>
<bpm>0</bpm>
<rpm>0.00</rpm>
</extensions>
</trkpt>
<trkpt lat="63.872184753" lon="-20.479894638">
<ele>53.185547</ele>
<time>2012-07-27T13:43:53Z</time>
<speed>5.270000</speed>
<extensions>
<speed>5.3</speed>
<temp>0.00</temp>
<bpm>0</bpm>
<rpm>0.00</rpm>
</extensions>
</trkpt>
<trkpt lat="63.872329712" lon="-20.480348587">
<ele>52.116211</ele>
<time>2012-07-27T13:43:58Z</time>
<speed>5.390000</speed>
<extensions>
<speed>5.4</speed>
<temp>0.00</temp>
<bpm>0</bpm>
<rpm>0.00</rpm>
</extensions>
</trkpt>
<trkpt lat="63.872463226" lon="-20.480768204">
<ele>51.815430</ele>
<time>2012-07-27T13:44:03Z</time>
<speed>5.320000</speed>
<extensions>
<speed>5.3</speed>
<temp>0.00</temp>
<bpm>0</bpm>
<rpm>0.00</rpm>
</extensions>
</trkpt>
<trkpt lat="63.872589111" lon="-20.481172562">
<ele>52.431641</ele>
<time>2012-07-27T13:44:08Z</time>
<speed>4.920000</speed>
<extensions>
<speed>4.9</speed>
<temp>0.00</temp>
<bpm>0</bpm>
<rpm>0.00</rpm>
</extensions>
</trkpt>
<trkpt lat="63.872711182" lon="-20.481557846">
<ele>53.211914</ele>
<time>2012-07-27T13:44:13Z</time>
<speed>4.700000</speed>
<extensions>
<speed>4.7</speed>
<temp>0.00</temp>
<bpm>0</bpm>
<rpm>0.00</rpm>
</extensions>
</trkpt>
<trkpt lat="63.872837067" lon="-20.481946945">
<ele>53.259766</ele>
<time>2012-07-27T13:44:18Z</time>
<speed>4.800000</speed>
<extensions>
<speed>4.8</speed>
<temp>0.00</temp>
<bpm>0</bpm>
<rpm>0.00</rpm>
</extensions>
</trkpt>
<trkpt lat="63.872962952" lon="-20.482349396">
<ele>52.936523</ele>
<time>2012-07-27T13:44:23Z</time>
<speed>5.060000</speed>
<extensions>
<speed>5.1</speed>
<temp>0.00</temp>
<bpm>0</bpm>
<rpm>0.00</rpm>
</extensions>
</trkpt>
<trkpt lat="63.873088837" lon="-20.482738495">
<ele>52.754883</ele>
<time>2012-07-27T13:44:28Z</time>
<speed>4.440000</speed>
<extensions>
<speed>4.4</speed>
<temp>0.00</temp>
<bpm>0</bpm>
<rpm>0.00</rpm>
</extensions>
</trkpt>
<trkpt lat="63.873195648" lon="-20.483085632">
<ele>52.816406</ele>
<time>2012-07-27T13:44:33Z</time>
<speed>4.350000</speed>
<extensions>
<speed>4.3</speed>
<temp>0.00</temp>
<bpm>0</bpm>
<rpm>0.00</rpm>
</extensions>
</trkpt>
<trkpt lat="63.873310089" lon="-20.483428955">
<ele>52.966797</ele>
<time>2012-07-27T13:44:38Z</time>
<speed>4.050000</speed>
<extensions>
<speed>4.0</speed>
<temp>0.00</temp>
<bpm>0</bpm>
<rpm>0.00</rpm>
</extensions>
</trkpt>
<trkpt lat="63.873432159" lon="-20.483814240">
<ele>52.628906</ele>
<time>2012-07-27T13:44:43Z</time>
<speed>5.040000</speed>
<extensions>
<speed>5.0</speed>
<temp>0.00</temp>
<bpm>0</bpm>
<rpm>0.00</rpm>
</extensions>
</trkpt>
<trkpt lat="63.873558044" lon="-20.484231949">
<ele>52.706055</ele>
<time>2012-07-27T13:44:48Z</time>
<speed>4.840000</speed>
<extensions>
<speed>4.8</speed>
<temp>0.00</temp>
<bpm>0</bpm>
<rpm>0.00</rpm>
</extensions>
</trkpt>
<trkpt lat="63.873680115" lon="-20.484613419">
<ele>52.275391</ele>
<time>2012-07-27T13:44:53Z</time>
<speed>4.680000</speed>
<extensions>
<speed>4.7</speed>
<temp>0.00</temp>
<bpm>0</bpm>
<rpm>0.00</rpm>
</extensions>
</trkpt>
<trkpt lat="63.873809814" lon="-20.485027313">
<ele>52.536133</ele>
<time>2012-07-27T13:44:58Z</time>
<speed>5.230000</speed>
<extensions>
<speed>5.2</speed>
<temp>0.00</temp>
<bpm>0</bpm>
<rpm>0.00</rpm>
</extensions>
</trkpt>
<trkpt lat="63.873947144" lon="-20.485469818">
<ele>52.685547</ele>
<time>2012-07-27T13:45:03Z</time>
<speed>5.290000</speed>
<extensions>
<speed>5.3</speed>
<temp>0.00</temp>
<bpm>0</bpm>
<rpm>0.00</rpm>
</extensions>
</trkpt>
<trkpt lat="63.874076843" lon="-20.485868454">
<ele>53.114258</ele>
<time>2012-07-27T13:45:08Z</time>
<speed>4.540000</speed>
<extensions>
<speed>4.5</speed>
<temp>0.00</temp>
<bpm>0</bpm>
<rpm>0.00</rpm>
</extensions>
</trkpt>
<trkpt lat="63.874210358" lon="-20.486284256">
<ele>53.044922</ele>
<time>2012-07-27T13:45:13Z</time>
<speed>5.150000</speed>
<extensions>
<speed>5.2</speed>
<temp>0.00</temp>
<bpm>0</bpm>
<rpm>0.00</rpm>
</extensions>
</trkpt>
<trkpt lat="63.874351501" lon="-20.486728668">
<ele>53.140625</ele>
<time>2012-07-27T13:45:18Z</time>
<speed>5.490000</speed>
<extensions>
<speed>5.5</speed>
<temp>0.00</temp>
<bpm>0</bpm>
<rpm>0.00</rpm>
</extensions>
</trkpt>
<trkpt lat="63.874481201" lon="-20.487138748">
<ele>53.304688</ele>
<time>2012-07-27T13:45:23Z</time>
<speed>4.620000</speed>
<extensions>
<speed>4.6</speed>
<temp>0.00</temp>
<bpm>0</bpm>
<rpm>0.00</rpm>
</extensions>
</trkpt>
<trkpt lat="63.874607086" lon="-20.487546921">
<ele>52.510742</ele>
<time>2012-07-27T13:45:28Z</time>
<speed>5.080000</speed>
<extensions>
<speed>5.1</speed>
<temp>0.00</temp>
<bpm>0</bpm>
<rpm>0.00</rpm>
</extensions>
</trkpt>
<trkpt lat="63.874752045" lon="-20.487993240">
<ele>52.566406</ele>
<time>2012-07-27T13:45:33Z</time>
<speed>5.370000</speed>
<extensions>
<speed>5.4</speed>
<temp>0.00</temp>
<bpm>0</bpm>
<rpm>0.00</rpm>
</extensions>
</trkpt>
<trkpt lat="63.874900818" lon="-20.488468170">
<ele>52.507813</ele>
<time>2012-07-27T13:45:38Z</time>
<speed>5.780000</speed>
<extensions>
<speed>5.8</speed>
<temp>0.00</temp>
<bpm>0</bpm>
<rpm>0.00</rpm>
</extensions>
</trkpt>
<trkpt lat="63.875038147" lon="-20.488918304">
<ele>52.166992</ele>
<time>2012-07-27T13:45:43Z</time>
<speed>4.860000</speed>
<extensions>
<speed>4.9</speed>
<temp>0.00</temp>
<bpm>0</bpm>
<rpm>0.00</rpm>
</extensions>
</trkpt>
<trkpt lat="63.875167847" lon="-20.489307404">
<ele>52.608398</ele>
<time>2012-07-27T13:45:48Z</time>
<speed>5.010000</speed>
<extensions>
<speed>5.0</speed>
<temp>0.00</temp>
<bpm>0</bpm>
<rpm>0.00</rpm>
</extensions>
</trkpt>
<trkpt lat="63.875301361" lon="-20.489751816">
<ele>52.330078</ele>
<time>2012-07-27T13:45:53Z</time>
<speed>5.370000</speed>
<extensions>
<speed>5.4</speed>
<temp>0.00</temp>
<bpm>0</bpm>
<rpm>0.00</rpm>
</extensions>
</trkpt>
<trkpt lat="63.875434875" lon="-20.490184784">
<ele>52.435547</ele>
<time>2012-07-27T13:45:58Z</time>
<speed>4.780000</speed>
<extensions>
<speed>4.8</speed>
<temp>0.00</temp>
<bpm>0</bpm>
<rpm>0.00</rpm>
</extensions>
</trkpt>
<trkpt lat="63.875556946" lon="-20.490575790">
<ele>52.993164</ele>
<time>2012-07-27T13:46:03Z</time>
<speed>5.020000</speed>
<extensions>
<speed>5.0</speed>
<temp>0.00</temp>
<bpm>0</bpm>
<rpm>0.00</rpm>
</extensions>
</trkpt>
<trkpt lat="63.875694275" lon="-20.490997314">
<ele>53.169922</ele>
<time>2012-07-27T13:46:08Z</time>
<speed>4.950000</speed>
<extensions>
<speed>4.9</speed>
<temp>0.00</temp>
<bpm>0</bpm>
<rpm>0.00</rpm>
</extensions>
</trkpt>
<trkpt lat="63.875835419" lon="-20.491424561">
<ele>53.617188</ele>
<time>2012-07-27T13:46:13Z</time>
<speed>4.700000</speed>
<extensions>
<speed>4.7</speed>
<temp>0.00</temp>
<bpm>0</bpm>
<rpm>0.00</rpm>
</extensions>
</trkpt>
<trkpt lat="63.875965118" lon="-20.491821289">
<ele>53.355469</ele>
<time>2012-07-27T13:46:18Z</time>
<speed>5.080000</speed>
<extensions>
<speed>5.1</speed>
<temp>0.00</temp>
<bpm>0</bpm>
<rpm>0.00</rpm>
</extensions>
</trkpt>
<trkpt lat="63.876098633" lon="-20.492248535">
<ele>53.747070</ele>
<time>2012-07-27T13:46:23Z</time>
<speed>5.300000</speed>
<extensions>
<speed>5.3</speed>
<temp>0.00</temp>
<bpm>0</bpm>
<rpm>0.00</rpm>
</extensions>
</trkpt>
<trkpt lat="63.876243591" lon="-20.492717743">
<ele>53.715820</ele>
<time>2012-07-27T13:46:28Z</time>
<speed>5.310000</speed>
<extensions>
<speed>5.3</speed>
<temp>0.00</temp>
<bpm>0</bpm>
<rpm>0.00</rpm>
</extensions>
</trkpt>
<trkpt lat="63.876365662" lon="-20.493101120">
<ele>53.405273</ele>
<time>2012-07-27T13:46:33Z</time>
<speed>4.250000</speed>
<extensions>
<speed>4.3</speed>
<temp>0.00</temp>
<bpm>0</bpm>
<rpm>0.00</rpm>
</extensions>
</trkpt>
<trkpt lat="63.876487732" lon="-20.493482590">
<ele>53.946289</ele>
<time>2012-07-27T13:46:38Z</time>
<speed>4.990000</speed>
<extensions>
<speed>5.0</speed>
<temp>0.00</temp>
<bpm>0</bpm>
<rpm>0.00</rpm>
</extensions>
</trkpt>
<trkpt lat="63.876625061" lon="-20.493907928">
<ele>54.085938</ele>
<time>2012-07-27T13:46:43Z</time>
<speed>5.160000</speed>
<extensions>
<speed>5.2</speed>
<temp>0.00</temp>
<bpm>0</bpm>
<rpm>0.00</rpm>
</extensions>
</trkpt>
<trkpt lat="63.876762390" lon="-20.494340897">
<ele>54.465820</ele>
<time>2012-07-27T13:46:48Z</time>
<speed>4.670000</speed>
<extensions>
<speed>4.7</speed>
<temp>0.00</temp>
<bpm>0</bpm>
<rpm>0.00</rpm>
</extensions>
</trkpt>
<trkpt lat="63.876880646" lon="-20.494709015">
<ele>54.416016</ele>
<time>2012-07-27T13:46:53Z</time>
<speed>4.690000</speed>
<extensions>
<speed>4.7</speed>
<temp>0.00</temp>
<bpm>0</bpm>
<rpm>0.00</rpm>
</extensions>
</trkpt>
<trkpt lat="63.877010345" lon="-20.495107651">
<ele>54.297852</ele>
<time>2012-07-27T13:46:58Z</time>
<speed>5.070000</speed>
<extensions>
<speed>5.1</speed>
<temp>0.00</temp>
<bpm>0</bpm>
<rpm>0.00</rpm>
</extensions>
</trkpt>
<trkpt lat="63.877132416" lon="-20.495464325">
<ele>54.916016</ele>
<time>2012-07-27T13:47:03Z</time>
<speed>3.780000</speed>
<extensions>
<speed>3.8</speed>
<temp>0.00</temp>
<bpm>0</bpm>
<rpm>0.00</rpm>
</extensions>
</trkpt>
<trkpt lat="63.877220154" lon="-20.495773315">
<ele>55.062500</ele>
<time>2012-07-27T13:47:08Z</time>
<speed>3.900000</speed>
<extensions>
<speed>3.9</speed>
<temp>0.00</temp>
<bpm>0</bpm>
<rpm>0.00</rpm>
</extensions>
</trkpt>
<trkpt lat="63.877338409" lon="-20.496124268">
<ele>55.541016</ele>
<time>2012-07-27T13:47:13Z</time>
<speed>4.320000</speed>
<extensions>
<speed>4.3</speed>
<temp>0.00</temp>
<bpm>0</bpm>
<rpm>0.00</rpm>
</extensions>
</trkpt>
<trkpt lat="63.877449036" lon="-20.496490479">
<ele>55.710938</ele>
<time>2012-07-27T13:47:18Z</time>
<speed>4.700000</speed>
<extensions>
<speed>4.7</speed>
<temp>0.00</temp>
<bpm>0</bpm>
<rpm>0.00</rpm>
</extensions>
</trkpt>
<trkpt lat="63.877555847" lon="-20.496845245">
<ele>56.139648</ele>
<time>2012-07-27T13:47:23Z</time>
<speed>3.850000</speed>
<extensions>
<speed>3.8</speed>
<temp>0.00</temp>
<bpm>0</bpm>
<rpm>0.00</rpm>
</extensions>
</trkpt>
<trkpt lat="63.877674103" lon="-20.497196198">
<ele>55.866211</ele>
<time>2012-07-27T13:47:28Z</time>
<speed>4.430000</speed>
<extensions>
<speed>4.4</speed>
<temp>0.00</temp>
<bpm>0</bpm>
<rpm>0.00</rpm>
</extensions>
</trkpt>
<trkpt lat="63.877796173" lon="-20.497577667">
<ele>55.775391</ele>
<time>2012-07-27T13:47:33Z</time>
<speed>4.170000</speed>
<extensions>
<speed>4.2</speed>
<temp>0.00</temp>
<bpm>0</bpm>
<rpm>0.00</rpm>
</extensions>
</trkpt>
<trkpt lat="63.877891541" lon="-20.497886658">
<ele>56.024414</ele>
<time>2012-07-27T13:47:38Z</time>
<speed>3.860000</speed>
<extensions>
<speed>3.9</speed>
<temp>0.00</temp>
<bpm>0</bpm>
<rpm>0.00</rpm>
</extensions>
</trkpt>
<trkpt lat="63.878002167" lon="-20.498229980">
<ele>56.058594</ele>
<time>2012-07-27T13:47:43Z</time>
<speed>4.500000</speed>
<extensions>
<speed>4.5</speed>
<temp>0.00</temp>
<bpm>0</bpm>
<rpm>0.00</rpm>
</extensions>
</trkpt>
<trkpt lat="63.878131866" lon="-20.498630524">
<ele>56.372070</ele>
<time>2012-07-27T13:47:48Z</time>
<speed>5.080000</speed>
<extensions>
<speed>5.1</speed>
<temp>0.00</temp>
<bpm>0</bpm>
<rpm>0.00</rpm>
</extensions>
</trkpt>
<trkpt lat="63.878265381" lon="-20.499019623">
<ele>56.654297</ele>
<time>2012-07-27T13:47:53Z</time>
<speed>4.600000</speed>
<extensions>
<speed>4.6</speed>
<temp>0.00</temp>
<bpm>0</bpm>
<rpm>0.00</rpm>
</extensions>
</trkpt>
<trkpt lat="63.878383636" lon="-20.499410629">
<ele>57.254883</ele>
<time>2012-07-27T13:47:58Z</time>
<speed>4.850000</speed>
<extensions>
<speed>4.8</speed>
<temp>0.00</temp>
<bpm>0</bpm>
<rpm>0.00</rpm>
</extensions>
</trkpt>
<trkpt lat="63.878509521" lon="-20.499832153">
<ele>57.395508</ele>
<time>2012-07-27T13:48:03Z</time>
<speed>4.720000</speed>
<extensions>
<speed>4.7</speed>
<temp>0.00</temp>
<bpm>0</bpm>
<rpm>0.00</rpm>
</extensions>
</trkpt>
<trkpt lat="63.878616333" lon="-20.500181198">
<ele>57.677734</ele>
<time>2012-07-27T13:48:08Z</time>
<speed>4.130000</speed>
<extensions>
<speed>4.1</speed>
<temp>0.00</temp>
<bpm>0</bpm>
<rpm>0.00</rpm>
</extensions>
</trkpt>
<trkpt lat="63.878719330" lon="-20.500522614">
<ele>58.283203</ele>
<time>2012-07-27T13:48:13Z</time>
<speed>4.150000</speed>
<extensions>
<speed>4.1</speed>
<temp>0.00</temp>
<bpm>0</bpm>
<rpm>0.00</rpm>
</extensions>
</trkpt>
<trkpt lat="63.878829956" lon="-20.500854492">
<ele>57.943359</ele>
<time>2012-07-27T13:48:18Z</time>
<speed>3.740000</speed>
<extensions>
<speed>3.7</speed>
<temp>0.00</temp>
<bpm>0</bpm>
<rpm>0.00</rpm>
</extensions>
</trkpt>
<trkpt lat="63.878917694" lon="-20.501142502">
<ele>57.990234</ele>
<time>2012-07-27T13:48:23Z</time>
<speed>3.140000</speed>
<extensions>
<speed>3.1</speed>
<temp>0.00</temp>
<bpm>0</bpm>
<rpm>0.00</rpm>
</extensions>
</trkpt>
<trkpt lat="63.878997803" lon="-20.501390457">
<ele>57.689453</ele>
<time>2012-07-27T13:48:28Z</time>
<speed>2.790000</speed>
<extensions>
<speed>2.8</speed>
<temp>0.00</temp>
<bpm>0</bpm>
<rpm>0.00</rpm>
</extensions>
</trkpt>
<trkpt lat="63.879066467" lon="-20.501605988">
<ele>57.804688</ele>
<time>2012-07-27T13:48:33Z</time>
<speed>2.300000</speed>
<extensions>
<speed>2.3</speed>
<temp>0.00</temp>
<bpm>0</bpm>
<rpm>0.00</rpm>
</extensions>
</trkpt>
<trkpt lat="63.879119873" lon="-20.501768112">
<ele>58.289063</ele>
<time>2012-07-27T13:48:38Z</time>
<speed>1.740000</speed>
<extensions>
<speed>1.7</speed>
<temp>0.00</temp>
<bpm>0</bpm>
<rpm>0.00</rpm>
</extensions>
</trkpt>
<trkpt lat="63.879188538" lon="-20.501958847">
<ele>58.504883</ele>
<time>2012-07-27T13:48:43Z</time>
<speed>2.970000</speed>
<extensions>
<speed>3.0</speed>
<temp>0.00</temp>
<bpm>0</bpm>
<rpm>0.00</rpm>
</extensions>
</trkpt>
<trkpt lat="63.879261017" lon="-20.502208710">
<ele>58.269531</ele>
<time>2012-07-27T13:48:48Z</time>
<speed>2.790000</speed>
<extensions>
<speed>2.8</speed>
<temp>0.00</temp>
<bpm>0</bpm>
<rpm>0.00</rpm>
</extensions>
</trkpt>
<trkpt lat="63.879333496" lon="-20.502454758">
<ele>58.480469</ele>
<time>2012-07-27T13:48:53Z</time>
<speed>3.230000</speed>
<extensions>
<speed>3.2</speed>
<temp>0.00</temp>
<bpm>0</bpm>
<rpm>0.00</rpm>
</extensions>
</trkpt>
<trkpt lat="63.879413605" lon="-20.502708435">
<ele>58.486328</ele>
<time>2012-07-27T13:48:58Z</time>
<speed>2.800000</speed>
<extensions>
<speed>2.8</speed>
<temp>0.00</temp>
<bpm>0</bpm>
<rpm>0.00</rpm>
</extensions>
</trkpt>
<trkpt lat="63.879493713" lon="-20.502952576">
<ele>58.449219</ele>
<time>2012-07-27T13:49:03Z</time>
<speed>3.030000</speed>
<extensions>
<speed>3.0</speed>
<temp>0.00</temp>
<bpm>0</bpm>
<rpm>0.00</rpm>
</extensions>
</trkpt>
<trkpt lat="63.879592896" lon="-20.503259659">
<ele>58.183594</ele>
<time>2012-07-27T13:49:08Z</time>
<speed>4.250000</speed>
<extensions>
<speed>4.3</speed>
<temp>0.00</temp>
<bpm>0</bpm>
<rpm>0.00</rpm>
</extensions>
</trkpt>
<trkpt lat="63.879714966" lon="-20.503635406">
<ele>58.097656</ele>
<time>2012-07-27T13:49:13Z</time>
<speed>4.290000</speed>
<extensions>
<speed>4.3</speed>
<temp>0.00</temp>
<bpm>0</bpm>
<rpm>0.00</rpm>
</extensions>
</trkpt>
<trkpt lat="63.879837036" lon="-20.504026413">
<ele>57.950195</ele>
<time>2012-07-27T13:49:18Z</time>
<speed>4.890000</speed>
<extensions>
<speed>4.9</speed>
<temp>0.00</temp>
<bpm>0</bpm>
<rpm>0.00</rpm>
</extensions>
</trkpt>
<trkpt lat="63.879951477" lon="-20.504400253">
<ele>57.770508</ele>
<time>2012-07-27T13:49:23Z</time>
<speed>4.130000</speed>
<extensions>
<speed>4.1</speed>
<temp>0.00</temp>
<bpm>0</bpm>
<rpm>0.00</rpm>
</extensions>
</trkpt>
<trkpt lat="63.880081177" lon="-20.504785538">
<ele>57.964844</ele>
<time>2012-07-27T13:49:28Z</time>
<speed>5.080000</speed>
<extensions>
<speed>5.1</speed>
<temp>0.00</temp>
<bpm>0</bpm>
<rpm>0.00</rpm>
</extensions>
</trkpt>
<trkpt lat="63.880218506" lon="-20.505205154">
<ele>57.612305</ele>
<time>2012-07-27T13:49:33Z</time>
<speed>4.930000</speed>
<extensions>
<speed>4.9</speed>
<temp>0.00</temp>
<bpm>0</bpm>
<rpm>0.00</rpm>
</extensions>
</trkpt>
<trkpt lat="63.880344391" lon="-20.505601883">
<ele>56.796875</ele>
<time>2012-07-27T13:49:38Z</time>
<speed>5.100000</speed>
<extensions>
<speed>5.1</speed>
<temp>0.00</temp>
<bpm>0</bpm>
<rpm>0.00</rpm>
</extensions>
</trkpt>
<trkpt lat="63.880485535" lon="-20.506042480">
<ele>56.886719</ele>
<time>2012-07-27T13:49:43Z</time>
<speed>5.210000</speed>
<extensions>
<speed>5.2</speed>
<temp>0.00</temp>
<bpm>0</bpm>
<rpm>0.00</rpm>
</extensions>
</trkpt>
<trkpt lat="63.880615234" lon="-20.506464005">
<ele>56.333984</ele>
<time>2012-07-27T13:49:48Z</time>
<speed>4.810000</speed>
<extensions>
<speed>4.8</speed>
<temp>0.00</temp>
<bpm>0</bpm>
<rpm>0.00</rpm>
</extensions>
</trkpt>
<trkpt lat="63.880741119" lon="-20.506872177">
<ele>55.862305</ele>
<time>2012-07-27T13:49:53Z</time>
<speed>5.170000</speed>
<extensions>
<speed>5.2</speed>
<temp>0.00</temp>
<bpm>0</bpm>
<rpm>0.00</rpm>
</extensions>
</trkpt>
<trkpt lat="63.880886078" lon="-20.507341385">
<ele>54.859375</ele>
<time>2012-07-27T13:49:58Z</time>
<speed>5.920000</speed>
<extensions>
<speed>5.9</speed>
<temp>0.00</temp>
<bpm>0</bpm>
<rpm>0.00</rpm>
</extensions>
</trkpt>
<trkpt lat="63.881050110" lon="-20.507844925">
<ele>53.804688</ele>
<time>2012-07-27T13:50:03Z</time>
<speed>6.030000</speed>
<extensions>
<speed>6.0</speed>
<temp>0.00</temp>
<bpm>0</bpm>
<rpm>0.00</rpm>
</extensions>
</trkpt>
<trkpt lat="63.881202698" lon="-20.508340836">
<ele>52.941406</ele>
<time>2012-07-27T13:50:08Z</time>
<speed>5.810000</speed>
<extensions>
<speed>5.8</speed>
<temp>0.00</temp>
<bpm>0</bpm>
<rpm>0.00</rpm>
</extensions>
</trkpt>
<trkpt lat="63.881347656" lon="-20.508815765">
<ele>52.524414</ele>
<time>2012-07-27T13:50:13Z</time>
<speed>5.560000</speed>
<extensions>
<speed>5.6</speed>
<temp>0.00</temp>
<bpm>0</bpm>
<rpm>0.00</rpm>
</extensions>
</trkpt>
<trkpt lat="63.881496429" lon="-20.509279251">
<ele>51.889648</ele>
<time>2012-07-27T13:50:18Z</time>
<speed>5.870000</speed>
<extensions>
<speed>5.9</speed>
<temp>0.00</temp>
<bpm>0</bpm>
<rpm>0.00</rpm>
</extensions>
</trkpt>
<trkpt lat="63.881649017" lon="-20.509767532">
<ele>51.593750</ele>
<time>2012-07-27T13:50:23Z</time>
<speed>5.820000</speed>
<extensions>
<speed>5.8</speed>
<temp>0.00</temp>
<bpm>0</bpm>
<rpm>0.00</rpm>
</extensions>
</trkpt>
<trkpt lat="63.881801605" lon="-20.510227203">
<ele>51.080078</ele>
<time>2012-07-27T13:50:28Z</time>
<speed>5.480000</speed>
<extensions>
<speed>5.5</speed>
<temp>0.00</temp>
<bpm>0</bpm>
<rpm>0.00</rpm>
</extensions>
</trkpt>
<trkpt lat="63.881935120" lon="-20.510648727">
<ele>50.526367</ele>
<time>2012-07-27T13:50:33Z</time>
<speed>4.740000</speed>
<extensions>
<speed>4.7</speed>
<temp>0.00</temp>
<bpm>0</bpm>
<rpm>0.00</rpm>
</extensions>
</trkpt>
<trkpt lat="63.882049561" lon="-20.511009216">
<ele>50.136719</ele>
<time>2012-07-27T13:50:38Z</time>
<speed>4.010000</speed>
<extensions>
<speed>4.0</speed>
<temp>0.00</temp>
<bpm>0</bpm>
<rpm>0.00</rpm>
</extensions>
</trkpt>
<trkpt lat="63.882152557" lon="-20.511302948">
<ele>49.974609</ele>
<time>2012-07-27T13:50:43Z</time>
<speed>3.390000</speed>
<extensions>
<speed>3.4</speed>
<temp>0.00</temp>
<bpm>0</bpm>
<rpm>0.00</rpm>
</extensions>
</trkpt>
<trkpt lat="63.882228851" lon="-20.511556625">
<ele>49.776367</ele>
<time>2012-07-27T13:50:48Z</time>
<speed>2.920000</speed>
<extensions>
<speed>2.9</speed>
<temp>0.00</temp>
<bpm>0</bpm>
<rpm>0.00</rpm>
</extensions>
</trkpt>
<trkpt lat="63.882324219" lon="-20.511886597">
<ele>49.346680</ele>
<time>2012-07-27T13:50:53Z</time>
<speed>4.880000</speed>
<extensions>
<speed>4.9</speed>
<temp>0.00</temp>
<bpm>0</bpm>
<rpm>0.00</rpm>
</extensions>
</trkpt>
<trkpt lat="63.882465363" lon="-20.512350082">
<ele>49.464844</ele>
<time>2012-07-27T13:50:58Z</time>
<speed>6.040000</speed>
<extensions>
<speed>6.0</speed>
<temp>0.00</temp>
<bpm>0</bpm>
<rpm>0.00</rpm>
</extensions>
</trkpt>
<trkpt lat="63.882625580" lon="-20.512840271">
<ele>49.316406</ele>
<time>2012-07-27T13:51:03Z</time>
<speed>5.820000</speed>
<extensions>
<speed>5.8</speed>
<temp>0.00</temp>
<bpm>0</bpm>
<rpm>0.00</rpm>
</extensions>
</trkpt>
<trkpt lat="63.882781982" lon="-20.513301849">
<ele>50.060547</ele>
<time>2012-07-27T13:51:08Z</time>
<speed>5.540000</speed>
<extensions>
<speed>5.5</speed>
<temp>0.00</temp>
<bpm>0</bpm>
<rpm>0.00</rpm>
</extensions>
</trkpt>
<trkpt lat="63.882923126" lon="-20.513731003">
<ele>50.079102</ele>
<time>2012-07-27T13:51:13Z</time>
<speed>4.840000</speed>
<extensions>
<speed>4.8</speed>
<temp>0.00</temp>
<bpm>0</bpm>
<rpm>0.00</rpm>
</extensions>
</trkpt>
<trkpt lat="63.883037567" lon="-20.514112473">
<ele>49.928711</ele>
<time>2012-07-27T13:51:18Z</time>
<speed>4.140000</speed>
<extensions>
<speed>4.1</speed>
<temp>0.00</temp>
<bpm>0</bpm>
<rpm>0.00</rpm>
</extensions>
</trkpt>
<trkpt lat="63.883140564" lon="-20.514438629">
<ele>50.283203</ele>
<time>2012-07-27T13:51:23Z</time>
<speed>3.910000</speed>
<extensions>
<speed>3.9</speed>
<temp>0.00</temp>
<bpm>0</bpm>
<rpm>0.00</rpm>
</extensions>
</trkpt>
<trkpt lat="63.883243561" lon="-20.514764786">
<ele>50.432617</ele>
<time>2012-07-27T13:51:28Z</time>
<speed>3.820000</speed>
<extensions>
<speed>3.8</speed>
<temp>0.00</temp>
<bpm>0</bpm>
<rpm>0.00</rpm>
</extensions>
</trkpt>
<trkpt lat="63.883346558" lon="-20.515073776">
<ele>50.504883</ele>
<time>2012-07-27T13:51:33Z</time>
<speed>3.910000</speed>
<extensions>
<speed>3.9</speed>
<temp>0.00</temp>
<bpm>0</bpm>
<rpm>0.00</rpm>
</extensions>
</trkpt>
<trkpt lat="63.883449554" lon="-20.515399933">
<ele>50.449219</ele>
<time>2012-07-27T13:51:38Z</time>
<speed>4.010000</speed>
<extensions>
<speed>4.0</speed>
<temp>0.00</temp>
<bpm>0</bpm>
<rpm>0.00</rpm>
</extensions>
</trkpt>
<trkpt lat="63.883548737" lon="-20.515722275">
<ele>50.393555</ele>
<time>2012-07-27T13:51:43Z</time>
<speed>3.780000</speed>
<extensions>
<speed>3.8</speed>
<temp>0.00</temp>
<bpm>0</bpm>
<rpm>0.00</rpm>
</extensions>
</trkpt>
<trkpt lat="63.883647919" lon="-20.516027451">
<ele>50.752930</ele>
<time>2012-07-27T13:51:48Z</time>
<speed>3.650000</speed>
<extensions>
<speed>3.7</speed>
<temp>0.00</temp>
<bpm>0</bpm>
<rpm>0.00</rpm>
</extensions>
</trkpt>
<trkpt lat="63.883728027" lon="-20.516294479">
<ele>51.414063</ele>
<time>2012-07-27T13:51:53Z</time>
<speed>3.050000</speed>
<extensions>
<speed>3.0</speed>
<temp>0.00</temp>
<bpm>0</bpm>
<rpm>0.00</rpm>
</extensions>
</trkpt>
<trkpt lat="63.883808136" lon="-20.516538620">
<ele>51.832031</ele>
<time>2012-07-27T13:51:58Z</time>
<speed>3.320000</speed>
<extensions>
<speed>3.3</speed>
<temp>0.00</temp>
<bpm>0</bpm>
<rpm>0.00</rpm>
</extensions>
</trkpt>
<trkpt lat="63.883903503" lon="-20.516832352">
<ele>52.508789</ele>
<time>2012-07-27T13:52:03Z</time>
<speed>3.640000</speed>
<extensions>
<speed>3.6</speed>
<temp>0.00</temp>
<bpm>0</bpm>
<rpm>0.00</rpm>
</extensions>
</trkpt>
<trkpt lat="63.884002686" lon="-20.517139435">
<ele>52.584961</ele>
<time>2012-07-27T13:52:08Z</time>
<speed>3.670000</speed>
<extensions>
<speed>3.7</speed>
<temp>0.00</temp>
<bpm>0</bpm>
<rpm>0.00</rpm>
</extensions>
</trkpt>
<trkpt lat="63.884098053" lon="-20.517444611">
<ele>52.850586</ele>
<time>2012-07-27T13:52:13Z</time>
<speed>3.510000</speed>
<extensions>
<speed>3.5</speed>
<temp>0.00</temp>
<bpm>0</bpm>
<rpm>0.00</rpm>
</extensions>
</trkpt>
<trkpt lat="63.884189606" lon="-20.517736435">
<ele>53.362305</ele>
<time>2012-07-27T13:52:18Z</time>
<speed>3.510000</speed>
<extensions>
<speed>3.5</speed>
<temp>0.00</temp>
<bpm>0</bpm>
<rpm>0.00</rpm>
</extensions>
</trkpt>
<trkpt lat="63.884281158" lon="-20.518030167">
<ele>53.095703</ele>
<time>2012-07-27T13:52:23Z</time>
<speed>3.480000</speed>
<extensions>
<speed>3.5</speed>
<temp>0.00</temp>
<bpm>0</bpm>
<rpm>0.00</rpm>
</extensions>
</trkpt>
<trkpt lat="63.884372711" lon="-20.518318176">
<ele>53.638672</ele>
<time>2012-07-27T13:52:28Z</time>
<speed>3.400000</speed>
<extensions>
<speed>3.4</speed>
<temp>0.00</temp>
<bpm>0</bpm>
<rpm>0.00</rpm>
</extensions>
</trkpt>
<trkpt lat="63.884464264" lon="-20.518610001">
<ele>54.056641</ele>
<time>2012-07-27T13:52:33Z</time>
<speed>3.550000</speed>
<extensions>
<speed>3.5</speed>
<temp>0.00</temp>
<bpm>0</bpm>
<rpm>0.00</rpm>
</extensions>
</trkpt>
<trkpt lat="63.884552002" lon="-20.518890381">
<ele>54.520508</ele>
<time>2012-07-27T13:52:38Z</time>
<speed>3.050000</speed>
<extensions>
<speed>3.0</speed>
<temp>0.00</temp>
<bpm>0</bpm>
<rpm>0.00</rpm>
</extensions>
</trkpt>
<trkpt lat="63.884635925" lon="-20.519157410">
<ele>55.129883</ele>
<time>2012-07-27T13:52:43Z</time>
<speed>3.570000</speed>
<extensions>
<speed>3.6</speed>
<temp>0.00</temp>
<bpm>0</bpm>
<rpm>0.00</rpm>
</extensions>
</trkpt>
<trkpt lat="63.884735107" lon="-20.519464493">
<ele>55.718750</ele>
<time>2012-07-27T13:52:48Z</time>
<speed>4.010000</speed>
<extensions>
<speed>4.0</speed>
<temp>0.00</temp>
<bpm>0</bpm>
<rpm>0.00</rpm>
</extensions>
</trkpt>
<trkpt lat="63.884838104" lon="-20.519796371">
<ele>56.360352</ele>
<time>2012-07-27T13:52:53Z</time>
<speed>4.010000</speed>
<extensions>
<speed>4.0</speed>
<temp>0.00</temp>
<bpm>0</bpm>
<rpm>0.00</rpm>
</extensions>
</trkpt>
<trkpt lat="63.884952545" lon="-20.520164490">
<ele>56.925781</ele>
<time>2012-07-27T13:52:58Z</time>
<speed>4.680000</speed>
<extensions>
<speed>4.7</speed>
<temp>0.00</temp>
<bpm>0</bpm>
<rpm>0.00</rpm>
</extensions>
</trkpt>
<trkpt lat="63.885070801" lon="-20.520532608">
<ele>57.220703</ele>
<time>2012-07-27T13:53:03Z</time>
<speed>4.040000</speed>
<extensions>
<speed>4.0</speed>
<temp>0.00</temp>
<bpm>0</bpm>
<rpm>0.00</rpm>
</extensions>
</trkpt>
<trkpt lat="63.885181427" lon="-20.520866394">
<ele>57.972656</ele>
<time>2012-07-27T13:53:08Z</time>
<speed>4.390000</speed>
<extensions>
<speed>4.4</speed>
<temp>0.00</temp>
<bpm>0</bpm>
<rpm>0.00</rpm>
</extensions>
</trkpt>
<trkpt lat="63.885299683" lon="-20.521245956">
<ele>58.416016</ele>
<time>2012-07-27T13:53:13Z</time>
<speed>4.680000</speed>
<extensions>
<speed>4.7</speed>
<temp>0.00</temp>
<bpm>0</bpm>
<rpm>0.00</rpm>
</extensions>
</trkpt>
<trkpt lat="63.885417938" lon="-20.521615982">
<ele>58.784180</ele>
<time>2012-07-27T13:53:18Z</time>
<speed>3.640000</speed>
<extensions>
<speed>3.6</speed>
<temp>0.00</temp>
<bpm>0</bpm>
<rpm>0.00</rpm>
</extensions>
</trkpt>
<trkpt lat="63.885528564" lon="-20.521953583">
<ele>59.077148</ele>
<time>2012-07-27T13:53:23Z</time>
<speed>4.690000</speed>
<extensions>
<speed>4.7</speed>
<temp>0.00</temp>
<bpm>0</bpm>
<rpm>0.00</rpm>
</extensions>
</trkpt>
<trkpt lat="63.885646820" lon="-20.522346497">
<ele>59.375000</ele>
<time>2012-07-27T13:53:28Z</time>
<speed>4.670000</speed>
<extensions>
<speed>4.7</speed>
<temp>0.00</temp>
<bpm>0</bpm>
<rpm>0.00</rpm>
</extensions>
</trkpt>
<trkpt lat="63.885772705" lon="-20.522733688">
<ele>59.208008</ele>
<time>2012-07-27T13:53:33Z</time>
<speed>4.710000</speed>
<extensions>
<speed>4.7</speed>
<temp>0.00</temp>
<bpm>0</bpm>
<rpm>0.00</rpm>
</extensions>
</trkpt>
<trkpt lat="63.885898590" lon="-20.523132324">
<ele>59.208984</ele>
<time>2012-07-27T13:53:38Z</time>
<speed>4.950000</speed>
<extensions>
<speed>4.9</speed>
<temp>0.00</temp>
<bpm>0</bpm>
<rpm>0.00</rpm>
</extensions>
</trkpt>
<trkpt lat="63.886032104" lon="-20.523540497">
<ele>59.663086</ele>
<time>2012-07-27T13:53:43Z</time>
<speed>5.160000</speed>
<extensions>
<speed>5.2</speed>
<temp>0.00</temp>
<bpm>0</bpm>
<rpm>0.00</rpm>
</extensions>
</trkpt>
<trkpt lat="63.886161804" lon="-20.523950577">
<ele>59.220703</ele>
<time>2012-07-27T13:53:48Z</time>
<speed>4.840000</speed>
<extensions>
<speed>4.8</speed>
<temp>0.00</temp>
<bpm>0</bpm>
<rpm>0.00</rpm>
</extensions>
</trkpt>
<trkpt lat="63.886295319" lon="-20.524364471">
<ele>58.860352</ele>
<time>2012-07-27T13:53:53Z</time>
<speed>5.130000</speed>
<extensions>
<speed>5.1</speed>
<temp>0.00</temp>
<bpm>0</bpm>
<rpm>0.00</rpm>
</extensions>
</trkpt>
<trkpt lat="63.886428833" lon="-20.524770737">
<ele>60.283203</ele>
<time>2012-07-27T13:53:58Z</time>
<speed>5.080000</speed>
<extensions>
<speed>5.1</speed>
<temp>0.00</temp>
<bpm>0</bpm>
<rpm>0.00</rpm>
</extensions>
</trkpt>
<trkpt lat="63.886566162" lon="-20.525197983">
<ele>60.248047</ele>
<time>2012-07-27T13:54:03Z</time>
<speed>5.100000</speed>
<extensions>
<speed>5.1</speed>
<temp>0.00</temp>
<bpm>0</bpm>
<rpm>0.00</rpm>
</extensions>
</trkpt>
<trkpt lat="63.886695862" lon="-20.525615692">
<ele>60.659180</ele>
<time>2012-07-27T13:54:08Z</time>
<speed>4.990000</speed>
<extensions>
<speed>5.0</speed>
<temp>0.00</temp>
<bpm>0</bpm>
<rpm>0.00</rpm>
</extensions>
</trkpt>
<trkpt lat="63.886810303" lon="-20.525966644">
<ele>59.963867</ele>
<time>2012-07-27T13:54:13Z</time>
<speed>4.070000</speed>
<extensions>
<speed>4.1</speed>
<temp>0.00</temp>
<bpm>0</bpm>
<rpm>0.00</rpm>
</extensions>
</trkpt>
<trkpt lat="63.886913300" lon="-20.526321411">
<ele>60.678711</ele>
<time>2012-07-27T13:54:18Z</time>
<speed>4.530000</speed>
<extensions>
<speed>4.5</speed>
<temp>0.00</temp>
<bpm>0</bpm>
<rpm>0.00</rpm>
</extensions>
</trkpt>
<trkpt lat="63.887039185" lon="-20.526720047">
<ele>59.886719</ele>
<time>2012-07-27T13:54:23Z</time>
<speed>4.930000</speed>
<extensions>
<speed>4.9</speed>
<temp>0.00</temp>
<bpm>0</bpm>
<rpm>0.00</rpm>
</extensions>
</trkpt>
<trkpt lat="63.887172699" lon="-20.527130127">
<ele>60.279297</ele>
<time>2012-07-27T13:54:28Z</time>
<speed>5.020000</speed>
<extensions>
<speed>5.0</speed>
<temp>0.00</temp>
<bpm>0</bpm>
<rpm>0.00</rpm>
</extensions>
</trkpt>
<trkpt lat="63.887290955" lon="-20.527515411">
<ele>60.518555</ele>
<time>2012-07-27T13:54:33Z</time>
<speed>4.710000</speed>
<extensions>
<speed>4.7</speed>
<temp>0.00</temp>
<bpm>0</bpm>
<rpm>0.00</rpm>
</extensions>
</trkpt>
<trkpt lat="63.887424469" lon="-20.527927399">
<ele>60.563477</ele>
<time>2012-07-27T13:54:38Z</time>
<speed>5.160000</speed>
<extensions>
<speed>5.2</speed>
<temp>0.00</temp>
<bpm>0</bpm>
<rpm>0.00</rpm>
</extensions>
</trkpt>
<trkpt lat="63.887542725" lon="-20.528314590">
<ele>60.952148</ele>
<time>2012-07-27T13:54:43Z</time>
<speed>4.220000</speed>
<extensions>
<speed>4.2</speed>
<temp>0.00</temp>
<bpm>0</bpm>
<rpm>0.00</rpm>
</extensions>
</trkpt>
<trkpt lat="63.887649536" lon="-20.528650284">
<ele>61.953125</ele>
<time>2012-07-27T13:54:48Z</time>
<speed>4.440000</speed>
<extensions>
<speed>4.4</speed>
<temp>0.00</temp>
<bpm>0</bpm>
<rpm>0.00</rpm>
</extensions>
</trkpt>
<trkpt lat="63.887767792" lon="-20.529033661">
<ele>62.418945</ele>
<time>2012-07-27T13:54:53Z</time>
<speed>4.770000</speed>
<extensions>
<speed>4.8</speed>
<temp>0.00</temp>
<bpm>0</bpm>
<rpm>0.00</rpm>
</extensions>
</trkpt>
<trkpt lat="63.887886047" lon="-20.529434204">
<ele>61.294922</ele>
<time>2012-07-27T13:54:58Z</time>
<speed>4.470000</speed>
<extensions>
<speed>4.5</speed>
<temp>0.00</temp>
<bpm>0</bpm>
<rpm>0.00</rpm>
</extensions>
</trkpt>
<trkpt lat="63.888011932" lon="-20.529836655">
<ele>59.960938</ele>
<time>2012-07-27T13:55:03Z</time>
<speed>5.040000</speed>
<extensions>
<speed>5.0</speed>
<temp>0.00</temp>
<bpm>0</bpm>
<rpm>0.00</rpm>
</extensions>
</trkpt>
<trkpt lat="63.888153076" lon="-20.530256271">
<ele>59.145508</ele>
<time>2012-07-27T13:55:08Z</time>
<speed>5.130000</speed>
<extensions>
<speed>5.1</speed>
<temp>0.00</temp>
<bpm>0</bpm>
<rpm>0.00</rpm>
</extensions>
</trkpt>
<trkpt lat="63.888290405" lon="-20.530696869">
<ele>58.602539</ele>
<time>2012-07-27T13:55:13Z</time>
<speed>5.500000</speed>
<extensions>
<speed>5.5</speed>
<temp>0.00</temp>
<bpm>0</bpm>
<rpm>0.00</rpm>
</extensions>
</trkpt>
<trkpt lat="63.888420105" lon="-20.531133652">
<ele>58.469727</ele>
<time>2012-07-27T13:55:18Z</time>
<speed>4.630000</speed>
<extensions>
<speed>4.6</speed>
<temp>0.00</temp>
<bpm>0</bpm>
<rpm>0.00</rpm>
</extensions>
</trkpt>
<trkpt lat="63.888519287" lon="-20.531469345">
<ele>59.029297</ele>
<time>2012-07-27T13:55:23Z</time>
<speed>3.420000</speed>
<extensions>
<speed>3.4</speed>
<temp>0.00</temp>
<bpm>0</bpm>
<rpm>0.00</rpm>
</extensions>
</trkpt>
<trkpt lat="63.888591766" lon="-20.531761169">
<ele>59.432617</ele>
<time>2012-07-27T13:55:28Z</time>
<speed>3.510000</speed>
<extensions>
<speed>3.5</speed>
<temp>0.00</temp>
<bpm>0</bpm>
<rpm>0.00</rpm>
</extensions>
</trkpt>
<trkpt lat="63.888679504" lon="-20.531955719">
<ele>60.098633</ele>
<time>2012-07-27T13:55:33Z</time>
<speed>1.870000</speed>
<extensions>
<speed>1.9</speed>
<temp>0.00</temp>
<bpm>0</bpm>
<rpm>0.00</rpm>
</extensions>
</trkpt>
<trkpt lat="63.888706207" lon="-20.532020569">
<ele>60.341797</ele>
<time>2012-07-27T13:55:38Z</time>
<speed>0.010000</speed>
<extensions>
<speed>0.0</speed>
<temp>0.00</temp>
<bpm>0</bpm>
<rpm>0.00</rpm>
</extensions>
</trkpt>
<trkpt lat="63.888702393" lon="-20.532016754">
<ele>60.556641</ele>
<time>2012-07-27T13:55:43Z</time>
<extensions>
<speed>0.0</speed>
<temp>0.00</temp>
<bpm>0</bpm>
<rpm>0.00</rpm>
</extensions>
</trkpt>
<trkpt lat="63.888694763" lon="-20.532018661">
<ele>59.968750</ele>
<time>2012-07-27T13:55:48Z</time>
<speed>0.170000</speed>
<extensions>
<speed>0.2</speed>
<temp>0.00</temp>
<bpm>0</bpm>
<rpm>0.00</rpm>
</extensions>
</trkpt>
<trkpt lat="63.888690948" lon="-20.532018661">
<ele>59.844727</ele>
<time>2012-07-27T13:55:53Z</time>
<speed>0.010000</speed>
<extensions>
<speed>0.0</speed>
<temp>0.00</temp>
<bpm>0</bpm>
<rpm>0.00</rpm>
</extensions>
</trkpt>
<trkpt lat="63.888690948" lon="-20.532016754">
<ele>59.825195</ele>
<time>2012-07-27T13:55:58Z</time>
<speed>0.200000</speed>
<extensions>
<speed>0.2</speed>
<temp>0.00</temp>
<bpm>0</bpm>
<rpm>0.00</rpm>
</extensions>
</trkpt>
<trkpt lat="63.888702393" lon="-20.532016754">
<ele>60.353516</ele>
<time>2012-07-27T13:56:03Z</time>
<speed>0.110000</speed>
<extensions>
<speed>0.1</speed>
<temp>0.00</temp>
<bpm>0</bpm>
<rpm>0.00</rpm>
</extensions>
</trkpt>
<trkpt lat="63.888702393" lon="-20.532016754">
<ele>60.430664</ele>
<time>2012-07-27T13:56:08Z</time>
<speed>0.010000</speed>
<extensions>
<speed>0.0</speed>
<temp>0.00</temp>
<bpm>0</bpm>
<rpm>0.00</rpm>
</extensions>
</trkpt>
<trkpt lat="63.888710022" lon="-20.532014847">
<ele>60.791992</ele>
<time>2012-07-27T13:56:13Z</time>
<speed>0.250000</speed>
<extensions>
<speed>0.2</speed>
<temp>0.00</temp>
<bpm>0</bpm>
<rpm>0.00</rpm>
</extensions>
</trkpt>
<trkpt lat="63.888713837" lon="-20.532016754">
<ele>60.997070</ele>
<time>2012-07-27T13:56:18Z</time>
<extensions>
<speed>0.0</speed>
<temp>0.00</temp>
<bpm>0</bpm>
<rpm>0.00</rpm>
</extensions>
</trkpt>
<trkpt lat="63.888713837" lon="-20.532016754">
<ele>61.009766</ele>
<time>2012-07-27T13:56:23Z</time>
<extensions>
<speed>0.0</speed>
<temp>0.00</temp>
<bpm>0</bpm>
<rpm>0.00</rpm>
</extensions>
</trkpt>
<trkpt lat="63.888717651" lon="-20.532014847">
<ele>61.006836</ele>
<time>2012-07-27T13:56:28Z</time>
<extensions>
<speed>0.0</speed>
<temp>0.00</temp>
<bpm>0</bpm>
<rpm>0.00</rpm>
</extensions>
</trkpt>
<trkpt lat="63.888713837" lon="-20.532014847">
<ele>61.007813</ele>
<time>2012-07-27T13:56:33Z</time>
<extensions>
<speed>0.0</speed>
<temp>0.00</temp>
<bpm>0</bpm>
<rpm>0.00</rpm>
</extensions>
</trkpt>
<trkpt lat="63.888713837" lon="-20.532014847">
<ele>60.990234</ele>
<time>2012-07-27T13:56:38Z</time>
<speed>0.060000</speed>
<extensions>
<speed>0.1</speed>
<temp>0.00</temp>
<bpm>0</bpm>
<rpm>0.00</rpm>
</extensions>
</trkpt>
<trkpt lat="63.888713837" lon="-20.532014847">
<ele>60.992188</ele>
<time>2012-07-27T13:56:43Z</time>
<extensions>
<speed>0.0</speed>
<temp>0.00</temp>
<bpm>0</bpm>
<rpm>0.00</rpm>
</extensions>
</trkpt>
<trkpt lat="63.888713837" lon="-20.532014847">
<ele>60.984375</ele>
<time>2012-07-27T13:56:48Z</time>
<speed>0.010000</speed>
<extensions>
<speed>0.0</speed>
<temp>0.00</temp>
<bpm>0</bpm>
<rpm>0.00</rpm>
</extensions>
</trkpt>
<trkpt lat="63.888713837" lon="-20.532014847">
<ele>60.984375</ele>
<time>2012-07-27T13:56:53Z</time>
<speed>0.010000</speed>
<extensions>
<speed>0.0</speed>
<temp>0.00</temp>
<bpm>0</bpm>
<rpm>0.00</rpm>
</extensions>
</trkpt>
<trkpt lat="63.888713837" lon="-20.532014847">
<ele>60.978516</ele>
<time>2012-07-27T13:56:58Z</time>
<extensions>
<speed>0.0</speed>
<temp>0.00</temp>
<bpm>0</bpm>
<rpm>0.00</rpm>
</extensions>
</trkpt>
<trkpt lat="63.888713837" lon="-20.532014847">
<ele>60.973633</ele>
<time>2012-07-27T13:57:03Z</time>
<extensions>
<speed>0.0</speed>
<temp>0.00</temp>
<bpm>0</bpm>
<rpm>0.00</rpm>
</extensions>
</trkpt>
<trkpt lat="63.888713837" lon="-20.532014847">
<ele>60.972656</ele>
<time>2012-07-27T13:57:08Z</time>
<extensions>
<speed>0.0</speed>
<temp>0.00</temp>
<bpm>0</bpm>
<rpm>0.00</rpm>
</extensions>
</trkpt>
<trkpt lat="63.888713837" lon="-20.532014847">
<ele>60.975586</ele>
<time>2012-07-27T13:57:13Z</time>
<speed>0.010000</speed>
<extensions>
<speed>0.0</speed>
<temp>0.00</temp>
<bpm>0</bpm>
<rpm>0.00</rpm>
</extensions>
</trkpt>
<trkpt lat="63.888713837" lon="-20.532014847">
<ele>60.977539</ele>
<time>2012-07-27T13:57:18Z</time>
<extensions>
<speed>0.0</speed>
<temp>0.00</temp>
<bpm>0</bpm>
<rpm>0.00</rpm>
</extensions>
</trkpt>
<trkpt lat="63.888713837" lon="-20.532014847">
<ele>60.976563</ele>
<time>2012-07-27T13:57:23Z</time>
<speed>0.010000</speed>
<extensions>
<speed>0.0</speed>
<temp>0.00</temp>
<bpm>0</bpm>
<rpm>0.00</rpm>
</extensions>
</trkpt>
<trkpt lat="63.888713837" lon="-20.532014847">
<ele>60.973633</ele>
<time>2012-07-27T13:57:28Z</time>
<extensions>
<speed>0.0</speed>
<temp>0.00</temp>
<bpm>0</bpm>
<rpm>0.00</rpm>
</extensions>
</trkpt>
<trkpt lat="63.888713837" lon="-20.532014847">
<ele>60.963867</ele>
<time>2012-07-27T13:57:33Z</time>
<speed>0.020000</speed>
<extensions>
<speed>0.0</speed>
<temp>0.00</temp>
<bpm>0</bpm>
<rpm>0.00</rpm>
</extensions>
</trkpt>
<trkpt lat="63.888713837" lon="-20.532014847">
<ele>60.965820</ele>
<time>2012-07-27T13:57:38Z</time>
<speed>0.010000</speed>
<extensions>
<speed>0.0</speed>
<temp>0.00</temp>
<bpm>0</bpm>
<rpm>0.00</rpm>
</extensions>
</trkpt>
<trkpt lat="63.888713837" lon="-20.532014847">
<ele>60.964844</ele>
<time>2012-07-27T13:57:43Z</time>
<extensions>
<speed>0.0</speed>
<temp>0.00</temp>
<bpm>0</bpm>
<rpm>0.00</rpm>
</extensions>
</trkpt>
<trkpt lat="63.888713837" lon="-20.532014847">
<ele>60.969727</ele>
<time>2012-07-27T13:57:48Z</time>
<speed>0.010000</speed>
<extensions>
<speed>0.0</speed>
<temp>0.00</temp>
<bpm>0</bpm>
<rpm>0.00</rpm>
</extensions>
</trkpt>
<trkpt lat="63.888713837" lon="-20.532014847">
<ele>60.971680</ele>
<time>2012-07-27T13:57:53Z</time>
<speed>0.300000</speed>
<extensions>
<speed>0.3</speed>
<temp>0.00</temp>
<bpm>0</bpm>
<rpm>0.00</rpm>
</extensions>
</trkpt>
<trkpt lat="63.888721466" lon="-20.532018661">
<ele>60.938477</ele>
<time>2012-07-27T13:57:58Z</time>
<speed>0.600000</speed>
<extensions>
<speed>0.6</speed>
<temp>0.00</temp>
<bpm>0</bpm>
<rpm>0.00</rpm>
</extensions>
</trkpt>
<trkpt lat="63.888736725" lon="-20.531908035">
<ele>61.546875</ele>
<time>2012-07-27T13:58:03Z</time>
<speed>1.240000</speed>
<extensions>
<speed>1.2</speed>
<temp>0.00</temp>
<bpm>0</bpm>
<rpm>0.00</rpm>
</extensions>
</trkpt>
<trkpt lat="63.888763428" lon="-20.531845093">
<ele>62.678711</ele>
<time>2012-07-27T13:58:08Z</time>
<speed>0.870000</speed>
<extensions>
<speed>0.9</speed>
<temp>0.00</temp>
<bpm>0</bpm>
<rpm>0.00</rpm>
</extensions>
</trkpt>
<trkpt lat="63.888771057" lon="-20.531860352">
<ele>63.193359</ele>
<time>2012-07-27T13:58:13Z</time>
<speed>0.150000</speed>
<extensions>
<speed>0.2</speed>
<temp>0.00</temp>
<bpm>0</bpm>
<rpm>0.00</rpm>
</extensions>
</trkpt>
<trkpt lat="63.888771057" lon="-20.531866074">
<ele>63.777344</ele>
<time>2012-07-27T13:58:18Z</time>
<extensions>
<speed>0.0</speed>
<temp>0.00</temp>
<bpm>0</bpm>
<rpm>0.00</rpm>
</extensions>
</trkpt>
<trkpt lat="63.888771057" lon="-20.531866074">
<ele>63.793945</ele>
<time>2012-07-27T13:58:23Z</time>
<speed>0.010000</speed>
<extensions>
<speed>0.0</speed>
<temp>0.00</temp>
<bpm>0</bpm>
<rpm>0.00</rpm>
</extensions>
</trkpt>
<trkpt lat="63.888771057" lon="-20.531866074">
<ele>63.791016</ele>
<time>2012-07-27T13:58:28Z</time>
<extensions>
<speed>0.0</speed>
<temp>0.00</temp>
<bpm>0</bpm>
<rpm>0.00</rpm>
</extensions>
</trkpt>
<trkpt lat="63.888771057" lon="-20.531866074">
<ele>63.794922</ele>
<time>2012-07-27T13:58:33Z</time>
<extensions>
<speed>0.0</speed>
<temp>0.00</temp>
<bpm>0</bpm>
<rpm>0.00</rpm>
</extensions>
</trkpt>
<trkpt lat="63.888771057" lon="-20.531866074">
<ele>63.800781</ele>
<time>2012-07-27T13:58:38Z</time>
<extensions>
<speed>0.0</speed>
<temp>0.00</temp>
<bpm>0</bpm>
<rpm>0.00</rpm>
</extensions>
</trkpt>
<trkpt lat="63.888771057" lon="-20.531866074">
<ele>63.798828</ele>
<time>2012-07-27T13:58:43Z</time>
<extensions>
<speed>0.0</speed>
<temp>0.00</temp>
<bpm>0</bpm>
<rpm>0.00</rpm>
</extensions>
</trkpt>
<trkpt lat="63.888771057" lon="-20.531866074">
<ele>63.792969</ele>
<time>2012-07-27T13:58:48Z</time>
<extensions>
<speed>0.0</speed>
<temp>0.00</temp>
<bpm>0</bpm>
<rpm>0.00</rpm>
</extensions>
</trkpt>
<trkpt lat="63.888771057" lon="-20.531866074">
<ele>63.793945</ele>
<time>2012-07-27T13:58:53Z</time>
<extensions>
<speed>0.0</speed>
<temp>0.00</temp>
<bpm>0</bpm>
<rpm>0.00</rpm>
</extensions>
</trkpt>
<trkpt lat="63.888774872" lon="-20.531875610">
<ele>63.973633</ele>
<time>2012-07-27T13:58:58Z</time>
<speed>0.360000</speed>
<extensions>
<speed>0.4</speed>
<temp>0.00</temp>
<bpm>0</bpm>
<rpm>0.00</rpm>
</extensions>
</trkpt>
<trkpt lat="63.888774872" lon="-20.531879425">
<ele>65.078125</ele>
<time>2012-07-27T13:59:03Z</time>
<speed>0.150000</speed>
<extensions>
<speed>0.2</speed>
<temp>0.00</temp>
<bpm>0</bpm>
<rpm>0.00</rpm>
</extensions>
</trkpt>
<trkpt lat="63.888778687" lon="-20.531883240">
<ele>65.896484</ele>
<time>2012-07-27T13:59:08Z</time>
<speed>0.080000</speed>
<extensions>
<speed>0.1</speed>
<temp>0.00</temp>
<bpm>0</bpm>
<rpm>0.00</rpm>
</extensions>
</trkpt>
<trkpt lat="63.888782501" lon="-20.531885147">
<ele>66.306641</ele>
<time>2012-07-27T13:59:13Z</time>
<speed>0.020000</speed>
<extensions>
<speed>0.0</speed>
<temp>0.00</temp>
<bpm>0</bpm>
<rpm>0.00</rpm>
</extensions>
</trkpt>
<trkpt lat="63.888782501" lon="-20.531885147">
<ele>66.572266</ele>
<time>2012-07-27T13:59:18Z</time>
<speed>0.080000</speed>
<extensions>
<speed>0.1</speed>
<temp>0.00</temp>
<bpm>0</bpm>
<rpm>0.00</rpm>
</extensions>
</trkpt>
<trkpt lat="63.888782501" lon="-20.531881332">
<ele>66.714844</ele>
<time>2012-07-27T13:59:23Z</time>
<extensions>
<speed>0.0</speed>
<temp>0.00</temp>
<bpm>0</bpm>
<rpm>0.00</rpm>
</extensions>
</trkpt>
<trkpt lat="63.888782501" lon="-20.531883240">
<ele>66.714844</ele>
<time>2012-07-27T13:59:28Z</time>
<extensions>
<speed>0.0</speed>
<temp>0.00</temp>
<bpm>0</bpm>
<rpm>0.00</rpm>
</extensions>
</trkpt>
<trkpt lat="63.888782501" lon="-20.531883240">
<ele>66.708984</ele>
<time>2012-07-27T13:59:33Z</time>
<extensions>
<speed>0.0</speed>
<temp>0.00</temp>
<bpm>0</bpm>
<rpm>0.00</rpm>
</extensions>
</trkpt>
<trkpt lat="63.888782501" lon="-20.531883240">
<ele>66.707031</ele>
<time>2012-07-27T13:59:38Z</time>
<extensions>
<speed>0.0</speed>
<temp>0.00</temp>
<bpm>0</bpm>
<rpm>0.00</rpm>
</extensions>
</trkpt>
<trkpt lat="63.888782501" lon="-20.531883240">
<ele>66.703125</ele>
<time>2012-07-27T13:59:43Z</time>
<extensions>
<speed>0.0</speed>
<temp>0.00</temp>
<bpm>0</bpm>
<rpm>0.00</rpm>
</extensions>
</trkpt>
<trkpt lat="63.888782501" lon="-20.531883240">
<ele>66.689453</ele>
<time>2012-07-27T13:59:48Z</time>
<extensions>
<speed>0.0</speed>
<temp>0.00</temp>
<bpm>0</bpm>
<rpm>0.00</rpm>
</extensions>
</trkpt>
<trkpt lat="63.888782501" lon="-20.531883240">
<ele>66.679688</ele>
<time>2012-07-27T13:59:53Z</time>
<extensions>
<speed>0.0</speed>
<temp>0.00</temp>
<bpm>0</bpm>
<rpm>0.00</rpm>
</extensions>
</trkpt>
<trkpt lat="63.888782501" lon="-20.531885147">
<ele>66.671875</ele>
<time>2012-07-27T13:59:58Z</time>
<extensions>
<speed>0.0</speed>
<temp>0.00</temp>
<bpm>0</bpm>
<rpm>0.00</rpm>
</extensions>
</trkpt>
<trkpt lat="63.888782501" lon="-20.531885147">
<ele>66.667969</ele>
<time>2012-07-27T14:00:03Z</time>
<extensions>
<speed>0.0</speed>
<temp>0.00</temp>
<bpm>0</bpm>
<rpm>0.00</rpm>
</extensions>
</trkpt>
<trkpt lat="63.888782501" lon="-20.531885147">
<ele>66.662109</ele>
<time>2012-07-27T14:00:08Z</time>
<speed>0.010000</speed>
<extensions>
<speed>0.0</speed>
<temp>0.00</temp>
<bpm>0</bpm>
<rpm>0.00</rpm>
</extensions>
</trkpt>
<trkpt lat="63.888782501" lon="-20.531885147">
<ele>66.658203</ele>
<time>2012-07-27T14:00:13Z</time>
<speed>0.010000</speed>
<extensions>
<speed>0.0</speed>
<temp>0.00</temp>
<bpm>0</bpm>
<rpm>0.00</rpm>
</extensions>
</trkpt>
<trkpt lat="63.888782501" lon="-20.531885147">
<ele>66.656250</ele>
<time>2012-07-27T14:00:18Z</time>
<extensions>
<speed>0.0</speed>
<temp>0.00</temp>
<bpm>0</bpm>
<rpm>0.00</rpm>
</extensions>
</trkpt>
<trkpt lat="63.888782501" lon="-20.531887054">
<ele>66.660156</ele>
<time>2012-07-27T14:00:23Z</time>
<extensions>
<speed>0.0</speed>
<temp>0.00</temp>
<bpm>0</bpm>
<rpm>0.00</rpm>
</extensions>
</trkpt>
<trkpt lat="63.888782501" lon="-20.531887054">
<ele>66.673828</ele>
<time>2012-07-27T14:00:28Z</time>
<extensions>
<speed>0.0</speed>
<temp>0.00</temp>
<bpm>0</bpm>
<rpm>0.00</rpm>
</extensions>
</trkpt>
<trkpt lat="63.888782501" lon="-20.531887054">
<ele>66.660156</ele>
<time>2012-07-27T14:00:33Z</time>
<extensions>
<speed>0.0</speed>
<temp>0.00</temp>
<bpm>0</bpm>
<rpm>0.00</rpm>
</extensions>
</trkpt>
<trkpt lat="63.888782501" lon="-20.531887054">
<ele>66.664063</ele>
<time>2012-07-27T14:00:38Z</time>
<extensions>
<speed>0.0</speed>
<temp>0.00</temp>
<bpm>0</bpm>
<rpm>0.00</rpm>
</extensions>
</trkpt>
<trkpt lat="63.888782501" lon="-20.531888962">
<ele>66.652344</ele>
<time>2012-07-27T14:00:43Z</time>
<speed>0.020000</speed>
<extensions>
<speed>0.0</speed>
<temp>0.00</temp>
<bpm>0</bpm>
<rpm>0.00</rpm>
</extensions>
</trkpt>
<trkpt lat="63.888782501" lon="-20.531888962">
<ele>66.662109</ele>
<time>2012-07-27T14:00:48Z</time>
<extensions>
<speed>0.0</speed>
<temp>0.00</temp>
<bpm>0</bpm>
<rpm>0.00</rpm>
</extensions>
</trkpt>
<trkpt lat="63.888782501" lon="-20.531888962">
<ele>66.644531</ele>
<time>2012-07-27T14:00:53Z</time>
<speed>0.010000</speed>
<extensions>
<speed>0.0</speed>
<temp>0.00</temp>
<bpm>0</bpm>
<rpm>0.00</rpm>
</extensions>
</trkpt>
<trkpt lat="63.888782501" lon="-20.531888962">
<ele>66.642578</ele>
<time>2012-07-27T14:00:58Z</time>
<extensions>
<speed>0.0</speed>
<temp>0.00</temp>
<bpm>0</bpm>
<rpm>0.00</rpm>
</extensions>
</trkpt>
<trkpt lat="63.888782501" lon="-20.531890869">
<ele>66.650391</ele>
<time>2012-07-27T14:01:03Z</time>
<extensions>
<speed>0.0</speed>
<temp>0.00</temp>
<bpm>0</bpm>
<rpm>0.00</rpm>
</extensions>
</trkpt>
<trkpt lat="63.888782501" lon="-20.531890869">
<ele>66.662109</ele>
<time>2012-07-27T14:01:08Z</time>
<extensions>
<speed>0.0</speed>
<temp>0.00</temp>
<bpm>0</bpm>
<rpm>0.00</rpm>
</extensions>
</trkpt>
<trkpt lat="63.888782501" lon="-20.531890869">
<ele>66.660156</ele>
<time>2012-07-27T14:01:13Z</time>
<extensions>
<speed>0.0</speed>
<temp>0.00</temp>
<bpm>0</bpm>
<rpm>0.00</rpm>
</extensions>
</trkpt>
<trkpt lat="63.888782501" lon="-20.531890869">
<ele>66.642578</ele>
<time>2012-07-27T14:01:18Z</time>
<speed>0.010000</speed>
<extensions>
<speed>0.0</speed>
<temp>0.00</temp>
<bpm>0</bpm>
<rpm>0.00</rpm>
</extensions>
</trkpt>
<trkpt lat="63.888782501" lon="-20.531890869">
<ele>66.646484</ele>
<time>2012-07-27T14:01:23Z</time>
<extensions>
<speed>0.0</speed>
<temp>0.00</temp>
<bpm>0</bpm>
<rpm>0.00</rpm>
</extensions>
</trkpt>
<trkpt lat="63.888782501" lon="-20.531890869">
<ele>66.648438</ele>
<time>2012-07-27T14:01:28Z</time>
<extensions>
<speed>0.0</speed>
<temp>0.00</temp>
<bpm>0</bpm>
<rpm>0.00</rpm>
</extensions>
</trkpt>
<trkpt lat="63.888782501" lon="-20.531890869">
<ele>66.664063</ele>
<time>2012-07-27T14:01:33Z</time>
<extensions>
<speed>0.0</speed>
<temp>0.00</temp>
<bpm>0</bpm>
<rpm>0.00</rpm>
</extensions>
</trkpt>
<trkpt lat="63.888782501" lon="-20.531890869">
<ele>66.683594</ele>
<time>2012-07-27T14:01:38Z</time>
<extensions>
<speed>0.0</speed>
<temp>0.00</temp>
<bpm>0</bpm>
<rpm>0.00</rpm>
</extensions>
</trkpt>
<trkpt lat="63.888782501" lon="-20.531890869">
<ele>66.673828</ele>
<time>2012-07-27T14:01:43Z</time>
<speed>0.010000</speed>
<extensions>
<speed>0.0</speed>
<temp>0.00</temp>
<bpm>0</bpm>
<rpm>0.00</rpm>
</extensions>
</trkpt>
<trkpt lat="63.888782501" lon="-20.531892776">
<ele>66.664063</ele>
<time>2012-07-27T14:01:48Z</time>
<speed>0.010000</speed>
<extensions>
<speed>0.0</speed>
<temp>0.00</temp>
<bpm>0</bpm>
<rpm>0.00</rpm>
</extensions>
</trkpt>
<trkpt lat="63.888782501" lon="-20.531892776">
<ele>66.662109</ele>
<time>2012-07-27T14:01:53Z</time>
<speed>0.010000</speed>
<extensions>
<speed>0.0</speed>
<temp>0.00</temp>
<bpm>0</bpm>
<rpm>0.00</rpm>
</extensions>
</trkpt>
<trkpt lat="63.888782501" lon="-20.531892776">
<ele>66.605469</ele>
<time>2012-07-27T14:01:58Z</time>
<extensions>
<speed>0.0</speed>
<temp>0.00</temp>
<bpm>0</bpm>
<rpm>0.00</rpm>
</extensions>
</trkpt>
<trkpt lat="63.888782501" lon="-20.531892776">
<ele>66.556641</ele>
<time>2012-07-27T14:02:03Z</time>
<extensions>
<speed>0.0</speed>
<temp>0.00</temp>
<bpm>0</bpm>
<rpm>0.00</rpm>
</extensions>
</trkpt>
<trkpt lat="63.888782501" lon="-20.531892776">
<ele>66.527344</ele>
<time>2012-07-27T14:02:08Z</time>
<extensions>
<speed>0.0</speed>
<temp>0.00</temp>
<bpm>0</bpm>
<rpm>0.00</rpm>
</extensions>
</trkpt>
<trkpt lat="63.888782501" lon="-20.531892776">
<ele>66.494141</ele>
<time>2012-07-27T14:02:13Z</time>
<speed>0.020000</speed>
<extensions>
<speed>0.0</speed>
<temp>0.00</temp>
<bpm>0</bpm>
<rpm>0.00</rpm>
</extensions>
</trkpt>
<trkpt lat="63.888782501" lon="-20.531892776">
<ele>66.478516</ele>
<time>2012-07-27T14:02:18Z</time>
<extensions>
<speed>0.0</speed>
<temp>0.00</temp>
<bpm>0</bpm>
<rpm>0.00</rpm>
</extensions>
</trkpt>
<trkpt lat="63.888782501" lon="-20.531892776">
<ele>66.457031</ele>
<time>2012-07-27T14:02:23Z</time>
<extensions>
<speed>0.0</speed>
<temp>0.00</temp>
<bpm>0</bpm>
<rpm>0.00</rpm>
</extensions>
</trkpt>
<trkpt lat="63.888782501" lon="-20.531892776">
<ele>66.421875</ele>
<time>2012-07-27T14:02:28Z</time>
<extensions>
<speed>0.0</speed>
<temp>0.00</temp>
<bpm>0</bpm>
<rpm>0.00</rpm>
</extensions>
</trkpt>
<trkpt lat="63.888782501" lon="-20.531894684">
<ele>66.396484</ele>
<time>2012-07-27T14:02:33Z</time>
<extensions>
<speed>0.0</speed>
<temp>0.00</temp>
<bpm>0</bpm>
<rpm>0.00</rpm>
</extensions>
</trkpt>
<trkpt lat="63.888782501" lon="-20.531894684">
<ele>66.384766</ele>
<time>2012-07-27T14:02:38Z</time>
<extensions>
<speed>0.0</speed>
<temp>0.00</temp>
<bpm>0</bpm>
<rpm>0.00</rpm>
</extensions>
</trkpt>
<trkpt lat="63.888782501" lon="-20.531894684">
<ele>66.376953</ele>
<time>2012-07-27T14:02:43Z</time>
<speed>0.010000</speed>
<extensions>
<speed>0.0</speed>
<temp>0.00</temp>
<bpm>0</bpm>
<rpm>0.00</rpm>
</extensions>
</trkpt>
<trkpt lat="63.888782501" lon="-20.531894684">
<ele>66.341797</ele>
<time>2012-07-27T14:02:48Z</time>
<extensions>
<speed>0.0</speed>
<temp>0.00</temp>
<bpm>0</bpm>
<rpm>0.00</rpm>
</extensions>
</trkpt>
<trkpt lat="63.888782501" lon="-20.531894684">
<ele>66.337891</ele>
<time>2012-07-27T14:02:53Z</time>
<extensions>
<speed>0.0</speed>
<temp>0.00</temp>
<bpm>0</bpm>
<rpm>0.00</rpm>
</extensions>
</trkpt>
<trkpt lat="63.888782501" lon="-20.531894684">
<ele>66.314453</ele>
<time>2012-07-27T14:02:58Z</time>
<extensions>
<speed>0.0</speed>
<temp>0.00</temp>
<bpm>0</bpm>
<rpm>0.00</rpm>
</extensions>
</trkpt>
<trkpt lat="63.888778687" lon="-20.531894684">
<ele>66.310547</ele>
<time>2012-07-27T14:03:03Z</time>
<speed>0.010000</speed>
<extensions>
<speed>0.0</speed>
<temp>0.00</temp>
<bpm>0</bpm>
<rpm>0.00</rpm>
</extensions>
</trkpt>
<trkpt lat="63.888778687" lon="-20.531894684">
<ele>66.291016</ele>
<time>2012-07-27T14:03:08Z</time>
<speed>0.010000</speed>
<extensions>
<speed>0.0</speed>
<temp>0.00</temp>
<bpm>0</bpm>
<rpm>0.00</rpm>
</extensions>
</trkpt>
<trkpt lat="63.888778687" lon="-20.531896591">
<ele>66.251953</ele>
<time>2012-07-27T14:03:13Z</time>
<speed>0.040000</speed>
<extensions>
<speed>0.0</speed>
<temp>0.00</temp>
<bpm>0</bpm>
<rpm>0.00</rpm>
</extensions>
</trkpt>
<trkpt lat="63.888778687" lon="-20.531896591">
<ele>66.224609</ele>
<time>2012-07-27T14:03:18Z</time>
<extensions>
<speed>0.0</speed>
<temp>0.00</temp>
<bpm>0</bpm>
<rpm>0.00</rpm>
</extensions>
</trkpt>
<trkpt lat="63.888778687" lon="-20.531896591">
<ele>66.210938</ele>
<time>2012-07-27T14:03:23Z</time>
<extensions>
<speed>0.0</speed>
<temp>0.00</temp>
<bpm>0</bpm>
<rpm>0.00</rpm>
</extensions>
</trkpt>
<trkpt lat="63.888778687" lon="-20.531896591">
<ele>66.193359</ele>
<time>2012-07-27T14:03:28Z</time>
<speed>0.010000</speed>
<extensions>
<speed>0.0</speed>
<temp>0.00</temp>
<bpm>0</bpm>
<rpm>0.00</rpm>
</extensions>
</trkpt>
<trkpt lat="63.888778687" lon="-20.531896591">
<ele>66.167969</ele>
<time>2012-07-27T14:03:33Z</time>
<speed>0.010000</speed>
<extensions>
<speed>0.0</speed>
<temp>0.00</temp>
<bpm>0</bpm>
<rpm>0.00</rpm>
</extensions>
</trkpt>
<trkpt lat="63.888778687" lon="-20.531896591">
<ele>66.142578</ele>
<time>2012-07-27T14:03:38Z</time>
<speed>0.010000</speed>
<extensions>
<speed>0.0</speed>
<temp>0.00</temp>
<bpm>0</bpm>
<rpm>0.00</rpm>
</extensions>
</trkpt>
<trkpt lat="63.888778687" lon="-20.531898499">
<ele>66.115234</ele>
<time>2012-07-27T14:03:43Z</time>
<extensions>
<speed>0.0</speed>
<temp>0.00</temp>
<bpm>0</bpm>
<rpm>0.00</rpm>
</extensions>
</trkpt>
<trkpt lat="63.888778687" lon="-20.531898499">
<ele>66.080078</ele>
<time>2012-07-27T14:03:48Z</time>
<extensions>
<speed>0.0</speed>
<temp>0.00</temp>
<bpm>0</bpm>
<rpm>0.00</rpm>
</extensions>
</trkpt>
<trkpt lat="63.888778687" lon="-20.531898499">
<ele>66.048828</ele>
<time>2012-07-27T14:03:53Z</time>
<speed>0.020000</speed>
<extensions>
<speed>0.0</speed>
<temp>0.00</temp>
<bpm>0</bpm>
<rpm>0.00</rpm>
</extensions>
</trkpt>
<trkpt lat="63.888778687" lon="-20.531898499">
<ele>66.023438</ele>
<time>2012-07-27T14:03:58Z</time>
<extensions>
<speed>0.0</speed>
<temp>0.00</temp>
<bpm>0</bpm>
<rpm>0.00</rpm>
</extensions>
</trkpt>
<trkpt lat="63.888778687" lon="-20.531898499">
<ele>66.011719</ele>
<time>2012-07-27T14:04:03Z</time>
<speed>0.010000</speed>
<extensions>
<speed>0.0</speed>
<temp>0.00</temp>
<bpm>0</bpm>
<rpm>0.00</rpm>
</extensions>
</trkpt>
<trkpt lat="63.888778687" lon="-20.531900406">
<ele>65.992188</ele>
<time>2012-07-27T14:04:08Z</time>
<speed>0.020000</speed>
<extensions>
<speed>0.0</speed>
<temp>0.00</temp>
<bpm>0</bpm>
<rpm>0.00</rpm>
</extensions>
</trkpt>
<trkpt lat="63.888778687" lon="-20.531900406">
<ele>65.982422</ele>
<time>2012-07-27T14:04:13Z</time>
<speed>0.010000</speed>
<extensions>
<speed>0.0</speed>
<temp>0.00</temp>
<bpm>0</bpm>
<rpm>0.00</rpm>
</extensions>
</trkpt>
<trkpt lat="63.888778687" lon="-20.531900406">
<ele>65.960938</ele>
<time>2012-07-27T14:04:18Z</time>
<speed>0.030000</speed>
<extensions>
<speed>0.0</speed>
<temp>0.00</temp>
<bpm>0</bpm>
<rpm>0.00</rpm>
</extensions>
</trkpt>
<trkpt lat="63.888778687" lon="-20.531902313">
<ele>65.943359</ele>
<time>2012-07-27T14:04:23Z</time>
<speed>0.010000</speed>
<extensions>
<speed>0.0</speed>
<temp>0.00</temp>
<bpm>0</bpm>
<rpm>0.00</rpm>
</extensions>
</trkpt>
<trkpt lat="63.888778687" lon="-20.531902313">
<ele>65.921875</ele>
<time>2012-07-27T14:04:28Z</time>
<extensions>
<speed>0.0</speed>
<temp>0.00</temp>
<bpm>0</bpm>
<rpm>0.00</rpm>
</extensions>
</trkpt>
<trkpt lat="63.888778687" lon="-20.531902313">
<ele>65.921875</ele>
<time>2012-07-27T14:04:33Z</time>
<speed>0.010000</speed>
<extensions>
<speed>0.0</speed>
<temp>0.00</temp>
<bpm>0</bpm>
<rpm>0.00</rpm>
</extensions>
</trkpt>
<trkpt lat="63.888778687" lon="-20.531902313">
<ele>65.878906</ele>
<time>2012-07-27T14:04:38Z</time>
<extensions>
<speed>0.0</speed>
<temp>0.00</temp>
<bpm>0</bpm>
<rpm>0.00</rpm>
</extensions>
</trkpt>
<trkpt lat="63.888778687" lon="-20.531902313">
<ele>65.873047</ele>
<time>2012-07-27T14:04:43Z</time>
<extensions>
<speed>0.0</speed>
<temp>0.00</temp>
<bpm>0</bpm>
<rpm>0.00</rpm>
</extensions>
</trkpt>
<trkpt lat="63.888778687" lon="-20.531902313">
<ele>65.861328</ele>
<time>2012-07-27T14:04:48Z</time>
<extensions>
<speed>0.0</speed>
<temp>0.00</temp>
<bpm>0</bpm>
<rpm>0.00</rpm>
</extensions>
</trkpt>
<trkpt lat="63.888778687" lon="-20.531902313">
<ele>65.855469</ele>
<time>2012-07-27T14:04:53Z</time>
<extensions>
<speed>0.0</speed>
<temp>0.00</temp>
<bpm>0</bpm>
<rpm>0.00</rpm>
</extensions>
</trkpt>
<trkpt lat="63.888774872" lon="-20.531902313">
<ele>65.820313</ele>
<time>2012-07-27T14:04:58Z</time>
<speed>0.010000</speed>
<extensions>
<speed>0.0</speed>
<temp>0.00</temp>
<bpm>0</bpm>
<rpm>0.00</rpm>
</extensions>
</trkpt>
<trkpt lat="63.888774872" lon="-20.531902313">
<ele>65.812500</ele>
<time>2012-07-27T14:05:03Z</time>
<extensions>
<speed>0.0</speed>
<temp>0.00</temp>
<bpm>0</bpm>
<rpm>0.00</rpm>
</extensions>
</trkpt>
<trkpt lat="63.888774872" lon="-20.531902313">
<ele>65.777344</ele>
<time>2012-07-27T14:05:08Z</time>
<extensions>
<speed>0.0</speed>
<temp>0.00</temp>
<bpm>0</bpm>
<rpm>0.00</rpm>
</extensions>
</trkpt>
<trkpt lat="63.888774872" lon="-20.531904221">
<ele>65.757813</ele>
<time>2012-07-27T14:05:13Z</time>
<speed>0.010000</speed>
<extensions>
<speed>0.0</speed>
<temp>0.00</temp>
<bpm>0</bpm>
<rpm>0.00</rpm>
</extensions>
</trkpt>
<trkpt lat="63.888774872" lon="-20.531904221">
<ele>65.748047</ele>
<time>2012-07-27T14:05:18Z</time>
<speed>0.010000</speed>
<extensions>
<speed>0.0</speed>
<temp>0.00</temp>
<bpm>0</bpm>
<rpm>0.00</rpm>
</extensions>
</trkpt>
<trkpt lat="63.888774872" lon="-20.531904221">
<ele>65.718750</ele>
<time>2012-07-27T14:05:23Z</time>
<extensions>
<speed>0.0</speed>
<temp>0.00</temp>
<bpm>0</bpm>
<rpm>0.00</rpm>
</extensions>
</trkpt>
<trkpt lat="63.888774872" lon="-20.531904221">
<ele>65.691406</ele>
<time>2012-07-27T14:05:28Z</time>
<extensions>
<speed>0.0</speed>
<temp>0.00</temp>
<bpm>0</bpm>
<rpm>0.00</rpm>
</extensions>
</trkpt>
<trkpt lat="63.888774872" lon="-20.531904221">
<ele>65.679688</ele>
<time>2012-07-27T14:05:33Z</time>
<extensions>
<speed>0.0</speed>
<temp>0.00</temp>
<bpm>0</bpm>
<rpm>0.00</rpm>
</extensions>
</trkpt>
<trkpt lat="63.888774872" lon="-20.531904221">
<ele>65.644531</ele>
<time>2012-07-27T14:05:38Z</time>
<extensions>
<speed>0.0</speed>
<temp>0.00</temp>
<bpm>0</bpm>
<rpm>0.00</rpm>
</extensions>
</trkpt>
<trkpt lat="63.888774872" lon="-20.531904221">
<ele>65.621094</ele>
<time>2012-07-27T14:05:43Z</time>
<extensions>
<speed>0.0</speed>
<temp>0.00</temp>
<bpm>0</bpm>
<rpm>0.00</rpm>
</extensions>
</trkpt>
<trkpt lat="63.888774872" lon="-20.531904221">
<ele>65.570313</ele>
<time>2012-07-27T14:05:48Z</time>
<extensions>
<speed>0.0</speed>
<temp>0.00</temp>
<bpm>0</bpm>
<rpm>0.00</rpm>
</extensions>
</trkpt>
<trkpt lat="63.888774872" lon="-20.531904221">
<ele>65.542969</ele>
<time>2012-07-27T14:05:53Z</time>
<extensions>
<speed>0.0</speed>
<temp>0.00</temp>
<bpm>0</bpm>
<rpm>0.00</rpm>
</extensions>
</trkpt>
<trkpt lat="63.888774872" lon="-20.531904221">
<ele>65.517578</ele>
<time>2012-07-27T14:05:58Z</time>
<extensions>
<speed>0.0</speed>
<temp>0.00</temp>
<bpm>0</bpm>
<rpm>0.00</rpm>
</extensions>
</trkpt>
<trkpt lat="63.888774872" lon="-20.531904221">
<ele>65.480469</ele>
<time>2012-07-27T14:06:03Z</time>
<extensions>
<speed>0.0</speed>
<temp>0.00</temp>
<bpm>0</bpm>
<rpm>0.00</rpm>
</extensions>
</trkpt>
<trkpt lat="63.888774872" lon="-20.531904221">
<ele>65.460938</ele>
<time>2012-07-27T14:06:08Z</time>
<extensions>
<speed>0.0</speed>
<temp>0.00</temp>
<bpm>0</bpm>
<rpm>0.00</rpm>
</extensions>
</trkpt>
<trkpt lat="63.888774872" lon="-20.531904221">
<ele>65.429688</ele>
<time>2012-07-27T14:06:13Z</time>
<extensions>
<speed>0.0</speed>
<temp>0.00</temp>
<bpm>0</bpm>
<rpm>0.00</rpm>
</extensions>
</trkpt>
<trkpt lat="63.888774872" lon="-20.531904221">
<ele>65.378906</ele>
<time>2012-07-27T14:06:18Z</time>
<extensions>
<speed>0.0</speed>
<temp>0.00</temp>
<bpm>0</bpm>
<rpm>0.00</rpm>
</extensions>
</trkpt>
<trkpt lat="63.888774872" lon="-20.531906128">
<ele>65.322266</ele>
<time>2012-07-27T14:06:23Z</time>
<extensions>
<speed>0.0</speed>
<temp>0.00</temp>
<bpm>0</bpm>
<rpm>0.00</rpm>
</extensions>
</trkpt>
<trkpt lat="63.888774872" lon="-20.531906128">
<ele>65.275391</ele>
<time>2012-07-27T14:06:28Z</time>
<speed>0.010000</speed>
<extensions>
<speed>0.0</speed>
<temp>0.00</temp>
<bpm>0</bpm>
<rpm>0.00</rpm>
</extensions>
</trkpt>
<trkpt lat="63.888774872" lon="-20.531906128">
<ele>65.234375</ele>
<time>2012-07-27T14:06:33Z</time>
<extensions>
<speed>0.0</speed>
<temp>0.00</temp>
<bpm>0</bpm>
<rpm>0.00</rpm>
</extensions>
</trkpt>
<trkpt lat="63.888774872" lon="-20.531906128">
<ele>65.193359</ele>
<time>2012-07-27T14:06:38Z</time>
<extensions>
<speed>0.0</speed>
<temp>0.00</temp>
<bpm>0</bpm>
<rpm>0.00</rpm>
</extensions>
</trkpt>
<trkpt lat="63.888774872" lon="-20.531906128">
<ele>65.146484</ele>
<time>2012-07-27T14:06:43Z</time>
<extensions>
<speed>0.0</speed>
<temp>0.00</temp>
<bpm>0</bpm>
<rpm>0.00</rpm>
</extensions>
</trkpt>
<trkpt lat="63.888774872" lon="-20.531906128">
<ele>65.146484</ele>
<time>2012-07-27T14:06:48Z</time>
<speed>0.010000</speed>
<extensions>
<speed>0.0</speed>
<temp>0.00</temp>
<bpm>0</bpm>
<rpm>0.00</rpm>
</extensions>
</trkpt>
<trkpt lat="63.888774872" lon="-20.531906128">
<ele>65.123047</ele>
<time>2012-07-27T14:06:53Z</time>
<extensions>
<speed>0.0</speed>
<temp>0.00</temp>
<bpm>0</bpm>
<rpm>0.00</rpm>
</extensions>
</trkpt>
<trkpt lat="63.888774872" lon="-20.531906128">
<ele>65.099609</ele>
<time>2012-07-27T14:06:58Z</time>
<extensions>
<speed>0.0</speed>
<temp>0.00</temp>
<bpm>0</bpm>
<rpm>0.00</rpm>
</extensions>
</trkpt>
<trkpt lat="63.888774872" lon="-20.531906128">
<ele>65.068359</ele>
<time>2012-07-27T14:07:03Z</time>
<extensions>
<speed>0.0</speed>
<temp>0.00</temp>
<bpm>0</bpm>
<rpm>0.00</rpm>
</extensions>
</trkpt>
<trkpt lat="63.888774872" lon="-20.531906128">
<ele>65.046875</ele>
<time>2012-07-27T14:07:08Z</time>
<extensions>
<speed>0.0</speed>
<temp>0.00</temp>
<bpm>0</bpm>
<rpm>0.00</rpm>
</extensions>
</trkpt>
<trkpt lat="63.888774872" lon="-20.531906128">
<ele>65.017578</ele>
<time>2012-07-27T14:07:13Z</time>
<extensions>
<speed>0.0</speed>
<temp>0.00</temp>
<bpm>0</bpm>
<rpm>0.00</rpm>
</extensions>
</trkpt>
<trkpt lat="63.888774872" lon="-20.531906128">
<ele>64.984375</ele>
<time>2012-07-27T14:07:18Z</time>
<extensions>
<speed>0.0</speed>
<temp>0.00</temp>
<bpm>0</bpm>
<rpm>0.00</rpm>
</extensions>
</trkpt>
<trkpt lat="63.888774872" lon="-20.531906128">
<ele>64.925781</ele>
<time>2012-07-27T14:07:23Z</time>
<extensions>
<speed>0.0</speed>
<temp>0.00</temp>
<bpm>0</bpm>
<rpm>0.00</rpm>
</extensions>
</trkpt>
<trkpt lat="63.888774872" lon="-20.531906128">
<ele>64.898438</ele>
<time>2012-07-27T14:07:28Z</time>
<extensions>
<speed>0.0</speed>
<temp>0.00</temp>
<bpm>0</bpm>
<rpm>0.00</rpm>
</extensions>
</trkpt>
<trkpt lat="63.888774872" lon="-20.531906128">
<ele>64.894531</ele>
<time>2012-07-27T14:07:33Z</time>
<extensions>
<speed>0.0</speed>
<temp>0.00</temp>
<bpm>0</bpm>
<rpm>0.00</rpm>
</extensions>
</trkpt>
<trkpt lat="63.888771057" lon="-20.531906128">
<ele>64.871094</ele>
<time>2012-07-27T14:07:38Z</time>
<speed>0.010000</speed>
<extensions>
<speed>0.0</speed>
<temp>0.00</temp>
<bpm>0</bpm>
<rpm>0.00</rpm>
</extensions>
</trkpt>
<trkpt lat="63.888771057" lon="-20.531906128">
<ele>64.867188</ele>
<time>2012-07-27T14:07:43Z</time>
<extensions>
<speed>0.0</speed>
<temp>0.00</temp>
<bpm>0</bpm>
<rpm>0.00</rpm>
</extensions>
</trkpt>
<trkpt lat="63.888771057" lon="-20.531906128">
<ele>64.847656</ele>
<time>2012-07-27T14:07:48Z</time>
<extensions>
<speed>0.0</speed>
<temp>0.00</temp>
<bpm>0</bpm>
<rpm>0.00</rpm>
</extensions>
</trkpt>
<trkpt lat="63.888771057" lon="-20.531908035">
<ele>64.832031</ele>
<time>2012-07-27T14:07:53Z</time>
<speed>0.010000</speed>
<extensions>
<speed>0.0</speed>
<temp>0.00</temp>
<bpm>0</bpm>
<rpm>0.00</rpm>
</extensions>
</trkpt>
<trkpt lat="63.888771057" lon="-20.531908035">
<ele>64.808594</ele>
<time>2012-07-27T14:07:58Z</time>
<speed>0.010000</speed>
<extensions>
<speed>0.0</speed>
<temp>0.00</temp>
<bpm>0</bpm>
<rpm>0.00</rpm>
</extensions>
</trkpt>
<trkpt lat="63.888771057" lon="-20.531906128">
<ele>64.828125</ele>
<time>2012-07-27T14:08:03Z</time>
<extensions>
<speed>0.0</speed>
<temp>0.00</temp>
<bpm>0</bpm>
<rpm>0.00</rpm>
</extensions>
</trkpt>
<trkpt lat="63.888771057" lon="-20.531906128">
<ele>64.824219</ele>
<time>2012-07-27T14:08:08Z</time>
<extensions>
<speed>0.0</speed>
<temp>0.00</temp>
<bpm>0</bpm>
<rpm>0.00</rpm>
</extensions>
</trkpt>
<trkpt lat="63.888774872" lon="-20.531906128">
<ele>64.804688</ele>
<time>2012-07-27T14:08:13Z</time>
<speed>0.020000</speed>
<extensions>
<speed>0.0</speed>
<temp>0.00</temp>
<bpm>0</bpm>
<rpm>0.00</rpm>
</extensions>
</trkpt>
<trkpt lat="63.888774872" lon="-20.531906128">
<ele>64.796875</ele>
<time>2012-07-27T14:08:18Z</time>
<speed>0.010000</speed>
<extensions>
<speed>0.0</speed>
<temp>0.00</temp>
<bpm>0</bpm>
<rpm>0.00</rpm>
</extensions>
</trkpt>
<trkpt lat="63.888774872" lon="-20.531906128">
<ele>64.794922</ele>
<time>2012-07-27T14:08:23Z</time>
<speed>0.010000</speed>
<extensions>
<speed>0.0</speed>
<temp>0.00</temp>
<bpm>0</bpm>
<rpm>0.00</rpm>
</extensions>
</trkpt>
<trkpt lat="63.888774872" lon="-20.531906128">
<ele>64.785156</ele>
<time>2012-07-27T14:08:28Z</time>
<extensions>
<speed>0.0</speed>
<temp>0.00</temp>
<bpm>0</bpm>
<rpm>0.00</rpm>
</extensions>
</trkpt>
<trkpt lat="63.888774872" lon="-20.531906128">
<ele>64.759766</ele>
<time>2012-07-27T14:08:33Z</time>
<speed>0.010000</speed>
<extensions>
<speed>0.0</speed>
<temp>0.00</temp>
<bpm>0</bpm>
<rpm>0.00</rpm>
</extensions>
</trkpt>
<trkpt lat="63.888774872" lon="-20.531906128">
<ele>64.744141</ele>
<time>2012-07-27T14:08:38Z</time>
<speed>0.060000</speed>
<extensions>
<speed>0.1</speed>
<temp>0.00</temp>
<bpm>0</bpm>
<rpm>0.00</rpm>
</extensions>
</trkpt>
<trkpt lat="63.888774872" lon="-20.531906128">
<ele>64.718750</ele>
<time>2012-07-27T14:08:43Z</time>
<speed>0.060000</speed>
<extensions>
<speed>0.1</speed>
<temp>0.00</temp>
<bpm>0</bpm>
<rpm>0.00</rpm>
</extensions>
</trkpt>
<trkpt lat="63.888774872" lon="-20.531906128">
<ele>64.701172</ele>
<time>2012-07-27T14:08:48Z</time>
<speed>0.010000</speed>
<extensions>
<speed>0.0</speed>
<temp>0.00</temp>
<bpm>0</bpm>
<rpm>0.00</rpm>
</extensions>
</trkpt>
<trkpt lat="63.888774872" lon="-20.531906128">
<ele>64.677734</ele>
<time>2012-07-27T14:08:53Z</time>
<speed>0.010000</speed>
<extensions>
<speed>0.0</speed>
<temp>0.00</temp>
<bpm>0</bpm>
<rpm>0.00</rpm>
</extensions>
</trkpt>
<trkpt lat="63.888774872" lon="-20.531906128">
<ele>64.667969</ele>
<time>2012-07-27T14:08:58Z</time>
<extensions>
<speed>0.0</speed>
<temp>0.00</temp>
<bpm>0</bpm>
<rpm>0.00</rpm>
</extensions>
</trkpt>
<trkpt lat="63.888774872" lon="-20.531906128">
<ele>64.652344</ele>
<time>2012-07-27T14:09:03Z</time>
<extensions>
<speed>0.0</speed>
<temp>0.00</temp>
<bpm>0</bpm>
<rpm>0.00</rpm>
</extensions>
</trkpt>
<trkpt lat="63.888774872" lon="-20.531906128">
<ele>64.630859</ele>
<time>2012-07-27T14:09:08Z</time>
<extensions>
<speed>0.0</speed>
<temp>0.00</temp>
<bpm>0</bpm>
<rpm>0.00</rpm>
</extensions>
</trkpt>
<trkpt lat="63.888774872" lon="-20.531906128">
<ele>64.609375</ele>
<time>2012-07-27T14:09:13Z</time>
<speed>0.010000</speed>
<extensions>
<speed>0.0</speed>
<temp>0.00</temp>
<bpm>0</bpm>
<rpm>0.00</rpm>
</extensions>
</trkpt>
<trkpt lat="63.888774872" lon="-20.531906128">
<ele>64.603516</ele>
<time>2012-07-27T14:09:18Z</time>
<speed>0.010000</speed>
<extensions>
<speed>0.0</speed>
<temp>0.00</temp>
<bpm>0</bpm>
<rpm>0.00</rpm>
</extensions>
</trkpt>
<trkpt lat="63.888774872" lon="-20.531906128">
<ele>64.605469</ele>
<time>2012-07-27T14:09:23Z</time>
<speed>0.010000</speed>
<extensions>
<speed>0.0</speed>
<temp>0.00</temp>
<bpm>0</bpm>
<rpm>0.00</rpm>
</extensions>
</trkpt>
<trkpt lat="63.888774872" lon="-20.531906128">
<ele>64.605469</ele>
<time>2012-07-27T14:09:28Z</time>
<extensions>
<speed>0.0</speed>
<temp>0.00</temp>
<bpm>0</bpm>
<rpm>0.00</rpm>
</extensions>
</trkpt>
<trkpt lat="63.888774872" lon="-20.531906128">
<ele>64.601563</ele>
<time>2012-07-27T14:09:33Z</time>
<extensions>
<speed>0.0</speed>
<temp>0.00</temp>
<bpm>0</bpm>
<rpm>0.00</rpm>
</extensions>
</trkpt>
<trkpt lat="63.888774872" lon="-20.531908035">
<ele>64.605469</ele>
<time>2012-07-27T14:09:38Z</time>
<extensions>
<speed>0.0</speed>
<temp>0.00</temp>
<bpm>0</bpm>
<rpm>0.00</rpm>
</extensions>
</trkpt>
<trkpt lat="63.888774872" lon="-20.531908035">
<ele>64.611328</ele>
<time>2012-07-27T14:09:43Z</time>
<extensions>
<speed>0.0</speed>
<temp>0.00</temp>
<bpm>0</bpm>
<rpm>0.00</rpm>
</extensions>
</trkpt>
<trkpt lat="63.888774872" lon="-20.531908035">
<ele>64.617188</ele>
<time>2012-07-27T14:09:48Z</time>
<extensions>
<speed>0.0</speed>
<temp>0.00</temp>
<bpm>0</bpm>
<rpm>0.00</rpm>
</extensions>
</trkpt>
<trkpt lat="63.888774872" lon="-20.531908035">
<ele>64.626953</ele>
<time>2012-07-27T14:09:53Z</time>
<extensions>
<speed>0.0</speed>
<temp>0.00</temp>
<bpm>0</bpm>
<rpm>0.00</rpm>
</extensions>
</trkpt>
<trkpt lat="63.888774872" lon="-20.531908035">
<ele>64.623047</ele>
<time>2012-07-27T14:09:58Z</time>
<extensions>
<speed>0.0</speed>
<temp>0.00</temp>
<bpm>0</bpm>
<rpm>0.00</rpm>
</extensions>
</trkpt>
<trkpt lat="63.888774872" lon="-20.531908035">
<ele>64.638672</ele>
<time>2012-07-27T14:10:03Z</time>
<speed>0.010000</speed>
<extensions>
<speed>0.0</speed>
<temp>0.00</temp>
<bpm>0</bpm>
<rpm>0.00</rpm>
</extensions>
</trkpt>
<trkpt lat="63.888774872" lon="-20.531908035">
<ele>64.636719</ele>
<time>2012-07-27T14:10:08Z</time>
<speed>0.010000</speed>
<extensions>
<speed>0.0</speed>
<temp>0.00</temp>
<bpm>0</bpm>
<rpm>0.00</rpm>
</extensions>
</trkpt>
<trkpt lat="63.888774872" lon="-20.531908035">
<ele>64.642578</ele>
<time>2012-07-27T14:10:13Z</time>
<extensions>
<speed>0.0</speed>
<temp>0.00</temp>
<bpm>0</bpm>
<rpm>0.00</rpm>
</extensions>
</trkpt>
<trkpt lat="63.888774872" lon="-20.531908035">
<ele>64.652344</ele>
<time>2012-07-27T14:10:18Z</time>
<extensions>
<speed>0.0</speed>
<temp>0.00</temp>
<bpm>0</bpm>
<rpm>0.00</rpm>
</extensions>
</trkpt>
<trkpt lat="63.888774872" lon="-20.531908035">
<ele>64.660156</ele>
<time>2012-07-27T14:10:23Z</time>
<extensions>
<speed>0.0</speed>
<temp>0.00</temp>
<bpm>0</bpm>
<rpm>0.00</rpm>
</extensions>
</trkpt>
<trkpt lat="63.888774872" lon="-20.531908035">
<ele>64.667969</ele>
<time>2012-07-27T14:10:28Z</time>
<speed>0.010000</speed>
<extensions>
<speed>0.0</speed>
<temp>0.00</temp>
<bpm>0</bpm>
<rpm>0.00</rpm>
</extensions>
</trkpt>
<trkpt lat="63.888774872" lon="-20.531909943">
<ele>64.673828</ele>
<time>2012-07-27T14:10:33Z</time>
<speed>0.010000</speed>
<extensions>
<speed>0.0</speed>
<temp>0.00</temp>
<bpm>0</bpm>
<rpm>0.00</rpm>
</extensions>
</trkpt>
<trkpt lat="63.888774872" lon="-20.531909943">
<ele>64.683594</ele>
<time>2012-07-27T14:10:38Z</time>
<extensions>
<speed>0.0</speed>
<temp>0.00</temp>
<bpm>0</bpm>
<rpm>0.00</rpm>
</extensions>
</trkpt>
<trkpt lat="63.888774872" lon="-20.531909943">
<ele>64.693359</ele>
<time>2012-07-27T14:10:43Z</time>
<speed>0.010000</speed>
<extensions>
<speed>0.0</speed>
<temp>0.00</temp>
<bpm>0</bpm>
<rpm>0.00</rpm>
</extensions>
</trkpt>
<trkpt lat="63.888774872" lon="-20.531909943">
<ele>64.699219</ele>
<time>2012-07-27T14:10:48Z</time>
<extensions>
<speed>0.0</speed>
<temp>0.00</temp>
<bpm>0</bpm>
<rpm>0.00</rpm>
</extensions>
</trkpt>
<trkpt lat="63.888774872" lon="-20.531909943">
<ele>64.707031</ele>
<time>2012-07-27T14:10:53Z</time>
<extensions>
<speed>0.0</speed>
<temp>0.00</temp>
<bpm>0</bpm>
<rpm>0.00</rpm>
</extensions>
</trkpt>
<trkpt lat="63.888774872" lon="-20.531909943">
<ele>64.718750</ele>
<time>2012-07-27T14:10:58Z</time>
<extensions>
<speed>0.0</speed>
<temp>0.00</temp>
<bpm>0</bpm>
<rpm>0.00</rpm>
</extensions>
</trkpt>
<trkpt lat="63.888774872" lon="-20.531909943">
<ele>64.728516</ele>
<time>2012-07-27T14:11:03Z</time>
<extensions>
<speed>0.0</speed>
<temp>0.00</temp>
<bpm>0</bpm>
<rpm>0.00</rpm>
</extensions>
</trkpt>
<trkpt lat="63.888774872" lon="-20.531909943">
<ele>64.740234</ele>
<time>2012-07-27T14:11:08Z</time>
<speed>0.010000</speed>
<extensions>
<speed>0.0</speed>
<temp>0.00</temp>
<bpm>0</bpm>
<rpm>0.00</rpm>
</extensions>
</trkpt>
<trkpt lat="63.888774872" lon="-20.531909943">
<ele>64.748047</ele>
<time>2012-07-27T14:11:13Z</time>
<extensions>
<speed>0.0</speed>
<temp>0.00</temp>
<bpm>0</bpm>
<rpm>0.00</rpm>
</extensions>
</trkpt>
<trkpt lat="63.888774872" lon="-20.531909943">
<ele>64.757813</ele>
<time>2012-07-27T14:11:18Z</time>
<speed>0.010000</speed>
<extensions>
<speed>0.0</speed>
<temp>0.00</temp>
<bpm>0</bpm>
<rpm>0.00</rpm>
</extensions>
</trkpt>
<trkpt lat="63.888774872" lon="-20.531909943">
<ele>64.769531</ele>
<time>2012-07-27T14:11:23Z</time>
<extensions>
<speed>0.0</speed>
<temp>0.00</temp>
<bpm>0</bpm>
<rpm>0.00</rpm>
</extensions>
</trkpt>
<trkpt lat="63.888774872" lon="-20.531911850">
<ele>64.773438</ele>
<time>2012-07-27T14:11:28Z</time>
<extensions>
<speed>0.0</speed>
<temp>0.00</temp>
<bpm>0</bpm>
<rpm>0.00</rpm>
</extensions>
</trkpt>
<trkpt lat="63.888774872" lon="-20.531911850">
<ele>64.779297</ele>
<time>2012-07-27T14:11:33Z</time>
<speed>0.010000</speed>
<extensions>
<speed>0.0</speed>
<temp>0.00</temp>
<bpm>0</bpm>
<rpm>0.00</rpm>
</extensions>
</trkpt>
<trkpt lat="63.888774872" lon="-20.531911850">
<ele>64.789063</ele>
<time>2012-07-27T14:11:38Z</time>
<extensions>
<speed>0.0</speed>
<temp>0.00</temp>
<bpm>0</bpm>
<rpm>0.00</rpm>
</extensions>
</trkpt>
<trkpt lat="63.888774872" lon="-20.531911850">
<ele>64.798828</ele>
<time>2012-07-27T14:11:43Z</time>
<speed>0.010000</speed>
<extensions>
<speed>0.0</speed>
<temp>0.00</temp>
<bpm>0</bpm>
<rpm>0.00</rpm>
</extensions>
</trkpt>
<trkpt lat="63.888774872" lon="-20.531911850">
<ele>64.806641</ele>
<time>2012-07-27T14:11:48Z</time>
<extensions>
<speed>0.0</speed>
<temp>0.00</temp>
<bpm>0</bpm>
<rpm>0.00</rpm>
</extensions>
</trkpt>
<trkpt lat="63.888774872" lon="-20.531911850">
<ele>64.810547</ele>
<time>2012-07-27T14:11:53Z</time>
<speed>0.010000</speed>
<extensions>
<speed>0.0</speed>
<temp>0.00</temp>
<bpm>0</bpm>
<rpm>0.00</rpm>
</extensions>
</trkpt>
<trkpt lat="63.888774872" lon="-20.531911850">
<ele>64.816406</ele>
<time>2012-07-27T14:11:58Z</time>
<extensions>
<speed>0.0</speed>
<temp>0.00</temp>
<bpm>0</bpm>
<rpm>0.00</rpm>
</extensions>
</trkpt>
<trkpt lat="63.888774872" lon="-20.531911850">
<ele>64.822266</ele>
<time>2012-07-27T14:12:03Z</time>
<extensions>
<speed>0.0</speed>
<temp>0.00</temp>
<bpm>0</bpm>
<rpm>0.00</rpm>
</extensions>
</trkpt>
<trkpt lat="63.888774872" lon="-20.531911850">
<ele>64.826172</ele>
<time>2012-07-27T14:12:08Z</time>
<extensions>
<speed>0.0</speed>
<temp>0.00</temp>
<bpm>0</bpm>
<rpm>0.00</rpm>
</extensions>
</trkpt>
<trkpt lat="63.888774872" lon="-20.531911850">
<ele>64.833984</ele>
<time>2012-07-27T14:12:13Z</time>
<extensions>
<speed>0.0</speed>
<temp>0.00</temp>
<bpm>0</bpm>
<rpm>0.00</rpm>
</extensions>
</trkpt>
<trkpt lat="63.888774872" lon="-20.531911850">
<ele>64.833984</ele>
<time>2012-07-27T14:12:18Z</time>
<extensions>
<speed>0.0</speed>
<temp>0.00</temp>
<bpm>0</bpm>
<rpm>0.00</rpm>
</extensions>
</trkpt>
<trkpt lat="63.888774872" lon="-20.531913757">
<ele>64.839844</ele>
<time>2012-07-27T14:12:23Z</time>
<speed>0.010000</speed>
<extensions>
<speed>0.0</speed>
<temp>0.00</temp>
<bpm>0</bpm>
<rpm>0.00</rpm>
</extensions>
</trkpt>
<trkpt lat="63.888774872" lon="-20.531913757">
<ele>64.851563</ele>
<time>2012-07-27T14:12:28Z</time>
<extensions>
<speed>0.0</speed>
<temp>0.00</temp>
<bpm>0</bpm>
<rpm>0.00</rpm>
</extensions>
</trkpt>
<trkpt lat="63.888774872" lon="-20.531913757">
<ele>64.851563</ele>
<time>2012-07-27T14:12:33Z</time>
<speed>0.010000</speed>
<extensions>
<speed>0.0</speed>
<temp>0.00</temp>
<bpm>0</bpm>
<rpm>0.00</rpm>
</extensions>
</trkpt>
<trkpt lat="63.888774872" lon="-20.531913757">
<ele>64.853516</ele>
<time>2012-07-27T14:12:38Z</time>
<extensions>
<speed>0.0</speed>
<temp>0.00</temp>
<bpm>0</bpm>
<rpm>0.00</rpm>
</extensions>
</trkpt>
<trkpt lat="63.888774872" lon="-20.531913757">
<ele>64.853516</ele>
<time>2012-07-27T14:12:43Z</time>
<extensions>
<speed>0.0</speed>
<temp>0.00</temp>
<bpm>0</bpm>
<rpm>0.00</rpm>
</extensions>
</trkpt>
<trkpt lat="63.888774872" lon="-20.531913757">
<ele>64.859375</ele>
<time>2012-07-27T14:12:48Z</time>
<extensions>
<speed>0.0</speed>
<temp>0.00</temp>
<bpm>0</bpm>
<rpm>0.00</rpm>
</extensions>
</trkpt>
<trkpt lat="63.888774872" lon="-20.531913757">
<ele>64.863281</ele>
<time>2012-07-27T14:12:53Z</time>
<speed>0.010000</speed>
<extensions>
<speed>0.0</speed>
<temp>0.00</temp>
<bpm>0</bpm>
<rpm>0.00</rpm>
</extensions>
</trkpt>
<trkpt lat="63.888774872" lon="-20.531913757">
<ele>64.865234</ele>
<time>2012-07-27T14:12:58Z</time>
<speed>0.010000</speed>
<extensions>
<speed>0.0</speed>
<temp>0.00</temp>
<bpm>0</bpm>
<rpm>0.00</rpm>
</extensions>
</trkpt>
<trkpt lat="63.888774872" lon="-20.531913757">
<ele>64.871094</ele>
<time>2012-07-27T14:13:03Z</time>
<extensions>
<speed>0.0</speed>
<temp>0.00</temp>
<bpm>0</bpm>
<rpm>0.00</rpm>
</extensions>
</trkpt>
<trkpt lat="63.888774872" lon="-20.531913757">
<ele>64.873047</ele>
<time>2012-07-27T14:13:08Z</time>
<extensions>
<speed>0.0</speed>
<temp>0.00</temp>
<bpm>0</bpm>
<rpm>0.00</rpm>
</extensions>
</trkpt>
<trkpt lat="63.888774872" lon="-20.531913757">
<ele>64.878906</ele>
<time>2012-07-27T14:13:13Z</time>
<speed>0.010000</speed>
<extensions>
<speed>0.0</speed>
<temp>0.00</temp>
<bpm>0</bpm>
<rpm>0.00</rpm>
</extensions>
</trkpt>
<trkpt lat="63.888774872" lon="-20.531913757">
<ele>64.876953</ele>
<time>2012-07-27T14:13:18Z</time>
<extensions>
<speed>0.0</speed>
<temp>0.00</temp>
<bpm>0</bpm>
<rpm>0.00</rpm>
</extensions>
</trkpt>
<trkpt lat="63.888774872" lon="-20.531913757">
<ele>64.884766</ele>
<time>2012-07-27T14:13:23Z</time>
<extensions>
<speed>0.0</speed>
<temp>0.00</temp>
<bpm>0</bpm>
<rpm>0.00</rpm>
</extensions>
</trkpt>
<trkpt lat="63.888774872" lon="-20.531913757">
<ele>64.892578</ele>
<time>2012-07-27T14:13:28Z</time>
<speed>0.010000</speed>
<extensions>
<speed>0.0</speed>
<temp>0.00</temp>
<bpm>0</bpm>
<rpm>0.00</rpm>
</extensions>
</trkpt>
<trkpt lat="63.888774872" lon="-20.531913757">
<ele>64.894531</ele>
<time>2012-07-27T14:13:33Z</time>
<speed>0.010000</speed>
<extensions>
<speed>0.0</speed>
<temp>0.00</temp>
<bpm>0</bpm>
<rpm>0.00</rpm>
</extensions>
</trkpt>
<trkpt lat="63.888774872" lon="-20.531913757">
<ele>64.892578</ele>
<time>2012-07-27T14:13:38Z</time>
<speed>0.010000</speed>
<extensions>
<speed>0.0</speed>
<temp>0.00</temp>
<bpm>0</bpm>
<rpm>0.00</rpm>
</extensions>
</trkpt>
<trkpt lat="63.888774872" lon="-20.531915665">
<ele>64.904297</ele>
<time>2012-07-27T14:13:43Z</time>
<speed>0.020000</speed>
<extensions>
<speed>0.0</speed>
<temp>0.00</temp>
<bpm>0</bpm>
<rpm>0.00</rpm>
</extensions>
</trkpt>
<trkpt lat="63.888774872" lon="-20.531915665">
<ele>64.902344</ele>
<time>2012-07-27T14:13:48Z</time>
<extensions>
<speed>0.0</speed>
<temp>0.00</temp>
<bpm>0</bpm>
<rpm>0.00</rpm>
</extensions>
</trkpt>
<trkpt lat="63.888774872" lon="-20.531915665">
<ele>64.900391</ele>
<time>2012-07-27T14:13:53Z</time>
<extensions>
<speed>0.0</speed>
<temp>0.00</temp>
<bpm>0</bpm>
<rpm>0.00</rpm>
</extensions>
</trkpt>
<trkpt lat="63.888774872" lon="-20.531915665">
<ele>64.906250</ele>
<time>2012-07-27T14:13:58Z</time>
<extensions>
<speed>0.0</speed>
<temp>0.00</temp>
<bpm>0</bpm>
<rpm>0.00</rpm>
</extensions>
</trkpt>
<trkpt lat="63.888774872" lon="-20.531915665">
<ele>64.917969</ele>
<time>2012-07-27T14:14:03Z</time>
<speed>0.010000</speed>
<extensions>
<speed>0.0</speed>
<temp>0.00</temp>
<bpm>0</bpm>
<rpm>0.00</rpm>
</extensions>
</trkpt>
<trkpt lat="63.888774872" lon="-20.531915665">
<ele>64.923828</ele>
<time>2012-07-27T14:14:08Z</time>
<speed>0.010000</speed>
<extensions>
<speed>0.0</speed>
<temp>0.00</temp>
<bpm>0</bpm>
<rpm>0.00</rpm>
</extensions>
</trkpt>
<trkpt lat="63.888774872" lon="-20.531915665">
<ele>64.933594</ele>
<time>2012-07-27T14:14:13Z</time>
<speed>0.010000</speed>
<extensions>
<speed>0.0</speed>
<temp>0.00</temp>
<bpm>0</bpm>
<rpm>0.00</rpm>
</extensions>
</trkpt>
<trkpt lat="63.888774872" lon="-20.531915665">
<ele>64.941406</ele>
<time>2012-07-27T14:14:18Z</time>
<extensions>
<speed>0.0</speed>
<temp>0.00</temp>
<bpm>0</bpm>
<rpm>0.00</rpm>
</extensions>
</trkpt>
<trkpt lat="63.888774872" lon="-20.531915665">
<ele>64.947266</ele>
<time>2012-07-27T14:14:23Z</time>
<extensions>
<speed>0.0</speed>
<temp>0.00</temp>
<bpm>0</bpm>
<rpm>0.00</rpm>
</extensions>
</trkpt>
<trkpt lat="63.888778687" lon="-20.531915665">
<ele>64.945313</ele>
<time>2012-07-27T14:14:28Z</time>
<extensions>
<speed>0.0</speed>
<temp>0.00</temp>
<bpm>0</bpm>
<rpm>0.00</rpm>
</extensions>
</trkpt>
<trkpt lat="63.888778687" lon="-20.531915665">
<ele>64.949219</ele>
<time>2012-07-27T14:14:33Z</time>
<speed>0.010000</speed>
<extensions>
<speed>0.0</speed>
<temp>0.00</temp>
<bpm>0</bpm>
<rpm>0.00</rpm>
</extensions>
</trkpt>
<trkpt lat="63.888778687" lon="-20.531915665">
<ele>64.953125</ele>
<time>2012-07-27T14:14:38Z</time>
<speed>0.010000</speed>
<extensions>
<speed>0.0</speed>
<temp>0.00</temp>
<bpm>0</bpm>
<rpm>0.00</rpm>
</extensions>
</trkpt>
<trkpt lat="63.888778687" lon="-20.531915665">
<ele>64.955078</ele>
<time>2012-07-27T14:14:43Z</time>
<extensions>
<speed>0.0</speed>
<temp>0.00</temp>
<bpm>0</bpm>
<rpm>0.00</rpm>
</extensions>
</trkpt>
<trkpt lat="63.888778687" lon="-20.531915665">
<ele>64.962891</ele>
<time>2012-07-27T14:14:48Z</time>
<extensions>
<speed>0.0</speed>
<temp>0.00</temp>
<bpm>0</bpm>
<rpm>0.00</rpm>
</extensions>
</trkpt>
<trkpt lat="63.888778687" lon="-20.531915665">
<ele>64.966797</ele>
<time>2012-07-27T14:14:53Z</time>
<extensions>
<speed>0.0</speed>
<temp>0.00</temp>
<bpm>0</bpm>
<rpm>0.00</rpm>
</extensions>
</trkpt>
<trkpt lat="63.888778687" lon="-20.531915665">
<ele>64.972656</ele>
<time>2012-07-27T14:14:58Z</time>
<extensions>
<speed>0.0</speed>
<temp>0.00</temp>
<bpm>0</bpm>
<rpm>0.00</rpm>
</extensions>
</trkpt>
<trkpt lat="63.888778687" lon="-20.531915665">
<ele>64.972656</ele>
<time>2012-07-27T14:15:03Z</time>
<extensions>
<speed>0.0</speed>
<temp>0.00</temp>
<bpm>0</bpm>
<rpm>0.00</rpm>
</extensions>
</trkpt>
<trkpt lat="63.888778687" lon="-20.531917572">
<ele>64.980469</ele>
<time>2012-07-27T14:15:08Z</time>
<extensions>
<speed>0.0</speed>
<temp>0.00</temp>
<bpm>0</bpm>
<rpm>0.00</rpm>
</extensions>
</trkpt>
<trkpt lat="63.888778687" lon="-20.531917572">
<ele>64.986328</ele>
<time>2012-07-27T14:15:13Z</time>
<extensions>
<speed>0.0</speed>
<temp>0.00</temp>
<bpm>0</bpm>
<rpm>0.00</rpm>
</extensions>
</trkpt>
<trkpt lat="63.888778687" lon="-20.531917572">
<ele>64.994141</ele>
<time>2012-07-27T14:15:18Z</time>
<extensions>
<speed>0.0</speed>
<temp>0.00</temp>
<bpm>0</bpm>
<rpm>0.00</rpm>
</extensions>
</trkpt>
<trkpt lat="63.888778687" lon="-20.531917572">
<ele>65.000000</ele>
<time>2012-07-27T14:15:23Z</time>
<extensions>
<speed>0.0</speed>
<temp>0.00</temp>
<bpm>0</bpm>
<rpm>0.00</rpm>
</extensions>
</trkpt>
<trkpt lat="63.888778687" lon="-20.531917572">
<ele>65.009766</ele>
<time>2012-07-27T14:15:28Z</time>
<extensions>
<speed>0.0</speed>
<temp>0.00</temp>
<bpm>0</bpm>
<rpm>0.00</rpm>
</extensions>
</trkpt>
<trkpt lat="63.888778687" lon="-20.531917572">
<ele>65.023438</ele>
<time>2012-07-27T14:15:33Z</time>
<speed>0.010000</speed>
<extensions>
<speed>0.0</speed>
<temp>0.00</temp>
<bpm>0</bpm>
<rpm>0.00</rpm>
</extensions>
</trkpt>
<trkpt lat="63.888778687" lon="-20.531917572">
<ele>65.019531</ele>
<time>2012-07-27T14:15:38Z</time>
<extensions>
<speed>0.0</speed>
<temp>0.00</temp>
<bpm>0</bpm>
<rpm>0.00</rpm>
</extensions>
</trkpt>
<trkpt lat="63.888778687" lon="-20.531917572">
<ele>65.023438</ele>
<time>2012-07-27T14:15:43Z</time>
<speed>0.010000</speed>
<extensions>
<speed>0.0</speed>
<temp>0.00</temp>
<bpm>0</bpm>
<rpm>0.00</rpm>
</extensions>
</trkpt>
<trkpt lat="63.888778687" lon="-20.531917572">
<ele>65.044922</ele>
<time>2012-07-27T14:15:48Z</time>
<speed>0.010000</speed>
<extensions>
<speed>0.0</speed>
<temp>0.00</temp>
<bpm>0</bpm>
<rpm>0.00</rpm>
</extensions>
</trkpt>
<trkpt lat="63.888778687" lon="-20.531917572">
<ele>65.058594</ele>
<time>2012-07-27T14:15:53Z</time>
<extensions>
<speed>0.0</speed>
<temp>0.00</temp>
<bpm>0</bpm>
<rpm>0.00</rpm>
</extensions>
</trkpt>
<trkpt lat="63.888778687" lon="-20.531917572">
<ele>65.060547</ele>
<time>2012-07-27T14:15:58Z</time>
<extensions>
<speed>0.0</speed>
<temp>0.00</temp>
<bpm>0</bpm>
<rpm>0.00</rpm>
</extensions>
</trkpt>
<trkpt lat="63.888778687" lon="-20.531917572">
<ele>65.070313</ele>
<time>2012-07-27T14:16:03Z</time>
<extensions>
<speed>0.0</speed>
<temp>0.00</temp>
<bpm>0</bpm>
<rpm>0.00</rpm>
</extensions>
</trkpt>
<trkpt lat="63.888778687" lon="-20.531917572">
<ele>65.087891</ele>
<time>2012-07-27T14:16:08Z</time>
<extensions>
<speed>0.0</speed>
<temp>0.00</temp>
<bpm>0</bpm>
<rpm>0.00</rpm>
</extensions>
</trkpt>
<trkpt lat="63.888778687" lon="-20.531917572">
<ele>65.099609</ele>
<time>2012-07-27T14:16:13Z</time>
<speed>0.010000</speed>
<extensions>
<speed>0.0</speed>
<temp>0.00</temp>
<bpm>0</bpm>
<rpm>0.00</rpm>
</extensions>
</trkpt>
<trkpt lat="63.888778687" lon="-20.531917572">
<ele>65.095703</ele>
<time>2012-07-27T14:16:18Z</time>
<speed>0.010000</speed>
<extensions>
<speed>0.0</speed>
<temp>0.00</temp>
<bpm>0</bpm>
<rpm>0.00</rpm>
</extensions>
</trkpt>
<trkpt lat="63.888778687" lon="-20.531917572">
<ele>65.101563</ele>
<time>2012-07-27T14:16:23Z</time>
<speed>0.010000</speed>
<extensions>
<speed>0.0</speed>
<temp>0.00</temp>
<bpm>0</bpm>
<rpm>0.00</rpm>
</extensions>
</trkpt>
<trkpt lat="63.888778687" lon="-20.531917572">
<ele>65.109375</ele>
<time>2012-07-27T14:16:28Z</time>
<extensions>
<speed>0.0</speed>
<temp>0.00</temp>
<bpm>0</bpm>
<rpm>0.00</rpm>
</extensions>
</trkpt>
<trkpt lat="63.888778687" lon="-20.531917572">
<ele>65.109375</ele>
<time>2012-07-27T14:16:33Z</time>
<extensions>
<speed>0.0</speed>
<temp>0.00</temp>
<bpm>0</bpm>
<rpm>0.00</rpm>
</extensions>
</trkpt>
<trkpt lat="63.888778687" lon="-20.531917572">
<ele>65.119141</ele>
<time>2012-07-27T14:16:38Z</time>
<extensions>
<speed>0.0</speed>
<temp>0.00</temp>
<bpm>0</bpm>
<rpm>0.00</rpm>
</extensions>
</trkpt>
<trkpt lat="63.888778687" lon="-20.531917572">
<ele>65.130859</ele>
<time>2012-07-27T14:16:43Z</time>
<extensions>
<speed>0.0</speed>
<temp>0.00</temp>
<bpm>0</bpm>
<rpm>0.00</rpm>
</extensions>
</trkpt>
<trkpt lat="63.888778687" lon="-20.531919479">
<ele>65.134766</ele>
<time>2012-07-27T14:16:48Z</time>
<extensions>
<speed>0.0</speed>
<temp>0.00</temp>
<bpm>0</bpm>
<rpm>0.00</rpm>
</extensions>
</trkpt>
<trkpt lat="63.888778687" lon="-20.531919479">
<ele>65.138672</ele>
<time>2012-07-27T14:16:53Z</time>
<speed>0.010000</speed>
<extensions>
<speed>0.0</speed>
<temp>0.00</temp>
<bpm>0</bpm>
<rpm>0.00</rpm>
</extensions>
</trkpt>
<trkpt lat="63.888778687" lon="-20.531919479">
<ele>65.144531</ele>
<time>2012-07-27T14:16:58Z</time>
<extensions>
<speed>0.0</speed>
<temp>0.00</temp>
<bpm>0</bpm>
<rpm>0.00</rpm>
</extensions>
</trkpt>
<trkpt lat="63.888778687" lon="-20.531919479">
<ele>65.160156</ele>
<time>2012-07-27T14:17:03Z</time>
<extensions>
<speed>0.0</speed>
<temp>0.00</temp>
<bpm>0</bpm>
<rpm>0.00</rpm>
</extensions>
</trkpt>
<trkpt lat="63.888778687" lon="-20.531919479">
<ele>65.169922</ele>
<time>2012-07-27T14:17:08Z</time>
<extensions>
<speed>0.0</speed>
<temp>0.00</temp>
<bpm>0</bpm>
<rpm>0.00</rpm>
</extensions>
</trkpt>
<trkpt lat="63.888778687" lon="-20.531919479">
<ele>65.179688</ele>
<time>2012-07-27T14:17:13Z</time>
<extensions>
<speed>0.0</speed>
<temp>0.00</temp>
<bpm>0</bpm>
<rpm>0.00</rpm>
</extensions>
</trkpt>
<trkpt lat="63.888778687" lon="-20.531919479">
<ele>65.189453</ele>
<time>2012-07-27T14:17:18Z</time>
<speed>0.010000</speed>
<extensions>
<speed>0.0</speed>
<temp>0.00</temp>
<bpm>0</bpm>
<rpm>0.00</rpm>
</extensions>
</trkpt>
<trkpt lat="63.888778687" lon="-20.531919479">
<ele>65.201172</ele>
<time>2012-07-27T14:17:23Z</time>
<extensions>
<speed>0.0</speed>
<temp>0.00</temp>
<bpm>0</bpm>
<rpm>0.00</rpm>
</extensions>
</trkpt>
<trkpt lat="63.888778687" lon="-20.531919479">
<ele>65.214844</ele>
<time>2012-07-27T14:17:28Z</time>
<extensions>
<speed>0.0</speed>
<temp>0.00</temp>
<bpm>0</bpm>
<rpm>0.00</rpm>
</extensions>
</trkpt>
<trkpt lat="63.888778687" lon="-20.531919479">
<ele>65.228516</ele>
<time>2012-07-27T14:17:33Z</time>
<extensions>
<speed>0.0</speed>
<temp>0.00</temp>
<bpm>0</bpm>
<rpm>0.00</rpm>
</extensions>
</trkpt>
<trkpt lat="63.888778687" lon="-20.531919479">
<ele>65.234375</ele>
<time>2012-07-27T14:17:38Z</time>
<extensions>
<speed>0.0</speed>
<temp>0.00</temp>
<bpm>0</bpm>
<rpm>0.00</rpm>
</extensions>
</trkpt>
<trkpt lat="63.888778687" lon="-20.531919479">
<ele>65.250000</ele>
<time>2012-07-27T14:17:43Z</time>
<extensions>
<speed>0.0</speed>
<temp>0.00</temp>
<bpm>0</bpm>
<rpm>0.00</rpm>
</extensions>
</trkpt>
<trkpt lat="63.888778687" lon="-20.531919479">
<ele>65.251953</ele>
<time>2012-07-27T14:17:48Z</time>
<extensions>
<speed>0.0</speed>
<temp>0.00</temp>
<bpm>0</bpm>
<rpm>0.00</rpm>
</extensions>
</trkpt>
<trkpt lat="63.888778687" lon="-20.531919479">
<ele>65.261719</ele>
<time>2012-07-27T14:17:53Z</time>
<extensions>
<speed>0.0</speed>
<temp>0.00</temp>
<bpm>0</bpm>
<rpm>0.00</rpm>
</extensions>
</trkpt>
<trkpt lat="63.888778687" lon="-20.531919479">
<ele>65.267578</ele>
<time>2012-07-27T14:17:58Z</time>
<extensions>
<speed>0.0</speed>
<temp>0.00</temp>
<bpm>0</bpm>
<rpm>0.00</rpm>
</extensions>
</trkpt>
<trkpt lat="63.888778687" lon="-20.531919479">
<ele>65.283203</ele>
<time>2012-07-27T14:18:03Z</time>
<speed>0.010000</speed>
<extensions>
<speed>0.0</speed>
<temp>0.00</temp>
<bpm>0</bpm>
<rpm>0.00</rpm>
</extensions>
</trkpt>
<trkpt lat="63.888778687" lon="-20.531919479">
<ele>65.287109</ele>
<time>2012-07-27T14:18:08Z</time>
<extensions>
<speed>0.0</speed>
<temp>0.00</temp>
<bpm>0</bpm>
<rpm>0.00</rpm>
</extensions>
</trkpt>
<trkpt lat="63.888778687" lon="-20.531919479">
<ele>65.289063</ele>
<time>2012-07-27T14:18:13Z</time>
<extensions>
<speed>0.0</speed>
<temp>0.00</temp>
<bpm>0</bpm>
<rpm>0.00</rpm>
</extensions>
</trkpt>
<trkpt lat="63.888778687" lon="-20.531919479">
<ele>65.306641</ele>
<time>2012-07-27T14:18:18Z</time>
<extensions>
<speed>0.0</speed>
<temp>0.00</temp>
<bpm>0</bpm>
<rpm>0.00</rpm>
</extensions>
</trkpt>
<trkpt lat="63.888778687" lon="-20.531919479">
<ele>65.312500</ele>
<time>2012-07-27T14:18:23Z</time>
<extensions>
<speed>0.0</speed>
<temp>0.00</temp>
<bpm>0</bpm>
<rpm>0.00</rpm>
</extensions>
</trkpt>
<trkpt lat="63.888778687" lon="-20.531919479">
<ele>65.320313</ele>
<time>2012-07-27T14:18:28Z</time>
<speed>0.010000</speed>
<extensions>
<speed>0.0</speed>
<temp>0.00</temp>
<bpm>0</bpm>
<rpm>0.00</rpm>
</extensions>
</trkpt>
<trkpt lat="63.888778687" lon="-20.531919479">
<ele>65.330078</ele>
<time>2012-07-27T14:18:33Z</time>
<extensions>
<speed>0.0</speed>
<temp>0.00</temp>
<bpm>0</bpm>
<rpm>0.00</rpm>
</extensions>
</trkpt>
<trkpt lat="63.888778687" lon="-20.531919479">
<ele>65.326172</ele>
<time>2012-07-27T14:18:38Z</time>
<speed>0.030000</speed>
<extensions>
<speed>0.0</speed>
<temp>0.00</temp>
<bpm>0</bpm>
<rpm>0.00</rpm>
</extensions>
</trkpt>
<trkpt lat="63.888778687" lon="-20.531921387">
<ele>65.363281</ele>
<time>2012-07-27T14:18:43Z</time>
<extensions>
<speed>0.0</speed>
<temp>0.00</temp>
<bpm>0</bpm>
<rpm>0.00</rpm>
</extensions>
</trkpt>
<trkpt lat="63.888778687" lon="-20.531921387">
<ele>65.361328</ele>
<time>2012-07-27T14:18:48Z</time>
<extensions>
<speed>0.0</speed>
<temp>0.00</temp>
<bpm>0</bpm>
<rpm>0.00</rpm>
</extensions>
</trkpt>
<trkpt lat="63.888778687" lon="-20.531921387">
<ele>65.359375</ele>
<time>2012-07-27T14:18:53Z</time>
<extensions>
<speed>0.0</speed>
<temp>0.00</temp>
<bpm>0</bpm>
<rpm>0.00</rpm>
</extensions>
</trkpt>
<trkpt lat="63.888778687" lon="-20.531921387">
<ele>65.363281</ele>
<time>2012-07-27T14:18:58Z</time>
<speed>0.010000</speed>
<extensions>
<speed>0.0</speed>
<temp>0.00</temp>
<bpm>0</bpm>
<rpm>0.00</rpm>
</extensions>
</trkpt>
<trkpt lat="63.888778687" lon="-20.531921387">
<ele>65.365234</ele>
<time>2012-07-27T14:19:03Z</time>
<extensions>
<speed>0.0</speed>
<temp>0.00</temp>
<bpm>0</bpm>
<rpm>0.00</rpm>
</extensions>
</trkpt>
<trkpt lat="63.888778687" lon="-20.531921387">
<ele>65.369141</ele>
<time>2012-07-27T14:19:08Z</time>
<extensions>
<speed>0.0</speed>
<temp>0.00</temp>
<bpm>0</bpm>
<rpm>0.00</rpm>
</extensions>
</trkpt>
<trkpt lat="63.888778687" lon="-20.531921387">
<ele>65.361328</ele>
<time>2012-07-27T14:19:13Z</time>
<speed>0.010000</speed>
<extensions>
<speed>0.0</speed>
<temp>0.00</temp>
<bpm>0</bpm>
<rpm>0.00</rpm>
</extensions>
</trkpt>
<trkpt lat="63.888778687" lon="-20.531921387">
<ele>65.363281</ele>
<time>2012-07-27T14:19:18Z</time>
<extensions>
<speed>0.0</speed>
<temp>0.00</temp>
<bpm>0</bpm>
<rpm>0.00</rpm>
</extensions>
</trkpt>
<trkpt lat="63.888782501" lon="-20.531921387">
<ele>65.367188</ele>
<time>2012-07-27T14:19:23Z</time>
<speed>0.010000</speed>
<extensions>
<speed>0.0</speed>
<temp>0.00</temp>
<bpm>0</bpm>
<rpm>0.00</rpm>
</extensions>
</trkpt>
<trkpt lat="63.888782501" lon="-20.531921387">
<ele>65.371094</ele>
<time>2012-07-27T14:19:28Z</time>
<extensions>
<speed>0.0</speed>
<temp>0.00</temp>
<bpm>0</bpm>
<rpm>0.00</rpm>
</extensions>
</trkpt>
<trkpt lat="63.888782501" lon="-20.531921387">
<ele>65.371094</ele>
<time>2012-07-27T14:19:33Z</time>
<speed>0.010000</speed>
<extensions>
<speed>0.0</speed>
<temp>0.00</temp>
<bpm>0</bpm>
<rpm>0.00</rpm>
</extensions>
</trkpt>
<trkpt lat="63.888782501" lon="-20.531921387">
<ele>65.382813</ele>
<time>2012-07-27T14:19:38Z</time>
<speed>0.040000</speed>
<extensions>
<speed>0.0</speed>
<temp>0.00</temp>
<bpm>0</bpm>
<rpm>0.00</rpm>
</extensions>
</trkpt>
<trkpt lat="63.888782501" lon="-20.531923294">
<ele>65.384766</ele>
<time>2012-07-27T14:19:43Z</time>
<speed>0.010000</speed>
<extensions>
<speed>0.0</speed>
<temp>0.00</temp>
<bpm>0</bpm>
<rpm>0.00</rpm>
</extensions>
</trkpt>
<trkpt lat="63.888782501" lon="-20.531923294">
<ele>65.386719</ele>
<time>2012-07-27T14:19:48Z</time>
<speed>0.150000</speed>
<extensions>
<speed>0.2</speed>
<temp>0.00</temp>
<bpm>0</bpm>
<rpm>0.00</rpm>
</extensions>
</trkpt>
<trkpt lat="63.888782501" lon="-20.531923294">
<ele>65.447266</ele>
<time>2012-07-27T14:19:53Z</time>
<extensions>
<speed>0.0</speed>
<temp>0.00</temp>
<bpm>0</bpm>
<rpm>0.00</rpm>
</extensions>
</trkpt>
<trkpt lat="63.888782501" lon="-20.531923294">
<ele>65.457031</ele>
<time>2012-07-27T14:19:58Z</time>
<extensions>
<speed>0.0</speed>
<temp>0.00</temp>
<bpm>0</bpm>
<rpm>0.00</rpm>
</extensions>
</trkpt>
<trkpt lat="63.888782501" lon="-20.531923294">
<ele>65.457031</ele>
<time>2012-07-27T14:20:03Z</time>
<speed>0.040000</speed>
<extensions>
<speed>0.0</speed>
<temp>0.00</temp>
<bpm>0</bpm>
<rpm>0.00</rpm>
</extensions>
</trkpt>
<trkpt lat="63.888782501" lon="-20.531923294">
<ele>65.464844</ele>
<time>2012-07-27T14:20:08Z</time>
<speed>0.030000</speed>
<extensions>
<speed>0.0</speed>
<temp>0.00</temp>
<bpm>0</bpm>
<rpm>0.00</rpm>
</extensions>
</trkpt>
<trkpt lat="63.888782501" lon="-20.531923294">
<ele>65.478516</ele>
<time>2012-07-27T14:20:13Z</time>
<speed>0.020000</speed>
<extensions>
<speed>0.0</speed>
<temp>0.00</temp>
<bpm>0</bpm>
<rpm>0.00</rpm>
</extensions>
</trkpt>
<trkpt lat="63.888782501" lon="-20.531923294">
<ele>65.490234</ele>
<time>2012-07-27T14:20:18Z</time>
<speed>0.020000</speed>
<extensions>
<speed>0.0</speed>
<temp>0.00</temp>
<bpm>0</bpm>
<rpm>0.00</rpm>
</extensions>
</trkpt>
<trkpt lat="63.888782501" lon="-20.531925201">
<ele>65.490234</ele>
<time>2012-07-27T14:20:23Z</time>
<extensions>
<speed>0.0</speed>
<temp>0.00</temp>
<bpm>0</bpm>
<rpm>0.00</rpm>
</extensions>
</trkpt>
<trkpt lat="63.888782501" lon="-20.531925201">
<ele>65.486328</ele>
<time>2012-07-27T14:20:28Z</time>
<speed>0.010000</speed>
<extensions>
<speed>0.0</speed>
<temp>0.00</temp>
<bpm>0</bpm>
<rpm>0.00</rpm>
</extensions>
</trkpt>
<trkpt lat="63.888782501" lon="-20.531925201">
<ele>65.488281</ele>
<time>2012-07-27T14:20:33Z</time>
<speed>0.020000</speed>
<extensions>
<speed>0.0</speed>
<temp>0.00</temp>
<bpm>0</bpm>
<rpm>0.00</rpm>
</extensions>
</trkpt>
<trkpt lat="63.888782501" lon="-20.531925201">
<ele>65.498047</ele>
<time>2012-07-27T14:20:38Z</time>
<speed>0.010000</speed>
<extensions>
<speed>0.0</speed>
<temp>0.00</temp>
<bpm>0</bpm>
<rpm>0.00</rpm>
</extensions>
</trkpt>
<trkpt lat="63.888782501" lon="-20.531925201">
<ele>65.503906</ele>
<time>2012-07-27T14:20:43Z</time>
<speed>0.010000</speed>
<extensions>
<speed>0.0</speed>
<temp>0.00</temp>
<bpm>0</bpm>
<rpm>0.00</rpm>
</extensions>
</trkpt>
<trkpt lat="63.888782501" lon="-20.531925201">
<ele>65.511719</ele>
<time>2012-07-27T14:20:48Z</time>
<extensions>
<speed>0.0</speed>
<temp>0.00</temp>
<bpm>0</bpm>
<rpm>0.00</rpm>
</extensions>
</trkpt>
<trkpt lat="63.888782501" lon="-20.531925201">
<ele>65.513672</ele>
<time>2012-07-27T14:20:53Z</time>
<extensions>
<speed>0.0</speed>
<temp>0.00</temp>
<bpm>0</bpm>
<rpm>0.00</rpm>
</extensions>
</trkpt>
<trkpt lat="63.888782501" lon="-20.531925201">
<ele>65.515625</ele>
<time>2012-07-27T14:20:58Z</time>
<speed>0.010000</speed>
<extensions>
<speed>0.0</speed>
<temp>0.00</temp>
<bpm>0</bpm>
<rpm>0.00</rpm>
</extensions>
</trkpt>
<trkpt lat="63.888782501" lon="-20.531925201">
<ele>65.521484</ele>
<time>2012-07-27T14:21:03Z</time>
<speed>0.010000</speed>
<extensions>
<speed>0.0</speed>
<temp>0.00</temp>
<bpm>0</bpm>
<rpm>0.00</rpm>
</extensions>
</trkpt>
<trkpt lat="63.888782501" lon="-20.531925201">
<ele>65.539063</ele>
<time>2012-07-27T14:21:08Z</time>
<speed>0.010000</speed>
<extensions>
<speed>0.0</speed>
<temp>0.00</temp>
<bpm>0</bpm>
<rpm>0.00</rpm>
</extensions>
</trkpt>
<trkpt lat="63.888782501" lon="-20.531925201">
<ele>65.539063</ele>
<time>2012-07-27T14:21:13Z</time>
<extensions>
<speed>0.0</speed>
<temp>0.00</temp>
<bpm>0</bpm>
<rpm>0.00</rpm>
</extensions>
</trkpt>
<trkpt lat="63.888782501" lon="-20.531925201">
<ele>65.533203</ele>
<time>2012-07-27T14:21:18Z</time>
<speed>0.010000</speed>
<extensions>
<speed>0.0</speed>
<temp>0.00</temp>
<bpm>0</bpm>
<rpm>0.00</rpm>
</extensions>
</trkpt>
<trkpt lat="63.888782501" lon="-20.531925201">
<ele>65.537109</ele>
<time>2012-07-27T14:21:23Z</time>
<extensions>
<speed>0.0</speed>
<temp>0.00</temp>
<bpm>0</bpm>
<rpm>0.00</rpm>
</extensions>
</trkpt>
<trkpt lat="63.888782501" lon="-20.531925201">
<ele>65.537109</ele>
<time>2012-07-27T14:21:28Z</time>
<extensions>
<speed>0.0</speed>
<temp>0.00</temp>
<bpm>0</bpm>
<rpm>0.00</rpm>
</extensions>
</trkpt>
<trkpt lat="63.888782501" lon="-20.531925201">
<ele>65.542969</ele>
<time>2012-07-27T14:21:33Z</time>
<extensions>
<speed>0.0</speed>
<temp>0.00</temp>
<bpm>0</bpm>
<rpm>0.00</rpm>
</extensions>
</trkpt>
<trkpt lat="63.888782501" lon="-20.531925201">
<ele>65.541016</ele>
<time>2012-07-27T14:21:38Z</time>
<extensions>
<speed>0.0</speed>
<temp>0.00</temp>
<bpm>0</bpm>
<rpm>0.00</rpm>
</extensions>
</trkpt>
<trkpt lat="63.888782501" lon="-20.531925201">
<ele>65.541016</ele>
<time>2012-07-27T14:21:43Z</time>
<speed>0.050000</speed>
<extensions>
<speed>0.1</speed>
<temp>0.00</temp>
<bpm>0</bpm>
<rpm>0.00</rpm>
</extensions>
</trkpt>
<trkpt lat="63.888782501" lon="-20.531929016">
<ele>65.523438</ele>
<time>2012-07-27T14:21:48Z</time>
<speed>0.250000</speed>
<extensions>
<speed>0.2</speed>
<temp>0.00</temp>
<bpm>0</bpm>
<rpm>0.00</rpm>
</extensions>
</trkpt>
<trkpt lat="63.888767242" lon="-20.531953812">
<ele>65.310547</ele>
<time>2012-07-27T14:21:53Z</time>
<speed>0.520000</speed>
<extensions>
<speed>0.5</speed>
<temp>0.00</temp>
<bpm>0</bpm>
<rpm>0.00</rpm>
</extensions>
</trkpt>
<trkpt lat="63.888755798" lon="-20.531919479">
<ele>65.480469</ele>
<time>2012-07-27T14:21:58Z</time>
<speed>0.660000</speed>
<extensions>
<speed>0.7</speed>
<temp>0.00</temp>
<bpm>0</bpm>
<rpm>0.00</rpm>
</extensions>
</trkpt>
<trkpt lat="63.888751984" lon="-20.531917572">
<ele>64.972656</ele>
<time>2012-07-27T14:22:03Z</time>
<speed>0.010000</speed>
<extensions>
<speed>0.0</speed>
<temp>0.00</temp>
<bpm>0</bpm>
<rpm>0.00</rpm>
</extensions>
</trkpt>
<trkpt lat="63.888751984" lon="-20.531917572">
<ele>64.892578</ele>
<time>2012-07-27T14:22:08Z</time>
<speed>0.010000</speed>
<extensions>
<speed>0.0</speed>
<temp>0.00</temp>
<bpm>0</bpm>
<rpm>0.00</rpm>
</extensions>
</trkpt>
<trkpt lat="63.888751984" lon="-20.531917572">
<ele>64.830078</ele>
<time>2012-07-27T14:22:13Z</time>
<extensions>
<speed>0.0</speed>
<temp>0.00</temp>
<bpm>0</bpm>
<rpm>0.00</rpm>
</extensions>
</trkpt>
<trkpt lat="63.888751984" lon="-20.531917572">
<ele>64.812500</ele>
<time>2012-07-27T14:22:18Z</time>
<extensions>
<speed>0.0</speed>
<temp>0.00</temp>
<bpm>0</bpm>
<rpm>0.00</rpm>
</extensions>
</trkpt>
<trkpt lat="63.888751984" lon="-20.531917572">
<ele>64.800781</ele>
<time>2012-07-27T14:22:23Z</time>
<speed>0.010000</speed>
<extensions>
<speed>0.0</speed>
<temp>0.00</temp>
<bpm>0</bpm>
<rpm>0.00</rpm>
</extensions>
</trkpt>
<trkpt lat="63.888751984" lon="-20.531917572">
<ele>64.796875</ele>
<time>2012-07-27T14:22:28Z</time>
<speed>0.010000</speed>
<extensions>
<speed>0.0</speed>
<temp>0.00</temp>
<bpm>0</bpm>
<rpm>0.00</rpm>
</extensions>
</trkpt>
<trkpt lat="63.888751984" lon="-20.531917572">
<ele>64.783203</ele>
<time>2012-07-27T14:22:33Z</time>
<speed>0.010000</speed>
<extensions>
<speed>0.0</speed>
<temp>0.00</temp>
<bpm>0</bpm>
<rpm>0.00</rpm>
</extensions>
</trkpt>
<trkpt lat="63.888751984" lon="-20.531917572">
<ele>64.773438</ele>
<time>2012-07-27T14:22:38Z</time>
<speed>0.010000</speed>
<extensions>
<speed>0.0</speed>
<temp>0.00</temp>
<bpm>0</bpm>
<rpm>0.00</rpm>
</extensions>
</trkpt>
<trkpt lat="63.888751984" lon="-20.531917572">
<ele>64.765625</ele>
<time>2012-07-27T14:22:43Z</time>
<speed>0.030000</speed>
<extensions>
<speed>0.0</speed>
<temp>0.00</temp>
<bpm>0</bpm>
<rpm>0.00</rpm>
</extensions>
</trkpt>
<trkpt lat="63.888751984" lon="-20.531917572">
<ele>64.755859</ele>
<time>2012-07-27T14:22:48Z</time>
<extensions>
<speed>0.0</speed>
<temp>0.00</temp>
<bpm>0</bpm>
<rpm>0.00</rpm>
</extensions>
</trkpt>
<trkpt lat="63.888748169" lon="-20.531917572">
<ele>64.751953</ele>
<time>2012-07-27T14:22:53Z</time>
<speed>0.010000</speed>
<extensions>
<speed>0.0</speed>
<temp>0.00</temp>
<bpm>0</bpm>
<rpm>0.00</rpm>
</extensions>
</trkpt>
<trkpt lat="63.888748169" lon="-20.531917572">
<ele>64.748047</ele>
<time>2012-07-27T14:22:58Z</time>
<extensions>
<speed>0.0</speed>
<temp>0.00</temp>
<bpm>0</bpm>
<rpm>0.00</rpm>
</extensions>
</trkpt>
<trkpt lat="63.888748169" lon="-20.531919479">
<ele>64.748047</ele>
<time>2012-07-27T14:23:03Z</time>
<extensions>
<speed>0.0</speed>
<temp>0.00</temp>
<bpm>0</bpm>
<rpm>0.00</rpm>
</extensions>
</trkpt>
<trkpt lat="63.888748169" lon="-20.531919479">
<ele>64.746094</ele>
<time>2012-07-27T14:23:08Z</time>
<speed>0.010000</speed>
<extensions>
<speed>0.0</speed>
<temp>0.00</temp>
<bpm>0</bpm>
<rpm>0.00</rpm>
</extensions>
</trkpt>
<trkpt lat="63.888748169" lon="-20.531919479">
<ele>64.740234</ele>
<time>2012-07-27T14:23:13Z</time>
<speed>0.020000</speed>
<extensions>
<speed>0.0</speed>
<temp>0.00</temp>
<bpm>0</bpm>
<rpm>0.00</rpm>
</extensions>
</trkpt>
<trkpt lat="63.888748169" lon="-20.531919479">
<ele>64.732422</ele>
<time>2012-07-27T14:23:18Z</time>
<extensions>
<speed>0.0</speed>
<temp>0.00</temp>
<bpm>0</bpm>
<rpm>0.00</rpm>
</extensions>
</trkpt>
<trkpt lat="63.888748169" lon="-20.531919479">
<ele>64.726563</ele>
<time>2012-07-27T14:23:23Z</time>
<extensions>
<speed>0.0</speed>
<temp>0.00</temp>
<bpm>0</bpm>
<rpm>0.00</rpm>
</extensions>
</trkpt>
<trkpt lat="63.888748169" lon="-20.531919479">
<ele>64.720703</ele>
<time>2012-07-27T14:23:28Z</time>
<extensions>
<speed>0.0</speed>
<temp>0.00</temp>
<bpm>0</bpm>
<rpm>0.00</rpm>
</extensions>
</trkpt>
<trkpt lat="63.888748169" lon="-20.531923294">
<ele>64.759766</ele>
<time>2012-07-27T14:23:33Z</time>
<speed>0.090000</speed>
<extensions>
<speed>0.1</speed>
<temp>0.00</temp>
<bpm>0</bpm>
<rpm>0.00</rpm>
</extensions>
</trkpt>
<trkpt lat="63.888748169" lon="-20.531923294">
<ele>64.773438</ele>
<time>2012-07-27T14:23:38Z</time>
<extensions>
<speed>0.0</speed>
<temp>0.00</temp>
<bpm>0</bpm>
<rpm>0.00</rpm>
</extensions>
</trkpt>
<trkpt lat="63.888748169" lon="-20.531923294">
<ele>64.787109</ele>
<time>2012-07-27T14:23:43Z</time>
<speed>0.020000</speed>
<extensions>
<speed>0.0</speed>
<temp>0.00</temp>
<bpm>0</bpm>
<rpm>0.00</rpm>
</extensions>
</trkpt>
<trkpt lat="63.888748169" lon="-20.531923294">
<ele>64.810547</ele>
<time>2012-07-27T14:23:48Z</time>
<extensions>
<speed>0.0</speed>
<temp>0.00</temp>
<bpm>0</bpm>
<rpm>0.00</rpm>
</extensions>
</trkpt>
<trkpt lat="63.888748169" lon="-20.531923294">
<ele>64.828125</ele>
<time>2012-07-27T14:23:53Z</time>
<extensions>
<speed>0.0</speed>
<temp>0.00</temp>
<bpm>0</bpm>
<rpm>0.00</rpm>
</extensions>
</trkpt>
<trkpt lat="63.888748169" lon="-20.531925201">
<ele>64.841797</ele>
<time>2012-07-27T14:23:58Z</time>
<speed>0.040000</speed>
<extensions>
<speed>0.0</speed>
<temp>0.00</temp>
<bpm>0</bpm>
<rpm>0.00</rpm>
</extensions>
</trkpt>
<trkpt lat="63.888748169" lon="-20.531923294">
<ele>64.837891</ele>
<time>2012-07-27T14:24:03Z</time>
<speed>0.030000</speed>
<extensions>
<speed>0.0</speed>
<temp>0.00</temp>
<bpm>0</bpm>
<rpm>0.00</rpm>
</extensions>
</trkpt>
<trkpt lat="63.888748169" lon="-20.531927109">
<ele>64.867188</ele>
<time>2012-07-27T14:24:08Z</time>
<speed>0.090000</speed>
<extensions>
<speed>0.1</speed>
<temp>0.00</temp>
<bpm>0</bpm>
<rpm>0.00</rpm>
</extensions>
</trkpt>
<trkpt lat="63.888748169" lon="-20.531923294">
<ele>64.966797</ele>
<time>2012-07-27T14:24:13Z</time>
<speed>0.010000</speed>
<extensions>
<speed>0.0</speed>
<temp>0.00</temp>
<bpm>0</bpm>
<rpm>0.00</rpm>
</extensions>
</trkpt>
<trkpt lat="63.888748169" lon="-20.531923294">
<ele>64.970703</ele>
<time>2012-07-27T14:24:18Z</time>
<speed>0.050000</speed>
<extensions>
<speed>0.1</speed>
<temp>0.00</temp>
<bpm>0</bpm>
<rpm>0.00</rpm>
</extensions>
</trkpt>
<trkpt lat="63.888748169" lon="-20.531925201">
<ele>64.986328</ele>
<time>2012-07-27T14:24:23Z</time>
<speed>0.010000</speed>
<extensions>
<speed>0.0</speed>
<temp>0.00</temp>
<bpm>0</bpm>
<rpm>0.00</rpm>
</extensions>
</trkpt>
<trkpt lat="63.888748169" lon="-20.531925201">
<ele>64.974609</ele>
<time>2012-07-27T14:24:28Z</time>
<speed>0.020000</speed>
<extensions>
<speed>0.0</speed>
<temp>0.00</temp>
<bpm>0</bpm>
<rpm>0.00</rpm>
</extensions>
</trkpt>
<trkpt lat="63.888748169" lon="-20.531925201">
<ele>64.986328</ele>
<time>2012-07-27T14:24:33Z</time>
<speed>0.040000</speed>
<extensions>
<speed>0.0</speed>
<temp>0.00</temp>
<bpm>0</bpm>
<rpm>0.00</rpm>
</extensions>
</trkpt>
<trkpt lat="63.888744354" lon="-20.531927109">
<ele>64.962891</ele>
<time>2012-07-27T14:24:38Z</time>
<speed>0.800000</speed>
<extensions>
<speed>0.8</speed>
<temp>0.00</temp>
<bpm>0</bpm>
<rpm>0.00</rpm>
</extensions>
</trkpt>
<trkpt lat="63.888751984" lon="-20.532091141">
<ele>65.000000</ele>
<time>2012-07-27T14:24:43Z</time>
<speed>1.770000</speed>
<extensions>
<speed>1.8</speed>
<temp>0.00</temp>
<bpm>0</bpm>
<rpm>0.00</rpm>
</extensions>
</trkpt>
<trkpt lat="63.888771057" lon="-20.532289505">
<ele>64.019531</ele>
<time>2012-07-27T14:24:48Z</time>
<speed>2.270000</speed>
<extensions>
<speed>2.3</speed>
<temp>0.00</temp>
<bpm>0</bpm>
<rpm>0.00</rpm>
</extensions>
</trkpt>
<trkpt lat="63.888816833" lon="-20.532493591">
<ele>63.867188</ele>
<time>2012-07-27T14:24:53Z</time>
<speed>2.080000</speed>
<extensions>
<speed>2.1</speed>
<temp>0.00</temp>
<bpm>0</bpm>
<rpm>0.00</rpm>
</extensions>
</trkpt>
<trkpt lat="63.888870239" lon="-20.532737732">
<ele>63.534180</ele>
<time>2012-07-27T14:24:58Z</time>
<speed>3.040000</speed>
<extensions>
<speed>3.0</speed>
<temp>0.00</temp>
<bpm>0</bpm>
<rpm>0.00</rpm>
</extensions>
</trkpt>
<trkpt lat="63.888950348" lon="-20.533033371">
<ele>63.827148</ele>
<time>2012-07-27T14:25:03Z</time>
<speed>3.340000</speed>
<extensions>
<speed>3.3</speed>
<temp>0.00</temp>
<bpm>0</bpm>
<rpm>0.00</rpm>
</extensions>
</trkpt>
<trkpt lat="63.889019012" lon="-20.533313751">
<ele>64.363281</ele>
<time>2012-07-27T14:25:08Z</time>
<speed>3.290000</speed>
<extensions>
<speed>3.3</speed>
<temp>0.00</temp>
<bpm>0</bpm>
<rpm>0.00</rpm>
</extensions>
</trkpt>
<trkpt lat="63.889099121" lon="-20.533641815">
<ele>64.458984</ele>
<time>2012-07-27T14:25:13Z</time>
<speed>3.830000</speed>
<extensions>
<speed>3.8</speed>
<temp>0.00</temp>
<bpm>0</bpm>
<rpm>0.00</rpm>
</extensions>
</trkpt>
<trkpt lat="63.889186859" lon="-20.533973694">
<ele>64.613281</ele>
<time>2012-07-27T14:25:18Z</time>
<speed>3.830000</speed>
<extensions>
<speed>3.8</speed>
<temp>0.00</temp>
<bpm>0</bpm>
<rpm>0.00</rpm>
</extensions>
</trkpt>
<trkpt lat="63.889282227" lon="-20.534332275">
<ele>64.583984</ele>
<time>2012-07-27T14:25:23Z</time>
<speed>4.100000</speed>
<extensions>
<speed>4.1</speed>
<temp>0.00</temp>
<bpm>0</bpm>
<rpm>0.00</rpm>
</extensions>
</trkpt>
<trkpt lat="63.889366150" lon="-20.534704208">
<ele>64.498047</ele>
<time>2012-07-27T14:25:28Z</time>
<speed>4.330000</speed>
<extensions>
<speed>4.3</speed>
<temp>0.00</temp>
<bpm>0</bpm>
<rpm>0.00</rpm>
</extensions>
</trkpt>
<trkpt lat="63.889457703" lon="-20.535072327">
<ele>64.812500</ele>
<time>2012-07-27T14:25:33Z</time>
<speed>3.710000</speed>
<extensions>
<speed>3.7</speed>
<temp>0.00</temp>
<bpm>0</bpm>
<rpm>0.00</rpm>
</extensions>
</trkpt>
<trkpt lat="63.889537811" lon="-20.535409927">
<ele>64.781250</ele>
<time>2012-07-27T14:25:38Z</time>
<speed>4.110000</speed>
<extensions>
<speed>4.1</speed>
<temp>0.00</temp>
<bpm>0</bpm>
<rpm>0.00</rpm>
</extensions>
</trkpt>
<trkpt lat="63.889625549" lon="-20.535797119">
<ele>64.707031</ele>
<time>2012-07-27T14:25:43Z</time>
<speed>4.370000</speed>
<extensions>
<speed>4.4</speed>
<temp>0.00</temp>
<bpm>0</bpm>
<rpm>0.00</rpm>
</extensions>
</trkpt>
<trkpt lat="63.889705658" lon="-20.536138535">
<ele>64.843750</ele>
<time>2012-07-27T14:25:48Z</time>
<speed>3.410000</speed>
<extensions>
<speed>3.4</speed>
<temp>0.00</temp>
<bpm>0</bpm>
<rpm>0.00</rpm>
</extensions>
</trkpt>
<trkpt lat="63.889766693" lon="-20.536426544">
<ele>64.359375</ele>
<time>2012-07-27T14:25:53Z</time>
<speed>3.050000</speed>
<extensions>
<speed>3.0</speed>
<temp>0.00</temp>
<bpm>0</bpm>
<rpm>0.00</rpm>
</extensions>
</trkpt>
<trkpt lat="63.889839172" lon="-20.536735535">
<ele>64.076172</ele>
<time>2012-07-27T14:25:58Z</time>
<speed>3.620000</speed>
<extensions>
<speed>3.6</speed>
<temp>0.00</temp>
<bpm>0</bpm>
<rpm>0.00</rpm>
</extensions>
</trkpt>
<trkpt lat="63.889915466" lon="-20.537109375">
<ele>64.294922</ele>
<time>2012-07-27T14:26:03Z</time>
<speed>4.340000</speed>
<extensions>
<speed>4.3</speed>
<temp>0.00</temp>
<bpm>0</bpm>
<rpm>0.00</rpm>
</extensions>
</trkpt>
<trkpt lat="63.890003204" lon="-20.537538528">
<ele>64.140625</ele>
<time>2012-07-27T14:26:08Z</time>
<speed>4.710000</speed>
<extensions>
<speed>4.7</speed>
<temp>0.00</temp>
<bpm>0</bpm>
<rpm>0.00</rpm>
</extensions>
</trkpt>
<trkpt lat="63.890090942" lon="-20.537944794">
<ele>63.683594</ele>
<time>2012-07-27T14:26:13Z</time>
<speed>4.260000</speed>
<extensions>
<speed>4.3</speed>
<temp>0.00</temp>
<bpm>0</bpm>
<rpm>0.00</rpm>
</extensions>
</trkpt>
<trkpt lat="63.890167236" lon="-20.538316727">
<ele>63.677734</ele>
<time>2012-07-27T14:26:18Z</time>
<speed>3.670000</speed>
<extensions>
<speed>3.7</speed>
<temp>0.00</temp>
<bpm>0</bpm>
<rpm>0.00</rpm>
</extensions>
</trkpt>
<trkpt lat="63.890228271" lon="-20.538650513">
<ele>63.191406</ele>
<time>2012-07-27T14:26:23Z</time>
<speed>4.090000</speed>
<extensions>
<speed>4.1</speed>
<temp>0.00</temp>
<bpm>0</bpm>
<rpm>0.00</rpm>
</extensions>
</trkpt>
<trkpt lat="63.890304565" lon="-20.539047241">
<ele>62.628906</ele>
<time>2012-07-27T14:26:28Z</time>
<speed>4.290000</speed>
<extensions>
<speed>4.3</speed>
<temp>0.00</temp>
<bpm>0</bpm>
<rpm>0.00</rpm>
</extensions>
</trkpt>
<trkpt lat="63.890380859" lon="-20.539453506">
<ele>61.862305</ele>
<time>2012-07-27T14:26:33Z</time>
<speed>4.610000</speed>
<extensions>
<speed>4.6</speed>
<temp>0.00</temp>
<bpm>0</bpm>
<rpm>0.00</rpm>
</extensions>
</trkpt>
<trkpt lat="63.890457153" lon="-20.539915085">
<ele>59.992188</ele>
<time>2012-07-27T14:26:38Z</time>
<speed>4.980000</speed>
<extensions>
<speed>5.0</speed>
<temp>0.00</temp>
<bpm>0</bpm>
<rpm>0.00</rpm>
</extensions>
</trkpt>
<trkpt lat="63.890533447" lon="-20.540395737">
<ele>58.723633</ele>
<time>2012-07-27T14:26:43Z</time>
<speed>5.170000</speed>
<extensions>
<speed>5.2</speed>
<temp>0.00</temp>
<bpm>0</bpm>
<rpm>0.00</rpm>
</extensions>
</trkpt>
<trkpt lat="63.890605927" lon="-20.540914536">
<ele>57.851563</ele>
<time>2012-07-27T14:26:48Z</time>
<speed>5.690000</speed>
<extensions>
<speed>5.7</speed>
<temp>0.00</temp>
<bpm>0</bpm>
<rpm>0.00</rpm>
</extensions>
</trkpt>
<trkpt lat="63.890701294" lon="-20.541488647">
<ele>58.759766</ele>
<time>2012-07-27T14:26:53Z</time>
<speed>6.010000</speed>
<extensions>
<speed>6.0</speed>
<temp>0.00</temp>
<bpm>0</bpm>
<rpm>0.00</rpm>
</extensions>
</trkpt>
<trkpt lat="63.890785217" lon="-20.542091370">
<ele>55.560547</ele>
<time>2012-07-27T14:26:58Z</time>
<speed>6.480000</speed>
<extensions>
<speed>6.5</speed>
<temp>0.00</temp>
<bpm>0</bpm>
<rpm>0.00</rpm>
</extensions>
</trkpt>
<trkpt lat="63.890872955" lon="-20.542753220">
<ele>53.951172</ele>
<time>2012-07-27T14:27:03Z</time>
<speed>7.270000</speed>
<extensions>
<speed>7.3</speed>
<temp>0.00</temp>
<bpm>0</bpm>
<rpm>0.00</rpm>
</extensions>
</trkpt>
<trkpt lat="63.890991211" lon="-20.543500900">
<ele>53.074219</ele>
<time>2012-07-27T14:27:08Z</time>
<speed>8.140000</speed>
<extensions>
<speed>8.1</speed>
<temp>0.00</temp>
<bpm>0</bpm>
<rpm>0.00</rpm>
</extensions>
</trkpt>
<trkpt lat="63.891105652" lon="-20.544334412">
<ele>50.977539</ele>
<time>2012-07-27T14:27:13Z</time>
<speed>8.790000</speed>
<extensions>
<speed>8.8</speed>
<temp>0.00</temp>
<bpm>0</bpm>
<rpm>0.00</rpm>
</extensions>
</trkpt>
<trkpt lat="63.891227722" lon="-20.545219421">
<ele>49.341797</ele>
<time>2012-07-27T14:27:18Z</time>
<speed>9.230000</speed>
<extensions>
<speed>9.2</speed>
<temp>0.00</temp>
<bpm>0</bpm>
<rpm>0.00</rpm>
</extensions>
</trkpt>
<trkpt lat="63.891353607" lon="-20.546113968">
<ele>47.989258</ele>
<time>2012-07-27T14:27:23Z</time>
<speed>9.150000</speed>
<extensions>
<speed>9.1</speed>
<temp>0.00</temp>
<bpm>0</bpm>
<rpm>0.00</rpm>
</extensions>
</trkpt>
<trkpt lat="63.891483307" lon="-20.547002792">
<ele>46.614258</ele>
<time>2012-07-27T14:27:28Z</time>
<speed>9.170000</speed>
<extensions>
<speed>9.2</speed>
<temp>0.00</temp>
<bpm>0</bpm>
<rpm>0.00</rpm>
</extensions>
</trkpt>
<trkpt lat="63.891616821" lon="-20.547876358">
<ele>45.362305</ele>
<time>2012-07-27T14:27:33Z</time>
<speed>8.690000</speed>
<extensions>
<speed>8.7</speed>
<temp>0.00</temp>
<bpm>0</bpm>
<rpm>0.00</rpm>
</extensions>
</trkpt>
<trkpt lat="63.891735077" lon="-20.548683167">
<ele>43.574219</ele>
<time>2012-07-27T14:27:38Z</time>
<speed>8.070000</speed>
<extensions>
<speed>8.1</speed>
<temp>0.00</temp>
<bpm>0</bpm>
<rpm>0.00</rpm>
</extensions>
</trkpt>
<trkpt lat="63.891849518" lon="-20.549434662">
<ele>41.776367</ele>
<time>2012-07-27T14:27:43Z</time>
<speed>7.620000</speed>
<extensions>
<speed>7.6</speed>
<temp>0.00</temp>
<bpm>0</bpm>
<rpm>0.00</rpm>
</extensions>
</trkpt>
<trkpt lat="63.891967773" lon="-20.550138474">
<ele>40.226563</ele>
<time>2012-07-27T14:27:48Z</time>
<speed>7.320000</speed>
<extensions>
<speed>7.3</speed>
<temp>0.00</temp>
<bpm>0</bpm>
<rpm>0.00</rpm>
</extensions>
</trkpt>
<trkpt lat="63.892093658" lon="-20.550806046">
<ele>39.350586</ele>
<time>2012-07-27T14:27:53Z</time>
<speed>7.120000</speed>
<extensions>
<speed>7.1</speed>
<temp>0.00</temp>
<bpm>0</bpm>
<rpm>0.00</rpm>
</extensions>
</trkpt>
<trkpt lat="63.892223358" lon="-20.551500320">
<ele>38.410156</ele>
<time>2012-07-27T14:27:58Z</time>
<speed>7.750000</speed>
<extensions>
<speed>7.7</speed>
<temp>0.00</temp>
<bpm>0</bpm>
<rpm>0.00</rpm>
</extensions>
</trkpt>
<trkpt lat="63.892368317" lon="-20.552236557">
<ele>36.375000</ele>
<time>2012-07-27T14:28:03Z</time>
<speed>7.890000</speed>
<extensions>
<speed>7.9</speed>
<temp>0.00</temp>
<bpm>0</bpm>
<rpm>0.00</rpm>
</extensions>
</trkpt>
<trkpt lat="63.892524719" lon="-20.552978516">
<ele>34.655273</ele>
<time>2012-07-27T14:28:08Z</time>
<speed>8.110000</speed>
<extensions>
<speed>8.1</speed>
<temp>0.00</temp>
<bpm>0</bpm>
<rpm>0.00</rpm>
</extensions>
</trkpt>
<trkpt lat="63.892673492" lon="-20.553722382">
<ele>33.143555</ele>
<time>2012-07-27T14:28:13Z</time>
<speed>8.060000</speed>
<extensions>
<speed>8.1</speed>
<temp>0.00</temp>
<bpm>0</bpm>
<rpm>0.00</rpm>
</extensions>
</trkpt>
<trkpt lat="63.892826080" lon="-20.554456711">
<ele>31.535156</ele>
<time>2012-07-27T14:28:18Z</time>
<speed>7.950000</speed>
<extensions>
<speed>8.0</speed>
<temp>0.00</temp>
<bpm>0</bpm>
<rpm>0.00</rpm>
</extensions>
</trkpt>
<trkpt lat="63.892978668" lon="-20.555173874">
<ele>29.836426</ele>
<time>2012-07-27T14:28:23Z</time>
<speed>7.610000</speed>
<extensions>
<speed>7.6</speed>
<temp>0.00</temp>
<bpm>0</bpm>
<rpm>0.00</rpm>
</extensions>
</trkpt>
<trkpt lat="63.893138885" lon="-20.555860519">
<ele>29.745117</ele>
<time>2012-07-27T14:28:28Z</time>
<speed>7.620000</speed>
<extensions>
<speed>7.6</speed>
<temp>0.00</temp>
<bpm>0</bpm>
<rpm>0.00</rpm>
</extensions>
</trkpt>
<trkpt lat="63.893299103" lon="-20.556545258">
<ele>29.343750</ele>
<time>2012-07-27T14:28:33Z</time>
<speed>7.560000</speed>
<extensions>
<speed>7.6</speed>
<temp>0.00</temp>
<bpm>0</bpm>
<rpm>0.00</rpm>
</extensions>
</trkpt>
<trkpt lat="63.893447876" lon="-20.557199478">
<ele>29.143066</ele>
<time>2012-07-27T14:28:38Z</time>
<speed>6.940000</speed>
<extensions>
<speed>6.9</speed>
<temp>0.00</temp>
<bpm>0</bpm>
<rpm>0.00</rpm>
</extensions>
</trkpt>
<trkpt lat="63.893592834" lon="-20.557806015">
<ele>29.213379</ele>
<time>2012-07-27T14:28:43Z</time>
<speed>6.620000</speed>
<extensions>
<speed>6.6</speed>
<temp>0.00</temp>
<bpm>0</bpm>
<rpm>0.00</rpm>
</extensions>
</trkpt>
<trkpt lat="63.893722534" lon="-20.558382034">
<ele>28.965332</ele>
<time>2012-07-27T14:28:48Z</time>
<speed>5.960000</speed>
<extensions>
<speed>6.0</speed>
<temp>0.00</temp>
<bpm>0</bpm>
<rpm>0.00</rpm>
</extensions>
</trkpt>
<trkpt lat="63.893836975" lon="-20.558860779">
<ele>29.475586</ele>
<time>2012-07-27T14:28:53Z</time>
<speed>4.940000</speed>
<extensions>
<speed>4.9</speed>
<temp>0.00</temp>
<bpm>0</bpm>
<rpm>0.00</rpm>
</extensions>
</trkpt>
<trkpt lat="63.893928528" lon="-20.559274673">
<ele>29.707031</ele>
<time>2012-07-27T14:28:58Z</time>
<speed>4.410000</speed>
<extensions>
<speed>4.4</speed>
<temp>0.00</temp>
<bpm>0</bpm>
<rpm>0.00</rpm>
</extensions>
</trkpt>
<trkpt lat="63.894016266" lon="-20.559619904">
<ele>29.416504</ele>
<time>2012-07-27T14:29:03Z</time>
<speed>3.780000</speed>
<extensions>
<speed>3.8</speed>
<temp>0.00</temp>
<bpm>0</bpm>
<rpm>0.00</rpm>
</extensions>
</trkpt>
<trkpt lat="63.894088745" lon="-20.559955597">
<ele>29.895508</ele>
<time>2012-07-27T14:29:08Z</time>
<speed>3.420000</speed>
<extensions>
<speed>3.4</speed>
<temp>0.00</temp>
<bpm>0</bpm>
<rpm>0.00</rpm>
</extensions>
</trkpt>
<trkpt lat="63.894153595" lon="-20.560241699">
<ele>29.632324</ele>
<time>2012-07-27T14:29:13Z</time>
<speed>3.100000</speed>
<extensions>
<speed>3.1</speed>
<temp>0.00</temp>
<bpm>0</bpm>
<rpm>0.00</rpm>
</extensions>
</trkpt>
<trkpt lat="63.894210815" lon="-20.560531616">
<ele>29.298828</ele>
<time>2012-07-27T14:29:18Z</time>
<speed>3.430000</speed>
<extensions>
<speed>3.4</speed>
<temp>0.00</temp>
<bpm>0</bpm>
<rpm>0.00</rpm>
</extensions>
</trkpt>
<trkpt lat="63.894287109" lon="-20.560846329">
<ele>28.769043</ele>
<time>2012-07-27T14:29:23Z</time>
<speed>3.400000</speed>
<extensions>
<speed>3.4</speed>
<temp>0.00</temp>
<bpm>0</bpm>
<rpm>0.00</rpm>
</extensions>
</trkpt>
<trkpt lat="63.894351959" lon="-20.561119080">
<ele>28.182129</ele>
<time>2012-07-27T14:29:28Z</time>
<speed>3.140000</speed>
<extensions>
<speed>3.1</speed>
<temp>0.00</temp>
<bpm>0</bpm>
<rpm>0.00</rpm>
</extensions>
</trkpt>
<trkpt lat="63.894412994" lon="-20.561384201">
<ele>28.214355</ele>
<time>2012-07-27T14:29:33Z</time>
<speed>2.900000</speed>
<extensions>
<speed>2.9</speed>
<temp>0.00</temp>
<bpm>0</bpm>
<rpm>0.00</rpm>
</extensions>
</trkpt>
<trkpt lat="63.894466400" lon="-20.561653137">
<ele>27.880371</ele>
<time>2012-07-27T14:29:38Z</time>
<speed>2.910000</speed>
<extensions>
<speed>2.9</speed>
<temp>0.00</temp>
<bpm>0</bpm>
<rpm>0.00</rpm>
</extensions>
</trkpt>
<trkpt lat="63.894523621" lon="-20.561889648">
<ele>28.081543</ele>
<time>2012-07-27T14:29:43Z</time>
<speed>2.630000</speed>
<extensions>
<speed>2.6</speed>
<temp>0.00</temp>
<bpm>0</bpm>
<rpm>0.00</rpm>
</extensions>
</trkpt>
<trkpt lat="63.894588470" lon="-20.562175751">
<ele>28.112793</ele>
<time>2012-07-27T14:29:48Z</time>
<speed>3.830000</speed>
<extensions>
<speed>3.8</speed>
<temp>0.00</temp>
<bpm>0</bpm>
<rpm>0.00</rpm>
</extensions>
</trkpt>
<trkpt lat="63.894672394" lon="-20.562540054">
<ele>28.441895</ele>
<time>2012-07-27T14:29:53Z</time>
<speed>4.240000</speed>
<extensions>
<speed>4.2</speed>
<temp>0.00</temp>
<bpm>0</bpm>
<rpm>0.00</rpm>
</extensions>
</trkpt>
<trkpt lat="63.894760132" lon="-20.562934875">
<ele>28.621094</ele>
<time>2012-07-27T14:29:58Z</time>
<speed>4.040000</speed>
<extensions>
<speed>4.0</speed>
<temp>0.00</temp>
<bpm>0</bpm>
<rpm>0.00</rpm>
</extensions>
</trkpt>
<trkpt lat="63.894840240" lon="-20.563280106">
<ele>29.100098</ele>
<time>2012-07-27T14:30:03Z</time>
<speed>3.960000</speed>
<extensions>
<speed>4.0</speed>
<temp>0.00</temp>
<bpm>0</bpm>
<rpm>0.00</rpm>
</extensions>
</trkpt>
<trkpt lat="63.894916534" lon="-20.563636780">
<ele>29.128906</ele>
<time>2012-07-27T14:30:08Z</time>
<speed>3.810000</speed>
<extensions>
<speed>3.8</speed>
<temp>0.00</temp>
<bpm>0</bpm>
<rpm>0.00</rpm>
</extensions>
</trkpt>
<trkpt lat="63.894996643" lon="-20.563980103">
<ele>28.721191</ele>
<time>2012-07-27T14:30:13Z</time>
<speed>3.780000</speed>
<extensions>
<speed>3.8</speed>
<temp>0.00</temp>
<bpm>0</bpm>
<rpm>0.00</rpm>
</extensions>
</trkpt>
<trkpt lat="63.895084381" lon="-20.564336777">
<ele>28.308594</ele>
<time>2012-07-27T14:30:18Z</time>
<speed>4.050000</speed>
<extensions>
<speed>4.0</speed>
<temp>0.00</temp>
<bpm>0</bpm>
<rpm>0.00</rpm>
</extensions>
</trkpt>
<trkpt lat="63.895149231" lon="-20.564685822">
<ele>27.271484</ele>
<time>2012-07-27T14:30:23Z</time>
<speed>3.800000</speed>
<extensions>
<speed>3.8</speed>
<temp>0.00</temp>
<bpm>0</bpm>
<rpm>0.00</rpm>
</extensions>
</trkpt>
<trkpt lat="63.895221710" lon="-20.565044403">
<ele>28.196289</ele>
<time>2012-07-27T14:30:28Z</time>
<speed>4.170000</speed>
<extensions>
<speed>4.2</speed>
<temp>0.00</temp>
<bpm>0</bpm>
<rpm>0.00</rpm>
</extensions>
</trkpt>
<trkpt lat="63.895324707" lon="-20.565433502">
<ele>27.912109</ele>
<time>2012-07-27T14:30:33Z</time>
<speed>4.640000</speed>
<extensions>
<speed>4.6</speed>
<temp>0.00</temp>
<bpm>0</bpm>
<rpm>0.00</rpm>
</extensions>
</trkpt>
<trkpt lat="63.895423889" lon="-20.565856934">
<ele>28.208496</ele>
<time>2012-07-27T14:30:38Z</time>
<speed>4.360000</speed>
<extensions>
<speed>4.4</speed>
<temp>0.00</temp>
<bpm>0</bpm>
<rpm>0.00</rpm>
</extensions>
</trkpt>
<trkpt lat="63.895511627" lon="-20.566236496">
<ele>28.090820</ele>
<time>2012-07-27T14:30:43Z</time>
<speed>4.000000</speed>
<extensions>
<speed>4.0</speed>
<temp>0.00</temp>
<bpm>0</bpm>
<rpm>0.00</rpm>
</extensions>
</trkpt>
<trkpt lat="63.895591736" lon="-20.566598892">
<ele>27.585938</ele>
<time>2012-07-27T14:30:48Z</time>
<speed>4.150000</speed>
<extensions>
<speed>4.1</speed>
<temp>0.00</temp>
<bpm>0</bpm>
<rpm>0.00</rpm>
</extensions>
</trkpt>
<trkpt lat="63.895687103" lon="-20.566986084">
<ele>27.483887</ele>
<time>2012-07-27T14:30:53Z</time>
<speed>4.540000</speed>
<extensions>
<speed>4.5</speed>
<temp>0.00</temp>
<bpm>0</bpm>
<rpm>0.00</rpm>
</extensions>
</trkpt>
<trkpt lat="63.895778656" lon="-20.567407608">
<ele>27.168945</ele>
<time>2012-07-27T14:30:58Z</time>
<speed>4.510000</speed>
<extensions>
<speed>4.5</speed>
<temp>0.00</temp>
<bpm>0</bpm>
<rpm>0.00</rpm>
</extensions>
</trkpt>
<trkpt lat="63.895870209" lon="-20.567825317">
<ele>27.074707</ele>
<time>2012-07-27T14:31:03Z</time>
<speed>4.530000</speed>
<extensions>
<speed>4.5</speed>
<temp>0.00</temp>
<bpm>0</bpm>
<rpm>0.00</rpm>
</extensions>
</trkpt>
<trkpt lat="63.895957947" lon="-20.568195343">
<ele>27.254883</ele>
<time>2012-07-27T14:31:08Z</time>
<speed>3.970000</speed>
<extensions>
<speed>4.0</speed>
<temp>0.00</temp>
<bpm>0</bpm>
<rpm>0.00</rpm>
</extensions>
</trkpt>
<trkpt lat="63.896034241" lon="-20.568536758">
<ele>26.687988</ele>
<time>2012-07-27T14:31:13Z</time>
<speed>3.770000</speed>
<extensions>
<speed>3.8</speed>
<temp>0.00</temp>
<bpm>0</bpm>
<rpm>0.00</rpm>
</extensions>
</trkpt>
<trkpt lat="63.896110535" lon="-20.568866730">
<ele>25.497559</ele>
<time>2012-07-27T14:31:18Z</time>
<speed>3.670000</speed>
<extensions>
<speed>3.7</speed>
<temp>0.00</temp>
<bpm>0</bpm>
<rpm>0.00</rpm>
</extensions>
</trkpt>
<trkpt lat="63.896186829" lon="-20.569198608">
<ele>25.012207</ele>
<time>2012-07-27T14:31:23Z</time>
<speed>3.560000</speed>
<extensions>
<speed>3.6</speed>
<temp>0.00</temp>
<bpm>0</bpm>
<rpm>0.00</rpm>
</extensions>
</trkpt>
<trkpt lat="63.896255493" lon="-20.569526672">
<ele>24.334961</ele>
<time>2012-07-27T14:31:28Z</time>
<speed>3.470000</speed>
<extensions>
<speed>3.5</speed>
<temp>0.00</temp>
<bpm>0</bpm>
<rpm>0.00</rpm>
</extensions>
</trkpt>
<trkpt lat="63.896327972" lon="-20.569839478">
<ele>24.270020</ele>
<time>2012-07-27T14:31:33Z</time>
<speed>3.610000</speed>
<extensions>
<speed>3.6</speed>
<temp>0.00</temp>
<bpm>0</bpm>
<rpm>0.00</rpm>
</extensions>
</trkpt>
<trkpt lat="63.896411896" lon="-20.570224762">
<ele>24.194824</ele>
<time>2012-07-27T14:31:38Z</time>
<speed>4.830000</speed>
<extensions>
<speed>4.8</speed>
<temp>0.00</temp>
<bpm>0</bpm>
<rpm>0.00</rpm>
</extensions>
</trkpt>
<trkpt lat="63.896518707" lon="-20.570680618">
<ele>23.628418</ele>
<time>2012-07-27T14:31:43Z</time>
<speed>5.050000</speed>
<extensions>
<speed>5.1</speed>
<temp>0.00</temp>
<bpm>0</bpm>
<rpm>0.00</rpm>
</extensions>
</trkpt>
<trkpt lat="63.896625519" lon="-20.571157455">
<ele>22.779297</ele>
<time>2012-07-27T14:31:48Z</time>
<speed>5.430000</speed>
<extensions>
<speed>5.4</speed>
<temp>0.00</temp>
<bpm>0</bpm>
<rpm>0.00</rpm>
</extensions>
</trkpt>
<trkpt lat="63.896747589" lon="-20.571680069">
<ele>22.145020</ele>
<time>2012-07-27T14:31:53Z</time>
<speed>6.120000</speed>
<extensions>
<speed>6.1</speed>
<temp>0.00</temp>
<bpm>0</bpm>
<rpm>0.00</rpm>
</extensions>
</trkpt>
<trkpt lat="63.896869659" lon="-20.572231293">
<ele>21.600098</ele>
<time>2012-07-27T14:31:58Z</time>
<speed>6.190000</speed>
<extensions>
<speed>6.2</speed>
<temp>0.00</temp>
<bpm>0</bpm>
<rpm>0.00</rpm>
</extensions>
</trkpt>
<trkpt lat="63.896999359" lon="-20.572786331">
<ele>20.604492</ele>
<time>2012-07-27T14:32:03Z</time>
<speed>6.050000</speed>
<extensions>
<speed>6.1</speed>
<temp>0.00</temp>
<bpm>0</bpm>
<rpm>0.00</rpm>
</extensions>
</trkpt>
<trkpt lat="63.897125244" lon="-20.573329926">
<ele>20.432617</ele>
<time>2012-07-27T14:32:08Z</time>
<speed>5.930000</speed>
<extensions>
<speed>5.9</speed>
<temp>0.00</temp>
<bpm>0</bpm>
<rpm>0.00</rpm>
</extensions>
</trkpt>
<trkpt lat="63.897254944" lon="-20.573875427">
<ele>19.709961</ele>
<time>2012-07-27T14:32:13Z</time>
<speed>6.060000</speed>
<extensions>
<speed>6.1</speed>
<temp>0.00</temp>
<bpm>0</bpm>
<rpm>0.00</rpm>
</extensions>
</trkpt>
<trkpt lat="63.897377014" lon="-20.574415207">
<ele>19.768066</ele>
<time>2012-07-27T14:32:18Z</time>
<speed>5.700000</speed>
<extensions>
<speed>5.7</speed>
<temp>0.00</temp>
<bpm>0</bpm>
<rpm>0.00</rpm>
</extensions>
</trkpt>
<trkpt lat="63.897502899" lon="-20.574943542">
<ele>19.396484</ele>
<time>2012-07-27T14:32:23Z</time>
<speed>5.920000</speed>
<extensions>
<speed>5.9</speed>
<temp>0.00</temp>
<bpm>0</bpm>
<rpm>0.00</rpm>
</extensions>
</trkpt>
<trkpt lat="63.897621155" lon="-20.575471878">
<ele>19.455566</ele>
<time>2012-07-27T14:32:28Z</time>
<speed>5.540000</speed>
<extensions>
<speed>5.5</speed>
<temp>0.00</temp>
<bpm>0</bpm>
<rpm>0.00</rpm>
</extensions>
</trkpt>
<trkpt lat="63.897735596" lon="-20.575990677">
<ele>19.001465</ele>
<time>2012-07-27T14:32:33Z</time>
<speed>5.890000</speed>
<extensions>
<speed>5.9</speed>
<temp>0.00</temp>
<bpm>0</bpm>
<rpm>0.00</rpm>
</extensions>
</trkpt>
<trkpt lat="63.897865295" lon="-20.576547623">
<ele>18.568359</ele>
<time>2012-07-27T14:32:38Z</time>
<speed>6.290000</speed>
<extensions>
<speed>6.3</speed>
<temp>0.00</temp>
<bpm>0</bpm>
<rpm>0.00</rpm>
</extensions>
</trkpt>
<trkpt lat="63.897994995" lon="-20.577108383">
<ele>18.277832</ele>
<time>2012-07-27T14:32:43Z</time>
<speed>5.960000</speed>
<extensions>
<speed>6.0</speed>
<temp>0.00</temp>
<bpm>0</bpm>
<rpm>0.00</rpm>
</extensions>
</trkpt>
<trkpt lat="63.898105621" lon="-20.577625275">
<ele>17.753906</ele>
<time>2012-07-27T14:32:48Z</time>
<speed>5.240000</speed>
<extensions>
<speed>5.2</speed>
<temp>0.00</temp>
<bpm>0</bpm>
<rpm>0.00</rpm>
</extensions>
</trkpt>
<trkpt lat="63.898197174" lon="-20.578090668">
<ele>17.918457</ele>
<time>2012-07-27T14:32:53Z</time>
<speed>4.650000</speed>
<extensions>
<speed>4.6</speed>
<temp>0.00</temp>
<bpm>0</bpm>
<rpm>0.00</rpm>
</extensions>
</trkpt>
<trkpt lat="63.898281097" lon="-20.578521729">
<ele>18.241699</ele>
<time>2012-07-27T14:32:58Z</time>
<speed>4.610000</speed>
<extensions>
<speed>4.6</speed>
<temp>0.00</temp>
<bpm>0</bpm>
<rpm>0.00</rpm>
</extensions>
</trkpt>
<trkpt lat="63.898376465" lon="-20.578956604">
<ele>17.917969</ele>
<time>2012-07-27T14:33:03Z</time>
<speed>4.970000</speed>
<extensions>
<speed>5.0</speed>
<temp>0.00</temp>
<bpm>0</bpm>
<rpm>0.00</rpm>
</extensions>
</trkpt>
<trkpt lat="63.898483276" lon="-20.579402924">
<ele>18.280762</ele>
<time>2012-07-27T14:33:08Z</time>
<speed>4.830000</speed>
<extensions>
<speed>4.8</speed>
<temp>0.00</temp>
<bpm>0</bpm>
<rpm>0.00</rpm>
</extensions>
</trkpt>
<trkpt lat="63.898578644" lon="-20.579845428">
<ele>18.697754</ele>
<time>2012-07-27T14:33:13Z</time>
<speed>4.750000</speed>
<extensions>
<speed>4.8</speed>
<temp>0.00</temp>
<bpm>0</bpm>
<rpm>0.00</rpm>
</extensions>
</trkpt>
<trkpt lat="63.898674011" lon="-20.580293655">
<ele>19.272949</ele>
<time>2012-07-27T14:33:18Z</time>
<speed>4.820000</speed>
<extensions>
<speed>4.8</speed>
<temp>0.00</temp>
<bpm>0</bpm>
<rpm>0.00</rpm>
</extensions>
</trkpt>
<trkpt lat="63.898784637" lon="-20.580701828">
<ele>19.150391</ele>
<time>2012-07-27T14:33:23Z</time>
<speed>4.360000</speed>
<extensions>
<speed>4.4</speed>
<temp>0.00</temp>
<bpm>0</bpm>
<rpm>0.00</rpm>
</extensions>
</trkpt>
<trkpt lat="63.898876190" lon="-20.581073761">
<ele>19.189453</ele>
<time>2012-07-27T14:33:28Z</time>
<speed>4.090000</speed>
<extensions>
<speed>4.1</speed>
<temp>0.00</temp>
<bpm>0</bpm>
<rpm>0.00</rpm>
</extensions>
</trkpt>
<trkpt lat="63.898960114" lon="-20.581407547">
<ele>19.115723</ele>
<time>2012-07-27T14:33:33Z</time>
<speed>3.670000</speed>
<extensions>
<speed>3.7</speed>
<temp>0.00</temp>
<bpm>0</bpm>
<rpm>0.00</rpm>
</extensions>
</trkpt>
<trkpt lat="63.899024963" lon="-20.581726074">
<ele>19.330566</ele>
<time>2012-07-27T14:33:38Z</time>
<speed>3.760000</speed>
<extensions>
<speed>3.8</speed>
<temp>0.00</temp>
<bpm>0</bpm>
<rpm>0.00</rpm>
</extensions>
</trkpt>
<trkpt lat="63.899116516" lon="-20.582073212">
<ele>19.512207</ele>
<time>2012-07-27T14:33:43Z</time>
<speed>3.760000</speed>
<extensions>
<speed>3.8</speed>
<temp>0.00</temp>
<bpm>0</bpm>
<rpm>0.00</rpm>
</extensions>
</trkpt>
<trkpt lat="63.899181366" lon="-20.582376480">
<ele>19.891113</ele>
<time>2012-07-27T14:33:48Z</time>
<speed>3.460000</speed>
<extensions>
<speed>3.5</speed>
<temp>0.00</temp>
<bpm>0</bpm>
<rpm>0.00</rpm>
</extensions>
</trkpt>
<trkpt lat="63.899253845" lon="-20.582695007">
<ele>19.914551</ele>
<time>2012-07-27T14:33:53Z</time>
<speed>3.520000</speed>
<extensions>
<speed>3.5</speed>
<temp>0.00</temp>
<bpm>0</bpm>
<rpm>0.00</rpm>
</extensions>
</trkpt>
<trkpt lat="63.899322510" lon="-20.583017349">
<ele>20.429199</ele>
<time>2012-07-27T14:33:58Z</time>
<speed>3.400000</speed>
<extensions>
<speed>3.4</speed>
<temp>0.00</temp>
<bpm>0</bpm>
<rpm>0.00</rpm>
</extensions>
</trkpt>
<trkpt lat="63.899394989" lon="-20.583330154">
<ele>20.798828</ele>
<time>2012-07-27T14:34:03Z</time>
<speed>3.220000</speed>
<extensions>
<speed>3.2</speed>
<temp>0.00</temp>
<bpm>0</bpm>
<rpm>0.00</rpm>
</extensions>
</trkpt>
<trkpt lat="63.899463654" lon="-20.583625793">
<ele>20.388672</ele>
<time>2012-07-27T14:34:08Z</time>
<speed>3.190000</speed>
<extensions>
<speed>3.2</speed>
<temp>0.00</temp>
<bpm>0</bpm>
<rpm>0.00</rpm>
</extensions>
</trkpt>
<trkpt lat="63.899539948" lon="-20.583911896">
<ele>20.458984</ele>
<time>2012-07-27T14:34:13Z</time>
<speed>3.260000</speed>
<extensions>
<speed>3.3</speed>
<temp>0.00</temp>
<bpm>0</bpm>
<rpm>0.00</rpm>
</extensions>
</trkpt>
<trkpt lat="63.899597168" lon="-20.584213257">
<ele>20.924316</ele>
<time>2012-07-27T14:34:18Z</time>
<speed>3.350000</speed>
<extensions>
<speed>3.4</speed>
<temp>0.00</temp>
<bpm>0</bpm>
<rpm>0.00</rpm>
</extensions>
</trkpt>
<trkpt lat="63.899658203" lon="-20.584514618">
<ele>21.721191</ele>
<time>2012-07-27T14:34:23Z</time>
<speed>3.500000</speed>
<extensions>
<speed>3.5</speed>
<temp>0.00</temp>
<bpm>0</bpm>
<rpm>0.00</rpm>
</extensions>
</trkpt>
<trkpt lat="63.899734497" lon="-20.584815979">
<ele>21.801758</ele>
<time>2012-07-27T14:34:28Z</time>
<speed>3.250000</speed>
<extensions>
<speed>3.2</speed>
<temp>0.00</temp>
<bpm>0</bpm>
<rpm>0.00</rpm>
</extensions>
</trkpt>
<trkpt lat="63.899806976" lon="-20.585109711">
<ele>22.521973</ele>
<time>2012-07-27T14:34:33Z</time>
<speed>2.900000</speed>
<extensions>
<speed>2.9</speed>
<temp>0.00</temp>
<bpm>0</bpm>
<rpm>0.00</rpm>
</extensions>
</trkpt>
<trkpt lat="63.899879456" lon="-20.585403442">
<ele>22.567383</ele>
<time>2012-07-27T14:34:38Z</time>
<speed>3.450000</speed>
<extensions>
<speed>3.5</speed>
<temp>0.00</temp>
<bpm>0</bpm>
<rpm>0.00</rpm>
</extensions>
</trkpt>
<trkpt lat="63.899951935" lon="-20.585712433">
<ele>22.651367</ele>
<time>2012-07-27T14:34:43Z</time>
<speed>3.170000</speed>
<extensions>
<speed>3.2</speed>
<temp>0.00</temp>
<bpm>0</bpm>
<rpm>0.00</rpm>
</extensions>
</trkpt>
<trkpt lat="63.900024414" lon="-20.586004257">
<ele>22.751465</ele>
<time>2012-07-27T14:34:48Z</time>
<speed>3.330000</speed>
<extensions>
<speed>3.3</speed>
<temp>0.00</temp>
<bpm>0</bpm>
<rpm>0.00</rpm>
</extensions>
</trkpt>
<trkpt lat="63.900108337" lon="-20.586328506">
<ele>23.212891</ele>
<time>2012-07-27T14:34:53Z</time>
<speed>3.440000</speed>
<extensions>
<speed>3.4</speed>
<temp>0.00</temp>
<bpm>0</bpm>
<rpm>0.00</rpm>
</extensions>
</trkpt>
<trkpt lat="63.900196075" lon="-20.586616516">
<ele>23.709961</ele>
<time>2012-07-27T14:34:58Z</time>
<speed>3.460000</speed>
<extensions>
<speed>3.5</speed>
<temp>0.00</temp>
<bpm>0</bpm>
<rpm>0.00</rpm>
</extensions>
</trkpt>
<trkpt lat="63.900291443" lon="-20.586914063">
<ele>23.969727</ele>
<time>2012-07-27T14:35:03Z</time>
<speed>3.530000</speed>
<extensions>
<speed>3.5</speed>
<temp>0.00</temp>
<bpm>0</bpm>
<rpm>0.00</rpm>
</extensions>
</trkpt>
<trkpt lat="63.900394440" lon="-20.587175369">
<ele>23.928223</ele>
<time>2012-07-27T14:35:08Z</time>
<speed>3.440000</speed>
<extensions>
<speed>3.4</speed>
<temp>0.00</temp>
<bpm>0</bpm>
<rpm>0.00</rpm>
</extensions>
</trkpt>
<trkpt lat="63.900493622" lon="-20.587434769">
<ele>24.060547</ele>
<time>2012-07-27T14:35:13Z</time>
<speed>3.460000</speed>
<extensions>
<speed>3.5</speed>
<temp>0.00</temp>
<bpm>0</bpm>
<rpm>0.00</rpm>
</extensions>
</trkpt>
<trkpt lat="63.900611877" lon="-20.587677002">
<ele>24.698242</ele>
<time>2012-07-27T14:35:18Z</time>
<speed>3.380000</speed>
<extensions>
<speed>3.4</speed>
<temp>0.00</temp>
<bpm>0</bpm>
<rpm>0.00</rpm>
</extensions>
</trkpt>
<trkpt lat="63.900722504" lon="-20.587907791">
<ele>24.344238</ele>
<time>2012-07-27T14:35:23Z</time>
<speed>3.450000</speed>
<extensions>
<speed>3.5</speed>
<temp>0.00</temp>
<bpm>0</bpm>
<rpm>0.00</rpm>
</extensions>
</trkpt>
<trkpt lat="63.900836945" lon="-20.588130951">
<ele>24.059082</ele>
<time>2012-07-27T14:35:28Z</time>
<speed>3.550000</speed>
<extensions>
<speed>3.5</speed>
<temp>0.00</temp>
<bpm>0</bpm>
<rpm>0.00</rpm>
</extensions>
</trkpt>
<trkpt lat="63.900955200" lon="-20.588329315">
<ele>23.327637</ele>
<time>2012-07-27T14:35:33Z</time>
<speed>3.400000</speed>
<extensions>
<speed>3.4</speed>
<temp>0.00</temp>
<bpm>0</bpm>
<rpm>0.00</rpm>
</extensions>
</trkpt>
<trkpt lat="63.901088715" lon="-20.588514328">
<ele>22.744141</ele>
<time>2012-07-27T14:35:38Z</time>
<speed>3.340000</speed>
<extensions>
<speed>3.3</speed>
<temp>0.00</temp>
<bpm>0</bpm>
<rpm>0.00</rpm>
</extensions>
</trkpt>
<trkpt lat="63.901203156" lon="-20.588693619">
<ele>22.190918</ele>
<time>2012-07-27T14:35:43Z</time>
<speed>3.190000</speed>
<extensions>
<speed>3.2</speed>
<temp>0.00</temp>
<bpm>0</bpm>
<rpm>0.00</rpm>
</extensions>
</trkpt>
<trkpt lat="63.901313782" lon="-20.588850021">
<ele>22.183594</ele>
<time>2012-07-27T14:35:48Z</time>
<speed>2.840000</speed>
<extensions>
<speed>2.8</speed>
<temp>0.00</temp>
<bpm>0</bpm>
<rpm>0.00</rpm>
</extensions>
</trkpt>
<trkpt lat="63.901424408" lon="-20.588993073">
<ele>22.849609</ele>
<time>2012-07-27T14:35:53Z</time>
<speed>3.000000</speed>
<extensions>
<speed>3.0</speed>
<temp>0.00</temp>
<bpm>0</bpm>
<rpm>0.00</rpm>
</extensions>
</trkpt>
<trkpt lat="63.901523590" lon="-20.589105606">
<ele>22.599121</ele>
<time>2012-07-27T14:35:58Z</time>
<speed>2.090000</speed>
<extensions>
<speed>2.1</speed>
<temp>0.00</temp>
<bpm>0</bpm>
<rpm>0.00</rpm>
</extensions>
</trkpt>
<trkpt lat="63.901622772" lon="-20.589200974">
<ele>22.787109</ele>
<time>2012-07-27T14:36:03Z</time>
<speed>2.160000</speed>
<extensions>
<speed>2.2</speed>
<temp>0.00</temp>
<bpm>0</bpm>
<rpm>0.00</rpm>
</extensions>
</trkpt>
<trkpt lat="63.901718140" lon="-20.589281082">
<ele>23.456055</ele>
<time>2012-07-27T14:36:08Z</time>
<speed>2.380000</speed>
<extensions>
<speed>2.4</speed>
<temp>0.00</temp>
<bpm>0</bpm>
<rpm>0.00</rpm>
</extensions>
</trkpt>
<trkpt lat="63.901805878" lon="-20.589355469">
<ele>24.434570</ele>
<time>2012-07-27T14:36:13Z</time>
<speed>1.830000</speed>
<extensions>
<speed>1.8</speed>
<temp>0.00</temp>
<bpm>0</bpm>
<rpm>0.00</rpm>
</extensions>
</trkpt>
<trkpt lat="63.901889801" lon="-20.589426041">
<ele>25.051758</ele>
<time>2012-07-27T14:36:18Z</time>
<speed>2.150000</speed>
<extensions>
<speed>2.1</speed>
<temp>0.00</temp>
<bpm>0</bpm>
<rpm>0.00</rpm>
</extensions>
</trkpt>
<trkpt lat="63.901981354" lon="-20.589477539">
<ele>25.937012</ele>
<time>2012-07-27T14:36:23Z</time>
<speed>1.910000</speed>
<extensions>
<speed>1.9</speed>
<temp>0.00</temp>
<bpm>0</bpm>
<rpm>0.00</rpm>
</extensions>
</trkpt>
<trkpt lat="63.902061462" lon="-20.589517593">
<ele>26.314941</ele>
<time>2012-07-27T14:36:28Z</time>
<speed>1.300000</speed>
<extensions>
<speed>1.3</speed>
<temp>0.00</temp>
<bpm>0</bpm>
<rpm>0.00</rpm>
</extensions>
</trkpt>
<trkpt lat="63.902084351" lon="-20.589538574">
<ele>25.555176</ele>
<time>2012-07-27T14:36:33Z</time>
<speed>0.030000</speed>
<extensions>
<speed>0.0</speed>
<temp>0.00</temp>
<bpm>0</bpm>
<rpm>0.00</rpm>
</extensions>
</trkpt>
<trkpt lat="63.902084351" lon="-20.589540482">
<ele>25.453613</ele>
<time>2012-07-27T14:36:38Z</time>
<speed>0.010000</speed>
<extensions>
<speed>0.0</speed>
<temp>0.00</temp>
<bpm>0</bpm>
<rpm>0.00</rpm>
</extensions>
</trkpt>
<trkpt lat="63.902084351" lon="-20.589542389">
<ele>25.362793</ele>
<time>2012-07-27T14:36:43Z</time>
<extensions>
<speed>0.0</speed>
<temp>0.00</temp>
<bpm>0</bpm>
<rpm>0.00</rpm>
</extensions>
</trkpt>
<trkpt lat="63.902088165" lon="-20.589548111">
<ele>25.541504</ele>
<time>2012-07-27T14:36:48Z</time>
<speed>0.020000</speed>
<extensions>
<speed>0.0</speed>
<temp>0.00</temp>
<bpm>0</bpm>
<rpm>0.00</rpm>
</extensions>
</trkpt>
<trkpt lat="63.902088165" lon="-20.589546204">
<ele>25.677246</ele>
<time>2012-07-27T14:36:53Z</time>
<speed>0.010000</speed>
<extensions>
<speed>0.0</speed>
<temp>0.00</temp>
<bpm>0</bpm>
<rpm>0.00</rpm>
</extensions>
</trkpt>
<trkpt lat="63.902088165" lon="-20.589546204">
<ele>25.721680</ele>
<time>2012-07-27T14:36:58Z</time>
<extensions>
<speed>0.0</speed>
<temp>0.00</temp>
<bpm>0</bpm>
<rpm>0.00</rpm>
</extensions>
</trkpt>
<trkpt lat="63.902088165" lon="-20.589546204">
<ele>25.744629</ele>
<time>2012-07-27T14:37:03Z</time>
<extensions>
<speed>0.0</speed>
<temp>0.00</temp>
<bpm>0</bpm>
<rpm>0.00</rpm>
</extensions>
</trkpt>
<trkpt lat="63.902088165" lon="-20.589546204">
<ele>25.767090</ele>
<time>2012-07-27T14:37:08Z</time>
<speed>0.050000</speed>
<extensions>
<speed>0.1</speed>
<temp>0.00</temp>
<bpm>0</bpm>
<rpm>0.00</rpm>
</extensions>
</trkpt>
<trkpt lat="63.902088165" lon="-20.589546204">
<ele>25.782227</ele>
<time>2012-07-27T14:37:13Z</time>
<extensions>
<speed>0.0</speed>
<temp>0.00</temp>
<bpm>0</bpm>
<rpm>0.00</rpm>
</extensions>
</trkpt>
<trkpt lat="63.902084351" lon="-20.589540482">
<ele>25.872070</ele>
<time>2012-07-27T14:37:18Z</time>
<speed>0.510000</speed>
<extensions>
<speed>0.5</speed>
<temp>0.00</temp>
<bpm>0</bpm>
<rpm>0.00</rpm>
</extensions>
</trkpt>
<trkpt lat="63.902103424" lon="-20.589540482">
<ele>26.181152</ele>
<time>2012-07-27T14:37:23Z</time>
<speed>0.680000</speed>
<extensions>
<speed>0.7</speed>
<temp>0.00</temp>
<bpm>0</bpm>
<rpm>0.00</rpm>
</extensions>
</trkpt>
<trkpt lat="63.902114868" lon="-20.589542389">
<ele>25.991211</ele>
<time>2012-07-27T14:37:28Z</time>
<speed>0.280000</speed>
<extensions>
<speed>0.3</speed>
<temp>0.00</temp>
<bpm>0</bpm>
<rpm>0.00</rpm>
</extensions>
</trkpt>
<trkpt lat="63.902122498" lon="-20.589550018">
<ele>25.731445</ele>
<time>2012-07-27T14:37:33Z</time>
<speed>0.510000</speed>
<extensions>
<speed>0.5</speed>
<temp>0.00</temp>
<bpm>0</bpm>
<rpm>0.00</rpm>
</extensions>
</trkpt>
<trkpt lat="63.902130127" lon="-20.589582443">
<ele>25.616211</ele>
<time>2012-07-27T14:37:38Z</time>
<speed>0.190000</speed>
<extensions>
<speed>0.2</speed>
<temp>0.00</temp>
<bpm>0</bpm>
<rpm>0.00</rpm>
</extensions>
</trkpt>
<trkpt lat="63.902130127" lon="-20.589582443">
<ele>25.563477</ele>
<time>2012-07-27T14:37:43Z</time>
<speed>0.090000</speed>
<extensions>
<speed>0.1</speed>
<temp>0.00</temp>
<bpm>0</bpm>
<rpm>0.00</rpm>
</extensions>
</trkpt>
<trkpt lat="63.902130127" lon="-20.589584351">
<ele>25.281738</ele>
<time>2012-07-27T14:37:48Z</time>
<speed>0.390000</speed>
<extensions>
<speed>0.4</speed>
<temp>0.00</temp>
<bpm>0</bpm>
<rpm>0.00</rpm>
</extensions>
</trkpt>
<trkpt lat="63.902175903" lon="-20.589591980">
<ele>25.119629</ele>
<time>2012-07-27T14:37:53Z</time>
<speed>1.680000</speed>
<extensions>
<speed>1.7</speed>
<temp>0.00</temp>
<bpm>0</bpm>
<rpm>0.00</rpm>
</extensions>
</trkpt>
<trkpt lat="63.902278900" lon="-20.589635849">
<ele>28.079590</ele>
<time>2012-07-27T14:37:58Z</time>
<speed>2.610000</speed>
<extensions>
<speed>2.6</speed>
<temp>0.00</temp>
<bpm>0</bpm>
<rpm>0.00</rpm>
</extensions>
</trkpt>
<trkpt lat="63.902385712" lon="-20.589689255">
<ele>29.095703</ele>
<time>2012-07-27T14:38:03Z</time>
<speed>2.360000</speed>
<extensions>
<speed>2.4</speed>
<temp>0.00</temp>
<bpm>0</bpm>
<rpm>0.00</rpm>
</extensions>
</trkpt>
<trkpt lat="63.902500153" lon="-20.589731216">
<ele>29.087402</ele>
<time>2012-07-27T14:38:08Z</time>
<speed>2.180000</speed>
<extensions>
<speed>2.2</speed>
<temp>0.00</temp>
<bpm>0</bpm>
<rpm>0.00</rpm>
</extensions>
</trkpt>
<trkpt lat="63.902595520" lon="-20.589757919">
<ele>29.615723</ele>
<time>2012-07-27T14:38:13Z</time>
<speed>1.780000</speed>
<extensions>
<speed>1.8</speed>
<temp>0.00</temp>
<bpm>0</bpm>
<rpm>0.00</rpm>
</extensions>
</trkpt>
<trkpt lat="63.902675629" lon="-20.589776993">
<ele>30.239258</ele>
<time>2012-07-27T14:38:18Z</time>
<speed>1.800000</speed>
<extensions>
<speed>1.8</speed>
<temp>0.00</temp>
<bpm>0</bpm>
<rpm>0.00</rpm>
</extensions>
</trkpt>
<trkpt lat="63.902736664" lon="-20.589776993">
<ele>37.261719</ele>
<time>2012-07-27T14:38:23Z</time>
<speed>1.400000</speed>
<extensions>
<speed>1.4</speed>
<temp>0.00</temp>
<bpm>0</bpm>
<rpm>0.00</rpm>
</extensions>
</trkpt>
<trkpt lat="63.902809143" lon="-20.589824677">
<ele>35.737305</ele>
<time>2012-07-27T14:38:28Z</time>
<speed>1.740000</speed>
<extensions>
<speed>1.7</speed>
<temp>0.00</temp>
<bpm>0</bpm>
<rpm>0.00</rpm>
</extensions>
</trkpt>
<trkpt lat="63.902877808" lon="-20.589859009">
<ele>36.592773</ele>
<time>2012-07-27T14:38:33Z</time>
<speed>1.420000</speed>
<extensions>
<speed>1.4</speed>
<temp>0.00</temp>
<bpm>0</bpm>
<rpm>0.00</rpm>
</extensions>
</trkpt>
<trkpt lat="63.902938843" lon="-20.589866638">
<ele>37.150391</ele>
<time>2012-07-27T14:38:38Z</time>
<speed>1.360000</speed>
<extensions>
<speed>1.4</speed>
<temp>0.00</temp>
<bpm>0</bpm>
<rpm>0.00</rpm>
</extensions>
</trkpt>
<trkpt lat="63.903011322" lon="-20.589883804">
<ele>37.015625</ele>
<time>2012-07-27T14:38:43Z</time>
<speed>1.620000</speed>
<extensions>
<speed>1.6</speed>
<temp>0.00</temp>
<bpm>0</bpm>
<rpm>0.00</rpm>
</extensions>
</trkpt>
<trkpt lat="63.903076172" lon="-20.589918137">
<ele>36.709961</ele>
<time>2012-07-27T14:38:48Z</time>
<speed>1.550000</speed>
<extensions>
<speed>1.5</speed>
<temp>0.00</temp>
<bpm>0</bpm>
<rpm>0.00</rpm>
</extensions>
</trkpt>
<trkpt lat="63.903152466" lon="-20.589937210">
<ele>36.864258</ele>
<time>2012-07-27T14:38:53Z</time>
<speed>1.550000</speed>
<extensions>
<speed>1.5</speed>
<temp>0.00</temp>
<bpm>0</bpm>
<rpm>0.00</rpm>
</extensions>
</trkpt>
<trkpt lat="63.903221130" lon="-20.589950562">
<ele>37.039063</ele>
<time>2012-07-27T14:38:58Z</time>
<speed>1.400000</speed>
<extensions>
<speed>1.4</speed>
<temp>0.00</temp>
<bpm>0</bpm>
<rpm>0.00</rpm>
</extensions>
</trkpt>
<trkpt lat="63.903282166" lon="-20.589971542">
<ele>38.074219</ele>
<time>2012-07-27T14:39:03Z</time>
<speed>1.500000</speed>
<extensions>
<speed>1.5</speed>
<temp>0.00</temp>
<bpm>0</bpm>
<rpm>0.00</rpm>
</extensions>
</trkpt>
<trkpt lat="63.903347015" lon="-20.589994431">
<ele>37.926758</ele>
<time>2012-07-27T14:39:08Z</time>
<speed>1.630000</speed>
<extensions>
<speed>1.6</speed>
<temp>0.00</temp>
<bpm>0</bpm>
<rpm>0.00</rpm>
</extensions>
</trkpt>
<trkpt lat="63.903419495" lon="-20.590009689">
<ele>38.379883</ele>
<time>2012-07-27T14:39:13Z</time>
<speed>1.430000</speed>
<extensions>
<speed>1.4</speed>
<temp>0.00</temp>
<bpm>0</bpm>
<rpm>0.00</rpm>
</extensions>
</trkpt>
<trkpt lat="63.903484344" lon="-20.590030670">
<ele>38.365234</ele>
<time>2012-07-27T14:39:18Z</time>
<speed>1.510000</speed>
<extensions>
<speed>1.5</speed>
<temp>0.00</temp>
<bpm>0</bpm>
<rpm>0.00</rpm>
</extensions>
</trkpt>
<trkpt lat="63.903556824" lon="-20.590055466">
<ele>39.323242</ele>
<time>2012-07-27T14:39:23Z</time>
<speed>1.570000</speed>
<extensions>
<speed>1.6</speed>
<temp>0.00</temp>
<bpm>0</bpm>
<rpm>0.00</rpm>
</extensions>
</trkpt>
<trkpt lat="63.903610229" lon="-20.590068817">
<ele>39.415039</ele>
<time>2012-07-27T14:39:28Z</time>
<speed>1.340000</speed>
<extensions>
<speed>1.3</speed>
<temp>0.00</temp>
<bpm>0</bpm>
<rpm>0.00</rpm>
</extensions>
</trkpt>
<trkpt lat="63.903671265" lon="-20.590099335">
<ele>39.374023</ele>
<time>2012-07-27T14:39:33Z</time>
<speed>1.470000</speed>
<extensions>
<speed>1.5</speed>
<temp>0.00</temp>
<bpm>0</bpm>
<rpm>0.00</rpm>
</extensions>
</trkpt>
<trkpt lat="63.903732300" lon="-20.590118408">
<ele>39.888672</ele>
<time>2012-07-27T14:39:38Z</time>
<speed>1.570000</speed>
<extensions>
<speed>1.6</speed>
<temp>0.00</temp>
<bpm>0</bpm>
<rpm>0.00</rpm>
</extensions>
</trkpt>
<trkpt lat="63.903800964" lon="-20.590148926">
<ele>39.802734</ele>
<time>2012-07-27T14:39:43Z</time>
<speed>1.420000</speed>
<extensions>
<speed>1.4</speed>
<temp>0.00</temp>
<bpm>0</bpm>
<rpm>0.00</rpm>
</extensions>
</trkpt>
<trkpt lat="63.903865814" lon="-20.590175629">
<ele>40.509766</ele>
<time>2012-07-27T14:39:48Z</time>
<speed>0.910000</speed>
<extensions>
<speed>0.9</speed>
<temp>0.00</temp>
<bpm>0</bpm>
<rpm>0.00</rpm>
</extensions>
</trkpt>
<trkpt lat="63.903919220" lon="-20.590198517">
<ele>39.984375</ele>
<time>2012-07-27T14:39:53Z</time>
<speed>1.320000</speed>
<extensions>
<speed>1.3</speed>
<temp>0.00</temp>
<bpm>0</bpm>
<rpm>0.00</rpm>
</extensions>
</trkpt>
<trkpt lat="63.903980255" lon="-20.590217590">
<ele>39.964844</ele>
<time>2012-07-27T14:39:58Z</time>
<speed>1.330000</speed>
<extensions>
<speed>1.3</speed>
<temp>0.00</temp>
<bpm>0</bpm>
<rpm>0.00</rpm>
</extensions>
</trkpt>
<trkpt lat="63.904041290" lon="-20.590242386">
<ele>39.970703</ele>
<time>2012-07-27T14:40:03Z</time>
<speed>1.290000</speed>
<extensions>
<speed>1.3</speed>
<temp>0.00</temp>
<bpm>0</bpm>
<rpm>0.00</rpm>
</extensions>
</trkpt>
<trkpt lat="63.904109955" lon="-20.590253830">
<ele>39.854492</ele>
<time>2012-07-27T14:40:08Z</time>
<speed>1.400000</speed>
<extensions>
<speed>1.4</speed>
<temp>0.00</temp>
<bpm>0</bpm>
<rpm>0.00</rpm>
</extensions>
</trkpt>
<trkpt lat="63.904178619" lon="-20.590265274">
<ele>40.512695</ele>
<time>2012-07-27T14:40:13Z</time>
<speed>1.680000</speed>
<extensions>
<speed>1.7</speed>
<temp>0.00</temp>
<bpm>0</bpm>
<rpm>0.00</rpm>
</extensions>
</trkpt>
<trkpt lat="63.904243469" lon="-20.590299606">
<ele>39.961914</ele>
<time>2012-07-27T14:40:18Z</time>
<speed>1.640000</speed>
<extensions>
<speed>1.6</speed>
<temp>0.00</temp>
<bpm>0</bpm>
<rpm>0.00</rpm>
</extensions>
</trkpt>
<trkpt lat="63.904331207" lon="-20.590341568">
<ele>39.909180</ele>
<time>2012-07-27T14:40:23Z</time>
<speed>1.930000</speed>
<extensions>
<speed>1.9</speed>
<temp>0.00</temp>
<bpm>0</bpm>
<rpm>0.00</rpm>
</extensions>
</trkpt>
<trkpt lat="63.904411316" lon="-20.590370178">
<ele>40.075195</ele>
<time>2012-07-27T14:40:28Z</time>
<speed>1.880000</speed>
<extensions>
<speed>1.9</speed>
<temp>0.00</temp>
<bpm>0</bpm>
<rpm>0.00</rpm>
</extensions>
</trkpt>
<trkpt lat="63.904495239" lon="-20.590406418">
<ele>40.526367</ele>
<time>2012-07-27T14:40:33Z</time>
<speed>1.940000</speed>
<extensions>
<speed>1.9</speed>
<temp>0.00</temp>
<bpm>0</bpm>
<rpm>0.00</rpm>
</extensions>
</trkpt>
<trkpt lat="63.904598236" lon="-20.590429306">
<ele>42.536133</ele>
<time>2012-07-27T14:40:38Z</time>
<speed>2.290000</speed>
<extensions>
<speed>2.3</speed>
<temp>0.00</temp>
<bpm>0</bpm>
<rpm>0.00</rpm>
</extensions>
</trkpt>
<trkpt lat="63.904693604" lon="-20.590465546">
<ele>43.166992</ele>
<time>2012-07-27T14:40:43Z</time>
<speed>2.150000</speed>
<extensions>
<speed>2.1</speed>
<temp>0.00</temp>
<bpm>0</bpm>
<rpm>0.00</rpm>
</extensions>
</trkpt>
<trkpt lat="63.904785156" lon="-20.590497971">
<ele>44.212891</ele>
<time>2012-07-27T14:40:48Z</time>
<speed>2.160000</speed>
<extensions>
<speed>2.2</speed>
<temp>0.00</temp>
<bpm>0</bpm>
<rpm>0.00</rpm>
</extensions>
</trkpt>
<trkpt lat="63.904876709" lon="-20.590551376">
<ele>45.367188</ele>
<time>2012-07-27T14:40:53Z</time>
<speed>2.070000</speed>
<extensions>
<speed>2.1</speed>
<temp>0.00</temp>
<bpm>0</bpm>
<rpm>0.00</rpm>
</extensions>
</trkpt>
<trkpt lat="63.904979706" lon="-20.590616226">
<ele>46.000977</ele>
<time>2012-07-27T14:40:58Z</time>
<speed>2.480000</speed>
<extensions>
<speed>2.5</speed>
<temp>0.00</temp>
<bpm>0</bpm>
<rpm>0.00</rpm>
</extensions>
</trkpt>
<trkpt lat="63.905094147" lon="-20.590698242">
<ele>45.842773</ele>
<time>2012-07-27T14:41:03Z</time>
<speed>2.670000</speed>
<extensions>
<speed>2.7</speed>
<temp>0.00</temp>
<bpm>0</bpm>
<rpm>0.00</rpm>
</extensions>
</trkpt>
<trkpt lat="63.905197144" lon="-20.590782166">
<ele>45.581055</ele>
<time>2012-07-27T14:41:08Z</time>
<speed>2.560000</speed>
<extensions>
<speed>2.6</speed>
<temp>0.00</temp>
<bpm>0</bpm>
<rpm>0.00</rpm>
</extensions>
</trkpt>
<trkpt lat="63.905319214" lon="-20.590892792">
<ele>45.917969</ele>
<time>2012-07-27T14:41:13Z</time>
<speed>2.670000</speed>
<extensions>
<speed>2.7</speed>
<temp>0.00</temp>
<bpm>0</bpm>
<rpm>0.00</rpm>
</extensions>
</trkpt>
<trkpt lat="63.905426025" lon="-20.590991974">
<ele>45.895508</ele>
<time>2012-07-27T14:41:18Z</time>
<speed>2.580000</speed>
<extensions>
<speed>2.6</speed>
<temp>0.00</temp>
<bpm>0</bpm>
<rpm>0.00</rpm>
</extensions>
</trkpt>
<trkpt lat="63.905532837" lon="-20.591125488">
<ele>45.023438</ele>
<time>2012-07-27T14:41:23Z</time>
<speed>2.720000</speed>
<extensions>
<speed>2.7</speed>
<temp>0.00</temp>
<bpm>0</bpm>
<rpm>0.00</rpm>
</extensions>
</trkpt>
<trkpt lat="63.905639648" lon="-20.591245651">
<ele>44.888672</ele>
<time>2012-07-27T14:41:28Z</time>
<speed>2.810000</speed>
<extensions>
<speed>2.8</speed>
<temp>0.00</temp>
<bpm>0</bpm>
<rpm>0.00</rpm>
</extensions>
</trkpt>
<trkpt lat="63.905746460" lon="-20.591392517">
<ele>43.894531</ele>
<time>2012-07-27T14:41:33Z</time>
<speed>3.070000</speed>
<extensions>
<speed>3.1</speed>
<temp>0.00</temp>
<bpm>0</bpm>
<rpm>0.00</rpm>
</extensions>
</trkpt>
<trkpt lat="63.905868530" lon="-20.591552734">
<ele>42.948242</ele>
<time>2012-07-27T14:41:38Z</time>
<speed>3.160000</speed>
<extensions>
<speed>3.2</speed>
<temp>0.00</temp>
<bpm>0</bpm>
<rpm>0.00</rpm>
</extensions>
</trkpt>
<trkpt lat="63.905982971" lon="-20.591707230">
<ele>43.501953</ele>
<time>2012-07-27T14:41:43Z</time>
<speed>2.980000</speed>
<extensions>
<speed>3.0</speed>
<temp>0.00</temp>
<bpm>0</bpm>
<rpm>0.00</rpm>
</extensions>
</trkpt>
<trkpt lat="63.906105042" lon="-20.591831207">
<ele>44.367188</ele>
<time>2012-07-27T14:41:48Z</time>
<speed>2.910000</speed>
<extensions>
<speed>2.9</speed>
<temp>0.00</temp>
<bpm>0</bpm>
<rpm>0.00</rpm>
</extensions>
</trkpt>
<trkpt lat="63.906219482" lon="-20.591983795">
<ele>43.557617</ele>
<time>2012-07-27T14:41:53Z</time>
<speed>2.720000</speed>
<extensions>
<speed>2.7</speed>
<temp>0.00</temp>
<bpm>0</bpm>
<rpm>0.00</rpm>
</extensions>
</trkpt>
<trkpt lat="63.906333923" lon="-20.592092514">
<ele>45.291016</ele>
<time>2012-07-27T14:41:58Z</time>
<speed>2.500000</speed>
<extensions>
<speed>2.5</speed>
<temp>0.00</temp>
<bpm>0</bpm>
<rpm>0.00</rpm>
</extensions>
</trkpt>
<trkpt lat="63.906425476" lon="-20.592229843">
<ele>44.864258</ele>
<time>2012-07-27T14:42:03Z</time>
<speed>2.600000</speed>
<extensions>
<speed>2.6</speed>
<temp>0.00</temp>
<bpm>0</bpm>
<rpm>0.00</rpm>
</extensions>
</trkpt>
<trkpt lat="63.906517029" lon="-20.592334747">
<ele>45.986328</ele>
<time>2012-07-27T14:42:08Z</time>
<speed>1.990000</speed>
<extensions>
<speed>2.0</speed>
<temp>0.00</temp>
<bpm>0</bpm>
<rpm>0.00</rpm>
</extensions>
</trkpt>
<trkpt lat="63.906593323" lon="-20.592454910">
<ele>45.410156</ele>
<time>2012-07-27T14:42:13Z</time>
<speed>2.230000</speed>
<extensions>
<speed>2.2</speed>
<temp>0.00</temp>
<bpm>0</bpm>
<rpm>0.00</rpm>
</extensions>
</trkpt>
<trkpt lat="63.906669617" lon="-20.592552185">
<ele>45.528320</ele>
<time>2012-07-27T14:42:18Z</time>
<speed>2.030000</speed>
<extensions>
<speed>2.0</speed>
<temp>0.00</temp>
<bpm>0</bpm>
<rpm>0.00</rpm>
</extensions>
</trkpt>
<trkpt lat="63.906749725" lon="-20.592672348">
<ele>44.851563</ele>
<time>2012-07-27T14:42:23Z</time>
<speed>2.270000</speed>
<extensions>
<speed>2.3</speed>
<temp>0.00</temp>
<bpm>0</bpm>
<rpm>0.00</rpm>
</extensions>
</trkpt>
<trkpt lat="63.906841278" lon="-20.592773438">
<ele>45.507813</ele>
<time>2012-07-27T14:42:28Z</time>
<speed>1.980000</speed>
<extensions>
<speed>2.0</speed>
<temp>0.00</temp>
<bpm>0</bpm>
<rpm>0.00</rpm>
</extensions>
</trkpt>
<trkpt lat="63.906917572" lon="-20.592849731">
<ele>45.995117</ele>
<time>2012-07-27T14:42:33Z</time>
<speed>2.110000</speed>
<extensions>
<speed>2.1</speed>
<temp>0.00</temp>
<bpm>0</bpm>
<rpm>0.00</rpm>
</extensions>
</trkpt>
<trkpt lat="63.906978607" lon="-20.592929840">
<ele>45.853516</ele>
<time>2012-07-27T14:42:38Z</time>
<speed>1.650000</speed>
<extensions>
<speed>1.7</speed>
<temp>0.00</temp>
<bpm>0</bpm>
<rpm>0.00</rpm>
</extensions>
</trkpt>
<trkpt lat="63.907035828" lon="-20.593029022">
<ele>45.185547</ele>
<time>2012-07-27T14:42:43Z</time>
<speed>1.740000</speed>
<extensions>
<speed>1.7</speed>
<temp>0.00</temp>
<bpm>0</bpm>
<rpm>0.00</rpm>
</extensions>
</trkpt>
<trkpt lat="63.907108307" lon="-20.593097687">
<ele>47.182617</ele>
<time>2012-07-27T14:42:48Z</time>
<speed>1.760000</speed>
<extensions>
<speed>1.8</speed>
<temp>0.00</temp>
<bpm>0</bpm>
<rpm>0.00</rpm>
</extensions>
</trkpt>
<trkpt lat="63.907184601" lon="-20.593162537">
<ele>48.240234</ele>
<time>2012-07-27T14:42:53Z</time>
<speed>1.660000</speed>
<extensions>
<speed>1.7</speed>
<temp>0.00</temp>
<bpm>0</bpm>
<rpm>0.00</rpm>
</extensions>
</trkpt>
<trkpt lat="63.907245636" lon="-20.593248367">
<ele>49.965820</ele>
<time>2012-07-27T14:42:58Z</time>
<speed>1.400000</speed>
<extensions>
<speed>1.4</speed>
<temp>0.00</temp>
<bpm>0</bpm>
<rpm>0.00</rpm>
</extensions>
</trkpt>
<trkpt lat="63.907314301" lon="-20.593341827">
<ele>50.150391</ele>
<time>2012-07-27T14:43:03Z</time>
<speed>1.910000</speed>
<extensions>
<speed>1.9</speed>
<temp>0.00</temp>
<bpm>0</bpm>
<rpm>0.00</rpm>
</extensions>
</trkpt>
<trkpt lat="63.907390594" lon="-20.593420029">
<ele>51.286133</ele>
<time>2012-07-27T14:43:08Z</time>
<speed>1.800000</speed>
<extensions>
<speed>1.8</speed>
<temp>0.00</temp>
<bpm>0</bpm>
<rpm>0.00</rpm>
</extensions>
</trkpt>
<trkpt lat="63.907447815" lon="-20.593500137">
<ele>51.419922</ele>
<time>2012-07-27T14:43:13Z</time>
<speed>1.400000</speed>
<extensions>
<speed>1.4</speed>
<temp>0.00</temp>
<bpm>0</bpm>
<rpm>0.00</rpm>
</extensions>
</trkpt>
<trkpt lat="63.907505035" lon="-20.593591690">
<ele>51.587891</ele>
<time>2012-07-27T14:43:18Z</time>
<speed>1.360000</speed>
<extensions>
<speed>1.4</speed>
<temp>0.00</temp>
<bpm>0</bpm>
<rpm>0.00</rpm>
</extensions>
</trkpt>
<trkpt lat="63.907566071" lon="-20.593704224">
<ele>52.698242</ele>
<time>2012-07-27T14:43:23Z</time>
<speed>1.480000</speed>
<extensions>
<speed>1.5</speed>
<temp>0.00</temp>
<bpm>0</bpm>
<rpm>0.00</rpm>
</extensions>
</trkpt>
<trkpt lat="63.907642365" lon="-20.593772888">
<ele>53.732422</ele>
<time>2012-07-27T14:43:28Z</time>
<speed>1.510000</speed>
<extensions>
<speed>1.5</speed>
<temp>0.00</temp>
<bpm>0</bpm>
<rpm>0.00</rpm>
</extensions>
</trkpt>
<trkpt lat="63.907695770" lon="-20.593866348">
<ele>54.307617</ele>
<time>2012-07-27T14:43:33Z</time>
<speed>1.760000</speed>
<extensions>
<speed>1.8</speed>
<temp>0.00</temp>
<bpm>0</bpm>
<rpm>0.00</rpm>
</extensions>
</trkpt>
<trkpt lat="63.907741547" lon="-20.593933105">
<ele>54.809570</ele>
<time>2012-07-27T14:43:38Z</time>
<speed>1.110000</speed>
<extensions>
<speed>1.1</speed>
<temp>0.00</temp>
<bpm>0</bpm>
<rpm>0.00</rpm>
</extensions>
</trkpt>
<trkpt lat="63.907810211" lon="-20.593990326">
<ele>56.318359</ele>
<time>2012-07-27T14:43:43Z</time>
<speed>1.720000</speed>
<extensions>
<speed>1.7</speed>
<temp>0.00</temp>
<bpm>0</bpm>
<rpm>0.00</rpm>
</extensions>
</trkpt>
<trkpt lat="63.907871246" lon="-20.594081879">
<ele>56.796875</ele>
<time>2012-07-27T14:43:48Z</time>
<speed>1.620000</speed>
<extensions>
<speed>1.6</speed>
<temp>0.00</temp>
<bpm>0</bpm>
<rpm>0.00</rpm>
</extensions>
</trkpt>
<trkpt lat="63.907932281" lon="-20.594148636">
<ele>57.439453</ele>
<time>2012-07-27T14:43:53Z</time>
<speed>1.890000</speed>
<extensions>
<speed>1.9</speed>
<temp>0.00</temp>
<bpm>0</bpm>
<rpm>0.00</rpm>
</extensions>
</trkpt>
<trkpt lat="63.907997131" lon="-20.594261169">
<ele>57.115234</ele>
<time>2012-07-27T14:43:58Z</time>
<speed>1.600000</speed>
<extensions>
<speed>1.6</speed>
<temp>0.00</temp>
<bpm>0</bpm>
<rpm>0.00</rpm>
</extensions>
</trkpt>
<trkpt lat="63.908058167" lon="-20.594375610">
<ele>56.437500</ele>
<time>2012-07-27T14:44:03Z</time>
<speed>1.900000</speed>
<extensions>
<speed>1.9</speed>
<temp>0.00</temp>
<bpm>0</bpm>
<rpm>0.00</rpm>
</extensions>
</trkpt>
<trkpt lat="63.908123016" lon="-20.594453812">
<ele>56.540039</ele>
<time>2012-07-27T14:44:08Z</time>
<speed>1.640000</speed>
<extensions>
<speed>1.6</speed>
<temp>0.00</temp>
<bpm>0</bpm>
<rpm>0.00</rpm>
</extensions>
</trkpt>
<trkpt lat="63.908180237" lon="-20.594547272">
<ele>57.043945</ele>
<time>2012-07-27T14:44:13Z</time>
<speed>1.680000</speed>
<extensions>
<speed>1.7</speed>
<temp>0.00</temp>
<bpm>0</bpm>
<rpm>0.00</rpm>
</extensions>
</trkpt>
<trkpt lat="63.908252716" lon="-20.594646454">
<ele>57.250000</ele>
<time>2012-07-27T14:44:18Z</time>
<speed>1.840000</speed>
<extensions>
<speed>1.8</speed>
<temp>0.00</temp>
<bpm>0</bpm>
<rpm>0.00</rpm>
</extensions>
</trkpt>
<trkpt lat="63.908332825" lon="-20.594770432">
<ele>58.412109</ele>
<time>2012-07-27T14:44:23Z</time>
<speed>2.040000</speed>
<extensions>
<speed>2.0</speed>
<temp>0.00</temp>
<bpm>0</bpm>
<rpm>0.00</rpm>
</extensions>
</trkpt>
<trkpt lat="63.908409119" lon="-20.594871521">
<ele>59.280273</ele>
<time>2012-07-27T14:44:28Z</time>
<speed>2.060000</speed>
<extensions>
<speed>2.1</speed>
<temp>0.00</temp>
<bpm>0</bpm>
<rpm>0.00</rpm>
</extensions>
</trkpt>
<trkpt lat="63.908500671" lon="-20.595003128">
<ele>59.129883</ele>
<time>2012-07-27T14:44:33Z</time>
<speed>2.620000</speed>
<extensions>
<speed>2.6</speed>
<temp>0.00</temp>
<bpm>0</bpm>
<rpm>0.00</rpm>
</extensions>
</trkpt>
<trkpt lat="63.908569336" lon="-20.595119476">
<ele>58.952148</ele>
<time>2012-07-27T14:44:38Z</time>
<speed>2.140000</speed>
<extensions>
<speed>2.1</speed>
<temp>0.00</temp>
<bpm>0</bpm>
<rpm>0.00</rpm>
</extensions>
</trkpt>
<trkpt lat="63.908649445" lon="-20.595252991">
<ele>59.243164</ele>
<time>2012-07-27T14:44:43Z</time>
<speed>2.380000</speed>
<extensions>
<speed>2.4</speed>
<temp>0.00</temp>
<bpm>0</bpm>
<rpm>0.00</rpm>
</extensions>
</trkpt>
<trkpt lat="63.908729553" lon="-20.595390320">
<ele>59.773438</ele>
<time>2012-07-27T14:44:48Z</time>
<speed>2.390000</speed>
<extensions>
<speed>2.4</speed>
<temp>0.00</temp>
<bpm>0</bpm>
<rpm>0.00</rpm>
</extensions>
</trkpt>
<trkpt lat="63.908828735" lon="-20.595552444">
<ele>62.150391</ele>
<time>2012-07-27T14:44:53Z</time>
<speed>2.810000</speed>
<extensions>
<speed>2.8</speed>
<temp>0.00</temp>
<bpm>0</bpm>
<rpm>0.00</rpm>
</extensions>
</trkpt>
<trkpt lat="63.908931732" lon="-20.595741272">
<ele>63.831055</ele>
<time>2012-07-27T14:44:58Z</time>
<speed>2.700000</speed>
<extensions>
<speed>2.7</speed>
<temp>0.00</temp>
<bpm>0</bpm>
<rpm>0.00</rpm>
</extensions>
</trkpt>
<trkpt lat="63.909027100" lon="-20.595912933">
<ele>66.634766</ele>
<time>2012-07-27T14:45:03Z</time>
<speed>2.640000</speed>
<extensions>
<speed>2.6</speed>
<temp>0.00</temp>
<bpm>0</bpm>
<rpm>0.00</rpm>
</extensions>
</trkpt>
<trkpt lat="63.909118652" lon="-20.596096039">
<ele>67.048828</ele>
<time>2012-07-27T14:45:08Z</time>
<speed>2.910000</speed>
<extensions>
<speed>2.9</speed>
<temp>0.00</temp>
<bpm>0</bpm>
<rpm>0.00</rpm>
</extensions>
</trkpt>
<trkpt lat="63.909210205" lon="-20.596288681">
<ele>67.753906</ele>
<time>2012-07-27T14:45:13Z</time>
<speed>2.820000</speed>
<extensions>
<speed>2.8</speed>
<temp>0.00</temp>
<bpm>0</bpm>
<rpm>0.00</rpm>
</extensions>
</trkpt>
<trkpt lat="63.909309387" lon="-20.596483231">
<ele>67.947266</ele>
<time>2012-07-27T14:45:18Z</time>
<speed>3.010000</speed>
<extensions>
<speed>3.0</speed>
<temp>0.00</temp>
<bpm>0</bpm>
<rpm>0.00</rpm>
</extensions>
</trkpt>
<trkpt lat="63.909400940" lon="-20.596696854">
<ele>67.904297</ele>
<time>2012-07-27T14:45:23Z</time>
<speed>3.010000</speed>
<extensions>
<speed>3.0</speed>
<temp>0.00</temp>
<bpm>0</bpm>
<rpm>0.00</rpm>
</extensions>
</trkpt>
<trkpt lat="63.909507751" lon="-20.596929550">
<ele>68.986328</ele>
<time>2012-07-27T14:45:28Z</time>
<speed>3.560000</speed>
<extensions>
<speed>3.6</speed>
<temp>0.00</temp>
<bpm>0</bpm>
<rpm>0.00</rpm>
</extensions>
</trkpt>
<trkpt lat="63.909614563" lon="-20.597204208">
<ele>68.697266</ele>
<time>2012-07-27T14:45:33Z</time>
<speed>3.580000</speed>
<extensions>
<speed>3.6</speed>
<temp>0.00</temp>
<bpm>0</bpm>
<rpm>0.00</rpm>
</extensions>
</trkpt>
<trkpt lat="63.909721375" lon="-20.597459793">
<ele>69.179688</ele>
<time>2012-07-27T14:45:38Z</time>
<speed>3.480000</speed>
<extensions>
<speed>3.5</speed>
<temp>0.00</temp>
<bpm>0</bpm>
<rpm>0.00</rpm>
</extensions>
</trkpt>
<trkpt lat="63.909820557" lon="-20.597709656">
<ele>69.939453</ele>
<time>2012-07-27T14:45:43Z</time>
<speed>3.180000</speed>
<extensions>
<speed>3.2</speed>
<temp>0.00</temp>
<bpm>0</bpm>
<rpm>0.00</rpm>
</extensions>
</trkpt>
<trkpt lat="63.909923553" lon="-20.597957611">
<ele>70.117188</ele>
<time>2012-07-27T14:45:48Z</time>
<speed>3.220000</speed>
<extensions>
<speed>3.2</speed>
<temp>0.00</temp>
<bpm>0</bpm>
<rpm>0.00</rpm>
</extensions>
</trkpt>
<trkpt lat="63.910003662" lon="-20.598186493">
<ele>69.937500</ele>
<time>2012-07-27T14:45:53Z</time>
<speed>2.810000</speed>
<extensions>
<speed>2.8</speed>
<temp>0.00</temp>
<bpm>0</bpm>
<rpm>0.00</rpm>
</extensions>
</trkpt>
<trkpt lat="63.910072327" lon="-20.598400116">
<ele>68.882813</ele>
<time>2012-07-27T14:45:58Z</time>
<speed>2.600000</speed>
<extensions>
<speed>2.6</speed>
<temp>0.00</temp>
<bpm>0</bpm>
<rpm>0.00</rpm>
</extensions>
</trkpt>
<trkpt lat="63.910125732" lon="-20.598575592">
<ele>68.875000</ele>
<time>2012-07-27T14:46:03Z</time>
<speed>2.390000</speed>
<extensions>
<speed>2.4</speed>
<temp>0.00</temp>
<bpm>0</bpm>
<rpm>0.00</rpm>
</extensions>
</trkpt>
<trkpt lat="63.910175323" lon="-20.598751068">
<ele>70.246094</ele>
<time>2012-07-27T14:46:08Z</time>
<speed>1.540000</speed>
<extensions>
<speed>1.5</speed>
<temp>0.00</temp>
<bpm>0</bpm>
<rpm>0.00</rpm>
</extensions>
</trkpt>
<trkpt lat="63.910224915" lon="-20.598924637">
<ele>69.458984</ele>
<time>2012-07-27T14:46:13Z</time>
<speed>2.740000</speed>
<extensions>
<speed>2.7</speed>
<temp>0.00</temp>
<bpm>0</bpm>
<rpm>0.00</rpm>
</extensions>
</trkpt>
<trkpt lat="63.910293579" lon="-20.599191666">
<ele>68.539063</ele>
<time>2012-07-27T14:46:18Z</time>
<speed>2.860000</speed>
<extensions>
<speed>2.9</speed>
<temp>0.00</temp>
<bpm>0</bpm>
<rpm>0.00</rpm>
</extensions>
</trkpt>
<trkpt lat="63.910362244" lon="-20.599430084">
<ele>67.906250</ele>
<time>2012-07-27T14:46:23Z</time>
<speed>2.530000</speed>
<extensions>
<speed>2.5</speed>
<temp>0.00</temp>
<bpm>0</bpm>
<rpm>0.00</rpm>
</extensions>
</trkpt>
<trkpt lat="63.910438538" lon="-20.599679947">
<ele>67.404297</ele>
<time>2012-07-27T14:46:28Z</time>
<speed>2.790000</speed>
<extensions>
<speed>2.8</speed>
<temp>0.00</temp>
<bpm>0</bpm>
<rpm>0.00</rpm>
</extensions>
</trkpt>
<trkpt lat="63.910495758" lon="-20.599918365">
<ele>67.128906</ele>
<time>2012-07-27T14:46:33Z</time>
<speed>2.830000</speed>
<extensions>
<speed>2.8</speed>
<temp>0.00</temp>
<bpm>0</bpm>
<rpm>0.00</rpm>
</extensions>
</trkpt>
<trkpt lat="63.910556793" lon="-20.600166321">
<ele>66.687500</ele>
<time>2012-07-27T14:46:38Z</time>
<speed>2.730000</speed>
<extensions>
<speed>2.7</speed>
<temp>0.00</temp>
<bpm>0</bpm>
<rpm>0.00</rpm>
</extensions>
</trkpt>
<trkpt lat="63.910602570" lon="-20.600364685">
<ele>66.431641</ele>
<time>2012-07-27T14:46:43Z</time>
<speed>2.490000</speed>
<extensions>
<speed>2.5</speed>
<temp>0.00</temp>
<bpm>0</bpm>
<rpm>0.00</rpm>
</extensions>
</trkpt>
<trkpt lat="63.910652161" lon="-20.600582123">
<ele>66.617188</ele>
<time>2012-07-27T14:46:48Z</time>
<speed>2.590000</speed>
<extensions>
<speed>2.6</speed>
<temp>0.00</temp>
<bpm>0</bpm>
<rpm>0.00</rpm>
</extensions>
</trkpt>
<trkpt lat="63.910705566" lon="-20.600814819">
<ele>66.373047</ele>
<time>2012-07-27T14:46:53Z</time>
<speed>2.810000</speed>
<extensions>
<speed>2.8</speed>
<temp>0.00</temp>
<bpm>0</bpm>
<rpm>0.00</rpm>
</extensions>
</trkpt>
<trkpt lat="63.910755157" lon="-20.601036072">
<ele>66.812500</ele>
<time>2012-07-27T14:46:58Z</time>
<speed>2.570000</speed>
<extensions>
<speed>2.6</speed>
<temp>0.00</temp>
<bpm>0</bpm>
<rpm>0.00</rpm>
</extensions>
</trkpt>
<trkpt lat="63.910808563" lon="-20.601295471">
<ele>66.367188</ele>
<time>2012-07-27T14:47:03Z</time>
<speed>2.800000</speed>
<extensions>
<speed>2.8</speed>
<temp>0.00</temp>
<bpm>0</bpm>
<rpm>0.00</rpm>
</extensions>
</trkpt>
<trkpt lat="63.910873413" lon="-20.601625443">
<ele>65.474609</ele>
<time>2012-07-27T14:47:08Z</time>
<speed>3.740000</speed>
<extensions>
<speed>3.7</speed>
<temp>0.00</temp>
<bpm>0</bpm>
<rpm>0.00</rpm>
</extensions>
</trkpt>
<trkpt lat="63.910934448" lon="-20.601953506">
<ele>65.712891</ele>
<time>2012-07-27T14:47:13Z</time>
<speed>3.340000</speed>
<extensions>
<speed>3.3</speed>
<temp>0.00</temp>
<bpm>0</bpm>
<rpm>0.00</rpm>
</extensions>
</trkpt>
<trkpt lat="63.910995483" lon="-20.602325439">
<ele>67.113281</ele>
<time>2012-07-27T14:47:18Z</time>
<speed>3.900000</speed>
<extensions>
<speed>3.9</speed>
<temp>0.00</temp>
<bpm>0</bpm>
<rpm>0.00</rpm>
</extensions>
</trkpt>
<trkpt lat="63.911071777" lon="-20.602705002">
<ele>67.439453</ele>
<time>2012-07-27T14:47:23Z</time>
<speed>4.150000</speed>
<extensions>
<speed>4.1</speed>
<temp>0.00</temp>
<bpm>0</bpm>
<rpm>0.00</rpm>
</extensions>
</trkpt>
<trkpt lat="63.911151886" lon="-20.603151321">
<ele>67.322266</ele>
<time>2012-07-27T14:47:28Z</time>
<speed>4.550000</speed>
<extensions>
<speed>4.5</speed>
<temp>0.00</temp>
<bpm>0</bpm>
<rpm>0.00</rpm>
</extensions>
</trkpt>
<trkpt lat="63.911231995" lon="-20.603599548">
<ele>66.939453</ele>
<time>2012-07-27T14:47:33Z</time>
<speed>5.100000</speed>
<extensions>
<speed>5.1</speed>
<temp>0.00</temp>
<bpm>0</bpm>
<rpm>0.00</rpm>
</extensions>
</trkpt>
<trkpt lat="63.911308289" lon="-20.604053497">
<ele>66.345703</ele>
<time>2012-07-27T14:47:38Z</time>
<speed>4.950000</speed>
<extensions>
<speed>4.9</speed>
<temp>0.00</temp>
<bpm>0</bpm>
<rpm>0.00</rpm>
</extensions>
</trkpt>
<trkpt lat="63.911392212" lon="-20.604516983">
<ele>66.457031</ele>
<time>2012-07-27T14:47:43Z</time>
<speed>4.830000</speed>
<extensions>
<speed>4.8</speed>
<temp>0.00</temp>
<bpm>0</bpm>
<rpm>0.00</rpm>
</extensions>
</trkpt>
<trkpt lat="63.911476135" lon="-20.604946136">
<ele>66.847656</ele>
<time>2012-07-27T14:47:48Z</time>
<speed>4.320000</speed>
<extensions>
<speed>4.3</speed>
<temp>0.00</temp>
<bpm>0</bpm>
<rpm>0.00</rpm>
</extensions>
</trkpt>
<trkpt lat="63.911537170" lon="-20.605405807">
<ele>66.716797</ele>
<time>2012-07-27T14:47:53Z</time>
<speed>5.090000</speed>
<extensions>
<speed>5.1</speed>
<temp>0.00</temp>
<bpm>0</bpm>
<rpm>0.00</rpm>
</extensions>
</trkpt>
<trkpt lat="63.911617279" lon="-20.605855942">
<ele>66.439453</ele>
<time>2012-07-27T14:47:58Z</time>
<speed>4.980000</speed>
<extensions>
<speed>5.0</speed>
<temp>0.00</temp>
<bpm>0</bpm>
<rpm>0.00</rpm>
</extensions>
</trkpt>
<trkpt lat="63.911705017" lon="-20.606340408">
<ele>66.152344</ele>
<time>2012-07-27T14:48:03Z</time>
<speed>5.040000</speed>
<extensions>
<speed>5.0</speed>
<temp>0.00</temp>
<bpm>0</bpm>
<rpm>0.00</rpm>
</extensions>
</trkpt>
<trkpt lat="63.911788940" lon="-20.606782913">
<ele>65.900391</ele>
<time>2012-07-27T14:48:08Z</time>
<speed>4.840000</speed>
<extensions>
<speed>4.8</speed>
<temp>0.00</temp>
<bpm>0</bpm>
<rpm>0.00</rpm>
</extensions>
</trkpt>
<trkpt lat="63.911876678" lon="-20.607248306">
<ele>66.021484</ele>
<time>2012-07-27T14:48:13Z</time>
<speed>4.920000</speed>
<extensions>
<speed>4.9</speed>
<temp>0.00</temp>
<bpm>0</bpm>
<rpm>0.00</rpm>
</extensions>
</trkpt>
<trkpt lat="63.911956787" lon="-20.607688904">
<ele>65.916016</ele>
<time>2012-07-27T14:48:18Z</time>
<speed>4.610000</speed>
<extensions>
<speed>4.6</speed>
<temp>0.00</temp>
<bpm>0</bpm>
<rpm>0.00</rpm>
</extensions>
</trkpt>
<trkpt lat="63.912040710" lon="-20.608131409">
<ele>65.306641</ele>
<time>2012-07-27T14:48:23Z</time>
<speed>4.850000</speed>
<extensions>
<speed>4.8</speed>
<temp>0.00</temp>
<bpm>0</bpm>
<rpm>0.00</rpm>
</extensions>
</trkpt>
<trkpt lat="63.912117004" lon="-20.608600616">
<ele>66.179688</ele>
<time>2012-07-27T14:48:28Z</time>
<speed>4.750000</speed>
<extensions>
<speed>4.8</speed>
<temp>0.00</temp>
<bpm>0</bpm>
<rpm>0.00</rpm>
</extensions>
</trkpt>
<trkpt lat="63.912193298" lon="-20.609067917">
<ele>66.685547</ele>
<time>2012-07-27T14:48:33Z</time>
<speed>4.660000</speed>
<extensions>
<speed>4.7</speed>
<temp>0.00</temp>
<bpm>0</bpm>
<rpm>0.00</rpm>
</extensions>
</trkpt>
<trkpt lat="63.912265778" lon="-20.609497070">
<ele>66.273438</ele>
<time>2012-07-27T14:48:38Z</time>
<speed>4.470000</speed>
<extensions>
<speed>4.5</speed>
<temp>0.00</temp>
<bpm>0</bpm>
<rpm>0.00</rpm>
</extensions>
</trkpt>
<trkpt lat="63.912334442" lon="-20.609920502">
<ele>68.341797</ele>
<time>2012-07-27T14:48:43Z</time>
<speed>4.500000</speed>
<extensions>
<speed>4.5</speed>
<temp>0.00</temp>
<bpm>0</bpm>
<rpm>0.00</rpm>
</extensions>
</trkpt>
<trkpt lat="63.912410736" lon="-20.610359192">
<ele>69.275391</ele>
<time>2012-07-27T14:48:48Z</time>
<speed>4.340000</speed>
<extensions>
<speed>4.3</speed>
<temp>0.00</temp>
<bpm>0</bpm>
<rpm>0.00</rpm>
</extensions>
</trkpt>
<trkpt lat="63.912487030" lon="-20.610721588">
<ele>70.240234</ele>
<time>2012-07-27T14:48:53Z</time>
<speed>3.550000</speed>
<extensions>
<speed>3.5</speed>
<temp>0.00</temp>
<bpm>0</bpm>
<rpm>0.00</rpm>
</extensions>
</trkpt>
<trkpt lat="63.912548065" lon="-20.611108780">
<ele>69.722656</ele>
<time>2012-07-27T14:48:58Z</time>
<speed>4.260000</speed>
<extensions>
<speed>4.3</speed>
<temp>0.00</temp>
<bpm>0</bpm>
<rpm>0.00</rpm>
</extensions>
</trkpt>
<trkpt lat="63.912616730" lon="-20.611497879">
<ele>69.992188</ele>
<time>2012-07-27T14:49:03Z</time>
<speed>4.310000</speed>
<extensions>
<speed>4.3</speed>
<temp>0.00</temp>
<bpm>0</bpm>
<rpm>0.00</rpm>
</extensions>
</trkpt>
<trkpt lat="63.912681580" lon="-20.611890793">
<ele>69.613281</ele>
<time>2012-07-27T14:49:08Z</time>
<speed>3.930000</speed>
<extensions>
<speed>3.9</speed>
<temp>0.00</temp>
<bpm>0</bpm>
<rpm>0.00</rpm>
</extensions>
</trkpt>
<trkpt lat="63.912738800" lon="-20.612234116">
<ele>69.554688</ele>
<time>2012-07-27T14:49:13Z</time>
<speed>3.310000</speed>
<extensions>
<speed>3.3</speed>
<temp>0.00</temp>
<bpm>0</bpm>
<rpm>0.00</rpm>
</extensions>
</trkpt>
<trkpt lat="63.912799835" lon="-20.612613678">
<ele>69.246094</ele>
<time>2012-07-27T14:49:18Z</time>
<speed>4.200000</speed>
<extensions>
<speed>4.2</speed>
<temp>0.00</temp>
<bpm>0</bpm>
<rpm>0.00</rpm>
</extensions>
</trkpt>
<trkpt lat="63.912872314" lon="-20.613000870">
<ele>69.294922</ele>
<time>2012-07-27T14:49:23Z</time>
<speed>4.270000</speed>
<extensions>
<speed>4.3</speed>
<temp>0.00</temp>
<bpm>0</bpm>
<rpm>0.00</rpm>
</extensions>
</trkpt>
<trkpt lat="63.912944794" lon="-20.613401413">
<ele>68.953125</ele>
<time>2012-07-27T14:49:28Z</time>
<speed>3.960000</speed>
<extensions>
<speed>4.0</speed>
<temp>0.00</temp>
<bpm>0</bpm>
<rpm>0.00</rpm>
</extensions>
</trkpt>
<trkpt lat="63.913013458" lon="-20.613786697">
<ele>69.371094</ele>
<time>2012-07-27T14:49:33Z</time>
<speed>4.400000</speed>
<extensions>
<speed>4.4</speed>
<temp>0.00</temp>
<bpm>0</bpm>
<rpm>0.00</rpm>
</extensions>
</trkpt>
<trkpt lat="63.913085938" lon="-20.614210129">
<ele>69.646484</ele>
<time>2012-07-27T14:49:38Z</time>
<speed>3.820000</speed>
<extensions>
<speed>3.8</speed>
<temp>0.00</temp>
<bpm>0</bpm>
<rpm>0.00</rpm>
</extensions>
</trkpt>
<trkpt lat="63.913146973" lon="-20.614561081">
<ele>69.869141</ele>
<time>2012-07-27T14:49:43Z</time>
<speed>3.580000</speed>
<extensions>
<speed>3.6</speed>
<temp>0.00</temp>
<bpm>0</bpm>
<rpm>0.00</rpm>
</extensions>
</trkpt>
<trkpt lat="63.913200378" lon="-20.614915848">
<ele>69.453125</ele>
<time>2012-07-27T14:49:48Z</time>
<speed>3.500000</speed>
<extensions>
<speed>3.5</speed>
<temp>0.00</temp>
<bpm>0</bpm>
<rpm>0.00</rpm>
</extensions>
</trkpt>
<trkpt lat="63.913265228" lon="-20.615282059">
<ele>69.294922</ele>
<time>2012-07-27T14:49:53Z</time>
<speed>3.700000</speed>
<extensions>
<speed>3.7</speed>
<temp>0.00</temp>
<bpm>0</bpm>
<rpm>0.00</rpm>
</extensions>
</trkpt>
<trkpt lat="63.913330078" lon="-20.615627289">
<ele>67.759766</ele>
<time>2012-07-27T14:49:58Z</time>
<speed>3.720000</speed>
<extensions>
<speed>3.7</speed>
<temp>0.00</temp>
<bpm>0</bpm>
<rpm>0.00</rpm>
</extensions>
</trkpt>
<trkpt lat="63.913391113" lon="-20.615999222">
<ele>67.505859</ele>
<time>2012-07-27T14:50:03Z</time>
<speed>3.880000</speed>
<extensions>
<speed>3.9</speed>
<temp>0.00</temp>
<bpm>0</bpm>
<rpm>0.00</rpm>
</extensions>
</trkpt>
<trkpt lat="63.913455963" lon="-20.616407394">
<ele>65.884766</ele>
<time>2012-07-27T14:50:08Z</time>
<speed>4.470000</speed>
<extensions>
<speed>4.5</speed>
<temp>0.00</temp>
<bpm>0</bpm>
<rpm>0.00</rpm>
</extensions>
</trkpt>
<trkpt lat="63.913543701" lon="-20.616888046">
<ele>65.744141</ele>
<time>2012-07-27T14:50:13Z</time>
<speed>5.410000</speed>
<extensions>
<speed>5.4</speed>
<temp>0.00</temp>
<bpm>0</bpm>
<rpm>0.00</rpm>
</extensions>
</trkpt>
<trkpt lat="63.913646698" lon="-20.617420197">
<ele>65.171875</ele>
<time>2012-07-27T14:50:18Z</time>
<speed>5.760000</speed>
<extensions>
<speed>5.8</speed>
<temp>0.00</temp>
<bpm>0</bpm>
<rpm>0.00</rpm>
</extensions>
</trkpt>
<trkpt lat="63.913749695" lon="-20.617998123">
<ele>63.588867</ele>
<time>2012-07-27T14:50:23Z</time>
<speed>6.420000</speed>
<extensions>
<speed>6.4</speed>
<temp>0.00</temp>
<bpm>0</bpm>
<rpm>0.00</rpm>
</extensions>
</trkpt>
<trkpt lat="63.913860321" lon="-20.618648529">
<ele>62.975586</ele>
<time>2012-07-27T14:50:28Z</time>
<speed>7.370000</speed>
<extensions>
<speed>7.4</speed>
<temp>0.00</temp>
<bpm>0</bpm>
<rpm>0.00</rpm>
</extensions>
</trkpt>
<trkpt lat="63.913986206" lon="-20.619388580">
<ele>61.680664</ele>
<time>2012-07-27T14:50:33Z</time>
<speed>8.000000</speed>
<extensions>
<speed>8.0</speed>
<temp>0.00</temp>
<bpm>0</bpm>
<rpm>0.00</rpm>
</extensions>
</trkpt>
<trkpt lat="63.914115906" lon="-20.620140076">
<ele>60.938477</ele>
<time>2012-07-27T14:50:38Z</time>
<speed>7.410000</speed>
<extensions>
<speed>7.4</speed>
<temp>0.00</temp>
<bpm>0</bpm>
<rpm>0.00</rpm>
</extensions>
</trkpt>
<trkpt lat="63.914230347" lon="-20.620815277">
<ele>60.089844</ele>
<time>2012-07-27T14:50:43Z</time>
<speed>6.940000</speed>
<extensions>
<speed>6.9</speed>
<temp>0.00</temp>
<bpm>0</bpm>
<rpm>0.00</rpm>
</extensions>
</trkpt>
<trkpt lat="63.914348602" lon="-20.621450424">
<ele>60.098633</ele>
<time>2012-07-27T14:50:48Z</time>
<speed>6.560000</speed>
<extensions>
<speed>6.6</speed>
<temp>0.00</temp>
<bpm>0</bpm>
<rpm>0.00</rpm>
</extensions>
</trkpt>
<trkpt lat="63.914455414" lon="-20.622056961">
<ele>60.041992</ele>
<time>2012-07-27T14:50:53Z</time>
<speed>6.510000</speed>
<extensions>
<speed>6.5</speed>
<temp>0.00</temp>
<bpm>0</bpm>
<rpm>0.00</rpm>
</extensions>
</trkpt>
<trkpt lat="63.914566040" lon="-20.622642517">
<ele>59.779297</ele>
<time>2012-07-27T14:50:58Z</time>
<speed>6.110000</speed>
<extensions>
<speed>6.1</speed>
<temp>0.00</temp>
<bpm>0</bpm>
<rpm>0.00</rpm>
</extensions>
</trkpt>
<trkpt lat="63.914665222" lon="-20.623224258">
<ele>59.729492</ele>
<time>2012-07-27T14:51:03Z</time>
<speed>6.030000</speed>
<extensions>
<speed>6.0</speed>
<temp>0.00</temp>
<bpm>0</bpm>
<rpm>0.00</rpm>
</extensions>
</trkpt>
<trkpt lat="63.914764404" lon="-20.623773575">
<ele>61.020508</ele>
<time>2012-07-27T14:51:08Z</time>
<speed>5.930000</speed>
<extensions>
<speed>5.9</speed>
<temp>0.00</temp>
<bpm>0</bpm>
<rpm>0.00</rpm>
</extensions>
</trkpt>
<trkpt lat="63.914855957" lon="-20.624372482">
<ele>61.537109</ele>
<time>2012-07-27T14:51:13Z</time>
<speed>6.330000</speed>
<extensions>
<speed>6.3</speed>
<temp>0.00</temp>
<bpm>0</bpm>
<rpm>0.00</rpm>
</extensions>
</trkpt>
<trkpt lat="63.914958954" lon="-20.624958038">
<ele>60.787109</ele>
<time>2012-07-27T14:51:18Z</time>
<speed>6.330000</speed>
<extensions>
<speed>6.3</speed>
<temp>0.00</temp>
<bpm>0</bpm>
<rpm>0.00</rpm>
</extensions>
</trkpt>
<trkpt lat="63.915065765" lon="-20.625581741">
<ele>60.514648</ele>
<time>2012-07-27T14:51:23Z</time>
<speed>6.560000</speed>
<extensions>
<speed>6.6</speed>
<temp>0.00</temp>
<bpm>0</bpm>
<rpm>0.00</rpm>
</extensions>
</trkpt>
<trkpt lat="63.915172577" lon="-20.626192093">
<ele>58.261719</ele>
<time>2012-07-27T14:51:28Z</time>
<speed>6.250000</speed>
<extensions>
<speed>6.3</speed>
<temp>0.00</temp>
<bpm>0</bpm>
<rpm>0.00</rpm>
</extensions>
</trkpt>
<trkpt lat="63.915275574" lon="-20.626800537">
<ele>57.644531</ele>
<time>2012-07-27T14:51:33Z</time>
<speed>6.450000</speed>
<extensions>
<speed>6.4</speed>
<temp>0.00</temp>
<bpm>0</bpm>
<rpm>0.00</rpm>
</extensions>
</trkpt>
<trkpt lat="63.915382385" lon="-20.627431870">
<ele>57.401367</ele>
<time>2012-07-27T14:51:38Z</time>
<speed>6.660000</speed>
<extensions>
<speed>6.7</speed>
<temp>0.00</temp>
<bpm>0</bpm>
<rpm>0.00</rpm>
</extensions>
</trkpt>
<trkpt lat="63.915493011" lon="-20.628021240">
<ele>56.896484</ele>
<time>2012-07-27T14:51:43Z</time>
<speed>6.060000</speed>
<extensions>
<speed>6.1</speed>
<temp>0.00</temp>
<bpm>0</bpm>
<rpm>0.00</rpm>
</extensions>
</trkpt>
<trkpt lat="63.915592194" lon="-20.628591537">
<ele>56.430664</ele>
<time>2012-07-27T14:51:48Z</time>
<speed>5.930000</speed>
<extensions>
<speed>5.9</speed>
<temp>0.00</temp>
<bpm>0</bpm>
<rpm>0.00</rpm>
</extensions>
</trkpt>
<trkpt lat="63.915687561" lon="-20.629129410">
<ele>56.277344</ele>
<time>2012-07-27T14:51:53Z</time>
<speed>5.260000</speed>
<extensions>
<speed>5.3</speed>
<temp>0.00</temp>
<bpm>0</bpm>
<rpm>0.00</rpm>
</extensions>
</trkpt>
<trkpt lat="63.915771484" lon="-20.629632950">
<ele>56.327148</ele>
<time>2012-07-27T14:51:58Z</time>
<speed>5.620000</speed>
<extensions>
<speed>5.6</speed>
<temp>0.00</temp>
<bpm>0</bpm>
<rpm>0.00</rpm>
</extensions>
</trkpt>
<trkpt lat="63.915866852" lon="-20.630195618">
<ele>56.063477</ele>
<time>2012-07-27T14:52:03Z</time>
<speed>6.100000</speed>
<extensions>
<speed>6.1</speed>
<temp>0.00</temp>
<bpm>0</bpm>
<rpm>0.00</rpm>
</extensions>
</trkpt>
<trkpt lat="63.915969849" lon="-20.630777359">
<ele>55.985352</ele>
<time>2012-07-27T14:52:08Z</time>
<speed>5.880000</speed>
<extensions>
<speed>5.9</speed>
<temp>0.00</temp>
<bpm>0</bpm>
<rpm>0.00</rpm>
</extensions>
</trkpt>
<trkpt lat="63.916065216" lon="-20.631332397">
<ele>55.520508</ele>
<time>2012-07-27T14:52:13Z</time>
<speed>6.040000</speed>
<extensions>
<speed>6.0</speed>
<temp>0.00</temp>
<bpm>0</bpm>
<rpm>0.00</rpm>
</extensions>
</trkpt>
<trkpt lat="63.916168213" lon="-20.631895065">
<ele>54.934570</ele>
<time>2012-07-27T14:52:18Z</time>
<speed>5.520000</speed>
<extensions>
<speed>5.5</speed>
<temp>0.00</temp>
<bpm>0</bpm>
<rpm>0.00</rpm>
</extensions>
</trkpt>
<trkpt lat="63.916255951" lon="-20.632398605">
<ele>54.369141</ele>
<time>2012-07-27T14:52:23Z</time>
<speed>4.850000</speed>
<extensions>
<speed>4.8</speed>
<temp>0.00</temp>
<bpm>0</bpm>
<rpm>0.00</rpm>
</extensions>
</trkpt>
<trkpt lat="63.916339874" lon="-20.632873535">
<ele>54.710938</ele>
<time>2012-07-27T14:52:28Z</time>
<speed>5.390000</speed>
<extensions>
<speed>5.4</speed>
<temp>0.00</temp>
<bpm>0</bpm>
<rpm>0.00</rpm>
</extensions>
</trkpt>
<trkpt lat="63.916423798" lon="-20.633384705">
<ele>54.597656</ele>
<time>2012-07-27T14:52:33Z</time>
<speed>5.240000</speed>
<extensions>
<speed>5.2</speed>
<temp>0.00</temp>
<bpm>0</bpm>
<rpm>0.00</rpm>
</extensions>
</trkpt>
<trkpt lat="63.916507721" lon="-20.633884430">
<ele>54.444336</ele>
<time>2012-07-27T14:52:38Z</time>
<speed>5.510000</speed>
<extensions>
<speed>5.5</speed>
<temp>0.00</temp>
<bpm>0</bpm>
<rpm>0.00</rpm>
</extensions>
</trkpt>
<trkpt lat="63.916591644" lon="-20.634349823">
<ele>54.585938</ele>
<time>2012-07-27T14:52:43Z</time>
<speed>4.860000</speed>
<extensions>
<speed>4.9</speed>
<temp>0.00</temp>
<bpm>0</bpm>
<rpm>0.00</rpm>
</extensions>
</trkpt>
<trkpt lat="63.916664124" lon="-20.634796143">
<ele>53.848633</ele>
<time>2012-07-27T14:52:48Z</time>
<speed>5.050000</speed>
<extensions>
<speed>5.1</speed>
<temp>0.00</temp>
<bpm>0</bpm>
<rpm>0.00</rpm>
</extensions>
</trkpt>
<trkpt lat="63.916744232" lon="-20.635198593">
<ele>53.753906</ele>
<time>2012-07-27T14:52:53Z</time>
<speed>4.430000</speed>
<extensions>
<speed>4.4</speed>
<temp>0.00</temp>
<bpm>0</bpm>
<rpm>0.00</rpm>
</extensions>
</trkpt>
<trkpt lat="63.916809082" lon="-20.635599136">
<ele>53.974609</ele>
<time>2012-07-27T14:52:58Z</time>
<speed>3.950000</speed>
<extensions>
<speed>4.0</speed>
<temp>0.00</temp>
<bpm>0</bpm>
<rpm>0.00</rpm>
</extensions>
</trkpt>
<trkpt lat="63.916870117" lon="-20.635976791">
<ele>55.080078</ele>
<time>2012-07-27T14:53:03Z</time>
<speed>4.110000</speed>
<extensions>
<speed>4.1</speed>
<temp>0.00</temp>
<bpm>0</bpm>
<rpm>0.00</rpm>
</extensions>
</trkpt>
<trkpt lat="63.916942596" lon="-20.636360168">
<ele>55.469727</ele>
<time>2012-07-27T14:53:08Z</time>
<speed>3.860000</speed>
<extensions>
<speed>3.9</speed>
<temp>0.00</temp>
<bpm>0</bpm>
<rpm>0.00</rpm>
</extensions>
</trkpt>
<trkpt lat="63.917011261" lon="-20.636737823">
<ele>56.944336</ele>
<time>2012-07-27T14:53:13Z</time>
<speed>3.340000</speed>
<extensions>
<speed>3.3</speed>
<temp>0.00</temp>
<bpm>0</bpm>
<rpm>0.00</rpm>
</extensions>
</trkpt>
<trkpt lat="63.917076111" lon="-20.637134552">
<ele>57.426758</ele>
<time>2012-07-27T14:53:18Z</time>
<speed>3.930000</speed>
<extensions>
<speed>3.9</speed>
<temp>0.00</temp>
<bpm>0</bpm>
<rpm>0.00</rpm>
</extensions>
</trkpt>
<trkpt lat="63.917137146" lon="-20.637489319">
<ele>57.606445</ele>
<time>2012-07-27T14:53:23Z</time>
<speed>3.810000</speed>
<extensions>
<speed>3.8</speed>
<temp>0.00</temp>
<bpm>0</bpm>
<rpm>0.00</rpm>
</extensions>
</trkpt>
<trkpt lat="63.917194366" lon="-20.637853622">
<ele>59.113281</ele>
<time>2012-07-27T14:53:28Z</time>
<speed>3.740000</speed>
<extensions>
<speed>3.7</speed>
<temp>0.00</temp>
<bpm>0</bpm>
<rpm>0.00</rpm>
</extensions>
</trkpt>
<trkpt lat="63.917255402" lon="-20.638185501">
<ele>58.560547</ele>
<time>2012-07-27T14:53:33Z</time>
<speed>3.480000</speed>
<extensions>
<speed>3.5</speed>
<temp>0.00</temp>
<bpm>0</bpm>
<rpm>0.00</rpm>
</extensions>
</trkpt>
<trkpt lat="63.917304993" lon="-20.638500214">
<ele>57.646484</ele>
<time>2012-07-27T14:53:38Z</time>
<speed>3.020000</speed>
<extensions>
<speed>3.0</speed>
<temp>0.00</temp>
<bpm>0</bpm>
<rpm>0.00</rpm>
</extensions>
</trkpt>
<trkpt lat="63.917354584" lon="-20.638780594">
<ele>58.250977</ele>
<time>2012-07-27T14:53:43Z</time>
<speed>3.020000</speed>
<extensions>
<speed>3.0</speed>
<temp>0.00</temp>
<bpm>0</bpm>
<rpm>0.00</rpm>
</extensions>
</trkpt>
<trkpt lat="63.917404175" lon="-20.639064789">
<ele>58.571289</ele>
<time>2012-07-27T14:53:48Z</time>
<speed>2.850000</speed>
<extensions>
<speed>2.9</speed>
<temp>0.00</temp>
<bpm>0</bpm>
<rpm>0.00</rpm>
</extensions>
</trkpt>
<trkpt lat="63.917461395" lon="-20.639358521">
<ele>58.599609</ele>
<time>2012-07-27T14:53:53Z</time>
<speed>2.940000</speed>
<extensions>
<speed>2.9</speed>
<temp>0.00</temp>
<bpm>0</bpm>
<rpm>0.00</rpm>
</extensions>
</trkpt>
<trkpt lat="63.917510986" lon="-20.639625549">
<ele>57.905273</ele>
<time>2012-07-27T14:53:58Z</time>
<speed>2.980000</speed>
<extensions>
<speed>3.0</speed>
<temp>0.00</temp>
<bpm>0</bpm>
<rpm>0.00</rpm>
</extensions>
</trkpt>
<trkpt lat="63.917556763" lon="-20.639919281">
<ele>58.336914</ele>
<time>2012-07-27T14:54:03Z</time>
<speed>3.500000</speed>
<extensions>
<speed>3.5</speed>
<temp>0.00</temp>
<bpm>0</bpm>
<rpm>0.00</rpm>
</extensions>
</trkpt>
<trkpt lat="63.917606354" lon="-20.640209198">
<ele>57.966797</ele>
<time>2012-07-27T14:54:08Z</time>
<speed>3.340000</speed>
<extensions>
<speed>3.3</speed>
<temp>0.00</temp>
<bpm>0</bpm>
<rpm>0.00</rpm>
</extensions>
</trkpt>
<trkpt lat="63.917655945" lon="-20.640499115">
<ele>57.840820</ele>
<time>2012-07-27T14:54:13Z</time>
<speed>3.220000</speed>
<extensions>
<speed>3.2</speed>
<temp>0.00</temp>
<bpm>0</bpm>
<rpm>0.00</rpm>
</extensions>
</trkpt>
<trkpt lat="63.917705536" lon="-20.640768051">
<ele>57.321289</ele>
<time>2012-07-27T14:54:18Z</time>
<speed>3.040000</speed>
<extensions>
<speed>3.0</speed>
<temp>0.00</temp>
<bpm>0</bpm>
<rpm>0.00</rpm>
</extensions>
</trkpt>
<trkpt lat="63.917770386" lon="-20.641025543">
<ele>59.902344</ele>
<time>2012-07-27T14:54:23Z</time>
<speed>2.840000</speed>
<extensions>
<speed>2.8</speed>
<temp>0.00</temp>
<bpm>0</bpm>
<rpm>0.00</rpm>
</extensions>
</trkpt>
<trkpt lat="63.917823792" lon="-20.641326904">
<ele>59.726563</ele>
<time>2012-07-27T14:54:28Z</time>
<speed>2.940000</speed>
<extensions>
<speed>2.9</speed>
<temp>0.00</temp>
<bpm>0</bpm>
<rpm>0.00</rpm>
</extensions>
</trkpt>
<trkpt lat="63.917873383" lon="-20.641637802">
<ele>58.953125</ele>
<time>2012-07-27T14:54:33Z</time>
<speed>3.130000</speed>
<extensions>
<speed>3.1</speed>
<temp>0.00</temp>
<bpm>0</bpm>
<rpm>0.00</rpm>
</extensions>
</trkpt>
<trkpt lat="63.917919159" lon="-20.641918182">
<ele>60.268555</ele>
<time>2012-07-27T14:54:38Z</time>
<speed>2.940000</speed>
<extensions>
<speed>2.9</speed>
<temp>0.00</temp>
<bpm>0</bpm>
<rpm>0.00</rpm>
</extensions>
</trkpt>
<trkpt lat="63.917972565" lon="-20.642213821">
<ele>60.023438</ele>
<time>2012-07-27T14:54:43Z</time>
<speed>3.110000</speed>
<extensions>
<speed>3.1</speed>
<temp>0.00</temp>
<bpm>0</bpm>
<rpm>0.00</rpm>
</extensions>
</trkpt>
<trkpt lat="63.918041229" lon="-20.642461777">
<ele>61.119141</ele>
<time>2012-07-27T14:54:48Z</time>
<speed>2.790000</speed>
<extensions>
<speed>2.8</speed>
<temp>0.00</temp>
<bpm>0</bpm>
<rpm>0.00</rpm>
</extensions>
</trkpt>
<trkpt lat="63.918102264" lon="-20.642700195">
<ele>62.111328</ele>
<time>2012-07-27T14:54:53Z</time>
<speed>2.930000</speed>
<extensions>
<speed>2.9</speed>
<temp>0.00</temp>
<bpm>0</bpm>
<rpm>0.00</rpm>
</extensions>
</trkpt>
<trkpt lat="63.918163300" lon="-20.642967224">
<ele>63.073242</ele>
<time>2012-07-27T14:54:58Z</time>
<speed>3.020000</speed>
<extensions>
<speed>3.0</speed>
<temp>0.00</temp>
<bpm>0</bpm>
<rpm>0.00</rpm>
</extensions>
</trkpt>
<trkpt lat="63.918224335" lon="-20.643238068">
<ele>63.822266</ele>
<time>2012-07-27T14:55:03Z</time>
<speed>3.210000</speed>
<extensions>
<speed>3.2</speed>
<temp>0.00</temp>
<bpm>0</bpm>
<rpm>0.00</rpm>
</extensions>
</trkpt>
<trkpt lat="63.918281555" lon="-20.643533707">
<ele>64.205078</ele>
<time>2012-07-27T14:55:08Z</time>
<speed>2.940000</speed>
<extensions>
<speed>2.9</speed>
<temp>0.00</temp>
<bpm>0</bpm>
<rpm>0.00</rpm>
</extensions>
</trkpt>
<trkpt lat="63.918342590" lon="-20.643815994">
<ele>64.718750</ele>
<time>2012-07-27T14:55:13Z</time>
<speed>3.100000</speed>
<extensions>
<speed>3.1</speed>
<temp>0.00</temp>
<bpm>0</bpm>
<rpm>0.00</rpm>
</extensions>
</trkpt>
<trkpt lat="63.918407440" lon="-20.644109726">
<ele>65.109375</ele>
<time>2012-07-27T14:55:18Z</time>
<speed>3.280000</speed>
<extensions>
<speed>3.3</speed>
<temp>0.00</temp>
<bpm>0</bpm>
<rpm>0.00</rpm>
</extensions>
</trkpt>
<trkpt lat="63.918479919" lon="-20.644401550">
<ele>66.812500</ele>
<time>2012-07-27T14:55:23Z</time>
<speed>3.220000</speed>
<extensions>
<speed>3.2</speed>
<temp>0.00</temp>
<bpm>0</bpm>
<rpm>0.00</rpm>
</extensions>
</trkpt>
<trkpt lat="63.918552399" lon="-20.644702911">
<ele>66.429688</ele>
<time>2012-07-27T14:55:28Z</time>
<speed>3.260000</speed>
<extensions>
<speed>3.3</speed>
<temp>0.00</temp>
<bpm>0</bpm>
<rpm>0.00</rpm>
</extensions>
</trkpt>
<trkpt lat="63.918617249" lon="-20.644998550">
<ele>65.714844</ele>
<time>2012-07-27T14:55:33Z</time>
<speed>3.240000</speed>
<extensions>
<speed>3.2</speed>
<temp>0.00</temp>
<bpm>0</bpm>
<rpm>0.00</rpm>
</extensions>
</trkpt>
<trkpt lat="63.918689728" lon="-20.645284653">
<ele>66.351563</ele>
<time>2012-07-27T14:55:38Z</time>
<speed>3.250000</speed>
<extensions>
<speed>3.2</speed>
<temp>0.00</temp>
<bpm>0</bpm>
<rpm>0.00</rpm>
</extensions>
</trkpt>
<trkpt lat="63.918766022" lon="-20.645561218">
<ele>68.132813</ele>
<time>2012-07-27T14:55:43Z</time>
<speed>2.880000</speed>
<extensions>
<speed>2.9</speed>
<temp>0.00</temp>
<bpm>0</bpm>
<rpm>0.00</rpm>
</extensions>
</trkpt>
<trkpt lat="63.918838501" lon="-20.645845413">
<ele>68.845703</ele>
<time>2012-07-27T14:55:48Z</time>
<speed>3.180000</speed>
<extensions>
<speed>3.2</speed>
<temp>0.00</temp>
<bpm>0</bpm>
<rpm>0.00</rpm>
</extensions>
</trkpt>
<trkpt lat="63.918914795" lon="-20.646150589">
<ele>69.455078</ele>
<time>2012-07-27T14:55:53Z</time>
<speed>3.630000</speed>
<extensions>
<speed>3.6</speed>
<temp>0.00</temp>
<bpm>0</bpm>
<rpm>0.00</rpm>
</extensions>
</trkpt>
<trkpt lat="63.918998718" lon="-20.646463394">
<ele>69.595703</ele>
<time>2012-07-27T14:55:58Z</time>
<speed>3.490000</speed>
<extensions>
<speed>3.5</speed>
<temp>0.00</temp>
<bpm>0</bpm>
<rpm>0.00</rpm>
</extensions>
</trkpt>
<trkpt lat="63.919071198" lon="-20.646738052">
<ele>70.880859</ele>
<time>2012-07-27T14:56:03Z</time>
<speed>3.320000</speed>
<extensions>
<speed>3.3</speed>
<temp>0.00</temp>
<bpm>0</bpm>
<rpm>0.00</rpm>
</extensions>
</trkpt>
<trkpt lat="63.919151306" lon="-20.647031784">
<ele>72.019531</ele>
<time>2012-07-27T14:56:08Z</time>
<speed>3.480000</speed>
<extensions>
<speed>3.5</speed>
<temp>0.00</temp>
<bpm>0</bpm>
<rpm>0.00</rpm>
</extensions>
</trkpt>
<trkpt lat="63.919235229" lon="-20.647340775">
<ele>72.363281</ele>
<time>2012-07-27T14:56:13Z</time>
<speed>3.440000</speed>
<extensions>
<speed>3.4</speed>
<temp>0.00</temp>
<bpm>0</bpm>
<rpm>0.00</rpm>
</extensions>
</trkpt>
<trkpt lat="63.919322968" lon="-20.647657394">
<ele>72.630859</ele>
<time>2012-07-27T14:56:18Z</time>
<speed>3.860000</speed>
<extensions>
<speed>3.9</speed>
<temp>0.00</temp>
<bpm>0</bpm>
<rpm>0.00</rpm>
</extensions>
</trkpt>
<trkpt lat="63.919406891" lon="-20.647956848">
<ele>72.123047</ele>
<time>2012-07-27T14:56:23Z</time>
<speed>3.060000</speed>
<extensions>
<speed>3.1</speed>
<temp>0.00</temp>
<bpm>0</bpm>
<rpm>0.00</rpm>
</extensions>
</trkpt>
<trkpt lat="63.919467926" lon="-20.648134232">
<ele>71.921875</ele>
<time>2012-07-27T14:56:28Z</time>
<speed>2.080000</speed>
<extensions>
<speed>2.1</speed>
<temp>0.00</temp>
<bpm>0</bpm>
<rpm>0.00</rpm>
</extensions>
</trkpt>
<trkpt lat="63.919536591" lon="-20.648336411">
<ele>72.792969</ele>
<time>2012-07-27T14:56:33Z</time>
<speed>2.740000</speed>
<extensions>
<speed>2.7</speed>
<temp>0.00</temp>
<bpm>0</bpm>
<rpm>0.00</rpm>
</extensions>
</trkpt>
<trkpt lat="63.919620514" lon="-20.648567200">
<ele>73.267578</ele>
<time>2012-07-27T14:56:38Z</time>
<speed>3.100000</speed>
<extensions>
<speed>3.1</speed>
<temp>0.00</temp>
<bpm>0</bpm>
<rpm>0.00</rpm>
</extensions>
</trkpt>
<trkpt lat="63.919704437" lon="-20.648836136">
<ele>72.841797</ele>
<time>2012-07-27T14:56:43Z</time>
<speed>3.170000</speed>
<extensions>
<speed>3.2</speed>
<temp>0.00</temp>
<bpm>0</bpm>
<rpm>0.00</rpm>
</extensions>
</trkpt>
<trkpt lat="63.919788361" lon="-20.649103165">
<ele>72.718750</ele>
<time>2012-07-27T14:56:48Z</time>
<speed>3.210000</speed>
<extensions>
<speed>3.2</speed>
<temp>0.00</temp>
<bpm>0</bpm>
<rpm>0.00</rpm>
</extensions>
</trkpt>
<trkpt lat="63.919876099" lon="-20.649381638">
<ele>71.843750</ele>
<time>2012-07-27T14:56:53Z</time>
<speed>3.110000</speed>
<extensions>
<speed>3.1</speed>
<temp>0.00</temp>
<bpm>0</bpm>
<rpm>0.00</rpm>
</extensions>
</trkpt>
<trkpt lat="63.919960022" lon="-20.649641037">
<ele>71.593750</ele>
<time>2012-07-27T14:56:58Z</time>
<speed>3.130000</speed>
<extensions>
<speed>3.1</speed>
<temp>0.00</temp>
<bpm>0</bpm>
<rpm>0.00</rpm>
</extensions>
</trkpt>
<trkpt lat="63.920047760" lon="-20.649898529">
<ele>71.621094</ele>
<time>2012-07-27T14:57:03Z</time>
<speed>3.180000</speed>
<extensions>
<speed>3.2</speed>
<temp>0.00</temp>
<bpm>0</bpm>
<rpm>0.00</rpm>
</extensions>
</trkpt>
<trkpt lat="63.920135498" lon="-20.650167465">
<ele>71.500000</ele>
<time>2012-07-27T14:57:08Z</time>
<speed>3.390000</speed>
<extensions>
<speed>3.4</speed>
<temp>0.00</temp>
<bpm>0</bpm>
<rpm>0.00</rpm>
</extensions>
</trkpt>
<trkpt lat="63.920230865" lon="-20.650445938">
<ele>71.171875</ele>
<time>2012-07-27T14:57:13Z</time>
<speed>3.160000</speed>
<extensions>
<speed>3.2</speed>
<temp>0.00</temp>
<bpm>0</bpm>
<rpm>0.00</rpm>
</extensions>
</trkpt>
<trkpt lat="63.920307159" lon="-20.650678635">
<ele>71.099609</ele>
<time>2012-07-27T14:57:18Z</time>
<speed>2.880000</speed>
<extensions>
<speed>2.9</speed>
<temp>0.00</temp>
<bpm>0</bpm>
<rpm>0.00</rpm>
</extensions>
</trkpt>
<trkpt lat="63.920387268" lon="-20.650907516">
<ele>71.269531</ele>
<time>2012-07-27T14:57:23Z</time>
<speed>2.970000</speed>
<extensions>
<speed>3.0</speed>
<temp>0.00</temp>
<bpm>0</bpm>
<rpm>0.00</rpm>
</extensions>
</trkpt>
<trkpt lat="63.920478821" lon="-20.651155472">
<ele>70.085938</ele>
<time>2012-07-27T14:57:28Z</time>
<speed>3.250000</speed>
<extensions>
<speed>3.2</speed>
<temp>0.00</temp>
<bpm>0</bpm>
<rpm>0.00</rpm>
</extensions>
</trkpt>
<trkpt lat="63.920578003" lon="-20.651426315">
<ele>68.884766</ele>
<time>2012-07-27T14:57:33Z</time>
<speed>3.310000</speed>
<extensions>
<speed>3.3</speed>
<temp>0.00</temp>
<bpm>0</bpm>
<rpm>0.00</rpm>
</extensions>
</trkpt>
<trkpt lat="63.920673370" lon="-20.651678085">
<ele>68.800781</ele>
<time>2012-07-27T14:57:38Z</time>
<speed>3.270000</speed>
<extensions>
<speed>3.3</speed>
<temp>0.00</temp>
<bpm>0</bpm>
<rpm>0.00</rpm>
</extensions>
</trkpt>
<trkpt lat="63.920768738" lon="-20.651927948">
<ele>68.984375</ele>
<time>2012-07-27T14:57:43Z</time>
<speed>3.380000</speed>
<extensions>
<speed>3.4</speed>
<temp>0.00</temp>
<bpm>0</bpm>
<rpm>0.00</rpm>
</extensions>
</trkpt>
<trkpt lat="63.920856476" lon="-20.652173996">
<ele>67.132813</ele>
<time>2012-07-27T14:57:48Z</time>
<speed>3.020000</speed>
<extensions>
<speed>3.0</speed>
<temp>0.00</temp>
<bpm>0</bpm>
<rpm>0.00</rpm>
</extensions>
</trkpt>
<trkpt lat="63.920936584" lon="-20.652402878">
<ele>66.980469</ele>
<time>2012-07-27T14:57:53Z</time>
<speed>3.050000</speed>
<extensions>
<speed>3.0</speed>
<temp>0.00</temp>
<bpm>0</bpm>
<rpm>0.00</rpm>
</extensions>
</trkpt>
<trkpt lat="63.921031952" lon="-20.652618408">
<ele>66.968750</ele>
<time>2012-07-27T14:57:58Z</time>
<speed>2.790000</speed>
<extensions>
<speed>2.8</speed>
<temp>0.00</temp>
<bpm>0</bpm>
<rpm>0.00</rpm>
</extensions>
</trkpt>
<trkpt lat="63.921108246" lon="-20.652790070">
<ele>68.107422</ele>
<time>2012-07-27T14:58:03Z</time>
<speed>2.540000</speed>
<extensions>
<speed>2.5</speed>
<temp>0.00</temp>
<bpm>0</bpm>
<rpm>0.00</rpm>
</extensions>
</trkpt>
<trkpt lat="63.921195984" lon="-20.652999878">
<ele>69.044922</ele>
<time>2012-07-27T14:58:08Z</time>
<speed>2.790000</speed>
<extensions>
<speed>2.8</speed>
<temp>0.00</temp>
<bpm>0</bpm>
<rpm>0.00</rpm>
</extensions>
</trkpt>
<trkpt lat="63.921287537" lon="-20.653215408">
<ele>68.949219</ele>
<time>2012-07-27T14:58:13Z</time>
<speed>3.220000</speed>
<extensions>
<speed>3.2</speed>
<temp>0.00</temp>
<bpm>0</bpm>
<rpm>0.00</rpm>
</extensions>
</trkpt>
<trkpt lat="63.921390533" lon="-20.653450012">
<ele>68.371094</ele>
<time>2012-07-27T14:58:18Z</time>
<speed>3.350000</speed>
<extensions>
<speed>3.4</speed>
<temp>0.00</temp>
<bpm>0</bpm>
<rpm>0.00</rpm>
</extensions>
</trkpt>
<trkpt lat="63.921504974" lon="-20.653665543">
<ele>70.847656</ele>
<time>2012-07-27T14:58:23Z</time>
<speed>3.250000</speed>
<extensions>
<speed>3.2</speed>
<temp>0.00</temp>
<bpm>0</bpm>
<rpm>0.00</rpm>
</extensions>
</trkpt>
<trkpt lat="63.921604156" lon="-20.653921127">
<ele>70.332031</ele>
<time>2012-07-27T14:58:28Z</time>
<speed>3.350000</speed>
<extensions>
<speed>3.4</speed>
<temp>0.00</temp>
<bpm>0</bpm>
<rpm>0.00</rpm>
</extensions>
</trkpt>
<trkpt lat="63.921699524" lon="-20.654163361">
<ele>69.544922</ele>
<time>2012-07-27T14:58:33Z</time>
<speed>3.240000</speed>
<extensions>
<speed>3.2</speed>
<temp>0.00</temp>
<bpm>0</bpm>
<rpm>0.00</rpm>
</extensions>
</trkpt>
<trkpt lat="63.921810150" lon="-20.654397964">
<ele>69.703125</ele>
<time>2012-07-27T14:58:38Z</time>
<speed>3.250000</speed>
<extensions>
<speed>3.2</speed>
<temp>0.00</temp>
<bpm>0</bpm>
<rpm>0.00</rpm>
</extensions>
</trkpt>
<trkpt lat="63.921916962" lon="-20.654628754">
<ele>69.923828</ele>
<time>2012-07-27T14:58:43Z</time>
<speed>3.450000</speed>
<extensions>
<speed>3.5</speed>
<temp>0.00</temp>
<bpm>0</bpm>
<rpm>0.00</rpm>
</extensions>
</trkpt>
<trkpt lat="63.922031403" lon="-20.654857635">
<ele>69.310547</ele>
<time>2012-07-27T14:58:48Z</time>
<speed>3.550000</speed>
<extensions>
<speed>3.5</speed>
<temp>0.00</temp>
<bpm>0</bpm>
<rpm>0.00</rpm>
</extensions>
</trkpt>
<trkpt lat="63.922142029" lon="-20.655099869">
<ele>68.673828</ele>
<time>2012-07-27T14:58:53Z</time>
<speed>3.220000</speed>
<extensions>
<speed>3.2</speed>
<temp>0.00</temp>
<bpm>0</bpm>
<rpm>0.00</rpm>
</extensions>
</trkpt>
<trkpt lat="63.922260284" lon="-20.655340195">
<ele>68.281250</ele>
<time>2012-07-27T14:58:58Z</time>
<speed>3.740000</speed>
<extensions>
<speed>3.7</speed>
<temp>0.00</temp>
<bpm>0</bpm>
<rpm>0.00</rpm>
</extensions>
</trkpt>
<trkpt lat="63.922363281" lon="-20.655555725">
<ele>67.513672</ele>
<time>2012-07-27T14:59:03Z</time>
<speed>2.770000</speed>
<extensions>
<speed>2.8</speed>
<temp>0.00</temp>
<bpm>0</bpm>
<rpm>0.00</rpm>
</extensions>
</trkpt>
<trkpt lat="63.922470093" lon="-20.655771255">
<ele>67.205078</ele>
<time>2012-07-27T14:59:08Z</time>
<speed>3.120000</speed>
<extensions>
<speed>3.1</speed>
<temp>0.00</temp>
<bpm>0</bpm>
<rpm>0.00</rpm>
</extensions>
</trkpt>
<trkpt lat="63.922569275" lon="-20.655956268">
<ele>67.990234</ele>
<time>2012-07-27T14:59:13Z</time>
<speed>3.000000</speed>
<extensions>
<speed>3.0</speed>
<temp>0.00</temp>
<bpm>0</bpm>
<rpm>0.00</rpm>
</extensions>
</trkpt>
<trkpt lat="63.922664642" lon="-20.656139374">
<ele>68.222656</ele>
<time>2012-07-27T14:59:18Z</time>
<speed>2.750000</speed>
<extensions>
<speed>2.7</speed>
<temp>0.00</temp>
<bpm>0</bpm>
<rpm>0.00</rpm>
</extensions>
</trkpt>
<trkpt lat="63.922756195" lon="-20.656332016">
<ele>67.486328</ele>
<time>2012-07-27T14:59:23Z</time>
<speed>2.570000</speed>
<extensions>
<speed>2.6</speed>
<temp>0.00</temp>
<bpm>0</bpm>
<rpm>0.00</rpm>
</extensions>
</trkpt>
<trkpt lat="63.922859192" lon="-20.656499863">
<ele>68.632813</ele>
<time>2012-07-27T14:59:28Z</time>
<speed>2.820000</speed>
<extensions>
<speed>2.8</speed>
<temp>0.00</temp>
<bpm>0</bpm>
<rpm>0.00</rpm>
</extensions>
</trkpt>
<trkpt lat="63.922943115" lon="-20.656663895">
<ele>68.281250</ele>
<time>2012-07-27T14:59:33Z</time>
<speed>2.510000</speed>
<extensions>
<speed>2.5</speed>
<temp>0.00</temp>
<bpm>0</bpm>
<rpm>0.00</rpm>
</extensions>
</trkpt>
<trkpt lat="63.923023224" lon="-20.656806946">
<ele>68.199219</ele>
<time>2012-07-27T14:59:38Z</time>
<speed>1.880000</speed>
<extensions>
<speed>1.9</speed>
<temp>0.00</temp>
<bpm>0</bpm>
<rpm>0.00</rpm>
</extensions>
</trkpt>
<trkpt lat="63.923095703" lon="-20.656963348">
<ele>67.564453</ele>
<time>2012-07-27T14:59:43Z</time>
<speed>2.470000</speed>
<extensions>
<speed>2.5</speed>
<temp>0.00</temp>
<bpm>0</bpm>
<rpm>0.00</rpm>
</extensions>
</trkpt>
<trkpt lat="63.923175812" lon="-20.657121658">
<ele>67.691406</ele>
<time>2012-07-27T14:59:48Z</time>
<speed>2.490000</speed>
<extensions>
<speed>2.5</speed>
<temp>0.00</temp>
<bpm>0</bpm>
<rpm>0.00</rpm>
</extensions>
</trkpt>
<trkpt lat="63.923259735" lon="-20.657281876">
<ele>66.755859</ele>
<time>2012-07-27T14:59:53Z</time>
<speed>2.590000</speed>
<extensions>
<speed>2.6</speed>
<temp>0.00</temp>
<bpm>0</bpm>
<rpm>0.00</rpm>
</extensions>
</trkpt>
<trkpt lat="63.923358917" lon="-20.657444000">
<ele>66.384766</ele>
<time>2012-07-27T14:59:58Z</time>
<speed>2.350000</speed>
<extensions>
<speed>2.4</speed>
<temp>0.00</temp>
<bpm>0</bpm>
<rpm>0.00</rpm>
</extensions>
</trkpt>
<trkpt lat="63.923458099" lon="-20.657598495">
<ele>66.210938</ele>
<time>2012-07-27T15:00:03Z</time>
<speed>2.800000</speed>
<extensions>
<speed>2.8</speed>
<temp>0.00</temp>
<bpm>0</bpm>
<rpm>0.00</rpm>
</extensions>
</trkpt>
<trkpt lat="63.923545837" lon="-20.657751083">
<ele>65.564453</ele>
<time>2012-07-27T15:00:08Z</time>
<speed>2.270000</speed>
<extensions>
<speed>2.3</speed>
<temp>0.00</temp>
<bpm>0</bpm>
<rpm>0.00</rpm>
</extensions>
</trkpt>
<trkpt lat="63.923641205" lon="-20.657905579">
<ele>65.707031</ele>
<time>2012-07-27T15:00:13Z</time>
<speed>2.660000</speed>
<extensions>
<speed>2.7</speed>
<temp>0.00</temp>
<bpm>0</bpm>
<rpm>0.00</rpm>
</extensions>
</trkpt>
<trkpt lat="63.923732758" lon="-20.658063889">
<ele>65.882813</ele>
<time>2012-07-27T15:00:18Z</time>
<speed>2.580000</speed>
<extensions>
<speed>2.6</speed>
<temp>0.00</temp>
<bpm>0</bpm>
<rpm>0.00</rpm>
</extensions>
</trkpt>
<trkpt lat="63.923831940" lon="-20.658210754">
<ele>66.349609</ele>
<time>2012-07-27T15:00:23Z</time>
<speed>2.890000</speed>
<extensions>
<speed>2.9</speed>
<temp>0.00</temp>
<bpm>0</bpm>
<rpm>0.00</rpm>
</extensions>
</trkpt>
<trkpt lat="63.923934937" lon="-20.658357620">
<ele>66.548828</ele>
<time>2012-07-27T15:00:28Z</time>
<speed>2.610000</speed>
<extensions>
<speed>2.6</speed>
<temp>0.00</temp>
<bpm>0</bpm>
<rpm>0.00</rpm>
</extensions>
</trkpt>
<trkpt lat="63.924030304" lon="-20.658515930">
<ele>66.667969</ele>
<time>2012-07-27T15:00:33Z</time>
<speed>2.590000</speed>
<extensions>
<speed>2.6</speed>
<temp>0.00</temp>
<bpm>0</bpm>
<rpm>0.00</rpm>
</extensions>
</trkpt>
<trkpt lat="63.924121857" lon="-20.658660889">
<ele>66.757813</ele>
<time>2012-07-27T15:00:38Z</time>
<speed>2.410000</speed>
<extensions>
<speed>2.4</speed>
<temp>0.00</temp>
<bpm>0</bpm>
<rpm>0.00</rpm>
</extensions>
</trkpt>
<trkpt lat="63.924213409" lon="-20.658824921">
<ele>66.125000</ele>
<time>2012-07-27T15:00:43Z</time>
<speed>2.640000</speed>
<extensions>
<speed>2.6</speed>
<temp>0.00</temp>
<bpm>0</bpm>
<rpm>0.00</rpm>
</extensions>
</trkpt>
<trkpt lat="63.924308777" lon="-20.658975601">
<ele>65.130859</ele>
<time>2012-07-27T15:00:48Z</time>
<speed>2.280000</speed>
<extensions>
<speed>2.3</speed>
<temp>0.00</temp>
<bpm>0</bpm>
<rpm>0.00</rpm>
</extensions>
</trkpt>
<trkpt lat="63.924404144" lon="-20.659132004">
<ele>65.222656</ele>
<time>2012-07-27T15:00:53Z</time>
<speed>2.810000</speed>
<extensions>
<speed>2.8</speed>
<temp>0.00</temp>
<bpm>0</bpm>
<rpm>0.00</rpm>
</extensions>
</trkpt>
<trkpt lat="63.924510956" lon="-20.659288406">
<ele>64.912109</ele>
<time>2012-07-27T15:00:58Z</time>
<speed>2.930000</speed>
<extensions>
<speed>2.9</speed>
<temp>0.00</temp>
<bpm>0</bpm>
<rpm>0.00</rpm>
</extensions>
</trkpt>
<trkpt lat="63.924617767" lon="-20.659439087">
<ele>65.257813</ele>
<time>2012-07-27T15:01:03Z</time>
<speed>2.710000</speed>
<extensions>
<speed>2.7</speed>
<temp>0.00</temp>
<bpm>0</bpm>
<rpm>0.00</rpm>
</extensions>
</trkpt>
<trkpt lat="63.924720764" lon="-20.659580231">
<ele>64.404297</ele>
<time>2012-07-27T15:01:08Z</time>
<speed>2.800000</speed>
<extensions>
<speed>2.8</speed>
<temp>0.00</temp>
<bpm>0</bpm>
<rpm>0.00</rpm>
</extensions>
</trkpt>
<trkpt lat="63.924823761" lon="-20.659729004">
<ele>64.431641</ele>
<time>2012-07-27T15:01:13Z</time>
<speed>2.780000</speed>
<extensions>
<speed>2.8</speed>
<temp>0.00</temp>
<bpm>0</bpm>
<rpm>0.00</rpm>
</extensions>
</trkpt>
<trkpt lat="63.924930573" lon="-20.659870148">
<ele>64.433594</ele>
<time>2012-07-27T15:01:18Z</time>
<speed>2.960000</speed>
<extensions>
<speed>3.0</speed>
<temp>0.00</temp>
<bpm>0</bpm>
<rpm>0.00</rpm>
</extensions>
</trkpt>
<trkpt lat="63.925033569" lon="-20.660007477">
<ele>64.437500</ele>
<time>2012-07-27T15:01:23Z</time>
<speed>2.420000</speed>
<extensions>
<speed>2.4</speed>
<temp>0.00</temp>
<bpm>0</bpm>
<rpm>0.00</rpm>
</extensions>
</trkpt>
<trkpt lat="63.925132751" lon="-20.660144806">
<ele>64.445313</ele>
<time>2012-07-27T15:01:28Z</time>
<speed>2.470000</speed>
<extensions>
<speed>2.5</speed>
<temp>0.00</temp>
<bpm>0</bpm>
<rpm>0.00</rpm>
</extensions>
</trkpt>
<trkpt lat="63.925231934" lon="-20.660287857">
<ele>64.603516</ele>
<time>2012-07-27T15:01:33Z</time>
<speed>2.740000</speed>
<extensions>
<speed>2.7</speed>
<temp>0.00</temp>
<bpm>0</bpm>
<rpm>0.00</rpm>
</extensions>
</trkpt>
<trkpt lat="63.925331116" lon="-20.660425186">
<ele>65.261719</ele>
<time>2012-07-27T15:01:38Z</time>
<speed>2.770000</speed>
<extensions>
<speed>2.8</speed>
<temp>0.00</temp>
<bpm>0</bpm>
<rpm>0.00</rpm>
</extensions>
</trkpt>
<trkpt lat="63.925441742" lon="-20.660512924">
<ele>65.021484</ele>
<time>2012-07-27T15:01:43Z</time>
<speed>2.310000</speed>
<extensions>
<speed>2.3</speed>
<temp>0.00</temp>
<bpm>0</bpm>
<rpm>0.00</rpm>
</extensions>
</trkpt>
<trkpt lat="63.925518036" lon="-20.660661697">
<ele>65.400391</ele>
<time>2012-07-27T15:01:48Z</time>
<speed>3.220000</speed>
<extensions>
<speed>3.2</speed>
<temp>0.00</temp>
<bpm>0</bpm>
<rpm>0.00</rpm>
</extensions>
</trkpt>
<trkpt lat="63.925655365" lon="-20.660825729">
<ele>64.925781</ele>
<time>2012-07-27T15:01:53Z</time>
<speed>3.420000</speed>
<extensions>
<speed>3.4</speed>
<temp>0.00</temp>
<bpm>0</bpm>
<rpm>0.00</rpm>
</extensions>
</trkpt>
<trkpt lat="63.925788879" lon="-20.660985947">
<ele>64.638672</ele>
<time>2012-07-27T15:01:58Z</time>
<speed>2.840000</speed>
<extensions>
<speed>2.8</speed>
<temp>0.00</temp>
<bpm>0</bpm>
<rpm>0.00</rpm>
</extensions>
</trkpt>
<trkpt lat="63.925884247" lon="-20.661108017">
<ele>61.592773</ele>
<time>2012-07-27T15:02:03Z</time>
<speed>2.420000</speed>
<extensions>
<speed>2.4</speed>
<temp>0.00</temp>
<bpm>0</bpm>
<rpm>0.00</rpm>
</extensions>
</trkpt>
<trkpt lat="63.925983429" lon="-20.661216736">
<ele>61.839844</ele>
<time>2012-07-27T15:02:08Z</time>
<speed>2.760000</speed>
<extensions>
<speed>2.8</speed>
<temp>0.00</temp>
<bpm>0</bpm>
<rpm>0.00</rpm>
</extensions>
</trkpt>
<trkpt lat="63.926090240" lon="-20.661348343">
<ele>61.207031</ele>
<time>2012-07-27T15:02:13Z</time>
<speed>2.620000</speed>
<extensions>
<speed>2.6</speed>
<temp>0.00</temp>
<bpm>0</bpm>
<rpm>0.00</rpm>
</extensions>
</trkpt>
<trkpt lat="63.926204681" lon="-20.661483765">
<ele>61.208984</ele>
<time>2012-07-27T15:02:18Z</time>
<speed>2.750000</speed>
<extensions>
<speed>2.7</speed>
<temp>0.00</temp>
<bpm>0</bpm>
<rpm>0.00</rpm>
</extensions>
</trkpt>
<trkpt lat="63.926319122" lon="-20.661615372">
<ele>61.405273</ele>
<time>2012-07-27T15:02:23Z</time>
<speed>2.980000</speed>
<extensions>
<speed>3.0</speed>
<temp>0.00</temp>
<bpm>0</bpm>
<rpm>0.00</rpm>
</extensions>
</trkpt>
<trkpt lat="63.926433563" lon="-20.661766052">
<ele>61.086914</ele>
<time>2012-07-27T15:02:28Z</time>
<speed>2.840000</speed>
<extensions>
<speed>2.8</speed>
<temp>0.00</temp>
<bpm>0</bpm>
<rpm>0.00</rpm>
</extensions>
</trkpt>
<trkpt lat="63.926567078" lon="-20.661895752">
<ele>60.629883</ele>
<time>2012-07-27T15:02:33Z</time>
<speed>3.830000</speed>
<extensions>
<speed>3.8</speed>
<temp>0.00</temp>
<bpm>0</bpm>
<rpm>0.00</rpm>
</extensions>
</trkpt>
<trkpt lat="63.926731110" lon="-20.662061691">
<ele>59.760742</ele>
<time>2012-07-27T15:02:38Z</time>
<speed>4.030000</speed>
<extensions>
<speed>4.0</speed>
<temp>0.00</temp>
<bpm>0</bpm>
<rpm>0.00</rpm>
</extensions>
</trkpt>
<trkpt lat="63.926902771" lon="-20.662223816">
<ele>58.546875</ele>
<time>2012-07-27T15:02:43Z</time>
<speed>4.310000</speed>
<extensions>
<speed>4.3</speed>
<temp>0.00</temp>
<bpm>0</bpm>
<rpm>0.00</rpm>
</extensions>
</trkpt>
<trkpt lat="63.927078247" lon="-20.662384033">
<ele>58.270508</ele>
<time>2012-07-27T15:02:48Z</time>
<speed>4.230000</speed>
<extensions>
<speed>4.2</speed>
<temp>0.00</temp>
<bpm>0</bpm>
<rpm>0.00</rpm>
</extensions>
</trkpt>
<trkpt lat="63.927261353" lon="-20.662561417">
<ele>57.396484</ele>
<time>2012-07-27T15:02:53Z</time>
<speed>4.620000</speed>
<extensions>
<speed>4.6</speed>
<temp>0.00</temp>
<bpm>0</bpm>
<rpm>0.00</rpm>
</extensions>
</trkpt>
<trkpt lat="63.927455902" lon="-20.662754059">
<ele>56.976563</ele>
<time>2012-07-27T15:02:58Z</time>
<speed>4.650000</speed>
<extensions>
<speed>4.6</speed>
<temp>0.00</temp>
<bpm>0</bpm>
<rpm>0.00</rpm>
</extensions>
</trkpt>
<trkpt lat="63.927639008" lon="-20.662935257">
<ele>55.790039</ele>
<time>2012-07-27T15:03:03Z</time>
<speed>4.510000</speed>
<extensions>
<speed>4.5</speed>
<temp>0.00</temp>
<bpm>0</bpm>
<rpm>0.00</rpm>
</extensions>
</trkpt>
<trkpt lat="63.927822113" lon="-20.663114548">
<ele>55.424805</ele>
<time>2012-07-27T15:03:08Z</time>
<speed>4.490000</speed>
<extensions>
<speed>4.5</speed>
<temp>0.00</temp>
<bpm>0</bpm>
<rpm>0.00</rpm>
</extensions>
</trkpt>
<trkpt lat="63.927997589" lon="-20.663293839">
<ele>54.505859</ele>
<time>2012-07-27T15:03:13Z</time>
<speed>4.570000</speed>
<extensions>
<speed>4.6</speed>
<temp>0.00</temp>
<bpm>0</bpm>
<rpm>0.00</rpm>
</extensions>
</trkpt>
<trkpt lat="63.928173065" lon="-20.663471222">
<ele>54.152344</ele>
<time>2012-07-27T15:03:18Z</time>
<speed>3.980000</speed>
<extensions>
<speed>4.0</speed>
<temp>0.00</temp>
<bpm>0</bpm>
<rpm>0.00</rpm>
</extensions>
</trkpt>
<trkpt lat="63.928371429" lon="-20.663660049">
<ele>53.675781</ele>
<time>2012-07-27T15:03:23Z</time>
<speed>4.940000</speed>
<extensions>
<speed>4.9</speed>
<temp>0.00</temp>
<bpm>0</bpm>
<rpm>0.00</rpm>
</extensions>
</trkpt>
<trkpt lat="63.928562164" lon="-20.663835526">
<ele>51.937500</ele>
<time>2012-07-27T15:03:28Z</time>
<speed>4.320000</speed>
<extensions>
<speed>4.3</speed>
<temp>0.00</temp>
<bpm>0</bpm>
<rpm>0.00</rpm>
</extensions>
</trkpt>
<trkpt lat="63.928745270" lon="-20.664018631">
<ele>51.300781</ele>
<time>2012-07-27T15:03:33Z</time>
<speed>4.670000</speed>
<extensions>
<speed>4.7</speed>
<temp>0.00</temp>
<bpm>0</bpm>
<rpm>0.00</rpm>
</extensions>
</trkpt>
<trkpt lat="63.928916931" lon="-20.664188385">
<ele>52.020508</ele>
<time>2012-07-27T15:03:38Z</time>
<speed>4.130000</speed>
<extensions>
<speed>4.1</speed>
<temp>0.00</temp>
<bpm>0</bpm>
<rpm>0.00</rpm>
</extensions>
</trkpt>
<trkpt lat="63.929073334" lon="-20.664333344">
<ele>52.614258</ele>
<time>2012-07-27T15:03:43Z</time>
<speed>3.860000</speed>
<extensions>
<speed>3.9</speed>
<temp>0.00</temp>
<bpm>0</bpm>
<rpm>0.00</rpm>
</extensions>
</trkpt>
<trkpt lat="63.929244995" lon="-20.664506912">
<ele>53.035156</ele>
<time>2012-07-27T15:03:48Z</time>
<speed>4.380000</speed>
<extensions>
<speed>4.4</speed>
<temp>0.00</temp>
<bpm>0</bpm>
<rpm>0.00</rpm>
</extensions>
</trkpt>
<trkpt lat="63.929424286" lon="-20.664684296">
<ele>54.820313</ele>
<time>2012-07-27T15:03:53Z</time>
<speed>4.420000</speed>
<extensions>
<speed>4.4</speed>
<temp>0.00</temp>
<bpm>0</bpm>
<rpm>0.00</rpm>
</extensions>
</trkpt>
<trkpt lat="63.929618835" lon="-20.664869308">
<ele>54.089844</ele>
<time>2012-07-27T15:03:58Z</time>
<speed>4.920000</speed>
<extensions>
<speed>4.9</speed>
<temp>0.00</temp>
<bpm>0</bpm>
<rpm>0.00</rpm>
</extensions>
</trkpt>
<trkpt lat="63.929809570" lon="-20.665060043">
<ele>53.023438</ele>
<time>2012-07-27T15:04:03Z</time>
<speed>4.500000</speed>
<extensions>
<speed>4.5</speed>
<temp>0.00</temp>
<bpm>0</bpm>
<rpm>0.00</rpm>
</extensions>
</trkpt>
<trkpt lat="63.930000305" lon="-20.665246964">
<ele>54.047852</ele>
<time>2012-07-27T15:04:08Z</time>
<speed>4.550000</speed>
<extensions>
<speed>4.5</speed>
<temp>0.00</temp>
<bpm>0</bpm>
<rpm>0.00</rpm>
</extensions>
</trkpt>
<trkpt lat="63.930183411" lon="-20.665414810">
<ele>53.641602</ele>
<time>2012-07-27T15:04:13Z</time>
<speed>4.610000</speed>
<extensions>
<speed>4.6</speed>
<temp>0.00</temp>
<bpm>0</bpm>
<rpm>0.00</rpm>
</extensions>
</trkpt>
<trkpt lat="63.930366516" lon="-20.665582657">
<ele>54.117188</ele>
<time>2012-07-27T15:04:18Z</time>
<speed>4.290000</speed>
<extensions>
<speed>4.3</speed>
<temp>0.00</temp>
<bpm>0</bpm>
<rpm>0.00</rpm>
</extensions>
</trkpt>
<trkpt lat="63.930553436" lon="-20.665767670">
<ele>54.338867</ele>
<time>2012-07-27T15:04:23Z</time>
<speed>4.780000</speed>
<extensions>
<speed>4.8</speed>
<temp>0.00</temp>
<bpm>0</bpm>
<rpm>0.00</rpm>
</extensions>
</trkpt>
<trkpt lat="63.930740356" lon="-20.665945053">
<ele>53.737305</ele>
<time>2012-07-27T15:04:28Z</time>
<speed>4.030000</speed>
<extensions>
<speed>4.0</speed>
<temp>0.00</temp>
<bpm>0</bpm>
<rpm>0.00</rpm>
</extensions>
</trkpt>
<trkpt lat="63.930915833" lon="-20.666099548">
<ele>54.677734</ele>
<time>2012-07-27T15:04:33Z</time>
<speed>4.350000</speed>
<extensions>
<speed>4.3</speed>
<temp>0.00</temp>
<bpm>0</bpm>
<rpm>0.00</rpm>
</extensions>
</trkpt>
<trkpt lat="63.931083679" lon="-20.666267395">
<ele>53.465820</ele>
<time>2012-07-27T15:04:38Z</time>
<speed>3.280000</speed>
<extensions>
<speed>3.3</speed>
<temp>0.00</temp>
<bpm>0</bpm>
<rpm>0.00</rpm>
</extensions>
</trkpt>
<trkpt lat="63.931209564" lon="-20.666378021">
<ele>52.875977</ele>
<time>2012-07-27T15:04:43Z</time>
<speed>3.120000</speed>
<extensions>
<speed>3.1</speed>
<temp>0.00</temp>
<bpm>0</bpm>
<rpm>0.00</rpm>
</extensions>
</trkpt>
<trkpt lat="63.931346893" lon="-20.666521072">
<ele>52.319336</ele>
<time>2012-07-27T15:04:48Z</time>
<speed>3.960000</speed>
<extensions>
<speed>4.0</speed>
<temp>0.00</temp>
<bpm>0</bpm>
<rpm>0.00</rpm>
</extensions>
</trkpt>
<trkpt lat="63.931522369" lon="-20.666679382">
<ele>51.535156</ele>
<time>2012-07-27T15:04:53Z</time>
<speed>4.560000</speed>
<extensions>
<speed>4.6</speed>
<temp>0.00</temp>
<bpm>0</bpm>
<rpm>0.00</rpm>
</extensions>
</trkpt>
<trkpt lat="63.931713104" lon="-20.666851044">
<ele>51.454102</ele>
<time>2012-07-27T15:04:58Z</time>
<speed>3.780000</speed>
<extensions>
<speed>3.8</speed>
<temp>0.00</temp>
<bpm>0</bpm>
<rpm>0.00</rpm>
</extensions>
</trkpt>
<trkpt lat="63.931854248" lon="-20.666996002">
<ele>51.049805</ele>
<time>2012-07-27T15:05:03Z</time>
<speed>3.730000</speed>
<extensions>
<speed>3.7</speed>
<temp>0.00</temp>
<bpm>0</bpm>
<rpm>0.00</rpm>
</extensions>
</trkpt>
<trkpt lat="63.932010651" lon="-20.667127609">
<ele>50.813477</ele>
<time>2012-07-27T15:05:08Z</time>
<speed>3.080000</speed>
<extensions>
<speed>3.1</speed>
<temp>0.00</temp>
<bpm>0</bpm>
<rpm>0.00</rpm>
</extensions>
</trkpt>
<trkpt lat="63.932128906" lon="-20.667247772">
<ele>50.597656</ele>
<time>2012-07-27T15:05:13Z</time>
<speed>3.080000</speed>
<extensions>
<speed>3.1</speed>
<temp>0.00</temp>
<bpm>0</bpm>
<rpm>0.00</rpm>
</extensions>
</trkpt>
<trkpt lat="63.932262421" lon="-20.667373657">
<ele>50.673828</ele>
<time>2012-07-27T15:05:18Z</time>
<speed>3.150000</speed>
<extensions>
<speed>3.2</speed>
<temp>0.00</temp>
<bpm>0</bpm>
<rpm>0.00</rpm>
</extensions>
</trkpt>
<trkpt lat="63.932392120" lon="-20.667478561">
<ele>50.617188</ele>
<time>2012-07-27T15:05:23Z</time>
<speed>3.000000</speed>
<extensions>
<speed>3.0</speed>
<temp>0.00</temp>
<bpm>0</bpm>
<rpm>0.00</rpm>
</extensions>
</trkpt>
<trkpt lat="63.932514191" lon="-20.667562485">
<ele>50.168945</ele>
<time>2012-07-27T15:05:28Z</time>
<speed>2.800000</speed>
<extensions>
<speed>2.8</speed>
<temp>0.00</temp>
<bpm>0</bpm>
<rpm>0.00</rpm>
</extensions>
</trkpt>
<trkpt lat="63.932640076" lon="-20.667657852">
<ele>49.856445</ele>
<time>2012-07-27T15:05:33Z</time>
<speed>2.880000</speed>
<extensions>
<speed>2.9</speed>
<temp>0.00</temp>
<bpm>0</bpm>
<rpm>0.00</rpm>
</extensions>
</trkpt>
<trkpt lat="63.932720184" lon="-20.667705536">
<ele>50.564453</ele>
<time>2012-07-27T15:05:38Z</time>
<speed>0.090000</speed>
<extensions>
<speed>0.1</speed>
<temp>0.00</temp>
<bpm>0</bpm>
<rpm>0.00</rpm>
</extensions>
</trkpt>
<trkpt lat="63.932723999" lon="-20.667695999">
<ele>50.838867</ele>
<time>2012-07-27T15:05:43Z</time>
<extensions>
<speed>0.0</speed>
<temp>0.00</temp>
<bpm>0</bpm>
<rpm>0.00</rpm>
</extensions>
</trkpt>
<trkpt lat="63.932723999" lon="-20.667695999">
<ele>50.881836</ele>
<time>2012-07-27T15:05:48Z</time>
<extensions>
<speed>0.0</speed>
<temp>0.00</temp>
<bpm>0</bpm>
<rpm>0.00</rpm>
</extensions>
</trkpt>
<trkpt lat="63.932723999" lon="-20.667695999">
<ele>50.961914</ele>
<time>2012-07-27T15:05:53Z</time>
<extensions>
<speed>0.0</speed>
<temp>0.00</temp>
<bpm>0</bpm>
<rpm>0.00</rpm>
</extensions>
</trkpt>
<trkpt lat="63.932723999" lon="-20.667695999">
<ele>51.002930</ele>
<time>2012-07-27T15:05:58Z</time>
<speed>0.050000</speed>
<extensions>
<speed>0.1</speed>
<temp>0.00</temp>
<bpm>0</bpm>
<rpm>0.00</rpm>
</extensions>
</trkpt>
<trkpt lat="63.932723999" lon="-20.667695999">
<ele>50.879883</ele>
<time>2012-07-27T15:06:03Z</time>
<speed>0.010000</speed>
<extensions>
<speed>0.0</speed>
<temp>0.00</temp>
<bpm>0</bpm>
<rpm>0.00</rpm>
</extensions>
</trkpt>
<trkpt lat="63.932723999" lon="-20.667695999">
<ele>50.883789</ele>
<time>2012-07-27T15:06:08Z</time>
<extensions>
<speed>0.0</speed>
<temp>0.00</temp>
<bpm>0</bpm>
<rpm>0.00</rpm>
</extensions>
</trkpt>
<trkpt lat="63.932723999" lon="-20.667695999">
<ele>50.956055</ele>
<time>2012-07-27T15:06:13Z</time>
<extensions>
<speed>0.0</speed>
<temp>0.00</temp>
<bpm>0</bpm>
<rpm>0.00</rpm>
</extensions>
</trkpt>
<trkpt lat="63.932723999" lon="-20.667695999">
<ele>50.965820</ele>
<time>2012-07-27T15:06:18Z</time>
<speed>0.010000</speed>
<extensions>
<speed>0.0</speed>
<temp>0.00</temp>
<bpm>0</bpm>
<rpm>0.00</rpm>
</extensions>
</trkpt>
<trkpt lat="63.932723999" lon="-20.667695999">
<ele>50.971680</ele>
<time>2012-07-27T15:06:23Z</time>
<extensions>
<speed>0.0</speed>
<temp>0.00</temp>
<bpm>0</bpm>
<rpm>0.00</rpm>
</extensions>
</trkpt>
<trkpt lat="63.932723999" lon="-20.667695999">
<ele>50.985352</ele>
<time>2012-07-27T15:06:28Z</time>
<extensions>
<speed>0.0</speed>
<temp>0.00</temp>
<bpm>0</bpm>
<rpm>0.00</rpm>
</extensions>
</trkpt>
<trkpt lat="63.932723999" lon="-20.667695999">
<ele>50.998047</ele>
<time>2012-07-27T15:06:33Z</time>
<extensions>
<speed>0.0</speed>
<temp>0.00</temp>
<bpm>0</bpm>
<rpm>0.00</rpm>
</extensions>
</trkpt>
<trkpt lat="63.932723999" lon="-20.667695999">
<ele>51.001953</ele>
<time>2012-07-27T15:06:38Z</time>
<speed>0.010000</speed>
<extensions>
<speed>0.0</speed>
<temp>0.00</temp>
<bpm>0</bpm>
<rpm>0.00</rpm>
</extensions>
</trkpt>
<trkpt lat="63.932727814" lon="-20.667697906">
<ele>51.046875</ele>
<time>2012-07-27T15:06:43Z</time>
<speed>0.460000</speed>
<extensions>
<speed>0.5</speed>
<temp>0.00</temp>
<bpm>0</bpm>
<rpm>0.00</rpm>
</extensions>
</trkpt>
<trkpt lat="63.932750702" lon="-20.667732239">
<ele>51.278320</ele>
<time>2012-07-27T15:06:48Z</time>
<speed>1.150000</speed>
<extensions>
<speed>1.1</speed>
<temp>0.00</temp>
<bpm>0</bpm>
<rpm>0.00</rpm>
</extensions>
</trkpt>
<trkpt lat="63.932811737" lon="-20.667770386">
<ele>50.973633</ele>
<time>2012-07-27T15:06:53Z</time>
<speed>1.940000</speed>
<extensions>
<speed>1.9</speed>
<temp>0.00</temp>
<bpm>0</bpm>
<rpm>0.00</rpm>
</extensions>
</trkpt>
<trkpt lat="63.932922363" lon="-20.667869568">
<ele>50.628906</ele>
<time>2012-07-27T15:06:58Z</time>
<speed>3.160000</speed>
<extensions>
<speed>3.2</speed>
<temp>0.00</temp>
<bpm>0</bpm>
<rpm>0.00</rpm>
</extensions>
</trkpt>
<trkpt lat="63.933067322" lon="-20.668001175">
<ele>50.851563</ele>
<time>2012-07-27T15:07:03Z</time>
<speed>3.620000</speed>
<extensions>
<speed>3.6</speed>
<temp>0.00</temp>
<bpm>0</bpm>
<rpm>0.00</rpm>
</extensions>
</trkpt>
<trkpt lat="63.933227539" lon="-20.668127060">
<ele>50.446289</ele>
<time>2012-07-27T15:07:08Z</time>
<speed>3.840000</speed>
<extensions>
<speed>3.8</speed>
<temp>0.00</temp>
<bpm>0</bpm>
<rpm>0.00</rpm>
</extensions>
</trkpt>
<trkpt lat="63.933399200" lon="-20.668262482">
<ele>50.817383</ele>
<time>2012-07-27T15:07:13Z</time>
<speed>4.070000</speed>
<extensions>
<speed>4.1</speed>
<temp>0.00</temp>
<bpm>0</bpm>
<rpm>0.00</rpm>
</extensions>
</trkpt>
<trkpt lat="63.933574677" lon="-20.668382645">
<ele>50.241211</ele>
<time>2012-07-27T15:07:18Z</time>
<speed>4.350000</speed>
<extensions>
<speed>4.3</speed>
<temp>0.00</temp>
<bpm>0</bpm>
<rpm>0.00</rpm>
</extensions>
</trkpt>
<trkpt lat="63.933746338" lon="-20.668493271">
<ele>50.017578</ele>
<time>2012-07-27T15:07:23Z</time>
<speed>3.970000</speed>
<extensions>
<speed>4.0</speed>
<temp>0.00</temp>
<bpm>0</bpm>
<rpm>0.00</rpm>
</extensions>
</trkpt>
<trkpt lat="63.933933258" lon="-20.668611526">
<ele>48.775391</ele>
<time>2012-07-27T15:07:28Z</time>
<speed>4.460000</speed>
<extensions>
<speed>4.5</speed>
<temp>0.00</temp>
<bpm>0</bpm>
<rpm>0.00</rpm>
</extensions>
</trkpt>
<trkpt lat="63.934104919" lon="-20.668718338">
<ele>48.541016</ele>
<time>2012-07-27T15:07:33Z</time>
<speed>3.850000</speed>
<extensions>
<speed>3.8</speed>
<temp>0.00</temp>
<bpm>0</bpm>
<rpm>0.00</rpm>
</extensions>
</trkpt>
<trkpt lat="63.934253693" lon="-20.668813705">
<ele>48.147461</ele>
<time>2012-07-27T15:07:38Z</time>
<speed>3.660000</speed>
<extensions>
<speed>3.7</speed>
<temp>0.00</temp>
<bpm>0</bpm>
<rpm>0.00</rpm>
</extensions>
</trkpt>
<trkpt lat="63.934425354" lon="-20.668909073">
<ele>48.248047</ele>
<time>2012-07-27T15:07:43Z</time>
<speed>3.660000</speed>
<extensions>
<speed>3.7</speed>
<temp>0.00</temp>
<bpm>0</bpm>
<rpm>0.00</rpm>
</extensions>
</trkpt>
<trkpt lat="63.934581757" lon="-20.668992996">
<ele>48.442383</ele>
<time>2012-07-27T15:07:48Z</time>
<speed>3.690000</speed>
<extensions>
<speed>3.7</speed>
<temp>0.00</temp>
<bpm>0</bpm>
<rpm>0.00</rpm>
</extensions>
</trkpt>
<trkpt lat="63.934738159" lon="-20.669075012">
<ele>46.170898</ele>
<time>2012-07-27T15:07:53Z</time>
<speed>3.130000</speed>
<extensions>
<speed>3.1</speed>
<temp>0.00</temp>
<bpm>0</bpm>
<rpm>0.00</rpm>
</extensions>
</trkpt>
<trkpt lat="63.934894562" lon="-20.669149399">
<ele>45.891602</ele>
<time>2012-07-27T15:07:58Z</time>
<speed>3.670000</speed>
<extensions>
<speed>3.7</speed>
<temp>0.00</temp>
<bpm>0</bpm>
<rpm>0.00</rpm>
</extensions>
</trkpt>
<trkpt lat="63.935062408" lon="-20.669210434">
<ele>48.292969</ele>
<time>2012-07-27T15:08:03Z</time>
<speed>3.810000</speed>
<extensions>
<speed>3.8</speed>
<temp>0.00</temp>
<bpm>0</bpm>
<rpm>0.00</rpm>
</extensions>
</trkpt>
<trkpt lat="63.935230255" lon="-20.669294357">
<ele>46.223633</ele>
<time>2012-07-27T15:08:08Z</time>
<speed>3.810000</speed>
<extensions>
<speed>3.8</speed>
<temp>0.00</temp>
<bpm>0</bpm>
<rpm>0.00</rpm>
</extensions>
</trkpt>
<trkpt lat="63.935401917" lon="-20.669376373">
<ele>44.768555</ele>
<time>2012-07-27T15:08:13Z</time>
<speed>3.900000</speed>
<extensions>
<speed>3.9</speed>
<temp>0.00</temp>
<bpm>0</bpm>
<rpm>0.00</rpm>
</extensions>
</trkpt>
<trkpt lat="63.935577393" lon="-20.669443130">
<ele>44.083984</ele>
<time>2012-07-27T15:08:18Z</time>
<speed>3.840000</speed>
<extensions>
<speed>3.8</speed>
<temp>0.00</temp>
<bpm>0</bpm>
<rpm>0.00</rpm>
</extensions>
</trkpt>
<trkpt lat="63.935752869" lon="-20.669509888">
<ele>43.027344</ele>
<time>2012-07-27T15:08:23Z</time>
<speed>4.050000</speed>
<extensions>
<speed>4.0</speed>
<temp>0.00</temp>
<bpm>0</bpm>
<rpm>0.00</rpm>
</extensions>
</trkpt>
<trkpt lat="63.935932159" lon="-20.669565201">
<ele>44.718750</ele>
<time>2012-07-27T15:08:28Z</time>
<speed>4.180000</speed>
<extensions>
<speed>4.2</speed>
<temp>0.00</temp>
<bpm>0</bpm>
<rpm>0.00</rpm>
</extensions>
</trkpt>
<trkpt lat="63.936119080" lon="-20.669616699">
<ele>44.724609</ele>
<time>2012-07-27T15:08:33Z</time>
<speed>4.160000</speed>
<extensions>
<speed>4.2</speed>
<temp>0.00</temp>
<bpm>0</bpm>
<rpm>0.00</rpm>
</extensions>
</trkpt>
<trkpt lat="63.936302185" lon="-20.669666290">
<ele>44.812500</ele>
<time>2012-07-27T15:08:38Z</time>
<speed>4.250000</speed>
<extensions>
<speed>4.3</speed>
<temp>0.00</temp>
<bpm>0</bpm>
<rpm>0.00</rpm>
</extensions>
</trkpt>
<trkpt lat="63.936500549" lon="-20.669731140">
<ele>43.970703</ele>
<time>2012-07-27T15:08:43Z</time>
<speed>4.470000</speed>
<extensions>
<speed>4.5</speed>
<temp>0.00</temp>
<bpm>0</bpm>
<rpm>0.00</rpm>
</extensions>
</trkpt>
<trkpt lat="63.936691284" lon="-20.669784546">
<ele>43.194336</ele>
<time>2012-07-27T15:08:48Z</time>
<speed>3.890000</speed>
<extensions>
<speed>3.9</speed>
<temp>0.00</temp>
<bpm>0</bpm>
<rpm>0.00</rpm>
</extensions>
</trkpt>
<trkpt lat="63.936882019" lon="-20.669826508">
<ele>43.570313</ele>
<time>2012-07-27T15:08:53Z</time>
<speed>4.490000</speed>
<extensions>
<speed>4.5</speed>
<temp>0.00</temp>
<bpm>0</bpm>
<rpm>0.00</rpm>
</extensions>
</trkpt>
<trkpt lat="63.937076569" lon="-20.669872284">
<ele>42.365234</ele>
<time>2012-07-27T15:08:58Z</time>
<speed>4.340000</speed>
<extensions>
<speed>4.3</speed>
<temp>0.00</temp>
<bpm>0</bpm>
<rpm>0.00</rpm>
</extensions>
</trkpt>
<trkpt lat="63.937232971" lon="-20.669906616">
<ele>41.614258</ele>
<time>2012-07-27T15:09:03Z</time>
<speed>3.140000</speed>
<extensions>
<speed>3.1</speed>
<temp>0.00</temp>
<bpm>0</bpm>
<rpm>0.00</rpm>
</extensions>
</trkpt>
<trkpt lat="63.937377930" lon="-20.669956207">
<ele>40.357422</ele>
<time>2012-07-27T15:09:08Z</time>
<speed>3.500000</speed>
<extensions>
<speed>3.5</speed>
<temp>0.00</temp>
<bpm>0</bpm>
<rpm>0.00</rpm>
</extensions>
</trkpt>
<trkpt lat="63.937538147" lon="-20.670019150">
<ele>37.772461</ele>
<time>2012-07-27T15:09:13Z</time>
<speed>3.940000</speed>
<extensions>
<speed>3.9</speed>
<temp>0.00</temp>
<bpm>0</bpm>
<rpm>0.00</rpm>
</extensions>
</trkpt>
<trkpt lat="63.937721252" lon="-20.670070648">
<ele>37.566406</ele>
<time>2012-07-27T15:09:18Z</time>
<speed>4.060000</speed>
<extensions>
<speed>4.1</speed>
<temp>0.00</temp>
<bpm>0</bpm>
<rpm>0.00</rpm>
</extensions>
</trkpt>
<trkpt lat="63.937908173" lon="-20.670129776">
<ele>37.836914</ele>
<time>2012-07-27T15:09:23Z</time>
<speed>4.180000</speed>
<extensions>
<speed>4.2</speed>
<temp>0.00</temp>
<bpm>0</bpm>
<rpm>0.00</rpm>
</extensions>
</trkpt>
<trkpt lat="63.938095093" lon="-20.670194626">
<ele>36.623047</ele>
<time>2012-07-27T15:09:28Z</time>
<speed>4.190000</speed>
<extensions>
<speed>4.2</speed>
<temp>0.00</temp>
<bpm>0</bpm>
<rpm>0.00</rpm>
</extensions>
</trkpt>
<trkpt lat="63.938274384" lon="-20.670255661">
<ele>36.727539</ele>
<time>2012-07-27T15:09:33Z</time>
<speed>3.950000</speed>
<extensions>
<speed>4.0</speed>
<temp>0.00</temp>
<bpm>0</bpm>
<rpm>0.00</rpm>
</extensions>
</trkpt>
<trkpt lat="63.938453674" lon="-20.670297623">
<ele>41.266602</ele>
<time>2012-07-27T15:09:38Z</time>
<speed>3.710000</speed>
<extensions>
<speed>3.7</speed>
<temp>0.00</temp>
<bpm>0</bpm>
<rpm>0.00</rpm>
</extensions>
</trkpt>
<trkpt lat="63.938629150" lon="-20.670345306">
<ele>45.464844</ele>
<time>2012-07-27T15:09:43Z</time>
<speed>3.990000</speed>
<extensions>
<speed>4.0</speed>
<temp>0.00</temp>
<bpm>0</bpm>
<rpm>0.00</rpm>
</extensions>
</trkpt>
<trkpt lat="63.938831329" lon="-20.670398712">
<ele>52.079102</ele>
<time>2012-07-27T15:09:48Z</time>
<speed>3.960000</speed>
<extensions>
<speed>4.0</speed>
<temp>0.00</temp>
<bpm>0</bpm>
<rpm>0.00</rpm>
</extensions>
</trkpt>
<trkpt lat="63.939022064" lon="-20.670467377">
<ele>56.581055</ele>
<time>2012-07-27T15:09:53Z</time>
<speed>4.500000</speed>
<extensions>
<speed>4.5</speed>
<temp>0.00</temp>
<bpm>0</bpm>
<rpm>0.00</rpm>
</extensions>
</trkpt>
<trkpt lat="63.939216614" lon="-20.670555115">
<ele>58.049805</ele>
<time>2012-07-27T15:09:58Z</time>
<speed>3.650000</speed>
<extensions>
<speed>3.7</speed>
<temp>0.00</temp>
<bpm>0</bpm>
<rpm>0.00</rpm>
</extensions>
</trkpt>
<trkpt lat="63.939380646" lon="-20.670612335">
<ele>60.792969</ele>
<time>2012-07-27T15:10:03Z</time>
<speed>3.820000</speed>
<extensions>
<speed>3.8</speed>
<temp>0.00</temp>
<bpm>0</bpm>
<rpm>0.00</rpm>
</extensions>
</trkpt>
<trkpt lat="63.939563751" lon="-20.670692444">
<ele>63.106445</ele>
<time>2012-07-27T15:10:08Z</time>
<speed>3.910000</speed>
<extensions>
<speed>3.9</speed>
<temp>0.00</temp>
<bpm>0</bpm>
<rpm>0.00</rpm>
</extensions>
</trkpt>
<trkpt lat="63.939735413" lon="-20.670804977">
<ele>61.519531</ele>
<time>2012-07-27T15:10:13Z</time>
<speed>4.170000</speed>
<extensions>
<speed>4.2</speed>
<temp>0.00</temp>
<bpm>0</bpm>
<rpm>0.00</rpm>
</extensions>
</trkpt>
<trkpt lat="63.939918518" lon="-20.670946121">
<ele>60.676758</ele>
<time>2012-07-27T15:10:18Z</time>
<speed>4.550000</speed>
<extensions>
<speed>4.5</speed>
<temp>0.00</temp>
<bpm>0</bpm>
<rpm>0.00</rpm>
</extensions>
</trkpt>
<trkpt lat="63.940086365" lon="-20.671072006">
<ele>59.359375</ele>
<time>2012-07-27T15:10:23Z</time>
<speed>3.900000</speed>
<extensions>
<speed>3.9</speed>
<temp>0.00</temp>
<bpm>0</bpm>
<rpm>0.00</rpm>
</extensions>
</trkpt>
<trkpt lat="63.940261841" lon="-20.671207428">
<ele>57.978516</ele>
<time>2012-07-27T15:10:28Z</time>
<speed>4.300000</speed>
<extensions>
<speed>4.3</speed>
<temp>0.00</temp>
<bpm>0</bpm>
<rpm>0.00</rpm>
</extensions>
</trkpt>
<trkpt lat="63.940429688" lon="-20.671361923">
<ele>55.679688</ele>
<time>2012-07-27T15:10:33Z</time>
<speed>3.430000</speed>
<extensions>
<speed>3.4</speed>
<temp>0.00</temp>
<bpm>0</bpm>
<rpm>0.00</rpm>
</extensions>
</trkpt>
<trkpt lat="63.940589905" lon="-20.671480179">
<ele>56.141602</ele>
<time>2012-07-27T15:10:38Z</time>
<speed>4.030000</speed>
<extensions>
<speed>4.0</speed>
<temp>0.00</temp>
<bpm>0</bpm>
<rpm>0.00</rpm>
</extensions>
</trkpt>
<trkpt lat="63.940757751" lon="-20.671659470">
<ele>55.638672</ele>
<time>2012-07-27T15:10:43Z</time>
<speed>4.140000</speed>
<extensions>
<speed>4.1</speed>
<temp>0.00</temp>
<bpm>0</bpm>
<rpm>0.00</rpm>
</extensions>
</trkpt>
<trkpt lat="63.940933228" lon="-20.671827316">
<ele>56.172852</ele>
<time>2012-07-27T15:10:48Z</time>
<speed>4.220000</speed>
<extensions>
<speed>4.2</speed>
<temp>0.00</temp>
<bpm>0</bpm>
<rpm>0.00</rpm>
</extensions>
</trkpt>
<trkpt lat="63.941101074" lon="-20.671998978">
<ele>55.806641</ele>
<time>2012-07-27T15:10:53Z</time>
<speed>3.890000</speed>
<extensions>
<speed>3.9</speed>
<temp>0.00</temp>
<bpm>0</bpm>
<rpm>0.00</rpm>
</extensions>
</trkpt>
<trkpt lat="63.941249847" lon="-20.672155380">
<ele>55.787109</ele>
<time>2012-07-27T15:10:58Z</time>
<speed>3.760000</speed>
<extensions>
<speed>3.8</speed>
<temp>0.00</temp>
<bpm>0</bpm>
<rpm>0.00</rpm>
</extensions>
</trkpt>
<trkpt lat="63.941417694" lon="-20.672313690">
<ele>59.819336</ele>
<time>2012-07-27T15:11:03Z</time>
<speed>4.210000</speed>
<extensions>
<speed>4.2</speed>
<temp>0.00</temp>
<bpm>0</bpm>
<rpm>0.00</rpm>
</extensions>
</trkpt>
<trkpt lat="63.941581726" lon="-20.672517776">
<ele>57.988281</ele>
<time>2012-07-27T15:11:08Z</time>
<speed>4.520000</speed>
<extensions>
<speed>4.5</speed>
<temp>0.00</temp>
<bpm>0</bpm>
<rpm>0.00</rpm>
</extensions>
</trkpt>
<trkpt lat="63.941741943" lon="-20.672731400">
<ele>57.770508</ele>
<time>2012-07-27T15:11:13Z</time>
<speed>3.500000</speed>
<extensions>
<speed>3.5</speed>
<temp>0.00</temp>
<bpm>0</bpm>
<rpm>0.00</rpm>
</extensions>
</trkpt>
<trkpt lat="63.941879272" lon="-20.672891617">
<ele>57.757813</ele>
<time>2012-07-27T15:11:18Z</time>
<speed>4.060000</speed>
<extensions>
<speed>4.1</speed>
<temp>0.00</temp>
<bpm>0</bpm>
<rpm>0.00</rpm>
</extensions>
</trkpt>
<trkpt lat="63.942035675" lon="-20.673114777">
<ele>55.954102</ele>
<time>2012-07-27T15:11:23Z</time>
<speed>4.200000</speed>
<extensions>
<speed>4.2</speed>
<temp>0.00</temp>
<bpm>0</bpm>
<rpm>0.00</rpm>
</extensions>
</trkpt>
<trkpt lat="63.942184448" lon="-20.673343658">
<ele>55.284180</ele>
<time>2012-07-27T15:11:28Z</time>
<speed>3.550000</speed>
<extensions>
<speed>3.5</speed>
<temp>0.00</temp>
<bpm>0</bpm>
<rpm>0.00</rpm>
</extensions>
</trkpt>
<trkpt lat="63.942333221" lon="-20.673549652">
<ele>54.503906</ele>
<time>2012-07-27T15:11:33Z</time>
<speed>4.160000</speed>
<extensions>
<speed>4.2</speed>
<temp>0.00</temp>
<bpm>0</bpm>
<rpm>0.00</rpm>
</extensions>
</trkpt>
<trkpt lat="63.942493439" lon="-20.673782349">
<ele>53.665039</ele>
<time>2012-07-27T15:11:38Z</time>
<speed>4.330000</speed>
<extensions>
<speed>4.3</speed>
<temp>0.00</temp>
<bpm>0</bpm>
<rpm>0.00</rpm>
</extensions>
</trkpt>
<trkpt lat="63.942657471" lon="-20.674020767">
<ele>53.699219</ele>
<time>2012-07-27T15:11:43Z</time>
<speed>4.440000</speed>
<extensions>
<speed>4.4</speed>
<temp>0.00</temp>
<bpm>0</bpm>
<rpm>0.00</rpm>
</extensions>
</trkpt>
<trkpt lat="63.942825317" lon="-20.674280167">
<ele>53.911133</ele>
<time>2012-07-27T15:11:48Z</time>
<speed>4.660000</speed>
<extensions>
<speed>4.7</speed>
<temp>0.00</temp>
<bpm>0</bpm>
<rpm>0.00</rpm>
</extensions>
</trkpt>
<trkpt lat="63.942985535" lon="-20.674547195">
<ele>54.346680</ele>
<time>2012-07-27T15:11:53Z</time>
<speed>3.910000</speed>
<extensions>
<speed>3.9</speed>
<temp>0.00</temp>
<bpm>0</bpm>
<rpm>0.00</rpm>
</extensions>
</trkpt>
<trkpt lat="63.943126678" lon="-20.674806595">
<ele>53.713867</ele>
<time>2012-07-27T15:11:58Z</time>
<speed>4.240000</speed>
<extensions>
<speed>4.2</speed>
<temp>0.00</temp>
<bpm>0</bpm>
<rpm>0.00</rpm>
</extensions>
</trkpt>
<trkpt lat="63.943279266" lon="-20.675065994">
<ele>51.997070</ele>
<time>2012-07-27T15:12:03Z</time>
<speed>4.280000</speed>
<extensions>
<speed>4.3</speed>
<temp>0.00</temp>
<bpm>0</bpm>
<rpm>0.00</rpm>
</extensions>
</trkpt>
<trkpt lat="63.943416595" lon="-20.675342560">
<ele>52.116211</ele>
<time>2012-07-27T15:12:08Z</time>
<speed>3.590000</speed>
<extensions>
<speed>3.6</speed>
<temp>0.00</temp>
<bpm>0</bpm>
<rpm>0.00</rpm>
</extensions>
</trkpt>
<trkpt lat="63.943546295" lon="-20.675621033">
<ele>51.809570</ele>
<time>2012-07-27T15:12:13Z</time>
<speed>4.300000</speed>
<extensions>
<speed>4.3</speed>
<temp>0.00</temp>
<bpm>0</bpm>
<rpm>0.00</rpm>
</extensions>
</trkpt>
<trkpt lat="63.943687439" lon="-20.675918579">
<ele>51.803711</ele>
<time>2012-07-27T15:12:18Z</time>
<speed>3.750000</speed>
<extensions>
<speed>3.8</speed>
<temp>0.00</temp>
<bpm>0</bpm>
<rpm>0.00</rpm>
</extensions>
</trkpt>
<trkpt lat="63.943809509" lon="-20.676168442">
<ele>52.010742</ele>
<time>2012-07-27T15:12:23Z</time>
<speed>3.980000</speed>
<extensions>
<speed>4.0</speed>
<temp>0.00</temp>
<bpm>0</bpm>
<rpm>0.00</rpm>
</extensions>
</trkpt>
<trkpt lat="63.943954468" lon="-20.676469803">
<ele>51.286133</ele>
<time>2012-07-27T15:12:28Z</time>
<speed>4.230000</speed>
<extensions>
<speed>4.2</speed>
<temp>0.00</temp>
<bpm>0</bpm>
<rpm>0.00</rpm>
</extensions>
</trkpt>
<trkpt lat="63.944072723" lon="-20.676729202">
<ele>50.922852</ele>
<time>2012-07-27T15:12:33Z</time>
<speed>3.680000</speed>
<extensions>
<speed>3.7</speed>
<temp>0.00</temp>
<bpm>0</bpm>
<rpm>0.00</rpm>
</extensions>
</trkpt>
<trkpt lat="63.944210052" lon="-20.676986694">
<ele>51.244141</ele>
<time>2012-07-27T15:12:38Z</time>
<speed>4.160000</speed>
<extensions>
<speed>4.2</speed>
<temp>0.00</temp>
<bpm>0</bpm>
<rpm>0.00</rpm>
</extensions>
</trkpt>
<trkpt lat="63.944343567" lon="-20.677293777">
<ele>51.457031</ele>
<time>2012-07-27T15:12:43Z</time>
<speed>4.150000</speed>
<extensions>
<speed>4.1</speed>
<temp>0.00</temp>
<bpm>0</bpm>
<rpm>0.00</rpm>
</extensions>
</trkpt>
<trkpt lat="63.944484711" lon="-20.677564621">
<ele>52.920898</ele>
<time>2012-07-27T15:12:48Z</time>
<speed>3.740000</speed>
<extensions>
<speed>3.7</speed>
<temp>0.00</temp>
<bpm>0</bpm>
<rpm>0.00</rpm>
</extensions>
</trkpt>
<trkpt lat="63.944606781" lon="-20.677841187">
<ele>54.552734</ele>
<time>2012-07-27T15:12:53Z</time>
<speed>3.940000</speed>
<extensions>
<speed>3.9</speed>
<temp>0.00</temp>
<bpm>0</bpm>
<rpm>0.00</rpm>
</extensions>
</trkpt>
<trkpt lat="63.944736481" lon="-20.678098679">
<ele>55.172852</ele>
<time>2012-07-27T15:12:58Z</time>
<speed>3.950000</speed>
<extensions>
<speed>4.0</speed>
<temp>0.00</temp>
<bpm>0</bpm>
<rpm>0.00</rpm>
</extensions>
</trkpt>
<trkpt lat="63.944873810" lon="-20.678377151">
<ele>56.608398</ele>
<time>2012-07-27T15:13:03Z</time>
<speed>4.510000</speed>
<extensions>
<speed>4.5</speed>
<temp>0.00</temp>
<bpm>0</bpm>
<rpm>0.00</rpm>
</extensions>
</trkpt>
<trkpt lat="63.945011139" lon="-20.678651810">
<ele>57.190430</ele>
<time>2012-07-27T15:13:08Z</time>
<speed>3.660000</speed>
<extensions>
<speed>3.7</speed>
<temp>0.00</temp>
<bpm>0</bpm>
<rpm>0.00</rpm>
</extensions>
</trkpt>
<trkpt lat="63.945121765" lon="-20.678871155">
<ele>56.630859</ele>
<time>2012-07-27T15:13:13Z</time>
<speed>3.550000</speed>
<extensions>
<speed>3.5</speed>
<temp>0.00</temp>
<bpm>0</bpm>
<rpm>0.00</rpm>
</extensions>
</trkpt>
<trkpt lat="63.945251465" lon="-20.679117203">
<ele>55.506836</ele>
<time>2012-07-27T15:13:18Z</time>
<speed>4.100000</speed>
<extensions>
<speed>4.1</speed>
<temp>0.00</temp>
<bpm>0</bpm>
<rpm>0.00</rpm>
</extensions>
</trkpt>
<trkpt lat="63.945396423" lon="-20.679378510">
<ele>55.664063</ele>
<time>2012-07-27T15:13:23Z</time>
<speed>4.310000</speed>
<extensions>
<speed>4.3</speed>
<temp>0.00</temp>
<bpm>0</bpm>
<rpm>0.00</rpm>
</extensions>
</trkpt>
<trkpt lat="63.945522308" lon="-20.679620743">
<ele>55.537109</ele>
<time>2012-07-27T15:13:28Z</time>
<speed>3.050000</speed>
<extensions>
<speed>3.0</speed>
<temp>0.00</temp>
<bpm>0</bpm>
<rpm>0.00</rpm>
</extensions>
</trkpt>
<trkpt lat="63.945636749" lon="-20.679864883">
<ele>55.142578</ele>
<time>2012-07-27T15:13:33Z</time>
<speed>3.850000</speed>
<extensions>
<speed>3.8</speed>
<temp>0.00</temp>
<bpm>0</bpm>
<rpm>0.00</rpm>
</extensions>
</trkpt>
<trkpt lat="63.945774078" lon="-20.680150986">
<ele>54.787109</ele>
<time>2012-07-27T15:13:38Z</time>
<speed>4.120000</speed>
<extensions>
<speed>4.1</speed>
<temp>0.00</temp>
<bpm>0</bpm>
<rpm>0.00</rpm>
</extensions>
</trkpt>
<trkpt lat="63.945915222" lon="-20.680431366">
<ele>54.643555</ele>
<time>2012-07-27T15:13:43Z</time>
<speed>4.130000</speed>
<extensions>
<speed>4.1</speed>
<temp>0.00</temp>
<bpm>0</bpm>
<rpm>0.00</rpm>
</extensions>
</trkpt>
<trkpt lat="63.946041107" lon="-20.680656433">
<ele>54.966797</ele>
<time>2012-07-27T15:13:48Z</time>
<speed>3.090000</speed>
<extensions>
<speed>3.1</speed>
<temp>0.00</temp>
<bpm>0</bpm>
<rpm>0.00</rpm>
</extensions>
</trkpt>
<trkpt lat="63.946163177" lon="-20.680889130">
<ele>54.504883</ele>
<time>2012-07-27T15:13:53Z</time>
<speed>3.950000</speed>
<extensions>
<speed>4.0</speed>
<temp>0.00</temp>
<bpm>0</bpm>
<rpm>0.00</rpm>
</extensions>
</trkpt>
<trkpt lat="63.946308136" lon="-20.681165695">
<ele>54.781250</ele>
<time>2012-07-27T15:13:58Z</time>
<speed>4.430000</speed>
<extensions>
<speed>4.4</speed>
<temp>0.00</temp>
<bpm>0</bpm>
<rpm>0.00</rpm>
</extensions>
</trkpt>
<trkpt lat="63.946453094" lon="-20.681400299">
<ele>55.653320</ele>
<time>2012-07-27T15:14:03Z</time>
<speed>3.000000</speed>
<extensions>
<speed>3.0</speed>
<temp>0.00</temp>
<bpm>0</bpm>
<rpm>0.00</rpm>
</extensions>
</trkpt>
<trkpt lat="63.946544647" lon="-20.681575775">
<ele>55.300781</ele>
<time>2012-07-27T15:14:08Z</time>
<speed>3.240000</speed>
<extensions>
<speed>3.2</speed>
<temp>0.00</temp>
<bpm>0</bpm>
<rpm>0.00</rpm>
</extensions>
</trkpt>
<trkpt lat="63.946662903" lon="-20.681819916">
<ele>54.639648</ele>
<time>2012-07-27T15:14:13Z</time>
<speed>3.880000</speed>
<extensions>
<speed>3.9</speed>
<temp>0.00</temp>
<bpm>0</bpm>
<rpm>0.00</rpm>
</extensions>
</trkpt>
<trkpt lat="63.946784973" lon="-20.682058334">
<ele>55.171875</ele>
<time>2012-07-27T15:14:18Z</time>
<speed>2.790000</speed>
<extensions>
<speed>2.8</speed>
<temp>0.00</temp>
<bpm>0</bpm>
<rpm>0.00</rpm>
</extensions>
</trkpt>
<trkpt lat="63.946857452" lon="-20.682186127">
<ele>55.065430</ele>
<time>2012-07-27T15:14:23Z</time>
<speed>1.420000</speed>
<extensions>
<speed>1.4</speed>
<temp>0.00</temp>
<bpm>0</bpm>
<rpm>0.00</rpm>
</extensions>
</trkpt>
<trkpt lat="63.946880341" lon="-20.682222366">
<ele>54.998047</ele>
<time>2012-07-27T15:14:28Z</time>
<speed>0.010000</speed>
<extensions>
<speed>0.0</speed>
<temp>0.00</temp>
<bpm>0</bpm>
<rpm>0.00</rpm>
</extensions>
</trkpt>
<trkpt lat="63.946880341" lon="-20.682218552">
<ele>54.888672</ele>
<time>2012-07-27T15:14:33Z</time>
<extensions>
<speed>0.0</speed>
<temp>0.00</temp>
<bpm>0</bpm>
<rpm>0.00</rpm>
</extensions>
</trkpt>
<trkpt lat="63.946880341" lon="-20.682220459">
<ele>54.851563</ele>
<time>2012-07-27T15:14:38Z</time>
<speed>0.010000</speed>
<extensions>
<speed>0.0</speed>
<temp>0.00</temp>
<bpm>0</bpm>
<rpm>0.00</rpm>
</extensions>
</trkpt>
<trkpt lat="63.946880341" lon="-20.682220459">
<ele>54.847656</ele>
<time>2012-07-27T15:14:43Z</time>
<speed>0.010000</speed>
<extensions>
<speed>0.0</speed>
<temp>0.00</temp>
<bpm>0</bpm>
<rpm>0.00</rpm>
</extensions>
</trkpt>
<trkpt lat="63.946880341" lon="-20.682218552">
<ele>54.908203</ele>
<time>2012-07-27T15:14:48Z</time>
<extensions>
<speed>0.0</speed>
<temp>0.00</temp>
<bpm>0</bpm>
<rpm>0.00</rpm>
</extensions>
</trkpt>
<trkpt lat="63.946880341" lon="-20.682218552">
<ele>54.880859</ele>
<time>2012-07-27T15:14:53Z</time>
<speed>0.010000</speed>
<extensions>
<speed>0.0</speed>
<temp>0.00</temp>
<bpm>0</bpm>
<rpm>0.00</rpm>
</extensions>
</trkpt>
<trkpt lat="63.946880341" lon="-20.682220459">
<ele>54.914063</ele>
<time>2012-07-27T15:14:58Z</time>
<speed>0.040000</speed>
<extensions>
<speed>0.0</speed>
<temp>0.00</temp>
<bpm>0</bpm>
<rpm>0.00</rpm>
</extensions>
</trkpt>
<trkpt lat="63.946880341" lon="-20.682218552">
<ele>55.004883</ele>
<time>2012-07-27T15:15:03Z</time>
<speed>0.020000</speed>
<extensions>
<speed>0.0</speed>
<temp>0.00</temp>
<bpm>0</bpm>
<rpm>0.00</rpm>
</extensions>
</trkpt>
<trkpt lat="63.946880341" lon="-20.682218552">
<ele>54.998047</ele>
<time>2012-07-27T15:15:08Z</time>
<extensions>
<speed>0.0</speed>
<temp>0.00</temp>
<bpm>0</bpm>
<rpm>0.00</rpm>
</extensions>
</trkpt>
<trkpt lat="63.946880341" lon="-20.682218552">
<ele>55.038086</ele>
<time>2012-07-27T15:15:13Z</time>
<extensions>
<speed>0.0</speed>
<temp>0.00</temp>
<bpm>0</bpm>
<rpm>0.00</rpm>
</extensions>
</trkpt>
<trkpt lat="63.946880341" lon="-20.682218552">
<ele>55.032227</ele>
<time>2012-07-27T15:15:18Z</time>
<speed>0.070000</speed>
<extensions>
<speed>0.1</speed>
<temp>0.00</temp>
<bpm>0</bpm>
<rpm>0.00</rpm>
</extensions>
</trkpt>
<trkpt lat="63.946880341" lon="-20.682220459">
<ele>54.991211</ele>
<time>2012-07-27T15:15:23Z</time>
<speed>0.020000</speed>
<extensions>
<speed>0.0</speed>
<temp>0.00</temp>
<bpm>0</bpm>
<rpm>0.00</rpm>
</extensions>
</trkpt>
<trkpt lat="63.946880341" lon="-20.682220459">
<ele>54.985352</ele>
<time>2012-07-27T15:15:28Z</time>
<extensions>
<speed>0.0</speed>
<temp>0.00</temp>
<bpm>0</bpm>
<rpm>0.00</rpm>
</extensions>
</trkpt>
<trkpt lat="63.946880341" lon="-20.682220459">
<ele>54.983398</ele>
<time>2012-07-27T15:15:33Z</time>
<extensions>
<speed>0.0</speed>
<temp>0.00</temp>
<bpm>0</bpm>
<rpm>0.00</rpm>
</extensions>
</trkpt>
<trkpt lat="63.946880341" lon="-20.682220459">
<ele>54.983398</ele>
<time>2012-07-27T15:15:38Z</time>
<speed>0.020000</speed>
<extensions>
<speed>0.0</speed>
<temp>0.00</temp>
<bpm>0</bpm>
<rpm>0.00</rpm>
</extensions>
</trkpt>
<trkpt lat="63.946880341" lon="-20.682220459">
<ele>54.977539</ele>
<time>2012-07-27T15:15:43Z</time>
<speed>0.140000</speed>
<extensions>
<speed>0.1</speed>
<temp>0.00</temp>
<bpm>0</bpm>
<rpm>0.00</rpm>
</extensions>
</trkpt>
<trkpt lat="63.946880341" lon="-20.682220459">
<ele>54.982422</ele>
<time>2012-07-27T15:15:48Z</time>
<extensions>
<speed>0.0</speed>
<temp>0.00</temp>
<bpm>0</bpm>
<rpm>0.00</rpm>
</extensions>
</trkpt>
<trkpt lat="63.946880341" lon="-20.682220459">
<ele>54.976563</ele>
<time>2012-07-27T15:15:53Z</time>
<speed>0.010000</speed>
<extensions>
<speed>0.0</speed>
<temp>0.00</temp>
<bpm>0</bpm>
<rpm>0.00</rpm>
</extensions>
</trkpt>
<trkpt lat="63.946880341" lon="-20.682220459">
<ele>54.969727</ele>
<time>2012-07-27T15:15:58Z</time>
<speed>0.010000</speed>
<extensions>
<speed>0.0</speed>
<temp>0.00</temp>
<bpm>0</bpm>
<rpm>0.00</rpm>
</extensions>
</trkpt>
<trkpt lat="63.946880341" lon="-20.682220459">
<ele>54.973633</ele>
<time>2012-07-27T15:16:03Z</time>
<speed>0.010000</speed>
<extensions>
<speed>0.0</speed>
<temp>0.00</temp>
<bpm>0</bpm>
<rpm>0.00</rpm>
</extensions>
</trkpt>
<trkpt lat="63.946880341" lon="-20.682218552">
<ele>54.974609</ele>
<time>2012-07-27T15:16:08Z</time>
<speed>0.030000</speed>
<extensions>
<speed>0.0</speed>
<temp>0.00</temp>
<bpm>0</bpm>
<rpm>0.00</rpm>
</extensions>
</trkpt>
<trkpt lat="63.946880341" lon="-20.682218552">
<ele>54.954102</ele>
<time>2012-07-27T15:16:13Z</time>
<speed>0.010000</speed>
<extensions>
<speed>0.0</speed>
<temp>0.00</temp>
<bpm>0</bpm>
<rpm>0.00</rpm>
</extensions>
</trkpt>
<trkpt lat="63.946880341" lon="-20.682218552">
<ele>54.955078</ele>
<time>2012-07-27T15:16:18Z</time>
<extensions>
<speed>0.0</speed>
<temp>0.00</temp>
<bpm>0</bpm>
<rpm>0.00</rpm>
</extensions>
</trkpt>
<trkpt lat="63.946880341" lon="-20.682218552">
<ele>54.960938</ele>
<time>2012-07-27T15:16:23Z</time>
<speed>0.100000</speed>
<extensions>
<speed>0.1</speed>
<temp>0.00</temp>
<bpm>0</bpm>
<rpm>0.00</rpm>
</extensions>
</trkpt>
<trkpt lat="63.946914673" lon="-20.682306290">
<ele>55.062500</ele>
<time>2012-07-27T15:16:28Z</time>
<speed>2.280000</speed>
<extensions>
<speed>2.3</speed>
<temp>0.00</temp>
<bpm>0</bpm>
<rpm>0.00</rpm>
</extensions>
</trkpt>
<trkpt lat="63.947002411" lon="-20.682455063">
<ele>55.107422</ele>
<time>2012-07-27T15:16:33Z</time>
<speed>2.310000</speed>
<extensions>
<speed>2.3</speed>
<temp>0.00</temp>
<bpm>0</bpm>
<rpm>0.00</rpm>
</extensions>
</trkpt>
<trkpt lat="63.947074890" lon="-20.682584763">
<ele>55.108398</ele>
<time>2012-07-27T15:16:38Z</time>
<speed>2.490000</speed>
<extensions>
<speed>2.5</speed>
<temp>0.00</temp>
<bpm>0</bpm>
<rpm>0.00</rpm>
</extensions>
</trkpt>
<trkpt lat="63.947162628" lon="-20.682722092">
<ele>55.132813</ele>
<time>2012-07-27T15:16:43Z</time>
<speed>2.270000</speed>
<extensions>
<speed>2.3</speed>
<temp>0.00</temp>
<bpm>0</bpm>
<rpm>0.00</rpm>
</extensions>
</trkpt>
<trkpt lat="63.947261810" lon="-20.682929993">
<ele>54.813477</ele>
<time>2012-07-27T15:16:48Z</time>
<speed>3.070000</speed>
<extensions>
<speed>3.1</speed>
<temp>0.00</temp>
<bpm>0</bpm>
<rpm>0.00</rpm>
</extensions>
</trkpt>
<trkpt lat="63.947360992" lon="-20.683090210">
<ele>54.871094</ele>
<time>2012-07-27T15:16:53Z</time>
<speed>2.160000</speed>
<extensions>
<speed>2.2</speed>
<temp>0.00</temp>
<bpm>0</bpm>
<rpm>0.00</rpm>
</extensions>
</trkpt>
<trkpt lat="63.947437286" lon="-20.683221817">
<ele>54.639648</ele>
<time>2012-07-27T15:16:58Z</time>
<speed>2.840000</speed>
<extensions>
<speed>2.8</speed>
<temp>0.00</temp>
<bpm>0</bpm>
<rpm>0.00</rpm>
</extensions>
</trkpt>
<trkpt lat="63.947547913" lon="-20.683458328">
<ele>55.736328</ele>
<time>2012-07-27T15:17:03Z</time>
<speed>3.630000</speed>
<extensions>
<speed>3.6</speed>
<temp>0.00</temp>
<bpm>0</bpm>
<rpm>0.00</rpm>
</extensions>
</trkpt>
<trkpt lat="63.947669983" lon="-20.683641434">
<ele>56.116211</ele>
<time>2012-07-27T15:17:08Z</time>
<speed>2.730000</speed>
<extensions>
<speed>2.7</speed>
<temp>0.00</temp>
<bpm>0</bpm>
<rpm>0.00</rpm>
</extensions>
</trkpt>
<trkpt lat="63.947757721" lon="-20.683786392">
<ele>56.190430</ele>
<time>2012-07-27T15:17:13Z</time>
<speed>2.770000</speed>
<extensions>
<speed>2.8</speed>
<temp>0.00</temp>
<bpm>0</bpm>
<rpm>0.00</rpm>
</extensions>
</trkpt>
<trkpt lat="63.947872162" lon="-20.684015274">
<ele>55.711914</ele>
<time>2012-07-27T15:17:18Z</time>
<speed>3.780000</speed>
<extensions>
<speed>3.8</speed>
<temp>0.00</temp>
<bpm>0</bpm>
<rpm>0.00</rpm>
</extensions>
</trkpt>
<trkpt lat="63.948036194" lon="-20.684257507">
<ele>56.054688</ele>
<time>2012-07-27T15:17:23Z</time>
<speed>4.450000</speed>
<extensions>
<speed>4.5</speed>
<temp>0.00</temp>
<bpm>0</bpm>
<rpm>0.00</rpm>
</extensions>
</trkpt>
<trkpt lat="63.948184967" lon="-20.684511185">
<ele>56.620117</ele>
<time>2012-07-27T15:17:28Z</time>
<speed>3.550000</speed>
<extensions>
<speed>3.5</speed>
<temp>0.00</temp>
<bpm>0</bpm>
<rpm>0.00</rpm>
</extensions>
</trkpt>
<trkpt lat="63.948318481" lon="-20.684722900">
<ele>56.296875</ele>
<time>2012-07-27T15:17:33Z</time>
<speed>3.740000</speed>
<extensions>
<speed>3.7</speed>
<temp>0.00</temp>
<bpm>0</bpm>
<rpm>0.00</rpm>
</extensions>
</trkpt>
<trkpt lat="63.948444366" lon="-20.684926987">
<ele>56.438477</ele>
<time>2012-07-27T15:17:38Z</time>
<speed>3.530000</speed>
<extensions>
<speed>3.5</speed>
<temp>0.00</temp>
<bpm>0</bpm>
<rpm>0.00</rpm>
</extensions>
</trkpt>
<trkpt lat="63.948574066" lon="-20.685146332">
<ele>56.044922</ele>
<time>2012-07-27T15:17:43Z</time>
<speed>3.590000</speed>
<extensions>
<speed>3.6</speed>
<temp>0.00</temp>
<bpm>0</bpm>
<rpm>0.00</rpm>
</extensions>
</trkpt>
<trkpt lat="63.948692322" lon="-20.685352325">
<ele>56.393555</ele>
<time>2012-07-27T15:17:48Z</time>
<speed>3.360000</speed>
<extensions>
<speed>3.4</speed>
<temp>0.00</temp>
<bpm>0</bpm>
<rpm>0.00</rpm>
</extensions>
</trkpt>
<trkpt lat="63.948822021" lon="-20.685548782">
<ele>56.284180</ele>
<time>2012-07-27T15:17:53Z</time>
<speed>3.450000</speed>
<extensions>
<speed>3.5</speed>
<temp>0.00</temp>
<bpm>0</bpm>
<rpm>0.00</rpm>
</extensions>
</trkpt>
<trkpt lat="63.948955536" lon="-20.685749054">
<ele>56.376953</ele>
<time>2012-07-27T15:17:58Z</time>
<speed>3.570000</speed>
<extensions>
<speed>3.6</speed>
<temp>0.00</temp>
<bpm>0</bpm>
<rpm>0.00</rpm>
</extensions>
</trkpt>
<trkpt lat="63.949077606" lon="-20.685974121">
<ele>55.639648</ele>
<time>2012-07-27T15:18:03Z</time>
<speed>3.490000</speed>
<extensions>
<speed>3.5</speed>
<temp>0.00</temp>
<bpm>0</bpm>
<rpm>0.00</rpm>
</extensions>
</trkpt>
<trkpt lat="63.949218750" lon="-20.686187744">
<ele>55.478516</ele>
<time>2012-07-27T15:18:08Z</time>
<speed>3.710000</speed>
<extensions>
<speed>3.7</speed>
<temp>0.00</temp>
<bpm>0</bpm>
<rpm>0.00</rpm>
</extensions>
</trkpt>
<trkpt lat="63.949348450" lon="-20.686401367">
<ele>55.273438</ele>
<time>2012-07-27T15:18:13Z</time>
<speed>3.510000</speed>
<extensions>
<speed>3.5</speed>
<temp>0.00</temp>
<bpm>0</bpm>
<rpm>0.00</rpm>
</extensions>
</trkpt>
<trkpt lat="63.949478149" lon="-20.686597824">
<ele>55.303711</ele>
<time>2012-07-27T15:18:18Z</time>
<speed>3.360000</speed>
<extensions>
<speed>3.4</speed>
<temp>0.00</temp>
<bpm>0</bpm>
<rpm>0.00</rpm>
</extensions>
</trkpt>
<trkpt lat="63.949604034" lon="-20.686779022">
<ele>54.791016</ele>
<time>2012-07-27T15:18:23Z</time>
<speed>3.320000</speed>
<extensions>
<speed>3.3</speed>
<temp>0.00</temp>
<bpm>0</bpm>
<rpm>0.00</rpm>
</extensions>
</trkpt>
<trkpt lat="63.949699402" lon="-20.686954498">
<ele>54.722656</ele>
<time>2012-07-27T15:18:28Z</time>
<speed>3.160000</speed>
<extensions>
<speed>3.2</speed>
<temp>0.00</temp>
<bpm>0</bpm>
<rpm>0.00</rpm>
</extensions>
</trkpt>
<trkpt lat="63.949821472" lon="-20.687141418">
<ele>54.419922</ele>
<time>2012-07-27T15:18:33Z</time>
<speed>3.300000</speed>
<extensions>
<speed>3.3</speed>
<temp>0.00</temp>
<bpm>0</bpm>
<rpm>0.00</rpm>
</extensions>
</trkpt>
<trkpt lat="63.949947357" lon="-20.687324524">
<ele>54.195313</ele>
<time>2012-07-27T15:18:38Z</time>
<speed>3.430000</speed>
<extensions>
<speed>3.4</speed>
<temp>0.00</temp>
<bpm>0</bpm>
<rpm>0.00</rpm>
</extensions>
</trkpt>
<trkpt lat="63.950073242" lon="-20.687509537">
<ele>54.266602</ele>
<time>2012-07-27T15:18:43Z</time>
<speed>3.450000</speed>
<extensions>
<speed>3.5</speed>
<temp>0.00</temp>
<bpm>0</bpm>
<rpm>0.00</rpm>
</extensions>
</trkpt>
<trkpt lat="63.950206757" lon="-20.687702179">
<ele>54.038086</ele>
<time>2012-07-27T15:18:48Z</time>
<speed>3.300000</speed>
<extensions>
<speed>3.3</speed>
<temp>0.00</temp>
<bpm>0</bpm>
<rpm>0.00</rpm>
</extensions>
</trkpt>
<trkpt lat="63.950321198" lon="-20.687889099">
<ele>54.331055</ele>
<time>2012-07-27T15:18:53Z</time>
<speed>3.140000</speed>
<extensions>
<speed>3.1</speed>
<temp>0.00</temp>
<bpm>0</bpm>
<rpm>0.00</rpm>
</extensions>
</trkpt>
<trkpt lat="63.950447083" lon="-20.688068390">
<ele>54.205078</ele>
<time>2012-07-27T15:18:58Z</time>
<speed>3.400000</speed>
<extensions>
<speed>3.4</speed>
<temp>0.00</temp>
<bpm>0</bpm>
<rpm>0.00</rpm>
</extensions>
</trkpt>
<trkpt lat="63.950572968" lon="-20.688264847">
<ele>53.866211</ele>
<time>2012-07-27T15:19:03Z</time>
<speed>3.460000</speed>
<extensions>
<speed>3.5</speed>
<temp>0.00</temp>
<bpm>0</bpm>
<rpm>0.00</rpm>
</extensions>
</trkpt>
<trkpt lat="63.950695038" lon="-20.688447952">
<ele>54.304688</ele>
<time>2012-07-27T15:19:08Z</time>
<speed>3.240000</speed>
<extensions>
<speed>3.2</speed>
<temp>0.00</temp>
<bpm>0</bpm>
<rpm>0.00</rpm>
</extensions>
</trkpt>
<trkpt lat="63.950813293" lon="-20.688648224">
<ele>53.843750</ele>
<time>2012-07-27T15:19:13Z</time>
<speed>3.140000</speed>
<extensions>
<speed>3.1</speed>
<temp>0.00</temp>
<bpm>0</bpm>
<rpm>0.00</rpm>
</extensions>
</trkpt>
<trkpt lat="63.950931549" lon="-20.688833237">
<ele>53.947266</ele>
<time>2012-07-27T15:19:18Z</time>
<speed>3.100000</speed>
<extensions>
<speed>3.1</speed>
<temp>0.00</temp>
<bpm>0</bpm>
<rpm>0.00</rpm>
</extensions>
</trkpt>
<trkpt lat="63.951042175" lon="-20.689018250">
<ele>54.097656</ele>
<time>2012-07-27T15:19:23Z</time>
<speed>2.990000</speed>
<extensions>
<speed>3.0</speed>
<temp>0.00</temp>
<bpm>0</bpm>
<rpm>0.00</rpm>
</extensions>
</trkpt>
<trkpt lat="63.951141357" lon="-20.689180374">
<ele>53.619141</ele>
<time>2012-07-27T15:19:28Z</time>
<speed>3.080000</speed>
<extensions>
<speed>3.1</speed>
<temp>0.00</temp>
<bpm>0</bpm>
<rpm>0.00</rpm>
</extensions>
</trkpt>
<trkpt lat="63.951248169" lon="-20.689363480">
<ele>52.586914</ele>
<time>2012-07-27T15:19:33Z</time>
<speed>2.920000</speed>
<extensions>
<speed>2.9</speed>
<temp>0.00</temp>
<bpm>0</bpm>
<rpm>0.00</rpm>
</extensions>
</trkpt>
<trkpt lat="63.951354980" lon="-20.689552307">
<ele>52.771484</ele>
<time>2012-07-27T15:19:38Z</time>
<speed>3.050000</speed>
<extensions>
<speed>3.0</speed>
<temp>0.00</temp>
<bpm>0</bpm>
<rpm>0.00</rpm>
</extensions>
</trkpt>
<trkpt lat="63.951454163" lon="-20.689754486">
<ele>53.648438</ele>
<time>2012-07-27T15:19:43Z</time>
<speed>2.980000</speed>
<extensions>
<speed>3.0</speed>
<temp>0.00</temp>
<bpm>0</bpm>
<rpm>0.00</rpm>
</extensions>
</trkpt>
<trkpt lat="63.951549530" lon="-20.689941406">
<ele>56.863281</ele>
<time>2012-07-27T15:19:48Z</time>
<speed>2.710000</speed>
<extensions>
<speed>2.7</speed>
<temp>0.00</temp>
<bpm>0</bpm>
<rpm>0.00</rpm>
</extensions>
</trkpt>
<trkpt lat="63.951641083" lon="-20.690137863">
<ele>57.027344</ele>
<time>2012-07-27T15:19:53Z</time>
<speed>2.860000</speed>
<extensions>
<speed>2.9</speed>
<temp>0.00</temp>
<bpm>0</bpm>
<rpm>0.00</rpm>
</extensions>
</trkpt>
<trkpt lat="63.951740265" lon="-20.690372467">
<ele>57.141602</ele>
<time>2012-07-27T15:19:58Z</time>
<speed>3.060000</speed>
<extensions>
<speed>3.1</speed>
<temp>0.00</temp>
<bpm>0</bpm>
<rpm>0.00</rpm>
</extensions>
</trkpt>
<trkpt lat="63.951835632" lon="-20.690599442">
<ele>56.702148</ele>
<time>2012-07-27T15:20:03Z</time>
<speed>3.210000</speed>
<extensions>
<speed>3.2</speed>
<temp>0.00</temp>
<bpm>0</bpm>
<rpm>0.00</rpm>
</extensions>
</trkpt>
<trkpt lat="63.951931000" lon="-20.690835953">
<ele>57.741211</ele>
<time>2012-07-27T15:20:08Z</time>
<speed>2.740000</speed>
<extensions>
<speed>2.7</speed>
<temp>0.00</temp>
<bpm>0</bpm>
<rpm>0.00</rpm>
</extensions>
</trkpt>
<trkpt lat="63.952014923" lon="-20.691066742">
<ele>58.009766</ele>
<time>2012-07-27T15:20:13Z</time>
<speed>3.220000</speed>
<extensions>
<speed>3.2</speed>
<temp>0.00</temp>
<bpm>0</bpm>
<rpm>0.00</rpm>
</extensions>
</trkpt>
<trkpt lat="63.952106476" lon="-20.691331863">
<ele>57.535156</ele>
<time>2012-07-27T15:20:18Z</time>
<speed>3.280000</speed>
<extensions>
<speed>3.3</speed>
<temp>0.00</temp>
<bpm>0</bpm>
<rpm>0.00</rpm>
</extensions>
</trkpt>
<trkpt lat="63.952194214" lon="-20.691608429">
<ele>57.640625</ele>
<time>2012-07-27T15:20:23Z</time>
<speed>3.460000</speed>
<extensions>
<speed>3.5</speed>
<temp>0.00</temp>
<bpm>0</bpm>
<rpm>0.00</rpm>
</extensions>
</trkpt>
<trkpt lat="63.952285767" lon="-20.691890717">
<ele>57.653320</ele>
<time>2012-07-27T15:20:28Z</time>
<speed>3.510000</speed>
<extensions>
<speed>3.5</speed>
<temp>0.00</temp>
<bpm>0</bpm>
<rpm>0.00</rpm>
</extensions>
</trkpt>
<trkpt lat="63.952377319" lon="-20.692197800">
<ele>57.724609</ele>
<time>2012-07-27T15:20:33Z</time>
<speed>3.640000</speed>
<extensions>
<speed>3.6</speed>
<temp>0.00</temp>
<bpm>0</bpm>
<rpm>0.00</rpm>
</extensions>
</trkpt>
<trkpt lat="63.952457428" lon="-20.692529678">
<ele>58.656250</ele>
<time>2012-07-27T15:20:38Z</time>
<speed>3.550000</speed>
<extensions>
<speed>3.5</speed>
<temp>0.00</temp>
<bpm>0</bpm>
<rpm>0.00</rpm>
</extensions>
</trkpt>
<trkpt lat="63.952533722" lon="-20.692855835">
<ele>57.929688</ele>
<time>2012-07-27T15:20:43Z</time>
<speed>3.840000</speed>
<extensions>
<speed>3.8</speed>
<temp>0.00</temp>
<bpm>0</bpm>
<rpm>0.00</rpm>
</extensions>
</trkpt>
<trkpt lat="63.952613831" lon="-20.693210602">
<ele>57.575195</ele>
<time>2012-07-27T15:20:48Z</time>
<speed>3.950000</speed>
<extensions>
<speed>4.0</speed>
<temp>0.00</temp>
<bpm>0</bpm>
<rpm>0.00</rpm>
</extensions>
</trkpt>
<trkpt lat="63.952690125" lon="-20.693599701">
<ele>57.428711</ele>
<time>2012-07-27T15:20:53Z</time>
<speed>3.880000</speed>
<extensions>
<speed>3.9</speed>
<temp>0.00</temp>
<bpm>0</bpm>
<rpm>0.00</rpm>
</extensions>
</trkpt>
<trkpt lat="63.952751160" lon="-20.693943024">
<ele>56.609375</ele>
<time>2012-07-27T15:20:58Z</time>
<speed>3.750000</speed>
<extensions>
<speed>3.8</speed>
<temp>0.00</temp>
<bpm>0</bpm>
<rpm>0.00</rpm>
</extensions>
</trkpt>
<trkpt lat="63.952804565" lon="-20.694293976">
<ele>55.986328</ele>
<time>2012-07-27T15:21:03Z</time>
<speed>3.970000</speed>
<extensions>
<speed>4.0</speed>
<temp>0.00</temp>
<bpm>0</bpm>
<rpm>0.00</rpm>
</extensions>
</trkpt>
<trkpt lat="63.952854156" lon="-20.694675446">
<ele>55.866211</ele>
<time>2012-07-27T15:21:08Z</time>
<speed>3.950000</speed>
<extensions>
<speed>4.0</speed>
<temp>0.00</temp>
<bpm>0</bpm>
<rpm>0.00</rpm>
</extensions>
</trkpt>
<trkpt lat="63.952911377" lon="-20.695066452">
<ele>55.484375</ele>
<time>2012-07-27T15:21:13Z</time>
<speed>3.630000</speed>
<extensions>
<speed>3.6</speed>
<temp>0.00</temp>
<bpm>0</bpm>
<rpm>0.00</rpm>
</extensions>
</trkpt>
<trkpt lat="63.952949524" lon="-20.695438385">
<ele>55.338867</ele>
<time>2012-07-27T15:21:18Z</time>
<speed>3.640000</speed>
<extensions>
<speed>3.6</speed>
<temp>0.00</temp>
<bpm>0</bpm>
<rpm>0.00</rpm>
</extensions>
</trkpt>
<trkpt lat="63.952980042" lon="-20.695856094">
<ele>55.645508</ele>
<time>2012-07-27T15:21:23Z</time>
<speed>4.310000</speed>
<extensions>
<speed>4.3</speed>
<temp>0.00</temp>
<bpm>0</bpm>
<rpm>0.00</rpm>
</extensions>
</trkpt>
<trkpt lat="63.953010559" lon="-20.696287155">
<ele>54.666016</ele>
<time>2012-07-27T15:21:28Z</time>
<speed>4.260000</speed>
<extensions>
<speed>4.3</speed>
<temp>0.00</temp>
<bpm>0</bpm>
<rpm>0.00</rpm>
</extensions>
</trkpt>
<trkpt lat="63.953025818" lon="-20.696691513">
<ele>54.669922</ele>
<time>2012-07-27T15:21:33Z</time>
<speed>4.130000</speed>
<extensions>
<speed>4.1</speed>
<temp>0.00</temp>
<bpm>0</bpm>
<rpm>0.00</rpm>
</extensions>
</trkpt>
<trkpt lat="63.953033447" lon="-20.697118759">
<ele>52.728516</ele>
<time>2012-07-27T15:21:38Z</time>
<speed>4.100000</speed>
<extensions>
<speed>4.1</speed>
<temp>0.00</temp>
<bpm>0</bpm>
<rpm>0.00</rpm>
</extensions>
</trkpt>
<trkpt lat="63.953029633" lon="-20.697559357">
<ele>50.893555</ele>
<time>2012-07-27T15:21:43Z</time>
<speed>4.530000</speed>
<extensions>
<speed>4.5</speed>
<temp>0.00</temp>
<bpm>0</bpm>
<rpm>0.00</rpm>
</extensions>
</trkpt>
<trkpt lat="63.953025818" lon="-20.698041916">
<ele>50.337891</ele>
<time>2012-07-27T15:21:48Z</time>
<speed>4.730000</speed>
<extensions>
<speed>4.7</speed>
<temp>0.00</temp>
<bpm>0</bpm>
<rpm>0.00</rpm>
</extensions>
</trkpt>
<trkpt lat="63.953029633" lon="-20.698551178">
<ele>53.346680</ele>
<time>2012-07-27T15:21:53Z</time>
<speed>5.240000</speed>
<extensions>
<speed>5.2</speed>
<temp>0.00</temp>
<bpm>0</bpm>
<rpm>0.00</rpm>
</extensions>
</trkpt>
<trkpt lat="63.953010559" lon="-20.699111938">
<ele>53.284180</ele>
<time>2012-07-27T15:21:58Z</time>
<speed>5.760000</speed>
<extensions>
<speed>5.8</speed>
<temp>0.00</temp>
<bpm>0</bpm>
<rpm>0.00</rpm>
</extensions>
</trkpt>
<trkpt lat="63.953002930" lon="-20.699687958">
<ele>53.941406</ele>
<time>2012-07-27T15:22:03Z</time>
<speed>5.400000</speed>
<extensions>
<speed>5.4</speed>
<temp>0.00</temp>
<bpm>0</bpm>
<rpm>0.00</rpm>
</extensions>
</trkpt>
<trkpt lat="63.952991486" lon="-20.700199127">
<ele>52.622070</ele>
<time>2012-07-27T15:22:08Z</time>
<speed>4.680000</speed>
<extensions>
<speed>4.7</speed>
<temp>0.00</temp>
<bpm>0</bpm>
<rpm>0.00</rpm>
</extensions>
</trkpt>
<trkpt lat="63.953083038" lon="-20.700586319">
<ele>52.342773</ele>
<time>2012-07-27T15:22:13Z</time>
<speed>4.010000</speed>
<extensions>
<speed>4.0</speed>
<temp>0.00</temp>
<bpm>0</bpm>
<rpm>0.00</rpm>
</extensions>
</trkpt>
<trkpt lat="63.953159332" lon="-20.700805664">
<ele>51.524414</ele>
<time>2012-07-27T15:22:18Z</time>
<speed>1.490000</speed>
<extensions>
<speed>1.5</speed>
<temp>0.00</temp>
<bpm>0</bpm>
<rpm>0.00</rpm>
</extensions>
</trkpt>
<trkpt lat="63.953163147" lon="-20.700817108">
<ele>52.091797</ele>
<time>2012-07-27T15:22:23Z</time>
<speed>0.030000</speed>
<extensions>
<speed>0.0</speed>
<temp>0.00</temp>
<bpm>0</bpm>
<rpm>0.00</rpm>
</extensions>
</trkpt>
<trkpt lat="63.953163147" lon="-20.700817108">
<ele>52.098633</ele>
<time>2012-07-27T15:22:28Z</time>
<speed>0.050000</speed>
<extensions>
<speed>0.1</speed>
<temp>0.00</temp>
<bpm>0</bpm>
<rpm>0.00</rpm>
</extensions>
</trkpt>
<trkpt lat="63.953163147" lon="-20.700817108">
<ele>52.091797</ele>
<time>2012-07-27T15:22:33Z</time>
<extensions>
<speed>0.0</speed>
<temp>0.00</temp>
<bpm>0</bpm>
<rpm>0.00</rpm>
</extensions>
</trkpt>
<trkpt lat="63.953163147" lon="-20.700817108">
<ele>52.060547</ele>
<time>2012-07-27T15:22:38Z</time>
<speed>0.010000</speed>
<extensions>
<speed>0.0</speed>
<temp>0.00</temp>
<bpm>0</bpm>
<rpm>0.00</rpm>
</extensions>
</trkpt>
<trkpt lat="63.953163147" lon="-20.700815201">
<ele>52.055664</ele>
<time>2012-07-27T15:22:43Z</time>
<speed>0.010000</speed>
<extensions>
<speed>0.0</speed>
<temp>0.00</temp>
<bpm>0</bpm>
<rpm>0.00</rpm>
</extensions>
</trkpt>
<trkpt lat="63.953166962" lon="-20.700815201">
<ele>52.066406</ele>
<time>2012-07-27T15:22:48Z</time>
<extensions>
<speed>0.0</speed>
<temp>0.00</temp>
<bpm>0</bpm>
<rpm>0.00</rpm>
</extensions>
</trkpt>
<trkpt lat="63.953163147" lon="-20.700815201">
<ele>52.038086</ele>
<time>2012-07-27T15:22:53Z</time>
<extensions>
<speed>0.0</speed>
<temp>0.00</temp>
<bpm>0</bpm>
<rpm>0.00</rpm>
</extensions>
</trkpt>
<trkpt lat="63.953163147" lon="-20.700815201">
<ele>52.018555</ele>
<time>2012-07-27T15:22:58Z</time>
<extensions>
<speed>0.0</speed>
<temp>0.00</temp>
<bpm>0</bpm>
<rpm>0.00</rpm>
</extensions>
</trkpt>
<trkpt lat="63.953163147" lon="-20.700815201">
<ele>52.013672</ele>
<time>2012-07-27T15:23:03Z</time>
<speed>0.020000</speed>
<extensions>
<speed>0.0</speed>
<temp>0.00</temp>
<bpm>0</bpm>
<rpm>0.00</rpm>
</extensions>
</trkpt>
<trkpt lat="63.953163147" lon="-20.700815201">
<ele>52.022461</ele>
<time>2012-07-27T15:23:08Z</time>
<speed>0.010000</speed>
<extensions>
<speed>0.0</speed>
<temp>0.00</temp>
<bpm>0</bpm>
<rpm>0.00</rpm>
</extensions>
</trkpt>
<trkpt lat="63.953163147" lon="-20.700815201">
<ele>52.027344</ele>
<time>2012-07-27T15:23:13Z</time>
<extensions>
<speed>0.0</speed>
<temp>0.00</temp>
<bpm>0</bpm>
<rpm>0.00</rpm>
</extensions>
</trkpt>
<trkpt lat="63.953163147" lon="-20.700815201">
<ele>52.038086</ele>
<time>2012-07-27T15:23:18Z</time>
<extensions>
<speed>0.0</speed>
<temp>0.00</temp>
<bpm>0</bpm>
<rpm>0.00</rpm>
</extensions>
</trkpt>
<trkpt lat="63.953163147" lon="-20.700815201">
<ele>52.040039</ele>
<time>2012-07-27T15:23:23Z</time>
<extensions>
<speed>0.0</speed>
<temp>0.00</temp>
<bpm>0</bpm>
<rpm>0.00</rpm>
</extensions>
</trkpt>
<trkpt lat="63.953163147" lon="-20.700822830">
<ele>52.082031</ele>
<time>2012-07-27T15:23:28Z</time>
<speed>0.730000</speed>
<extensions>
<speed>0.7</speed>
<temp>0.00</temp>
<bpm>0</bpm>
<rpm>0.00</rpm>
</extensions>
</trkpt>
<trkpt lat="63.953163147" lon="-20.700922012">
<ele>51.397461</ele>
<time>2012-07-27T15:23:33Z</time>
<speed>0.970000</speed>
<extensions>
<speed>1.0</speed>
<temp>0.00</temp>
<bpm>0</bpm>
<rpm>0.00</rpm>
</extensions>
</trkpt>
<trkpt lat="63.953159332" lon="-20.701023102">
<ele>51.355469</ele>
<time>2012-07-27T15:23:38Z</time>
<speed>0.520000</speed>
<extensions>
<speed>0.5</speed>
<temp>0.00</temp>
<bpm>0</bpm>
<rpm>0.00</rpm>
</extensions>
</trkpt>
<trkpt lat="63.953159332" lon="-20.701055527">
<ele>51.537109</ele>
<time>2012-07-27T15:23:43Z</time>
<speed>0.310000</speed>
<extensions>
<speed>0.3</speed>
<temp>0.00</temp>
<bpm>0</bpm>
<rpm>0.00</rpm>
</extensions>
</trkpt>
<trkpt lat="63.953170776" lon="-20.701074600">
<ele>51.314453</ele>
<time>2012-07-27T15:23:48Z</time>
<speed>0.020000</speed>
<extensions>
<speed>0.0</speed>
<temp>0.00</temp>
<bpm>0</bpm>
<rpm>0.00</rpm>
</extensions>
</trkpt>
<trkpt lat="63.953170776" lon="-20.701076508">
<ele>51.332031</ele>
<time>2012-07-27T15:23:53Z</time>
<extensions>
<speed>0.0</speed>
<temp>0.00</temp>
<bpm>0</bpm>
<rpm>0.00</rpm>
</extensions>
</trkpt>
<trkpt lat="63.953170776" lon="-20.701076508">
<ele>51.313477</ele>
<time>2012-07-27T15:23:58Z</time>
<speed>0.010000</speed>
<extensions>
<speed>0.0</speed>
<temp>0.00</temp>
<bpm>0</bpm>
<rpm>0.00</rpm>
</extensions>
</trkpt>
<trkpt lat="63.953170776" lon="-20.701074600">
<ele>51.308594</ele>
<time>2012-07-27T15:24:03Z</time>
<extensions>
<speed>0.0</speed>
<temp>0.00</temp>
<bpm>0</bpm>
<rpm>0.00</rpm>
</extensions>
</trkpt>
<trkpt lat="63.953170776" lon="-20.701074600">
<ele>51.299805</ele>
<time>2012-07-27T15:24:08Z</time>
<extensions>
<speed>0.0</speed>
<temp>0.00</temp>
<bpm>0</bpm>
<rpm>0.00</rpm>
</extensions>
</trkpt>
<trkpt lat="63.953170776" lon="-20.701074600">
<ele>51.300781</ele>
<time>2012-07-27T15:24:13Z</time>
<extensions>
<speed>0.0</speed>
<temp>0.00</temp>
<bpm>0</bpm>
<rpm>0.00</rpm>
</extensions>
</trkpt>
<trkpt lat="63.953170776" lon="-20.701074600">
<ele>51.296875</ele>
<time>2012-07-27T15:24:18Z</time>
<extensions>
<speed>0.0</speed>
<temp>0.00</temp>
<bpm>0</bpm>
<rpm>0.00</rpm>
</extensions>
</trkpt>
<trkpt lat="63.953170776" lon="-20.701074600">
<ele>51.288086</ele>
<time>2012-07-27T15:24:23Z</time>
<extensions>
<speed>0.0</speed>
<temp>0.00</temp>
<bpm>0</bpm>
<rpm>0.00</rpm>
</extensions>
</trkpt>
<trkpt lat="63.953170776" lon="-20.701074600">
<ele>51.283203</ele>
<time>2012-07-27T15:24:28Z</time>
<extensions>
<speed>0.0</speed>
<temp>0.00</temp>
<bpm>0</bpm>
<rpm>0.00</rpm>
</extensions>
</trkpt>
<trkpt lat="63.953170776" lon="-20.701074600">
<ele>51.276367</ele>
<time>2012-07-27T15:24:33Z</time>
<speed>0.010000</speed>
<extensions>
<speed>0.0</speed>
<temp>0.00</temp>
<bpm>0</bpm>
<rpm>0.00</rpm>
</extensions>
</trkpt>
<trkpt lat="63.953170776" lon="-20.701074600">
<ele>51.270508</ele>
<time>2012-07-27T15:24:38Z</time>
<extensions>
<speed>0.0</speed>
<temp>0.00</temp>
<bpm>0</bpm>
<rpm>0.00</rpm>
</extensions>
</trkpt>
<trkpt lat="63.953170776" lon="-20.701074600">
<ele>51.263672</ele>
<time>2012-07-27T15:24:43Z</time>
<speed>0.010000</speed>
<extensions>
<speed>0.0</speed>
<temp>0.00</temp>
<bpm>0</bpm>
<rpm>0.00</rpm>
</extensions>
</trkpt>
<trkpt lat="63.953170776" lon="-20.701074600">
<ele>51.256836</ele>
<time>2012-07-27T15:24:48Z</time>
<extensions>
<speed>0.0</speed>
<temp>0.00</temp>
<bpm>0</bpm>
<rpm>0.00</rpm>
</extensions>
</trkpt>
<trkpt lat="63.953170776" lon="-20.701072693">
<ele>51.255859</ele>
<time>2012-07-27T15:24:53Z</time>
<extensions>
<speed>0.0</speed>
<temp>0.00</temp>
<bpm>0</bpm>
<rpm>0.00</rpm>
</extensions>
</trkpt>
<trkpt lat="63.953170776" lon="-20.701072693">
<ele>51.245117</ele>
<time>2012-07-27T15:24:58Z</time>
<extensions>
<speed>0.0</speed>
<temp>0.00</temp>
<bpm>0</bpm>
<rpm>0.00</rpm>
</extensions>
</trkpt>
<trkpt lat="63.953170776" lon="-20.701074600">
<ele>51.244141</ele>
<time>2012-07-27T15:25:03Z</time>
<extensions>
<speed>0.0</speed>
<temp>0.00</temp>
<bpm>0</bpm>
<rpm>0.00</rpm>
</extensions>
</trkpt>
<trkpt lat="63.953170776" lon="-20.701074600">
<ele>51.233398</ele>
<time>2012-07-27T15:25:08Z</time>
<speed>0.010000</speed>
<extensions>
<speed>0.0</speed>
<temp>0.00</temp>
<bpm>0</bpm>
<rpm>0.00</rpm>
</extensions>
</trkpt>
<trkpt lat="63.953170776" lon="-20.701072693">
<ele>51.229492</ele>
<time>2012-07-27T15:25:13Z</time>
<extensions>
<speed>0.0</speed>
<temp>0.00</temp>
<bpm>0</bpm>
<rpm>0.00</rpm>
</extensions>
</trkpt>
<trkpt lat="63.953170776" lon="-20.701072693">
<ele>51.222656</ele>
<time>2012-07-27T15:25:18Z</time>
<extensions>
<speed>0.0</speed>
<temp>0.00</temp>
<bpm>0</bpm>
<rpm>0.00</rpm>
</extensions>
</trkpt>
<trkpt lat="63.953170776" lon="-20.701072693">
<ele>51.213867</ele>
<time>2012-07-27T15:25:23Z</time>
<extensions>
<speed>0.0</speed>
<temp>0.00</temp>
<bpm>0</bpm>
<rpm>0.00</rpm>
</extensions>
</trkpt>
<trkpt lat="63.953170776" lon="-20.701072693">
<ele>51.196289</ele>
<time>2012-07-27T15:25:28Z</time>
<extensions>
<speed>0.0</speed>
<temp>0.00</temp>
<bpm>0</bpm>
<rpm>0.00</rpm>
</extensions>
</trkpt>
<trkpt lat="63.953170776" lon="-20.701072693">
<ele>51.181641</ele>
<time>2012-07-27T15:25:33Z</time>
<extensions>
<speed>0.0</speed>
<temp>0.00</temp>
<bpm>0</bpm>
<rpm>0.00</rpm>
</extensions>
</trkpt>
<trkpt lat="63.953170776" lon="-20.701072693">
<ele>51.165039</ele>
<time>2012-07-27T15:25:38Z</time>
<extensions>
<speed>0.0</speed>
<temp>0.00</temp>
<bpm>0</bpm>
<rpm>0.00</rpm>
</extensions>
</trkpt>
<trkpt lat="63.953170776" lon="-20.701072693">
<ele>51.140625</ele>
<time>2012-07-27T15:25:43Z</time>
<extensions>
<speed>0.0</speed>
<temp>0.00</temp>
<bpm>0</bpm>
<rpm>0.00</rpm>
</extensions>
</trkpt>
<trkpt lat="63.953170776" lon="-20.701072693">
<ele>51.122070</ele>
<time>2012-07-27T15:25:48Z</time>
<extensions>
<speed>0.0</speed>
<temp>0.00</temp>
<bpm>0</bpm>
<rpm>0.00</rpm>
</extensions>
</trkpt>
<trkpt lat="63.953170776" lon="-20.701072693">
<ele>51.107422</ele>
<time>2012-07-27T15:25:53Z</time>
<extensions>
<speed>0.0</speed>
<temp>0.00</temp>
<bpm>0</bpm>
<rpm>0.00</rpm>
</extensions>
</trkpt>
<trkpt lat="63.953170776" lon="-20.701072693">
<ele>51.084961</ele>
<time>2012-07-27T15:25:58Z</time>
<extensions>
<speed>0.0</speed>
<temp>0.00</temp>
<bpm>0</bpm>
<rpm>0.00</rpm>
</extensions>
</trkpt>
<trkpt lat="63.953170776" lon="-20.701070786">
<ele>51.066406</ele>
<time>2012-07-27T15:26:03Z</time>
<extensions>
<speed>0.0</speed>
<temp>0.00</temp>
<bpm>0</bpm>
<rpm>0.00</rpm>
</extensions>
</trkpt>
<trkpt lat="63.953170776" lon="-20.701070786">
<ele>51.048828</ele>
<time>2012-07-27T15:26:08Z</time>
<extensions>
<speed>0.0</speed>
<temp>0.00</temp>
<bpm>0</bpm>
<rpm>0.00</rpm>
</extensions>
</trkpt>
<trkpt lat="63.953170776" lon="-20.701070786">
<ele>51.038086</ele>
<time>2012-07-27T15:26:13Z</time>
<extensions>
<speed>0.0</speed>
<temp>0.00</temp>
<bpm>0</bpm>
<rpm>0.00</rpm>
</extensions>
</trkpt>
<trkpt lat="63.953170776" lon="-20.701070786">
<ele>51.023438</ele>
<time>2012-07-27T15:26:18Z</time>
<extensions>
<speed>0.0</speed>
<temp>0.00</temp>
<bpm>0</bpm>
<rpm>0.00</rpm>
</extensions>
</trkpt>
<trkpt lat="63.953170776" lon="-20.701070786">
<ele>51.014648</ele>
<time>2012-07-27T15:26:23Z</time>
<extensions>
<speed>0.0</speed>
<temp>0.00</temp>
<bpm>0</bpm>
<rpm>0.00</rpm>
</extensions>
</trkpt>
<trkpt lat="63.953170776" lon="-20.701070786">
<ele>51.002930</ele>
<time>2012-07-27T15:26:28Z</time>
<extensions>
<speed>0.0</speed>
<temp>0.00</temp>
<bpm>0</bpm>
<rpm>0.00</rpm>
</extensions>
</trkpt>
<trkpt lat="63.953170776" lon="-20.701070786">
<ele>50.998047</ele>
<time>2012-07-27T15:26:33Z</time>
<extensions>
<speed>0.0</speed>
<temp>0.00</temp>
<bpm>0</bpm>
<rpm>0.00</rpm>
</extensions>
</trkpt>
<trkpt lat="63.953170776" lon="-20.701070786">
<ele>50.986328</ele>
<time>2012-07-27T15:26:38Z</time>
<extensions>
<speed>0.0</speed>
<temp>0.00</temp>
<bpm>0</bpm>
<rpm>0.00</rpm>
</extensions>
</trkpt>
<trkpt lat="63.953170776" lon="-20.701070786">
<ele>50.979492</ele>
<time>2012-07-27T15:26:43Z</time>
<extensions>
<speed>0.0</speed>
<temp>0.00</temp>
<bpm>0</bpm>
<rpm>0.00</rpm>
</extensions>
</trkpt>
<trkpt lat="63.953170776" lon="-20.701070786">
<ele>50.972656</ele>
<time>2012-07-27T15:26:48Z</time>
<extensions>
<speed>0.0</speed>
<temp>0.00</temp>
<bpm>0</bpm>
<rpm>0.00</rpm>
</extensions>
</trkpt>
<trkpt lat="63.953170776" lon="-20.701070786">
<ele>50.966797</ele>
<time>2012-07-27T15:26:53Z</time>
<speed>0.010000</speed>
<extensions>
<speed>0.0</speed>
<temp>0.00</temp>
<bpm>0</bpm>
<rpm>0.00</rpm>
</extensions>
</trkpt>
<trkpt lat="63.953170776" lon="-20.701070786">
<ele>50.964844</ele>
<time>2012-07-27T15:26:58Z</time>
<speed>0.140000</speed>
<extensions>
<speed>0.1</speed>
<temp>0.00</temp>
<bpm>0</bpm>
<rpm>0.00</rpm>
</extensions>
</trkpt>
<trkpt lat="63.953166962" lon="-20.701070786">
<ele>51.079102</ele>
<time>2012-07-27T15:27:03Z</time>
<speed>0.010000</speed>
<extensions>
<speed>0.0</speed>
<temp>0.00</temp>
<bpm>0</bpm>
<rpm>0.00</rpm>
</extensions>
</trkpt>
<trkpt lat="63.953166962" lon="-20.701070786">
<ele>51.076172</ele>
<time>2012-07-27T15:27:08Z</time>
<extensions>
<speed>0.0</speed>
<temp>0.00</temp>
<bpm>0</bpm>
<rpm>0.00</rpm>
</extensions>
</trkpt>
<trkpt lat="63.953166962" lon="-20.701070786">
<ele>51.077148</ele>
<time>2012-07-27T15:27:13Z</time>
<extensions>
<speed>0.0</speed>
<temp>0.00</temp>
<bpm>0</bpm>
<rpm>0.00</rpm>
</extensions>
</trkpt>
<trkpt lat="63.953166962" lon="-20.701070786">
<ele>51.075195</ele>
<time>2012-07-27T15:27:18Z</time>
<extensions>
<speed>0.0</speed>
<temp>0.00</temp>
<bpm>0</bpm>
<rpm>0.00</rpm>
</extensions>
</trkpt>
<trkpt lat="63.953166962" lon="-20.701070786">
<ele>51.076172</ele>
<time>2012-07-27T15:27:23Z</time>
<speed>0.010000</speed>
<extensions>
<speed>0.0</speed>
<temp>0.00</temp>
<bpm>0</bpm>
<rpm>0.00</rpm>
</extensions>
</trkpt>
<trkpt lat="63.953166962" lon="-20.701070786">
<ele>51.079102</ele>
<time>2012-07-27T15:27:28Z</time>
<extensions>
<speed>0.0</speed>
<temp>0.00</temp>
<bpm>0</bpm>
<rpm>0.00</rpm>
</extensions>
</trkpt>
<trkpt lat="63.953166962" lon="-20.701070786">
<ele>51.081055</ele>
<time>2012-07-27T15:27:33Z</time>
<extensions>
<speed>0.0</speed>
<temp>0.00</temp>
<bpm>0</bpm>
<rpm>0.00</rpm>
</extensions>
</trkpt>
<trkpt lat="63.953166962" lon="-20.701070786">
<ele>51.083984</ele>
<time>2012-07-27T15:27:38Z</time>
<extensions>
<speed>0.0</speed>
<temp>0.00</temp>
<bpm>0</bpm>
<rpm>0.00</rpm>
</extensions>
</trkpt>
<trkpt lat="63.953166962" lon="-20.701070786">
<ele>51.084961</ele>
<time>2012-07-27T15:27:43Z</time>
<extensions>
<speed>0.0</speed>
<temp>0.00</temp>
<bpm>0</bpm>
<rpm>0.00</rpm>
</extensions>
</trkpt>
<trkpt lat="63.953166962" lon="-20.701070786">
<ele>51.090820</ele>
<time>2012-07-27T15:27:48Z</time>
<speed>0.010000</speed>
<extensions>
<speed>0.0</speed>
<temp>0.00</temp>
<bpm>0</bpm>
<rpm>0.00</rpm>
</extensions>
</trkpt>
<trkpt lat="63.953166962" lon="-20.701070786">
<ele>51.094727</ele>
<time>2012-07-27T15:27:53Z</time>
<extensions>
<speed>0.0</speed>
<temp>0.00</temp>
<bpm>0</bpm>
<rpm>0.00</rpm>
</extensions>
</trkpt>
<trkpt lat="63.953166962" lon="-20.701070786">
<ele>51.096680</ele>
<time>2012-07-27T15:27:58Z</time>
<speed>0.010000</speed>
<extensions>
<speed>0.0</speed>
<temp>0.00</temp>
<bpm>0</bpm>
<rpm>0.00</rpm>
</extensions>
</trkpt>
<trkpt lat="63.953166962" lon="-20.701070786">
<ele>51.098633</ele>
<time>2012-07-27T15:28:03Z</time>
<speed>0.020000</speed>
<extensions>
<speed>0.0</speed>
<temp>0.00</temp>
<bpm>0</bpm>
<rpm>0.00</rpm>
</extensions>
</trkpt>
<trkpt lat="63.953166962" lon="-20.701070786">
<ele>51.105469</ele>
<time>2012-07-27T15:28:08Z</time>
<extensions>
<speed>0.0</speed>
<temp>0.00</temp>
<bpm>0</bpm>
<rpm>0.00</rpm>
</extensions>
</trkpt>
<trkpt lat="63.953166962" lon="-20.701070786">
<ele>51.111328</ele>
<time>2012-07-27T15:28:13Z</time>
<extensions>
<speed>0.0</speed>
<temp>0.00</temp>
<bpm>0</bpm>
<rpm>0.00</rpm>
</extensions>
</trkpt>
<trkpt lat="63.953166962" lon="-20.701070786">
<ele>51.114258</ele>
<time>2012-07-27T15:28:18Z</time>
<speed>0.010000</speed>
<extensions>
<speed>0.0</speed>
<temp>0.00</temp>
<bpm>0</bpm>
<rpm>0.00</rpm>
</extensions>
</trkpt>
<trkpt lat="63.953166962" lon="-20.701070786">
<ele>51.121094</ele>
<time>2012-07-27T15:28:23Z</time>
<extensions>
<speed>0.0</speed>
<temp>0.00</temp>
<bpm>0</bpm>
<rpm>0.00</rpm>
</extensions>
</trkpt>
<trkpt lat="63.953166962" lon="-20.701070786">
<ele>51.153320</ele>
<time>2012-07-27T15:28:28Z</time>
<extensions>
<speed>0.0</speed>
<temp>0.00</temp>
<bpm>0</bpm>
<rpm>0.00</rpm>
</extensions>
</trkpt>
<trkpt lat="63.953166962" lon="-20.701070786">
<ele>51.166016</ele>
<time>2012-07-27T15:28:33Z</time>
<speed>0.040000</speed>
<extensions>
<speed>0.0</speed>
<temp>0.00</temp>
<bpm>0</bpm>
<rpm>0.00</rpm>
</extensions>
</trkpt>
<trkpt lat="63.953166962" lon="-20.701070786">
<ele>51.170898</ele>
<time>2012-07-27T15:28:38Z</time>
<speed>0.100000</speed>
<extensions>
<speed>0.1</speed>
<temp>0.00</temp>
<bpm>0</bpm>
<rpm>0.00</rpm>
</extensions>
</trkpt>
<trkpt lat="63.953166962" lon="-20.701070786">
<ele>51.163086</ele>
<time>2012-07-27T15:28:43Z</time>
<speed>0.010000</speed>
<extensions>
<speed>0.0</speed>
<temp>0.00</temp>
<bpm>0</bpm>
<rpm>0.00</rpm>
</extensions>
</trkpt>
<trkpt lat="63.953166962" lon="-20.701070786">
<ele>51.161133</ele>
<time>2012-07-27T15:28:48Z</time>
<extensions>
<speed>0.0</speed>
<temp>0.00</temp>
<bpm>0</bpm>
<rpm>0.00</rpm>
</extensions>
</trkpt>
<trkpt lat="63.953166962" lon="-20.701070786">
<ele>51.160156</ele>
<time>2012-07-27T15:28:53Z</time>
<extensions>
<speed>0.0</speed>
<temp>0.00</temp>
<bpm>0</bpm>
<rpm>0.00</rpm>
</extensions>
</trkpt>
<trkpt lat="63.953166962" lon="-20.701070786">
<ele>51.160156</ele>
<time>2012-07-27T15:28:58Z</time>
<extensions>
<speed>0.0</speed>
<temp>0.00</temp>
<bpm>0</bpm>
<rpm>0.00</rpm>
</extensions>
</trkpt>
<trkpt lat="63.953166962" lon="-20.701070786">
<ele>51.160156</ele>
<time>2012-07-27T15:29:03Z</time>
<speed>0.010000</speed>
<extensions>
<speed>0.0</speed>
<temp>0.00</temp>
<bpm>0</bpm>
<rpm>0.00</rpm>
</extensions>
</trkpt>
<trkpt lat="63.953166962" lon="-20.701063156">
<ele>51.215820</ele>
<time>2012-07-27T15:29:08Z</time>
<speed>0.380000</speed>
<extensions>
<speed>0.4</speed>
<temp>0.00</temp>
<bpm>0</bpm>
<rpm>0.00</rpm>
</extensions>
</trkpt>
<trkpt lat="63.953155518" lon="-20.701030731">
<ele>52.143555</ele>
<time>2012-07-27T15:29:13Z</time>
<speed>0.620000</speed>
<extensions>
<speed>0.6</speed>
<temp>0.00</temp>
<bpm>0</bpm>
<rpm>0.00</rpm>
</extensions>
</trkpt>
<trkpt lat="63.953132629" lon="-20.701135635">
<ele>52.370117</ele>
<time>2012-07-27T15:29:18Z</time>
<speed>1.560000</speed>
<extensions>
<speed>1.6</speed>
<temp>0.00</temp>
<bpm>0</bpm>
<rpm>0.00</rpm>
</extensions>
</trkpt>
<trkpt lat="63.953102112" lon="-20.701328278">
<ele>52.812500</ele>
<time>2012-07-27T15:29:23Z</time>
<speed>2.150000</speed>
<extensions>
<speed>2.1</speed>
<temp>0.00</temp>
<bpm>0</bpm>
<rpm>0.00</rpm>
</extensions>
</trkpt>
<trkpt lat="63.953094482" lon="-20.701589584">
<ele>53.446289</ele>
<time>2012-07-27T15:29:28Z</time>
<speed>2.360000</speed>
<extensions>
<speed>2.4</speed>
<temp>0.00</temp>
<bpm>0</bpm>
<rpm>0.00</rpm>
</extensions>
</trkpt>
<trkpt lat="63.953079224" lon="-20.701812744">
<ele>53.164063</ele>
<time>2012-07-27T15:29:33Z</time>
<speed>2.400000</speed>
<extensions>
<speed>2.4</speed>
<temp>0.00</temp>
<bpm>0</bpm>
<rpm>0.00</rpm>
</extensions>
</trkpt>
<trkpt lat="63.953025818" lon="-20.702035904">
<ele>53.937500</ele>
<time>2012-07-27T15:29:38Z</time>
<speed>3.050000</speed>
<extensions>
<speed>3.0</speed>
<temp>0.00</temp>
<bpm>0</bpm>
<rpm>0.00</rpm>
</extensions>
</trkpt>
<trkpt lat="63.952960968" lon="-20.702400208">
<ele>54.873047</ele>
<time>2012-07-27T15:29:43Z</time>
<speed>4.280000</speed>
<extensions>
<speed>4.3</speed>
<temp>0.00</temp>
<bpm>0</bpm>
<rpm>0.00</rpm>
</extensions>
</trkpt>
<trkpt lat="63.952949524" lon="-20.702884674">
<ele>54.274414</ele>
<time>2012-07-27T15:29:48Z</time>
<speed>5.040000</speed>
<extensions>
<speed>5.0</speed>
<temp>0.00</temp>
<bpm>0</bpm>
<rpm>0.00</rpm>
</extensions>
</trkpt>
<trkpt lat="63.952934265" lon="-20.703405380">
<ele>52.518555</ele>
<time>2012-07-27T15:29:53Z</time>
<speed>5.380000</speed>
<extensions>
<speed>5.4</speed>
<temp>0.00</temp>
<bpm>0</bpm>
<rpm>0.00</rpm>
</extensions>
</trkpt>
<trkpt lat="63.952930450" lon="-20.703969955">
<ele>51.431641</ele>
<time>2012-07-27T15:29:58Z</time>
<speed>5.650000</speed>
<extensions>
<speed>5.7</speed>
<temp>0.00</temp>
<bpm>0</bpm>
<rpm>0.00</rpm>
</extensions>
</trkpt>
<trkpt lat="63.952915192" lon="-20.704559326">
<ele>51.736328</ele>
<time>2012-07-27T15:30:03Z</time>
<speed>5.870000</speed>
<extensions>
<speed>5.9</speed>
<temp>0.00</temp>
<bpm>0</bpm>
<rpm>0.00</rpm>
</extensions>
</trkpt>
<trkpt lat="63.952907562" lon="-20.705171585">
<ele>52.347656</ele>
<time>2012-07-27T15:30:08Z</time>
<speed>5.870000</speed>
<extensions>
<speed>5.9</speed>
<temp>0.00</temp>
<bpm>0</bpm>
<rpm>0.00</rpm>
</extensions>
</trkpt>
<trkpt lat="63.952892303" lon="-20.705768585">
<ele>51.668945</ele>
<time>2012-07-27T15:30:13Z</time>
<speed>5.840000</speed>
<extensions>
<speed>5.8</speed>
<temp>0.00</temp>
<bpm>0</bpm>
<rpm>0.00</rpm>
</extensions>
</trkpt>
<trkpt lat="63.952869415" lon="-20.706344604">
<ele>49.317383</ele>
<time>2012-07-27T15:30:18Z</time>
<speed>5.360000</speed>
<extensions>
<speed>5.4</speed>
<temp>0.00</temp>
<bpm>0</bpm>
<rpm>0.00</rpm>
</extensions>
</trkpt>
<trkpt lat="63.952857971" lon="-20.706867218">
<ele>48.327148</ele>
<time>2012-07-27T15:30:23Z</time>
<speed>5.190000</speed>
<extensions>
<speed>5.2</speed>
<temp>0.00</temp>
<bpm>0</bpm>
<rpm>0.00</rpm>
</extensions>
</trkpt>
<trkpt lat="63.952846527" lon="-20.707397461">
<ele>49.065430</ele>
<time>2012-07-27T15:30:28Z</time>
<speed>5.250000</speed>
<extensions>
<speed>5.2</speed>
<temp>0.00</temp>
<bpm>0</bpm>
<rpm>0.00</rpm>
</extensions>
</trkpt>
<trkpt lat="63.952842712" lon="-20.707935333">
<ele>49.158203</ele>
<time>2012-07-27T15:30:33Z</time>
<speed>5.340000</speed>
<extensions>
<speed>5.3</speed>
<temp>0.00</temp>
<bpm>0</bpm>
<rpm>0.00</rpm>
</extensions>
</trkpt>
<trkpt lat="63.952838898" lon="-20.708498001">
<ele>49.677734</ele>
<time>2012-07-27T15:30:38Z</time>
<speed>5.510000</speed>
<extensions>
<speed>5.5</speed>
<temp>0.00</temp>
<bpm>0</bpm>
<rpm>0.00</rpm>
</extensions>
</trkpt>
<trkpt lat="63.952831268" lon="-20.709062576">
<ele>49.765625</ele>
<time>2012-07-27T15:30:43Z</time>
<speed>5.690000</speed>
<extensions>
<speed>5.7</speed>
<temp>0.00</temp>
<bpm>0</bpm>
<rpm>0.00</rpm>
</extensions>
</trkpt>
<trkpt lat="63.952827454" lon="-20.709661484">
<ele>50.269531</ele>
<time>2012-07-27T15:30:48Z</time>
<speed>6.000000</speed>
<extensions>
<speed>6.0</speed>
<temp>0.00</temp>
<bpm>0</bpm>
<rpm>0.00</rpm>
</extensions>
</trkpt>
<trkpt lat="63.952808380" lon="-20.710254669">
<ele>49.924805</ele>
<time>2012-07-27T15:30:53Z</time>
<speed>5.830000</speed>
<extensions>
<speed>5.8</speed>
<temp>0.00</temp>
<bpm>0</bpm>
<rpm>0.00</rpm>
</extensions>
</trkpt>
<trkpt lat="63.952800751" lon="-20.710849762">
<ele>50.489258</ele>
<time>2012-07-27T15:30:58Z</time>
<speed>5.980000</speed>
<extensions>
<speed>6.0</speed>
<temp>0.00</temp>
<bpm>0</bpm>
<rpm>0.00</rpm>
</extensions>
</trkpt>
<trkpt lat="63.952785492" lon="-20.711433411">
<ele>51.087891</ele>
<time>2012-07-27T15:31:03Z</time>
<speed>5.980000</speed>
<extensions>
<speed>6.0</speed>
<temp>0.00</temp>
<bpm>0</bpm>
<rpm>0.00</rpm>
</extensions>
</trkpt>
<trkpt lat="63.952774048" lon="-20.712059021">
<ele>51.808594</ele>
<time>2012-07-27T15:31:08Z</time>
<speed>5.920000</speed>
<extensions>
<speed>5.9</speed>
<temp>0.00</temp>
<bpm>0</bpm>
<rpm>0.00</rpm>
</extensions>
</trkpt>
<trkpt lat="63.952758789" lon="-20.712667465">
<ele>51.619141</ele>
<time>2012-07-27T15:31:13Z</time>
<speed>6.010000</speed>
<extensions>
<speed>6.0</speed>
<temp>0.00</temp>
<bpm>0</bpm>
<rpm>0.00</rpm>
</extensions>
</trkpt>
<trkpt lat="63.952747345" lon="-20.713291168">
<ele>51.350586</ele>
<time>2012-07-27T15:31:18Z</time>
<speed>6.270000</speed>
<extensions>
<speed>6.3</speed>
<temp>0.00</temp>
<bpm>0</bpm>
<rpm>0.00</rpm>
</extensions>
</trkpt>
<trkpt lat="63.952739716" lon="-20.713907242">
<ele>51.751953</ele>
<time>2012-07-27T15:31:23Z</time>
<speed>5.780000</speed>
<extensions>
<speed>5.8</speed>
<temp>0.00</temp>
<bpm>0</bpm>
<rpm>0.00</rpm>
</extensions>
</trkpt>
<trkpt lat="63.952713013" lon="-20.714488983">
<ele>51.232422</ele>
<time>2012-07-27T15:31:28Z</time>
<speed>6.060000</speed>
<extensions>
<speed>6.1</speed>
<temp>0.00</temp>
<bpm>0</bpm>
<rpm>0.00</rpm>
</extensions>
</trkpt>
<trkpt lat="63.952693939" lon="-20.715101242">
<ele>51.180664</ele>
<time>2012-07-27T15:31:33Z</time>
<speed>6.320000</speed>
<extensions>
<speed>6.3</speed>
<temp>0.00</temp>
<bpm>0</bpm>
<rpm>0.00</rpm>
</extensions>
</trkpt>
<trkpt lat="63.952678680" lon="-20.715686798">
<ele>52.505859</ele>
<time>2012-07-27T15:31:38Z</time>
<speed>5.460000</speed>
<extensions>
<speed>5.5</speed>
<temp>0.00</temp>
<bpm>0</bpm>
<rpm>0.00</rpm>
</extensions>
</trkpt>
<trkpt lat="63.952655792" lon="-20.716285706">
<ele>53.836914</ele>
<time>2012-07-27T15:31:43Z</time>
<speed>6.100000</speed>
<extensions>
<speed>6.1</speed>
<temp>0.00</temp>
<bpm>0</bpm>
<rpm>0.00</rpm>
</extensions>
</trkpt>
<trkpt lat="63.952621460" lon="-20.716899872">
<ele>54.018555</ele>
<time>2012-07-27T15:31:48Z</time>
<speed>6.130000</speed>
<extensions>
<speed>6.1</speed>
<temp>0.00</temp>
<bpm>0</bpm>
<rpm>0.00</rpm>
</extensions>
</trkpt>
<trkpt lat="63.952583313" lon="-20.717515945">
<ele>54.444336</ele>
<time>2012-07-27T15:31:53Z</time>
<speed>6.240000</speed>
<extensions>
<speed>6.2</speed>
<temp>0.00</temp>
<bpm>0</bpm>
<rpm>0.00</rpm>
</extensions>
</trkpt>
<trkpt lat="63.952537537" lon="-20.718128204">
<ele>54.977539</ele>
<time>2012-07-27T15:31:58Z</time>
<speed>6.000000</speed>
<extensions>
<speed>6.0</speed>
<temp>0.00</temp>
<bpm>0</bpm>
<rpm>0.00</rpm>
</extensions>
</trkpt>
<trkpt lat="63.952480316" lon="-20.718757629">
<ele>55.590820</ele>
<time>2012-07-27T15:32:03Z</time>
<speed>6.230000</speed>
<extensions>
<speed>6.2</speed>
<temp>0.00</temp>
<bpm>0</bpm>
<rpm>0.00</rpm>
</extensions>
</trkpt>
<trkpt lat="63.952415466" lon="-20.719385147">
<ele>56.406250</ele>
<time>2012-07-27T15:32:08Z</time>
<speed>6.360000</speed>
<extensions>
<speed>6.4</speed>
<temp>0.00</temp>
<bpm>0</bpm>
<rpm>0.00</rpm>
</extensions>
</trkpt>
<trkpt lat="63.952335358" lon="-20.719995499">
<ele>56.987305</ele>
<time>2012-07-27T15:32:13Z</time>
<speed>6.140000</speed>
<extensions>
<speed>6.1</speed>
<temp>0.00</temp>
<bpm>0</bpm>
<rpm>0.00</rpm>
</extensions>
</trkpt>
<trkpt lat="63.952259064" lon="-20.720588684">
<ele>57.711914</ele>
<time>2012-07-27T15:32:18Z</time>
<speed>6.140000</speed>
<extensions>
<speed>6.1</speed>
<temp>0.00</temp>
<bpm>0</bpm>
<rpm>0.00</rpm>
</extensions>
</trkpt>
<trkpt lat="63.952171326" lon="-20.721183777">
<ele>58.066406</ele>
<time>2012-07-27T15:32:23Z</time>
<speed>6.460000</speed>
<extensions>
<speed>6.5</speed>
<temp>0.00</temp>
<bpm>0</bpm>
<rpm>0.00</rpm>
</extensions>
</trkpt>
<trkpt lat="63.952072144" lon="-20.721797943">
<ele>61.961914</ele>
<time>2012-07-27T15:32:28Z</time>
<speed>6.250000</speed>
<extensions>
<speed>6.3</speed>
<temp>0.00</temp>
<bpm>0</bpm>
<rpm>0.00</rpm>
</extensions>
</trkpt>
<trkpt lat="63.951957703" lon="-20.722412109">
<ele>59.818359</ele>
<time>2012-07-27T15:32:33Z</time>
<speed>6.770000</speed>
<extensions>
<speed>6.8</speed>
<temp>0.00</temp>
<bpm>0</bpm>
<rpm>0.00</rpm>
</extensions>
</trkpt>
<trkpt lat="63.951839447" lon="-20.723072052">
<ele>59.980469</ele>
<time>2012-07-27T15:32:38Z</time>
<speed>7.130000</speed>
<extensions>
<speed>7.1</speed>
<temp>0.00</temp>
<bpm>0</bpm>
<rpm>0.00</rpm>
</extensions>
</trkpt>
<trkpt lat="63.951721191" lon="-20.723772049">
<ele>58.992188</ele>
<time>2012-07-27T15:32:43Z</time>
<speed>7.260000</speed>
<extensions>
<speed>7.3</speed>
<temp>0.00</temp>
<bpm>0</bpm>
<rpm>0.00</rpm>
</extensions>
</trkpt>
<trkpt lat="63.951580048" lon="-20.724452972">
<ele>58.982422</ele>
<time>2012-07-27T15:32:48Z</time>
<speed>7.510000</speed>
<extensions>
<speed>7.5</speed>
<temp>0.00</temp>
<bpm>0</bpm>
<rpm>0.00</rpm>
</extensions>
</trkpt>
<trkpt lat="63.951435089" lon="-20.725158691">
<ele>56.708984</ele>
<time>2012-07-27T15:32:53Z</time>
<speed>7.540000</speed>
<extensions>
<speed>7.5</speed>
<temp>0.00</temp>
<bpm>0</bpm>
<rpm>0.00</rpm>
</extensions>
</trkpt>
<trkpt lat="63.951305389" lon="-20.725851059">
<ele>57.958984</ele>
<time>2012-07-27T15:32:58Z</time>
<speed>7.080000</speed>
<extensions>
<speed>7.1</speed>
<temp>0.00</temp>
<bpm>0</bpm>
<rpm>0.00</rpm>
</extensions>
</trkpt>
<trkpt lat="63.951179504" lon="-20.726518631">
<ele>57.265625</ele>
<time>2012-07-27T15:33:03Z</time>
<speed>7.360000</speed>
<extensions>
<speed>7.4</speed>
<temp>0.00</temp>
<bpm>0</bpm>
<rpm>0.00</rpm>
</extensions>
</trkpt>
<trkpt lat="63.951049805" lon="-20.727210999">
<ele>56.632813</ele>
<time>2012-07-27T15:33:08Z</time>
<speed>7.230000</speed>
<extensions>
<speed>7.2</speed>
<temp>0.00</temp>
<bpm>0</bpm>
<rpm>0.00</rpm>
</extensions>
</trkpt>
<trkpt lat="63.950920105" lon="-20.727851868">
<ele>55.694336</ele>
<time>2012-07-27T15:33:13Z</time>
<speed>6.980000</speed>
<extensions>
<speed>7.0</speed>
<temp>0.00</temp>
<bpm>0</bpm>
<rpm>0.00</rpm>
</extensions>
</trkpt>
<trkpt lat="63.950786591" lon="-20.728515625">
<ele>55.559570</ele>
<time>2012-07-27T15:33:18Z</time>
<speed>7.330000</speed>
<extensions>
<speed>7.3</speed>
<temp>0.00</temp>
<bpm>0</bpm>
<rpm>0.00</rpm>
</extensions>
</trkpt>
<trkpt lat="63.950653076" lon="-20.729228973">
<ele>56.035156</ele>
<time>2012-07-27T15:33:23Z</time>
<speed>7.410000</speed>
<extensions>
<speed>7.4</speed>
<temp>0.00</temp>
<bpm>0</bpm>
<rpm>0.00</rpm>
</extensions>
</trkpt>
<trkpt lat="63.950523376" lon="-20.729911804">
<ele>55.719727</ele>
<time>2012-07-27T15:33:28Z</time>
<speed>7.290000</speed>
<extensions>
<speed>7.3</speed>
<temp>0.00</temp>
<bpm>0</bpm>
<rpm>0.00</rpm>
</extensions>
</trkpt>
<trkpt lat="63.950397491" lon="-20.730628967">
<ele>56.674805</ele>
<time>2012-07-27T15:33:33Z</time>
<speed>7.750000</speed>
<extensions>
<speed>7.7</speed>
<temp>0.00</temp>
<bpm>0</bpm>
<rpm>0.00</rpm>
</extensions>
</trkpt>
<trkpt lat="63.950256348" lon="-20.731376648">
<ele>54.707031</ele>
<time>2012-07-27T15:33:38Z</time>
<speed>7.740000</speed>
<extensions>
<speed>7.7</speed>
<temp>0.00</temp>
<bpm>0</bpm>
<rpm>0.00</rpm>
</extensions>
</trkpt>
<trkpt lat="63.950115204" lon="-20.732074738">
<ele>52.158203</ele>
<time>2012-07-27T15:33:43Z</time>
<speed>7.530000</speed>
<extensions>
<speed>7.5</speed>
<temp>0.00</temp>
<bpm>0</bpm>
<rpm>0.00</rpm>
</extensions>
</trkpt>
<trkpt lat="63.949977875" lon="-20.732784271">
<ele>50.433594</ele>
<time>2012-07-27T15:33:48Z</time>
<speed>7.700000</speed>
<extensions>
<speed>7.7</speed>
<temp>0.00</temp>
<bpm>0</bpm>
<rpm>0.00</rpm>
</extensions>
</trkpt>
<trkpt lat="63.949840546" lon="-20.733518600">
<ele>49.257813</ele>
<time>2012-07-27T15:33:53Z</time>
<speed>7.770000</speed>
<extensions>
<speed>7.8</speed>
<temp>0.00</temp>
<bpm>0</bpm>
<rpm>0.00</rpm>
</extensions>
</trkpt>
<trkpt lat="63.949699402" lon="-20.734262466">
<ele>50.415039</ele>
<time>2012-07-27T15:33:58Z</time>
<speed>7.920000</speed>
<extensions>
<speed>7.9</speed>
<temp>0.00</temp>
<bpm>0</bpm>
<rpm>0.00</rpm>
</extensions>
</trkpt>
<trkpt lat="63.949565887" lon="-20.735021591">
<ele>49.310547</ele>
<time>2012-07-27T15:34:03Z</time>
<speed>7.940000</speed>
<extensions>
<speed>7.9</speed>
<temp>0.00</temp>
<bpm>0</bpm>
<rpm>0.00</rpm>
</extensions>
</trkpt>
<trkpt lat="63.949420929" lon="-20.735763550">
<ele>46.459961</ele>
<time>2012-07-27T15:34:08Z</time>
<speed>8.090000</speed>
<extensions>
<speed>8.1</speed>
<temp>0.00</temp>
<bpm>0</bpm>
<rpm>0.00</rpm>
</extensions>
</trkpt>
<trkpt lat="63.949291229" lon="-20.736492157">
<ele>44.552734</ele>
<time>2012-07-27T15:34:13Z</time>
<speed>7.340000</speed>
<extensions>
<speed>7.3</speed>
<temp>0.00</temp>
<bpm>0</bpm>
<rpm>0.00</rpm>
</extensions>
</trkpt>
<trkpt lat="63.949176788" lon="-20.737138748">
<ele>43.608398</ele>
<time>2012-07-27T15:34:18Z</time>
<speed>6.860000</speed>
<extensions>
<speed>6.9</speed>
<temp>0.00</temp>
<bpm>0</bpm>
<rpm>0.00</rpm>
</extensions>
</trkpt>
<trkpt lat="63.949069977" lon="-20.737783432">
<ele>43.682617</ele>
<time>2012-07-27T15:34:23Z</time>
<speed>6.820000</speed>
<extensions>
<speed>6.8</speed>
<temp>0.00</temp>
<bpm>0</bpm>
<rpm>0.00</rpm>
</extensions>
</trkpt>
<trkpt lat="63.948955536" lon="-20.738447189">
<ele>42.712891</ele>
<time>2012-07-27T15:34:28Z</time>
<speed>7.080000</speed>
<extensions>
<speed>7.1</speed>
<temp>0.00</temp>
<bpm>0</bpm>
<rpm>0.00</rpm>
</extensions>
</trkpt>
<trkpt lat="63.948837280" lon="-20.739116669">
<ele>42.127930</ele>
<time>2012-07-27T15:34:33Z</time>
<speed>7.260000</speed>
<extensions>
<speed>7.3</speed>
<temp>0.00</temp>
<bpm>0</bpm>
<rpm>0.00</rpm>
</extensions>
</trkpt>
<trkpt lat="63.948730469" lon="-20.739810944">
<ele>41.024414</ele>
<time>2012-07-27T15:34:38Z</time>
<speed>7.500000</speed>
<extensions>
<speed>7.5</speed>
<temp>0.00</temp>
<bpm>0</bpm>
<rpm>0.00</rpm>
</extensions>
</trkpt>
<trkpt lat="63.948631287" lon="-20.740495682">
<ele>41.230469</ele>
<time>2012-07-27T15:34:43Z</time>
<speed>6.700000</speed>
<extensions>
<speed>6.7</speed>
<temp>0.00</temp>
<bpm>0</bpm>
<rpm>0.00</rpm>
</extensions>
</trkpt>
<trkpt lat="63.948535919" lon="-20.741172791">
<ele>41.833984</ele>
<time>2012-07-27T15:34:48Z</time>
<speed>7.330000</speed>
<extensions>
<speed>7.3</speed>
<temp>0.00</temp>
<bpm>0</bpm>
<rpm>0.00</rpm>
</extensions>
</trkpt>
<trkpt lat="63.948436737" lon="-20.741882324">
<ele>42.116211</ele>
<time>2012-07-27T15:34:53Z</time>
<speed>7.030000</speed>
<extensions>
<speed>7.0</speed>
<temp>0.00</temp>
<bpm>0</bpm>
<rpm>0.00</rpm>
</extensions>
</trkpt>
<trkpt lat="63.948348999" lon="-20.742544174">
<ele>40.821289</ele>
<time>2012-07-27T15:34:58Z</time>
<speed>6.750000</speed>
<extensions>
<speed>6.7</speed>
<temp>0.00</temp>
<bpm>0</bpm>
<rpm>0.00</rpm>
</extensions>
</trkpt>
<trkpt lat="63.948272705" lon="-20.743242264">
<ele>40.805664</ele>
<time>2012-07-27T15:35:03Z</time>
<speed>6.910000</speed>
<extensions>
<speed>6.9</speed>
<temp>0.00</temp>
<bpm>0</bpm>
<rpm>0.00</rpm>
</extensions>
</trkpt>
<trkpt lat="63.948207855" lon="-20.743875504">
<ele>42.582031</ele>
<time>2012-07-27T15:35:08Z</time>
<speed>6.090000</speed>
<extensions>
<speed>6.1</speed>
<temp>0.00</temp>
<bpm>0</bpm>
<rpm>0.00</rpm>
</extensions>
</trkpt>
<trkpt lat="63.948150635" lon="-20.744470596">
<ele>44.536133</ele>
<time>2012-07-27T15:35:13Z</time>
<speed>5.690000</speed>
<extensions>
<speed>5.7</speed>
<temp>0.00</temp>
<bpm>0</bpm>
<rpm>0.00</rpm>
</extensions>
</trkpt>
<trkpt lat="63.948104858" lon="-20.745048523">
<ele>45.113281</ele>
<time>2012-07-27T15:35:18Z</time>
<speed>6.070000</speed>
<extensions>
<speed>6.1</speed>
<temp>0.00</temp>
<bpm>0</bpm>
<rpm>0.00</rpm>
</extensions>
</trkpt>
<trkpt lat="63.948043823" lon="-20.745700836">
<ele>44.477539</ele>
<time>2012-07-27T15:35:23Z</time>
<speed>6.640000</speed>
<extensions>
<speed>6.6</speed>
<temp>0.00</temp>
<bpm>0</bpm>
<rpm>0.00</rpm>
</extensions>
</trkpt>
<trkpt lat="63.947986603" lon="-20.746389389">
<ele>44.153320</ele>
<time>2012-07-27T15:35:28Z</time>
<speed>6.930000</speed>
<extensions>
<speed>6.9</speed>
<temp>0.00</temp>
<bpm>0</bpm>
<rpm>0.00</rpm>
</extensions>
</trkpt>
<trkpt lat="63.947929382" lon="-20.747051239">
<ele>43.179688</ele>
<time>2012-07-27T15:35:33Z</time>
<speed>6.580000</speed>
<extensions>
<speed>6.6</speed>
<temp>0.00</temp>
<bpm>0</bpm>
<rpm>0.00</rpm>
</extensions>
</trkpt>
<trkpt lat="63.947875977" lon="-20.747732162">
<ele>43.114258</ele>
<time>2012-07-27T15:35:38Z</time>
<speed>7.050000</speed>
<extensions>
<speed>7.0</speed>
<temp>0.00</temp>
<bpm>0</bpm>
<rpm>0.00</rpm>
</extensions>
</trkpt>
<trkpt lat="63.947818756" lon="-20.748441696">
<ele>42.646484</ele>
<time>2012-07-27T15:35:43Z</time>
<speed>7.240000</speed>
<extensions>
<speed>7.2</speed>
<temp>0.00</temp>
<bpm>0</bpm>
<rpm>0.00</rpm>
</extensions>
</trkpt>
<trkpt lat="63.947753906" lon="-20.749149323">
<ele>42.212891</ele>
<time>2012-07-27T15:35:48Z</time>
<speed>6.860000</speed>
<extensions>
<speed>6.9</speed>
<temp>0.00</temp>
<bpm>0</bpm>
<rpm>0.00</rpm>
</extensions>
</trkpt>
<trkpt lat="63.947704315" lon="-20.749805450">
<ele>43.556641</ele>
<time>2012-07-27T15:35:53Z</time>
<speed>6.220000</speed>
<extensions>
<speed>6.2</speed>
<temp>0.00</temp>
<bpm>0</bpm>
<rpm>0.00</rpm>
</extensions>
</trkpt>
<trkpt lat="63.947639465" lon="-20.750413895">
<ele>43.916992</ele>
<time>2012-07-27T15:35:58Z</time>
<speed>6.370000</speed>
<extensions>
<speed>6.4</speed>
<temp>0.00</temp>
<bpm>0</bpm>
<rpm>0.00</rpm>
</extensions>
</trkpt>
<trkpt lat="63.947578430" lon="-20.751068115">
<ele>45.367188</ele>
<time>2012-07-27T15:36:03Z</time>
<speed>6.830000</speed>
<extensions>
<speed>6.8</speed>
<temp>0.00</temp>
<bpm>0</bpm>
<rpm>0.00</rpm>
</extensions>
</trkpt>
<trkpt lat="63.947498322" lon="-20.751762390">
<ele>45.108398</ele>
<time>2012-07-27T15:36:08Z</time>
<speed>7.200000</speed>
<extensions>
<speed>7.2</speed>
<temp>0.00</temp>
<bpm>0</bpm>
<rpm>0.00</rpm>
</extensions>
</trkpt>
<trkpt lat="63.947399139" lon="-20.752470016">
<ele>44.492188</ele>
<time>2012-07-27T15:36:13Z</time>
<speed>7.360000</speed>
<extensions>
<speed>7.4</speed>
<temp>0.00</temp>
<bpm>0</bpm>
<rpm>0.00</rpm>
</extensions>
</trkpt>
<trkpt lat="63.947284698" lon="-20.753110886">
<ele>42.451172</ele>
<time>2012-07-27T15:36:18Z</time>
<speed>6.360000</speed>
<extensions>
<speed>6.4</speed>
<temp>0.00</temp>
<bpm>0</bpm>
<rpm>0.00</rpm>
</extensions>
</trkpt>
<trkpt lat="63.947162628" lon="-20.753692627">
<ele>41.720703</ele>
<time>2012-07-27T15:36:23Z</time>
<speed>6.650000</speed>
<extensions>
<speed>6.7</speed>
<temp>0.00</temp>
<bpm>0</bpm>
<rpm>0.00</rpm>
</extensions>
</trkpt>
<trkpt lat="63.947025299" lon="-20.754325867">
<ele>41.639648</ele>
<time>2012-07-27T15:36:28Z</time>
<speed>6.970000</speed>
<extensions>
<speed>7.0</speed>
<temp>0.00</temp>
<bpm>0</bpm>
<rpm>0.00</rpm>
</extensions>
</trkpt>
<trkpt lat="63.946872711" lon="-20.754903793">
<ele>39.600586</ele>
<time>2012-07-27T15:36:33Z</time>
<speed>6.790000</speed>
<extensions>
<speed>6.8</speed>
<temp>0.00</temp>
<bpm>0</bpm>
<rpm>0.00</rpm>
</extensions>
</trkpt>
<trkpt lat="63.946704865" lon="-20.755537033">
<ele>35.195313</ele>
<time>2012-07-27T15:36:38Z</time>
<speed>7.560000</speed>
<extensions>
<speed>7.6</speed>
<temp>0.00</temp>
<bpm>0</bpm>
<rpm>0.00</rpm>
</extensions>
</trkpt>
<trkpt lat="63.946548462" lon="-20.756219864">
<ele>33.074219</ele>
<time>2012-07-27T15:36:43Z</time>
<speed>7.540000</speed>
<extensions>
<speed>7.5</speed>
<temp>0.00</temp>
<bpm>0</bpm>
<rpm>0.00</rpm>
</extensions>
</trkpt>
<trkpt lat="63.946372986" lon="-20.756895065">
<ele>32.541992</ele>
<time>2012-07-27T15:36:48Z</time>
<speed>7.570000</speed>
<extensions>
<speed>7.6</speed>
<temp>0.00</temp>
<bpm>0</bpm>
<rpm>0.00</rpm>
</extensions>
</trkpt>
<trkpt lat="63.946186066" lon="-20.757551193">
<ele>29.031250</ele>
<time>2012-07-27T15:36:53Z</time>
<speed>7.820000</speed>
<extensions>
<speed>7.8</speed>
<temp>0.00</temp>
<bpm>0</bpm>
<rpm>0.00</rpm>
</extensions>
</trkpt>
<trkpt lat="63.946006775" lon="-20.758272171">
<ele>29.602539</ele>
<time>2012-07-27T15:36:58Z</time>
<speed>8.500000</speed>
<extensions>
<speed>8.5</speed>
<temp>0.00</temp>
<bpm>0</bpm>
<rpm>0.00</rpm>
</extensions>
</trkpt>
<trkpt lat="63.945835114" lon="-20.759094238">
<ele>32.641602</ele>
<time>2012-07-27T15:37:03Z</time>
<speed>8.790000</speed>
<extensions>
<speed>8.8</speed>
<temp>0.00</temp>
<bpm>0</bpm>
<rpm>0.00</rpm>
</extensions>
</trkpt>
<trkpt lat="63.945705414" lon="-20.759895325">
<ele>36.590820</ele>
<time>2012-07-27T15:37:08Z</time>
<speed>7.900000</speed>
<extensions>
<speed>7.9</speed>
<temp>0.00</temp>
<bpm>0</bpm>
<rpm>0.00</rpm>
</extensions>
</trkpt>
<trkpt lat="63.945617676" lon="-20.760610580">
<ele>37.620117</ele>
<time>2012-07-27T15:37:13Z</time>
<speed>6.900000</speed>
<extensions>
<speed>6.9</speed>
<temp>0.00</temp>
<bpm>0</bpm>
<rpm>0.00</rpm>
</extensions>
</trkpt>
<trkpt lat="63.945560455" lon="-20.761236191">
<ele>41.192383</ele>
<time>2012-07-27T15:37:18Z</time>
<speed>5.780000</speed>
<extensions>
<speed>5.8</speed>
<temp>0.00</temp>
<bpm>0</bpm>
<rpm>0.00</rpm>
</extensions>
</trkpt>
<trkpt lat="63.945518494" lon="-20.761840820">
<ele>42.828125</ele>
<time>2012-07-27T15:37:23Z</time>
<speed>5.940000</speed>
<extensions>
<speed>5.9</speed>
<temp>0.00</temp>
<bpm>0</bpm>
<rpm>0.00</rpm>
</extensions>
</trkpt>
<trkpt lat="63.945484161" lon="-20.762428284">
<ele>44.565430</ele>
<time>2012-07-27T15:37:28Z</time>
<speed>5.650000</speed>
<extensions>
<speed>5.7</speed>
<temp>0.00</temp>
<bpm>0</bpm>
<rpm>0.00</rpm>
</extensions>
</trkpt>
<trkpt lat="63.945442200" lon="-20.763006210">
<ele>44.897461</ele>
<time>2012-07-27T15:37:33Z</time>
<speed>5.500000</speed>
<extensions>
<speed>5.5</speed>
<temp>0.00</temp>
<bpm>0</bpm>
<rpm>0.00</rpm>
</extensions>
</trkpt>
<trkpt lat="63.945407867" lon="-20.763473511">
<ele>45.142578</ele>
<time>2012-07-27T15:37:38Z</time>
<speed>4.210000</speed>
<extensions>
<speed>4.2</speed>
<temp>0.00</temp>
<bpm>0</bpm>
<rpm>0.00</rpm>
</extensions>
</trkpt>
<trkpt lat="63.945384979" lon="-20.763841629">
<ele>45.502930</ele>
<time>2012-07-27T15:37:43Z</time>
<speed>3.080000</speed>
<extensions>
<speed>3.1</speed>
<temp>0.00</temp>
<bpm>0</bpm>
<rpm>0.00</rpm>
</extensions>
</trkpt>
<trkpt lat="63.945384979" lon="-20.763916016">
<ele>45.409180</ele>
<time>2012-07-27T15:37:48Z</time>
<speed>0.040000</speed>
<extensions>
<speed>0.0</speed>
<temp>0.00</temp>
<bpm>0</bpm>
<rpm>0.00</rpm>
</extensions>
</trkpt>
<trkpt lat="63.945384979" lon="-20.763916016">
<ele>45.397461</ele>
<time>2012-07-27T15:37:53Z</time>
<speed>0.020000</speed>
<extensions>
<speed>0.0</speed>
<temp>0.00</temp>
<bpm>0</bpm>
<rpm>0.00</rpm>
</extensions>
</trkpt>
<trkpt lat="63.945384979" lon="-20.763916016">
<ele>45.421875</ele>
<time>2012-07-27T15:37:58Z</time>
<extensions>
<speed>0.0</speed>
<temp>0.00</temp>
<bpm>0</bpm>
<rpm>0.00</rpm>
</extensions>
</trkpt>
<trkpt lat="63.945381165" lon="-20.763908386">
<ele>45.105469</ele>
<time>2012-07-27T15:38:03Z</time>
<speed>0.060000</speed>
<extensions>
<speed>0.1</speed>
<temp>0.00</temp>
<bpm>0</bpm>
<rpm>0.00</rpm>
</extensions>
</trkpt>
<trkpt lat="63.945381165" lon="-20.763906479">
<ele>44.560547</ele>
<time>2012-07-27T15:38:08Z</time>
<speed>0.030000</speed>
<extensions>
<speed>0.0</speed>
<temp>0.00</temp>
<bpm>0</bpm>
<rpm>0.00</rpm>
</extensions>
</trkpt>
<trkpt lat="63.945354462" lon="-20.764070511">
<ele>44.849609</ele>
<time>2012-07-27T15:38:13Z</time>
<speed>3.270000</speed>
<extensions>
<speed>3.3</speed>
<temp>0.00</temp>
<bpm>0</bpm>
<rpm>0.00</rpm>
</extensions>
</trkpt>
<trkpt lat="63.945327759" lon="-20.764465332">
<ele>45.505859</ele>
<time>2012-07-27T15:38:18Z</time>
<speed>4.610000</speed>
<extensions>
<speed>4.6</speed>
<temp>0.00</temp>
<bpm>0</bpm>
<rpm>0.00</rpm>
</extensions>
</trkpt>
<trkpt lat="63.945281982" lon="-20.764999390">
<ele>45.740234</ele>
<time>2012-07-27T15:38:23Z</time>
<speed>5.410000</speed>
<extensions>
<speed>5.4</speed>
<temp>0.00</temp>
<bpm>0</bpm>
<rpm>0.00</rpm>
</extensions>
</trkpt>
<trkpt lat="63.945228577" lon="-20.765525818">
<ele>46.266602</ele>
<time>2012-07-27T15:38:28Z</time>
<speed>4.920000</speed>
<extensions>
<speed>4.9</speed>
<temp>0.00</temp>
<bpm>0</bpm>
<rpm>0.00</rpm>
</extensions>
</trkpt>
<trkpt lat="63.945175171" lon="-20.766016006">
<ele>45.547852</ele>
<time>2012-07-27T15:38:33Z</time>
<speed>5.100000</speed>
<extensions>
<speed>5.1</speed>
<temp>0.00</temp>
<bpm>0</bpm>
<rpm>0.00</rpm>
</extensions>
</trkpt>
<trkpt lat="63.945106506" lon="-20.766565323">
<ele>45.420898</ele>
<time>2012-07-27T15:38:38Z</time>
<speed>5.830000</speed>
<extensions>
<speed>5.8</speed>
<temp>0.00</temp>
<bpm>0</bpm>
<rpm>0.00</rpm>
</extensions>
</trkpt>
<trkpt lat="63.945026398" lon="-20.767156601">
<ele>45.152344</ele>
<time>2012-07-27T15:38:43Z</time>
<speed>6.090000</speed>
<extensions>
<speed>6.1</speed>
<temp>0.00</temp>
<bpm>0</bpm>
<rpm>0.00</rpm>
</extensions>
</trkpt>
<trkpt lat="63.944946289" lon="-20.767780304">
<ele>45.600586</ele>
<time>2012-07-27T15:38:48Z</time>
<speed>6.460000</speed>
<extensions>
<speed>6.5</speed>
<temp>0.00</temp>
<bpm>0</bpm>
<rpm>0.00</rpm>
</extensions>
</trkpt>
<trkpt lat="63.944862366" lon="-20.768383026">
<ele>43.953125</ele>
<time>2012-07-27T15:38:53Z</time>
<speed>6.010000</speed>
<extensions>
<speed>6.0</speed>
<temp>0.00</temp>
<bpm>0</bpm>
<rpm>0.00</rpm>
</extensions>
</trkpt>
<trkpt lat="63.944774628" lon="-20.768981934">
<ele>44.345703</ele>
<time>2012-07-27T15:38:58Z</time>
<speed>6.450000</speed>
<extensions>
<speed>6.4</speed>
<temp>0.00</temp>
<bpm>0</bpm>
<rpm>0.00</rpm>
</extensions>
</trkpt>
<trkpt lat="63.944679260" lon="-20.769622803">
<ele>43.960938</ele>
<time>2012-07-27T15:39:03Z</time>
<speed>6.690000</speed>
<extensions>
<speed>6.7</speed>
<temp>0.00</temp>
<bpm>0</bpm>
<rpm>0.00</rpm>
</extensions>
</trkpt>
<trkpt lat="63.944591522" lon="-20.770233154">
<ele>42.617188</ele>
<time>2012-07-27T15:39:08Z</time>
<speed>6.210000</speed>
<extensions>
<speed>6.2</speed>
<temp>0.00</temp>
<bpm>0</bpm>
<rpm>0.00</rpm>
</extensions>
</trkpt>
<trkpt lat="63.944503784" lon="-20.770847321">
<ele>41.909180</ele>
<time>2012-07-27T15:39:13Z</time>
<speed>6.450000</speed>
<extensions>
<speed>6.4</speed>
<temp>0.00</temp>
<bpm>0</bpm>
<rpm>0.00</rpm>
</extensions>
</trkpt>
<trkpt lat="63.944400787" lon="-20.771465302">
<ele>42.201172</ele>
<time>2012-07-27T15:39:18Z</time>
<speed>6.380000</speed>
<extensions>
<speed>6.4</speed>
<temp>0.00</temp>
<bpm>0</bpm>
<rpm>0.00</rpm>
</extensions>
</trkpt>
<trkpt lat="63.944301605" lon="-20.772136688">
<ele>42.359375</ele>
<time>2012-07-27T15:39:23Z</time>
<speed>7.070000</speed>
<extensions>
<speed>7.1</speed>
<temp>0.00</temp>
<bpm>0</bpm>
<rpm>0.00</rpm>
</extensions>
</trkpt>
<trkpt lat="63.944206238" lon="-20.772802353">
<ele>42.267578</ele>
<time>2012-07-27T15:39:28Z</time>
<speed>6.340000</speed>
<extensions>
<speed>6.3</speed>
<temp>0.00</temp>
<bpm>0</bpm>
<rpm>0.00</rpm>
</extensions>
</trkpt>
<trkpt lat="63.944118500" lon="-20.773365021">
<ele>42.972656</ele>
<time>2012-07-27T15:39:33Z</time>
<speed>5.640000</speed>
<extensions>
<speed>5.6</speed>
<temp>0.00</temp>
<bpm>0</bpm>
<rpm>0.00</rpm>
</extensions>
</trkpt>
<trkpt lat="63.944030762" lon="-20.773941040">
<ele>42.202148</ele>
<time>2012-07-27T15:39:38Z</time>
<speed>6.570000</speed>
<extensions>
<speed>6.6</speed>
<temp>0.00</temp>
<bpm>0</bpm>
<rpm>0.00</rpm>
</extensions>
</trkpt>
<trkpt lat="63.943931580" lon="-20.774570465">
<ele>42.431641</ele>
<time>2012-07-27T15:39:43Z</time>
<speed>6.670000</speed>
<extensions>
<speed>6.7</speed>
<temp>0.00</temp>
<bpm>0</bpm>
<rpm>0.00</rpm>
</extensions>
</trkpt>
<trkpt lat="63.943843842" lon="-20.775165558">
<ele>43.949219</ele>
<time>2012-07-27T15:39:48Z</time>
<speed>5.820000</speed>
<extensions>
<speed>5.8</speed>
<temp>0.00</temp>
<bpm>0</bpm>
<rpm>0.00</rpm>
</extensions>
</trkpt>
<trkpt lat="63.943756104" lon="-20.775741577">
<ele>43.110352</ele>
<time>2012-07-27T15:39:53Z</time>
<speed>6.290000</speed>
<extensions>
<speed>6.3</speed>
<temp>0.00</temp>
<bpm>0</bpm>
<rpm>0.00</rpm>
</extensions>
</trkpt>
<trkpt lat="63.943660736" lon="-20.776376724">
<ele>41.291016</ele>
<time>2012-07-27T15:39:58Z</time>
<speed>6.700000</speed>
<extensions>
<speed>6.7</speed>
<temp>0.00</temp>
<bpm>0</bpm>
<rpm>0.00</rpm>
</extensions>
</trkpt>
<trkpt lat="63.943576813" lon="-20.777048111">
<ele>41.697266</ele>
<time>2012-07-27T15:40:03Z</time>
<speed>6.970000</speed>
<extensions>
<speed>7.0</speed>
<temp>0.00</temp>
<bpm>0</bpm>
<rpm>0.00</rpm>
</extensions>
</trkpt>
<trkpt lat="63.943489075" lon="-20.777753830">
<ele>44.635742</ele>
<time>2012-07-27T15:40:08Z</time>
<speed>7.480000</speed>
<extensions>
<speed>7.5</speed>
<temp>0.00</temp>
<bpm>0</bpm>
<rpm>0.00</rpm>
</extensions>
</trkpt>
<trkpt lat="63.943408966" lon="-20.778486252">
<ele>42.834961</ele>
<time>2012-07-27T15:40:13Z</time>
<speed>6.920000</speed>
<extensions>
<speed>6.9</speed>
<temp>0.00</temp>
<bpm>0</bpm>
<rpm>0.00</rpm>
</extensions>
</trkpt>
<trkpt lat="63.943351746" lon="-20.779178619">
<ele>43.727539</ele>
<time>2012-07-27T15:40:18Z</time>
<speed>6.900000</speed>
<extensions>
<speed>6.9</speed>
<temp>0.00</temp>
<bpm>0</bpm>
<rpm>0.00</rpm>
</extensions>
</trkpt>
<trkpt lat="63.943290710" lon="-20.779876709">
<ele>43.286133</ele>
<time>2012-07-27T15:40:23Z</time>
<speed>6.610000</speed>
<extensions>
<speed>6.6</speed>
<temp>0.00</temp>
<bpm>0</bpm>
<rpm>0.00</rpm>
</extensions>
</trkpt>
<trkpt lat="63.943248749" lon="-20.780492783">
<ele>43.873047</ele>
<time>2012-07-27T15:40:28Z</time>
<speed>5.840000</speed>
<extensions>
<speed>5.8</speed>
<temp>0.00</temp>
<bpm>0</bpm>
<rpm>0.00</rpm>
</extensions>
</trkpt>
<trkpt lat="63.943210602" lon="-20.781110764">
<ele>45.210938</ele>
<time>2012-07-27T15:40:33Z</time>
<speed>6.490000</speed>
<extensions>
<speed>6.5</speed>
<temp>0.00</temp>
<bpm>0</bpm>
<rpm>0.00</rpm>
</extensions>
</trkpt>
<trkpt lat="63.943176270" lon="-20.781806946">
<ele>44.229492</ele>
<time>2012-07-27T15:40:38Z</time>
<speed>6.900000</speed>
<extensions>
<speed>6.9</speed>
<temp>0.00</temp>
<bpm>0</bpm>
<rpm>0.00</rpm>
</extensions>
</trkpt>
<trkpt lat="63.943149567" lon="-20.782491684">
<ele>46.329102</ele>
<time>2012-07-27T15:40:43Z</time>
<speed>6.430000</speed>
<extensions>
<speed>6.4</speed>
<temp>0.00</temp>
<bpm>0</bpm>
<rpm>0.00</rpm>
</extensions>
</trkpt>
<trkpt lat="63.943130493" lon="-20.783166885">
<ele>46.095703</ele>
<time>2012-07-27T15:40:48Z</time>
<speed>6.760000</speed>
<extensions>
<speed>6.8</speed>
<temp>0.00</temp>
<bpm>0</bpm>
<rpm>0.00</rpm>
</extensions>
</trkpt>
<trkpt lat="63.943107605" lon="-20.783863068">
<ele>46.921875</ele>
<time>2012-07-27T15:40:53Z</time>
<speed>6.630000</speed>
<extensions>
<speed>6.6</speed>
<temp>0.00</temp>
<bpm>0</bpm>
<rpm>0.00</rpm>
</extensions>
</trkpt>
<trkpt lat="63.943099976" lon="-20.784500122">
<ele>49.320313</ele>
<time>2012-07-27T15:40:58Z</time>
<speed>5.990000</speed>
<extensions>
<speed>6.0</speed>
<temp>0.00</temp>
<bpm>0</bpm>
<rpm>0.00</rpm>
</extensions>
</trkpt>
<trkpt lat="63.943103790" lon="-20.785139084">
<ele>48.469727</ele>
<time>2012-07-27T15:41:03Z</time>
<speed>6.590000</speed>
<extensions>
<speed>6.6</speed>
<temp>0.00</temp>
<bpm>0</bpm>
<rpm>0.00</rpm>
</extensions>
</trkpt>
<trkpt lat="63.943092346" lon="-20.785816193">
<ele>48.578125</ele>
<time>2012-07-27T15:41:08Z</time>
<speed>6.610000</speed>
<extensions>
<speed>6.6</speed>
<temp>0.00</temp>
<bpm>0</bpm>
<rpm>0.00</rpm>
</extensions>
</trkpt>
<trkpt lat="63.943088531" lon="-20.786462784">
<ele>51.001953</ele>
<time>2012-07-27T15:41:13Z</time>
<speed>5.930000</speed>
<extensions>
<speed>5.9</speed>
<temp>0.00</temp>
<bpm>0</bpm>
<rpm>0.00</rpm>
</extensions>
</trkpt>
<trkpt lat="63.943084717" lon="-20.787094116">
<ele>51.583984</ele>
<time>2012-07-27T15:41:18Z</time>
<speed>6.320000</speed>
<extensions>
<speed>6.3</speed>
<temp>0.00</temp>
<bpm>0</bpm>
<rpm>0.00</rpm>
</extensions>
</trkpt>
<trkpt lat="63.943077087" lon="-20.787736893">
<ele>50.867188</ele>
<time>2012-07-27T15:41:23Z</time>
<speed>6.310000</speed>
<extensions>
<speed>6.3</speed>
<temp>0.00</temp>
<bpm>0</bpm>
<rpm>0.00</rpm>
</extensions>
</trkpt>
<trkpt lat="63.943065643" lon="-20.788389206">
<ele>50.062500</ele>
<time>2012-07-27T15:41:28Z</time>
<speed>6.290000</speed>
<extensions>
<speed>6.3</speed>
<temp>0.00</temp>
<bpm>0</bpm>
<rpm>0.00</rpm>
</extensions>
</trkpt>
<trkpt lat="63.943058014" lon="-20.789009094">
<ele>49.742188</ele>
<time>2012-07-27T15:41:33Z</time>
<speed>5.900000</speed>
<extensions>
<speed>5.9</speed>
<temp>0.00</temp>
<bpm>0</bpm>
<rpm>0.00</rpm>
</extensions>
</trkpt>
<trkpt lat="63.943058014" lon="-20.789524078">
<ele>48.436523</ele>
<time>2012-07-27T15:41:38Z</time>
<speed>4.360000</speed>
<extensions>
<speed>4.4</speed>
<temp>0.00</temp>
<bpm>0</bpm>
<rpm>0.00</rpm>
</extensions>
</trkpt>
<trkpt lat="63.943050385" lon="-20.789915085">
<ele>48.343750</ele>
<time>2012-07-27T15:41:43Z</time>
<speed>3.280000</speed>
<extensions>
<speed>3.3</speed>
<temp>0.00</temp>
<bpm>0</bpm>
<rpm>0.00</rpm>
</extensions>
</trkpt>
<trkpt lat="63.943050385" lon="-20.790185928">
<ele>48.719727</ele>
<time>2012-07-27T15:41:48Z</time>
<speed>2.270000</speed>
<extensions>
<speed>2.3</speed>
<temp>0.00</temp>
<bpm>0</bpm>
<rpm>0.00</rpm>
</extensions>
</trkpt>
<trkpt lat="63.943050385" lon="-20.790464401">
<ele>51.651367</ele>
<time>2012-07-27T15:41:53Z</time>
<speed>3.230000</speed>
<extensions>
<speed>3.2</speed>
<temp>0.00</temp>
<bpm>0</bpm>
<rpm>0.00</rpm>
</extensions>
</trkpt>
<trkpt lat="63.943046570" lon="-20.790763855">
<ele>50.507813</ele>
<time>2012-07-27T15:41:58Z</time>
<speed>2.560000</speed>
<extensions>
<speed>2.6</speed>
<temp>0.00</temp>
<bpm>0</bpm>
<rpm>0.00</rpm>
</extensions>
</trkpt>
<trkpt lat="63.943046570" lon="-20.790821075">
<ele>49.477539</ele>
<time>2012-07-27T15:42:03Z</time>
<extensions>
<speed>0.0</speed>
<temp>0.00</temp>
<bpm>0</bpm>
<rpm>0.00</rpm>
</extensions>
</trkpt>
<trkpt lat="63.943046570" lon="-20.790819168">
<ele>49.377930</ele>
<time>2012-07-27T15:42:08Z</time>
<speed>0.010000</speed>
<extensions>
<speed>0.0</speed>
<temp>0.00</temp>
<bpm>0</bpm>
<rpm>0.00</rpm>
</extensions>
</trkpt>
<trkpt lat="63.943046570" lon="-20.790819168">
<ele>49.347656</ele>
<time>2012-07-27T15:42:13Z</time>
<speed>0.020000</speed>
<extensions>
<speed>0.0</speed>
<temp>0.00</temp>
<bpm>0</bpm>
<rpm>0.00</rpm>
</extensions>
</trkpt>
<trkpt lat="63.943046570" lon="-20.790819168">
<ele>49.356445</ele>
<time>2012-07-27T15:42:18Z</time>
<speed>0.010000</speed>
<extensions>
<speed>0.0</speed>
<temp>0.00</temp>
<bpm>0</bpm>
<rpm>0.00</rpm>
</extensions>
</trkpt>
<trkpt lat="63.943046570" lon="-20.790817261">
<ele>49.378906</ele>
<time>2012-07-27T15:42:23Z</time>
<speed>0.020000</speed>
<extensions>
<speed>0.0</speed>
<temp>0.00</temp>
<bpm>0</bpm>
<rpm>0.00</rpm>
</extensions>
</trkpt>
<trkpt lat="63.943046570" lon="-20.790819168">
<ele>49.400391</ele>
<time>2012-07-27T15:42:28Z</time>
<speed>0.020000</speed>
<extensions>
<speed>0.0</speed>
<temp>0.00</temp>
<bpm>0</bpm>
<rpm>0.00</rpm>
</extensions>
</trkpt>
<trkpt lat="63.943050385" lon="-20.790817261">
<ele>49.401367</ele>
<time>2012-07-27T15:42:33Z</time>
<speed>0.020000</speed>
<extensions>
<speed>0.0</speed>
<temp>0.00</temp>
<bpm>0</bpm>
<rpm>0.00</rpm>
</extensions>
</trkpt>
<trkpt lat="63.943046570" lon="-20.790819168">
<ele>49.386719</ele>
<time>2012-07-27T15:42:38Z</time>
<extensions>
<speed>0.0</speed>
<temp>0.00</temp>
<bpm>0</bpm>
<rpm>0.00</rpm>
</extensions>
</trkpt>
<trkpt lat="63.943046570" lon="-20.790819168">
<ele>49.380859</ele>
<time>2012-07-27T15:42:43Z</time>
<extensions>
<speed>0.0</speed>
<temp>0.00</temp>
<bpm>0</bpm>
<rpm>0.00</rpm>
</extensions>
</trkpt>
<trkpt lat="63.943050385" lon="-20.790819168">
<ele>49.375977</ele>
<time>2012-07-27T15:42:48Z</time>
<speed>0.010000</speed>
<extensions>
<speed>0.0</speed>
<temp>0.00</temp>
<bpm>0</bpm>
<rpm>0.00</rpm>
</extensions>
</trkpt>
<trkpt lat="63.943050385" lon="-20.790819168">
<ele>49.374023</ele>
<time>2012-07-27T15:42:53Z</time>
<speed>0.020000</speed>
<extensions>
<speed>0.0</speed>
<temp>0.00</temp>
<bpm>0</bpm>
<rpm>0.00</rpm>
</extensions>
</trkpt>
<trkpt lat="63.943050385" lon="-20.790819168">
<ele>49.369141</ele>
<time>2012-07-27T15:42:58Z</time>
<extensions>
<speed>0.0</speed>
<temp>0.00</temp>
<bpm>0</bpm>
<rpm>0.00</rpm>
</extensions>
</trkpt>
<trkpt lat="63.943035126" lon="-20.790878296">
<ele>49.117188</ele>
<time>2012-07-27T15:43:03Z</time>
<speed>1.120000</speed>
<extensions>
<speed>1.1</speed>
<temp>0.00</temp>
<bpm>0</bpm>
<rpm>0.00</rpm>
</extensions>
</trkpt>
<trkpt lat="63.943027496" lon="-20.791212082">
<ele>49.221680</ele>
<time>2012-07-27T15:43:08Z</time>
<speed>4.530000</speed>
<extensions>
<speed>4.5</speed>
<temp>0.00</temp>
<bpm>0</bpm>
<rpm>0.00</rpm>
</extensions>
</trkpt>
<trkpt lat="63.943027496" lon="-20.791730881">
<ele>48.913086</ele>
<time>2012-07-27T15:43:13Z</time>
<speed>5.450000</speed>
<extensions>
<speed>5.5</speed>
<temp>0.00</temp>
<bpm>0</bpm>
<rpm>0.00</rpm>
</extensions>
</trkpt>
<trkpt lat="63.943023682" lon="-20.792320251">
<ele>49.096680</ele>
<time>2012-07-27T15:43:18Z</time>
<speed>5.760000</speed>
<extensions>
<speed>5.8</speed>
<temp>0.00</temp>
<bpm>0</bpm>
<rpm>0.00</rpm>
</extensions>
</trkpt>
<trkpt lat="63.943012238" lon="-20.792900085">
<ele>48.554688</ele>
<time>2012-07-27T15:43:23Z</time>
<speed>5.850000</speed>
<extensions>
<speed>5.8</speed>
<temp>0.00</temp>
<bpm>0</bpm>
<rpm>0.00</rpm>
</extensions>
</trkpt>
<trkpt lat="63.943008423" lon="-20.793493271">
<ele>46.208984</ele>
<time>2012-07-27T15:43:28Z</time>
<speed>5.640000</speed>
<extensions>
<speed>5.6</speed>
<temp>0.00</temp>
<bpm>0</bpm>
<rpm>0.00</rpm>
</extensions>
</trkpt>
<trkpt lat="63.942996979" lon="-20.794052124">
<ele>45.192383</ele>
<time>2012-07-27T15:43:33Z</time>
<speed>5.560000</speed>
<extensions>
<speed>5.6</speed>
<temp>0.00</temp>
<bpm>0</bpm>
<rpm>0.00</rpm>
</extensions>
</trkpt>
<trkpt lat="63.943004608" lon="-20.794614792">
<ele>44.061523</ele>
<time>2012-07-27T15:43:38Z</time>
<speed>5.020000</speed>
<extensions>
<speed>5.0</speed>
<temp>0.00</temp>
<bpm>0</bpm>
<rpm>0.00</rpm>
</extensions>
</trkpt>
<trkpt lat="63.942993164" lon="-20.795089722">
<ele>44.169922</ele>
<time>2012-07-27T15:43:43Z</time>
<speed>4.560000</speed>
<extensions>
<speed>4.6</speed>
<temp>0.00</temp>
<bpm>0</bpm>
<rpm>0.00</rpm>
</extensions>
</trkpt>
<trkpt lat="63.942993164" lon="-20.795568466">
<ele>43.337891</ele>
<time>2012-07-27T15:43:48Z</time>
<speed>4.880000</speed>
<extensions>
<speed>4.9</speed>
<temp>0.00</temp>
<bpm>0</bpm>
<rpm>0.00</rpm>
</extensions>
</trkpt>
<trkpt lat="63.942981720" lon="-20.796121597">
<ele>42.936523</ele>
<time>2012-07-27T15:43:53Z</time>
<speed>5.820000</speed>
<extensions>
<speed>5.8</speed>
<temp>0.00</temp>
<bpm>0</bpm>
<rpm>0.00</rpm>
</extensions>
</trkpt>
<trkpt lat="63.942981720" lon="-20.796751022">
<ele>46.851563</ele>
<time>2012-07-27T15:43:58Z</time>
<speed>6.340000</speed>
<extensions>
<speed>6.3</speed>
<temp>0.00</temp>
<bpm>0</bpm>
<rpm>0.00</rpm>
</extensions>
</trkpt>
<trkpt lat="63.942970276" lon="-20.797399521">
<ele>46.606445</ele>
<time>2012-07-27T15:44:03Z</time>
<speed>6.400000</speed>
<extensions>
<speed>6.4</speed>
<temp>0.00</temp>
<bpm>0</bpm>
<rpm>0.00</rpm>
</extensions>
</trkpt>
<trkpt lat="63.942962646" lon="-20.798063278">
<ele>46.567383</ele>
<time>2012-07-27T15:44:08Z</time>
<speed>6.520000</speed>
<extensions>
<speed>6.5</speed>
<temp>0.00</temp>
<bpm>0</bpm>
<rpm>0.00</rpm>
</extensions>
</trkpt>
<trkpt lat="63.942955017" lon="-20.798727036">
<ele>46.496094</ele>
<time>2012-07-27T15:44:13Z</time>
<speed>6.610000</speed>
<extensions>
<speed>6.6</speed>
<temp>0.00</temp>
<bpm>0</bpm>
<rpm>0.00</rpm>
</extensions>
</trkpt>
<trkpt lat="63.942947388" lon="-20.799402237">
<ele>45.893555</ele>
<time>2012-07-27T15:44:18Z</time>
<speed>6.760000</speed>
<extensions>
<speed>6.8</speed>
<temp>0.00</temp>
<bpm>0</bpm>
<rpm>0.00</rpm>
</extensions>
</trkpt>
<trkpt lat="63.942939758" lon="-20.800106049">
<ele>45.333984</ele>
<time>2012-07-27T15:44:23Z</time>
<speed>6.900000</speed>
<extensions>
<speed>6.9</speed>
<temp>0.00</temp>
<bpm>0</bpm>
<rpm>0.00</rpm>
</extensions>
</trkpt>
<trkpt lat="63.942932129" lon="-20.800825119">
<ele>44.954102</ele>
<time>2012-07-27T15:44:28Z</time>
<speed>7.110000</speed>
<extensions>
<speed>7.1</speed>
<temp>0.00</temp>
<bpm>0</bpm>
<rpm>0.00</rpm>
</extensions>
</trkpt>
<trkpt lat="63.942920685" lon="-20.801563263">
<ele>45.270508</ele>
<time>2012-07-27T15:44:33Z</time>
<speed>7.310000</speed>
<extensions>
<speed>7.3</speed>
<temp>0.00</temp>
<bpm>0</bpm>
<rpm>0.00</rpm>
</extensions>
</trkpt>
<trkpt lat="63.942916870" lon="-20.802312851">
<ele>45.291016</ele>
<time>2012-07-27T15:44:38Z</time>
<speed>7.460000</speed>
<extensions>
<speed>7.5</speed>
<temp>0.00</temp>
<bpm>0</bpm>
<rpm>0.00</rpm>
</extensions>
</trkpt>
<trkpt lat="63.942909241" lon="-20.803075790">
<ele>44.709961</ele>
<time>2012-07-27T15:44:43Z</time>
<speed>7.030000</speed>
<extensions>
<speed>7.0</speed>
<temp>0.00</temp>
<bpm>0</bpm>
<rpm>0.00</rpm>
</extensions>
</trkpt>
<trkpt lat="63.942905426" lon="-20.803770065">
<ele>43.801758</ele>
<time>2012-07-27T15:44:48Z</time>
<speed>6.970000</speed>
<extensions>
<speed>7.0</speed>
<temp>0.00</temp>
<bpm>0</bpm>
<rpm>0.00</rpm>
</extensions>
</trkpt>
<trkpt lat="63.942893982" lon="-20.804481506">
<ele>42.958008</ele>
<time>2012-07-27T15:44:53Z</time>
<speed>7.140000</speed>
<extensions>
<speed>7.1</speed>
<temp>0.00</temp>
<bpm>0</bpm>
<rpm>0.00</rpm>
</extensions>
</trkpt>
<trkpt lat="63.942878723" lon="-20.805223465">
<ele>42.647461</ele>
<time>2012-07-27T15:44:58Z</time>
<speed>7.270000</speed>
<extensions>
<speed>7.3</speed>
<temp>0.00</temp>
<bpm>0</bpm>
<rpm>0.00</rpm>
</extensions>
</trkpt>
<trkpt lat="63.942871094" lon="-20.805940628">
<ele>42.599609</ele>
<time>2012-07-27T15:45:03Z</time>
<speed>6.520000</speed>
<extensions>
<speed>6.5</speed>
<temp>0.00</temp>
<bpm>0</bpm>
<rpm>0.00</rpm>
</extensions>
</trkpt>
<trkpt lat="63.942863464" lon="-20.806583405">
<ele>41.968750</ele>
<time>2012-07-27T15:45:08Z</time>
<speed>6.410000</speed>
<extensions>
<speed>6.4</speed>
<temp>0.00</temp>
<bpm>0</bpm>
<rpm>0.00</rpm>
</extensions>
</trkpt>
<trkpt lat="63.942859650" lon="-20.807250977">
<ele>42.007813</ele>
<time>2012-07-27T15:45:13Z</time>
<speed>6.780000</speed>
<extensions>
<speed>6.8</speed>
<temp>0.00</temp>
<bpm>0</bpm>
<rpm>0.00</rpm>
</extensions>
</trkpt>
<trkpt lat="63.942852020" lon="-20.807941437">
<ele>41.444336</ele>
<time>2012-07-27T15:45:18Z</time>
<speed>6.650000</speed>
<extensions>
<speed>6.7</speed>
<temp>0.00</temp>
<bpm>0</bpm>
<rpm>0.00</rpm>
</extensions>
</trkpt>
<trkpt lat="63.942848206" lon="-20.808639526">
<ele>41.567383</ele>
<time>2012-07-27T15:45:23Z</time>
<speed>6.880000</speed>
<extensions>
<speed>6.9</speed>
<temp>0.00</temp>
<bpm>0</bpm>
<rpm>0.00</rpm>
</extensions>
</trkpt>
<trkpt lat="63.942840576" lon="-20.809276581">
<ele>41.618164</ele>
<time>2012-07-27T15:45:28Z</time>
<speed>5.760000</speed>
<extensions>
<speed>5.8</speed>
<temp>0.00</temp>
<bpm>0</bpm>
<rpm>0.00</rpm>
</extensions>
</trkpt>
<trkpt lat="63.942836761" lon="-20.809854507">
<ele>41.336914</ele>
<time>2012-07-27T15:45:33Z</time>
<speed>5.890000</speed>
<extensions>
<speed>5.9</speed>
<temp>0.00</temp>
<bpm>0</bpm>
<rpm>0.00</rpm>
</extensions>
</trkpt>
<trkpt lat="63.942821503" lon="-20.810462952">
<ele>38.373047</ele>
<time>2012-07-27T15:45:38Z</time>
<speed>6.000000</speed>
<extensions>
<speed>6.0</speed>
<temp>0.00</temp>
<bpm>0</bpm>
<rpm>0.00</rpm>
</extensions>
</trkpt>
<trkpt lat="63.942813873" lon="-20.811111450">
<ele>38.116211</ele>
<time>2012-07-27T15:45:43Z</time>
<speed>6.460000</speed>
<extensions>
<speed>6.5</speed>
<temp>0.00</temp>
<bpm>0</bpm>
<rpm>0.00</rpm>
</extensions>
</trkpt>
<trkpt lat="63.942802429" lon="-20.811775208">
<ele>36.842773</ele>
<time>2012-07-27T15:45:48Z</time>
<speed>6.620000</speed>
<extensions>
<speed>6.6</speed>
<temp>0.00</temp>
<bpm>0</bpm>
<rpm>0.00</rpm>
</extensions>
</trkpt>
<trkpt lat="63.942802429" lon="-20.812475204">
<ele>35.980469</ele>
<time>2012-07-27T15:45:53Z</time>
<speed>6.980000</speed>
<extensions>
<speed>7.0</speed>
<temp>0.00</temp>
<bpm>0</bpm>
<rpm>0.00</rpm>
</extensions>
</trkpt>
<trkpt lat="63.942798615" lon="-20.813190460">
<ele>35.477539</ele>
<time>2012-07-27T15:45:58Z</time>
<speed>7.050000</speed>
<extensions>
<speed>7.0</speed>
<temp>0.00</temp>
<bpm>0</bpm>
<rpm>0.00</rpm>
</extensions>
</trkpt>
<trkpt lat="63.942794800" lon="-20.813903809">
<ele>35.452148</ele>
<time>2012-07-27T15:46:03Z</time>
<speed>6.810000</speed>
<extensions>
<speed>6.8</speed>
<temp>0.00</temp>
<bpm>0</bpm>
<rpm>0.00</rpm>
</extensions>
</trkpt>
<trkpt lat="63.942787170" lon="-20.814548492">
<ele>36.143555</ele>
<time>2012-07-27T15:46:08Z</time>
<speed>5.770000</speed>
<extensions>
<speed>5.8</speed>
<temp>0.00</temp>
<bpm>0</bpm>
<rpm>0.00</rpm>
</extensions>
</trkpt>
<trkpt lat="63.942768097" lon="-20.815139771">
<ele>37.107422</ele>
<time>2012-07-27T15:46:13Z</time>
<speed>5.850000</speed>
<extensions>
<speed>5.8</speed>
<temp>0.00</temp>
<bpm>0</bpm>
<rpm>0.00</rpm>
</extensions>
</trkpt>
<trkpt lat="63.942760468" lon="-20.815755844">
<ele>39.317383</ele>
<time>2012-07-27T15:46:18Z</time>
<speed>6.070000</speed>
<extensions>
<speed>6.1</speed>
<temp>0.00</temp>
<bpm>0</bpm>
<rpm>0.00</rpm>
</extensions>
</trkpt>
<trkpt lat="63.942756653" lon="-20.816377640">
<ele>38.094727</ele>
<time>2012-07-27T15:46:23Z</time>
<speed>6.320000</speed>
<extensions>
<speed>6.3</speed>
<temp>0.00</temp>
<bpm>0</bpm>
<rpm>0.00</rpm>
</extensions>
</trkpt>
<trkpt lat="63.942756653" lon="-20.817033768">
<ele>37.035156</ele>
<time>2012-07-27T15:46:28Z</time>
<speed>6.470000</speed>
<extensions>
<speed>6.5</speed>
<temp>0.00</temp>
<bpm>0</bpm>
<rpm>0.00</rpm>
</extensions>
</trkpt>
<trkpt lat="63.942749023" lon="-20.817695618">
<ele>36.614258</ele>
<time>2012-07-27T15:46:33Z</time>
<speed>6.670000</speed>
<extensions>
<speed>6.7</speed>
<temp>0.00</temp>
<bpm>0</bpm>
<rpm>0.00</rpm>
</extensions>
</trkpt>
<trkpt lat="63.942741394" lon="-20.818384171">
<ele>36.652344</ele>
<time>2012-07-27T15:46:38Z</time>
<speed>6.710000</speed>
<extensions>
<speed>6.7</speed>
<temp>0.00</temp>
<bpm>0</bpm>
<rpm>0.00</rpm>
</extensions>
</trkpt>
<trkpt lat="63.942737579" lon="-20.819015503">
<ele>36.087891</ele>
<time>2012-07-27T15:46:43Z</time>
<speed>5.650000</speed>
<extensions>
<speed>5.7</speed>
<temp>0.00</temp>
<bpm>0</bpm>
<rpm>0.00</rpm>
</extensions>
</trkpt>
<trkpt lat="63.942737579" lon="-20.819528580">
<ele>36.607422</ele>
<time>2012-07-27T15:46:48Z</time>
<speed>4.770000</speed>
<extensions>
<speed>4.8</speed>
<temp>0.00</temp>
<bpm>0</bpm>
<rpm>0.00</rpm>
</extensions>
</trkpt>
<trkpt lat="63.942741394" lon="-20.820049286">
<ele>36.546875</ele>
<time>2012-07-27T15:46:53Z</time>
<speed>5.370000</speed>
<extensions>
<speed>5.4</speed>
<temp>0.00</temp>
<bpm>0</bpm>
<rpm>0.00</rpm>
</extensions>
</trkpt>
<trkpt lat="63.942737579" lon="-20.820608139">
<ele>36.086914</ele>
<time>2012-07-27T15:46:58Z</time>
<speed>5.700000</speed>
<extensions>
<speed>5.7</speed>
<temp>0.00</temp>
<bpm>0</bpm>
<rpm>0.00</rpm>
</extensions>
</trkpt>
<trkpt lat="63.942726135" lon="-20.821208954">
<ele>38.033203</ele>
<time>2012-07-27T15:47:03Z</time>
<speed>6.290000</speed>
<extensions>
<speed>6.3</speed>
<temp>0.00</temp>
<bpm>0</bpm>
<rpm>0.00</rpm>
</extensions>
</trkpt>
<trkpt lat="63.942710876" lon="-20.821880341">
<ele>38.171875</ele>
<time>2012-07-27T15:47:08Z</time>
<speed>6.600000</speed>
<extensions>
<speed>6.6</speed>
<temp>0.00</temp>
<bpm>0</bpm>
<rpm>0.00</rpm>
</extensions>
</trkpt>
<trkpt lat="63.942722321" lon="-20.822553635">
<ele>38.103516</ele>
<time>2012-07-27T15:47:13Z</time>
<speed>6.860000</speed>
<extensions>
<speed>6.9</speed>
<temp>0.00</temp>
<bpm>0</bpm>
<rpm>0.00</rpm>
</extensions>
</trkpt>
<trkpt lat="63.942741394" lon="-20.823276520">
<ele>37.199219</ele>
<time>2012-07-27T15:47:18Z</time>
<speed>7.130000</speed>
<extensions>
<speed>7.1</speed>
<temp>0.00</temp>
<bpm>0</bpm>
<rpm>0.00</rpm>
</extensions>
</trkpt>
<trkpt lat="63.942771912" lon="-20.823963165">
<ele>37.032227</ele>
<time>2012-07-27T15:47:23Z</time>
<speed>6.360000</speed>
<extensions>
<speed>6.4</speed>
<temp>0.00</temp>
<bpm>0</bpm>
<rpm>0.00</rpm>
</extensions>
</trkpt>
<trkpt lat="63.942806244" lon="-20.824634552">
<ele>36.673828</ele>
<time>2012-07-27T15:47:28Z</time>
<speed>6.870000</speed>
<extensions>
<speed>6.9</speed>
<temp>0.00</temp>
<bpm>0</bpm>
<rpm>0.00</rpm>
</extensions>
</trkpt>
<trkpt lat="63.942867279" lon="-20.825319290">
<ele>36.600586</ele>
<time>2012-07-27T15:47:33Z</time>
<speed>6.470000</speed>
<extensions>
<speed>6.5</speed>
<temp>0.00</temp>
<bpm>0</bpm>
<rpm>0.00</rpm>
</extensions>
</trkpt>
<trkpt lat="63.942913055" lon="-20.825902939">
<ele>36.589844</ele>
<time>2012-07-27T15:47:38Z</time>
<speed>5.240000</speed>
<extensions>
<speed>5.2</speed>
<temp>0.00</temp>
<bpm>0</bpm>
<rpm>0.00</rpm>
</extensions>
</trkpt>
<trkpt lat="63.942955017" lon="-20.826454163">
<ele>36.574219</ele>
<time>2012-07-27T15:47:43Z</time>
<speed>5.790000</speed>
<extensions>
<speed>5.8</speed>
<temp>0.00</temp>
<bpm>0</bpm>
<rpm>0.00</rpm>
</extensions>
</trkpt>
<trkpt lat="63.943000793" lon="-20.827083588">
<ele>36.757813</ele>
<time>2012-07-27T15:47:48Z</time>
<speed>6.260000</speed>
<extensions>
<speed>6.3</speed>
<temp>0.00</temp>
<bpm>0</bpm>
<rpm>0.00</rpm>
</extensions>
</trkpt>
<trkpt lat="63.943046570" lon="-20.827732086">
<ele>36.938477</ele>
<time>2012-07-27T15:47:53Z</time>
<speed>6.630000</speed>
<extensions>
<speed>6.6</speed>
<temp>0.00</temp>
<bpm>0</bpm>
<rpm>0.00</rpm>
</extensions>
</trkpt>
<trkpt lat="63.943107605" lon="-20.828409195">
<ele>36.881836</ele>
<time>2012-07-27T15:47:58Z</time>
<speed>6.940000</speed>
<extensions>
<speed>6.9</speed>
<temp>0.00</temp>
<bpm>0</bpm>
<rpm>0.00</rpm>
</extensions>
</trkpt>
<trkpt lat="63.943176270" lon="-20.829114914">
<ele>36.507813</ele>
<time>2012-07-27T15:48:03Z</time>
<speed>7.160000</speed>
<extensions>
<speed>7.2</speed>
<temp>0.00</temp>
<bpm>0</bpm>
<rpm>0.00</rpm>
</extensions>
</trkpt>
<trkpt lat="63.943237305" lon="-20.829778671">
<ele>37.383789</ele>
<time>2012-07-27T15:48:08Z</time>
<speed>6.270000</speed>
<extensions>
<speed>6.3</speed>
<temp>0.00</temp>
<bpm>0</bpm>
<rpm>0.00</rpm>
</extensions>
</trkpt>
<trkpt lat="63.943279266" lon="-20.830430984">
<ele>37.747070</ele>
<time>2012-07-27T15:48:13Z</time>
<speed>6.550000</speed>
<extensions>
<speed>6.5</speed>
<temp>0.00</temp>
<bpm>0</bpm>
<rpm>0.00</rpm>
</extensions>
</trkpt>
<trkpt lat="63.943317413" lon="-20.831062317">
<ele>37.767578</ele>
<time>2012-07-27T15:48:18Z</time>
<speed>5.720000</speed>
<extensions>
<speed>5.7</speed>
<temp>0.00</temp>
<bpm>0</bpm>
<rpm>0.00</rpm>
</extensions>
</trkpt>
<trkpt lat="63.943359375" lon="-20.831655502">
<ele>37.712891</ele>
<time>2012-07-27T15:48:23Z</time>
<speed>5.970000</speed>
<extensions>
<speed>6.0</speed>
<temp>0.00</temp>
<bpm>0</bpm>
<rpm>0.00</rpm>
</extensions>
</trkpt>
<trkpt lat="63.943405151" lon="-20.832269669">
<ele>37.754883</ele>
<time>2012-07-27T15:48:28Z</time>
<speed>6.060000</speed>
<extensions>
<speed>6.1</speed>
<temp>0.00</temp>
<bpm>0</bpm>
<rpm>0.00</rpm>
</extensions>
</trkpt>
<trkpt lat="63.943443298" lon="-20.832830429">
<ele>37.964844</ele>
<time>2012-07-27T15:48:33Z</time>
<speed>5.400000</speed>
<extensions>
<speed>5.4</speed>
<temp>0.00</temp>
<bpm>0</bpm>
<rpm>0.00</rpm>
</extensions>
</trkpt>
<trkpt lat="63.943473816" lon="-20.833408356">
<ele>37.748047</ele>
<time>2012-07-27T15:48:38Z</time>
<speed>5.920000</speed>
<extensions>
<speed>5.9</speed>
<temp>0.00</temp>
<bpm>0</bpm>
<rpm>0.00</rpm>
</extensions>
</trkpt>
<trkpt lat="63.943504333" lon="-20.833961487">
<ele>37.916992</ele>
<time>2012-07-27T15:48:43Z</time>
<speed>5.060000</speed>
<extensions>
<speed>5.1</speed>
<temp>0.00</temp>
<bpm>0</bpm>
<rpm>0.00</rpm>
</extensions>
</trkpt>
<trkpt lat="63.943542480" lon="-20.834409714">
<ele>37.742188</ele>
<time>2012-07-27T15:48:48Z</time>
<speed>4.160000</speed>
<extensions>
<speed>4.2</speed>
<temp>0.00</temp>
<bpm>0</bpm>
<rpm>0.00</rpm>
</extensions>
</trkpt>
<trkpt lat="63.943580627" lon="-20.834840775">
<ele>36.604492</ele>
<time>2012-07-27T15:48:53Z</time>
<speed>5.080000</speed>
<extensions>
<speed>5.1</speed>
<temp>0.00</temp>
<bpm>0</bpm>
<rpm>0.00</rpm>
</extensions>
</trkpt>
<trkpt lat="63.943607330" lon="-20.835409164">
<ele>36.244141</ele>
<time>2012-07-27T15:48:58Z</time>
<speed>5.930000</speed>
<extensions>
<speed>5.9</speed>
<temp>0.00</temp>
<bpm>0</bpm>
<rpm>0.00</rpm>
</extensions>
</trkpt>
<trkpt lat="63.943622589" lon="-20.836059570">
<ele>35.682617</ele>
<time>2012-07-27T15:49:03Z</time>
<speed>6.460000</speed>
<extensions>
<speed>6.5</speed>
<temp>0.00</temp>
<bpm>0</bpm>
<rpm>0.00</rpm>
</extensions>
</trkpt>
<trkpt lat="63.943653107" lon="-20.836692810">
<ele>35.081055</ele>
<time>2012-07-27T15:49:08Z</time>
<speed>5.830000</speed>
<extensions>
<speed>5.8</speed>
<temp>0.00</temp>
<bpm>0</bpm>
<rpm>0.00</rpm>
</extensions>
</trkpt>
<trkpt lat="63.943672180" lon="-20.837249756">
<ele>35.039063</ele>
<time>2012-07-27T15:49:13Z</time>
<speed>5.080000</speed>
<extensions>
<speed>5.1</speed>
<temp>0.00</temp>
<bpm>0</bpm>
<rpm>0.00</rpm>
</extensions>
</trkpt>
<trkpt lat="63.943683624" lon="-20.837793350">
<ele>34.980469</ele>
<time>2012-07-27T15:49:18Z</time>
<speed>5.650000</speed>
<extensions>
<speed>5.7</speed>
<temp>0.00</temp>
<bpm>0</bpm>
<rpm>0.00</rpm>
</extensions>
</trkpt>
<trkpt lat="63.943691254" lon="-20.838390350">
<ele>35.126953</ele>
<time>2012-07-27T15:49:23Z</time>
<speed>6.110000</speed>
<extensions>
<speed>6.1</speed>
<temp>0.00</temp>
<bpm>0</bpm>
<rpm>0.00</rpm>
</extensions>
</trkpt>
<trkpt lat="63.943710327" lon="-20.839052200">
<ele>35.029297</ele>
<time>2012-07-27T15:49:28Z</time>
<speed>6.830000</speed>
<extensions>
<speed>6.8</speed>
<temp>0.00</temp>
<bpm>0</bpm>
<rpm>0.00</rpm>
</extensions>
</trkpt>
<trkpt lat="63.943721771" lon="-20.839769363">
<ele>35.023438</ele>
<time>2012-07-27T15:49:33Z</time>
<speed>7.020000</speed>
<extensions>
<speed>7.0</speed>
<temp>0.00</temp>
<bpm>0</bpm>
<rpm>0.00</rpm>
</extensions>
</trkpt>
<trkpt lat="63.943737030" lon="-20.840513229">
<ele>34.899414</ele>
<time>2012-07-27T15:49:38Z</time>
<speed>7.100000</speed>
<extensions>
<speed>7.1</speed>
<temp>0.00</temp>
<bpm>0</bpm>
<rpm>0.00</rpm>
</extensions>
</trkpt>
<trkpt lat="63.943748474" lon="-20.841178894">
<ele>34.615234</ele>
<time>2012-07-27T15:49:43Z</time>
<speed>6.150000</speed>
<extensions>
<speed>6.1</speed>
<temp>0.00</temp>
<bpm>0</bpm>
<rpm>0.00</rpm>
</extensions>
</trkpt>
<trkpt lat="63.943740845" lon="-20.841836929">
<ele>34.931641</ele>
<time>2012-07-27T15:49:48Z</time>
<speed>6.710000</speed>
<extensions>
<speed>6.7</speed>
<temp>0.00</temp>
<bpm>0</bpm>
<rpm>0.00</rpm>
</extensions>
</trkpt>
<trkpt lat="63.943748474" lon="-20.842556000">
<ele>34.875000</ele>
<time>2012-07-27T15:49:53Z</time>
<speed>7.240000</speed>
<extensions>
<speed>7.2</speed>
<temp>0.00</temp>
<bpm>0</bpm>
<rpm>0.00</rpm>
</extensions>
</trkpt>
<trkpt lat="63.943748474" lon="-20.843261719">
<ele>34.571289</ele>
<time>2012-07-27T15:49:58Z</time>
<speed>6.590000</speed>
<extensions>
<speed>6.6</speed>
<temp>0.00</temp>
<bpm>0</bpm>
<rpm>0.00</rpm>
</extensions>
</trkpt>
<trkpt lat="63.943740845" lon="-20.843868256">
<ele>33.629883</ele>
<time>2012-07-27T15:50:03Z</time>
<speed>5.950000</speed>
<extensions>
<speed>6.0</speed>
<temp>0.00</temp>
<bpm>0</bpm>
<rpm>0.00</rpm>
</extensions>
</trkpt>
<trkpt lat="63.943737030" lon="-20.844501495">
<ele>34.012695</ele>
<time>2012-07-27T15:50:08Z</time>
<speed>6.330000</speed>
<extensions>
<speed>6.3</speed>
<temp>0.00</temp>
<bpm>0</bpm>
<rpm>0.00</rpm>
</extensions>
</trkpt>
<trkpt lat="63.943737030" lon="-20.845142365">
<ele>34.051758</ele>
<time>2012-07-27T15:50:13Z</time>
<speed>6.340000</speed>
<extensions>
<speed>6.3</speed>
<temp>0.00</temp>
<bpm>0</bpm>
<rpm>0.00</rpm>
</extensions>
</trkpt>
<trkpt lat="63.943721771" lon="-20.845834732">
<ele>34.151367</ele>
<time>2012-07-27T15:50:18Z</time>
<speed>7.000000</speed>
<extensions>
<speed>7.0</speed>
<temp>0.00</temp>
<bpm>0</bpm>
<rpm>0.00</rpm>
</extensions>
</trkpt>
<trkpt lat="63.943710327" lon="-20.846548080">
<ele>33.871094</ele>
<time>2012-07-27T15:50:23Z</time>
<speed>7.010000</speed>
<extensions>
<speed>7.0</speed>
<temp>0.00</temp>
<bpm>0</bpm>
<rpm>0.00</rpm>
</extensions>
</trkpt>
<trkpt lat="63.943695068" lon="-20.847232819">
<ele>31.779785</ele>
<time>2012-07-27T15:50:28Z</time>
<speed>6.350000</speed>
<extensions>
<speed>6.4</speed>
<temp>0.00</temp>
<bpm>0</bpm>
<rpm>0.00</rpm>
</extensions>
</trkpt>
<trkpt lat="63.943687439" lon="-20.847852707">
<ele>30.999512</ele>
<time>2012-07-27T15:50:33Z</time>
<speed>5.790000</speed>
<extensions>
<speed>5.8</speed>
<temp>0.00</temp>
<bpm>0</bpm>
<rpm>0.00</rpm>
</extensions>
</trkpt>
<trkpt lat="63.943675995" lon="-20.848505020">
<ele>30.833008</ele>
<time>2012-07-27T15:50:38Z</time>
<speed>6.640000</speed>
<extensions>
<speed>6.6</speed>
<temp>0.00</temp>
<bpm>0</bpm>
<rpm>0.00</rpm>
</extensions>
</trkpt>
<trkpt lat="63.943664551" lon="-20.849184036">
<ele>29.803711</ele>
<time>2012-07-27T15:50:43Z</time>
<speed>6.980000</speed>
<extensions>
<speed>7.0</speed>
<temp>0.00</temp>
<bpm>0</bpm>
<rpm>0.00</rpm>
</extensions>
</trkpt>
<trkpt lat="63.943653107" lon="-20.849880219">
<ele>31.109375</ele>
<time>2012-07-27T15:50:48Z</time>
<speed>6.510000</speed>
<extensions>
<speed>6.5</speed>
<temp>0.00</temp>
<bpm>0</bpm>
<rpm>0.00</rpm>
</extensions>
</trkpt>
<trkpt lat="63.943637848" lon="-20.850522995">
<ele>31.207520</ele>
<time>2012-07-27T15:50:53Z</time>
<speed>6.320000</speed>
<extensions>
<speed>6.3</speed>
<temp>0.00</temp>
<bpm>0</bpm>
<rpm>0.00</rpm>
</extensions>
</trkpt>
<trkpt lat="63.943634033" lon="-20.851190567">
<ele>30.269043</ele>
<time>2012-07-27T15:50:58Z</time>
<speed>6.730000</speed>
<extensions>
<speed>6.7</speed>
<temp>0.00</temp>
<bpm>0</bpm>
<rpm>0.00</rpm>
</extensions>
</trkpt>
<trkpt lat="63.943626404" lon="-20.851867676">
<ele>30.535645</ele>
<time>2012-07-27T15:51:03Z</time>
<speed>6.290000</speed>
<extensions>
<speed>6.3</speed>
<temp>0.00</temp>
<bpm>0</bpm>
<rpm>0.00</rpm>
</extensions>
</trkpt>
<trkpt lat="63.943611145" lon="-20.852455139">
<ele>30.728516</ele>
<time>2012-07-27T15:51:08Z</time>
<speed>5.480000</speed>
<extensions>
<speed>5.5</speed>
<temp>0.00</temp>
<bpm>0</bpm>
<rpm>0.00</rpm>
</extensions>
</trkpt>
<trkpt lat="63.943607330" lon="-20.852983475">
<ele>30.759766</ele>
<time>2012-07-27T15:51:13Z</time>
<speed>5.400000</speed>
<extensions>
<speed>5.4</speed>
<temp>0.00</temp>
<bpm>0</bpm>
<rpm>0.00</rpm>
</extensions>
</trkpt>
<trkpt lat="63.943599701" lon="-20.853572845">
<ele>30.434082</ele>
<time>2012-07-27T15:51:18Z</time>
<speed>6.100000</speed>
<extensions>
<speed>6.1</speed>
<temp>0.00</temp>
<bpm>0</bpm>
<rpm>0.00</rpm>
</extensions>
</trkpt>
<trkpt lat="63.943592072" lon="-20.854232788">
<ele>30.997559</ele>
<time>2012-07-27T15:51:23Z</time>
<speed>6.660000</speed>
<extensions>
<speed>6.7</speed>
<temp>0.00</temp>
<bpm>0</bpm>
<rpm>0.00</rpm>
</extensions>
</trkpt>
<trkpt lat="63.943576813" lon="-20.854936600">
<ele>30.645020</ele>
<time>2012-07-27T15:51:28Z</time>
<speed>6.870000</speed>
<extensions>
<speed>6.9</speed>
<temp>0.00</temp>
<bpm>0</bpm>
<rpm>0.00</rpm>
</extensions>
</trkpt>
<trkpt lat="63.943553925" lon="-20.855640411">
<ele>30.528320</ele>
<time>2012-07-27T15:51:33Z</time>
<speed>6.640000</speed>
<extensions>
<speed>6.6</speed>
<temp>0.00</temp>
<bpm>0</bpm>
<rpm>0.00</rpm>
</extensions>
</trkpt>
<trkpt lat="63.943542480" lon="-20.856262207">
<ele>29.675781</ele>
<time>2012-07-27T15:51:38Z</time>
<speed>5.790000</speed>
<extensions>
<speed>5.8</speed>
<temp>0.00</temp>
<bpm>0</bpm>
<rpm>0.00</rpm>
</extensions>
</trkpt>
<trkpt lat="63.943527222" lon="-20.856872559">
<ele>30.392578</ele>
<time>2012-07-27T15:51:43Z</time>
<speed>6.150000</speed>
<extensions>
<speed>6.1</speed>
<temp>0.00</temp>
<bpm>0</bpm>
<rpm>0.00</rpm>
</extensions>
</trkpt>
<trkpt lat="63.943519592" lon="-20.857521057">
<ele>30.452148</ele>
<time>2012-07-27T15:51:48Z</time>
<speed>6.540000</speed>
<extensions>
<speed>6.5</speed>
<temp>0.00</temp>
<bpm>0</bpm>
<rpm>0.00</rpm>
</extensions>
</trkpt>
<trkpt lat="63.943504333" lon="-20.858209610">
<ele>30.556152</ele>
<time>2012-07-27T15:51:53Z</time>
<speed>6.910000</speed>
<extensions>
<speed>6.9</speed>
<temp>0.00</temp>
<bpm>0</bpm>
<rpm>0.00</rpm>
</extensions>
</trkpt>
<trkpt lat="63.943492889" lon="-20.858959198">
<ele>30.905273</ele>
<time>2012-07-27T15:51:58Z</time>
<speed>7.410000</speed>
<extensions>
<speed>7.4</speed>
<temp>0.00</temp>
<bpm>0</bpm>
<rpm>0.00</rpm>
</extensions>
</trkpt>
<trkpt lat="63.943485260" lon="-20.859666824">
<ele>32.348633</ele>
<time>2012-07-27T15:52:03Z</time>
<speed>6.340000</speed>
<extensions>
<speed>6.3</speed>
<temp>0.00</temp>
<bpm>0</bpm>
<rpm>0.00</rpm>
</extensions>
</trkpt>
<trkpt lat="63.943477631" lon="-20.860307693">
<ele>32.425781</ele>
<time>2012-07-27T15:52:08Z</time>
<speed>6.310000</speed>
<extensions>
<speed>6.3</speed>
<temp>0.00</temp>
<bpm>0</bpm>
<rpm>0.00</rpm>
</extensions>
</trkpt>
<trkpt lat="63.943462372" lon="-20.860982895">
<ele>32.350586</ele>
<time>2012-07-27T15:52:13Z</time>
<speed>6.870000</speed>
<extensions>
<speed>6.9</speed>
<temp>0.00</temp>
<bpm>0</bpm>
<rpm>0.00</rpm>
</extensions>
</trkpt>
<trkpt lat="63.943447113" lon="-20.861690521">
<ele>32.478516</ele>
<time>2012-07-27T15:52:18Z</time>
<speed>6.570000</speed>
<extensions>
<speed>6.6</speed>
<temp>0.00</temp>
<bpm>0</bpm>
<rpm>0.00</rpm>
</extensions>
</trkpt>
<trkpt lat="63.943435669" lon="-20.862321854">
<ele>32.100586</ele>
<time>2012-07-27T15:52:23Z</time>
<speed>5.830000</speed>
<extensions>
<speed>5.8</speed>
<temp>0.00</temp>
<bpm>0</bpm>
<rpm>0.00</rpm>
</extensions>
</trkpt>
<trkpt lat="63.943420410" lon="-20.862874985">
<ele>32.220703</ele>
<time>2012-07-27T15:52:28Z</time>
<speed>5.250000</speed>
<extensions>
<speed>5.2</speed>
<temp>0.00</temp>
<bpm>0</bpm>
<rpm>0.00</rpm>
</extensions>
</trkpt>
<trkpt lat="63.943408966" lon="-20.863420486">
<ele>32.566406</ele>
<time>2012-07-27T15:52:33Z</time>
<speed>5.940000</speed>
<extensions>
<speed>5.9</speed>
<temp>0.00</temp>
<bpm>0</bpm>
<rpm>0.00</rpm>
</extensions>
</trkpt>
<trkpt lat="63.943405151" lon="-20.864061356">
<ele>32.361328</ele>
<time>2012-07-27T15:52:38Z</time>
<speed>6.540000</speed>
<extensions>
<speed>6.5</speed>
<temp>0.00</temp>
<bpm>0</bpm>
<rpm>0.00</rpm>
</extensions>
</trkpt>
<trkpt lat="63.943397522" lon="-20.864730835">
<ele>32.280273</ele>
<time>2012-07-27T15:52:43Z</time>
<speed>6.360000</speed>
<extensions>
<speed>6.4</speed>
<temp>0.00</temp>
<bpm>0</bpm>
<rpm>0.00</rpm>
</extensions>
</trkpt>
<trkpt lat="63.943382263" lon="-20.865339279">
<ele>32.146484</ele>
<time>2012-07-27T15:52:48Z</time>
<speed>5.710000</speed>
<extensions>
<speed>5.7</speed>
<temp>0.00</temp>
<bpm>0</bpm>
<rpm>0.00</rpm>
</extensions>
</trkpt>
<trkpt lat="63.943359375" lon="-20.865947723">
<ele>31.910156</ele>
<time>2012-07-27T15:52:53Z</time>
<speed>6.300000</speed>
<extensions>
<speed>6.3</speed>
<temp>0.00</temp>
<bpm>0</bpm>
<rpm>0.00</rpm>
</extensions>
</trkpt>
<trkpt lat="63.943344116" lon="-20.866626740">
<ele>31.636230</ele>
<time>2012-07-27T15:52:58Z</time>
<speed>6.790000</speed>
<extensions>
<speed>6.8</speed>
<temp>0.00</temp>
<bpm>0</bpm>
<rpm>0.00</rpm>
</extensions>
</trkpt>
<trkpt lat="63.943332672" lon="-20.867309570">
<ele>31.125488</ele>
<time>2012-07-27T15:53:03Z</time>
<speed>6.230000</speed>
<extensions>
<speed>6.2</speed>
<temp>0.00</temp>
<bpm>0</bpm>
<rpm>0.00</rpm>
</extensions>
</trkpt>
<trkpt lat="63.943313599" lon="-20.867937088">
<ele>31.228516</ele>
<time>2012-07-27T15:53:08Z</time>
<speed>6.250000</speed>
<extensions>
<speed>6.3</speed>
<temp>0.00</temp>
<bpm>0</bpm>
<rpm>0.00</rpm>
</extensions>
</trkpt>
<trkpt lat="63.943294525" lon="-20.868583679">
<ele>31.395996</ele>
<time>2012-07-27T15:53:13Z</time>
<speed>6.060000</speed>
<extensions>
<speed>6.1</speed>
<temp>0.00</temp>
<bpm>0</bpm>
<rpm>0.00</rpm>
</extensions>
</trkpt>
<trkpt lat="63.943279266" lon="-20.869188309">
<ele>31.608887</ele>
<time>2012-07-27T15:53:18Z</time>
<speed>6.260000</speed>
<extensions>
<speed>6.3</speed>
<temp>0.00</temp>
<bpm>0</bpm>
<rpm>0.00</rpm>
</extensions>
</trkpt>
<trkpt lat="63.943264008" lon="-20.869871140">
<ele>31.224121</ele>
<time>2012-07-27T15:53:23Z</time>
<speed>6.810000</speed>
<extensions>
<speed>6.8</speed>
<temp>0.00</temp>
<bpm>0</bpm>
<rpm>0.00</rpm>
</extensions>
</trkpt>
<trkpt lat="63.943248749" lon="-20.870574951">
<ele>31.415039</ele>
<time>2012-07-27T15:53:28Z</time>
<speed>7.040000</speed>
<extensions>
<speed>7.0</speed>
<temp>0.00</temp>
<bpm>0</bpm>
<rpm>0.00</rpm>
</extensions>
</trkpt>
<trkpt lat="63.943233490" lon="-20.871267319">
<ele>31.362793</ele>
<time>2012-07-27T15:53:33Z</time>
<speed>6.440000</speed>
<extensions>
<speed>6.4</speed>
<temp>0.00</temp>
<bpm>0</bpm>
<rpm>0.00</rpm>
</extensions>
</trkpt>
<trkpt lat="63.943218231" lon="-20.871889114">
<ele>31.554688</ele>
<time>2012-07-27T15:53:38Z</time>
<speed>5.680000</speed>
<extensions>
<speed>5.7</speed>
<temp>0.00</temp>
<bpm>0</bpm>
<rpm>0.00</rpm>
</extensions>
</trkpt>
<trkpt lat="63.943214417" lon="-20.872468948">
<ele>32.503906</ele>
<time>2012-07-27T15:53:43Z</time>
<speed>6.050000</speed>
<extensions>
<speed>6.1</speed>
<temp>0.00</temp>
<bpm>0</bpm>
<rpm>0.00</rpm>
</extensions>
</trkpt>
<trkpt lat="63.943195343" lon="-20.873092651">
<ele>33.350586</ele>
<time>2012-07-27T15:53:48Z</time>
<speed>6.310000</speed>
<extensions>
<speed>6.3</speed>
<temp>0.00</temp>
<bpm>0</bpm>
<rpm>0.00</rpm>
</extensions>
</trkpt>
<trkpt lat="63.943176270" lon="-20.873752594">
<ele>32.834961</ele>
<time>2012-07-27T15:53:53Z</time>
<speed>6.140000</speed>
<extensions>
<speed>6.1</speed>
<temp>0.00</temp>
<bpm>0</bpm>
<rpm>0.00</rpm>
</extensions>
</trkpt>
<trkpt lat="63.943164825" lon="-20.874336243">
<ele>32.653320</ele>
<time>2012-07-27T15:53:58Z</time>
<speed>5.930000</speed>
<extensions>
<speed>5.9</speed>
<temp>0.00</temp>
<bpm>0</bpm>
<rpm>0.00</rpm>
</extensions>
</trkpt>
<trkpt lat="63.943145752" lon="-20.874961853">
<ele>32.195313</ele>
<time>2012-07-27T15:54:03Z</time>
<speed>6.370000</speed>
<extensions>
<speed>6.4</speed>
<temp>0.00</temp>
<bpm>0</bpm>
<rpm>0.00</rpm>
</extensions>
</trkpt>
<trkpt lat="63.943126678" lon="-20.875621796">
<ele>31.964844</ele>
<time>2012-07-27T15:54:08Z</time>
<speed>6.190000</speed>
<extensions>
<speed>6.2</speed>
<temp>0.00</temp>
<bpm>0</bpm>
<rpm>0.00</rpm>
</extensions>
</trkpt>
<trkpt lat="63.943111420" lon="-20.876201630">
<ele>32.376953</ele>
<time>2012-07-27T15:54:13Z</time>
<speed>5.260000</speed>
<extensions>
<speed>5.3</speed>
<temp>0.00</temp>
<bpm>0</bpm>
<rpm>0.00</rpm>
</extensions>
</trkpt>
<trkpt lat="63.943099976" lon="-20.876737595">
<ele>32.192383</ele>
<time>2012-07-27T15:54:18Z</time>
<speed>5.600000</speed>
<extensions>
<speed>5.6</speed>
<temp>0.00</temp>
<bpm>0</bpm>
<rpm>0.00</rpm>
</extensions>
</trkpt>
<trkpt lat="63.943084717" lon="-20.877321243">
<ele>32.226563</ele>
<time>2012-07-27T15:54:23Z</time>
<speed>5.830000</speed>
<extensions>
<speed>5.8</speed>
<temp>0.00</temp>
<bpm>0</bpm>
<rpm>0.00</rpm>
</extensions>
</trkpt>
<trkpt lat="63.943080902" lon="-20.877933502">
<ele>32.964844</ele>
<time>2012-07-27T15:54:28Z</time>
<speed>6.230000</speed>
<extensions>
<speed>6.2</speed>
<temp>0.00</temp>
<bpm>0</bpm>
<rpm>0.00</rpm>
</extensions>
</trkpt>
<trkpt lat="63.943069458" lon="-20.878541946">
<ele>32.824219</ele>
<time>2012-07-27T15:54:33Z</time>
<speed>5.860000</speed>
<extensions>
<speed>5.9</speed>
<temp>0.00</temp>
<bpm>0</bpm>
<rpm>0.00</rpm>
</extensions>
</trkpt>
<trkpt lat="63.943054199" lon="-20.879175186">
<ele>33.733398</ele>
<time>2012-07-27T15:54:38Z</time>
<speed>6.130000</speed>
<extensions>
<speed>6.1</speed>
<temp>0.00</temp>
<bpm>0</bpm>
<rpm>0.00</rpm>
</extensions>
</trkpt>
<trkpt lat="63.943038940" lon="-20.879760742">
<ele>33.508789</ele>
<time>2012-07-27T15:54:43Z</time>
<speed>5.360000</speed>
<extensions>
<speed>5.4</speed>
<temp>0.00</temp>
<bpm>0</bpm>
<rpm>0.00</rpm>
</extensions>
</trkpt>
<trkpt lat="63.943016052" lon="-20.880310059">
<ele>32.931641</ele>
<time>2012-07-27T15:54:48Z</time>
<speed>5.660000</speed>
<extensions>
<speed>5.7</speed>
<temp>0.00</temp>
<bpm>0</bpm>
<rpm>0.00</rpm>
</extensions>
</trkpt>
<trkpt lat="63.943008423" lon="-20.880920410">
<ele>32.713867</ele>
<time>2012-07-27T15:54:53Z</time>
<speed>6.010000</speed>
<extensions>
<speed>6.0</speed>
<temp>0.00</temp>
<bpm>0</bpm>
<rpm>0.00</rpm>
</extensions>
</trkpt>
<trkpt lat="63.942989349" lon="-20.881500244">
<ele>32.773438</ele>
<time>2012-07-27T15:54:58Z</time>
<speed>5.610000</speed>
<extensions>
<speed>5.6</speed>
<temp>0.00</temp>
<bpm>0</bpm>
<rpm>0.00</rpm>
</extensions>
</trkpt>
<trkpt lat="63.942970276" lon="-20.882101059">
<ele>31.386719</ele>
<time>2012-07-27T15:55:03Z</time>
<speed>6.250000</speed>
<extensions>
<speed>6.3</speed>
<temp>0.00</temp>
<bpm>0</bpm>
<rpm>0.00</rpm>
</extensions>
</trkpt>
<trkpt lat="63.942955017" lon="-20.882759094">
<ele>31.000488</ele>
<time>2012-07-27T15:55:08Z</time>
<speed>6.200000</speed>
<extensions>
<speed>6.2</speed>
<temp>0.00</temp>
<bpm>0</bpm>
<rpm>0.00</rpm>
</extensions>
</trkpt>
<trkpt lat="63.942935944" lon="-20.883354187">
<ele>30.905762</ele>
<time>2012-07-27T15:55:13Z</time>
<speed>5.500000</speed>
<extensions>
<speed>5.5</speed>
<temp>0.00</temp>
<bpm>0</bpm>
<rpm>0.00</rpm>
</extensions>
</trkpt>
<trkpt lat="63.942928314" lon="-20.883914948">
<ele>31.151367</ele>
<time>2012-07-27T15:55:18Z</time>
<speed>5.740000</speed>
<extensions>
<speed>5.7</speed>
<temp>0.00</temp>
<bpm>0</bpm>
<rpm>0.00</rpm>
</extensions>
</trkpt>
<trkpt lat="63.942913055" lon="-20.884538651">
<ele>30.875488</ele>
<time>2012-07-27T15:55:23Z</time>
<speed>6.300000</speed>
<extensions>
<speed>6.3</speed>
<temp>0.00</temp>
<bpm>0</bpm>
<rpm>0.00</rpm>
</extensions>
</trkpt>
<trkpt lat="63.942905426" lon="-20.885149002">
<ele>31.203613</ele>
<time>2012-07-27T15:55:28Z</time>
<speed>6.180000</speed>
<extensions>
<speed>6.2</speed>
<temp>0.00</temp>
<bpm>0</bpm>
<rpm>0.00</rpm>
</extensions>
</trkpt>
<trkpt lat="63.942890167" lon="-20.885801315">
<ele>31.129395</ele>
<time>2012-07-27T15:55:33Z</time>
<speed>6.350000</speed>
<extensions>
<speed>6.4</speed>
<temp>0.00</temp>
<bpm>0</bpm>
<rpm>0.00</rpm>
</extensions>
</trkpt>
<trkpt lat="63.942871094" lon="-20.886415482">
<ele>32.203125</ele>
<time>2012-07-27T15:55:38Z</time>
<speed>5.580000</speed>
<extensions>
<speed>5.6</speed>
<temp>0.00</temp>
<bpm>0</bpm>
<rpm>0.00</rpm>
</extensions>
</trkpt>
<trkpt lat="63.942859650" lon="-20.886964798">
<ele>32.415039</ele>
<time>2012-07-27T15:55:43Z</time>
<speed>5.700000</speed>
<extensions>
<speed>5.7</speed>
<temp>0.00</temp>
<bpm>0</bpm>
<rpm>0.00</rpm>
</extensions>
</trkpt>
<trkpt lat="63.942848206" lon="-20.887557983">
<ele>32.510742</ele>
<time>2012-07-27T15:55:48Z</time>
<speed>6.160000</speed>
<extensions>
<speed>6.2</speed>
<temp>0.00</temp>
<bpm>0</bpm>
<rpm>0.00</rpm>
</extensions>
</trkpt>
<trkpt lat="63.942832947" lon="-20.888149261">
<ele>32.165039</ele>
<time>2012-07-27T15:55:53Z</time>
<speed>5.400000</speed>
<extensions>
<speed>5.4</speed>
<temp>0.00</temp>
<bpm>0</bpm>
<rpm>0.00</rpm>
</extensions>
</trkpt>
<trkpt lat="63.942821503" lon="-20.888687134">
<ele>31.672852</ele>
<time>2012-07-27T15:55:58Z</time>
<speed>5.150000</speed>
<extensions>
<speed>5.2</speed>
<temp>0.00</temp>
<bpm>0</bpm>
<rpm>0.00</rpm>
</extensions>
</trkpt>
<trkpt lat="63.942802429" lon="-20.889247894">
<ele>31.182617</ele>
<time>2012-07-27T15:56:03Z</time>
<speed>5.800000</speed>
<extensions>
<speed>5.8</speed>
<temp>0.00</temp>
<bpm>0</bpm>
<rpm>0.00</rpm>
</extensions>
</trkpt>
<trkpt lat="63.942790985" lon="-20.889831543">
<ele>31.201172</ele>
<time>2012-07-27T15:56:08Z</time>
<speed>5.840000</speed>
<extensions>
<speed>5.8</speed>
<temp>0.00</temp>
<bpm>0</bpm>
<rpm>0.00</rpm>
</extensions>
</trkpt>
<trkpt lat="63.942779541" lon="-20.890419006">
<ele>30.797363</ele>
<time>2012-07-27T15:56:13Z</time>
<speed>5.460000</speed>
<extensions>
<speed>5.5</speed>
<temp>0.00</temp>
<bpm>0</bpm>
<rpm>0.00</rpm>
</extensions>
</trkpt>
<trkpt lat="63.942768097" lon="-20.890935898">
<ele>30.437988</ele>
<time>2012-07-27T15:56:18Z</time>
<speed>4.790000</speed>
<extensions>
<speed>4.8</speed>
<temp>0.00</temp>
<bpm>0</bpm>
<rpm>0.00</rpm>
</extensions>
</trkpt>
<trkpt lat="63.942760468" lon="-20.891382217">
<ele>29.914551</ele>
<time>2012-07-27T15:56:23Z</time>
<speed>4.210000</speed>
<extensions>
<speed>4.2</speed>
<temp>0.00</temp>
<bpm>0</bpm>
<rpm>0.00</rpm>
</extensions>
</trkpt>
<trkpt lat="63.942752838" lon="-20.891788483">
<ele>30.225586</ele>
<time>2012-07-27T15:56:28Z</time>
<speed>3.900000</speed>
<extensions>
<speed>3.9</speed>
<temp>0.00</temp>
<bpm>0</bpm>
<rpm>0.00</rpm>
</extensions>
</trkpt>
<trkpt lat="63.942749023" lon="-20.892145157">
<ele>30.322754</ele>
<time>2012-07-27T15:56:33Z</time>
<speed>3.130000</speed>
<extensions>
<speed>3.1</speed>
<temp>0.00</temp>
<bpm>0</bpm>
<rpm>0.00</rpm>
</extensions>
</trkpt>
<trkpt lat="63.942741394" lon="-20.892414093">
<ele>30.240723</ele>
<time>2012-07-27T15:56:38Z</time>
<speed>2.690000</speed>
<extensions>
<speed>2.7</speed>
<temp>0.00</temp>
<bpm>0</bpm>
<rpm>0.00</rpm>
</extensions>
</trkpt>
<trkpt lat="63.942733765" lon="-20.892700195">
<ele>29.253906</ele>
<time>2012-07-27T15:56:43Z</time>
<speed>3.260000</speed>
<extensions>
<speed>3.3</speed>
<temp>0.00</temp>
<bpm>0</bpm>
<rpm>0.00</rpm>
</extensions>
</trkpt>
<trkpt lat="63.942726135" lon="-20.893083572">
<ele>28.903809</ele>
<time>2012-07-27T15:56:48Z</time>
<speed>4.260000</speed>
<extensions>
<speed>4.3</speed>
<temp>0.00</temp>
<bpm>0</bpm>
<rpm>0.00</rpm>
</extensions>
</trkpt>
<trkpt lat="63.942714691" lon="-20.893560410">
<ele>29.388672</ele>
<time>2012-07-27T15:56:53Z</time>
<speed>4.820000</speed>
<extensions>
<speed>4.8</speed>
<temp>0.00</temp>
<bpm>0</bpm>
<rpm>0.00</rpm>
</extensions>
</trkpt>
<trkpt lat="63.942707062" lon="-20.894052505">
<ele>30.363281</ele>
<time>2012-07-27T15:56:58Z</time>
<speed>5.040000</speed>
<extensions>
<speed>5.0</speed>
<temp>0.00</temp>
<bpm>0</bpm>
<rpm>0.00</rpm>
</extensions>
</trkpt>
<trkpt lat="63.942695618" lon="-20.894584656">
<ele>30.677734</ele>
<time>2012-07-27T15:57:03Z</time>
<speed>4.900000</speed>
<extensions>
<speed>4.9</speed>
<temp>0.00</temp>
<bpm>0</bpm>
<rpm>0.00</rpm>
</extensions>
</trkpt>
<trkpt lat="63.942680359" lon="-20.895082474">
<ele>30.122070</ele>
<time>2012-07-27T15:57:08Z</time>
<speed>5.270000</speed>
<extensions>
<speed>5.3</speed>
<temp>0.00</temp>
<bpm>0</bpm>
<rpm>0.00</rpm>
</extensions>
</trkpt>
<trkpt lat="63.942657471" lon="-20.895647049">
<ele>30.222168</ele>
<time>2012-07-27T15:57:13Z</time>
<speed>5.270000</speed>
<extensions>
<speed>5.3</speed>
<temp>0.00</temp>
<bpm>0</bpm>
<rpm>0.00</rpm>
</extensions>
</trkpt>
<trkpt lat="63.942646027" lon="-20.896175385">
<ele>29.939941</ele>
<time>2012-07-27T15:57:18Z</time>
<speed>5.530000</speed>
<extensions>
<speed>5.5</speed>
<temp>0.00</temp>
<bpm>0</bpm>
<rpm>0.00</rpm>
</extensions>
</trkpt>
<trkpt lat="63.942626953" lon="-20.896726608">
<ele>29.908691</ele>
<time>2012-07-27T15:57:23Z</time>
<speed>5.190000</speed>
<extensions>
<speed>5.2</speed>
<temp>0.00</temp>
<bpm>0</bpm>
<rpm>0.00</rpm>
</extensions>
</trkpt>
<trkpt lat="63.942615509" lon="-20.897237778">
<ele>30.106445</ele>
<time>2012-07-27T15:57:28Z</time>
<speed>4.850000</speed>
<extensions>
<speed>4.8</speed>
<temp>0.00</temp>
<bpm>0</bpm>
<rpm>0.00</rpm>
</extensions>
</trkpt>
<trkpt lat="63.942604065" lon="-20.897764206">
<ele>30.519043</ele>
<time>2012-07-27T15:57:33Z</time>
<speed>5.450000</speed>
<extensions>
<speed>5.5</speed>
<temp>0.00</temp>
<bpm>0</bpm>
<rpm>0.00</rpm>
</extensions>
</trkpt>
<trkpt lat="63.942588806" lon="-20.898328781">
<ele>30.298828</ele>
<time>2012-07-27T15:57:38Z</time>
<speed>5.560000</speed>
<extensions>
<speed>5.6</speed>
<temp>0.00</temp>
<bpm>0</bpm>
<rpm>0.00</rpm>
</extensions>
</trkpt>
<trkpt lat="63.942577362" lon="-20.898851395">
<ele>30.318359</ele>
<time>2012-07-27T15:57:43Z</time>
<speed>4.760000</speed>
<extensions>
<speed>4.8</speed>
<temp>0.00</temp>
<bpm>0</bpm>
<rpm>0.00</rpm>
</extensions>
</trkpt>
<trkpt lat="63.942565918" lon="-20.899370193">
<ele>30.167480</ele>
<time>2012-07-27T15:57:48Z</time>
<speed>5.380000</speed>
<extensions>
<speed>5.4</speed>
<temp>0.00</temp>
<bpm>0</bpm>
<rpm>0.00</rpm>
</extensions>
</trkpt>
<trkpt lat="63.942558289" lon="-20.899921417">
<ele>30.144043</ele>
<time>2012-07-27T15:57:53Z</time>
<speed>5.120000</speed>
<extensions>
<speed>5.1</speed>
<temp>0.00</temp>
<bpm>0</bpm>
<rpm>0.00</rpm>
</extensions>
</trkpt>
<trkpt lat="63.942546844" lon="-20.900415421">
<ele>30.411621</ele>
<time>2012-07-27T15:57:58Z</time>
<speed>5.150000</speed>
<extensions>
<speed>5.2</speed>
<temp>0.00</temp>
<bpm>0</bpm>
<rpm>0.00</rpm>
</extensions>
</trkpt>
<trkpt lat="63.942523956" lon="-20.900964737">
<ele>30.317383</ele>
<time>2012-07-27T15:58:03Z</time>
<speed>5.780000</speed>
<extensions>
<speed>5.8</speed>
<temp>0.00</temp>
<bpm>0</bpm>
<rpm>0.00</rpm>
</extensions>
</trkpt>
<trkpt lat="63.942516327" lon="-20.901521683">
<ele>30.419922</ele>
<time>2012-07-27T15:58:08Z</time>
<speed>5.070000</speed>
<extensions>
<speed>5.1</speed>
<temp>0.00</temp>
<bpm>0</bpm>
<rpm>0.00</rpm>
</extensions>
</trkpt>
<trkpt lat="63.942504883" lon="-20.902051926">
<ele>30.521484</ele>
<time>2012-07-27T15:58:13Z</time>
<speed>5.530000</speed>
<extensions>
<speed>5.5</speed>
<temp>0.00</temp>
<bpm>0</bpm>
<rpm>0.00</rpm>
</extensions>
</trkpt>
<trkpt lat="63.942489624" lon="-20.902639389">
<ele>30.220703</ele>
<time>2012-07-27T15:58:18Z</time>
<speed>5.590000</speed>
<extensions>
<speed>5.6</speed>
<temp>0.00</temp>
<bpm>0</bpm>
<rpm>0.00</rpm>
</extensions>
</trkpt>
<trkpt lat="63.942485809" lon="-20.903181076">
<ele>30.359375</ele>
<time>2012-07-27T15:58:23Z</time>
<speed>4.850000</speed>
<extensions>
<speed>4.8</speed>
<temp>0.00</temp>
<bpm>0</bpm>
<rpm>0.00</rpm>
</extensions>
</trkpt>
<trkpt lat="63.942470551" lon="-20.903656006">
<ele>30.661133</ele>
<time>2012-07-27T15:58:28Z</time>
<speed>5.030000</speed>
<extensions>
<speed>5.0</speed>
<temp>0.00</temp>
<bpm>0</bpm>
<rpm>0.00</rpm>
</extensions>
</trkpt>
<trkpt lat="63.942447662" lon="-20.904203415">
<ele>30.623047</ele>
<time>2012-07-27T15:58:33Z</time>
<speed>5.570000</speed>
<extensions>
<speed>5.6</speed>
<temp>0.00</temp>
<bpm>0</bpm>
<rpm>0.00</rpm>
</extensions>
</trkpt>
<trkpt lat="63.942432404" lon="-20.904779434">
<ele>29.212891</ele>
<time>2012-07-27T15:58:38Z</time>
<speed>5.750000</speed>
<extensions>
<speed>5.8</speed>
<temp>0.00</temp>
<bpm>0</bpm>
<rpm>0.00</rpm>
</extensions>
</trkpt>
<trkpt lat="63.942424774" lon="-20.905338287">
<ele>29.713379</ele>
<time>2012-07-27T15:58:43Z</time>
<speed>5.140000</speed>
<extensions>
<speed>5.1</speed>
<temp>0.00</temp>
<bpm>0</bpm>
<rpm>0.00</rpm>
</extensions>
</trkpt>
<trkpt lat="63.942417145" lon="-20.905855179">
<ele>30.310547</ele>
<time>2012-07-27T15:58:48Z</time>
<speed>5.310000</speed>
<extensions>
<speed>5.3</speed>
<temp>0.00</temp>
<bpm>0</bpm>
<rpm>0.00</rpm>
</extensions>
</trkpt>
<trkpt lat="63.942398071" lon="-20.906423569">
<ele>30.419434</ele>
<time>2012-07-27T15:58:53Z</time>
<speed>5.900000</speed>
<extensions>
<speed>5.9</speed>
<temp>0.00</temp>
<bpm>0</bpm>
<rpm>0.00</rpm>
</extensions>
</trkpt>
<trkpt lat="63.942390442" lon="-20.907005310">
<ele>30.936523</ele>
<time>2012-07-27T15:58:58Z</time>
<speed>5.280000</speed>
<extensions>
<speed>5.3</speed>
<temp>0.00</temp>
<bpm>0</bpm>
<rpm>0.00</rpm>
</extensions>
</trkpt>
<trkpt lat="63.942378998" lon="-20.907533646">
<ele>30.629395</ele>
<time>2012-07-27T15:59:03Z</time>
<speed>5.520000</speed>
<extensions>
<speed>5.5</speed>
<temp>0.00</temp>
<bpm>0</bpm>
<rpm>0.00</rpm>
</extensions>
</trkpt>
<trkpt lat="63.942363739" lon="-20.908126831">
<ele>30.120605</ele>
<time>2012-07-27T15:59:08Z</time>
<speed>6.040000</speed>
<extensions>
<speed>6.0</speed>
<temp>0.00</temp>
<bpm>0</bpm>
<rpm>0.00</rpm>
</extensions>
</trkpt>
<trkpt lat="63.942344666" lon="-20.908773422">
<ele>29.863770</ele>
<time>2012-07-27T15:59:13Z</time>
<speed>5.970000</speed>
<extensions>
<speed>6.0</speed>
<temp>0.00</temp>
<bpm>0</bpm>
<rpm>0.00</rpm>
</extensions>
</trkpt>
<trkpt lat="63.942333221" lon="-20.909349442">
<ele>29.377930</ele>
<time>2012-07-27T15:59:18Z</time>
<speed>5.280000</speed>
<extensions>
<speed>5.3</speed>
<temp>0.00</temp>
<bpm>0</bpm>
<rpm>0.00</rpm>
</extensions>
</trkpt>
<trkpt lat="63.942317963" lon="-20.909845352">
<ele>29.138184</ele>
<time>2012-07-27T15:59:23Z</time>
<speed>5.000000</speed>
<extensions>
<speed>5.0</speed>
<temp>0.00</temp>
<bpm>0</bpm>
<rpm>0.00</rpm>
</extensions>
</trkpt>
<trkpt lat="63.942298889" lon="-20.910383224">
<ele>29.370117</ele>
<time>2012-07-27T15:59:28Z</time>
<speed>5.720000</speed>
<extensions>
<speed>5.7</speed>
<temp>0.00</temp>
<bpm>0</bpm>
<rpm>0.00</rpm>
</extensions>
</trkpt>
<trkpt lat="63.942291260" lon="-20.910961151">
<ele>29.387695</ele>
<time>2012-07-27T15:59:33Z</time>
<speed>5.360000</speed>
<extensions>
<speed>5.4</speed>
<temp>0.00</temp>
<bpm>0</bpm>
<rpm>0.00</rpm>
</extensions>
</trkpt>
<trkpt lat="63.942279816" lon="-20.911483765">
<ele>28.817871</ele>
<time>2012-07-27T15:59:38Z</time>
<speed>4.830000</speed>
<extensions>
<speed>4.8</speed>
<temp>0.00</temp>
<bpm>0</bpm>
<rpm>0.00</rpm>
</extensions>
</trkpt>
<trkpt lat="63.942264557" lon="-20.912029266">
<ele>28.729980</ele>
<time>2012-07-27T15:59:43Z</time>
<speed>5.690000</speed>
<extensions>
<speed>5.7</speed>
<temp>0.00</temp>
<bpm>0</bpm>
<rpm>0.00</rpm>
</extensions>
</trkpt>
<trkpt lat="63.942249298" lon="-20.912582397">
<ele>29.023926</ele>
<time>2012-07-27T15:59:48Z</time>
<speed>5.470000</speed>
<extensions>
<speed>5.5</speed>
<temp>0.00</temp>
<bpm>0</bpm>
<rpm>0.00</rpm>
</extensions>
</trkpt>
<trkpt lat="63.942241669" lon="-20.913192749">
<ele>29.463379</ele>
<time>2012-07-27T15:59:53Z</time>
<speed>6.330000</speed>
<extensions>
<speed>6.3</speed>
<temp>0.00</temp>
<bpm>0</bpm>
<rpm>0.00</rpm>
</extensions>
</trkpt>
<trkpt lat="63.942230225" lon="-20.913837433">
<ele>30.022949</ele>
<time>2012-07-27T15:59:58Z</time>
<speed>6.210000</speed>
<extensions>
<speed>6.2</speed>
<temp>0.00</temp>
<bpm>0</bpm>
<rpm>0.00</rpm>
</extensions>
</trkpt>
<trkpt lat="63.942214966" lon="-20.914484024">
<ele>29.903320</ele>
<time>2012-07-27T16:00:03Z</time>
<speed>6.130000</speed>
<extensions>
<speed>6.1</speed>
<temp>0.00</temp>
<bpm>0</bpm>
<rpm>0.00</rpm>
</extensions>
</trkpt>
<trkpt lat="63.942199707" lon="-20.915069580">
<ele>30.118652</ele>
<time>2012-07-27T16:00:08Z</time>
<speed>5.490000</speed>
<extensions>
<speed>5.5</speed>
<temp>0.00</temp>
<bpm>0</bpm>
<rpm>0.00</rpm>
</extensions>
</trkpt>
<trkpt lat="63.942184448" lon="-20.915655136">
<ele>29.557617</ele>
<time>2012-07-27T16:00:13Z</time>
<speed>6.030000</speed>
<extensions>
<speed>6.0</speed>
<temp>0.00</temp>
<bpm>0</bpm>
<rpm>0.00</rpm>
</extensions>
</trkpt>
<trkpt lat="63.942165375" lon="-20.916263580">
<ele>29.149414</ele>
<time>2012-07-27T16:00:18Z</time>
<speed>5.740000</speed>
<extensions>
<speed>5.7</speed>
<temp>0.00</temp>
<bpm>0</bpm>
<rpm>0.00</rpm>
</extensions>
</trkpt>
<trkpt lat="63.942150116" lon="-20.916816711">
<ele>27.963867</ele>
<time>2012-07-27T16:00:23Z</time>
<speed>5.130000</speed>
<extensions>
<speed>5.1</speed>
<temp>0.00</temp>
<bpm>0</bpm>
<rpm>0.00</rpm>
</extensions>
</trkpt>
<trkpt lat="63.942138672" lon="-20.917354584">
<ele>27.848145</ele>
<time>2012-07-27T16:00:28Z</time>
<speed>5.570000</speed>
<extensions>
<speed>5.6</speed>
<temp>0.00</temp>
<bpm>0</bpm>
<rpm>0.00</rpm>
</extensions>
</trkpt>
<trkpt lat="63.942115784" lon="-20.917943954">
<ele>28.124512</ele>
<time>2012-07-27T16:00:33Z</time>
<speed>5.960000</speed>
<extensions>
<speed>6.0</speed>
<temp>0.00</temp>
<bpm>0</bpm>
<rpm>0.00</rpm>
</extensions>
</trkpt>
<trkpt lat="63.942104340" lon="-20.918519974">
<ele>28.291016</ele>
<time>2012-07-27T16:00:38Z</time>
<speed>5.380000</speed>
<extensions>
<speed>5.4</speed>
<temp>0.00</temp>
<bpm>0</bpm>
<rpm>0.00</rpm>
</extensions>
</trkpt>
<trkpt lat="63.942100525" lon="-20.919046402">
<ele>28.814453</ele>
<time>2012-07-27T16:00:43Z</time>
<speed>4.850000</speed>
<extensions>
<speed>4.8</speed>
<temp>0.00</temp>
<bpm>0</bpm>
<rpm>0.00</rpm>
</extensions>
</trkpt>
<trkpt lat="63.942089081" lon="-20.919544220">
<ele>28.611816</ele>
<time>2012-07-27T16:00:48Z</time>
<speed>5.250000</speed>
<extensions>
<speed>5.2</speed>
<temp>0.00</temp>
<bpm>0</bpm>
<rpm>0.00</rpm>
</extensions>
</trkpt>
<trkpt lat="63.942073822" lon="-20.920116425">
<ele>28.531738</ele>
<time>2012-07-27T16:00:53Z</time>
<speed>5.840000</speed>
<extensions>
<speed>5.8</speed>
<temp>0.00</temp>
<bpm>0</bpm>
<rpm>0.00</rpm>
</extensions>
</trkpt>
<trkpt lat="63.942062378" lon="-20.920698166">
<ele>28.606445</ele>
<time>2012-07-27T16:00:58Z</time>
<speed>5.460000</speed>
<extensions>
<speed>5.5</speed>
<temp>0.00</temp>
<bpm>0</bpm>
<rpm>0.00</rpm>
</extensions>
</trkpt>
<trkpt lat="63.942047119" lon="-20.921213150">
<ele>28.457031</ele>
<time>2012-07-27T16:01:03Z</time>
<speed>4.890000</speed>
<extensions>
<speed>4.9</speed>
<temp>0.00</temp>
<bpm>0</bpm>
<rpm>0.00</rpm>
</extensions>
</trkpt>
<trkpt lat="63.942031860" lon="-20.921733856">
<ele>28.088379</ele>
<time>2012-07-27T16:01:08Z</time>
<speed>5.480000</speed>
<extensions>
<speed>5.5</speed>
<temp>0.00</temp>
<bpm>0</bpm>
<rpm>0.00</rpm>
</extensions>
</trkpt>
<trkpt lat="63.942016602" lon="-20.922325134">
<ele>28.381348</ele>
<time>2012-07-27T16:01:13Z</time>
<speed>5.940000</speed>
<extensions>
<speed>5.9</speed>
<temp>0.00</temp>
<bpm>0</bpm>
<rpm>0.00</rpm>
</extensions>
</trkpt>
<trkpt lat="63.942001343" lon="-20.922910690">
<ele>28.243164</ele>
<time>2012-07-27T16:01:18Z</time>
<speed>5.530000</speed>
<extensions>
<speed>5.5</speed>
<temp>0.00</temp>
<bpm>0</bpm>
<rpm>0.00</rpm>
</extensions>
</trkpt>
<trkpt lat="63.941989899" lon="-20.923433304">
<ele>28.676270</ele>
<time>2012-07-27T16:01:23Z</time>
<speed>4.850000</speed>
<extensions>
<speed>4.8</speed>
<temp>0.00</temp>
<bpm>0</bpm>
<rpm>0.00</rpm>
</extensions>
</trkpt>
<trkpt lat="63.941989899" lon="-20.923940659">
<ele>29.199707</ele>
<time>2012-07-27T16:01:28Z</time>
<speed>5.190000</speed>
<extensions>
<speed>5.2</speed>
<temp>0.00</temp>
<bpm>0</bpm>
<rpm>0.00</rpm>
</extensions>
</trkpt>
<trkpt lat="63.941978455" lon="-20.924434662">
<ele>29.621094</ele>
<time>2012-07-27T16:01:33Z</time>
<speed>4.500000</speed>
<extensions>
<speed>4.5</speed>
<temp>0.00</temp>
<bpm>0</bpm>
<rpm>0.00</rpm>
</extensions>
</trkpt>
<trkpt lat="63.941970825" lon="-20.924869537">
<ele>29.595703</ele>
<time>2012-07-27T16:01:38Z</time>
<speed>4.010000</speed>
<extensions>
<speed>4.0</speed>
<temp>0.00</temp>
<bpm>0</bpm>
<rpm>0.00</rpm>
</extensions>
</trkpt>
<trkpt lat="63.941947937" lon="-20.925327301">
<ele>29.475098</ele>
<time>2012-07-27T16:01:43Z</time>
<speed>4.740000</speed>
<extensions>
<speed>4.7</speed>
<temp>0.00</temp>
<bpm>0</bpm>
<rpm>0.00</rpm>
</extensions>
</trkpt>
<trkpt lat="63.941940308" lon="-20.925848007">
<ele>29.412109</ele>
<time>2012-07-27T16:01:48Z</time>
<speed>5.320000</speed>
<extensions>
<speed>5.3</speed>
<temp>0.00</temp>
<bpm>0</bpm>
<rpm>0.00</rpm>
</extensions>
</trkpt>
<trkpt lat="63.941921234" lon="-20.926406860">
<ele>29.294434</ele>
<time>2012-07-27T16:01:53Z</time>
<speed>5.230000</speed>
<extensions>
<speed>5.2</speed>
<temp>0.00</temp>
<bpm>0</bpm>
<rpm>0.00</rpm>
</extensions>
</trkpt>
<trkpt lat="63.941905975" lon="-20.926906586">
<ele>29.378418</ele>
<time>2012-07-27T16:01:58Z</time>
<speed>4.820000</speed>
<extensions>
<speed>4.8</speed>
<temp>0.00</temp>
<bpm>0</bpm>
<rpm>0.00</rpm>
</extensions>
</trkpt>
<trkpt lat="63.941886902" lon="-20.927442551">
<ele>28.698242</ele>
<time>2012-07-27T16:02:03Z</time>
<speed>5.600000</speed>
<extensions>
<speed>5.6</speed>
<temp>0.00</temp>
<bpm>0</bpm>
<rpm>0.00</rpm>
</extensions>
</trkpt>
<trkpt lat="63.941879272" lon="-20.928033829">
<ele>29.061523</ele>
<time>2012-07-27T16:02:08Z</time>
<speed>5.680000</speed>
<extensions>
<speed>5.7</speed>
<temp>0.00</temp>
<bpm>0</bpm>
<rpm>0.00</rpm>
</extensions>
</trkpt>
<trkpt lat="63.941867828" lon="-20.928567886">
<ele>28.965820</ele>
<time>2012-07-27T16:02:13Z</time>
<speed>5.140000</speed>
<extensions>
<speed>5.1</speed>
<temp>0.00</temp>
<bpm>0</bpm>
<rpm>0.00</rpm>
</extensions>
</trkpt>
<trkpt lat="63.941852570" lon="-20.929128647">
<ele>29.051270</ele>
<time>2012-07-27T16:02:18Z</time>
<speed>5.690000</speed>
<extensions>
<speed>5.7</speed>
<temp>0.00</temp>
<bpm>0</bpm>
<rpm>0.00</rpm>
</extensions>
</trkpt>
<trkpt lat="63.941833496" lon="-20.929716110">
<ele>28.365234</ele>
<time>2012-07-27T16:02:23Z</time>
<speed>5.850000</speed>
<extensions>
<speed>5.8</speed>
<temp>0.00</temp>
<bpm>0</bpm>
<rpm>0.00</rpm>
</extensions>
</trkpt>
<trkpt lat="63.941829681" lon="-20.930274963">
<ele>28.216797</ele>
<time>2012-07-27T16:02:28Z</time>
<speed>5.280000</speed>
<extensions>
<speed>5.3</speed>
<temp>0.00</temp>
<bpm>0</bpm>
<rpm>0.00</rpm>
</extensions>
</trkpt>
<trkpt lat="63.941814423" lon="-20.930816650">
<ele>28.349609</ele>
<time>2012-07-27T16:02:33Z</time>
<speed>5.160000</speed>
<extensions>
<speed>5.2</speed>
<temp>0.00</temp>
<bpm>0</bpm>
<rpm>0.00</rpm>
</extensions>
</trkpt>
<trkpt lat="63.941806793" lon="-20.931304932">
<ele>27.989746</ele>
<time>2012-07-27T16:02:38Z</time>
<speed>4.560000</speed>
<extensions>
<speed>4.6</speed>
<temp>0.00</temp>
<bpm>0</bpm>
<rpm>0.00</rpm>
</extensions>
</trkpt>
<trkpt lat="63.941795349" lon="-20.931804657">
<ele>28.185547</ele>
<time>2012-07-27T16:02:43Z</time>
<speed>5.250000</speed>
<extensions>
<speed>5.2</speed>
<temp>0.00</temp>
<bpm>0</bpm>
<rpm>0.00</rpm>
</extensions>
</trkpt>
<trkpt lat="63.941776276" lon="-20.932361603">
<ele>28.584961</ele>
<time>2012-07-27T16:02:48Z</time>
<speed>5.530000</speed>
<extensions>
<speed>5.5</speed>
<temp>0.00</temp>
<bpm>0</bpm>
<rpm>0.00</rpm>
</extensions>
</trkpt>
<trkpt lat="63.941764832" lon="-20.932903290">
<ele>28.530273</ele>
<time>2012-07-27T16:02:53Z</time>
<speed>4.920000</speed>
<extensions>
<speed>4.9</speed>
<temp>0.00</temp>
<bpm>0</bpm>
<rpm>0.00</rpm>
</extensions>
</trkpt>
<trkpt lat="63.941753387" lon="-20.933433533">
<ele>28.289551</ele>
<time>2012-07-27T16:02:58Z</time>
<speed>5.440000</speed>
<extensions>
<speed>5.4</speed>
<temp>0.00</temp>
<bpm>0</bpm>
<rpm>0.00</rpm>
</extensions>
</trkpt>
<trkpt lat="63.941738129" lon="-20.933996201">
<ele>27.587891</ele>
<time>2012-07-27T16:03:03Z</time>
<speed>5.640000</speed>
<extensions>
<speed>5.6</speed>
<temp>0.00</temp>
<bpm>0</bpm>
<rpm>0.00</rpm>
</extensions>
</trkpt>
<trkpt lat="63.941730499" lon="-20.934543610">
<ele>28.025391</ele>
<time>2012-07-27T16:03:08Z</time>
<speed>5.020000</speed>
<extensions>
<speed>5.0</speed>
<temp>0.00</temp>
<bpm>0</bpm>
<rpm>0.00</rpm>
</extensions>
</trkpt>
<trkpt lat="63.941719055" lon="-20.935049057">
<ele>27.975586</ele>
<time>2012-07-27T16:03:13Z</time>
<speed>5.050000</speed>
<extensions>
<speed>5.1</speed>
<temp>0.00</temp>
<bpm>0</bpm>
<rpm>0.00</rpm>
</extensions>
</trkpt>
<trkpt lat="63.941699982" lon="-20.935602188">
<ele>28.129395</ele>
<time>2012-07-27T16:03:18Z</time>
<speed>5.580000</speed>
<extensions>
<speed>5.6</speed>
<temp>0.00</temp>
<bpm>0</bpm>
<rpm>0.00</rpm>
</extensions>
</trkpt>
<trkpt lat="63.941684723" lon="-20.936168671">
<ele>27.611816</ele>
<time>2012-07-27T16:03:23Z</time>
<speed>5.340000</speed>
<extensions>
<speed>5.3</speed>
<temp>0.00</temp>
<bpm>0</bpm>
<rpm>0.00</rpm>
</extensions>
</trkpt>
<trkpt lat="63.941669464" lon="-20.936662674">
<ele>27.679199</ele>
<time>2012-07-27T16:03:28Z</time>
<speed>4.920000</speed>
<extensions>
<speed>4.9</speed>
<temp>0.00</temp>
<bpm>0</bpm>
<rpm>0.00</rpm>
</extensions>
</trkpt>
<trkpt lat="63.941650391" lon="-20.937189102">
<ele>27.632324</ele>
<time>2012-07-27T16:03:33Z</time>
<speed>5.620000</speed>
<extensions>
<speed>5.6</speed>
<temp>0.00</temp>
<bpm>0</bpm>
<rpm>0.00</rpm>
</extensions>
</trkpt>
<trkpt lat="63.941635132" lon="-20.937784195">
<ele>26.891113</ele>
<time>2012-07-27T16:03:38Z</time>
<speed>5.800000</speed>
<extensions>
<speed>5.8</speed>
<temp>0.00</temp>
<bpm>0</bpm>
<rpm>0.00</rpm>
</extensions>
</trkpt>
<trkpt lat="63.941608429" lon="-20.938337326">
<ele>25.919922</ele>
<time>2012-07-27T16:03:43Z</time>
<speed>5.300000</speed>
<extensions>
<speed>5.3</speed>
<temp>0.00</temp>
<bpm>0</bpm>
<rpm>0.00</rpm>
</extensions>
</trkpt>
<trkpt lat="63.941589355" lon="-20.938917160">
<ele>25.413574</ele>
<time>2012-07-27T16:03:48Z</time>
<speed>5.950000</speed>
<extensions>
<speed>6.0</speed>
<temp>0.00</temp>
<bpm>0</bpm>
<rpm>0.00</rpm>
</extensions>
</trkpt>
<trkpt lat="63.941566467" lon="-20.939538956">
<ele>25.134277</ele>
<time>2012-07-27T16:03:53Z</time>
<speed>5.940000</speed>
<extensions>
<speed>5.9</speed>
<temp>0.00</temp>
<bpm>0</bpm>
<rpm>0.00</rpm>
</extensions>
</trkpt>
<trkpt lat="63.941539764" lon="-20.940090179">
<ele>25.376953</ele>
<time>2012-07-27T16:03:58Z</time>
<speed>5.050000</speed>
<extensions>
<speed>5.1</speed>
<temp>0.00</temp>
<bpm>0</bpm>
<rpm>0.00</rpm>
</extensions>
</trkpt>
<trkpt lat="63.941505432" lon="-20.940601349">
<ele>24.942383</ele>
<time>2012-07-27T16:04:03Z</time>
<speed>5.220000</speed>
<extensions>
<speed>5.2</speed>
<temp>0.00</temp>
<bpm>0</bpm>
<rpm>0.00</rpm>
</extensions>
</trkpt>
<trkpt lat="63.941474915" lon="-20.941150665">
<ele>24.892578</ele>
<time>2012-07-27T16:04:08Z</time>
<speed>5.750000</speed>
<extensions>
<speed>5.8</speed>
<temp>0.00</temp>
<bpm>0</bpm>
<rpm>0.00</rpm>
</extensions>
</trkpt>
<trkpt lat="63.941440582" lon="-20.941698074">
<ele>25.156250</ele>
<time>2012-07-27T16:04:13Z</time>
<speed>5.000000</speed>
<extensions>
<speed>5.0</speed>
<temp>0.00</temp>
<bpm>0</bpm>
<rpm>0.00</rpm>
</extensions>
</trkpt>
<trkpt lat="63.941398621" lon="-20.942186356">
<ele>25.276367</ele>
<time>2012-07-27T16:04:18Z</time>
<speed>5.320000</speed>
<extensions>
<speed>5.3</speed>
<temp>0.00</temp>
<bpm>0</bpm>
<rpm>0.00</rpm>
</extensions>
</trkpt>
<trkpt lat="63.941356659" lon="-20.942749023">
<ele>25.211426</ele>
<time>2012-07-27T16:04:23Z</time>
<speed>5.880000</speed>
<extensions>
<speed>5.9</speed>
<temp>0.00</temp>
<bpm>0</bpm>
<rpm>0.00</rpm>
</extensions>
</trkpt>
<trkpt lat="63.941314697" lon="-20.943349838">
<ele>25.138672</ele>
<time>2012-07-27T16:04:28Z</time>
<speed>5.580000</speed>
<extensions>
<speed>5.6</speed>
<temp>0.00</temp>
<bpm>0</bpm>
<rpm>0.00</rpm>
</extensions>
</trkpt>
<trkpt lat="63.941272736" lon="-20.943895340">
<ele>24.899414</ele>
<time>2012-07-27T16:04:33Z</time>
<speed>5.660000</speed>
<extensions>
<speed>5.7</speed>
<temp>0.00</temp>
<bpm>0</bpm>
<rpm>0.00</rpm>
</extensions>
</trkpt>
<trkpt lat="63.941226959" lon="-20.944503784">
<ele>24.453613</ele>
<time>2012-07-27T16:04:38Z</time>
<speed>6.350000</speed>
<extensions>
<speed>6.4</speed>
<temp>0.00</temp>
<bpm>0</bpm>
<rpm>0.00</rpm>
</extensions>
</trkpt>
<trkpt lat="63.941177368" lon="-20.945178986">
<ele>24.711914</ele>
<time>2012-07-27T16:04:43Z</time>
<speed>6.740000</speed>
<extensions>
<speed>6.7</speed>
<temp>0.00</temp>
<bpm>0</bpm>
<rpm>0.00</rpm>
</extensions>
</trkpt>
<trkpt lat="63.941120148" lon="-20.945848465">
<ele>24.564941</ele>
<time>2012-07-27T16:04:48Z</time>
<speed>6.650000</speed>
<extensions>
<speed>6.7</speed>
<temp>0.00</temp>
<bpm>0</bpm>
<rpm>0.00</rpm>
</extensions>
</trkpt>
<trkpt lat="63.941062927" lon="-20.946540833">
<ele>24.533203</ele>
<time>2012-07-27T16:04:53Z</time>
<speed>7.170000</speed>
<extensions>
<speed>7.2</speed>
<temp>0.00</temp>
<bpm>0</bpm>
<rpm>0.00</rpm>
</extensions>
</trkpt>
<trkpt lat="63.941009521" lon="-20.947221756">
<ele>24.329590</ele>
<time>2012-07-27T16:04:58Z</time>
<speed>6.350000</speed>
<extensions>
<speed>6.4</speed>
<temp>0.00</temp>
<bpm>0</bpm>
<rpm>0.00</rpm>
</extensions>
</trkpt>
<trkpt lat="63.940967560" lon="-20.947820663">
<ele>24.661133</ele>
<time>2012-07-27T16:05:03Z</time>
<speed>5.600000</speed>
<extensions>
<speed>5.6</speed>
<temp>0.00</temp>
<bpm>0</bpm>
<rpm>0.00</rpm>
</extensions>
</trkpt>
<trkpt lat="63.940925598" lon="-20.948337555">
<ele>24.804199</ele>
<time>2012-07-27T16:05:08Z</time>
<speed>4.860000</speed>
<extensions>
<speed>4.9</speed>
<temp>0.00</temp>
<bpm>0</bpm>
<rpm>0.00</rpm>
</extensions>
</trkpt>
<trkpt lat="63.940887451" lon="-20.948799133">
<ele>24.966309</ele>
<time>2012-07-27T16:05:13Z</time>
<speed>4.350000</speed>
<extensions>
<speed>4.3</speed>
<temp>0.00</temp>
<bpm>0</bpm>
<rpm>0.00</rpm>
</extensions>
</trkpt>
<trkpt lat="63.940860748" lon="-20.949207306">
<ele>25.410156</ele>
<time>2012-07-27T16:05:18Z</time>
<speed>3.800000</speed>
<extensions>
<speed>3.8</speed>
<temp>0.00</temp>
<bpm>0</bpm>
<rpm>0.00</rpm>
</extensions>
</trkpt>
<trkpt lat="63.940834045" lon="-20.949577332">
<ele>25.407227</ele>
<time>2012-07-27T16:05:23Z</time>
<speed>4.210000</speed>
<extensions>
<speed>4.2</speed>
<temp>0.00</temp>
<bpm>0</bpm>
<rpm>0.00</rpm>
</extensions>
</trkpt>
<trkpt lat="63.940792084" lon="-20.950071335">
<ele>25.415527</ele>
<time>2012-07-27T16:05:28Z</time>
<speed>5.400000</speed>
<extensions>
<speed>5.4</speed>
<temp>0.00</temp>
<bpm>0</bpm>
<rpm>0.00</rpm>
</extensions>
</trkpt>
<trkpt lat="63.940738678" lon="-20.950656891">
<ele>25.341309</ele>
<time>2012-07-27T16:05:33Z</time>
<speed>6.080000</speed>
<extensions>
<speed>6.1</speed>
<temp>0.00</temp>
<bpm>0</bpm>
<rpm>0.00</rpm>
</extensions>
</trkpt>
<trkpt lat="63.940685272" lon="-20.951297760">
<ele>25.384277</ele>
<time>2012-07-27T16:05:38Z</time>
<speed>6.570000</speed>
<extensions>
<speed>6.6</speed>
<temp>0.00</temp>
<bpm>0</bpm>
<rpm>0.00</rpm>
</extensions>
</trkpt>
<trkpt lat="63.940643311" lon="-20.951931000">
<ele>25.343750</ele>
<time>2012-07-27T16:05:43Z</time>
<speed>5.950000</speed>
<extensions>
<speed>6.0</speed>
<temp>0.00</temp>
<bpm>0</bpm>
<rpm>0.00</rpm>
</extensions>
</trkpt>
<trkpt lat="63.940597534" lon="-20.952491760">
<ele>25.371094</ele>
<time>2012-07-27T16:05:48Z</time>
<speed>5.450000</speed>
<extensions>
<speed>5.5</speed>
<temp>0.00</temp>
<bpm>0</bpm>
<rpm>0.00</rpm>
</extensions>
</trkpt>
<trkpt lat="63.940563202" lon="-20.953006744">
<ele>25.265625</ele>
<time>2012-07-27T16:05:53Z</time>
<speed>5.000000</speed>
<extensions>
<speed>5.0</speed>
<temp>0.00</temp>
<bpm>0</bpm>
<rpm>0.00</rpm>
</extensions>
</trkpt>
<trkpt lat="63.940521240" lon="-20.953538895">
<ele>25.215820</ele>
<time>2012-07-27T16:05:58Z</time>
<speed>5.730000</speed>
<extensions>
<speed>5.7</speed>
<temp>0.00</temp>
<bpm>0</bpm>
<rpm>0.00</rpm>
</extensions>
</trkpt>
<trkpt lat="63.940471649" lon="-20.954154968">
<ele>25.307129</ele>
<time>2012-07-27T16:06:03Z</time>
<speed>6.360000</speed>
<extensions>
<speed>6.4</speed>
<temp>0.00</temp>
<bpm>0</bpm>
<rpm>0.00</rpm>
</extensions>
</trkpt>
<trkpt lat="63.940429688" lon="-20.954753876">
<ele>25.355469</ele>
<time>2012-07-27T16:06:08Z</time>
<speed>5.610000</speed>
<extensions>
<speed>5.6</speed>
<temp>0.00</temp>
<bpm>0</bpm>
<rpm>0.00</rpm>
</extensions>
</trkpt>
<trkpt lat="63.940380096" lon="-20.955289841">
<ele>25.055664</ele>
<time>2012-07-27T16:06:13Z</time>
<speed>4.890000</speed>
<extensions>
<speed>4.9</speed>
<temp>0.00</temp>
<bpm>0</bpm>
<rpm>0.00</rpm>
</extensions>
</trkpt>
<trkpt lat="63.940334320" lon="-20.955806732">
<ele>24.973633</ele>
<time>2012-07-27T16:06:18Z</time>
<speed>5.680000</speed>
<extensions>
<speed>5.7</speed>
<temp>0.00</temp>
<bpm>0</bpm>
<rpm>0.00</rpm>
</extensions>
</trkpt>
<trkpt lat="63.940292358" lon="-20.956388474">
<ele>24.956055</ele>
<time>2012-07-27T16:06:23Z</time>
<speed>5.540000</speed>
<extensions>
<speed>5.5</speed>
<temp>0.00</temp>
<bpm>0</bpm>
<rpm>0.00</rpm>
</extensions>
</trkpt>
<trkpt lat="63.940250397" lon="-20.956922531">
<ele>24.858398</ele>
<time>2012-07-27T16:06:28Z</time>
<speed>5.100000</speed>
<extensions>
<speed>5.1</speed>
<temp>0.00</temp>
<bpm>0</bpm>
<rpm>0.00</rpm>
</extensions>
</trkpt>
<trkpt lat="63.940208435" lon="-20.957466125">
<ele>24.788086</ele>
<time>2012-07-27T16:06:33Z</time>
<speed>5.910000</speed>
<extensions>
<speed>5.9</speed>
<temp>0.00</temp>
<bpm>0</bpm>
<rpm>0.00</rpm>
</extensions>
</trkpt>
<trkpt lat="63.940155029" lon="-20.958101273">
<ele>24.748535</ele>
<time>2012-07-27T16:06:38Z</time>
<speed>6.480000</speed>
<extensions>
<speed>6.5</speed>
<temp>0.00</temp>
<bpm>0</bpm>
<rpm>0.00</rpm>
</extensions>
</trkpt>
<trkpt lat="63.940109253" lon="-20.958705902">
<ele>24.283691</ele>
<time>2012-07-27T16:06:43Z</time>
<speed>5.750000</speed>
<extensions>
<speed>5.8</speed>
<temp>0.00</temp>
<bpm>0</bpm>
<rpm>0.00</rpm>
</extensions>
</trkpt>
<trkpt lat="63.940063477" lon="-20.959247589">
<ele>24.333496</ele>
<time>2012-07-27T16:06:48Z</time>
<speed>5.040000</speed>
<extensions>
<speed>5.0</speed>
<temp>0.00</temp>
<bpm>0</bpm>
<rpm>0.00</rpm>
</extensions>
</trkpt>
<trkpt lat="63.940025330" lon="-20.959774017">
<ele>24.286133</ele>
<time>2012-07-27T16:06:53Z</time>
<speed>5.620000</speed>
<extensions>
<speed>5.6</speed>
<temp>0.00</temp>
<bpm>0</bpm>
<rpm>0.00</rpm>
</extensions>
</trkpt>
<trkpt lat="63.939979553" lon="-20.960369110">
<ele>24.333496</ele>
<time>2012-07-27T16:06:58Z</time>
<speed>5.770000</speed>
<extensions>
<speed>5.8</speed>
<temp>0.00</temp>
<bpm>0</bpm>
<rpm>0.00</rpm>
</extensions>
</trkpt>
<trkpt lat="63.939929962" lon="-20.960926056">
<ele>23.923340</ele>
<time>2012-07-27T16:07:03Z</time>
<speed>5.330000</speed>
<extensions>
<speed>5.3</speed>
<temp>0.00</temp>
<bpm>0</bpm>
<rpm>0.00</rpm>
</extensions>
</trkpt>
<trkpt lat="63.939884186" lon="-20.961490631">
<ele>23.832031</ele>
<time>2012-07-27T16:07:08Z</time>
<speed>6.120000</speed>
<extensions>
<speed>6.1</speed>
<temp>0.00</temp>
<bpm>0</bpm>
<rpm>0.00</rpm>
</extensions>
</trkpt>
<trkpt lat="63.939838409" lon="-20.962112427">
<ele>23.860352</ele>
<time>2012-07-27T16:07:13Z</time>
<speed>5.920000</speed>
<extensions>
<speed>5.9</speed>
<temp>0.00</temp>
<bpm>0</bpm>
<rpm>0.00</rpm>
</extensions>
</trkpt>
<trkpt lat="63.939800262" lon="-20.962678909">
<ele>23.540527</ele>
<time>2012-07-27T16:07:18Z</time>
<speed>5.630000</speed>
<extensions>
<speed>5.6</speed>
<temp>0.00</temp>
<bpm>0</bpm>
<rpm>0.00</rpm>
</extensions>
</trkpt>
<trkpt lat="63.939750671" lon="-20.963277817">
<ele>23.295410</ele>
<time>2012-07-27T16:07:23Z</time>
<speed>6.180000</speed>
<extensions>
<speed>6.2</speed>
<temp>0.00</temp>
<bpm>0</bpm>
<rpm>0.00</rpm>
</extensions>
</trkpt>
<trkpt lat="63.939704895" lon="-20.963863373">
<ele>23.642090</ele>
<time>2012-07-27T16:07:28Z</time>
<speed>5.580000</speed>
<extensions>
<speed>5.6</speed>
<temp>0.00</temp>
<bpm>0</bpm>
<rpm>0.00</rpm>
</extensions>
</trkpt>
<trkpt lat="63.939666748" lon="-20.964384079">
<ele>23.824219</ele>
<time>2012-07-27T16:07:33Z</time>
<speed>4.880000</speed>
<extensions>
<speed>4.9</speed>
<temp>0.00</temp>
<bpm>0</bpm>
<rpm>0.00</rpm>
</extensions>
</trkpt>
<trkpt lat="63.939628601" lon="-20.964881897">
<ele>23.984375</ele>
<time>2012-07-27T16:07:38Z</time>
<speed>5.440000</speed>
<extensions>
<speed>5.4</speed>
<temp>0.00</temp>
<bpm>0</bpm>
<rpm>0.00</rpm>
</extensions>
</trkpt>
<trkpt lat="63.939579010" lon="-20.965461731">
<ele>23.492188</ele>
<time>2012-07-27T16:07:43Z</time>
<speed>5.860000</speed>
<extensions>
<speed>5.9</speed>
<temp>0.00</temp>
<bpm>0</bpm>
<rpm>0.00</rpm>
</extensions>
</trkpt>
<trkpt lat="63.939537048" lon="-20.966041565">
<ele>23.484375</ele>
<time>2012-07-27T16:07:48Z</time>
<speed>5.440000</speed>
<extensions>
<speed>5.4</speed>
<temp>0.00</temp>
<bpm>0</bpm>
<rpm>0.00</rpm>
</extensions>
</trkpt>
<trkpt lat="63.939498901" lon="-20.966560364">
<ele>23.129395</ele>
<time>2012-07-27T16:07:53Z</time>
<speed>4.960000</speed>
<extensions>
<speed>5.0</speed>
<temp>0.00</temp>
<bpm>0</bpm>
<rpm>0.00</rpm>
</extensions>
</trkpt>
<trkpt lat="63.939453125" lon="-20.967098236">
<ele>22.898926</ele>
<time>2012-07-27T16:07:58Z</time>
<speed>5.690000</speed>
<extensions>
<speed>5.7</speed>
<temp>0.00</temp>
<bpm>0</bpm>
<rpm>0.00</rpm>
</extensions>
</trkpt>
<trkpt lat="63.939403534" lon="-20.967691422">
<ele>22.474609</ele>
<time>2012-07-27T16:08:03Z</time>
<speed>6.110000</speed>
<extensions>
<speed>6.1</speed>
<temp>0.00</temp>
<bpm>0</bpm>
<rpm>0.00</rpm>
</extensions>
</trkpt>
<trkpt lat="63.939353943" lon="-20.968318939">
<ele>22.648438</ele>
<time>2012-07-27T16:08:08Z</time>
<speed>6.210000</speed>
<extensions>
<speed>6.2</speed>
<temp>0.00</temp>
<bpm>0</bpm>
<rpm>0.00</rpm>
</extensions>
</trkpt>
<trkpt lat="63.939308167" lon="-20.968914032">
<ele>22.608398</ele>
<time>2012-07-27T16:08:13Z</time>
<speed>5.590000</speed>
<extensions>
<speed>5.6</speed>
<temp>0.00</temp>
<bpm>0</bpm>
<rpm>0.00</rpm>
</extensions>
</trkpt>
<trkpt lat="63.939262390" lon="-20.969497681">
<ele>22.480469</ele>
<time>2012-07-27T16:08:18Z</time>
<speed>6.150000</speed>
<extensions>
<speed>6.1</speed>
<temp>0.00</temp>
<bpm>0</bpm>
<rpm>0.00</rpm>
</extensions>
</trkpt>
<trkpt lat="63.939220428" lon="-20.970085144">
<ele>22.107422</ele>
<time>2012-07-27T16:08:23Z</time>
<speed>5.420000</speed>
<extensions>
<speed>5.4</speed>
<temp>0.00</temp>
<bpm>0</bpm>
<rpm>0.00</rpm>
</extensions>
</trkpt>
<trkpt lat="63.939178467" lon="-20.970581055">
<ele>22.460938</ele>
<time>2012-07-27T16:08:28Z</time>
<speed>4.630000</speed>
<extensions>
<speed>4.6</speed>
<temp>0.00</temp>
<bpm>0</bpm>
<rpm>0.00</rpm>
</extensions>
</trkpt>
<trkpt lat="63.939140320" lon="-20.971012115">
<ele>22.321289</ele>
<time>2012-07-27T16:08:33Z</time>
<speed>4.310000</speed>
<extensions>
<speed>4.3</speed>
<temp>0.00</temp>
<bpm>0</bpm>
<rpm>0.00</rpm>
</extensions>
</trkpt>
<trkpt lat="63.939109802" lon="-20.971412659">
<ele>22.431152</ele>
<time>2012-07-27T16:08:38Z</time>
<speed>3.770000</speed>
<extensions>
<speed>3.8</speed>
<temp>0.00</temp>
<bpm>0</bpm>
<rpm>0.00</rpm>
</extensions>
</trkpt>
<trkpt lat="63.939079285" lon="-20.971807480">
<ele>22.534180</ele>
<time>2012-07-27T16:08:43Z</time>
<speed>3.840000</speed>
<extensions>
<speed>3.8</speed>
<temp>0.00</temp>
<bpm>0</bpm>
<rpm>0.00</rpm>
</extensions>
</trkpt>
<trkpt lat="63.939052582" lon="-20.972160339">
<ele>22.339844</ele>
<time>2012-07-27T16:08:48Z</time>
<speed>3.390000</speed>
<extensions>
<speed>3.4</speed>
<temp>0.00</temp>
<bpm>0</bpm>
<rpm>0.00</rpm>
</extensions>
</trkpt>
<trkpt lat="63.939018250" lon="-20.972513199">
<ele>22.383789</ele>
<time>2012-07-27T16:08:53Z</time>
<speed>3.950000</speed>
<extensions>
<speed>4.0</speed>
<temp>0.00</temp>
<bpm>0</bpm>
<rpm>0.00</rpm>
</extensions>
</trkpt>
<trkpt lat="63.938983917" lon="-20.972932816">
<ele>22.301270</ele>
<time>2012-07-27T16:08:58Z</time>
<speed>4.130000</speed>
<extensions>
<speed>4.1</speed>
<temp>0.00</temp>
<bpm>0</bpm>
<rpm>0.00</rpm>
</extensions>
</trkpt>
<trkpt lat="63.938961029" lon="-20.973329544">
<ele>22.234375</ele>
<time>2012-07-27T16:09:03Z</time>
<speed>3.670000</speed>
<extensions>
<speed>3.7</speed>
<temp>0.00</temp>
<bpm>0</bpm>
<rpm>0.00</rpm>
</extensions>
</trkpt>
<trkpt lat="63.938934326" lon="-20.973672867">
<ele>21.810059</ele>
<time>2012-07-27T16:09:08Z</time>
<speed>3.060000</speed>
<extensions>
<speed>3.1</speed>
<temp>0.00</temp>
<bpm>0</bpm>
<rpm>0.00</rpm>
</extensions>
</trkpt>
<trkpt lat="63.938899994" lon="-20.974029541">
<ele>21.838867</ele>
<time>2012-07-27T16:09:13Z</time>
<speed>3.900000</speed>
<extensions>
<speed>3.9</speed>
<temp>0.00</temp>
<bpm>0</bpm>
<rpm>0.00</rpm>
</extensions>
</trkpt>
<trkpt lat="63.938865662" lon="-20.974384308">
<ele>21.725098</ele>
<time>2012-07-27T16:09:18Z</time>
<speed>3.230000</speed>
<extensions>
<speed>3.2</speed>
<temp>0.00</temp>
<bpm>0</bpm>
<rpm>0.00</rpm>
</extensions>
</trkpt>
<trkpt lat="63.938846588" lon="-20.974672318">
<ele>21.880371</ele>
<time>2012-07-27T16:09:23Z</time>
<speed>2.670000</speed>
<extensions>
<speed>2.7</speed>
<temp>0.00</temp>
<bpm>0</bpm>
<rpm>0.00</rpm>
</extensions>
</trkpt>
<trkpt lat="63.938835144" lon="-20.974914551">
<ele>21.707520</ele>
<time>2012-07-27T16:09:28Z</time>
<speed>2.380000</speed>
<extensions>
<speed>2.4</speed>
<temp>0.00</temp>
<bpm>0</bpm>
<rpm>0.00</rpm>
</extensions>
</trkpt>
<trkpt lat="63.938850403" lon="-20.975183487">
<ele>21.557129</ele>
<time>2012-07-27T16:09:33Z</time>
<speed>2.240000</speed>
<extensions>
<speed>2.2</speed>
<temp>0.00</temp>
<bpm>0</bpm>
<rpm>0.00</rpm>
</extensions>
</trkpt>
<trkpt lat="63.938850403" lon="-20.975255966">
<ele>21.636230</ele>
<time>2012-07-27T16:09:38Z</time>
<speed>0.010000</speed>
<extensions>
<speed>0.0</speed>
<temp>0.00</temp>
<bpm>0</bpm>
<rpm>0.00</rpm>
</extensions>
</trkpt>
<trkpt lat="63.938850403" lon="-20.975254059">
<ele>21.602539</ele>
<time>2012-07-27T16:09:43Z</time>
<speed>0.010000</speed>
<extensions>
<speed>0.0</speed>
<temp>0.00</temp>
<bpm>0</bpm>
<rpm>0.00</rpm>
</extensions>
</trkpt>
<trkpt lat="63.938850403" lon="-20.975252151">
<ele>21.580078</ele>
<time>2012-07-27T16:09:48Z</time>
<speed>0.020000</speed>
<extensions>
<speed>0.0</speed>
<temp>0.00</temp>
<bpm>0</bpm>
<rpm>0.00</rpm>
</extensions>
</trkpt>
<trkpt lat="63.938850403" lon="-20.975252151">
<ele>21.562500</ele>
<time>2012-07-27T16:09:53Z</time>
<speed>0.020000</speed>
<extensions>
<speed>0.0</speed>
<temp>0.00</temp>
<bpm>0</bpm>
<rpm>0.00</rpm>
</extensions>
</trkpt>
<trkpt lat="63.938850403" lon="-20.975250244">
<ele>21.553223</ele>
<time>2012-07-27T16:09:58Z</time>
<extensions>
<speed>0.0</speed>
<temp>0.00</temp>
<bpm>0</bpm>
<rpm>0.00</rpm>
</extensions>
</trkpt>
<trkpt lat="63.938850403" lon="-20.975250244">
<ele>21.577637</ele>
<time>2012-07-27T16:10:03Z</time>
<speed>0.050000</speed>
<extensions>
<speed>0.1</speed>
<temp>0.00</temp>
<bpm>0</bpm>
<rpm>0.00</rpm>
</extensions>
</trkpt>
<trkpt lat="63.938854218" lon="-20.975257874">
<ele>21.572266</ele>
<time>2012-07-27T16:10:08Z</time>
<speed>0.010000</speed>
<extensions>
<speed>0.0</speed>
<temp>0.00</temp>
<bpm>0</bpm>
<rpm>0.00</rpm>
</extensions>
</trkpt>
<trkpt lat="63.938850403" lon="-20.975257874">
<ele>21.469238</ele>
<time>2012-07-27T16:10:13Z</time>
<extensions>
<speed>0.0</speed>
<temp>0.00</temp>
<bpm>0</bpm>
<rpm>0.00</rpm>
</extensions>
</trkpt>
<trkpt lat="63.938850403" lon="-20.975257874">
<ele>21.469238</ele>
<time>2012-07-27T16:10:18Z</time>
<speed>0.010000</speed>
<extensions>
<speed>0.0</speed>
<temp>0.00</temp>
<bpm>0</bpm>
<rpm>0.00</rpm>
</extensions>
</trkpt>
<trkpt lat="63.938850403" lon="-20.975257874">
<ele>21.470703</ele>
<time>2012-07-27T16:10:23Z</time>
<extensions>
<speed>0.0</speed>
<temp>0.00</temp>
<bpm>0</bpm>
<rpm>0.00</rpm>
</extensions>
</trkpt>
<trkpt lat="63.938850403" lon="-20.975255966">
<ele>21.464355</ele>
<time>2012-07-27T16:10:28Z</time>
<extensions>
<speed>0.0</speed>
<temp>0.00</temp>
<bpm>0</bpm>
<rpm>0.00</rpm>
</extensions>
</trkpt>
<trkpt lat="63.938850403" lon="-20.975259781">
<ele>21.494141</ele>
<time>2012-07-27T16:10:33Z</time>
<speed>0.020000</speed>
<extensions>
<speed>0.0</speed>
<temp>0.00</temp>
<bpm>0</bpm>
<rpm>0.00</rpm>
</extensions>
</trkpt>
<trkpt lat="63.938850403" lon="-20.975259781">
<ele>21.499512</ele>
<time>2012-07-27T16:10:38Z</time>
<extensions>
<speed>0.0</speed>
<temp>0.00</temp>
<bpm>0</bpm>
<rpm>0.00</rpm>
</extensions>
</trkpt>
<trkpt lat="63.938850403" lon="-20.975259781">
<ele>21.498535</ele>
<time>2012-07-27T16:10:43Z</time>
<extensions>
<speed>0.0</speed>
<temp>0.00</temp>
<bpm>0</bpm>
<rpm>0.00</rpm>
</extensions>
</trkpt>
<trkpt lat="63.938850403" lon="-20.975259781">
<ele>21.494141</ele>
<time>2012-07-27T16:10:48Z</time>
<extensions>
<speed>0.0</speed>
<temp>0.00</temp>
<bpm>0</bpm>
<rpm>0.00</rpm>
</extensions>
</trkpt>
<trkpt lat="63.938850403" lon="-20.975259781">
<ele>21.483398</ele>
<time>2012-07-27T16:10:53Z</time>
<speed>0.020000</speed>
<extensions>
<speed>0.0</speed>
<temp>0.00</temp>
<bpm>0</bpm>
<rpm>0.00</rpm>
</extensions>
</trkpt>
<trkpt lat="63.938846588" lon="-20.975259781">
<ele>21.480469</ele>
<time>2012-07-27T16:10:58Z</time>
<speed>0.020000</speed>
<extensions>
<speed>0.0</speed>
<temp>0.00</temp>
<bpm>0</bpm>
<rpm>0.00</rpm>
</extensions>
</trkpt>
<trkpt lat="63.938846588" lon="-20.975257874">
<ele>21.483398</ele>
<time>2012-07-27T16:11:03Z</time>
<speed>0.100000</speed>
<extensions>
<speed>0.1</speed>
<temp>0.00</temp>
<bpm>0</bpm>
<rpm>0.00</rpm>
</extensions>
</trkpt>
<trkpt lat="63.938846588" lon="-20.975259781">
<ele>21.474121</ele>
<time>2012-07-27T16:11:08Z</time>
<speed>0.010000</speed>
<extensions>
<speed>0.0</speed>
<temp>0.00</temp>
<bpm>0</bpm>
<rpm>0.00</rpm>
</extensions>
</trkpt>
<trkpt lat="63.938846588" lon="-20.975259781">
<ele>21.464355</ele>
<time>2012-07-27T16:11:13Z</time>
<extensions>
<speed>0.0</speed>
<temp>0.00</temp>
<bpm>0</bpm>
<rpm>0.00</rpm>
</extensions>
</trkpt>
<trkpt lat="63.938846588" lon="-20.975259781">
<ele>21.444824</ele>
<time>2012-07-27T16:11:18Z</time>
<extensions>
<speed>0.0</speed>
<temp>0.00</temp>
<bpm>0</bpm>
<rpm>0.00</rpm>
</extensions>
</trkpt>
<trkpt lat="63.938846588" lon="-20.975259781">
<ele>21.429688</ele>
<time>2012-07-27T16:11:23Z</time>
<speed>0.010000</speed>
<extensions>
<speed>0.0</speed>
<temp>0.00</temp>
<bpm>0</bpm>
<rpm>0.00</rpm>
</extensions>
</trkpt>
<trkpt lat="63.938846588" lon="-20.975259781">
<ele>21.415039</ele>
<time>2012-07-27T16:11:28Z</time>
<speed>0.020000</speed>
<extensions>
<speed>0.0</speed>
<temp>0.00</temp>
<bpm>0</bpm>
<rpm>0.00</rpm>
</extensions>
</trkpt>
<trkpt lat="63.938842773" lon="-20.975259781">
<ele>21.396484</ele>
<time>2012-07-27T16:11:33Z</time>
<extensions>
<speed>0.0</speed>
<temp>0.00</temp>
<bpm>0</bpm>
<rpm>0.00</rpm>
</extensions>
</trkpt>
<trkpt lat="63.938842773" lon="-20.975259781">
<ele>21.381836</ele>
<time>2012-07-27T16:11:38Z</time>
<extensions>
<speed>0.0</speed>
<temp>0.00</temp>
<bpm>0</bpm>
<rpm>0.00</rpm>
</extensions>
</trkpt>
<trkpt lat="63.938842773" lon="-20.975259781">
<ele>21.360352</ele>
<time>2012-07-27T16:11:43Z</time>
<extensions>
<speed>0.0</speed>
<temp>0.00</temp>
<bpm>0</bpm>
<rpm>0.00</rpm>
</extensions>
</trkpt>
<trkpt lat="63.938842773" lon="-20.975259781">
<ele>21.331543</ele>
<time>2012-07-27T16:11:48Z</time>
<extensions>
<speed>0.0</speed>
<temp>0.00</temp>
<bpm>0</bpm>
<rpm>0.00</rpm>
</extensions>
</trkpt>
<trkpt lat="63.938842773" lon="-20.975259781">
<ele>21.300293</ele>
<time>2012-07-27T16:11:53Z</time>
<extensions>
<speed>0.0</speed>
<temp>0.00</temp>
<bpm>0</bpm>
<rpm>0.00</rpm>
</extensions>
</trkpt>
<trkpt lat="63.938842773" lon="-20.975259781">
<ele>21.284180</ele>
<time>2012-07-27T16:11:58Z</time>
<extensions>
<speed>0.0</speed>
<temp>0.00</temp>
<bpm>0</bpm>
<rpm>0.00</rpm>
</extensions>
</trkpt>
<trkpt lat="63.938842773" lon="-20.975259781">
<ele>21.255859</ele>
<time>2012-07-27T16:12:03Z</time>
<extensions>
<speed>0.0</speed>
<temp>0.00</temp>
<bpm>0</bpm>
<rpm>0.00</rpm>
</extensions>
</trkpt>
<trkpt lat="63.938842773" lon="-20.975263596">
<ele>21.232910</ele>
<time>2012-07-27T16:12:08Z</time>
<speed>0.170000</speed>
<extensions>
<speed>0.2</speed>
<temp>0.00</temp>
<bpm>0</bpm>
<rpm>0.00</rpm>
</extensions>
</trkpt>
<trkpt lat="63.938777924" lon="-20.975234985">
<ele>20.257324</ele>
<time>2012-07-27T16:12:13Z</time>
<speed>2.300000</speed>
<extensions>
<speed>2.3</speed>
<temp>0.00</temp>
<bpm>0</bpm>
<rpm>0.00</rpm>
</extensions>
</trkpt>
<trkpt lat="63.938652039" lon="-20.975124359">
<ele>17.931641</ele>
<time>2012-07-27T16:12:18Z</time>
<speed>2.030000</speed>
<extensions>
<speed>2.0</speed>
<temp>0.00</temp>
<bpm>0</bpm>
<rpm>0.00</rpm>
</extensions>
</trkpt>
<trkpt lat="63.938560486" lon="-20.975063324">
<ele>18.831055</ele>
<time>2012-07-27T16:12:23Z</time>
<speed>2.160000</speed>
<extensions>
<speed>2.2</speed>
<temp>0.00</temp>
<bpm>0</bpm>
<rpm>0.00</rpm>
</extensions>
</trkpt>
<trkpt lat="63.938476563" lon="-20.974794388">
<ele>19.329102</ele>
<time>2012-07-27T16:12:28Z</time>
<speed>3.240000</speed>
<extensions>
<speed>3.2</speed>
<temp>0.00</temp>
<bpm>0</bpm>
<rpm>0.00</rpm>
</extensions>
</trkpt>
<trkpt lat="63.938457489" lon="-20.974449158">
<ele>20.552734</ele>
<time>2012-07-27T16:12:33Z</time>
<speed>2.610000</speed>
<extensions>
<speed>2.6</speed>
<temp>0.00</temp>
<bpm>0</bpm>
<rpm>0.00</rpm>
</extensions>
</trkpt>
<trkpt lat="63.938415527" lon="-20.974239349">
<ele>18.823730</ele>
<time>2012-07-27T16:12:38Z</time>
<speed>1.500000</speed>
<extensions>
<speed>1.5</speed>
<temp>0.00</temp>
<bpm>0</bpm>
<rpm>0.00</rpm>
</extensions>
</trkpt>
<trkpt lat="63.938415527" lon="-20.974151611">
<ele>18.338379</ele>
<time>2012-07-27T16:12:43Z</time>
<speed>0.230000</speed>
<extensions>
<speed>0.2</speed>
<temp>0.00</temp>
<bpm>0</bpm>
<rpm>0.00</rpm>
</extensions>
</trkpt>
<trkpt lat="63.938426971" lon="-20.974145889">
<ele>19.223145</ele>
<time>2012-07-27T16:12:48Z</time>
<speed>0.140000</speed>
<extensions>
<speed>0.1</speed>
<temp>0.00</temp>
<bpm>0</bpm>
<rpm>0.00</rpm>
</extensions>
</trkpt>
<trkpt lat="63.938430786" lon="-20.974140167">
<ele>18.858398</ele>
<time>2012-07-27T16:12:53Z</time>
<speed>0.010000</speed>
<extensions>
<speed>0.0</speed>
<temp>0.00</temp>
<bpm>0</bpm>
<rpm>0.00</rpm>
</extensions>
</trkpt>
<trkpt lat="63.938426971" lon="-20.974142075">
<ele>18.785156</ele>
<time>2012-07-27T16:12:58Z</time>
<speed>0.100000</speed>
<extensions>
<speed>0.1</speed>
<temp>0.00</temp>
<bpm>0</bpm>
<rpm>0.00</rpm>
</extensions>
</trkpt>
<trkpt lat="63.938426971" lon="-20.974143982">
<ele>18.847168</ele>
<time>2012-07-27T16:13:03Z</time>
<speed>0.020000</speed>
<extensions>
<speed>0.0</speed>
<temp>0.00</temp>
<bpm>0</bpm>
<rpm>0.00</rpm>
</extensions>
</trkpt>
<trkpt lat="63.938426971" lon="-20.974149704">
<ele>18.878906</ele>
<time>2012-07-27T16:13:08Z</time>
<speed>0.050000</speed>
<extensions>
<speed>0.1</speed>
<temp>0.00</temp>
<bpm>0</bpm>
<rpm>0.00</rpm>
</extensions>
</trkpt>
<trkpt lat="63.938426971" lon="-20.974151611">
<ele>19.016113</ele>
<time>2012-07-27T16:13:13Z</time>
<speed>0.020000</speed>
<extensions>
<speed>0.0</speed>
<temp>0.00</temp>
<bpm>0</bpm>
<rpm>0.00</rpm>
</extensions>
</trkpt>
<trkpt lat="63.938426971" lon="-20.974159241">
<ele>19.101074</ele>
<time>2012-07-27T16:13:18Z</time>
<speed>0.150000</speed>
<extensions>
<speed>0.2</speed>
<temp>0.00</temp>
<bpm>0</bpm>
<rpm>0.00</rpm>
</extensions>
</trkpt>
<trkpt lat="63.938426971" lon="-20.974172592">
<ele>19.210449</ele>
<time>2012-07-27T16:13:23Z</time>
<speed>0.020000</speed>
<extensions>
<speed>0.0</speed>
<temp>0.00</temp>
<bpm>0</bpm>
<rpm>0.00</rpm>
</extensions>
</trkpt>
<trkpt lat="63.938426971" lon="-20.974176407">
<ele>19.279785</ele>
<time>2012-07-27T16:13:28Z</time>
<speed>0.040000</speed>
<extensions>
<speed>0.0</speed>
<temp>0.00</temp>
<bpm>0</bpm>
<rpm>0.00</rpm>
</extensions>
</trkpt>
<trkpt lat="63.938426971" lon="-20.974180222">
<ele>19.355957</ele>
<time>2012-07-27T16:13:33Z</time>
<speed>0.010000</speed>
<extensions>
<speed>0.0</speed>
<temp>0.00</temp>
<bpm>0</bpm>
<rpm>0.00</rpm>
</extensions>
</trkpt>
<trkpt lat="63.938426971" lon="-20.974180222">
<ele>19.381348</ele>
<time>2012-07-27T16:13:38Z</time>
<speed>0.010000</speed>
<extensions>
<speed>0.0</speed>
<temp>0.00</temp>
<bpm>0</bpm>
<rpm>0.00</rpm>
</extensions>
</trkpt>
<trkpt lat="63.938426971" lon="-20.974180222">
<ele>19.397949</ele>
<time>2012-07-27T16:13:43Z</time>
<speed>0.030000</speed>
<extensions>
<speed>0.0</speed>
<temp>0.00</temp>
<bpm>0</bpm>
<rpm>0.00</rpm>
</extensions>
</trkpt>
<trkpt lat="63.938426971" lon="-20.974180222">
<ele>19.411133</ele>
<time>2012-07-27T16:13:48Z</time>
<speed>0.010000</speed>
<extensions>
<speed>0.0</speed>
<temp>0.00</temp>
<bpm>0</bpm>
<rpm>0.00</rpm>
</extensions>
</trkpt>
<trkpt lat="63.938426971" lon="-20.974180222">
<ele>19.424805</ele>
<time>2012-07-27T16:13:53Z</time>
<extensions>
<speed>0.0</speed>
<temp>0.00</temp>
<bpm>0</bpm>
<rpm>0.00</rpm>
</extensions>
</trkpt>
<trkpt lat="63.938426971" lon="-20.974180222">
<ele>19.437012</ele>
<time>2012-07-27T16:13:58Z</time>
<extensions>
<speed>0.0</speed>
<temp>0.00</temp>
<bpm>0</bpm>
<rpm>0.00</rpm>
</extensions>
</trkpt>
<trkpt lat="63.938426971" lon="-20.974182129">
<ele>19.449707</ele>
<time>2012-07-27T16:14:03Z</time>
<extensions>
<speed>0.0</speed>
<temp>0.00</temp>
<bpm>0</bpm>
<rpm>0.00</rpm>
</extensions>
</trkpt>
<trkpt lat="63.938426971" lon="-20.974182129">
<ele>19.457031</ele>
<time>2012-07-27T16:14:08Z</time>
<speed>0.010000</speed>
<extensions>
<speed>0.0</speed>
<temp>0.00</temp>
<bpm>0</bpm>
<rpm>0.00</rpm>
</extensions>
</trkpt>
<trkpt lat="63.938426971" lon="-20.974182129">
<ele>19.460938</ele>
<time>2012-07-27T16:14:13Z</time>
<speed>0.010000</speed>
<extensions>
<speed>0.0</speed>
<temp>0.00</temp>
<bpm>0</bpm>
<rpm>0.00</rpm>
</extensions>
</trkpt>
<trkpt lat="63.938426971" lon="-20.974182129">
<ele>19.461426</ele>
<time>2012-07-27T16:14:18Z</time>
<speed>0.010000</speed>
<extensions>
<speed>0.0</speed>
<temp>0.00</temp>
<bpm>0</bpm>
<rpm>0.00</rpm>
</extensions>
</trkpt>
<trkpt lat="63.938426971" lon="-20.974182129">
<ele>19.479980</ele>
<time>2012-07-27T16:14:23Z</time>
<speed>0.020000</speed>
<extensions>
<speed>0.0</speed>
<temp>0.00</temp>
<bpm>0</bpm>
<rpm>0.00</rpm>
</extensions>
</trkpt>
<trkpt lat="63.938426971" lon="-20.974182129">
<ele>19.500977</ele>
<time>2012-07-27T16:14:28Z</time>
<speed>0.010000</speed>
<extensions>
<speed>0.0</speed>
<temp>0.00</temp>
<bpm>0</bpm>
<rpm>0.00</rpm>
</extensions>
</trkpt>
<trkpt lat="63.938426971" lon="-20.974182129">
<ele>19.521484</ele>
<time>2012-07-27T16:14:33Z</time>
<speed>0.010000</speed>
<extensions>
<speed>0.0</speed>
<temp>0.00</temp>
<bpm>0</bpm>
<rpm>0.00</rpm>
</extensions>
</trkpt>
<trkpt lat="63.938426971" lon="-20.974182129">
<ele>19.534180</ele>
<time>2012-07-27T16:14:38Z</time>
<speed>0.010000</speed>
<extensions>
<speed>0.0</speed>
<temp>0.00</temp>
<bpm>0</bpm>
<rpm>0.00</rpm>
</extensions>
</trkpt>
<trkpt lat="63.938426971" lon="-20.974182129">
<ele>19.545410</ele>
<time>2012-07-27T16:14:43Z</time>
<extensions>
<speed>0.0</speed>
<temp>0.00</temp>
<bpm>0</bpm>
<rpm>0.00</rpm>
</extensions>
</trkpt>
<trkpt lat="63.938426971" lon="-20.974184036">
<ele>19.560547</ele>
<time>2012-07-27T16:14:48Z</time>
<speed>0.010000</speed>
<extensions>
<speed>0.0</speed>
<temp>0.00</temp>
<bpm>0</bpm>
<rpm>0.00</rpm>
</extensions>
</trkpt>
<trkpt lat="63.938426971" lon="-20.974184036">
<ele>19.564941</ele>
<time>2012-07-27T16:14:53Z</time>
<speed>0.010000</speed>
<extensions>
<speed>0.0</speed>
<temp>0.00</temp>
<bpm>0</bpm>
<rpm>0.00</rpm>
</extensions>
</trkpt>
<trkpt lat="63.938426971" lon="-20.974184036">
<ele>19.570801</ele>
<time>2012-07-27T16:14:58Z</time>
<speed>0.010000</speed>
<extensions>
<speed>0.0</speed>
<temp>0.00</temp>
<bpm>0</bpm>
<rpm>0.00</rpm>
</extensions>
</trkpt>
<trkpt lat="63.938426971" lon="-20.974182129">
<ele>19.556152</ele>
<time>2012-07-27T16:15:03Z</time>
<extensions>
<speed>0.0</speed>
<temp>0.00</temp>
<bpm>0</bpm>
<rpm>0.00</rpm>
</extensions>
</trkpt>
<trkpt lat="63.938426971" lon="-20.974184036">
<ele>19.575684</ele>
<time>2012-07-27T16:15:08Z</time>
<speed>0.010000</speed>
<extensions>
<speed>0.0</speed>
<temp>0.00</temp>
<bpm>0</bpm>
<rpm>0.00</rpm>
</extensions>
</trkpt>
<trkpt lat="63.938426971" lon="-20.974184036">
<ele>19.590820</ele>
<time>2012-07-27T16:15:13Z</time>
<extensions>
<speed>0.0</speed>
<temp>0.00</temp>
<bpm>0</bpm>
<rpm>0.00</rpm>
</extensions>
</trkpt>
<trkpt lat="63.938426971" lon="-20.974184036">
<ele>19.599609</ele>
<time>2012-07-27T16:15:18Z</time>
<extensions>
<speed>0.0</speed>
<temp>0.00</temp>
<bpm>0</bpm>
<rpm>0.00</rpm>
</extensions>
</trkpt>
<trkpt lat="63.938426971" lon="-20.974184036">
<ele>19.604492</ele>
<time>2012-07-27T16:15:23Z</time>
<speed>0.020000</speed>
<extensions>
<speed>0.0</speed>
<temp>0.00</temp>
<bpm>0</bpm>
<rpm>0.00</rpm>
</extensions>
</trkpt>
<trkpt lat="63.938426971" lon="-20.974184036">
<ele>19.612305</ele>
<time>2012-07-27T16:15:28Z</time>
<extensions>
<speed>0.0</speed>
<temp>0.00</temp>
<bpm>0</bpm>
<rpm>0.00</rpm>
</extensions>
</trkpt>
<trkpt lat="63.938426971" lon="-20.974184036">
<ele>19.612793</ele>
<time>2012-07-27T16:15:33Z</time>
<speed>0.010000</speed>
<extensions>
<speed>0.0</speed>
<temp>0.00</temp>
<bpm>0</bpm>
<rpm>0.00</rpm>
</extensions>
</trkpt>
<trkpt lat="63.938426971" lon="-20.974182129">
<ele>19.613281</ele>
<time>2012-07-27T16:15:38Z</time>
<speed>0.010000</speed>
<extensions>
<speed>0.0</speed>
<temp>0.00</temp>
<bpm>0</bpm>
<rpm>0.00</rpm>
</extensions>
</trkpt>
<trkpt lat="63.938426971" lon="-20.974182129">
<ele>19.602051</ele>
<time>2012-07-27T16:15:43Z</time>
<extensions>
<speed>0.0</speed>
<temp>0.00</temp>
<bpm>0</bpm>
<rpm>0.00</rpm>
</extensions>
</trkpt>
<trkpt lat="63.938426971" lon="-20.974182129">
<ele>19.594727</ele>
<time>2012-07-27T16:15:48Z</time>
<extensions>
<speed>0.0</speed>
<temp>0.00</temp>
<bpm>0</bpm>
<rpm>0.00</rpm>
</extensions>
</trkpt>
<trkpt lat="63.938426971" lon="-20.974182129">
<ele>19.592773</ele>
<time>2012-07-27T16:15:53Z</time>
<extensions>
<speed>0.0</speed>
<temp>0.00</temp>
<bpm>0</bpm>
<rpm>0.00</rpm>
</extensions>
</trkpt>
<trkpt lat="63.938426971" lon="-20.974182129">
<ele>19.600586</ele>
<time>2012-07-27T16:15:58Z</time>
<extensions>
<speed>0.0</speed>
<temp>0.00</temp>
<bpm>0</bpm>
<rpm>0.00</rpm>
</extensions>
</trkpt>
<trkpt lat="63.938426971" lon="-20.974182129">
<ele>19.610352</ele>
<time>2012-07-27T16:16:03Z</time>
<extensions>
<speed>0.0</speed>
<temp>0.00</temp>
<bpm>0</bpm>
<rpm>0.00</rpm>
</extensions>
</trkpt>
<trkpt lat="63.938426971" lon="-20.974182129">
<ele>19.615723</ele>
<time>2012-07-27T16:16:08Z</time>
<speed>0.010000</speed>
<extensions>
<speed>0.0</speed>
<temp>0.00</temp>
<bpm>0</bpm>
<rpm>0.00</rpm>
</extensions>
</trkpt>
<trkpt lat="63.938426971" lon="-20.974182129">
<ele>19.628418</ele>
<time>2012-07-27T16:16:13Z</time>
<speed>0.010000</speed>
<extensions>
<speed>0.0</speed>
<temp>0.00</temp>
<bpm>0</bpm>
<rpm>0.00</rpm>
</extensions>
</trkpt>
<trkpt lat="63.938426971" lon="-20.974182129">
<ele>19.645020</ele>
<time>2012-07-27T16:16:18Z</time>
<extensions>
<speed>0.0</speed>
<temp>0.00</temp>
<bpm>0</bpm>
<rpm>0.00</rpm>
</extensions>
</trkpt>
<trkpt lat="63.938423157" lon="-20.974182129">
<ele>19.669434</ele>
<time>2012-07-27T16:16:23Z</time>
<extensions>
<speed>0.0</speed>
<temp>0.00</temp>
<bpm>0</bpm>
<rpm>0.00</rpm>
</extensions>
</trkpt>
<trkpt lat="63.938423157" lon="-20.974184036">
<ele>19.691406</ele>
<time>2012-07-27T16:16:28Z</time>
<speed>0.010000</speed>
<extensions>
<speed>0.0</speed>
<temp>0.00</temp>
<bpm>0</bpm>
<rpm>0.00</rpm>
</extensions>
</trkpt>
<trkpt lat="63.938423157" lon="-20.974184036">
<ele>19.705078</ele>
<time>2012-07-27T16:16:33Z</time>
<speed>0.010000</speed>
<extensions>
<speed>0.0</speed>
<temp>0.00</temp>
<bpm>0</bpm>
<rpm>0.00</rpm>
</extensions>
</trkpt>
<trkpt lat="63.938423157" lon="-20.974184036">
<ele>19.718750</ele>
<time>2012-07-27T16:16:38Z</time>
<extensions>
<speed>0.0</speed>
<temp>0.00</temp>
<bpm>0</bpm>
<rpm>0.00</rpm>
</extensions>
</trkpt>
<trkpt lat="63.938423157" lon="-20.974184036">
<ele>19.735840</ele>
<time>2012-07-27T16:16:43Z</time>
<extensions>
<speed>0.0</speed>
<temp>0.00</temp>
<bpm>0</bpm>
<rpm>0.00</rpm>
</extensions>
</trkpt>
<trkpt lat="63.938423157" lon="-20.974184036">
<ele>19.751465</ele>
<time>2012-07-27T16:16:48Z</time>
<extensions>
<speed>0.0</speed>
<temp>0.00</temp>
<bpm>0</bpm>
<rpm>0.00</rpm>
</extensions>
</trkpt>
<trkpt lat="63.938423157" lon="-20.974184036">
<ele>19.771484</ele>
<time>2012-07-27T16:16:53Z</time>
<extensions>
<speed>0.0</speed>
<temp>0.00</temp>
<bpm>0</bpm>
<rpm>0.00</rpm>
</extensions>
</trkpt>
<trkpt lat="63.938423157" lon="-20.974185944">
<ele>19.803223</ele>
<time>2012-07-27T16:16:58Z</time>
<extensions>
<speed>0.0</speed>
<temp>0.00</temp>
<bpm>0</bpm>
<rpm>0.00</rpm>
</extensions>
</trkpt>
<trkpt lat="63.938423157" lon="-20.974185944">
<ele>19.827637</ele>
<time>2012-07-27T16:17:03Z</time>
<speed>0.010000</speed>
<extensions>
<speed>0.0</speed>
<temp>0.00</temp>
<bpm>0</bpm>
<rpm>0.00</rpm>
</extensions>
</trkpt>
<trkpt lat="63.938423157" lon="-20.974185944">
<ele>19.852051</ele>
<time>2012-07-27T16:17:08Z</time>
<speed>0.010000</speed>
<extensions>
<speed>0.0</speed>
<temp>0.00</temp>
<bpm>0</bpm>
<rpm>0.00</rpm>
</extensions>
</trkpt>
<trkpt lat="63.938423157" lon="-20.974185944">
<ele>19.868164</ele>
<time>2012-07-27T16:17:13Z</time>
<speed>0.020000</speed>
<extensions>
<speed>0.0</speed>
<temp>0.00</temp>
<bpm>0</bpm>
<rpm>0.00</rpm>
</extensions>
</trkpt>
<trkpt lat="63.938423157" lon="-20.974185944">
<ele>19.892578</ele>
<time>2012-07-27T16:17:18Z</time>
<extensions>
<speed>0.0</speed>
<temp>0.00</temp>
<bpm>0</bpm>
<rpm>0.00</rpm>
</extensions>
</trkpt>
<trkpt lat="63.938423157" lon="-20.974185944">
<ele>19.948242</ele>
<time>2012-07-27T16:17:23Z</time>
<speed>0.050000</speed>
<extensions>
<speed>0.1</speed>
<temp>0.00</temp>
<bpm>0</bpm>
<rpm>0.00</rpm>
</extensions>
</trkpt>
<trkpt lat="63.938423157" lon="-20.974187851">
<ele>19.983398</ele>
<time>2012-07-27T16:17:28Z</time>
<speed>0.010000</speed>
<extensions>
<speed>0.0</speed>
<temp>0.00</temp>
<bpm>0</bpm>
<rpm>0.00</rpm>
</extensions>
</trkpt>
<trkpt lat="63.938423157" lon="-20.974187851">
<ele>20.006348</ele>
<time>2012-07-27T16:17:33Z</time>
<speed>0.010000</speed>
<extensions>
<speed>0.0</speed>
<temp>0.00</temp>
<bpm>0</bpm>
<rpm>0.00</rpm>
</extensions>
</trkpt>
<trkpt lat="63.938423157" lon="-20.974187851">
<ele>20.027344</ele>
<time>2012-07-27T16:17:38Z</time>
<extensions>
<speed>0.0</speed>
<temp>0.00</temp>
<bpm>0</bpm>
<rpm>0.00</rpm>
</extensions>
</trkpt>
<trkpt lat="63.938423157" lon="-20.974187851">
<ele>20.025391</ele>
<time>2012-07-27T16:17:43Z</time>
<extensions>
<speed>0.0</speed>
<temp>0.00</temp>
<bpm>0</bpm>
<rpm>0.00</rpm>
</extensions>
</trkpt>
<trkpt lat="63.938423157" lon="-20.974185944">
<ele>20.029785</ele>
<time>2012-07-27T16:17:48Z</time>
<speed>0.010000</speed>
<extensions>
<speed>0.0</speed>
<temp>0.00</temp>
<bpm>0</bpm>
<rpm>0.00</rpm>
</extensions>
</trkpt>
<trkpt lat="63.938423157" lon="-20.974185944">
<ele>20.059082</ele>
<time>2012-07-27T16:17:53Z</time>
<extensions>
<speed>0.0</speed>
<temp>0.00</temp>
<bpm>0</bpm>
<rpm>0.00</rpm>
</extensions>
</trkpt>
<trkpt lat="63.938423157" lon="-20.974185944">
<ele>20.106445</ele>
<time>2012-07-27T16:17:58Z</time>
<speed>0.040000</speed>
<extensions>
<speed>0.0</speed>
<temp>0.00</temp>
<bpm>0</bpm>
<rpm>0.00</rpm>
</extensions>
</trkpt>
<trkpt lat="63.938423157" lon="-20.974185944">
<ele>20.153809</ele>
<time>2012-07-27T16:18:03Z</time>
<speed>0.010000</speed>
<extensions>
<speed>0.0</speed>
<temp>0.00</temp>
<bpm>0</bpm>
<rpm>0.00</rpm>
</extensions>
</trkpt>
<trkpt lat="63.938423157" lon="-20.974185944">
<ele>20.174805</ele>
<time>2012-07-27T16:18:08Z</time>
<extensions>
<speed>0.0</speed>
<temp>0.00</temp>
<bpm>0</bpm>
<rpm>0.00</rpm>
</extensions>
</trkpt>
<trkpt lat="63.938423157" lon="-20.974185944">
<ele>20.188965</ele>
<time>2012-07-27T16:18:13Z</time>
<extensions>
<speed>0.0</speed>
<temp>0.00</temp>
<bpm>0</bpm>
<rpm>0.00</rpm>
</extensions>
</trkpt>
<trkpt lat="63.938423157" lon="-20.974185944">
<ele>20.200684</ele>
<time>2012-07-27T16:18:18Z</time>
<extensions>
<speed>0.0</speed>
<temp>0.00</temp>
<bpm>0</bpm>
<rpm>0.00</rpm>
</extensions>
</trkpt>
<trkpt lat="63.938423157" lon="-20.974185944">
<ele>20.210938</ele>
<time>2012-07-27T16:18:23Z</time>
<speed>0.010000</speed>
<extensions>
<speed>0.0</speed>
<temp>0.00</temp>
<bpm>0</bpm>
<rpm>0.00</rpm>
</extensions>
</trkpt>
<trkpt lat="63.938423157" lon="-20.974185944">
<ele>20.213379</ele>
<time>2012-07-27T16:18:28Z</time>
<extensions>
<speed>0.0</speed>
<temp>0.00</temp>
<bpm>0</bpm>
<rpm>0.00</rpm>
</extensions>
</trkpt>
<trkpt lat="63.938423157" lon="-20.974184036">
<ele>20.216797</ele>
<time>2012-07-27T16:18:33Z</time>
<speed>0.010000</speed>
<extensions>
<speed>0.0</speed>
<temp>0.00</temp>
<bpm>0</bpm>
<rpm>0.00</rpm>
</extensions>
</trkpt>
<trkpt lat="63.938423157" lon="-20.974184036">
<ele>20.218262</ele>
<time>2012-07-27T16:18:38Z</time>
<extensions>
<speed>0.0</speed>
<temp>0.00</temp>
<bpm>0</bpm>
<rpm>0.00</rpm>
</extensions>
</trkpt>
<trkpt lat="63.938423157" lon="-20.974184036">
<ele>20.234863</ele>
<time>2012-07-27T16:18:43Z</time>
<extensions>
<speed>0.0</speed>
<temp>0.00</temp>
<bpm>0</bpm>
<rpm>0.00</rpm>
</extensions>
</trkpt>
<trkpt lat="63.938423157" lon="-20.974184036">
<ele>20.246094</ele>
<time>2012-07-27T16:18:48Z</time>
<extensions>
<speed>0.0</speed>
<temp>0.00</temp>
<bpm>0</bpm>
<rpm>0.00</rpm>
</extensions>
</trkpt>
<trkpt lat="63.938419342" lon="-20.974184036">
<ele>20.261230</ele>
<time>2012-07-27T16:18:53Z</time>
<extensions>
<speed>0.0</speed>
<temp>0.00</temp>
<bpm>0</bpm>
<rpm>0.00</rpm>
</extensions>
</trkpt>
<trkpt lat="63.938419342" lon="-20.974184036">
<ele>20.277344</ele>
<time>2012-07-27T16:18:58Z</time>
<extensions>
<speed>0.0</speed>
<temp>0.00</temp>
<bpm>0</bpm>
<rpm>0.00</rpm>
</extensions>
</trkpt>
<trkpt lat="63.938419342" lon="-20.974184036">
<ele>20.289551</ele>
<time>2012-07-27T16:19:03Z</time>
<extensions>
<speed>0.0</speed>
<temp>0.00</temp>
<bpm>0</bpm>
<rpm>0.00</rpm>
</extensions>
</trkpt>
<trkpt lat="63.938419342" lon="-20.974184036">
<ele>20.308594</ele>
<time>2012-07-27T16:19:08Z</time>
<extensions>
<speed>0.0</speed>
<temp>0.00</temp>
<bpm>0</bpm>
<rpm>0.00</rpm>
</extensions>
</trkpt>
<trkpt lat="63.938419342" lon="-20.974184036">
<ele>20.338867</ele>
<time>2012-07-27T16:19:13Z</time>
<extensions>
<speed>0.0</speed>
<temp>0.00</temp>
<bpm>0</bpm>
<rpm>0.00</rpm>
</extensions>
</trkpt>
<trkpt lat="63.938419342" lon="-20.974184036">
<ele>20.370117</ele>
<time>2012-07-27T16:19:18Z</time>
<extensions>
<speed>0.0</speed>
<temp>0.00</temp>
<bpm>0</bpm>
<rpm>0.00</rpm>
</extensions>
</trkpt>
<trkpt lat="63.938419342" lon="-20.974184036">
<ele>20.390625</ele>
<time>2012-07-27T16:19:23Z</time>
<extensions>
<speed>0.0</speed>
<temp>0.00</temp>
<bpm>0</bpm>
<rpm>0.00</rpm>
</extensions>
</trkpt>
<trkpt lat="63.938419342" lon="-20.974184036">
<ele>20.411133</ele>
<time>2012-07-27T16:19:28Z</time>
<extensions>
<speed>0.0</speed>
<temp>0.00</temp>
<bpm>0</bpm>
<rpm>0.00</rpm>
</extensions>
</trkpt>
<trkpt lat="63.938419342" lon="-20.974184036">
<ele>20.424316</ele>
<time>2012-07-27T16:19:33Z</time>
<extensions>
<speed>0.0</speed>
<temp>0.00</temp>
<bpm>0</bpm>
<rpm>0.00</rpm>
</extensions>
</trkpt>
<trkpt lat="63.938419342" lon="-20.974184036">
<ele>20.441895</ele>
<time>2012-07-27T16:19:38Z</time>
<extensions>
<speed>0.0</speed>
<temp>0.00</temp>
<bpm>0</bpm>
<rpm>0.00</rpm>
</extensions>
</trkpt>
<trkpt lat="63.938419342" lon="-20.974184036">
<ele>20.463379</ele>
<time>2012-07-27T16:19:43Z</time>
<speed>0.060000</speed>
<extensions>
<speed>0.1</speed>
<temp>0.00</temp>
<bpm>0</bpm>
<rpm>0.00</rpm>
</extensions>
</trkpt>
<trkpt lat="63.938419342" lon="-20.974184036">
<ele>20.473633</ele>
<time>2012-07-27T16:19:48Z</time>
<speed>0.010000</speed>
<extensions>
<speed>0.0</speed>
<temp>0.00</temp>
<bpm>0</bpm>
<rpm>0.00</rpm>
</extensions>
</trkpt>
<trkpt lat="63.938419342" lon="-20.974184036">
<ele>20.483887</ele>
<time>2012-07-27T16:19:53Z</time>
<speed>0.020000</speed>
<extensions>
<speed>0.0</speed>
<temp>0.00</temp>
<bpm>0</bpm>
<rpm>0.00</rpm>
</extensions>
</trkpt>
<trkpt lat="63.938419342" lon="-20.974182129">
<ele>20.492676</ele>
<time>2012-07-27T16:19:58Z</time>
<extensions>
<speed>0.0</speed>
<temp>0.00</temp>
<bpm>0</bpm>
<rpm>0.00</rpm>
</extensions>
</trkpt>
<trkpt lat="63.938419342" lon="-20.974182129">
<ele>20.499512</ele>
<time>2012-07-27T16:20:03Z</time>
<speed>0.010000</speed>
<extensions>
<speed>0.0</speed>
<temp>0.00</temp>
<bpm>0</bpm>
<rpm>0.00</rpm>
</extensions>
</trkpt>
<trkpt lat="63.938419342" lon="-20.974182129">
<ele>20.500977</ele>
<time>2012-07-27T16:20:08Z</time>
<speed>0.010000</speed>
<extensions>
<speed>0.0</speed>
<temp>0.00</temp>
<bpm>0</bpm>
<rpm>0.00</rpm>
</extensions>
</trkpt>
<trkpt lat="63.938419342" lon="-20.974180222">
<ele>20.510742</ele>
<time>2012-07-27T16:20:13Z</time>
<extensions>
<speed>0.0</speed>
<temp>0.00</temp>
<bpm>0</bpm>
<rpm>0.00</rpm>
</extensions>
</trkpt>
<trkpt lat="63.938419342" lon="-20.974180222">
<ele>20.536621</ele>
<time>2012-07-27T16:20:18Z</time>
<extensions>
<speed>0.0</speed>
<temp>0.00</temp>
<bpm>0</bpm>
<rpm>0.00</rpm>
</extensions>
</trkpt>
<trkpt lat="63.938419342" lon="-20.974180222">
<ele>20.565430</ele>
<time>2012-07-27T16:20:23Z</time>
<speed>0.010000</speed>
<extensions>
<speed>0.0</speed>
<temp>0.00</temp>
<bpm>0</bpm>
<rpm>0.00</rpm>
</extensions>
</trkpt>
<trkpt lat="63.938419342" lon="-20.974180222">
<ele>20.579102</ele>
<time>2012-07-27T16:20:28Z</time>
<speed>0.010000</speed>
<extensions>
<speed>0.0</speed>
<temp>0.00</temp>
<bpm>0</bpm>
<rpm>0.00</rpm>
</extensions>
</trkpt>
<trkpt lat="63.938419342" lon="-20.974180222">
<ele>20.591797</ele>
<time>2012-07-27T16:20:33Z</time>
<extensions>
<speed>0.0</speed>
<temp>0.00</temp>
<bpm>0</bpm>
<rpm>0.00</rpm>
</extensions>
</trkpt>
<trkpt lat="63.938419342" lon="-20.974178314">
<ele>20.602539</ele>
<time>2012-07-27T16:20:38Z</time>
<extensions>
<speed>0.0</speed>
<temp>0.00</temp>
<bpm>0</bpm>
<rpm>0.00</rpm>
</extensions>
</trkpt>
<trkpt lat="63.938419342" lon="-20.974178314">
<ele>20.618164</ele>
<time>2012-07-27T16:20:43Z</time>
<extensions>
<speed>0.0</speed>
<temp>0.00</temp>
<bpm>0</bpm>
<rpm>0.00</rpm>
</extensions>
</trkpt>
<trkpt lat="63.938419342" lon="-20.974178314">
<ele>20.627930</ele>
<time>2012-07-27T16:20:48Z</time>
<extensions>
<speed>0.0</speed>
<temp>0.00</temp>
<bpm>0</bpm>
<rpm>0.00</rpm>
</extensions>
</trkpt>
<trkpt lat="63.938419342" lon="-20.974178314">
<ele>20.640137</ele>
<time>2012-07-27T16:20:53Z</time>
<extensions>
<speed>0.0</speed>
<temp>0.00</temp>
<bpm>0</bpm>
<rpm>0.00</rpm>
</extensions>
</trkpt>
<trkpt lat="63.938419342" lon="-20.974176407">
<ele>20.649902</ele>
<time>2012-07-27T16:20:58Z</time>
<extensions>
<speed>0.0</speed>
<temp>0.00</temp>
<bpm>0</bpm>
<rpm>0.00</rpm>
</extensions>
</trkpt>
<trkpt lat="63.938419342" lon="-20.974176407">
<ele>20.666504</ele>
<time>2012-07-27T16:21:03Z</time>
<extensions>
<speed>0.0</speed>
<temp>0.00</temp>
<bpm>0</bpm>
<rpm>0.00</rpm>
</extensions>
</trkpt>
<trkpt lat="63.938419342" lon="-20.974176407">
<ele>20.692383</ele>
<time>2012-07-27T16:21:08Z</time>
<extensions>
<speed>0.0</speed>
<temp>0.00</temp>
<bpm>0</bpm>
<rpm>0.00</rpm>
</extensions>
</trkpt>
<trkpt lat="63.938419342" lon="-20.974176407">
<ele>20.704590</ele>
<time>2012-07-27T16:21:13Z</time>
<speed>0.010000</speed>
<extensions>
<speed>0.0</speed>
<temp>0.00</temp>
<bpm>0</bpm>
<rpm>0.00</rpm>
</extensions>
</trkpt>
<trkpt lat="63.938419342" lon="-20.974176407">
<ele>20.712402</ele>
<time>2012-07-27T16:21:18Z</time>
<extensions>
<speed>0.0</speed>
<temp>0.00</temp>
<bpm>0</bpm>
<rpm>0.00</rpm>
</extensions>
</trkpt>
<trkpt lat="63.938419342" lon="-20.974176407">
<ele>20.723145</ele>
<time>2012-07-27T16:21:23Z</time>
<extensions>
<speed>0.0</speed>
<temp>0.00</temp>
<bpm>0</bpm>
<rpm>0.00</rpm>
</extensions>
</trkpt>
<trkpt lat="63.938419342" lon="-20.974174500">
<ele>20.737793</ele>
<time>2012-07-27T16:21:28Z</time>
<speed>0.010000</speed>
<extensions>
<speed>0.0</speed>
<temp>0.00</temp>
<bpm>0</bpm>
<rpm>0.00</rpm>
</extensions>
</trkpt>
<trkpt lat="63.938419342" lon="-20.974174500">
<ele>20.748535</ele>
<time>2012-07-27T16:21:33Z</time>
<speed>0.020000</speed>
<extensions>
<speed>0.0</speed>
<temp>0.00</temp>
<bpm>0</bpm>
<rpm>0.00</rpm>
</extensions>
</trkpt>
<trkpt lat="63.938419342" lon="-20.974174500">
<ele>20.764160</ele>
<time>2012-07-27T16:21:38Z</time>
<extensions>
<speed>0.0</speed>
<temp>0.00</temp>
<bpm>0</bpm>
<rpm>0.00</rpm>
</extensions>
</trkpt>
<trkpt lat="63.938419342" lon="-20.974174500">
<ele>20.776855</ele>
<time>2012-07-27T16:21:43Z</time>
<extensions>
<speed>0.0</speed>
<temp>0.00</temp>
<bpm>0</bpm>
<rpm>0.00</rpm>
</extensions>
</trkpt>
<trkpt lat="63.938419342" lon="-20.974174500">
<ele>20.775391</ele>
<time>2012-07-27T16:21:48Z</time>
<speed>0.050000</speed>
<extensions>
<speed>0.1</speed>
<temp>0.00</temp>
<bpm>0</bpm>
<rpm>0.00</rpm>
</extensions>
</trkpt>
<trkpt lat="63.938419342" lon="-20.974174500">
<ele>20.776367</ele>
<time>2012-07-27T16:21:53Z</time>
<extensions>
<speed>0.0</speed>
<temp>0.00</temp>
<bpm>0</bpm>
<rpm>0.00</rpm>
</extensions>
</trkpt>
<trkpt lat="63.938419342" lon="-20.974174500">
<ele>20.775879</ele>
<time>2012-07-27T16:21:58Z</time>
<extensions>
<speed>0.0</speed>
<temp>0.00</temp>
<bpm>0</bpm>
<rpm>0.00</rpm>
</extensions>
</trkpt>
<trkpt lat="63.938419342" lon="-20.974174500">
<ele>20.770508</ele>
<time>2012-07-27T16:22:03Z</time>
<speed>0.020000</speed>
<extensions>
<speed>0.0</speed>
<temp>0.00</temp>
<bpm>0</bpm>
<rpm>0.00</rpm>
</extensions>
</trkpt>
<trkpt lat="63.938419342" lon="-20.974174500">
<ele>20.764648</ele>
<time>2012-07-27T16:22:08Z</time>
<extensions>
<speed>0.0</speed>
<temp>0.00</temp>
<bpm>0</bpm>
<rpm>0.00</rpm>
</extensions>
</trkpt>
<trkpt lat="63.938419342" lon="-20.974174500">
<ele>20.759766</ele>
<time>2012-07-27T16:22:13Z</time>
<speed>0.010000</speed>
<extensions>
<speed>0.0</speed>
<temp>0.00</temp>
<bpm>0</bpm>
<rpm>0.00</rpm>
</extensions>
</trkpt>
<trkpt lat="63.938419342" lon="-20.974174500">
<ele>20.759766</ele>
<time>2012-07-27T16:22:18Z</time>
<extensions>
<speed>0.0</speed>
<temp>0.00</temp>
<bpm>0</bpm>
<rpm>0.00</rpm>
</extensions>
</trkpt>
<trkpt lat="63.938419342" lon="-20.974174500">
<ele>20.761230</ele>
<time>2012-07-27T16:22:23Z</time>
<speed>0.010000</speed>
<extensions>
<speed>0.0</speed>
<temp>0.00</temp>
<bpm>0</bpm>
<rpm>0.00</rpm>
</extensions>
</trkpt>
<trkpt lat="63.938419342" lon="-20.974174500">
<ele>20.763672</ele>
<time>2012-07-27T16:22:28Z</time>
<speed>0.080000</speed>
<extensions>
<speed>0.1</speed>
<temp>0.00</temp>
<bpm>0</bpm>
<rpm>0.00</rpm>
</extensions>
</trkpt>
<trkpt lat="63.938419342" lon="-20.974174500">
<ele>20.768066</ele>
<time>2012-07-27T16:22:33Z</time>
<speed>0.010000</speed>
<extensions>
<speed>0.0</speed>
<temp>0.00</temp>
<bpm>0</bpm>
<rpm>0.00</rpm>
</extensions>
</trkpt>
<trkpt lat="63.938419342" lon="-20.974174500">
<ele>20.767090</ele>
<time>2012-07-27T16:22:38Z</time>
<extensions>
<speed>0.0</speed>
<temp>0.00</temp>
<bpm>0</bpm>
<rpm>0.00</rpm>
</extensions>
</trkpt>
<trkpt lat="63.938419342" lon="-20.974174500">
<ele>20.768555</ele>
<time>2012-07-27T16:22:43Z</time>
<extensions>
<speed>0.0</speed>
<temp>0.00</temp>
<bpm>0</bpm>
<rpm>0.00</rpm>
</extensions>
</trkpt>
<trkpt lat="63.938419342" lon="-20.974176407">
<ele>20.779297</ele>
<time>2012-07-27T16:22:48Z</time>
<extensions>
<speed>0.0</speed>
<temp>0.00</temp>
<bpm>0</bpm>
<rpm>0.00</rpm>
</extensions>
</trkpt>
<trkpt lat="63.938419342" lon="-20.974176407">
<ele>20.786133</ele>
<time>2012-07-27T16:22:53Z</time>
<extensions>
<speed>0.0</speed>
<temp>0.00</temp>
<bpm>0</bpm>
<rpm>0.00</rpm>
</extensions>
</trkpt>
<trkpt lat="63.938419342" lon="-20.974176407">
<ele>20.785645</ele>
<time>2012-07-27T16:22:58Z</time>
<extensions>
<speed>0.0</speed>
<temp>0.00</temp>
<bpm>0</bpm>
<rpm>0.00</rpm>
</extensions>
</trkpt>
<trkpt lat="63.938419342" lon="-20.974176407">
<ele>20.786133</ele>
<time>2012-07-27T16:23:03Z</time>
<speed>0.010000</speed>
<extensions>
<speed>0.0</speed>
<temp>0.00</temp>
<bpm>0</bpm>
<rpm>0.00</rpm>
</extensions>
</trkpt>
<trkpt lat="63.938419342" lon="-20.974176407">
<ele>20.790039</ele>
<time>2012-07-27T16:23:08Z</time>
<speed>0.010000</speed>
<extensions>
<speed>0.0</speed>
<temp>0.00</temp>
<bpm>0</bpm>
<rpm>0.00</rpm>
</extensions>
</trkpt>
<trkpt lat="63.938419342" lon="-20.974176407">
<ele>20.791016</ele>
<time>2012-07-27T16:23:13Z</time>
<speed>0.010000</speed>
<extensions>
<speed>0.0</speed>
<temp>0.00</temp>
<bpm>0</bpm>
<rpm>0.00</rpm>
</extensions>
</trkpt>
<trkpt lat="63.938419342" lon="-20.974176407">
<ele>20.793457</ele>
<time>2012-07-27T16:23:18Z</time>
<speed>0.010000</speed>
<extensions>
<speed>0.0</speed>
<temp>0.00</temp>
<bpm>0</bpm>
<rpm>0.00</rpm>
</extensions>
</trkpt>
<trkpt lat="63.938419342" lon="-20.974176407">
<ele>20.790039</ele>
<time>2012-07-27T16:23:23Z</time>
<speed>0.010000</speed>
<extensions>
<speed>0.0</speed>
<temp>0.00</temp>
<bpm>0</bpm>
<rpm>0.00</rpm>
</extensions>
</trkpt>
<trkpt lat="63.938419342" lon="-20.974178314">
<ele>20.787109</ele>
<time>2012-07-27T16:23:28Z</time>
<speed>0.010000</speed>
<extensions>
<speed>0.0</speed>
<temp>0.00</temp>
<bpm>0</bpm>
<rpm>0.00</rpm>
</extensions>
</trkpt>
<trkpt lat="63.938419342" lon="-20.974178314">
<ele>20.783203</ele>
<time>2012-07-27T16:23:33Z</time>
<extensions>
<speed>0.0</speed>
<temp>0.00</temp>
<bpm>0</bpm>
<rpm>0.00</rpm>
</extensions>
</trkpt>
<trkpt lat="63.938419342" lon="-20.974178314">
<ele>20.778320</ele>
<time>2012-07-27T16:23:38Z</time>
<extensions>
<speed>0.0</speed>
<temp>0.00</temp>
<bpm>0</bpm>
<rpm>0.00</rpm>
</extensions>
</trkpt>
<trkpt lat="63.938419342" lon="-20.974178314">
<ele>20.763672</ele>
<time>2012-07-27T16:23:43Z</time>
<extensions>
<speed>0.0</speed>
<temp>0.00</temp>
<bpm>0</bpm>
<rpm>0.00</rpm>
</extensions>
</trkpt>
<trkpt lat="63.938419342" lon="-20.974178314">
<ele>20.747559</ele>
<time>2012-07-27T16:23:48Z</time>
<speed>0.010000</speed>
<extensions>
<speed>0.0</speed>
<temp>0.00</temp>
<bpm>0</bpm>
<rpm>0.00</rpm>
</extensions>
</trkpt>
<trkpt lat="63.938419342" lon="-20.974178314">
<ele>20.734863</ele>
<time>2012-07-27T16:23:53Z</time>
<extensions>
<speed>0.0</speed>
<temp>0.00</temp>
<bpm>0</bpm>
<rpm>0.00</rpm>
</extensions>
</trkpt>
<trkpt lat="63.938419342" lon="-20.974178314">
<ele>20.724121</ele>
<time>2012-07-27T16:23:58Z</time>
<extensions>
<speed>0.0</speed>
<temp>0.00</temp>
<bpm>0</bpm>
<rpm>0.00</rpm>
</extensions>
</trkpt>
<trkpt lat="63.938419342" lon="-20.974178314">
<ele>20.713379</ele>
<time>2012-07-27T16:24:03Z</time>
<extensions>
<speed>0.0</speed>
<temp>0.00</temp>
<bpm>0</bpm>
<rpm>0.00</rpm>
</extensions>
</trkpt>
<trkpt lat="63.938419342" lon="-20.974178314">
<ele>20.703125</ele>
<time>2012-07-27T16:24:08Z</time>
<extensions>
<speed>0.0</speed>
<temp>0.00</temp>
<bpm>0</bpm>
<rpm>0.00</rpm>
</extensions>
</trkpt>
<trkpt lat="63.938419342" lon="-20.974178314">
<ele>20.697266</ele>
<time>2012-07-27T16:24:13Z</time>
<extensions>
<speed>0.0</speed>
<temp>0.00</temp>
<bpm>0</bpm>
<rpm>0.00</rpm>
</extensions>
</trkpt>
<trkpt lat="63.938419342" lon="-20.974178314">
<ele>20.695313</ele>
<time>2012-07-27T16:24:18Z</time>
<extensions>
<speed>0.0</speed>
<temp>0.00</temp>
<bpm>0</bpm>
<rpm>0.00</rpm>
</extensions>
</trkpt>
<trkpt lat="63.938419342" lon="-20.974178314">
<ele>20.687500</ele>
<time>2012-07-27T16:24:23Z</time>
<extensions>
<speed>0.0</speed>
<temp>0.00</temp>
<bpm>0</bpm>
<rpm>0.00</rpm>
</extensions>
</trkpt>
<trkpt lat="63.938419342" lon="-20.974178314">
<ele>20.677246</ele>
<time>2012-07-27T16:24:28Z</time>
<extensions>
<speed>0.0</speed>
<temp>0.00</temp>
<bpm>0</bpm>
<rpm>0.00</rpm>
</extensions>
</trkpt>
<trkpt lat="63.938419342" lon="-20.974178314">
<ele>20.664551</ele>
<time>2012-07-27T16:24:33Z</time>
<extensions>
<speed>0.0</speed>
<temp>0.00</temp>
<bpm>0</bpm>
<rpm>0.00</rpm>
</extensions>
</trkpt>
<trkpt lat="63.938419342" lon="-20.974176407">
<ele>20.659180</ele>
<time>2012-07-27T16:24:38Z</time>
<extensions>
<speed>0.0</speed>
<temp>0.00</temp>
<bpm>0</bpm>
<rpm>0.00</rpm>
</extensions>
</trkpt>
<trkpt lat="63.938415527" lon="-20.974176407">
<ele>20.652344</ele>
<time>2012-07-27T16:24:43Z</time>
<extensions>
<speed>0.0</speed>
<temp>0.00</temp>
<bpm>0</bpm>
<rpm>0.00</rpm>
</extensions>
</trkpt>
<trkpt lat="63.938415527" lon="-20.974176407">
<ele>20.641113</ele>
<time>2012-07-27T16:24:48Z</time>
<extensions>
<speed>0.0</speed>
<temp>0.00</temp>
<bpm>0</bpm>
<rpm>0.00</rpm>
</extensions>
</trkpt>
<trkpt lat="63.938415527" lon="-20.974176407">
<ele>20.641113</ele>
<time>2012-07-27T16:24:53Z</time>
<speed>0.010000</speed>
<extensions>
<speed>0.0</speed>
<temp>0.00</temp>
<bpm>0</bpm>
<rpm>0.00</rpm>
</extensions>
</trkpt>
<trkpt lat="63.938415527" lon="-20.974176407">
<ele>20.624023</ele>
<time>2012-07-27T16:24:58Z</time>
<extensions>
<speed>0.0</speed>
<temp>0.00</temp>
<bpm>0</bpm>
<rpm>0.00</rpm>
</extensions>
</trkpt>
<trkpt lat="63.938415527" lon="-20.974176407">
<ele>20.609375</ele>
<time>2012-07-27T16:25:03Z</time>
<extensions>
<speed>0.0</speed>
<temp>0.00</temp>
<bpm>0</bpm>
<rpm>0.00</rpm>
</extensions>
</trkpt>
<trkpt lat="63.938415527" lon="-20.974176407">
<ele>20.589844</ele>
<time>2012-07-27T16:25:08Z</time>
<extensions>
<speed>0.0</speed>
<temp>0.00</temp>
<bpm>0</bpm>
<rpm>0.00</rpm>
</extensions>
</trkpt>
<trkpt lat="63.938415527" lon="-20.974176407">
<ele>20.573242</ele>
<time>2012-07-27T16:25:13Z</time>
<extensions>
<speed>0.0</speed>
<temp>0.00</temp>
<bpm>0</bpm>
<rpm>0.00</rpm>
</extensions>
</trkpt>
<trkpt lat="63.938415527" lon="-20.974176407">
<ele>20.554199</ele>
<time>2012-07-27T16:25:18Z</time>
<speed>0.010000</speed>
<extensions>
<speed>0.0</speed>
<temp>0.00</temp>
<bpm>0</bpm>
<rpm>0.00</rpm>
</extensions>
</trkpt>
<trkpt lat="63.938415527" lon="-20.974174500">
<ele>20.541016</ele>
<time>2012-07-27T16:25:23Z</time>
<extensions>
<speed>0.0</speed>
<temp>0.00</temp>
<bpm>0</bpm>
<rpm>0.00</rpm>
</extensions>
</trkpt>
<trkpt lat="63.938415527" lon="-20.974174500">
<ele>20.532227</ele>
<time>2012-07-27T16:25:28Z</time>
<speed>0.010000</speed>
<extensions>
<speed>0.0</speed>
<temp>0.00</temp>
<bpm>0</bpm>
<rpm>0.00</rpm>
</extensions>
</trkpt>
<trkpt lat="63.938415527" lon="-20.974174500">
<ele>20.523438</ele>
<time>2012-07-27T16:25:33Z</time>
<extensions>
<speed>0.0</speed>
<temp>0.00</temp>
<bpm>0</bpm>
<rpm>0.00</rpm>
</extensions>
</trkpt>
<trkpt lat="63.938415527" lon="-20.974174500">
<ele>20.513672</ele>
<time>2012-07-27T16:25:38Z</time>
<speed>0.010000</speed>
<extensions>
<speed>0.0</speed>
<temp>0.00</temp>
<bpm>0</bpm>
<rpm>0.00</rpm>
</extensions>
</trkpt>
<trkpt lat="63.938415527" lon="-20.974174500">
<ele>20.497559</ele>
<time>2012-07-27T16:25:43Z</time>
<extensions>
<speed>0.0</speed>
<temp>0.00</temp>
<bpm>0</bpm>
<rpm>0.00</rpm>
</extensions>
</trkpt>
<trkpt lat="63.938415527" lon="-20.974176407">
<ele>20.489258</ele>
<time>2012-07-27T16:25:48Z</time>
<extensions>
<speed>0.0</speed>
<temp>0.00</temp>
<bpm>0</bpm>
<rpm>0.00</rpm>
</extensions>
</trkpt>
<trkpt lat="63.938415527" lon="-20.974176407">
<ele>20.484863</ele>
<time>2012-07-27T16:25:53Z</time>
<speed>0.010000</speed>
<extensions>
<speed>0.0</speed>
<temp>0.00</temp>
<bpm>0</bpm>
<rpm>0.00</rpm>
</extensions>
</trkpt>
<trkpt lat="63.938415527" lon="-20.974176407">
<ele>20.471191</ele>
<time>2012-07-27T16:25:58Z</time>
<extensions>
<speed>0.0</speed>
<temp>0.00</temp>
<bpm>0</bpm>
<rpm>0.00</rpm>
</extensions>
</trkpt>
<trkpt lat="63.938415527" lon="-20.974176407">
<ele>20.463379</ele>
<time>2012-07-27T16:26:03Z</time>
<extensions>
<speed>0.0</speed>
<temp>0.00</temp>
<bpm>0</bpm>
<rpm>0.00</rpm>
</extensions>
</trkpt>
<trkpt lat="63.938415527" lon="-20.974176407">
<ele>20.458008</ele>
<time>2012-07-27T16:26:08Z</time>
<extensions>
<speed>0.0</speed>
<temp>0.00</temp>
<bpm>0</bpm>
<rpm>0.00</rpm>
</extensions>
</trkpt>
<trkpt lat="63.938415527" lon="-20.974176407">
<ele>20.456543</ele>
<time>2012-07-27T16:26:13Z</time>
<extensions>
<speed>0.0</speed>
<temp>0.00</temp>
<bpm>0</bpm>
<rpm>0.00</rpm>
</extensions>
</trkpt>
<trkpt lat="63.938415527" lon="-20.974178314">
<ele>20.451660</ele>
<time>2012-07-27T16:26:18Z</time>
<extensions>
<speed>0.0</speed>
<temp>0.00</temp>
<bpm>0</bpm>
<rpm>0.00</rpm>
</extensions>
</trkpt>
<trkpt lat="63.938415527" lon="-20.974178314">
<ele>20.451660</ele>
<time>2012-07-27T16:26:23Z</time>
<extensions>
<speed>0.0</speed>
<temp>0.00</temp>
<bpm>0</bpm>
<rpm>0.00</rpm>
</extensions>
</trkpt>
<trkpt lat="63.938415527" lon="-20.974178314">
<ele>20.444824</ele>
<time>2012-07-27T16:26:28Z</time>
<extensions>
<speed>0.0</speed>
<temp>0.00</temp>
<bpm>0</bpm>
<rpm>0.00</rpm>
</extensions>
</trkpt>
<trkpt lat="63.938415527" lon="-20.974178314">
<ele>20.439941</ele>
<time>2012-07-27T16:26:33Z</time>
<extensions>
<speed>0.0</speed>
<temp>0.00</temp>
<bpm>0</bpm>
<rpm>0.00</rpm>
</extensions>
</trkpt>
<trkpt lat="63.938415527" lon="-20.974178314">
<ele>20.437500</ele>
<time>2012-07-27T16:26:38Z</time>
<extensions>
<speed>0.0</speed>
<temp>0.00</temp>
<bpm>0</bpm>
<rpm>0.00</rpm>
</extensions>
</trkpt>
<trkpt lat="63.938415527" lon="-20.974180222">
<ele>20.437988</ele>
<time>2012-07-27T16:26:43Z</time>
<extensions>
<speed>0.0</speed>
<temp>0.00</temp>
<bpm>0</bpm>
<rpm>0.00</rpm>
</extensions>
</trkpt>
<trkpt lat="63.938419342" lon="-20.974195480">
<ele>20.223633</ele>
<time>2012-07-27T16:26:48Z</time>
<speed>0.010000</speed>
<extensions>
<speed>0.0</speed>
<temp>0.00</temp>
<bpm>0</bpm>
<rpm>0.00</rpm>
</extensions>
</trkpt>
<trkpt lat="63.938419342" lon="-20.974227905">
<ele>20.453125</ele>
<time>2012-07-27T16:26:53Z</time>
<speed>0.010000</speed>
<extensions>
<speed>0.0</speed>
<temp>0.00</temp>
<bpm>0</bpm>
<rpm>0.00</rpm>
</extensions>
</trkpt>
<trkpt lat="63.938423157" lon="-20.974252701">
<ele>20.895020</ele>
<time>2012-07-27T16:26:58Z</time>
<speed>0.010000</speed>
<extensions>
<speed>0.0</speed>
<temp>0.00</temp>
<bpm>0</bpm>
<rpm>0.00</rpm>
</extensions>
</trkpt>
<trkpt lat="63.938423157" lon="-20.974262238">
<ele>20.947266</ele>
<time>2012-07-27T16:27:03Z</time>
<extensions>
<speed>0.0</speed>
<temp>0.00</temp>
<bpm>0</bpm>
<rpm>0.00</rpm>
</extensions>
</trkpt>
<trkpt lat="63.938426971" lon="-20.974262238">
<ele>20.813965</ele>
<time>2012-07-27T16:27:08Z</time>
<speed>0.040000</speed>
<extensions>
<speed>0.0</speed>
<temp>0.00</temp>
<bpm>0</bpm>
<rpm>0.00</rpm>
</extensions>
</trkpt>
<trkpt lat="63.938426971" lon="-20.974266052">
<ele>21.085449</ele>
<time>2012-07-27T16:27:13Z</time>
<extensions>
<speed>0.0</speed>
<temp>0.00</temp>
<bpm>0</bpm>
<rpm>0.00</rpm>
</extensions>
</trkpt>
<trkpt lat="63.938426971" lon="-20.974283218">
<ele>20.914551</ele>
<time>2012-07-27T16:27:18Z</time>
<extensions>
<speed>0.0</speed>
<temp>0.00</temp>
<bpm>0</bpm>
<rpm>0.00</rpm>
</extensions>
</trkpt>
<trkpt lat="63.938426971" lon="-20.974290848">
<ele>21.201172</ele>
<time>2012-07-27T16:27:23Z</time>
<extensions>
<speed>0.0</speed>
<temp>0.00</temp>
<bpm>0</bpm>
<rpm>0.00</rpm>
</extensions>
</trkpt>
<trkpt lat="63.938423157" lon="-20.974296570">
<ele>21.477051</ele>
<time>2012-07-27T16:27:28Z</time>
<extensions>
<speed>0.0</speed>
<temp>0.00</temp>
<bpm>0</bpm>
<rpm>0.00</rpm>
</extensions>
</trkpt>
<trkpt lat="63.938423157" lon="-20.974308014">
<ele>21.271484</ele>
<time>2012-07-27T16:27:33Z</time>
<extensions>
<speed>0.0</speed>
<temp>0.00</temp>
<bpm>0</bpm>
<rpm>0.00</rpm>
</extensions>
</trkpt>
<trkpt lat="63.938423157" lon="-20.974313736">
<ele>20.829590</ele>
<time>2012-07-27T16:27:38Z</time>
<extensions>
<speed>0.0</speed>
<temp>0.00</temp>
<bpm>0</bpm>
<rpm>0.00</rpm>
</extensions>
</trkpt>
<trkpt lat="63.938423157" lon="-20.974317551">
<ele>20.725098</ele>
<time>2012-07-27T16:27:43Z</time>
<extensions>
<speed>0.0</speed>
<temp>0.00</temp>
<bpm>0</bpm>
<rpm>0.00</rpm>
</extensions>
</trkpt>
<trkpt lat="63.938423157" lon="-20.974325180">
<ele>20.837891</ele>
<time>2012-07-27T16:27:48Z</time>
<extensions>
<speed>0.0</speed>
<temp>0.00</temp>
<bpm>0</bpm>
<rpm>0.00</rpm>
</extensions>
</trkpt>
<trkpt lat="63.938423157" lon="-20.974325180">
<ele>20.842285</ele>
<time>2012-07-27T16:27:53Z</time>
<speed>0.010000</speed>
<extensions>
<speed>0.0</speed>
<temp>0.00</temp>
<bpm>0</bpm>
<rpm>0.00</rpm>
</extensions>
</trkpt>
<trkpt lat="63.938423157" lon="-20.974325180">
<ele>20.851563</ele>
<time>2012-07-27T16:27:58Z</time>
<speed>0.010000</speed>
<extensions>
<speed>0.0</speed>
<temp>0.00</temp>
<bpm>0</bpm>
<rpm>0.00</rpm>
</extensions>
</trkpt>
<trkpt lat="63.938423157" lon="-20.974325180">
<ele>20.853027</ele>
<time>2012-07-27T16:28:03Z</time>
<extensions>
<speed>0.0</speed>
<temp>0.00</temp>
<bpm>0</bpm>
<rpm>0.00</rpm>
</extensions>
</trkpt>
<trkpt lat="63.938423157" lon="-20.974327087">
<ele>20.857910</ele>
<time>2012-07-27T16:28:08Z</time>
<speed>0.010000</speed>
<extensions>
<speed>0.0</speed>
<temp>0.00</temp>
<bpm>0</bpm>
<rpm>0.00</rpm>
</extensions>
</trkpt>
<trkpt lat="63.938423157" lon="-20.974327087">
<ele>20.864258</ele>
<time>2012-07-27T16:28:13Z</time>
<extensions>
<speed>0.0</speed>
<temp>0.00</temp>
<bpm>0</bpm>
<rpm>0.00</rpm>
</extensions>
</trkpt>
<trkpt lat="63.938423157" lon="-20.974327087">
<ele>20.871094</ele>
<time>2012-07-27T16:28:18Z</time>
<extensions>
<speed>0.0</speed>
<temp>0.00</temp>
<bpm>0</bpm>
<rpm>0.00</rpm>
</extensions>
</trkpt>
<trkpt lat="63.938423157" lon="-20.974327087">
<ele>20.875977</ele>
<time>2012-07-27T16:28:23Z</time>
<speed>0.010000</speed>
<extensions>
<speed>0.0</speed>
<temp>0.00</temp>
<bpm>0</bpm>
<rpm>0.00</rpm>
</extensions>
</trkpt>
<trkpt lat="63.938423157" lon="-20.974327087">
<ele>20.874512</ele>
<time>2012-07-27T16:28:28Z</time>
<extensions>
<speed>0.0</speed>
<temp>0.00</temp>
<bpm>0</bpm>
<rpm>0.00</rpm>
</extensions>
</trkpt>
<trkpt lat="63.938423157" lon="-20.974327087">
<ele>20.882813</ele>
<time>2012-07-27T16:28:33Z</time>
<extensions>
<speed>0.0</speed>
<temp>0.00</temp>
<bpm>0</bpm>
<rpm>0.00</rpm>
</extensions>
</trkpt>
<trkpt lat="63.938423157" lon="-20.974327087">
<ele>20.887695</ele>
<time>2012-07-27T16:28:38Z</time>
<extensions>
<speed>0.0</speed>
<temp>0.00</temp>
<bpm>0</bpm>
<rpm>0.00</rpm>
</extensions>
</trkpt>
<trkpt lat="63.938423157" lon="-20.974328995">
<ele>20.892578</ele>
<time>2012-07-27T16:28:43Z</time>
<speed>0.010000</speed>
<extensions>
<speed>0.0</speed>
<temp>0.00</temp>
<bpm>0</bpm>
<rpm>0.00</rpm>
</extensions>
</trkpt>
<trkpt lat="63.938423157" lon="-20.974328995">
<ele>20.900879</ele>
<time>2012-07-27T16:28:48Z</time>
<extensions>
<speed>0.0</speed>
<temp>0.00</temp>
<bpm>0</bpm>
<rpm>0.00</rpm>
</extensions>
</trkpt>
<trkpt lat="63.938423157" lon="-20.974328995">
<ele>20.911621</ele>
<time>2012-07-27T16:28:53Z</time>
<extensions>
<speed>0.0</speed>
<temp>0.00</temp>
<bpm>0</bpm>
<rpm>0.00</rpm>
</extensions>
</trkpt>
<trkpt lat="63.938423157" lon="-20.974328995">
<ele>20.922363</ele>
<time>2012-07-27T16:28:58Z</time>
<speed>0.010000</speed>
<extensions>
<speed>0.0</speed>
<temp>0.00</temp>
<bpm>0</bpm>
<rpm>0.00</rpm>
</extensions>
</trkpt>
<trkpt lat="63.938423157" lon="-20.974328995">
<ele>20.935059</ele>
<time>2012-07-27T16:29:03Z</time>
<speed>0.010000</speed>
<extensions>
<speed>0.0</speed>
<temp>0.00</temp>
<bpm>0</bpm>
<rpm>0.00</rpm>
</extensions>
</trkpt>
<trkpt lat="63.938423157" lon="-20.974328995">
<ele>20.959961</ele>
<time>2012-07-27T16:29:08Z</time>
<extensions>
<speed>0.0</speed>
<temp>0.00</temp>
<bpm>0</bpm>
<rpm>0.00</rpm>
</extensions>
</trkpt>
<trkpt lat="63.938423157" lon="-20.974330902">
<ele>20.981445</ele>
<time>2012-07-27T16:29:13Z</time>
<extensions>
<speed>0.0</speed>
<temp>0.00</temp>
<bpm>0</bpm>
<rpm>0.00</rpm>
</extensions>
</trkpt>
<trkpt lat="63.938423157" lon="-20.974330902">
<ele>20.989258</ele>
<time>2012-07-27T16:29:18Z</time>
<extensions>
<speed>0.0</speed>
<temp>0.00</temp>
<bpm>0</bpm>
<rpm>0.00</rpm>
</extensions>
</trkpt>
<trkpt lat="63.938423157" lon="-20.974330902">
<ele>20.990723</ele>
<time>2012-07-27T16:29:23Z</time>
<extensions>
<speed>0.0</speed>
<temp>0.00</temp>
<bpm>0</bpm>
<rpm>0.00</rpm>
</extensions>
</trkpt>
<trkpt lat="63.938423157" lon="-20.974330902">
<ele>20.983887</ele>
<time>2012-07-27T16:29:28Z</time>
<extensions>
<speed>0.0</speed>
<temp>0.00</temp>
<bpm>0</bpm>
<rpm>0.00</rpm>
</extensions>
</trkpt>
<trkpt lat="63.938423157" lon="-20.974330902">
<ele>20.979004</ele>
<time>2012-07-27T16:29:33Z</time>
<extensions>
<speed>0.0</speed>
<temp>0.00</temp>
<bpm>0</bpm>
<rpm>0.00</rpm>
</extensions>
</trkpt>
<trkpt lat="63.938423157" lon="-20.974330902">
<ele>20.974609</ele>
<time>2012-07-27T16:29:38Z</time>
<speed>0.010000</speed>
<extensions>
<speed>0.0</speed>
<temp>0.00</temp>
<bpm>0</bpm>
<rpm>0.00</rpm>
</extensions>
</trkpt>
<trkpt lat="63.938423157" lon="-20.974330902">
<ele>20.964844</ele>
<time>2012-07-27T16:29:43Z</time>
<extensions>
<speed>0.0</speed>
<temp>0.00</temp>
<bpm>0</bpm>
<rpm>0.00</rpm>
</extensions>
</trkpt>
<trkpt lat="63.938423157" lon="-20.974330902">
<ele>20.960938</ele>
<time>2012-07-27T16:29:48Z</time>
<extensions>
<speed>0.0</speed>
<temp>0.00</temp>
<bpm>0</bpm>
<rpm>0.00</rpm>
</extensions>
</trkpt>
<trkpt lat="63.938423157" lon="-20.974328995">
<ele>20.955566</ele>
<time>2012-07-27T16:29:53Z</time>
<speed>0.010000</speed>
<extensions>
<speed>0.0</speed>
<temp>0.00</temp>
<bpm>0</bpm>
<rpm>0.00</rpm>
</extensions>
</trkpt>
<trkpt lat="63.938423157" lon="-20.974328995">
<ele>20.947754</ele>
<time>2012-07-27T16:29:58Z</time>
<extensions>
<speed>0.0</speed>
<temp>0.00</temp>
<bpm>0</bpm>
<rpm>0.00</rpm>
</extensions>
</trkpt>
<trkpt lat="63.938423157" lon="-20.974328995">
<ele>20.939941</ele>
<time>2012-07-27T16:30:03Z</time>
<extensions>
<speed>0.0</speed>
<temp>0.00</temp>
<bpm>0</bpm>
<rpm>0.00</rpm>
</extensions>
</trkpt>
<trkpt lat="63.938423157" lon="-20.974328995">
<ele>20.932617</ele>
<time>2012-07-27T16:30:08Z</time>
<speed>0.010000</speed>
<extensions>
<speed>0.0</speed>
<temp>0.00</temp>
<bpm>0</bpm>
<rpm>0.00</rpm>
</extensions>
</trkpt>
<trkpt lat="63.938423157" lon="-20.974328995">
<ele>20.924316</ele>
<time>2012-07-27T16:30:13Z</time>
<extensions>
<speed>0.0</speed>
<temp>0.00</temp>
<bpm>0</bpm>
<rpm>0.00</rpm>
</extensions>
</trkpt>
<trkpt lat="63.938423157" lon="-20.974328995">
<ele>20.915039</ele>
<time>2012-07-27T16:30:18Z</time>
<extensions>
<speed>0.0</speed>
<temp>0.00</temp>
<bpm>0</bpm>
<rpm>0.00</rpm>
</extensions>
</trkpt>
<trkpt lat="63.938423157" lon="-20.974328995">
<ele>20.910645</ele>
<time>2012-07-27T16:30:23Z</time>
<extensions>
<speed>0.0</speed>
<temp>0.00</temp>
<bpm>0</bpm>
<rpm>0.00</rpm>
</extensions>
</trkpt>
<trkpt lat="63.938419342" lon="-20.974328995">
<ele>20.899902</ele>
<time>2012-07-27T16:30:28Z</time>
<extensions>
<speed>0.0</speed>
<temp>0.00</temp>
<bpm>0</bpm>
<rpm>0.00</rpm>
</extensions>
</trkpt>
<trkpt lat="63.938419342" lon="-20.974327087">
<ele>20.884277</ele>
<time>2012-07-27T16:30:33Z</time>
<extensions>
<speed>0.0</speed>
<temp>0.00</temp>
<bpm>0</bpm>
<rpm>0.00</rpm>
</extensions>
</trkpt>
<trkpt lat="63.938419342" lon="-20.974327087">
<ele>20.875977</ele>
<time>2012-07-27T16:30:38Z</time>
<extensions>
<speed>0.0</speed>
<temp>0.00</temp>
<bpm>0</bpm>
<rpm>0.00</rpm>
</extensions>
</trkpt>
<trkpt lat="63.938419342" lon="-20.974327087">
<ele>20.867676</ele>
<time>2012-07-27T16:30:43Z</time>
<extensions>
<speed>0.0</speed>
<temp>0.00</temp>
<bpm>0</bpm>
<rpm>0.00</rpm>
</extensions>
</trkpt>
<trkpt lat="63.938419342" lon="-20.974327087">
<ele>20.858887</ele>
<time>2012-07-27T16:30:48Z</time>
<speed>0.010000</speed>
<extensions>
<speed>0.0</speed>
<temp>0.00</temp>
<bpm>0</bpm>
<rpm>0.00</rpm>
</extensions>
</trkpt>
<trkpt lat="63.938419342" lon="-20.974325180">
<ele>20.848633</ele>
<time>2012-07-27T16:30:53Z</time>
<extensions>
<speed>0.0</speed>
<temp>0.00</temp>
<bpm>0</bpm>
<rpm>0.00</rpm>
</extensions>
</trkpt>
<trkpt lat="63.938419342" lon="-20.974325180">
<ele>20.836426</ele>
<time>2012-07-27T16:30:58Z</time>
<extensions>
<speed>0.0</speed>
<temp>0.00</temp>
<bpm>0</bpm>
<rpm>0.00</rpm>
</extensions>
</trkpt>
<trkpt lat="63.938419342" lon="-20.974325180">
<ele>20.830078</ele>
<time>2012-07-27T16:31:03Z</time>
<speed>0.010000</speed>
<extensions>
<speed>0.0</speed>
<temp>0.00</temp>
<bpm>0</bpm>
<rpm>0.00</rpm>
</extensions>
</trkpt>
<trkpt lat="63.938419342" lon="-20.974325180">
<ele>20.819336</ele>
<time>2012-07-27T16:31:08Z</time>
<extensions>
<speed>0.0</speed>
<temp>0.00</temp>
<bpm>0</bpm>
<rpm>0.00</rpm>
</extensions>
</trkpt>
<trkpt lat="63.938419342" lon="-20.974325180">
<ele>20.807617</ele>
<time>2012-07-27T16:31:13Z</time>
<speed>0.010000</speed>
<extensions>
<speed>0.0</speed>
<temp>0.00</temp>
<bpm>0</bpm>
<rpm>0.00</rpm>
</extensions>
</trkpt>
<trkpt lat="63.938419342" lon="-20.974323273">
<ele>20.796875</ele>
<time>2012-07-27T16:31:18Z</time>
<speed>0.010000</speed>
<extensions>
<speed>0.0</speed>
<temp>0.00</temp>
<bpm>0</bpm>
<rpm>0.00</rpm>
</extensions>
</trkpt>
<trkpt lat="63.938419342" lon="-20.974323273">
<ele>20.787598</ele>
<time>2012-07-27T16:31:23Z</time>
<extensions>
<speed>0.0</speed>
<temp>0.00</temp>
<bpm>0</bpm>
<rpm>0.00</rpm>
</extensions>
</trkpt>
<trkpt lat="63.938419342" lon="-20.974323273">
<ele>20.775391</ele>
<time>2012-07-27T16:31:28Z</time>
<speed>0.010000</speed>
<extensions>
<speed>0.0</speed>
<temp>0.00</temp>
<bpm>0</bpm>
<rpm>0.00</rpm>
</extensions>
</trkpt>
<trkpt lat="63.938419342" lon="-20.974323273">
<ele>20.779785</ele>
<time>2012-07-27T16:31:33Z</time>
<speed>0.020000</speed>
<extensions>
<speed>0.0</speed>
<temp>0.00</temp>
<bpm>0</bpm>
<rpm>0.00</rpm>
</extensions>
</trkpt>
<trkpt lat="63.938419342" lon="-20.974323273">
<ele>20.775391</ele>
<time>2012-07-27T16:31:38Z</time>
<speed>0.010000</speed>
<extensions>
<speed>0.0</speed>
<temp>0.00</temp>
<bpm>0</bpm>
<rpm>0.00</rpm>
</extensions>
</trkpt>
<trkpt lat="63.938419342" lon="-20.974323273">
<ele>20.762207</ele>
<time>2012-07-27T16:31:43Z</time>
<speed>0.020000</speed>
<extensions>
<speed>0.0</speed>
<temp>0.00</temp>
<bpm>0</bpm>
<rpm>0.00</rpm>
</extensions>
</trkpt>
<trkpt lat="63.938419342" lon="-20.974321365">
<ele>20.742676</ele>
<time>2012-07-27T16:31:48Z</time>
<extensions>
<speed>0.0</speed>
<temp>0.00</temp>
<bpm>0</bpm>
<rpm>0.00</rpm>
</extensions>
</trkpt>
<trkpt lat="63.938419342" lon="-20.974321365">
<ele>20.722656</ele>
<time>2012-07-27T16:31:53Z</time>
<extensions>
<speed>0.0</speed>
<temp>0.00</temp>
<bpm>0</bpm>
<rpm>0.00</rpm>
</extensions>
</trkpt>
<trkpt lat="63.938419342" lon="-20.974321365">
<ele>20.706055</ele>
<time>2012-07-27T16:31:58Z</time>
<extensions>
<speed>0.0</speed>
<temp>0.00</temp>
<bpm>0</bpm>
<rpm>0.00</rpm>
</extensions>
</trkpt>
<trkpt lat="63.938419342" lon="-20.974319458">
<ele>20.689941</ele>
<time>2012-07-27T16:32:03Z</time>
<extensions>
<speed>0.0</speed>
<temp>0.00</temp>
<bpm>0</bpm>
<rpm>0.00</rpm>
</extensions>
</trkpt>
<trkpt lat="63.938419342" lon="-20.974319458">
<ele>20.673828</ele>
<time>2012-07-27T16:32:08Z</time>
<speed>0.010000</speed>
<extensions>
<speed>0.0</speed>
<temp>0.00</temp>
<bpm>0</bpm>
<rpm>0.00</rpm>
</extensions>
</trkpt>
<trkpt lat="63.938419342" lon="-20.974319458">
<ele>20.660645</ele>
<time>2012-07-27T16:32:13Z</time>
<extensions>
<speed>0.0</speed>
<temp>0.00</temp>
<bpm>0</bpm>
<rpm>0.00</rpm>
</extensions>
</trkpt>
<trkpt lat="63.938419342" lon="-20.974317551">
<ele>20.651367</ele>
<time>2012-07-27T16:32:18Z</time>
<speed>0.010000</speed>
<extensions>
<speed>0.0</speed>
<temp>0.00</temp>
<bpm>0</bpm>
<rpm>0.00</rpm>
</extensions>
</trkpt>
<trkpt lat="63.938419342" lon="-20.974317551">
<ele>20.659180</ele>
<time>2012-07-27T16:32:23Z</time>
<speed>0.010000</speed>
<extensions>
<speed>0.0</speed>
<temp>0.00</temp>
<bpm>0</bpm>
<rpm>0.00</rpm>
</extensions>
</trkpt>
<trkpt lat="63.938419342" lon="-20.974317551">
<ele>20.652832</ele>
<time>2012-07-27T16:32:28Z</time>
<speed>0.010000</speed>
<extensions>
<speed>0.0</speed>
<temp>0.00</temp>
<bpm>0</bpm>
<rpm>0.00</rpm>
</extensions>
</trkpt>
<trkpt lat="63.938419342" lon="-20.974317551">
<ele>20.643555</ele>
<time>2012-07-27T16:32:33Z</time>
<speed>0.010000</speed>
<extensions>
<speed>0.0</speed>
<temp>0.00</temp>
<bpm>0</bpm>
<rpm>0.00</rpm>
</extensions>
</trkpt>
<trkpt lat="63.938419342" lon="-20.974317551">
<ele>20.633789</ele>
<time>2012-07-27T16:32:38Z</time>
<extensions>
<speed>0.0</speed>
<temp>0.00</temp>
<bpm>0</bpm>
<rpm>0.00</rpm>
</extensions>
</trkpt>
<trkpt lat="63.938419342" lon="-20.974317551">
<ele>20.629883</ele>
<time>2012-07-27T16:32:43Z</time>
<speed>0.010000</speed>
<extensions>
<speed>0.0</speed>
<temp>0.00</temp>
<bpm>0</bpm>
<rpm>0.00</rpm>
</extensions>
</trkpt>
<trkpt lat="63.938419342" lon="-20.974317551">
<ele>20.618164</ele>
<time>2012-07-27T16:32:48Z</time>
<speed>0.010000</speed>
<extensions>
<speed>0.0</speed>
<temp>0.00</temp>
<bpm>0</bpm>
<rpm>0.00</rpm>
</extensions>
</trkpt>
<trkpt lat="63.938419342" lon="-20.974315643">
<ele>20.606445</ele>
<time>2012-07-27T16:32:53Z</time>
<speed>0.010000</speed>
<extensions>
<speed>0.0</speed>
<temp>0.00</temp>
<bpm>0</bpm>
<rpm>0.00</rpm>
</extensions>
</trkpt>
<trkpt lat="63.938415527" lon="-20.974315643">
<ele>20.597168</ele>
<time>2012-07-27T16:32:58Z</time>
<speed>0.010000</speed>
<extensions>
<speed>0.0</speed>
<temp>0.00</temp>
<bpm>0</bpm>
<rpm>0.00</rpm>
</extensions>
</trkpt>
<trkpt lat="63.938415527" lon="-20.974315643">
<ele>20.587891</ele>
<time>2012-07-27T16:33:03Z</time>
<speed>0.010000</speed>
<extensions>
<speed>0.0</speed>
<temp>0.00</temp>
<bpm>0</bpm>
<rpm>0.00</rpm>
</extensions>
</trkpt>
<trkpt lat="63.938415527" lon="-20.974315643">
<ele>20.581543</ele>
<time>2012-07-27T16:33:08Z</time>
<extensions>
<speed>0.0</speed>
<temp>0.00</temp>
<bpm>0</bpm>
<rpm>0.00</rpm>
</extensions>
</trkpt>
<trkpt lat="63.938415527" lon="-20.974315643">
<ele>20.576172</ele>
<time>2012-07-27T16:33:13Z</time>
<extensions>
<speed>0.0</speed>
<temp>0.00</temp>
<bpm>0</bpm>
<rpm>0.00</rpm>
</extensions>
</trkpt>
<trkpt lat="63.938415527" lon="-20.974315643">
<ele>20.568848</ele>
<time>2012-07-27T16:33:18Z</time>
<speed>0.020000</speed>
<extensions>
<speed>0.0</speed>
<temp>0.00</temp>
<bpm>0</bpm>
<rpm>0.00</rpm>
</extensions>
</trkpt>
<trkpt lat="63.938415527" lon="-20.974313736">
<ele>20.559570</ele>
<time>2012-07-27T16:33:23Z</time>
<extensions>
<speed>0.0</speed>
<temp>0.00</temp>
<bpm>0</bpm>
<rpm>0.00</rpm>
</extensions>
</trkpt>
<trkpt lat="63.938415527" lon="-20.974313736">
<ele>20.548828</ele>
<time>2012-07-27T16:33:28Z</time>
<extensions>
<speed>0.0</speed>
<temp>0.00</temp>
<bpm>0</bpm>
<rpm>0.00</rpm>
</extensions>
</trkpt>
<trkpt lat="63.938415527" lon="-20.974313736">
<ele>20.537109</ele>
<time>2012-07-27T16:33:33Z</time>
<extensions>
<speed>0.0</speed>
<temp>0.00</temp>
<bpm>0</bpm>
<rpm>0.00</rpm>
</extensions>
</trkpt>
<trkpt lat="63.938415527" lon="-20.974313736">
<ele>20.527832</ele>
<time>2012-07-27T16:33:38Z</time>
<extensions>
<speed>0.0</speed>
<temp>0.00</temp>
<bpm>0</bpm>
<rpm>0.00</rpm>
</extensions>
</trkpt>
<trkpt lat="63.938415527" lon="-20.974313736">
<ele>20.517578</ele>
<time>2012-07-27T16:33:43Z</time>
<extensions>
<speed>0.0</speed>
<temp>0.00</temp>
<bpm>0</bpm>
<rpm>0.00</rpm>
</extensions>
</trkpt>
<trkpt lat="63.938415527" lon="-20.974313736">
<ele>20.507813</ele>
<time>2012-07-27T16:33:48Z</time>
<extensions>
<speed>0.0</speed>
<temp>0.00</temp>
<bpm>0</bpm>
<rpm>0.00</rpm>
</extensions>
</trkpt>
<trkpt lat="63.938415527" lon="-20.974311829">
<ele>20.499023</ele>
<time>2012-07-27T16:33:53Z</time>
<extensions>
<speed>0.0</speed>
<temp>0.00</temp>
<bpm>0</bpm>
<rpm>0.00</rpm>
</extensions>
</trkpt>
<trkpt lat="63.938415527" lon="-20.974311829">
<ele>20.491211</ele>
<time>2012-07-27T16:33:58Z</time>
<speed>0.390000</speed>
<extensions>
<speed>0.4</speed>
<temp>0.00</temp>
<bpm>0</bpm>
<rpm>0.00</rpm>
</extensions>
</trkpt>
<trkpt lat="63.938423157" lon="-20.974298477">
<ele>21.519043</ele>
<time>2012-07-27T16:34:03Z</time>
<speed>0.330000</speed>
<extensions>
<speed>0.3</speed>
<temp>0.00</temp>
<bpm>0</bpm>
<rpm>0.00</rpm>
</extensions>
</trkpt>
<trkpt lat="63.938423157" lon="-20.974275589">
<ele>22.708984</ele>
<time>2012-07-27T16:34:08Z</time>
<speed>0.160000</speed>
<extensions>
<speed>0.2</speed>
<temp>0.00</temp>
<bpm>0</bpm>
<rpm>0.00</rpm>
</extensions>
</trkpt>
<trkpt lat="63.938423157" lon="-20.974287033">
<ele>23.836426</ele>
<time>2012-07-27T16:34:13Z</time>
<speed>0.130000</speed>
<extensions>
<speed>0.1</speed>
<temp>0.00</temp>
<bpm>0</bpm>
<rpm>0.00</rpm>
</extensions>
</trkpt>
<trkpt lat="63.938426971" lon="-20.974298477">
<ele>24.352051</ele>
<time>2012-07-27T16:34:18Z</time>
<speed>0.080000</speed>
<extensions>
<speed>0.1</speed>
<temp>0.00</temp>
<bpm>0</bpm>
<rpm>0.00</rpm>
</extensions>
</trkpt>
<trkpt lat="63.938426971" lon="-20.974302292">
<ele>24.604980</ele>
<time>2012-07-27T16:34:23Z</time>
<speed>0.560000</speed>
<extensions>
<speed>0.6</speed>
<temp>0.00</temp>
<bpm>0</bpm>
<rpm>0.00</rpm>
</extensions>
</trkpt>
<trkpt lat="63.938423157" lon="-20.974264145">
<ele>24.458984</ele>
<time>2012-07-27T16:34:28Z</time>
<speed>0.010000</speed>
<extensions>
<speed>0.0</speed>
<temp>0.00</temp>
<bpm>0</bpm>
<rpm>0.00</rpm>
</extensions>
</trkpt>
<trkpt lat="63.938426971" lon="-20.974262238">
<ele>24.466797</ele>
<time>2012-07-27T16:34:33Z</time>
<speed>0.020000</speed>
<extensions>
<speed>0.0</speed>
<temp>0.00</temp>
<bpm>0</bpm>
<rpm>0.00</rpm>
</extensions>
</trkpt>
<trkpt lat="63.938423157" lon="-20.974264145">
<ele>24.500000</ele>
<time>2012-07-27T16:34:38Z</time>
<speed>0.060000</speed>
<extensions>
<speed>0.1</speed>
<temp>0.00</temp>
<bpm>0</bpm>
<rpm>0.00</rpm>
</extensions>
</trkpt>
<trkpt lat="63.938423157" lon="-20.974264145">
<ele>24.502441</ele>
<time>2012-07-27T16:34:43Z</time>
<extensions>
<speed>0.0</speed>
<temp>0.00</temp>
<bpm>0</bpm>
<rpm>0.00</rpm>
</extensions>
</trkpt>
<trkpt lat="63.938426971" lon="-20.974264145">
<ele>24.503906</ele>
<time>2012-07-27T16:34:48Z</time>
<extensions>
<speed>0.0</speed>
<temp>0.00</temp>
<bpm>0</bpm>
<rpm>0.00</rpm>
</extensions>
</trkpt>
<trkpt lat="63.938426971" lon="-20.974262238">
<ele>24.497070</ele>
<time>2012-07-27T16:34:53Z</time>
<speed>0.020000</speed>
<extensions>
<speed>0.0</speed>
<temp>0.00</temp>
<bpm>0</bpm>
<rpm>0.00</rpm>
</extensions>
</trkpt>
<trkpt lat="63.938426971" lon="-20.974262238">
<ele>24.494141</ele>
<time>2012-07-27T16:34:58Z</time>
<extensions>
<speed>0.0</speed>
<temp>0.00</temp>
<bpm>0</bpm>
<rpm>0.00</rpm>
</extensions>
</trkpt>
<trkpt lat="63.938426971" lon="-20.974262238">
<ele>24.496094</ele>
<time>2012-07-27T16:35:03Z</time>
<speed>0.020000</speed>
<extensions>
<speed>0.0</speed>
<temp>0.00</temp>
<bpm>0</bpm>
<rpm>0.00</rpm>
</extensions>
</trkpt>
<trkpt lat="63.938434601" lon="-20.974300385">
<ele>24.937988</ele>
<time>2012-07-27T16:35:08Z</time>
<speed>1.390000</speed>
<extensions>
<speed>1.4</speed>
<temp>0.00</temp>
<bpm>0</bpm>
<rpm>0.00</rpm>
</extensions>
</trkpt>
<trkpt lat="63.938507080" lon="-20.974370956">
<ele>26.326172</ele>
<time>2012-07-27T16:35:13Z</time>
<speed>2.310000</speed>
<extensions>
<speed>2.3</speed>
<temp>0.00</temp>
<bpm>0</bpm>
<rpm>0.00</rpm>
</extensions>
</trkpt>
<trkpt lat="63.938522339" lon="-20.974197388">
<ele>25.274902</ele>
<time>2012-07-27T16:35:18Z</time>
<speed>0.990000</speed>
<extensions>
<speed>1.0</speed>
<temp>0.00</temp>
<bpm>0</bpm>
<rpm>0.00</rpm>
</extensions>
</trkpt>
<trkpt lat="63.938541412" lon="-20.974100113">
<ele>24.200684</ele>
<time>2012-07-27T16:35:23Z</time>
<speed>2.090000</speed>
<extensions>
<speed>2.1</speed>
<temp>0.00</temp>
<bpm>0</bpm>
<rpm>0.00</rpm>
</extensions>
</trkpt>
<trkpt lat="63.938632965" lon="-20.974002838">
<ele>23.469238</ele>
<time>2012-07-27T16:35:28Z</time>
<speed>2.770000</speed>
<extensions>
<speed>2.8</speed>
<temp>0.00</temp>
<bpm>0</bpm>
<rpm>0.00</rpm>
</extensions>
</trkpt>
<trkpt lat="63.938663483" lon="-20.973733902">
<ele>22.990234</ele>
<time>2012-07-27T16:35:33Z</time>
<speed>2.720000</speed>
<extensions>
<speed>2.7</speed>
<temp>0.00</temp>
<bpm>0</bpm>
<rpm>0.00</rpm>
</extensions>
</trkpt>
<trkpt lat="63.938625336" lon="-20.973461151">
<ele>21.990234</ele>
<time>2012-07-27T16:35:38Z</time>
<speed>3.490000</speed>
<extensions>
<speed>3.5</speed>
<temp>0.00</temp>
<bpm>0</bpm>
<rpm>0.00</rpm>
</extensions>
</trkpt>
<trkpt lat="63.938488007" lon="-20.973155975">
<ele>21.323730</ele>
<time>2012-07-27T16:35:43Z</time>
<speed>4.850000</speed>
<extensions>
<speed>4.8</speed>
<temp>0.00</temp>
<bpm>0</bpm>
<rpm>0.00</rpm>
</extensions>
</trkpt>
<trkpt lat="63.938289642" lon="-20.972955704">
<ele>24.699219</ele>
<time>2012-07-27T16:35:48Z</time>
<speed>4.580000</speed>
<extensions>
<speed>4.6</speed>
<temp>0.00</temp>
<bpm>0</bpm>
<rpm>0.00</rpm>
</extensions>
</trkpt>
<trkpt lat="63.938125610" lon="-20.972829819">
<ele>26.673340</ele>
<time>2012-07-27T16:35:53Z</time>
<speed>2.960000</speed>
<extensions>
<speed>3.0</speed>
<temp>0.00</temp>
<bpm>0</bpm>
<rpm>0.00</rpm>
</extensions>
</trkpt>
<trkpt lat="63.938007355" lon="-20.972822189">
<ele>26.793945</ele>
<time>2012-07-27T16:35:58Z</time>
<speed>2.110000</speed>
<extensions>
<speed>2.1</speed>
<temp>0.00</temp>
<bpm>0</bpm>
<rpm>0.00</rpm>
</extensions>
</trkpt>
<trkpt lat="63.937915802" lon="-20.972782135">
<ele>26.592773</ele>
<time>2012-07-27T16:36:03Z</time>
<speed>2.600000</speed>
<extensions>
<speed>2.6</speed>
<temp>0.00</temp>
<bpm>0</bpm>
<rpm>0.00</rpm>
</extensions>
</trkpt>
<trkpt lat="63.937915802" lon="-20.972505569">
<ele>25.435059</ele>
<time>2012-07-27T16:36:08Z</time>
<speed>2.480000</speed>
<extensions>
<speed>2.5</speed>
<temp>0.00</temp>
<bpm>0</bpm>
<rpm>0.00</rpm>
</extensions>
</trkpt>
<trkpt lat="63.937938690" lon="-20.972305298">
<ele>23.639648</ele>
<time>2012-07-27T16:36:13Z</time>
<speed>2.310000</speed>
<extensions>
<speed>2.3</speed>
<temp>0.00</temp>
<bpm>0</bpm>
<rpm>0.00</rpm>
</extensions>
</trkpt>
<trkpt lat="63.937961578" lon="-20.972051620">
<ele>21.028809</ele>
<time>2012-07-27T16:36:18Z</time>
<speed>2.360000</speed>
<extensions>
<speed>2.4</speed>
<temp>0.00</temp>
<bpm>0</bpm>
<rpm>0.00</rpm>
</extensions>
</trkpt>
<trkpt lat="63.938022614" lon="-20.971845627">
<ele>20.744629</ele>
<time>2012-07-27T16:36:23Z</time>
<speed>3.250000</speed>
<extensions>
<speed>3.2</speed>
<temp>0.00</temp>
<bpm>0</bpm>
<rpm>0.00</rpm>
</extensions>
</trkpt>
<trkpt lat="63.938175201" lon="-20.971965790">
<ele>21.718262</ele>
<time>2012-07-27T16:36:28Z</time>
<speed>3.500000</speed>
<extensions>
<speed>3.5</speed>
<temp>0.00</temp>
<bpm>0</bpm>
<rpm>0.00</rpm>
</extensions>
</trkpt>
<trkpt lat="63.938327789" lon="-20.972177505">
<ele>22.663574</ele>
<time>2012-07-27T16:36:33Z</time>
<speed>3.960000</speed>
<extensions>
<speed>4.0</speed>
<temp>0.00</temp>
<bpm>0</bpm>
<rpm>0.00</rpm>
</extensions>
</trkpt>
<trkpt lat="63.938480377" lon="-20.972419739">
<ele>22.636230</ele>
<time>2012-07-27T16:36:38Z</time>
<speed>3.950000</speed>
<extensions>
<speed>4.0</speed>
<temp>0.00</temp>
<bpm>0</bpm>
<rpm>0.00</rpm>
</extensions>
</trkpt>
<trkpt lat="63.938621521" lon="-20.972610474">
<ele>21.995605</ele>
<time>2012-07-27T16:36:43Z</time>
<speed>3.380000</speed>
<extensions>
<speed>3.4</speed>
<temp>0.00</temp>
<bpm>0</bpm>
<rpm>0.00</rpm>
</extensions>
</trkpt>
<trkpt lat="63.938739777" lon="-20.972801208">
<ele>22.470215</ele>
<time>2012-07-27T16:36:48Z</time>
<speed>3.140000</speed>
<extensions>
<speed>3.1</speed>
<temp>0.00</temp>
<bpm>0</bpm>
<rpm>0.00</rpm>
</extensions>
</trkpt>
<trkpt lat="63.938838959" lon="-20.972923279">
<ele>22.873535</ele>
<time>2012-07-27T16:36:53Z</time>
<speed>1.990000</speed>
<extensions>
<speed>2.0</speed>
<temp>0.00</temp>
<bpm>0</bpm>
<rpm>0.00</rpm>
</extensions>
</trkpt>
<trkpt lat="63.938938141" lon="-20.973081589">
<ele>22.833008</ele>
<time>2012-07-27T16:36:58Z</time>
<speed>3.220000</speed>
<extensions>
<speed>3.2</speed>
<temp>0.00</temp>
<bpm>0</bpm>
<rpm>0.00</rpm>
</extensions>
</trkpt>
<trkpt lat="63.938953400" lon="-20.973434448">
<ele>19.500488</ele>
<time>2012-07-27T16:37:03Z</time>
<speed>3.800000</speed>
<extensions>
<speed>3.8</speed>
<temp>0.00</temp>
<bpm>0</bpm>
<rpm>0.00</rpm>
</extensions>
</trkpt>
<trkpt lat="63.938930511" lon="-20.973794937">
<ele>18.729980</ele>
<time>2012-07-27T16:37:08Z</time>
<speed>3.110000</speed>
<extensions>
<speed>3.1</speed>
<temp>0.00</temp>
<bpm>0</bpm>
<rpm>0.00</rpm>
</extensions>
</trkpt>
<trkpt lat="63.938915253" lon="-20.974132538">
<ele>17.937988</ele>
<time>2012-07-27T16:37:13Z</time>
<speed>3.720000</speed>
<extensions>
<speed>3.7</speed>
<temp>0.00</temp>
<bpm>0</bpm>
<rpm>0.00</rpm>
</extensions>
</trkpt>
<trkpt lat="63.938884735" lon="-20.974502563">
<ele>17.884766</ele>
<time>2012-07-27T16:37:18Z</time>
<speed>3.730000</speed>
<extensions>
<speed>3.7</speed>
<temp>0.00</temp>
<bpm>0</bpm>
<rpm>0.00</rpm>
</extensions>
</trkpt>
<trkpt lat="63.938842773" lon="-20.974880219">
<ele>17.113281</ele>
<time>2012-07-27T16:37:23Z</time>
<speed>4.180000</speed>
<extensions>
<speed>4.2</speed>
<temp>0.00</temp>
<bpm>0</bpm>
<rpm>0.00</rpm>
</extensions>
</trkpt>
<trkpt lat="63.938796997" lon="-20.975322723">
<ele>16.564941</ele>
<time>2012-07-27T16:37:28Z</time>
<speed>4.450000</speed>
<extensions>
<speed>4.5</speed>
<temp>0.00</temp>
<bpm>0</bpm>
<rpm>0.00</rpm>
</extensions>
</trkpt>
<trkpt lat="63.938755035" lon="-20.975767136">
<ele>15.836670</ele>
<time>2012-07-27T16:37:33Z</time>
<speed>4.300000</speed>
<extensions>
<speed>4.3</speed>
<temp>0.00</temp>
<bpm>0</bpm>
<rpm>0.00</rpm>
</extensions>
</trkpt>
<trkpt lat="63.938720703" lon="-20.976196289">
<ele>15.963867</ele>
<time>2012-07-27T16:37:38Z</time>
<speed>4.400000</speed>
<extensions>
<speed>4.4</speed>
<temp>0.00</temp>
<bpm>0</bpm>
<rpm>0.00</rpm>
</extensions>
</trkpt>
<trkpt lat="63.938682556" lon="-20.976667404">
<ele>15.881592</ele>
<time>2012-07-27T16:37:43Z</time>
<speed>4.750000</speed>
<extensions>
<speed>4.8</speed>
<temp>0.00</temp>
<bpm>0</bpm>
<rpm>0.00</rpm>
</extensions>
</trkpt>
<trkpt lat="63.938644409" lon="-20.977132797">
<ele>15.718018</ele>
<time>2012-07-27T16:37:48Z</time>
<speed>4.460000</speed>
<extensions>
<speed>4.5</speed>
<temp>0.00</temp>
<bpm>0</bpm>
<rpm>0.00</rpm>
</extensions>
</trkpt>
<trkpt lat="63.938594818" lon="-20.977540970">
<ele>15.624268</ele>
<time>2012-07-27T16:37:53Z</time>
<speed>4.020000</speed>
<extensions>
<speed>4.0</speed>
<temp>0.00</temp>
<bpm>0</bpm>
<rpm>0.00</rpm>
</extensions>
</trkpt>
<trkpt lat="63.938549042" lon="-20.977962494">
<ele>15.507080</ele>
<time>2012-07-27T16:37:58Z</time>
<speed>4.560000</speed>
<extensions>
<speed>4.6</speed>
<temp>0.00</temp>
<bpm>0</bpm>
<rpm>0.00</rpm>
</extensions>
</trkpt>
<trkpt lat="63.938480377" lon="-20.978382111">
<ele>15.343262</ele>
<time>2012-07-27T16:38:03Z</time>
<speed>4.300000</speed>
<extensions>
<speed>4.3</speed>
<temp>0.00</temp>
<bpm>0</bpm>
<rpm>0.00</rpm>
</extensions>
</trkpt>
<trkpt lat="63.938407898" lon="-20.978805542">
<ele>14.668213</ele>
<time>2012-07-27T16:38:08Z</time>
<speed>4.720000</speed>
<extensions>
<speed>4.7</speed>
<temp>0.00</temp>
<bpm>0</bpm>
<rpm>0.00</rpm>
</extensions>
</trkpt>
<trkpt lat="63.938331604" lon="-20.979270935">
<ele>14.690186</ele>
<time>2012-07-27T16:38:13Z</time>
<speed>5.000000</speed>
<extensions>
<speed>5.0</speed>
<temp>0.00</temp>
<bpm>0</bpm>
<rpm>0.00</rpm>
</extensions>
</trkpt>
<trkpt lat="63.938247681" lon="-20.979713440">
<ele>14.064209</ele>
<time>2012-07-27T16:38:18Z</time>
<speed>4.490000</speed>
<extensions>
<speed>4.5</speed>
<temp>0.00</temp>
<bpm>0</bpm>
<rpm>0.00</rpm>
</extensions>
</trkpt>
<trkpt lat="63.938171387" lon="-20.980163574">
<ele>14.009033</ele>
<time>2012-07-27T16:38:23Z</time>
<speed>5.050000</speed>
<extensions>
<speed>5.1</speed>
<temp>0.00</temp>
<bpm>0</bpm>
<rpm>0.00</rpm>
</extensions>
</trkpt>
<trkpt lat="63.938087463" lon="-20.980659485">
<ele>13.733398</ele>
<time>2012-07-27T16:38:28Z</time>
<speed>4.960000</speed>
<extensions>
<speed>5.0</speed>
<temp>0.00</temp>
<bpm>0</bpm>
<rpm>0.00</rpm>
</extensions>
</trkpt>
<trkpt lat="63.938014984" lon="-20.981100082">
<ele>13.830811</ele>
<time>2012-07-27T16:38:33Z</time>
<speed>4.400000</speed>
<extensions>
<speed>4.4</speed>
<temp>0.00</temp>
<bpm>0</bpm>
<rpm>0.00</rpm>
</extensions>
</trkpt>
<trkpt lat="63.937927246" lon="-20.981479645">
<ele>13.932617</ele>
<time>2012-07-27T16:38:38Z</time>
<speed>4.160000</speed>
<extensions>
<speed>4.2</speed>
<temp>0.00</temp>
<bpm>0</bpm>
<rpm>0.00</rpm>
</extensions>
</trkpt>
<trkpt lat="63.937858582" lon="-20.981916428">
<ele>14.015625</ele>
<time>2012-07-27T16:38:43Z</time>
<speed>5.080000</speed>
<extensions>
<speed>5.1</speed>
<temp>0.00</temp>
<bpm>0</bpm>
<rpm>0.00</rpm>
</extensions>
</trkpt>
<trkpt lat="63.937778473" lon="-20.982452393">
<ele>13.402832</ele>
<time>2012-07-27T16:38:48Z</time>
<speed>5.730000</speed>
<extensions>
<speed>5.7</speed>
<temp>0.00</temp>
<bpm>0</bpm>
<rpm>0.00</rpm>
</extensions>
</trkpt>
<trkpt lat="63.937660217" lon="-20.982976913">
<ele>12.515137</ele>
<time>2012-07-27T16:38:53Z</time>
<speed>5.560000</speed>
<extensions>
<speed>5.6</speed>
<temp>0.00</temp>
<bpm>0</bpm>
<rpm>0.00</rpm>
</extensions>
</trkpt>
<trkpt lat="63.937553406" lon="-20.983469009">
<ele>12.228516</ele>
<time>2012-07-27T16:38:58Z</time>
<speed>5.080000</speed>
<extensions>
<speed>5.1</speed>
<temp>0.00</temp>
<bpm>0</bpm>
<rpm>0.00</rpm>
</extensions>
</trkpt>
<trkpt lat="63.937484741" lon="-20.983896255">
<ele>12.385498</ele>
<time>2012-07-27T16:39:03Z</time>
<speed>4.250000</speed>
<extensions>
<speed>4.3</speed>
<temp>0.00</temp>
<bpm>0</bpm>
<rpm>0.00</rpm>
</extensions>
</trkpt>
<trkpt lat="63.937397003" lon="-20.984279633">
<ele>12.956787</ele>
<time>2012-07-27T16:39:08Z</time>
<speed>3.920000</speed>
<extensions>
<speed>3.9</speed>
<temp>0.00</temp>
<bpm>0</bpm>
<rpm>0.00</rpm>
</extensions>
</trkpt>
<trkpt lat="63.937316895" lon="-20.984680176">
<ele>12.379395</ele>
<time>2012-07-27T16:39:13Z</time>
<speed>4.500000</speed>
<extensions>
<speed>4.5</speed>
<temp>0.00</temp>
<bpm>0</bpm>
<rpm>0.00</rpm>
</extensions>
</trkpt>
<trkpt lat="63.937248230" lon="-20.985095978">
<ele>11.947998</ele>
<time>2012-07-27T16:39:18Z</time>
<speed>4.200000</speed>
<extensions>
<speed>4.2</speed>
<temp>0.00</temp>
<bpm>0</bpm>
<rpm>0.00</rpm>
</extensions>
</trkpt>
<trkpt lat="63.937194824" lon="-20.985477448">
<ele>11.607178</ele>
<time>2012-07-27T16:39:23Z</time>
<speed>3.640000</speed>
<extensions>
<speed>3.6</speed>
<temp>0.00</temp>
<bpm>0</bpm>
<rpm>0.00</rpm>
</extensions>
</trkpt>
<trkpt lat="63.937183380" lon="-20.985872269">
<ele>12.101074</ele>
<time>2012-07-27T16:39:28Z</time>
<speed>3.690000</speed>
<extensions>
<speed>3.7</speed>
<temp>0.00</temp>
<bpm>0</bpm>
<rpm>0.00</rpm>
</extensions>
</trkpt>
<trkpt lat="63.937175751" lon="-20.986194611">
<ele>12.250488</ele>
<time>2012-07-27T16:39:33Z</time>
<speed>2.760000</speed>
<extensions>
<speed>2.8</speed>
<temp>0.00</temp>
<bpm>0</bpm>
<rpm>0.00</rpm>
</extensions>
</trkpt>
<trkpt lat="63.937164307" lon="-20.986370087">
<ele>12.190918</ele>
<time>2012-07-27T16:39:38Z</time>
<speed>0.090000</speed>
<extensions>
<speed>0.1</speed>
<temp>0.00</temp>
<bpm>0</bpm>
<rpm>0.00</rpm>
</extensions>
</trkpt>
<trkpt lat="63.937171936" lon="-20.986362457">
<ele>12.320068</ele>
<time>2012-07-27T16:39:43Z</time>
<speed>0.030000</speed>
<extensions>
<speed>0.0</speed>
<temp>0.00</temp>
<bpm>0</bpm>
<rpm>0.00</rpm>
</extensions>
</trkpt>
<trkpt lat="63.937164307" lon="-20.986406326">
<ele>12.227783</ele>
<time>2012-07-27T16:39:48Z</time>
<speed>1.630000</speed>
<extensions>
<speed>1.6</speed>
<temp>0.00</temp>
<bpm>0</bpm>
<rpm>0.00</rpm>
</extensions>
</trkpt>
<trkpt lat="63.937145233" lon="-20.986677170">
<ele>11.512451</ele>
<time>2012-07-27T16:39:53Z</time>
<speed>3.590000</speed>
<extensions>
<speed>3.6</speed>
<temp>0.00</temp>
<bpm>0</bpm>
<rpm>0.00</rpm>
</extensions>
</trkpt>
<trkpt lat="63.937156677" lon="-20.987068176">
<ele>12.013916</ele>
<time>2012-07-27T16:39:58Z</time>
<speed>3.510000</speed>
<extensions>
<speed>3.5</speed>
<temp>0.00</temp>
<bpm>0</bpm>
<rpm>0.00</rpm>
</extensions>
</trkpt>
<trkpt lat="63.937171936" lon="-20.987432480">
<ele>12.014648</ele>
<time>2012-07-27T16:40:03Z</time>
<speed>3.610000</speed>
<extensions>
<speed>3.6</speed>
<temp>0.00</temp>
<bpm>0</bpm>
<rpm>0.00</rpm>
</extensions>
</trkpt>
<trkpt lat="63.937164307" lon="-20.987810135">
<ele>12.156006</ele>
<time>2012-07-27T16:40:08Z</time>
<speed>2.860000</speed>
<extensions>
<speed>2.9</speed>
<temp>0.00</temp>
<bpm>0</bpm>
<rpm>0.00</rpm>
</extensions>
</trkpt>
<trkpt lat="63.937168121" lon="-20.988111496">
<ele>12.373535</ele>
<time>2012-07-27T16:40:13Z</time>
<speed>3.010000</speed>
<extensions>
<speed>3.0</speed>
<temp>0.00</temp>
<bpm>0</bpm>
<rpm>0.00</rpm>
</extensions>
</trkpt>
<trkpt lat="63.937171936" lon="-20.988424301">
<ele>12.395020</ele>
<time>2012-07-27T16:40:18Z</time>
<speed>3.030000</speed>
<extensions>
<speed>3.0</speed>
<temp>0.00</temp>
<bpm>0</bpm>
<rpm>0.00</rpm>
</extensions>
</trkpt>
<trkpt lat="63.937179565" lon="-20.988756180">
<ele>12.510986</ele>
<time>2012-07-27T16:40:23Z</time>
<speed>3.120000</speed>
<extensions>
<speed>3.1</speed>
<temp>0.00</temp>
<bpm>0</bpm>
<rpm>0.00</rpm>
</extensions>
</trkpt>
<trkpt lat="63.937179565" lon="-20.989088058">
<ele>12.269287</ele>
<time>2012-07-27T16:40:28Z</time>
<speed>3.190000</speed>
<extensions>
<speed>3.2</speed>
<temp>0.00</temp>
<bpm>0</bpm>
<rpm>0.00</rpm>
</extensions>
</trkpt>
<trkpt lat="63.937171936" lon="-20.989387512">
<ele>11.632568</ele>
<time>2012-07-27T16:40:33Z</time>
<speed>2.710000</speed>
<extensions>
<speed>2.7</speed>
<temp>0.00</temp>
<bpm>0</bpm>
<rpm>0.00</rpm>
</extensions>
</trkpt>
<trkpt lat="63.937179565" lon="-20.989587784">
<ele>12.012695</ele>
<time>2012-07-27T16:40:38Z</time>
<speed>0.770000</speed>
<extensions>
<speed>0.8</speed>
<temp>0.00</temp>
<bpm>0</bpm>
<rpm>0.00</rpm>
</extensions>
</trkpt>
<trkpt lat="63.937175751" lon="-20.989599228">
<ele>11.871582</ele>
<time>2012-07-27T16:40:43Z</time>
<speed>0.040000</speed>
<extensions>
<speed>0.0</speed>
<temp>0.00</temp>
<bpm>0</bpm>
<rpm>0.00</rpm>
</extensions>
</trkpt>
<trkpt lat="63.937175751" lon="-20.989597321">
<ele>11.906006</ele>
<time>2012-07-27T16:40:48Z</time>
<speed>0.030000</speed>
<extensions>
<speed>0.0</speed>
<temp>0.00</temp>
<bpm>0</bpm>
<rpm>0.00</rpm>
</extensions>
</trkpt>
<trkpt lat="63.937175751" lon="-20.989597321">
<ele>11.949707</ele>
<time>2012-07-27T16:40:53Z</time>
<speed>0.030000</speed>
<extensions>
<speed>0.0</speed>
<temp>0.00</temp>
<bpm>0</bpm>
<rpm>0.00</rpm>
</extensions>
</trkpt>
<trkpt lat="63.937175751" lon="-20.989595413">
<ele>11.971191</ele>
<time>2012-07-27T16:40:58Z</time>
<speed>0.020000</speed>
<extensions>
<speed>0.0</speed>
<temp>0.00</temp>
<bpm>0</bpm>
<rpm>0.00</rpm>
</extensions>
</trkpt>
<trkpt lat="63.937175751" lon="-20.989595413">
<ele>11.943604</ele>
<time>2012-07-27T16:41:03Z</time>
<speed>0.030000</speed>
<extensions>
<speed>0.0</speed>
<temp>0.00</temp>
<bpm>0</bpm>
<rpm>0.00</rpm>
</extensions>
</trkpt>
<trkpt lat="63.937175751" lon="-20.989593506">
<ele>11.967285</ele>
<time>2012-07-27T16:41:08Z</time>
<speed>0.620000</speed>
<extensions>
<speed>0.6</speed>
<temp>0.00</temp>
<bpm>0</bpm>
<rpm>0.00</rpm>
</extensions>
</trkpt>
<trkpt lat="63.937198639" lon="-20.989730835">
<ele>12.210449</ele>
<time>2012-07-27T16:41:13Z</time>
<speed>2.360000</speed>
<extensions>
<speed>2.4</speed>
<temp>0.00</temp>
<bpm>0</bpm>
<rpm>0.00</rpm>
</extensions>
</trkpt>
<trkpt lat="63.937210083" lon="-20.990034103">
<ele>12.524902</ele>
<time>2012-07-27T16:41:18Z</time>
<speed>3.110000</speed>
<extensions>
<speed>3.1</speed>
<temp>0.00</temp>
<bpm>0</bpm>
<rpm>0.00</rpm>
</extensions>
</trkpt>
<trkpt lat="63.937217712" lon="-20.990325928">
<ele>12.797852</ele>
<time>2012-07-27T16:41:23Z</time>
<speed>2.940000</speed>
<extensions>
<speed>2.9</speed>
<temp>0.00</temp>
<bpm>0</bpm>
<rpm>0.00</rpm>
</extensions>
</trkpt>
<trkpt lat="63.937202454" lon="-20.990650177">
<ele>12.417236</ele>
<time>2012-07-27T16:41:28Z</time>
<speed>3.340000</speed>
<extensions>
<speed>3.3</speed>
<temp>0.00</temp>
<bpm>0</bpm>
<rpm>0.00</rpm>
</extensions>
</trkpt>
<trkpt lat="63.937194824" lon="-20.990968704">
<ele>12.050293</ele>
<time>2012-07-27T16:41:33Z</time>
<speed>3.040000</speed>
<extensions>
<speed>3.0</speed>
<temp>0.00</temp>
<bpm>0</bpm>
<rpm>0.00</rpm>
</extensions>
</trkpt>
<trkpt lat="63.937183380" lon="-20.991279602">
<ele>12.365234</ele>
<time>2012-07-27T16:41:38Z</time>
<speed>2.810000</speed>
<extensions>
<speed>2.8</speed>
<temp>0.00</temp>
<bpm>0</bpm>
<rpm>0.00</rpm>
</extensions>
</trkpt>
<trkpt lat="63.937194824" lon="-20.991632462">
<ele>14.360596</ele>
<time>2012-07-27T16:41:43Z</time>
<speed>3.480000</speed>
<extensions>
<speed>3.5</speed>
<temp>0.00</temp>
<bpm>0</bpm>
<rpm>0.00</rpm>
</extensions>
</trkpt>
<trkpt lat="63.937210083" lon="-20.992010117">
<ele>15.447021</ele>
<time>2012-07-27T16:41:48Z</time>
<speed>3.720000</speed>
<extensions>
<speed>3.7</speed>
<temp>0.00</temp>
<bpm>0</bpm>
<rpm>0.00</rpm>
</extensions>
</trkpt>
<trkpt lat="63.937191010" lon="-20.992374420">
<ele>15.995361</ele>
<time>2012-07-27T16:41:53Z</time>
<speed>3.370000</speed>
<extensions>
<speed>3.4</speed>
<temp>0.00</temp>
<bpm>0</bpm>
<rpm>0.00</rpm>
</extensions>
</trkpt>
<trkpt lat="63.937191010" lon="-20.992725372">
<ele>16.529297</ele>
<time>2012-07-27T16:41:58Z</time>
<speed>3.300000</speed>
<extensions>
<speed>3.3</speed>
<temp>0.00</temp>
<bpm>0</bpm>
<rpm>0.00</rpm>
</extensions>
</trkpt>
<trkpt lat="63.937252045" lon="-20.992969513">
<ele>16.622070</ele>
<time>2012-07-27T16:42:03Z</time>
<speed>2.130000</speed>
<extensions>
<speed>2.1</speed>
<temp>0.00</temp>
<bpm>0</bpm>
<rpm>0.00</rpm>
</extensions>
</trkpt>
<trkpt lat="63.937328339" lon="-20.993068695">
<ele>17.339844</ele>
<time>2012-07-27T16:42:08Z</time>
<speed>0.720000</speed>
<extensions>
<speed>0.7</speed>
<temp>0.00</temp>
<bpm>0</bpm>
<rpm>0.00</rpm>
</extensions>
</trkpt>
<trkpt lat="63.937324524" lon="-20.993080139">
<ele>17.541016</ele>
<time>2012-07-27T16:42:13Z</time>
<speed>0.080000</speed>
<extensions>
<speed>0.1</speed>
<temp>0.00</temp>
<bpm>0</bpm>
<rpm>0.00</rpm>
</extensions>
</trkpt>
<trkpt lat="63.937313080" lon="-20.993127823">
<ele>18.112305</ele>
<time>2012-07-27T16:42:18Z</time>
<speed>1.620000</speed>
<extensions>
<speed>1.6</speed>
<temp>0.00</temp>
<bpm>0</bpm>
<rpm>0.00</rpm>
</extensions>
</trkpt>
<trkpt lat="63.937240601" lon="-20.993209839">
<ele>18.537109</ele>
<time>2012-07-27T16:42:23Z</time>
<speed>2.550000</speed>
<extensions>
<speed>2.6</speed>
<temp>0.00</temp>
<bpm>0</bpm>
<rpm>0.00</rpm>
</extensions>
</trkpt>
<trkpt lat="63.937202454" lon="-20.993558884">
<ele>18.563965</ele>
<time>2012-07-27T16:42:28Z</time>
<speed>3.630000</speed>
<extensions>
<speed>3.6</speed>
<temp>0.00</temp>
<bpm>0</bpm>
<rpm>0.00</rpm>
</extensions>
</trkpt>
<trkpt lat="63.937217712" lon="-20.993947983">
<ele>19.437500</ele>
<time>2012-07-27T16:42:33Z</time>
<speed>3.370000</speed>
<extensions>
<speed>3.4</speed>
<temp>0.00</temp>
<bpm>0</bpm>
<rpm>0.00</rpm>
</extensions>
</trkpt>
<trkpt lat="63.937213898" lon="-20.994340897">
<ele>18.894531</ele>
<time>2012-07-27T16:42:38Z</time>
<speed>3.910000</speed>
<extensions>
<speed>3.9</speed>
<temp>0.00</temp>
<bpm>0</bpm>
<rpm>0.00</rpm>
</extensions>
</trkpt>
<trkpt lat="63.937213898" lon="-20.994710922">
<ele>17.959961</ele>
<time>2012-07-27T16:42:43Z</time>
<speed>3.370000</speed>
<extensions>
<speed>3.4</speed>
<temp>0.00</temp>
<bpm>0</bpm>
<rpm>0.00</rpm>
</extensions>
</trkpt>
<trkpt lat="63.937213898" lon="-20.995021820">
<ele>17.617676</ele>
<time>2012-07-27T16:42:48Z</time>
<speed>2.830000</speed>
<extensions>
<speed>2.8</speed>
<temp>0.00</temp>
<bpm>0</bpm>
<rpm>0.00</rpm>
</extensions>
</trkpt>
<trkpt lat="63.937221527" lon="-20.995307922">
<ele>17.279297</ele>
<time>2012-07-27T16:42:53Z</time>
<speed>2.470000</speed>
<extensions>
<speed>2.5</speed>
<temp>0.00</temp>
<bpm>0</bpm>
<rpm>0.00</rpm>
</extensions>
</trkpt>
<trkpt lat="63.937232971" lon="-20.995538712">
<ele>17.590820</ele>
<time>2012-07-27T16:42:58Z</time>
<speed>2.010000</speed>
<extensions>
<speed>2.0</speed>
<temp>0.00</temp>
<bpm>0</bpm>
<rpm>0.00</rpm>
</extensions>
</trkpt>
<trkpt lat="63.937240601" lon="-20.995769501">
<ele>17.666016</ele>
<time>2012-07-27T16:43:03Z</time>
<speed>3.080000</speed>
<extensions>
<speed>3.1</speed>
<temp>0.00</temp>
<bpm>0</bpm>
<rpm>0.00</rpm>
</extensions>
</trkpt>
<trkpt lat="63.937236786" lon="-20.996088028">
<ele>17.137695</ele>
<time>2012-07-27T16:43:08Z</time>
<speed>3.260000</speed>
<extensions>
<speed>3.3</speed>
<temp>0.00</temp>
<bpm>0</bpm>
<rpm>0.00</rpm>
</extensions>
</trkpt>
<trkpt lat="63.937252045" lon="-20.996389389">
<ele>17.642090</ele>
<time>2012-07-27T16:43:13Z</time>
<speed>2.850000</speed>
<extensions>
<speed>2.9</speed>
<temp>0.00</temp>
<bpm>0</bpm>
<rpm>0.00</rpm>
</extensions>
</trkpt>
<trkpt lat="63.937240601" lon="-20.996648788">
<ele>17.567383</ele>
<time>2012-07-27T16:43:18Z</time>
<speed>2.820000</speed>
<extensions>
<speed>2.8</speed>
<temp>0.00</temp>
<bpm>0</bpm>
<rpm>0.00</rpm>
</extensions>
</trkpt>
<trkpt lat="63.937229156" lon="-20.996978760">
<ele>17.485352</ele>
<time>2012-07-27T16:43:23Z</time>
<speed>3.760000</speed>
<extensions>
<speed>3.8</speed>
<temp>0.00</temp>
<bpm>0</bpm>
<rpm>0.00</rpm>
</extensions>
</trkpt>
<trkpt lat="63.937240601" lon="-20.997360229">
<ele>17.571289</ele>
<time>2012-07-27T16:43:28Z</time>
<speed>3.210000</speed>
<extensions>
<speed>3.2</speed>
<temp>0.00</temp>
<bpm>0</bpm>
<rpm>0.00</rpm>
</extensions>
</trkpt>
<trkpt lat="63.937259674" lon="-20.997716904">
<ele>18.067871</ele>
<time>2012-07-27T16:43:33Z</time>
<speed>3.510000</speed>
<extensions>
<speed>3.5</speed>
<temp>0.00</temp>
<bpm>0</bpm>
<rpm>0.00</rpm>
</extensions>
</trkpt>
<trkpt lat="63.937263489" lon="-20.998054504">
<ele>17.409668</ele>
<time>2012-07-27T16:43:38Z</time>
<speed>3.010000</speed>
<extensions>
<speed>3.0</speed>
<temp>0.00</temp>
<bpm>0</bpm>
<rpm>0.00</rpm>
</extensions>
</trkpt>
<trkpt lat="63.937271118" lon="-20.998365402">
<ele>17.346191</ele>
<time>2012-07-27T16:43:43Z</time>
<speed>3.300000</speed>
<extensions>
<speed>3.3</speed>
<temp>0.00</temp>
<bpm>0</bpm>
<rpm>0.00</rpm>
</extensions>
</trkpt>
<trkpt lat="63.937282562" lon="-20.998680115">
<ele>17.049805</ele>
<time>2012-07-27T16:43:48Z</time>
<speed>2.840000</speed>
<extensions>
<speed>2.8</speed>
<temp>0.00</temp>
<bpm>0</bpm>
<rpm>0.00</rpm>
</extensions>
</trkpt>
<trkpt lat="63.937290192" lon="-20.998945236">
<ele>15.541504</ele>
<time>2012-07-27T16:43:53Z</time>
<speed>2.410000</speed>
<extensions>
<speed>2.4</speed>
<temp>0.00</temp>
<bpm>0</bpm>
<rpm>0.00</rpm>
</extensions>
</trkpt>
<trkpt lat="63.937297821" lon="-20.999168396">
<ele>15.512695</ele>
<time>2012-07-27T16:43:58Z</time>
<speed>2.170000</speed>
<extensions>
<speed>2.2</speed>
<temp>0.00</temp>
<bpm>0</bpm>
<rpm>0.00</rpm>
</extensions>
</trkpt>
<trkpt lat="63.937286377" lon="-20.999416351">
<ele>15.409424</ele>
<time>2012-07-27T16:44:03Z</time>
<speed>3.070000</speed>
<extensions>
<speed>3.1</speed>
<temp>0.00</temp>
<bpm>0</bpm>
<rpm>0.00</rpm>
</extensions>
</trkpt>
<trkpt lat="63.937274933" lon="-20.999738693">
<ele>16.953125</ele>
<time>2012-07-27T16:44:08Z</time>
<speed>2.920000</speed>
<extensions>
<speed>2.9</speed>
<temp>0.00</temp>
<bpm>0</bpm>
<rpm>0.00</rpm>
</extensions>
</trkpt>
<trkpt lat="63.937259674" lon="-21.000068665">
<ele>17.045410</ele>
<time>2012-07-27T16:44:13Z</time>
<speed>3.300000</speed>
<extensions>
<speed>3.3</speed>
<temp>0.00</temp>
<bpm>0</bpm>
<rpm>0.00</rpm>
</extensions>
</trkpt>
<trkpt lat="63.937263489" lon="-21.000377655">
<ele>17.292480</ele>
<time>2012-07-27T16:44:18Z</time>
<speed>2.900000</speed>
<extensions>
<speed>2.9</speed>
<temp>0.00</temp>
<bpm>0</bpm>
<rpm>0.00</rpm>
</extensions>
</trkpt>
<trkpt lat="63.937301636" lon="-21.000652313">
<ele>18.296387</ele>
<time>2012-07-27T16:44:23Z</time>
<speed>2.190000</speed>
<extensions>
<speed>2.2</speed>
<temp>0.00</temp>
<bpm>0</bpm>
<rpm>0.00</rpm>
</extensions>
</trkpt>
<trkpt lat="63.937328339" lon="-21.000833511">
<ele>18.334473</ele>
<time>2012-07-27T16:44:28Z</time>
<speed>1.630000</speed>
<extensions>
<speed>1.6</speed>
<temp>0.00</temp>
<bpm>0</bpm>
<rpm>0.00</rpm>
</extensions>
</trkpt>
<trkpt lat="63.937343597" lon="-21.000993729">
<ele>19.764160</ele>
<time>2012-07-27T16:44:33Z</time>
<speed>2.050000</speed>
<extensions>
<speed>2.1</speed>
<temp>0.00</temp>
<bpm>0</bpm>
<rpm>0.00</rpm>
</extensions>
</trkpt>
<trkpt lat="63.937362671" lon="-21.001241684">
<ele>19.801270</ele>
<time>2012-07-27T16:44:38Z</time>
<speed>2.300000</speed>
<extensions>
<speed>2.3</speed>
<temp>0.00</temp>
<bpm>0</bpm>
<rpm>0.00</rpm>
</extensions>
</trkpt>
<trkpt lat="63.937389374" lon="-21.001438141">
<ele>20.085938</ele>
<time>2012-07-27T16:44:43Z</time>
<speed>1.580000</speed>
<extensions>
<speed>1.6</speed>
<temp>0.00</temp>
<bpm>0</bpm>
<rpm>0.00</rpm>
</extensions>
</trkpt>
<trkpt lat="63.937416077" lon="-21.001546860">
<ele>19.866699</ele>
<time>2012-07-27T16:44:48Z</time>
<speed>1.430000</speed>
<extensions>
<speed>1.4</speed>
<temp>0.00</temp>
<bpm>0</bpm>
<rpm>0.00</rpm>
</extensions>
</trkpt>
<trkpt lat="63.937423706" lon="-21.001728058">
<ele>19.626465</ele>
<time>2012-07-27T16:44:53Z</time>
<speed>1.810000</speed>
<extensions>
<speed>1.8</speed>
<temp>0.00</temp>
<bpm>0</bpm>
<rpm>0.00</rpm>
</extensions>
</trkpt>
<trkpt lat="63.937435150" lon="-21.001863480">
<ele>18.614746</ele>
<time>2012-07-27T16:44:58Z</time>
<speed>1.350000</speed>
<extensions>
<speed>1.4</speed>
<temp>0.00</temp>
<bpm>0</bpm>
<rpm>0.00</rpm>
</extensions>
</trkpt>
<trkpt lat="63.937446594" lon="-21.002063751">
<ele>19.387207</ele>
<time>2012-07-27T16:45:03Z</time>
<speed>2.440000</speed>
<extensions>
<speed>2.4</speed>
<temp>0.00</temp>
<bpm>0</bpm>
<rpm>0.00</rpm>
</extensions>
</trkpt>
<trkpt lat="63.937461853" lon="-21.002338409">
<ele>19.622070</ele>
<time>2012-07-27T16:45:08Z</time>
<speed>2.420000</speed>
<extensions>
<speed>2.4</speed>
<temp>0.00</temp>
<bpm>0</bpm>
<rpm>0.00</rpm>
</extensions>
</trkpt>
<trkpt lat="63.937465668" lon="-21.002588272">
<ele>19.899414</ele>
<time>2012-07-27T16:45:13Z</time>
<speed>2.230000</speed>
<extensions>
<speed>2.2</speed>
<temp>0.00</temp>
<bpm>0</bpm>
<rpm>0.00</rpm>
</extensions>
</trkpt>
<trkpt lat="63.937465668" lon="-21.002809525">
<ele>19.752930</ele>
<time>2012-07-27T16:45:18Z</time>
<speed>1.680000</speed>
<extensions>
<speed>1.7</speed>
<temp>0.00</temp>
<bpm>0</bpm>
<rpm>0.00</rpm>
</extensions>
</trkpt>
<trkpt lat="63.937477112" lon="-21.003030777">
<ele>19.977051</ele>
<time>2012-07-27T16:45:23Z</time>
<speed>1.810000</speed>
<extensions>
<speed>1.8</speed>
<temp>0.00</temp>
<bpm>0</bpm>
<rpm>0.00</rpm>
</extensions>
</trkpt>
<trkpt lat="63.937477112" lon="-21.003190994">
<ele>19.917480</ele>
<time>2012-07-27T16:45:28Z</time>
<speed>1.440000</speed>
<extensions>
<speed>1.4</speed>
<temp>0.00</temp>
<bpm>0</bpm>
<rpm>0.00</rpm>
</extensions>
</trkpt>
<trkpt lat="63.937549591" lon="-21.003322601">
<ele>20.961426</ele>
<time>2012-07-27T16:45:33Z</time>
<speed>2.380000</speed>
<extensions>
<speed>2.4</speed>
<temp>0.00</temp>
<bpm>0</bpm>
<rpm>0.00</rpm>
</extensions>
</trkpt>
<trkpt lat="63.937637329" lon="-21.003486633">
<ele>20.393066</ele>
<time>2012-07-27T16:45:38Z</time>
<speed>2.000000</speed>
<extensions>
<speed>2.0</speed>
<temp>0.00</temp>
<bpm>0</bpm>
<rpm>0.00</rpm>
</extensions>
</trkpt>
<trkpt lat="63.937679291" lon="-21.003692627">
<ele>20.266602</ele>
<time>2012-07-27T16:45:43Z</time>
<speed>2.190000</speed>
<extensions>
<speed>2.2</speed>
<temp>0.00</temp>
<bpm>0</bpm>
<rpm>0.00</rpm>
</extensions>
</trkpt>
<trkpt lat="63.937694550" lon="-21.003816605">
<ele>21.564453</ele>
<time>2012-07-27T16:45:48Z</time>
<speed>0.150000</speed>
<extensions>
<speed>0.2</speed>
<temp>0.00</temp>
<bpm>0</bpm>
<rpm>0.00</rpm>
</extensions>
</trkpt>
<trkpt lat="63.937690735" lon="-21.003816605">
<ele>21.993652</ele>
<time>2012-07-27T16:45:53Z</time>
<speed>0.020000</speed>
<extensions>
<speed>0.0</speed>
<temp>0.00</temp>
<bpm>0</bpm>
<rpm>0.00</rpm>
</extensions>
</trkpt>
<trkpt lat="63.937686920" lon="-21.003820419">
<ele>22.107910</ele>
<time>2012-07-27T16:45:58Z</time>
<speed>0.130000</speed>
<extensions>
<speed>0.1</speed>
<temp>0.00</temp>
<bpm>0</bpm>
<rpm>0.00</rpm>
</extensions>
</trkpt>
<trkpt lat="63.937686920" lon="-21.003816605">
<ele>22.256836</ele>
<time>2012-07-27T16:46:03Z</time>
<speed>0.130000</speed>
<extensions>
<speed>0.1</speed>
<temp>0.00</temp>
<bpm>0</bpm>
<rpm>0.00</rpm>
</extensions>
</trkpt>
<trkpt lat="63.937690735" lon="-21.003814697">
<ele>22.330566</ele>
<time>2012-07-27T16:46:08Z</time>
<speed>0.110000</speed>
<extensions>
<speed>0.1</speed>
<temp>0.00</temp>
<bpm>0</bpm>
<rpm>0.00</rpm>
</extensions>
</trkpt>
<trkpt lat="63.937690735" lon="-21.003814697">
<ele>22.480469</ele>
<time>2012-07-27T16:46:13Z</time>
<speed>0.020000</speed>
<extensions>
<speed>0.0</speed>
<temp>0.00</temp>
<bpm>0</bpm>
<rpm>0.00</rpm>
</extensions>
</trkpt>
<trkpt lat="63.937694550" lon="-21.003810883">
<ele>22.679199</ele>
<time>2012-07-27T16:46:18Z</time>
<speed>0.070000</speed>
<extensions>
<speed>0.1</speed>
<temp>0.00</temp>
<bpm>0</bpm>
<rpm>0.00</rpm>
</extensions>
</trkpt>
<trkpt lat="63.937694550" lon="-21.003814697">
<ele>22.678711</ele>
<time>2012-07-27T16:46:23Z</time>
<speed>0.120000</speed>
<extensions>
<speed>0.1</speed>
<temp>0.00</temp>
<bpm>0</bpm>
<rpm>0.00</rpm>
</extensions>
</trkpt>
<trkpt lat="63.937694550" lon="-21.003814697">
<ele>22.667969</ele>
<time>2012-07-27T16:46:28Z</time>
<speed>0.040000</speed>
<extensions>
<speed>0.0</speed>
<temp>0.00</temp>
<bpm>0</bpm>
<rpm>0.00</rpm>
</extensions>
</trkpt>
<trkpt lat="63.937694550" lon="-21.003814697">
<ele>22.678711</ele>
<time>2012-07-27T16:46:33Z</time>
<extensions>
<speed>0.0</speed>
<temp>0.00</temp>
<bpm>0</bpm>
<rpm>0.00</rpm>
</extensions>
</trkpt>
<trkpt lat="63.937694550" lon="-21.003814697">
<ele>22.678223</ele>
<time>2012-07-27T16:46:38Z</time>
<extensions>
<speed>0.0</speed>
<temp>0.00</temp>
<bpm>0</bpm>
<rpm>0.00</rpm>
</extensions>
</trkpt>
<trkpt lat="63.937694550" lon="-21.003814697">
<ele>22.723633</ele>
<time>2012-07-27T16:46:43Z</time>
<speed>0.010000</speed>
<extensions>
<speed>0.0</speed>
<temp>0.00</temp>
<bpm>0</bpm>
<rpm>0.00</rpm>
</extensions>
</trkpt>
<trkpt lat="63.937694550" lon="-21.003814697">
<ele>22.726074</ele>
<time>2012-07-27T16:46:48Z</time>
<speed>0.100000</speed>
<extensions>
<speed>0.1</speed>
<temp>0.00</temp>
<bpm>0</bpm>
<rpm>0.00</rpm>
</extensions>
</trkpt>
<trkpt lat="63.937667847" lon="-21.003690720">
<ele>23.452148</ele>
<time>2012-07-27T16:46:53Z</time>
<speed>2.810000</speed>
<extensions>
<speed>2.8</speed>
<temp>0.00</temp>
<bpm>0</bpm>
<rpm>0.00</rpm>
</extensions>
</trkpt>
<trkpt lat="63.937572479" lon="-21.003421783">
<ele>25.332520</ele>
<time>2012-07-27T16:46:58Z</time>
<speed>2.590000</speed>
<extensions>
<speed>2.6</speed>
<temp>0.00</temp>
<bpm>0</bpm>
<rpm>0.00</rpm>
</extensions>
</trkpt>
<trkpt lat="63.937522888" lon="-21.003190994">
<ele>26.490234</ele>
<time>2012-07-27T16:47:03Z</time>
<speed>2.580000</speed>
<extensions>
<speed>2.6</speed>
<temp>0.00</temp>
<bpm>0</bpm>
<rpm>0.00</rpm>
</extensions>
</trkpt>
<trkpt lat="63.937492371" lon="-21.002883911">
<ele>25.447266</ele>
<time>2012-07-27T16:47:08Z</time>
<speed>3.330000</speed>
<extensions>
<speed>3.3</speed>
<temp>0.00</temp>
<bpm>0</bpm>
<rpm>0.00</rpm>
</extensions>
</trkpt>
<trkpt lat="63.937461853" lon="-21.002475739">
<ele>24.042969</ele>
<time>2012-07-27T16:47:13Z</time>
<speed>4.070000</speed>
<extensions>
<speed>4.1</speed>
<temp>0.00</temp>
<bpm>0</bpm>
<rpm>0.00</rpm>
</extensions>
</trkpt>
<trkpt lat="63.937438965" lon="-21.002080917">
<ele>25.207031</ele>
<time>2012-07-27T16:47:18Z</time>
<speed>3.810000</speed>
<extensions>
<speed>3.8</speed>
<temp>0.00</temp>
<bpm>0</bpm>
<rpm>0.00</rpm>
</extensions>
</trkpt>
<trkpt lat="63.937419891" lon="-21.001728058">
<ele>26.191406</ele>
<time>2012-07-27T16:47:23Z</time>
<speed>3.460000</speed>
<extensions>
<speed>3.5</speed>
<temp>0.00</temp>
<bpm>0</bpm>
<rpm>0.00</rpm>
</extensions>
</trkpt>
<trkpt lat="63.937397003" lon="-21.001407623">
<ele>25.851563</ele>
<time>2012-07-27T16:47:28Z</time>
<speed>3.140000</speed>
<extensions>
<speed>3.1</speed>
<temp>0.00</temp>
<bpm>0</bpm>
<rpm>0.00</rpm>
</extensions>
</trkpt>
<trkpt lat="63.937374115" lon="-21.001148224">
<ele>28.774414</ele>
<time>2012-07-27T16:47:33Z</time>
<speed>2.280000</speed>
<extensions>
<speed>2.3</speed>
<temp>0.00</temp>
<bpm>0</bpm>
<rpm>0.00</rpm>
</extensions>
</trkpt>
<trkpt lat="63.937374115" lon="-21.000854492">
<ele>26.523438</ele>
<time>2012-07-27T16:47:38Z</time>
<speed>2.160000</speed>
<extensions>
<speed>2.2</speed>
<temp>0.00</temp>
<bpm>0</bpm>
<rpm>0.00</rpm>
</extensions>
</trkpt>
<trkpt lat="63.937423706" lon="-21.000730515">
<ele>23.953125</ele>
<time>2012-07-27T16:47:43Z</time>
<speed>0.880000</speed>
<extensions>
<speed>0.9</speed>
<temp>0.00</temp>
<bpm>0</bpm>
<rpm>0.00</rpm>
</extensions>
</trkpt>
<trkpt lat="63.937435150" lon="-21.000720978">
<ele>24.064453</ele>
<time>2012-07-27T16:47:48Z</time>
<speed>0.040000</speed>
<extensions>
<speed>0.0</speed>
<temp>0.00</temp>
<bpm>0</bpm>
<rpm>0.00</rpm>
</extensions>
</trkpt>
<trkpt lat="63.937450409" lon="-21.000734329">
<ele>24.959961</ele>
<time>2012-07-27T16:47:53Z</time>
<speed>1.190000</speed>
<extensions>
<speed>1.2</speed>
<temp>0.00</temp>
<bpm>0</bpm>
<rpm>0.00</rpm>
</extensions>
</trkpt>
<trkpt lat="63.937473297" lon="-21.000741959">
<ele>26.041504</ele>
<time>2012-07-27T16:47:58Z</time>
<speed>0.280000</speed>
<extensions>
<speed>0.3</speed>
<temp>0.00</temp>
<bpm>0</bpm>
<rpm>0.00</rpm>
</extensions>
</trkpt>
<trkpt lat="63.937473297" lon="-21.000719070">
<ele>24.481445</ele>
<time>2012-07-27T16:48:03Z</time>
<speed>0.020000</speed>
<extensions>
<speed>0.0</speed>
<temp>0.00</temp>
<bpm>0</bpm>
<rpm>0.00</rpm>
</extensions>
</trkpt>
<trkpt lat="63.937473297" lon="-21.000722885">
<ele>24.559082</ele>
<time>2012-07-27T16:48:08Z</time>
<speed>0.020000</speed>
<extensions>
<speed>0.0</speed>
<temp>0.00</temp>
<bpm>0</bpm>
<rpm>0.00</rpm>
</extensions>
</trkpt>
<trkpt lat="63.937473297" lon="-21.000722885">
<ele>24.581055</ele>
<time>2012-07-27T16:48:13Z</time>
<speed>0.010000</speed>
<extensions>
<speed>0.0</speed>
<temp>0.00</temp>
<bpm>0</bpm>
<rpm>0.00</rpm>
</extensions>
</trkpt>
<trkpt lat="63.937473297" lon="-21.000722885">
<ele>24.574219</ele>
<time>2012-07-27T16:48:18Z</time>
<speed>0.010000</speed>
<extensions>
<speed>0.0</speed>
<temp>0.00</temp>
<bpm>0</bpm>
<rpm>0.00</rpm>
</extensions>
</trkpt>
<trkpt lat="63.937473297" lon="-21.000722885">
<ele>24.577637</ele>
<time>2012-07-27T16:48:23Z</time>
<speed>0.010000</speed>
<extensions>
<speed>0.0</speed>
<temp>0.00</temp>
<bpm>0</bpm>
<rpm>0.00</rpm>
</extensions>
</trkpt>
<trkpt lat="63.937473297" lon="-21.000722885">
<ele>24.582520</ele>
<time>2012-07-27T16:48:28Z</time>
<extensions>
<speed>0.0</speed>
<temp>0.00</temp>
<bpm>0</bpm>
<rpm>0.00</rpm>
</extensions>
</trkpt>
<trkpt lat="63.937473297" lon="-21.000722885">
<ele>24.580566</ele>
<time>2012-07-27T16:48:33Z</time>
<extensions>
<speed>0.0</speed>
<temp>0.00</temp>
<bpm>0</bpm>
<rpm>0.00</rpm>
</extensions>
</trkpt>
<trkpt lat="63.937473297" lon="-21.000722885">
<ele>24.556152</ele>
<time>2012-07-27T16:48:38Z</time>
<extensions>
<speed>0.0</speed>
<temp>0.00</temp>
<bpm>0</bpm>
<rpm>0.00</rpm>
</extensions>
</trkpt>
<trkpt lat="63.937473297" lon="-21.000722885">
<ele>24.541504</ele>
<time>2012-07-27T16:48:43Z</time>
<extensions>
<speed>0.0</speed>
<temp>0.00</temp>
<bpm>0</bpm>
<rpm>0.00</rpm>
</extensions>
</trkpt>
<trkpt lat="63.937473297" lon="-21.000722885">
<ele>24.534668</ele>
<time>2012-07-27T16:48:48Z</time>
<extensions>
<speed>0.0</speed>
<temp>0.00</temp>
<bpm>0</bpm>
<rpm>0.00</rpm>
</extensions>
</trkpt>
<trkpt lat="63.937473297" lon="-21.000720978">
<ele>24.514648</ele>
<time>2012-07-27T16:48:53Z</time>
<extensions>
<speed>0.0</speed>
<temp>0.00</temp>
<bpm>0</bpm>
<rpm>0.00</rpm>
</extensions>
</trkpt>
<trkpt lat="63.937473297" lon="-21.000720978">
<ele>24.493164</ele>
<time>2012-07-27T16:48:58Z</time>
<speed>0.010000</speed>
<extensions>
<speed>0.0</speed>
<temp>0.00</temp>
<bpm>0</bpm>
<rpm>0.00</rpm>
</extensions>
</trkpt>
<trkpt lat="63.937473297" lon="-21.000720978">
<ele>24.481445</ele>
<time>2012-07-27T16:49:03Z</time>
<extensions>
<speed>0.0</speed>
<temp>0.00</temp>
<bpm>0</bpm>
<rpm>0.00</rpm>
</extensions>
</trkpt>
<trkpt lat="63.937473297" lon="-21.000720978">
<ele>24.479980</ele>
<time>2012-07-27T16:49:08Z</time>
<extensions>
<speed>0.0</speed>
<temp>0.00</temp>
<bpm>0</bpm>
<rpm>0.00</rpm>
</extensions>
</trkpt>
<trkpt lat="63.937473297" lon="-21.000720978">
<ele>24.468750</ele>
<time>2012-07-27T16:49:13Z</time>
<extensions>
<speed>0.0</speed>
<temp>0.00</temp>
<bpm>0</bpm>
<rpm>0.00</rpm>
</extensions>
</trkpt>
<trkpt lat="63.937473297" lon="-21.000720978">
<ele>24.462402</ele>
<time>2012-07-27T16:49:18Z</time>
<extensions>
<speed>0.0</speed>
<temp>0.00</temp>
<bpm>0</bpm>
<rpm>0.00</rpm>
</extensions>
</trkpt>
<trkpt lat="63.937473297" lon="-21.000720978">
<ele>24.460938</ele>
<time>2012-07-27T16:49:23Z</time>
<speed>0.030000</speed>
<extensions>
<speed>0.0</speed>
<temp>0.00</temp>
<bpm>0</bpm>
<rpm>0.00</rpm>
</extensions>
</trkpt>
<trkpt lat="63.937473297" lon="-21.000720978">
<ele>24.461426</ele>
<time>2012-07-27T16:49:28Z</time>
<extensions>
<speed>0.0</speed>
<temp>0.00</temp>
<bpm>0</bpm>
<rpm>0.00</rpm>
</extensions>
</trkpt>
<trkpt lat="63.937473297" lon="-21.000720978">
<ele>24.462891</ele>
<time>2012-07-27T16:49:33Z</time>
<extensions>
<speed>0.0</speed>
<temp>0.00</temp>
<bpm>0</bpm>
<rpm>0.00</rpm>
</extensions>
</trkpt>
<trkpt lat="63.937473297" lon="-21.000720978">
<ele>24.460938</ele>
<time>2012-07-27T16:49:38Z</time>
<extensions>
<speed>0.0</speed>
<temp>0.00</temp>
<bpm>0</bpm>
<rpm>0.00</rpm>
</extensions>
</trkpt>
<trkpt lat="63.937473297" lon="-21.000720978">
<ele>24.462402</ele>
<time>2012-07-27T16:49:43Z</time>
<extensions>
<speed>0.0</speed>
<temp>0.00</temp>
<bpm>0</bpm>
<rpm>0.00</rpm>
</extensions>
</trkpt>
<trkpt lat="63.937473297" lon="-21.000719070">
<ele>24.469727</ele>
<time>2012-07-27T16:49:48Z</time>
<speed>0.010000</speed>
<extensions>
<speed>0.0</speed>
<temp>0.00</temp>
<bpm>0</bpm>
<rpm>0.00</rpm>
</extensions>
</trkpt>
<trkpt lat="63.937473297" lon="-21.000720978">
<ele>24.486328</ele>
<time>2012-07-27T16:49:53Z</time>
<extensions>
<speed>0.0</speed>
<temp>0.00</temp>
<bpm>0</bpm>
<rpm>0.00</rpm>
</extensions>
</trkpt>
<trkpt lat="63.937473297" lon="-21.000720978">
<ele>24.493164</ele>
<time>2012-07-27T16:49:58Z</time>
<speed>0.010000</speed>
<extensions>
<speed>0.0</speed>
<temp>0.00</temp>
<bpm>0</bpm>
<rpm>0.00</rpm>
</extensions>
</trkpt>
<trkpt lat="63.937473297" lon="-21.000719070">
<ele>24.500488</ele>
<time>2012-07-27T16:50:03Z</time>
<extensions>
<speed>0.0</speed>
<temp>0.00</temp>
<bpm>0</bpm>
<rpm>0.00</rpm>
</extensions>
</trkpt>
<trkpt lat="63.937473297" lon="-21.000719070">
<ele>24.511719</ele>
<time>2012-07-27T16:50:08Z</time>
<extensions>
<speed>0.0</speed>
<temp>0.00</temp>
<bpm>0</bpm>
<rpm>0.00</rpm>
</extensions>
</trkpt>
<trkpt lat="63.937473297" lon="-21.000719070">
<ele>24.513672</ele>
<time>2012-07-27T16:50:13Z</time>
<extensions>
<speed>0.0</speed>
<temp>0.00</temp>
<bpm>0</bpm>
<rpm>0.00</rpm>
</extensions>
</trkpt>
<trkpt lat="63.937473297" lon="-21.000719070">
<ele>24.503418</ele>
<time>2012-07-27T16:50:18Z</time>
<extensions>
<speed>0.0</speed>
<temp>0.00</temp>
<bpm>0</bpm>
<rpm>0.00</rpm>
</extensions>
</trkpt>
<trkpt lat="63.937473297" lon="-21.000719070">
<ele>24.491211</ele>
<time>2012-07-27T16:50:23Z</time>
<extensions>
<speed>0.0</speed>
<temp>0.00</temp>
<bpm>0</bpm>
<rpm>0.00</rpm>
</extensions>
</trkpt>
<trkpt lat="63.937473297" lon="-21.000719070">
<ele>24.475098</ele>
<time>2012-07-27T16:50:28Z</time>
<extensions>
<speed>0.0</speed>
<temp>0.00</temp>
<bpm>0</bpm>
<rpm>0.00</rpm>
</extensions>
</trkpt>
<trkpt lat="63.937473297" lon="-21.000719070">
<ele>24.465332</ele>
<time>2012-07-27T16:50:33Z</time>
<extensions>
<speed>0.0</speed>
<temp>0.00</temp>
<bpm>0</bpm>
<rpm>0.00</rpm>
</extensions>
</trkpt>
<trkpt lat="63.937473297" lon="-21.000719070">
<ele>24.457520</ele>
<time>2012-07-27T16:50:38Z</time>
<extensions>
<speed>0.0</speed>
<temp>0.00</temp>
<bpm>0</bpm>
<rpm>0.00</rpm>
</extensions>
</trkpt>
<trkpt lat="63.937473297" lon="-21.000719070">
<ele>24.454590</ele>
<time>2012-07-27T16:50:43Z</time>
<speed>0.010000</speed>
<extensions>
<speed>0.0</speed>
<temp>0.00</temp>
<bpm>0</bpm>
<rpm>0.00</rpm>
</extensions>
</trkpt>
<trkpt lat="63.937473297" lon="-21.000719070">
<ele>24.445313</ele>
<time>2012-07-27T16:50:48Z</time>
<extensions>
<speed>0.0</speed>
<temp>0.00</temp>
<bpm>0</bpm>
<rpm>0.00</rpm>
</extensions>
</trkpt>
<trkpt lat="63.937473297" lon="-21.000719070">
<ele>24.452148</ele>
<time>2012-07-27T16:50:53Z</time>
<extensions>
<speed>0.0</speed>
<temp>0.00</temp>
<bpm>0</bpm>
<rpm>0.00</rpm>
</extensions>
</trkpt>
<trkpt lat="63.937469482" lon="-21.000719070">
<ele>24.433105</ele>
<time>2012-07-27T16:50:58Z</time>
<extensions>
<speed>0.0</speed>
<temp>0.00</temp>
<bpm>0</bpm>
<rpm>0.00</rpm>
</extensions>
</trkpt>
<trkpt lat="63.937469482" lon="-21.000719070">
<ele>24.427246</ele>
<time>2012-07-27T16:51:03Z</time>
<speed>0.010000</speed>
<extensions>
<speed>0.0</speed>
<temp>0.00</temp>
<bpm>0</bpm>
<rpm>0.00</rpm>
</extensions>
</trkpt>
<trkpt lat="63.937469482" lon="-21.000719070">
<ele>24.420898</ele>
<time>2012-07-27T16:51:08Z</time>
<extensions>
<speed>0.0</speed>
<temp>0.00</temp>
<bpm>0</bpm>
<rpm>0.00</rpm>
</extensions>
</trkpt>
<trkpt lat="63.937469482" lon="-21.000719070">
<ele>24.416992</ele>
<time>2012-07-27T16:51:13Z</time>
<extensions>
<speed>0.0</speed>
<temp>0.00</temp>
<bpm>0</bpm>
<rpm>0.00</rpm>
</extensions>
</trkpt>
<trkpt lat="63.937469482" lon="-21.000720978">
<ele>24.415039</ele>
<time>2012-07-27T16:51:18Z</time>
<extensions>
<speed>0.0</speed>
<temp>0.00</temp>
<bpm>0</bpm>
<rpm>0.00</rpm>
</extensions>
</trkpt>
<trkpt lat="63.937469482" lon="-21.000720978">
<ele>24.416992</ele>
<time>2012-07-27T16:51:23Z</time>
<extensions>
<speed>0.0</speed>
<temp>0.00</temp>
<bpm>0</bpm>
<rpm>0.00</rpm>
</extensions>
</trkpt>
<trkpt lat="63.937469482" lon="-21.000720978">
<ele>24.420898</ele>
<time>2012-07-27T16:51:28Z</time>
<extensions>
<speed>0.0</speed>
<temp>0.00</temp>
<bpm>0</bpm>
<rpm>0.00</rpm>
</extensions>
</trkpt>
<trkpt lat="63.937469482" lon="-21.000720978">
<ele>24.433105</ele>
<time>2012-07-27T16:51:33Z</time>
<extensions>
<speed>0.0</speed>
<temp>0.00</temp>
<bpm>0</bpm>
<rpm>0.00</rpm>
</extensions>
</trkpt>
<trkpt lat="63.937469482" lon="-21.000720978">
<ele>24.439941</ele>
<time>2012-07-27T16:51:38Z</time>
<extensions>
<speed>0.0</speed>
<temp>0.00</temp>
<bpm>0</bpm>
<rpm>0.00</rpm>
</extensions>
</trkpt>
<trkpt lat="63.937469482" lon="-21.000720978">
<ele>24.466797</ele>
<time>2012-07-27T16:51:43Z</time>
<extensions>
<speed>0.0</speed>
<temp>0.00</temp>
<bpm>0</bpm>
<rpm>0.00</rpm>
</extensions>
</trkpt>
<trkpt lat="63.937469482" lon="-21.000722885">
<ele>24.516602</ele>
<time>2012-07-27T16:51:48Z</time>
<speed>0.010000</speed>
<extensions>
<speed>0.0</speed>
<temp>0.00</temp>
<bpm>0</bpm>
<rpm>0.00</rpm>
</extensions>
</trkpt>
<trkpt lat="63.937469482" lon="-21.000724792">
<ele>24.606934</ele>
<time>2012-07-27T16:51:53Z</time>
<speed>0.010000</speed>
<extensions>
<speed>0.0</speed>
<temp>0.00</temp>
<bpm>0</bpm>
<rpm>0.00</rpm>
</extensions>
</trkpt>
<trkpt lat="63.937469482" lon="-21.000726700">
<ele>24.711914</ele>
<time>2012-07-27T16:51:58Z</time>
<speed>0.010000</speed>
<extensions>
<speed>0.0</speed>
<temp>0.00</temp>
<bpm>0</bpm>
<rpm>0.00</rpm>
</extensions>
</trkpt>
<trkpt lat="63.937469482" lon="-21.000730515">
<ele>24.833984</ele>
<time>2012-07-27T16:52:03Z</time>
<speed>0.020000</speed>
<extensions>
<speed>0.0</speed>
<temp>0.00</temp>
<bpm>0</bpm>
<rpm>0.00</rpm>
</extensions>
</trkpt>
<trkpt lat="63.937469482" lon="-21.000730515">
<ele>24.846191</ele>
<time>2012-07-27T16:52:08Z</time>
<extensions>
<speed>0.0</speed>
<temp>0.00</temp>
<bpm>0</bpm>
<rpm>0.00</rpm>
</extensions>
</trkpt>
<trkpt lat="63.937469482" lon="-21.000730515">
<ele>24.853516</ele>
<time>2012-07-27T16:52:13Z</time>
<speed>0.010000</speed>
<extensions>
<speed>0.0</speed>
<temp>0.00</temp>
<bpm>0</bpm>
<rpm>0.00</rpm>
</extensions>
</trkpt>
<trkpt lat="63.937469482" lon="-21.000730515">
<ele>24.879883</ele>
<time>2012-07-27T16:52:18Z</time>
<extensions>
<speed>0.0</speed>
<temp>0.00</temp>
<bpm>0</bpm>
<rpm>0.00</rpm>
</extensions>
</trkpt>
<trkpt lat="63.937465668" lon="-21.000732422">
<ele>24.958496</ele>
<time>2012-07-27T16:52:23Z</time>
<extensions>
<speed>0.0</speed>
<temp>0.00</temp>
<bpm>0</bpm>
<rpm>0.00</rpm>
</extensions>
</trkpt>
<trkpt lat="63.937465668" lon="-21.000734329">
<ele>25.054688</ele>
<time>2012-07-27T16:52:28Z</time>
<speed>0.010000</speed>
<extensions>
<speed>0.0</speed>
<temp>0.00</temp>
<bpm>0</bpm>
<rpm>0.00</rpm>
</extensions>
</trkpt>
<trkpt lat="63.937465668" lon="-21.000738144">
<ele>25.165527</ele>
<time>2012-07-27T16:52:33Z</time>
<speed>0.030000</speed>
<extensions>
<speed>0.0</speed>
<temp>0.00</temp>
<bpm>0</bpm>
<rpm>0.00</rpm>
</extensions>
</trkpt>
<trkpt lat="63.937465668" lon="-21.000740051">
<ele>25.308594</ele>
<time>2012-07-27T16:52:38Z</time>
<speed>0.040000</speed>
<extensions>
<speed>0.0</speed>
<temp>0.00</temp>
<bpm>0</bpm>
<rpm>0.00</rpm>
</extensions>
</trkpt>
<trkpt lat="63.937465668" lon="-21.000745773">
<ele>25.444336</ele>
<time>2012-07-27T16:52:43Z</time>
<speed>0.020000</speed>
<extensions>
<speed>0.0</speed>
<temp>0.00</temp>
<bpm>0</bpm>
<rpm>0.00</rpm>
</extensions>
</trkpt>
<trkpt lat="63.937465668" lon="-21.000747681">
<ele>25.586914</ele>
<time>2012-07-27T16:52:48Z</time>
<speed>0.030000</speed>
<extensions>
<speed>0.0</speed>
<temp>0.00</temp>
<bpm>0</bpm>
<rpm>0.00</rpm>
</extensions>
</trkpt>
<trkpt lat="63.937465668" lon="-21.000751495">
<ele>25.747070</ele>
<time>2012-07-27T16:52:53Z</time>
<speed>0.020000</speed>
<extensions>
<speed>0.0</speed>
<temp>0.00</temp>
<bpm>0</bpm>
<rpm>0.00</rpm>
</extensions>
</trkpt>
<trkpt lat="63.937465668" lon="-21.000755310">
<ele>25.905273</ele>
<time>2012-07-27T16:52:58Z</time>
<speed>0.020000</speed>
<extensions>
<speed>0.0</speed>
<temp>0.00</temp>
<bpm>0</bpm>
<rpm>0.00</rpm>
</extensions>
</trkpt>
<trkpt lat="63.937465668" lon="-21.000759125">
<ele>26.079102</ele>
<time>2012-07-27T16:53:03Z</time>
<speed>0.050000</speed>
<extensions>
<speed>0.1</speed>
<temp>0.00</temp>
<bpm>0</bpm>
<rpm>0.00</rpm>
</extensions>
</trkpt>
<trkpt lat="63.937461853" lon="-21.000764847">
<ele>26.238770</ele>
<time>2012-07-27T16:53:08Z</time>
<speed>0.030000</speed>
<extensions>
<speed>0.0</speed>
<temp>0.00</temp>
<bpm>0</bpm>
<rpm>0.00</rpm>
</extensions>
</trkpt>
<trkpt lat="63.937465668" lon="-21.000764847">
<ele>26.352539</ele>
<time>2012-07-27T16:53:13Z</time>
<speed>0.010000</speed>
<extensions>
<speed>0.0</speed>
<temp>0.00</temp>
<bpm>0</bpm>
<rpm>0.00</rpm>
</extensions>
</trkpt>
<trkpt lat="63.937465668" lon="-21.000764847">
<ele>26.416016</ele>
<time>2012-07-27T16:53:18Z</time>
<speed>0.010000</speed>
<extensions>
<speed>0.0</speed>
<temp>0.00</temp>
<bpm>0</bpm>
<rpm>0.00</rpm>
</extensions>
</trkpt>
<trkpt lat="63.937461853" lon="-21.000768661">
<ele>26.434082</ele>
<time>2012-07-27T16:53:23Z</time>
<speed>0.050000</speed>
<extensions>
<speed>0.1</speed>
<temp>0.00</temp>
<bpm>0</bpm>
<rpm>0.00</rpm>
</extensions>
</trkpt>
<trkpt lat="63.937461853" lon="-21.000772476">
<ele>26.386719</ele>
<time>2012-07-27T16:53:28Z</time>
<speed>0.110000</speed>
<extensions>
<speed>0.1</speed>
<temp>0.00</temp>
<bpm>0</bpm>
<rpm>0.00</rpm>
</extensions>
</trkpt>
<trkpt lat="63.937454224" lon="-21.000783920">
<ele>26.248047</ele>
<time>2012-07-27T16:53:33Z</time>
<speed>0.240000</speed>
<extensions>
<speed>0.2</speed>
<temp>0.00</temp>
<bpm>0</bpm>
<rpm>0.00</rpm>
</extensions>
</trkpt>
<trkpt lat="63.937427521" lon="-21.000801086">
<ele>24.808594</ele>
<time>2012-07-27T16:53:38Z</time>
<speed>0.060000</speed>
<extensions>
<speed>0.1</speed>
<temp>0.00</temp>
<bpm>0</bpm>
<rpm>0.00</rpm>
</extensions>
</trkpt>
<trkpt lat="63.937419891" lon="-21.000785828">
<ele>23.065918</ele>
<time>2012-07-27T16:53:43Z</time>
<speed>0.030000</speed>
<extensions>
<speed>0.0</speed>
<temp>0.00</temp>
<bpm>0</bpm>
<rpm>0.00</rpm>
</extensions>
</trkpt>
<trkpt lat="63.937419891" lon="-21.000787735">
<ele>23.058594</ele>
<time>2012-07-27T16:53:48Z</time>
<speed>0.030000</speed>
<extensions>
<speed>0.0</speed>
<temp>0.00</temp>
<bpm>0</bpm>
<rpm>0.00</rpm>
</extensions>
</trkpt>
<trkpt lat="63.937419891" lon="-21.000789642">
<ele>23.011230</ele>
<time>2012-07-27T16:53:53Z</time>
<speed>0.040000</speed>
<extensions>
<speed>0.0</speed>
<temp>0.00</temp>
<bpm>0</bpm>
<rpm>0.00</rpm>
</extensions>
</trkpt>
<trkpt lat="63.937419891" lon="-21.000789642">
<ele>22.991211</ele>
<time>2012-07-27T16:53:58Z</time>
<extensions>
<speed>0.0</speed>
<temp>0.00</temp>
<bpm>0</bpm>
<rpm>0.00</rpm>
</extensions>
</trkpt>
<trkpt lat="63.937419891" lon="-21.000787735">
<ele>22.981934</ele>
<time>2012-07-27T16:54:03Z</time>
<extensions>
<speed>0.0</speed>
<temp>0.00</temp>
<bpm>0</bpm>
<rpm>0.00</rpm>
</extensions>
</trkpt>
<trkpt lat="63.937419891" lon="-21.000787735">
<ele>22.988281</ele>
<time>2012-07-27T16:54:08Z</time>
<extensions>
<speed>0.0</speed>
<temp>0.00</temp>
<bpm>0</bpm>
<rpm>0.00</rpm>
</extensions>
</trkpt>
<trkpt lat="63.937419891" lon="-21.000787735">
<ele>22.958008</ele>
<time>2012-07-27T16:54:13Z</time>
<speed>0.010000</speed>
<extensions>
<speed>0.0</speed>
<temp>0.00</temp>
<bpm>0</bpm>
<rpm>0.00</rpm>
</extensions>
</trkpt>
<trkpt lat="63.937419891" lon="-21.000785828">
<ele>22.913574</ele>
<time>2012-07-27T16:54:18Z</time>
<speed>0.010000</speed>
<extensions>
<speed>0.0</speed>
<temp>0.00</temp>
<bpm>0</bpm>
<rpm>0.00</rpm>
</extensions>
</trkpt>
<trkpt lat="63.937419891" lon="-21.000783920">
<ele>22.880371</ele>
<time>2012-07-27T16:54:23Z</time>
<extensions>
<speed>0.0</speed>
<temp>0.00</temp>
<bpm>0</bpm>
<rpm>0.00</rpm>
</extensions>
</trkpt>
<trkpt lat="63.937419891" lon="-21.000783920">
<ele>22.851563</ele>
<time>2012-07-27T16:54:28Z</time>
<extensions>
<speed>0.0</speed>
<temp>0.00</temp>
<bpm>0</bpm>
<rpm>0.00</rpm>
</extensions>
</trkpt>
<trkpt lat="63.937419891" lon="-21.000782013">
<ele>22.802246</ele>
<time>2012-07-27T16:54:33Z</time>
<speed>0.030000</speed>
<extensions>
<speed>0.0</speed>
<temp>0.00</temp>
<bpm>0</bpm>
<rpm>0.00</rpm>
</extensions>
</trkpt>
<trkpt lat="63.937419891" lon="-21.000780106">
<ele>22.736816</ele>
<time>2012-07-27T16:54:38Z</time>
<extensions>
<speed>0.0</speed>
<temp>0.00</temp>
<bpm>0</bpm>
<rpm>0.00</rpm>
</extensions>
</trkpt>
<trkpt lat="63.937419891" lon="-21.000780106">
<ele>22.703613</ele>
<time>2012-07-27T16:54:43Z</time>
<speed>0.010000</speed>
<extensions>
<speed>0.0</speed>
<temp>0.00</temp>
<bpm>0</bpm>
<rpm>0.00</rpm>
</extensions>
</trkpt>
<trkpt lat="63.937419891" lon="-21.000778198">
<ele>22.687500</ele>
<time>2012-07-27T16:54:48Z</time>
<extensions>
<speed>0.0</speed>
<temp>0.00</temp>
<bpm>0</bpm>
<rpm>0.00</rpm>
</extensions>
</trkpt>
<trkpt lat="63.937419891" lon="-21.000778198">
<ele>22.656250</ele>
<time>2012-07-27T16:54:53Z</time>
<speed>0.020000</speed>
<extensions>
<speed>0.0</speed>
<temp>0.00</temp>
<bpm>0</bpm>
<rpm>0.00</rpm>
</extensions>
</trkpt>
<trkpt lat="63.937419891" lon="-21.000778198">
<ele>22.627441</ele>
<time>2012-07-27T16:54:58Z</time>
<extensions>
<speed>0.0</speed>
<temp>0.00</temp>
<bpm>0</bpm>
<rpm>0.00</rpm>
</extensions>
</trkpt>
<trkpt lat="63.937419891" lon="-21.000776291">
<ele>22.601563</ele>
<time>2012-07-27T16:55:03Z</time>
<extensions>
<speed>0.0</speed>
<temp>0.00</temp>
<bpm>0</bpm>
<rpm>0.00</rpm>
</extensions>
</trkpt>
<trkpt lat="63.937419891" lon="-21.000776291">
<ele>22.547852</ele>
<time>2012-07-27T16:55:08Z</time>
<extensions>
<speed>0.0</speed>
<temp>0.00</temp>
<bpm>0</bpm>
<rpm>0.00</rpm>
</extensions>
</trkpt>
<trkpt lat="63.937419891" lon="-21.000774384">
<ele>22.514160</ele>
<time>2012-07-27T16:55:13Z</time>
<extensions>
<speed>0.0</speed>
<temp>0.00</temp>
<bpm>0</bpm>
<rpm>0.00</rpm>
</extensions>
</trkpt>
<trkpt lat="63.937419891" lon="-21.000774384">
<ele>22.501465</ele>
<time>2012-07-27T16:55:18Z</time>
<speed>0.020000</speed>
<extensions>
<speed>0.0</speed>
<temp>0.00</temp>
<bpm>0</bpm>
<rpm>0.00</rpm>
</extensions>
</trkpt>
<trkpt lat="63.937419891" lon="-21.000774384">
<ele>22.478516</ele>
<time>2012-07-27T16:55:23Z</time>
<speed>0.010000</speed>
<extensions>
<speed>0.0</speed>
<temp>0.00</temp>
<bpm>0</bpm>
<rpm>0.00</rpm>
</extensions>
</trkpt>
<trkpt lat="63.937419891" lon="-21.000772476">
<ele>22.446289</ele>
<time>2012-07-27T16:55:28Z</time>
<extensions>
<speed>0.0</speed>
<temp>0.00</temp>
<bpm>0</bpm>
<rpm>0.00</rpm>
</extensions>
</trkpt>
<trkpt lat="63.937419891" lon="-21.000772476">
<ele>22.389648</ele>
<time>2012-07-27T16:55:33Z</time>
<speed>0.010000</speed>
<extensions>
<speed>0.0</speed>
<temp>0.00</temp>
<bpm>0</bpm>
<rpm>0.00</rpm>
</extensions>
</trkpt>
<trkpt lat="63.937419891" lon="-21.000770569">
<ele>22.310547</ele>
<time>2012-07-27T16:55:38Z</time>
<speed>0.030000</speed>
<extensions>
<speed>0.0</speed>
<temp>0.00</temp>
<bpm>0</bpm>
<rpm>0.00</rpm>
</extensions>
</trkpt>
<trkpt lat="63.937419891" lon="-21.000768661">
<ele>22.181152</ele>
<time>2012-07-27T16:55:43Z</time>
<speed>0.010000</speed>
<extensions>
<speed>0.0</speed>
<temp>0.00</temp>
<bpm>0</bpm>
<rpm>0.00</rpm>
</extensions>
</trkpt>
<trkpt lat="63.937419891" lon="-21.000768661">
<ele>22.066406</ele>
<time>2012-07-27T16:55:48Z</time>
<speed>0.020000</speed>
<extensions>
<speed>0.0</speed>
<temp>0.00</temp>
<bpm>0</bpm>
<rpm>0.00</rpm>
</extensions>
</trkpt>
<trkpt lat="63.937419891" lon="-21.000768661">
<ele>22.000488</ele>
<time>2012-07-27T16:55:53Z</time>
<extensions>
<speed>0.0</speed>
<temp>0.00</temp>
<bpm>0</bpm>
<rpm>0.00</rpm>
</extensions>
</trkpt>
<trkpt lat="63.937419891" lon="-21.000768661">
<ele>22.031738</ele>
<time>2012-07-27T16:55:58Z</time>
<extensions>
<speed>0.0</speed>
<temp>0.00</temp>
<bpm>0</bpm>
<rpm>0.00</rpm>
</extensions>
</trkpt>
<trkpt lat="63.937419891" lon="-21.000768661">
<ele>22.143555</ele>
<time>2012-07-27T16:56:03Z</time>
<speed>0.020000</speed>
<extensions>
<speed>0.0</speed>
<temp>0.00</temp>
<bpm>0</bpm>
<rpm>0.00</rpm>
</extensions>
</trkpt>
<trkpt lat="63.937419891" lon="-21.000770569">
<ele>22.338379</ele>
<time>2012-07-27T16:56:08Z</time>
<speed>0.040000</speed>
<extensions>
<speed>0.0</speed>
<temp>0.00</temp>
<bpm>0</bpm>
<rpm>0.00</rpm>
</extensions>
</trkpt>
<trkpt lat="63.937419891" lon="-21.000770569">
<ele>22.462402</ele>
<time>2012-07-27T16:56:13Z</time>
<extensions>
<speed>0.0</speed>
<temp>0.00</temp>
<bpm>0</bpm>
<rpm>0.00</rpm>
</extensions>
</trkpt>
<trkpt lat="63.937419891" lon="-21.000772476">
<ele>22.495117</ele>
<time>2012-07-27T16:56:18Z</time>
<speed>0.010000</speed>
<extensions>
<speed>0.0</speed>
<temp>0.00</temp>
<bpm>0</bpm>
<rpm>0.00</rpm>
</extensions>
</trkpt>
<trkpt lat="63.937423706" lon="-21.000772476">
<ele>22.547363</ele>
<time>2012-07-27T16:56:23Z</time>
<extensions>
<speed>0.0</speed>
<temp>0.00</temp>
<bpm>0</bpm>
<rpm>0.00</rpm>
</extensions>
</trkpt>
<trkpt lat="63.937423706" lon="-21.000772476">
<ele>22.574707</ele>
<time>2012-07-27T16:56:28Z</time>
<speed>0.010000</speed>
<extensions>
<speed>0.0</speed>
<temp>0.00</temp>
<bpm>0</bpm>
<rpm>0.00</rpm>
</extensions>
</trkpt>
<trkpt lat="63.937423706" lon="-21.000772476">
<ele>22.612305</ele>
<time>2012-07-27T16:56:33Z</time>
<extensions>
<speed>0.0</speed>
<temp>0.00</temp>
<bpm>0</bpm>
<rpm>0.00</rpm>
</extensions>
</trkpt>
<trkpt lat="63.937423706" lon="-21.000772476">
<ele>22.633301</ele>
<time>2012-07-27T16:56:38Z</time>
<extensions>
<speed>0.0</speed>
<temp>0.00</temp>
<bpm>0</bpm>
<rpm>0.00</rpm>
</extensions>
</trkpt>
<trkpt lat="63.937423706" lon="-21.000774384">
<ele>22.655762</ele>
<time>2012-07-27T16:56:43Z</time>
<extensions>
<speed>0.0</speed>
<temp>0.00</temp>
<bpm>0</bpm>
<rpm>0.00</rpm>
</extensions>
</trkpt>
<trkpt lat="63.937423706" lon="-21.000774384">
<ele>22.720703</ele>
<time>2012-07-27T16:56:48Z</time>
<speed>0.020000</speed>
<extensions>
<speed>0.0</speed>
<temp>0.00</temp>
<bpm>0</bpm>
<rpm>0.00</rpm>
</extensions>
</trkpt>
<trkpt lat="63.937419891" lon="-21.000778198">
<ele>22.794434</ele>
<time>2012-07-27T16:56:53Z</time>
<speed>0.010000</speed>
<extensions>
<speed>0.0</speed>
<temp>0.00</temp>
<bpm>0</bpm>
<rpm>0.00</rpm>
</extensions>
</trkpt>
<trkpt lat="63.937419891" lon="-21.000778198">
<ele>22.807617</ele>
<time>2012-07-27T16:56:58Z</time>
<extensions>
<speed>0.0</speed>
<temp>0.00</temp>
<bpm>0</bpm>
<rpm>0.00</rpm>
</extensions>
</trkpt>
<trkpt lat="63.937419891" lon="-21.000778198">
<ele>22.818359</ele>
<time>2012-07-27T16:57:03Z</time>
<extensions>
<speed>0.0</speed>
<temp>0.00</temp>
<bpm>0</bpm>
<rpm>0.00</rpm>
</extensions>
</trkpt>
<trkpt lat="63.937419891" lon="-21.000778198">
<ele>22.819824</ele>
<time>2012-07-27T16:57:08Z</time>
<speed>0.010000</speed>
<extensions>
<speed>0.0</speed>
<temp>0.00</temp>
<bpm>0</bpm>
<rpm>0.00</rpm>
</extensions>
</trkpt>
<trkpt lat="63.937419891" lon="-21.000778198">
<ele>22.815918</ele>
<time>2012-07-27T16:57:13Z</time>
<extensions>
<speed>0.0</speed>
<temp>0.00</temp>
<bpm>0</bpm>
<rpm>0.00</rpm>
</extensions>
</trkpt>
<trkpt lat="63.937419891" lon="-21.000778198">
<ele>22.805176</ele>
<time>2012-07-27T16:57:18Z</time>
<speed>0.020000</speed>
<extensions>
<speed>0.0</speed>
<temp>0.00</temp>
<bpm>0</bpm>
<rpm>0.00</rpm>
</extensions>
</trkpt>
<trkpt lat="63.937423706" lon="-21.000774384">
<ele>22.758301</ele>
<time>2012-07-27T16:57:23Z</time>
<speed>0.020000</speed>
<extensions>
<speed>0.0</speed>
<temp>0.00</temp>
<bpm>0</bpm>
<rpm>0.00</rpm>
</extensions>
</trkpt>
<trkpt lat="63.937423706" lon="-21.000772476">
<ele>22.652344</ele>
<time>2012-07-27T16:57:28Z</time>
<speed>0.010000</speed>
<extensions>
<speed>0.0</speed>
<temp>0.00</temp>
<bpm>0</bpm>
<rpm>0.00</rpm>
</extensions>
</trkpt>
<trkpt lat="63.937423706" lon="-21.000772476">
<ele>22.625488</ele>
<time>2012-07-27T16:57:33Z</time>
<speed>0.010000</speed>
<extensions>
<speed>0.0</speed>
<temp>0.00</temp>
<bpm>0</bpm>
<rpm>0.00</rpm>
</extensions>
</trkpt>
<trkpt lat="63.937423706" lon="-21.000772476">
<ele>22.621582</ele>
<time>2012-07-27T16:57:38Z</time>
<speed>0.010000</speed>
<extensions>
<speed>0.0</speed>
<temp>0.00</temp>
<bpm>0</bpm>
<rpm>0.00</rpm>
</extensions>
</trkpt>
<trkpt lat="63.937423706" lon="-21.000770569">
<ele>22.600098</ele>
<time>2012-07-27T16:57:43Z</time>
<extensions>
<speed>0.0</speed>
<temp>0.00</temp>
<bpm>0</bpm>
<rpm>0.00</rpm>
</extensions>
</trkpt>
<trkpt lat="63.937423706" lon="-21.000770569">
<ele>22.597656</ele>
<time>2012-07-27T16:57:48Z</time>
<extensions>
<speed>0.0</speed>
<temp>0.00</temp>
<bpm>0</bpm>
<rpm>0.00</rpm>
</extensions>
</trkpt>
<trkpt lat="63.937423706" lon="-21.000770569">
<ele>22.609375</ele>
<time>2012-07-27T16:57:53Z</time>
<extensions>
<speed>0.0</speed>
<temp>0.00</temp>
<bpm>0</bpm>
<rpm>0.00</rpm>
</extensions>
</trkpt>
<trkpt lat="63.937423706" lon="-21.000768661">
<ele>22.615234</ele>
<time>2012-07-27T16:57:58Z</time>
<extensions>
<speed>0.0</speed>
<temp>0.00</temp>
<bpm>0</bpm>
<rpm>0.00</rpm>
</extensions>
</trkpt>
<trkpt lat="63.937423706" lon="-21.000768661">
<ele>22.632813</ele>
<time>2012-07-27T16:58:03Z</time>
<speed>0.040000</speed>
<extensions>
<speed>0.0</speed>
<temp>0.00</temp>
<bpm>0</bpm>
<rpm>0.00</rpm>
</extensions>
</trkpt>
<trkpt lat="63.937423706" lon="-21.000768661">
<ele>22.654785</ele>
<time>2012-07-27T16:58:08Z</time>
<speed>0.020000</speed>
<extensions>
<speed>0.0</speed>
<temp>0.00</temp>
<bpm>0</bpm>
<rpm>0.00</rpm>
</extensions>
</trkpt>
<trkpt lat="63.937423706" lon="-21.000766754">
<ele>22.668945</ele>
<time>2012-07-27T16:58:13Z</time>
<extensions>
<speed>0.0</speed>
<temp>0.00</temp>
<bpm>0</bpm>
<rpm>0.00</rpm>
</extensions>
</trkpt>
<trkpt lat="63.937423706" lon="-21.000764847">
<ele>22.679688</ele>
<time>2012-07-27T16:58:18Z</time>
<speed>0.020000</speed>
<extensions>
<speed>0.0</speed>
<temp>0.00</temp>
<bpm>0</bpm>
<rpm>0.00</rpm>
</extensions>
</trkpt>
<trkpt lat="63.937423706" lon="-21.000764847">
<ele>22.694336</ele>
<time>2012-07-27T16:58:23Z</time>
<speed>0.010000</speed>
<extensions>
<speed>0.0</speed>
<temp>0.00</temp>
<bpm>0</bpm>
<rpm>0.00</rpm>
</extensions>
</trkpt>
<trkpt lat="63.937423706" lon="-21.000764847">
<ele>22.752441</ele>
<time>2012-07-27T16:58:28Z</time>
<speed>0.010000</speed>
<extensions>
<speed>0.0</speed>
<temp>0.00</temp>
<bpm>0</bpm>
<rpm>0.00</rpm>
</extensions>
</trkpt>
<trkpt lat="63.937427521" lon="-21.000764847">
<ele>22.854980</ele>
<time>2012-07-27T16:58:33Z</time>
<speed>0.010000</speed>
<extensions>
<speed>0.0</speed>
<temp>0.00</temp>
<bpm>0</bpm>
<rpm>0.00</rpm>
</extensions>
</trkpt>
<trkpt lat="63.937423706" lon="-21.000768661">
<ele>22.994629</ele>
<time>2012-07-27T16:58:38Z</time>
<speed>0.020000</speed>
<extensions>
<speed>0.0</speed>
<temp>0.00</temp>
<bpm>0</bpm>
<rpm>0.00</rpm>
</extensions>
</trkpt>
<trkpt lat="63.937427521" lon="-21.000770569">
<ele>23.127441</ele>
<time>2012-07-27T16:58:43Z</time>
<speed>0.040000</speed>
<extensions>
<speed>0.0</speed>
<temp>0.00</temp>
<bpm>0</bpm>
<rpm>0.00</rpm>
</extensions>
</trkpt>
<trkpt lat="63.937427521" lon="-21.000772476">
<ele>23.211914</ele>
<time>2012-07-27T16:58:48Z</time>
<extensions>
<speed>0.0</speed>
<temp>0.00</temp>
<bpm>0</bpm>
<rpm>0.00</rpm>
</extensions>
</trkpt>
<trkpt lat="63.937427521" lon="-21.000772476">
<ele>23.244629</ele>
<time>2012-07-27T16:58:53Z</time>
<extensions>
<speed>0.0</speed>
<temp>0.00</temp>
<bpm>0</bpm>
<rpm>0.00</rpm>
</extensions>
</trkpt>
<trkpt lat="63.937427521" lon="-21.000772476">
<ele>23.280273</ele>
<time>2012-07-27T16:58:58Z</time>
<speed>0.010000</speed>
<extensions>
<speed>0.0</speed>
<temp>0.00</temp>
<bpm>0</bpm>
<rpm>0.00</rpm>
</extensions>
</trkpt>
<trkpt lat="63.937427521" lon="-21.000772476">
<ele>23.312988</ele>
<time>2012-07-27T16:59:03Z</time>
<speed>0.010000</speed>
<extensions>
<speed>0.0</speed>
<temp>0.00</temp>
<bpm>0</bpm>
<rpm>0.00</rpm>
</extensions>
</trkpt>
<trkpt lat="63.937427521" lon="-21.000766754">
<ele>23.312500</ele>
<time>2012-07-27T16:59:08Z</time>
<speed>0.060000</speed>
<extensions>
<speed>0.1</speed>
<temp>0.00</temp>
<bpm>0</bpm>
<rpm>0.00</rpm>
</extensions>
</trkpt>
<trkpt lat="63.937427521" lon="-21.000762939">
<ele>23.293457</ele>
<time>2012-07-27T16:59:13Z</time>
<speed>0.020000</speed>
<extensions>
<speed>0.0</speed>
<temp>0.00</temp>
<bpm>0</bpm>
<rpm>0.00</rpm>
</extensions>
</trkpt>
<trkpt lat="63.937427521" lon="-21.000761032">
<ele>23.244629</ele>
<time>2012-07-27T16:59:18Z</time>
<speed>0.020000</speed>
<extensions>
<speed>0.0</speed>
<temp>0.00</temp>
<bpm>0</bpm>
<rpm>0.00</rpm>
</extensions>
</trkpt>
<trkpt lat="63.937427521" lon="-21.000759125">
<ele>23.204102</ele>
<time>2012-07-27T16:59:23Z</time>
<extensions>
<speed>0.0</speed>
<temp>0.00</temp>
<bpm>0</bpm>
<rpm>0.00</rpm>
</extensions>
</trkpt>
<trkpt lat="63.937427521" lon="-21.000759125">
<ele>23.206055</ele>
<time>2012-07-27T16:59:28Z</time>
<extensions>
<speed>0.0</speed>
<temp>0.00</temp>
<bpm>0</bpm>
<rpm>0.00</rpm>
</extensions>
</trkpt>
<trkpt lat="63.937427521" lon="-21.000759125">
<ele>23.205566</ele>
<time>2012-07-27T16:59:33Z</time>
<extensions>
<speed>0.0</speed>
<temp>0.00</temp>
<bpm>0</bpm>
<rpm>0.00</rpm>
</extensions>
</trkpt>
<trkpt lat="63.937427521" lon="-21.000757217">
<ele>23.198730</ele>
<time>2012-07-27T16:59:38Z</time>
<speed>0.010000</speed>
<extensions>
<speed>0.0</speed>
<temp>0.00</temp>
<bpm>0</bpm>
<rpm>0.00</rpm>
</extensions>
</trkpt>
<trkpt lat="63.937427521" lon="-21.000757217">
<ele>23.194824</ele>
<time>2012-07-27T16:59:43Z</time>
<extensions>
<speed>0.0</speed>
<temp>0.00</temp>
<bpm>0</bpm>
<rpm>0.00</rpm>
</extensions>
</trkpt>
<trkpt lat="63.937427521" lon="-21.000757217">
<ele>23.198730</ele>
<time>2012-07-27T16:59:48Z</time>
<extensions>
<speed>0.0</speed>
<temp>0.00</temp>
<bpm>0</bpm>
<rpm>0.00</rpm>
</extensions>
</trkpt>
<trkpt lat="63.937427521" lon="-21.000757217">
<ele>23.193848</ele>
<time>2012-07-27T16:59:53Z</time>
<extensions>
<speed>0.0</speed>
<temp>0.00</temp>
<bpm>0</bpm>
<rpm>0.00</rpm>
</extensions>
</trkpt>
<trkpt lat="63.937427521" lon="-21.000755310">
<ele>23.166016</ele>
<time>2012-07-27T16:59:58Z</time>
<speed>0.010000</speed>
<extensions>
<speed>0.0</speed>
<temp>0.00</temp>
<bpm>0</bpm>
<rpm>0.00</rpm>
</extensions>
</trkpt>
<trkpt lat="63.937427521" lon="-21.000753403">
<ele>23.138672</ele>
<time>2012-07-27T17:00:03Z</time>
<extensions>
<speed>0.0</speed>
<temp>0.00</temp>
<bpm>0</bpm>
<rpm>0.00</rpm>
</extensions>
</trkpt>
<trkpt lat="63.937427521" lon="-21.000753403">
<ele>23.126953</ele>
<time>2012-07-27T17:00:08Z</time>
<extensions>
<speed>0.0</speed>
<temp>0.00</temp>
<bpm>0</bpm>
<rpm>0.00</rpm>
</extensions>
</trkpt>
<trkpt lat="63.937427521" lon="-21.000751495">
<ele>23.100098</ele>
<time>2012-07-27T17:00:13Z</time>
<speed>0.010000</speed>
<extensions>
<speed>0.0</speed>
<temp>0.00</temp>
<bpm>0</bpm>
<rpm>0.00</rpm>
</extensions>
</trkpt>
<trkpt lat="63.937442780" lon="-21.000694275">
<ele>21.659180</ele>
<time>2012-07-27T17:00:18Z</time>
<speed>0.010000</speed>
<extensions>
<speed>0.0</speed>
<temp>0.00</temp>
<bpm>0</bpm>
<rpm>0.00</rpm>
</extensions>
</trkpt>
<trkpt lat="63.937461853" lon="-21.000631332">
<ele>19.871582</ele>
<time>2012-07-27T17:00:23Z</time>
<speed>0.020000</speed>
<extensions>
<speed>0.0</speed>
<temp>0.00</temp>
<bpm>0</bpm>
<rpm>0.00</rpm>
</extensions>
</trkpt>
<trkpt lat="63.937473297" lon="-21.000623703">
<ele>20.681641</ele>
<time>2012-07-27T17:00:28Z</time>
<speed>0.010000</speed>
<extensions>
<speed>0.0</speed>
<temp>0.00</temp>
<bpm>0</bpm>
<rpm>0.00</rpm>
</extensions>
</trkpt>
<trkpt lat="63.937477112" lon="-21.000625610">
<ele>21.335449</ele>
<time>2012-07-27T17:00:33Z</time>
<extensions>
<speed>0.0</speed>
<temp>0.00</temp>
<bpm>0</bpm>
<rpm>0.00</rpm>
</extensions>
</trkpt>
<trkpt lat="63.937480927" lon="-21.000606537">
<ele>21.844238</ele>
<time>2012-07-27T17:00:38Z</time>
<speed>0.020000</speed>
<extensions>
<speed>0.0</speed>
<temp>0.00</temp>
<bpm>0</bpm>
<rpm>0.00</rpm>
</extensions>
</trkpt>
<trkpt lat="63.937488556" lon="-21.000598907">
<ele>22.260254</ele>
<time>2012-07-27T17:00:43Z</time>
<speed>0.010000</speed>
<extensions>
<speed>0.0</speed>
<temp>0.00</temp>
<bpm>0</bpm>
<rpm>0.00</rpm>
</extensions>
</trkpt>
<trkpt lat="63.937492371" lon="-21.000595093">
<ele>23.054199</ele>
<time>2012-07-27T17:00:48Z</time>
<speed>0.020000</speed>
<extensions>
<speed>0.0</speed>
<temp>0.00</temp>
<bpm>0</bpm>
<rpm>0.00</rpm>
</extensions>
</trkpt>
<trkpt lat="63.937496185" lon="-21.000602722">
<ele>24.455566</ele>
<time>2012-07-27T17:00:53Z</time>
<extensions>
<speed>0.0</speed>
<temp>0.00</temp>
<bpm>0</bpm>
<rpm>0.00</rpm>
</extensions>
</trkpt>
<trkpt lat="63.937496185" lon="-21.000595093">
<ele>24.034180</ele>
<time>2012-07-27T17:00:58Z</time>
<speed>0.010000</speed>
<extensions>
<speed>0.0</speed>
<temp>0.00</temp>
<bpm>0</bpm>
<rpm>0.00</rpm>
</extensions>
</trkpt>
<trkpt lat="63.937496185" lon="-21.000595093">
<ele>24.032715</ele>
<time>2012-07-27T17:01:03Z</time>
<extensions>
<speed>0.0</speed>
<temp>0.00</temp>
<bpm>0</bpm>
<rpm>0.00</rpm>
</extensions>
</trkpt>
<trkpt lat="63.937496185" lon="-21.000595093">
<ele>24.044434</ele>
<time>2012-07-27T17:01:08Z</time>
<extensions>
<speed>0.0</speed>
<temp>0.00</temp>
<bpm>0</bpm>
<rpm>0.00</rpm>
</extensions>
</trkpt>
<trkpt lat="63.937496185" lon="-21.000595093">
<ele>24.049805</ele>
<time>2012-07-27T17:01:13Z</time>
<extensions>
<speed>0.0</speed>
<temp>0.00</temp>
<bpm>0</bpm>
<rpm>0.00</rpm>
</extensions>
</trkpt>
<trkpt lat="63.937496185" lon="-21.000595093">
<ele>24.066895</ele>
<time>2012-07-27T17:01:18Z</time>
<extensions>
<speed>0.0</speed>
<temp>0.00</temp>
<bpm>0</bpm>
<rpm>0.00</rpm>
</extensions>
</trkpt>
<trkpt lat="63.937496185" lon="-21.000595093">
<ele>24.084473</ele>
<time>2012-07-27T17:01:23Z</time>
<speed>0.010000</speed>
<extensions>
<speed>0.0</speed>
<temp>0.00</temp>
<bpm>0</bpm>
<rpm>0.00</rpm>
</extensions>
</trkpt>
<trkpt lat="63.937496185" lon="-21.000595093">
<ele>24.097656</ele>
<time>2012-07-27T17:01:28Z</time>
<extensions>
<speed>0.0</speed>
<temp>0.00</temp>
<bpm>0</bpm>
<rpm>0.00</rpm>
</extensions>
</trkpt>
<trkpt lat="63.937496185" lon="-21.000595093">
<ele>24.106445</ele>
<time>2012-07-27T17:01:33Z</time>
<extensions>
<speed>0.0</speed>
<temp>0.00</temp>
<bpm>0</bpm>
<rpm>0.00</rpm>
</extensions>
</trkpt>
<trkpt lat="63.937496185" lon="-21.000595093">
<ele>24.106934</ele>
<time>2012-07-27T17:01:38Z</time>
<extensions>
<speed>0.0</speed>
<temp>0.00</temp>
<bpm>0</bpm>
<rpm>0.00</rpm>
</extensions>
</trkpt>
<trkpt lat="63.937496185" lon="-21.000595093">
<ele>24.086914</ele>
<time>2012-07-27T17:01:43Z</time>
<speed>0.010000</speed>
<extensions>
<speed>0.0</speed>
<temp>0.00</temp>
<bpm>0</bpm>
<rpm>0.00</rpm>
</extensions>
</trkpt>
<trkpt lat="63.937496185" lon="-21.000595093">
<ele>24.066895</ele>
<time>2012-07-27T17:01:48Z</time>
<extensions>
<speed>0.0</speed>
<temp>0.00</temp>
<bpm>0</bpm>
<rpm>0.00</rpm>
</extensions>
</trkpt>
<trkpt lat="63.937496185" lon="-21.000595093">
<ele>24.061035</ele>
<time>2012-07-27T17:01:53Z</time>
<extensions>
<speed>0.0</speed>
<temp>0.00</temp>
<bpm>0</bpm>
<rpm>0.00</rpm>
</extensions>
</trkpt>
<trkpt lat="63.937496185" lon="-21.000595093">
<ele>24.060059</ele>
<time>2012-07-27T17:01:58Z</time>
<extensions>
<speed>0.0</speed>
<temp>0.00</temp>
<bpm>0</bpm>
<rpm>0.00</rpm>
</extensions>
</trkpt>
<trkpt lat="63.937496185" lon="-21.000595093">
<ele>24.067383</ele>
<time>2012-07-27T17:02:03Z</time>
<speed>0.010000</speed>
<extensions>
<speed>0.0</speed>
<temp>0.00</temp>
<bpm>0</bpm>
<rpm>0.00</rpm>
</extensions>
</trkpt>
<trkpt lat="63.937496185" lon="-21.000595093">
<ele>24.074219</ele>
<time>2012-07-27T17:02:08Z</time>
<extensions>
<speed>0.0</speed>
<temp>0.00</temp>
<bpm>0</bpm>
<rpm>0.00</rpm>
</extensions>
</trkpt>
<trkpt lat="63.937496185" lon="-21.000595093">
<ele>24.090332</ele>
<time>2012-07-27T17:02:13Z</time>
<extensions>
<speed>0.0</speed>
<temp>0.00</temp>
<bpm>0</bpm>
<rpm>0.00</rpm>
</extensions>
</trkpt>
<trkpt lat="63.937496185" lon="-21.000595093">
<ele>24.101563</ele>
<time>2012-07-27T17:02:18Z</time>
<speed>0.010000</speed>
<extensions>
<speed>0.0</speed>
<temp>0.00</temp>
<bpm>0</bpm>
<rpm>0.00</rpm>
</extensions>
</trkpt>
<trkpt lat="63.937496185" lon="-21.000595093">
<ele>24.110840</ele>
<time>2012-07-27T17:02:23Z</time>
<speed>0.010000</speed>
<extensions>
<speed>0.0</speed>
<temp>0.00</temp>
<bpm>0</bpm>
<rpm>0.00</rpm>
</extensions>
</trkpt>
<trkpt lat="63.937496185" lon="-21.000595093">
<ele>24.118652</ele>
<time>2012-07-27T17:02:28Z</time>
<speed>0.010000</speed>
<extensions>
<speed>0.0</speed>
<temp>0.00</temp>
<bpm>0</bpm>
<rpm>0.00</rpm>
</extensions>
</trkpt>
<trkpt lat="63.937496185" lon="-21.000595093">
<ele>24.140625</ele>
<time>2012-07-27T17:02:33Z</time>
<speed>0.020000</speed>
<extensions>
<speed>0.0</speed>
<temp>0.00</temp>
<bpm>0</bpm>
<rpm>0.00</rpm>
</extensions>
</trkpt>
<trkpt lat="63.937500000" lon="-21.000591278">
<ele>24.177734</ele>
<time>2012-07-27T17:02:38Z</time>
<speed>0.040000</speed>
<extensions>
<speed>0.0</speed>
<temp>0.00</temp>
<bpm>0</bpm>
<rpm>0.00</rpm>
</extensions>
</trkpt>
<trkpt lat="63.937500000" lon="-21.000587463">
<ele>24.186035</ele>
<time>2012-07-27T17:02:43Z</time>
<speed>0.030000</speed>
<extensions>
<speed>0.0</speed>
<temp>0.00</temp>
<bpm>0</bpm>
<rpm>0.00</rpm>
</extensions>
</trkpt>
<trkpt lat="63.937500000" lon="-21.000587463">
<ele>24.167969</ele>
<time>2012-07-27T17:02:48Z</time>
<extensions>
<speed>0.0</speed>
<temp>0.00</temp>
<bpm>0</bpm>
<rpm>0.00</rpm>
</extensions>
</trkpt>
<trkpt lat="63.937500000" lon="-21.000587463">
<ele>24.175293</ele>
<time>2012-07-27T17:02:53Z</time>
<extensions>
<speed>0.0</speed>
<temp>0.00</temp>
<bpm>0</bpm>
<rpm>0.00</rpm>
</extensions>
</trkpt>
<trkpt lat="63.937500000" lon="-21.000587463">
<ele>24.227539</ele>
<time>2012-07-27T17:02:58Z</time>
<speed>0.010000</speed>
<extensions>
<speed>0.0</speed>
<temp>0.00</temp>
<bpm>0</bpm>
<rpm>0.00</rpm>
</extensions>
</trkpt>
<trkpt lat="63.937500000" lon="-21.000589371">
<ele>24.311523</ele>
<time>2012-07-27T17:03:03Z</time>
<speed>0.020000</speed>
<extensions>
<speed>0.0</speed>
<temp>0.00</temp>
<bpm>0</bpm>
<rpm>0.00</rpm>
</extensions>
</trkpt>
<trkpt lat="63.937500000" lon="-21.000591278">
<ele>24.377441</ele>
<time>2012-07-27T17:03:08Z</time>
<extensions>
<speed>0.0</speed>
<temp>0.00</temp>
<bpm>0</bpm>
<rpm>0.00</rpm>
</extensions>
</trkpt>
<trkpt lat="63.937500000" lon="-21.000593185">
<ele>24.416504</ele>
<time>2012-07-27T17:03:13Z</time>
<speed>0.010000</speed>
<extensions>
<speed>0.0</speed>
<temp>0.00</temp>
<bpm>0</bpm>
<rpm>0.00</rpm>
</extensions>
</trkpt>
<trkpt lat="63.937500000" lon="-21.000593185">
<ele>24.476563</ele>
<time>2012-07-27T17:03:18Z</time>
<extensions>
<speed>0.0</speed>
<temp>0.00</temp>
<bpm>0</bpm>
<rpm>0.00</rpm>
</extensions>
</trkpt>
<trkpt lat="63.937500000" lon="-21.000595093">
<ele>24.507813</ele>
<time>2012-07-27T17:03:23Z</time>
<speed>0.010000</speed>
<extensions>
<speed>0.0</speed>
<temp>0.00</temp>
<bpm>0</bpm>
<rpm>0.00</rpm>
</extensions>
</trkpt>
<trkpt lat="63.937500000" lon="-21.000595093">
<ele>24.527344</ele>
<time>2012-07-27T17:03:28Z</time>
<speed>0.020000</speed>
<extensions>
<speed>0.0</speed>
<temp>0.00</temp>
<bpm>0</bpm>
<rpm>0.00</rpm>
</extensions>
</trkpt>
<trkpt lat="63.937500000" lon="-21.000595093">
<ele>24.500000</ele>
<time>2012-07-27T17:03:33Z</time>
<extensions>
<speed>0.0</speed>
<temp>0.00</temp>
<bpm>0</bpm>
<rpm>0.00</rpm>
</extensions>
</trkpt>
<trkpt lat="63.937500000" lon="-21.000595093">
<ele>24.533203</ele>
<time>2012-07-27T17:03:38Z</time>
<speed>0.010000</speed>
<extensions>
<speed>0.0</speed>
<temp>0.00</temp>
<bpm>0</bpm>
<rpm>0.00</rpm>
</extensions>
</trkpt>
<trkpt lat="63.937500000" lon="-21.000597000">
<ele>24.582031</ele>
<time>2012-07-27T17:03:43Z</time>
<speed>0.010000</speed>
<extensions>
<speed>0.0</speed>
<temp>0.00</temp>
<bpm>0</bpm>
<rpm>0.00</rpm>
</extensions>
</trkpt>
<trkpt lat="63.937500000" lon="-21.000598907">
<ele>24.627930</ele>
<time>2012-07-27T17:03:48Z</time>
<extensions>
<speed>0.0</speed>
<temp>0.00</temp>
<bpm>0</bpm>
<rpm>0.00</rpm>
</extensions>
</trkpt>
<trkpt lat="63.937500000" lon="-21.000598907">
<ele>24.641602</ele>
<time>2012-07-27T17:03:53Z</time>
<extensions>
<speed>0.0</speed>
<temp>0.00</temp>
<bpm>0</bpm>
<rpm>0.00</rpm>
</extensions>
</trkpt>
<trkpt lat="63.937500000" lon="-21.000598907">
<ele>24.681152</ele>
<time>2012-07-27T17:03:58Z</time>
<extensions>
<speed>0.0</speed>
<temp>0.00</temp>
<bpm>0</bpm>
<rpm>0.00</rpm>
</extensions>
</trkpt>
<trkpt lat="63.937500000" lon="-21.000600815">
<ele>24.714355</ele>
<time>2012-07-27T17:04:03Z</time>
<speed>0.010000</speed>
<extensions>
<speed>0.0</speed>
<temp>0.00</temp>
<bpm>0</bpm>
<rpm>0.00</rpm>
</extensions>
</trkpt>
<trkpt lat="63.937500000" lon="-21.000600815">
<ele>24.738770</ele>
<time>2012-07-27T17:04:08Z</time>
<speed>0.020000</speed>
<extensions>
<speed>0.0</speed>
<temp>0.00</temp>
<bpm>0</bpm>
<rpm>0.00</rpm>
</extensions>
</trkpt>
<trkpt lat="63.937500000" lon="-21.000602722">
<ele>24.764648</ele>
<time>2012-07-27T17:04:13Z</time>
<speed>0.020000</speed>
<extensions>
<speed>0.0</speed>
<temp>0.00</temp>
<bpm>0</bpm>
<rpm>0.00</rpm>
</extensions>
</trkpt>
<trkpt lat="63.937500000" lon="-21.000602722">
<ele>24.784180</ele>
<time>2012-07-27T17:04:18Z</time>
<extensions>
<speed>0.0</speed>
<temp>0.00</temp>
<bpm>0</bpm>
<rpm>0.00</rpm>
</extensions>
</trkpt>
<trkpt lat="63.937500000" lon="-21.000604630">
<ele>24.847656</ele>
<time>2012-07-27T17:04:23Z</time>
<speed>0.020000</speed>
<extensions>
<speed>0.0</speed>
<temp>0.00</temp>
<bpm>0</bpm>
<rpm>0.00</rpm>
</extensions>
</trkpt>
<trkpt lat="63.937500000" lon="-21.000606537">
<ele>24.911621</ele>
<time>2012-07-27T17:04:28Z</time>
<speed>0.020000</speed>
<extensions>
<speed>0.0</speed>
<temp>0.00</temp>
<bpm>0</bpm>
<rpm>0.00</rpm>
</extensions>
</trkpt>
<trkpt lat="63.937500000" lon="-21.000606537">
<ele>24.953125</ele>
<time>2012-07-27T17:04:33Z</time>
<extensions>
<speed>0.0</speed>
<temp>0.00</temp>
<bpm>0</bpm>
<rpm>0.00</rpm>
</extensions>
</trkpt>
<trkpt lat="63.937500000" lon="-21.000608444">
<ele>25.028809</ele>
<time>2012-07-27T17:04:38Z</time>
<speed>0.020000</speed>
<extensions>
<speed>0.0</speed>
<temp>0.00</temp>
<bpm>0</bpm>
<rpm>0.00</rpm>
</extensions>
</trkpt>
<trkpt lat="63.937500000" lon="-21.000610352">
<ele>25.111816</ele>
<time>2012-07-27T17:04:43Z</time>
<speed>0.010000</speed>
<extensions>
<speed>0.0</speed>
<temp>0.00</temp>
<bpm>0</bpm>
<rpm>0.00</rpm>
</extensions>
</trkpt>
<trkpt lat="63.937500000" lon="-21.000612259">
<ele>25.158691</ele>
<time>2012-07-27T17:04:48Z</time>
<extensions>
<speed>0.0</speed>
<temp>0.00</temp>
<bpm>0</bpm>
<rpm>0.00</rpm>
</extensions>
</trkpt>
<trkpt lat="63.937500000" lon="-21.000614166">
<ele>25.218262</ele>
<time>2012-07-27T17:04:53Z</time>
<speed>0.020000</speed>
<extensions>
<speed>0.0</speed>
<temp>0.00</temp>
<bpm>0</bpm>
<rpm>0.00</rpm>
</extensions>
</trkpt>
<trkpt lat="63.937500000" lon="-21.000616074">
<ele>25.267578</ele>
<time>2012-07-27T17:04:58Z</time>
<speed>0.020000</speed>
<extensions>
<speed>0.0</speed>
<temp>0.00</temp>
<bpm>0</bpm>
<rpm>0.00</rpm>
</extensions>
</trkpt>
<trkpt lat="63.937500000" lon="-21.000616074">
<ele>25.318848</ele>
<time>2012-07-27T17:05:03Z</time>
<speed>0.010000</speed>
<extensions>
<speed>0.0</speed>
<temp>0.00</temp>
<bpm>0</bpm>
<rpm>0.00</rpm>
</extensions>
</trkpt>
<trkpt lat="63.937500000" lon="-21.000617981">
<ele>25.345215</ele>
<time>2012-07-27T17:05:08Z</time>
<speed>0.010000</speed>
<extensions>
<speed>0.0</speed>
<temp>0.00</temp>
<bpm>0</bpm>
<rpm>0.00</rpm>
</extensions>
</trkpt>
<trkpt lat="63.937500000" lon="-21.000619888">
<ele>25.360352</ele>
<time>2012-07-27T17:05:13Z</time>
<extensions>
<speed>0.0</speed>
<temp>0.00</temp>
<bpm>0</bpm>
<rpm>0.00</rpm>
</extensions>
</trkpt>
<trkpt lat="63.937500000" lon="-21.000619888">
<ele>25.372070</ele>
<time>2012-07-27T17:05:18Z</time>
<speed>0.010000</speed>
<extensions>
<speed>0.0</speed>
<temp>0.00</temp>
<bpm>0</bpm>
<rpm>0.00</rpm>
</extensions>
</trkpt>
<trkpt lat="63.937500000" lon="-21.000623703">
<ele>25.437500</ele>
<time>2012-07-27T17:05:23Z</time>
<speed>0.020000</speed>
<extensions>
<speed>0.0</speed>
<temp>0.00</temp>
<bpm>0</bpm>
<rpm>0.00</rpm>
</extensions>
</trkpt>
<trkpt lat="63.937500000" lon="-21.000625610">
<ele>25.497559</ele>
<time>2012-07-27T17:05:28Z</time>
<speed>0.030000</speed>
<extensions>
<speed>0.0</speed>
<temp>0.00</temp>
<bpm>0</bpm>
<rpm>0.00</rpm>
</extensions>
</trkpt>
<trkpt lat="63.937500000" lon="-21.000629425">
<ele>25.565430</ele>
<time>2012-07-27T17:05:33Z</time>
<speed>0.040000</speed>
<extensions>
<speed>0.0</speed>
<temp>0.00</temp>
<bpm>0</bpm>
<rpm>0.00</rpm>
</extensions>
</trkpt>
<trkpt lat="63.937500000" lon="-21.000631332">
<ele>25.609863</ele>
<time>2012-07-27T17:05:38Z</time>
<speed>0.010000</speed>
<extensions>
<speed>0.0</speed>
<temp>0.00</temp>
<bpm>0</bpm>
<rpm>0.00</rpm>
</extensions>
</trkpt>
<trkpt lat="63.937500000" lon="-21.000633240">
<ele>25.623047</ele>
<time>2012-07-27T17:05:43Z</time>
<speed>0.010000</speed>
<extensions>
<speed>0.0</speed>
<temp>0.00</temp>
<bpm>0</bpm>
<rpm>0.00</rpm>
</extensions>
</trkpt>
<trkpt lat="63.937500000" lon="-21.000633240">
<ele>25.616699</ele>
<time>2012-07-27T17:05:48Z</time>
<extensions>
<speed>0.0</speed>
<temp>0.00</temp>
<bpm>0</bpm>
<rpm>0.00</rpm>
</extensions>
</trkpt>
<trkpt lat="63.937500000" lon="-21.000635147">
<ele>25.618652</ele>
<time>2012-07-27T17:05:53Z</time>
<extensions>
<speed>0.0</speed>
<temp>0.00</temp>
<bpm>0</bpm>
<rpm>0.00</rpm>
</extensions>
</trkpt>
<trkpt lat="63.937500000" lon="-21.000635147">
<ele>25.614746</ele>
<time>2012-07-27T17:05:58Z</time>
<extensions>
<speed>0.0</speed>
<temp>0.00</temp>
<bpm>0</bpm>
<rpm>0.00</rpm>
</extensions>
</trkpt>
<trkpt lat="63.937500000" lon="-21.000635147">
<ele>25.596191</ele>
<time>2012-07-27T17:06:03Z</time>
<extensions>
<speed>0.0</speed>
<temp>0.00</temp>
<bpm>0</bpm>
<rpm>0.00</rpm>
</extensions>
</trkpt>
<trkpt lat="63.937500000" lon="-21.000635147">
<ele>25.600586</ele>
<time>2012-07-27T17:06:08Z</time>
<speed>0.020000</speed>
<extensions>
<speed>0.0</speed>
<temp>0.00</temp>
<bpm>0</bpm>
<rpm>0.00</rpm>
</extensions>
</trkpt>
<trkpt lat="63.937500000" lon="-21.000637054">
<ele>25.604980</ele>
<time>2012-07-27T17:06:13Z</time>
<extensions>
<speed>0.0</speed>
<temp>0.00</temp>
<bpm>0</bpm>
<rpm>0.00</rpm>
</extensions>
</trkpt>
<trkpt lat="63.937503815" lon="-21.000637054">
<ele>25.594727</ele>
<time>2012-07-27T17:06:18Z</time>
<extensions>
<speed>0.0</speed>
<temp>0.00</temp>
<bpm>0</bpm>
<rpm>0.00</rpm>
</extensions>
</trkpt>
<trkpt lat="63.937503815" lon="-21.000637054">
<ele>25.588379</ele>
<time>2012-07-27T17:06:23Z</time>
<extensions>
<speed>0.0</speed>
<temp>0.00</temp>
<bpm>0</bpm>
<rpm>0.00</rpm>
</extensions>
</trkpt>
<trkpt lat="63.937500000" lon="-21.000637054">
<ele>25.589355</ele>
<time>2012-07-27T17:06:28Z</time>
<speed>0.010000</speed>
<extensions>
<speed>0.0</speed>
<temp>0.00</temp>
<bpm>0</bpm>
<rpm>0.00</rpm>
</extensions>
</trkpt>
<trkpt lat="63.937500000" lon="-21.000637054">
<ele>25.594238</ele>
<time>2012-07-27T17:06:33Z</time>
<extensions>
<speed>0.0</speed>
<temp>0.00</temp>
<bpm>0</bpm>
<rpm>0.00</rpm>
</extensions>
</trkpt>
<trkpt lat="63.937500000" lon="-21.000638962">
<ele>25.588867</ele>
<time>2012-07-27T17:06:38Z</time>
<extensions>
<speed>0.0</speed>
<temp>0.00</temp>
<bpm>0</bpm>
<rpm>0.00</rpm>
</extensions>
</trkpt>
<trkpt lat="63.937500000" lon="-21.000638962">
<ele>25.587891</ele>
<time>2012-07-27T17:06:43Z</time>
<extensions>
<speed>0.0</speed>
<temp>0.00</temp>
<bpm>0</bpm>
<rpm>0.00</rpm>
</extensions>
</trkpt>
<trkpt lat="63.937500000" lon="-21.000638962">
<ele>25.546875</ele>
<time>2012-07-27T17:06:48Z</time>
<extensions>
<speed>0.0</speed>
<temp>0.00</temp>
<bpm>0</bpm>
<rpm>0.00</rpm>
</extensions>
</trkpt>
<trkpt lat="63.937500000" lon="-21.000638962">
<ele>25.460938</ele>
<time>2012-07-27T17:06:53Z</time>
<extensions>
<speed>0.0</speed>
<temp>0.00</temp>
<bpm>0</bpm>
<rpm>0.00</rpm>
</extensions>
</trkpt>
<trkpt lat="63.937500000" lon="-21.000638962">
<ele>25.419434</ele>
<time>2012-07-27T17:06:58Z</time>
<extensions>
<speed>0.0</speed>
<temp>0.00</temp>
<bpm>0</bpm>
<rpm>0.00</rpm>
</extensions>
</trkpt>
<trkpt lat="63.937500000" lon="-21.000638962">
<ele>25.402344</ele>
<time>2012-07-27T17:07:03Z</time>
<extensions>
<speed>0.0</speed>
<temp>0.00</temp>
<bpm>0</bpm>
<rpm>0.00</rpm>
</extensions>
</trkpt>
<trkpt lat="63.937500000" lon="-21.000638962">
<ele>25.393066</ele>
<time>2012-07-27T17:07:08Z</time>
<extensions>
<speed>0.0</speed>
<temp>0.00</temp>
<bpm>0</bpm>
<rpm>0.00</rpm>
</extensions>
</trkpt>
<trkpt lat="63.937500000" lon="-21.000638962">
<ele>25.385254</ele>
<time>2012-07-27T17:07:13Z</time>
<speed>0.010000</speed>
<extensions>
<speed>0.0</speed>
<temp>0.00</temp>
<bpm>0</bpm>
<rpm>0.00</rpm>
</extensions>
</trkpt>
<trkpt lat="63.937500000" lon="-21.000638962">
<ele>25.372070</ele>
<time>2012-07-27T17:07:18Z</time>
<extensions>
<speed>0.0</speed>
<temp>0.00</temp>
<bpm>0</bpm>
<rpm>0.00</rpm>
</extensions>
</trkpt>
<trkpt lat="63.937500000" lon="-21.000638962">
<ele>25.363770</ele>
<time>2012-07-27T17:07:23Z</time>
<speed>0.010000</speed>
<extensions>
<speed>0.0</speed>
<temp>0.00</temp>
<bpm>0</bpm>
<rpm>0.00</rpm>
</extensions>
</trkpt>
<trkpt lat="63.937500000" lon="-21.000638962">
<ele>25.357422</ele>
<time>2012-07-27T17:07:28Z</time>
<extensions>
<speed>0.0</speed>
<temp>0.00</temp>
<bpm>0</bpm>
<rpm>0.00</rpm>
</extensions>
</trkpt>
<trkpt lat="63.937503815" lon="-21.000638962">
<ele>25.333008</ele>
<time>2012-07-27T17:07:33Z</time>
<speed>0.010000</speed>
<extensions>
<speed>0.0</speed>
<temp>0.00</temp>
<bpm>0</bpm>
<rpm>0.00</rpm>
</extensions>
</trkpt>
<trkpt lat="63.937503815" lon="-21.000638962">
<ele>25.297852</ele>
<time>2012-07-27T17:07:38Z</time>
<speed>0.020000</speed>
<extensions>
<speed>0.0</speed>
<temp>0.00</temp>
<bpm>0</bpm>
<rpm>0.00</rpm>
</extensions>
</trkpt>
<trkpt lat="63.937503815" lon="-21.000638962">
<ele>25.287598</ele>
<time>2012-07-27T17:07:43Z</time>
<extensions>
<speed>0.0</speed>
<temp>0.00</temp>
<bpm>0</bpm>
<rpm>0.00</rpm>
</extensions>
</trkpt>
<trkpt lat="63.937503815" lon="-21.000638962">
<ele>25.271484</ele>
<time>2012-07-27T17:07:48Z</time>
<extensions>
<speed>0.0</speed>
<temp>0.00</temp>
<bpm>0</bpm>
<rpm>0.00</rpm>
</extensions>
</trkpt>
<trkpt lat="63.937503815" lon="-21.000638962">
<ele>25.255371</ele>
<time>2012-07-27T17:07:53Z</time>
<extensions>
<speed>0.0</speed>
<temp>0.00</temp>
<bpm>0</bpm>
<rpm>0.00</rpm>
</extensions>
</trkpt>
<trkpt lat="63.937503815" lon="-21.000638962">
<ele>25.238281</ele>
<time>2012-07-27T17:07:58Z</time>
<extensions>
<speed>0.0</speed>
<temp>0.00</temp>
<bpm>0</bpm>
<rpm>0.00</rpm>
</extensions>
</trkpt>
<trkpt lat="63.937503815" lon="-21.000638962">
<ele>25.219238</ele>
<time>2012-07-27T17:08:03Z</time>
<speed>0.010000</speed>
<extensions>
<speed>0.0</speed>
<temp>0.00</temp>
<bpm>0</bpm>
<rpm>0.00</rpm>
</extensions>
</trkpt>
<trkpt lat="63.937503815" lon="-21.000638962">
<ele>25.195313</ele>
<time>2012-07-27T17:08:08Z</time>
<speed>0.010000</speed>
<extensions>
<speed>0.0</speed>
<temp>0.00</temp>
<bpm>0</bpm>
<rpm>0.00</rpm>
</extensions>
</trkpt>
<trkpt lat="63.937503815" lon="-21.000638962">
<ele>25.180664</ele>
<time>2012-07-27T17:08:13Z</time>
<extensions>
<speed>0.0</speed>
<temp>0.00</temp>
<bpm>0</bpm>
<rpm>0.00</rpm>
</extensions>
</trkpt>
<trkpt lat="63.937503815" lon="-21.000638962">
<ele>25.161133</ele>
<time>2012-07-27T17:08:18Z</time>
<speed>0.010000</speed>
<extensions>
<speed>0.0</speed>
<temp>0.00</temp>
<bpm>0</bpm>
<rpm>0.00</rpm>
</extensions>
</trkpt>
<trkpt lat="63.937503815" lon="-21.000638962">
<ele>25.220703</ele>
<time>2012-07-27T17:08:23Z</time>
<speed>0.020000</speed>
<extensions>
<speed>0.0</speed>
<temp>0.00</temp>
<bpm>0</bpm>
<rpm>0.00</rpm>
</extensions>
</trkpt>
<trkpt lat="63.937503815" lon="-21.000638962">
<ele>25.148438</ele>
<time>2012-07-27T17:08:28Z</time>
<speed>0.030000</speed>
<extensions>
<speed>0.0</speed>
<temp>0.00</temp>
<bpm>0</bpm>
<rpm>0.00</rpm>
</extensions>
</trkpt>
<trkpt lat="63.937503815" lon="-21.000638962">
<ele>25.122559</ele>
<time>2012-07-27T17:08:33Z</time>
<speed>0.010000</speed>
<extensions>
<speed>0.0</speed>
<temp>0.00</temp>
<bpm>0</bpm>
<rpm>0.00</rpm>
</extensions>
</trkpt>
<trkpt lat="63.937503815" lon="-21.000638962">
<ele>25.115723</ele>
<time>2012-07-27T17:08:38Z</time>
<extensions>
<speed>0.0</speed>
<temp>0.00</temp>
<bpm>0</bpm>
<rpm>0.00</rpm>
</extensions>
</trkpt>
<trkpt lat="63.937503815" lon="-21.000638962">
<ele>25.059570</ele>
<time>2012-07-27T17:08:43Z</time>
<speed>0.010000</speed>
<extensions>
<speed>0.0</speed>
<temp>0.00</temp>
<bpm>0</bpm>
<rpm>0.00</rpm>
</extensions>
</trkpt>
<trkpt lat="63.937503815" lon="-21.000638962">
<ele>25.030273</ele>
<time>2012-07-27T17:08:48Z</time>
<speed>0.030000</speed>
<extensions>
<speed>0.0</speed>
<temp>0.00</temp>
<bpm>0</bpm>
<rpm>0.00</rpm>
</extensions>
</trkpt>
<trkpt lat="63.937503815" lon="-21.000638962">
<ele>25.014160</ele>
<time>2012-07-27T17:08:53Z</time>
<speed>0.010000</speed>
<extensions>
<speed>0.0</speed>
<temp>0.00</temp>
<bpm>0</bpm>
<rpm>0.00</rpm>
</extensions>
</trkpt>
<trkpt lat="63.937503815" lon="-21.000638962">
<ele>24.991699</ele>
<time>2012-07-27T17:08:58Z</time>
<speed>0.010000</speed>
<extensions>
<speed>0.0</speed>
<temp>0.00</temp>
<bpm>0</bpm>
<rpm>0.00</rpm>
</extensions>
</trkpt>
<trkpt lat="63.937503815" lon="-21.000638962">
<ele>24.971680</ele>
<time>2012-07-27T17:09:03Z</time>
<speed>0.020000</speed>
<extensions>
<speed>0.0</speed>
<temp>0.00</temp>
<bpm>0</bpm>
<rpm>0.00</rpm>
</extensions>
</trkpt>
<trkpt lat="63.937503815" lon="-21.000638962">
<ele>24.937500</ele>
<time>2012-07-27T17:09:08Z</time>
<speed>0.020000</speed>
<extensions>
<speed>0.0</speed>
<temp>0.00</temp>
<bpm>0</bpm>
<rpm>0.00</rpm>
</extensions>
</trkpt>
<trkpt lat="63.937503815" lon="-21.000638962">
<ele>24.912598</ele>
<time>2012-07-27T17:09:13Z</time>
<speed>0.020000</speed>
<extensions>
<speed>0.0</speed>
<temp>0.00</temp>
<bpm>0</bpm>
<rpm>0.00</rpm>
</extensions>
</trkpt>
<trkpt lat="63.937503815" lon="-21.000638962">
<ele>24.874023</ele>
<time>2012-07-27T17:09:18Z</time>
<speed>0.010000</speed>
<extensions>
<speed>0.0</speed>
<temp>0.00</temp>
<bpm>0</bpm>
<rpm>0.00</rpm>
</extensions>
</trkpt>
<trkpt lat="63.937503815" lon="-21.000638962">
<ele>24.830078</ele>
<time>2012-07-27T17:09:23Z</time>
<speed>0.030000</speed>
<extensions>
<speed>0.0</speed>
<temp>0.00</temp>
<bpm>0</bpm>
<rpm>0.00</rpm>
</extensions>
</trkpt>
<trkpt lat="63.937503815" lon="-21.000638962">
<ele>24.788086</ele>
<time>2012-07-27T17:09:28Z</time>
<speed>0.010000</speed>
<extensions>
<speed>0.0</speed>
<temp>0.00</temp>
<bpm>0</bpm>
<rpm>0.00</rpm>
</extensions>
</trkpt>
<trkpt lat="63.937503815" lon="-21.000637054">
<ele>24.758301</ele>
<time>2012-07-27T17:09:33Z</time>
<speed>0.010000</speed>
<extensions>
<speed>0.0</speed>
<temp>0.00</temp>
<bpm>0</bpm>
<rpm>0.00</rpm>
</extensions>
</trkpt>
<trkpt lat="63.937503815" lon="-21.000637054">
<ele>24.724609</ele>
<time>2012-07-27T17:09:38Z</time>
<extensions>
<speed>0.0</speed>
<temp>0.00</temp>
<bpm>0</bpm>
<rpm>0.00</rpm>
</extensions>
</trkpt>
<trkpt lat="63.937503815" lon="-21.000635147">
<ele>24.677734</ele>
<time>2012-07-27T17:09:43Z</time>
<speed>0.010000</speed>
<extensions>
<speed>0.0</speed>
<temp>0.00</temp>
<bpm>0</bpm>
<rpm>0.00</rpm>
</extensions>
</trkpt>
<trkpt lat="63.937503815" lon="-21.000635147">
<ele>24.611328</ele>
<time>2012-07-27T17:09:48Z</time>
<speed>0.020000</speed>
<extensions>
<speed>0.0</speed>
<temp>0.00</temp>
<bpm>0</bpm>
<rpm>0.00</rpm>
</extensions>
</trkpt>
<trkpt lat="63.937503815" lon="-21.000633240">
<ele>24.538574</ele>
<time>2012-07-27T17:09:53Z</time>
<speed>0.010000</speed>
<extensions>
<speed>0.0</speed>
<temp>0.00</temp>
<bpm>0</bpm>
<rpm>0.00</rpm>
</extensions>
</trkpt>
<trkpt lat="63.937503815" lon="-21.000633240">
<ele>24.476563</ele>
<time>2012-07-27T17:09:58Z</time>
<speed>0.020000</speed>
<extensions>
<speed>0.0</speed>
<temp>0.00</temp>
<bpm>0</bpm>
<rpm>0.00</rpm>
</extensions>
</trkpt>
<trkpt lat="63.937507629" lon="-21.000631332">
<ele>24.430176</ele>
<time>2012-07-27T17:10:03Z</time>
<speed>0.010000</speed>
<extensions>
<speed>0.0</speed>
<temp>0.00</temp>
<bpm>0</bpm>
<rpm>0.00</rpm>
</extensions>
</trkpt>
<trkpt lat="63.937507629" lon="-21.000631332">
<ele>24.388184</ele>
<time>2012-07-27T17:10:08Z</time>
<speed>0.020000</speed>
<extensions>
<speed>0.0</speed>
<temp>0.00</temp>
<bpm>0</bpm>
<rpm>0.00</rpm>
</extensions>
</trkpt>
<trkpt lat="63.937507629" lon="-21.000629425">
<ele>24.345215</ele>
<time>2012-07-27T17:10:13Z</time>
<speed>0.020000</speed>
<extensions>
<speed>0.0</speed>
<temp>0.00</temp>
<bpm>0</bpm>
<rpm>0.00</rpm>
</extensions>
</trkpt>
<trkpt lat="63.937507629" lon="-21.000629425">
<ele>24.315918</ele>
<time>2012-07-27T17:10:18Z</time>
<extensions>
<speed>0.0</speed>
<temp>0.00</temp>
<bpm>0</bpm>
<rpm>0.00</rpm>
</extensions>
</trkpt>
<trkpt lat="63.937507629" lon="-21.000627518">
<ele>24.270508</ele>
<time>2012-07-27T17:10:23Z</time>
<speed>0.010000</speed>
<extensions>
<speed>0.0</speed>
<temp>0.00</temp>
<bpm>0</bpm>
<rpm>0.00</rpm>
</extensions>
</trkpt>
<trkpt lat="63.937507629" lon="-21.000625610">
<ele>24.215820</ele>
<time>2012-07-27T17:10:28Z</time>
<speed>0.010000</speed>
<extensions>
<speed>0.0</speed>
<temp>0.00</temp>
<bpm>0</bpm>
<rpm>0.00</rpm>
</extensions>
</trkpt>
<trkpt lat="63.937507629" lon="-21.000625610">
<ele>24.140625</ele>
<time>2012-07-27T17:10:33Z</time>
<speed>0.010000</speed>
<extensions>
<speed>0.0</speed>
<temp>0.00</temp>
<bpm>0</bpm>
<rpm>0.00</rpm>
</extensions>
</trkpt>
<trkpt lat="63.937507629" lon="-21.000623703">
<ele>24.124023</ele>
<time>2012-07-27T17:10:38Z</time>
<speed>0.010000</speed>
<extensions>
<speed>0.0</speed>
<temp>0.00</temp>
<bpm>0</bpm>
<rpm>0.00</rpm>
</extensions>
</trkpt>
<trkpt lat="63.937507629" lon="-21.000621796">
<ele>24.107910</ele>
<time>2012-07-27T17:10:43Z</time>
<speed>0.010000</speed>
<extensions>
<speed>0.0</speed>
<temp>0.00</temp>
<bpm>0</bpm>
<rpm>0.00</rpm>
</extensions>
</trkpt>
<trkpt lat="63.937507629" lon="-21.000619888">
<ele>24.070801</ele>
<time>2012-07-27T17:10:48Z</time>
<speed>0.010000</speed>
<extensions>
<speed>0.0</speed>
<temp>0.00</temp>
<bpm>0</bpm>
<rpm>0.00</rpm>
</extensions>
</trkpt>
<trkpt lat="63.937507629" lon="-21.000619888">
<ele>24.020996</ele>
<time>2012-07-27T17:10:53Z</time>
<speed>0.010000</speed>
<extensions>
<speed>0.0</speed>
<temp>0.00</temp>
<bpm>0</bpm>
<rpm>0.00</rpm>
</extensions>
</trkpt>
<trkpt lat="63.937507629" lon="-21.000617981">
<ele>23.985840</ele>
<time>2012-07-27T17:10:58Z</time>
<speed>0.010000</speed>
<extensions>
<speed>0.0</speed>
<temp>0.00</temp>
<bpm>0</bpm>
<rpm>0.00</rpm>
</extensions>
</trkpt>
<trkpt lat="63.937507629" lon="-21.000617981">
<ele>24.007324</ele>
<time>2012-07-27T17:11:03Z</time>
<speed>0.010000</speed>
<extensions>
<speed>0.0</speed>
<temp>0.00</temp>
<bpm>0</bpm>
<rpm>0.00</rpm>
</extensions>
</trkpt>
<trkpt lat="63.937507629" lon="-21.000617981">
<ele>24.000000</ele>
<time>2012-07-27T17:11:08Z</time>
<speed>0.080000</speed>
<extensions>
<speed>0.1</speed>
<temp>0.00</temp>
<bpm>0</bpm>
<rpm>0.00</rpm>
</extensions>
</trkpt>
<trkpt lat="63.937500000" lon="-21.000610352">
<ele>24.387207</ele>
<time>2012-07-27T17:11:13Z</time>
<speed>0.500000</speed>
<extensions>
<speed>0.5</speed>
<temp>0.00</temp>
<bpm>0</bpm>
<rpm>0.00</rpm>
</extensions>
</trkpt>
<trkpt lat="63.937496185" lon="-21.000616074">
<ele>24.169434</ele>
<time>2012-07-27T17:11:18Z</time>
<speed>0.100000</speed>
<extensions>
<speed>0.1</speed>
<temp>0.00</temp>
<bpm>0</bpm>
<rpm>0.00</rpm>
</extensions>
</trkpt>
<trkpt lat="63.937469482" lon="-21.000627518">
<ele>24.012695</ele>
<time>2012-07-27T17:11:23Z</time>
<speed>0.560000</speed>
<extensions>
<speed>0.6</speed>
<temp>0.00</temp>
<bpm>0</bpm>
<rpm>0.00</rpm>
</extensions>
</trkpt>
<trkpt lat="63.937438965" lon="-21.000610352">
<ele>23.489746</ele>
<time>2012-07-27T17:11:28Z</time>
<speed>0.240000</speed>
<extensions>
<speed>0.2</speed>
<temp>0.00</temp>
<bpm>0</bpm>
<rpm>0.00</rpm>
</extensions>
</trkpt>
<trkpt lat="63.937435150" lon="-21.000602722">
<ele>23.438477</ele>
<time>2012-07-27T17:11:33Z</time>
<speed>0.050000</speed>
<extensions>
<speed>0.1</speed>
<temp>0.00</temp>
<bpm>0</bpm>
<rpm>0.00</rpm>
</extensions>
</trkpt>
<trkpt lat="63.937435150" lon="-21.000600815">
<ele>23.411133</ele>
<time>2012-07-27T17:11:38Z</time>
<extensions>
<speed>0.0</speed>
<temp>0.00</temp>
<bpm>0</bpm>
<rpm>0.00</rpm>
</extensions>
</trkpt>
<trkpt lat="63.937435150" lon="-21.000602722">
<ele>23.443359</ele>
<time>2012-07-27T17:11:43Z</time>
<speed>0.010000</speed>
<extensions>
<speed>0.0</speed>
<temp>0.00</temp>
<bpm>0</bpm>
<rpm>0.00</rpm>
</extensions>
</trkpt>
<trkpt lat="63.937435150" lon="-21.000604630">
<ele>23.547852</ele>
<time>2012-07-27T17:11:48Z</time>
<speed>0.010000</speed>
<extensions>
<speed>0.0</speed>
<temp>0.00</temp>
<bpm>0</bpm>
<rpm>0.00</rpm>
</extensions>
</trkpt>
<trkpt lat="63.937435150" lon="-21.000604630">
<ele>23.555664</ele>
<time>2012-07-27T17:11:53Z</time>
<extensions>
<speed>0.0</speed>
<temp>0.00</temp>
<bpm>0</bpm>
<rpm>0.00</rpm>
</extensions>
</trkpt>
<trkpt lat="63.937435150" lon="-21.000606537">
<ele>23.562012</ele>
<time>2012-07-27T17:11:58Z</time>
<extensions>
<speed>0.0</speed>
<temp>0.00</temp>
<bpm>0</bpm>
<rpm>0.00</rpm>
</extensions>
</trkpt>
<trkpt lat="63.937435150" lon="-21.000608444">
<ele>23.626953</ele>
<time>2012-07-27T17:12:03Z</time>
<extensions>
<speed>0.0</speed>
<temp>0.00</temp>
<bpm>0</bpm>
<rpm>0.00</rpm>
</extensions>
</trkpt>
<trkpt lat="63.937435150" lon="-21.000610352">
<ele>23.666504</ele>
<time>2012-07-27T17:12:08Z</time>
<extensions>
<speed>0.0</speed>
<temp>0.00</temp>
<bpm>0</bpm>
<rpm>0.00</rpm>
</extensions>
</trkpt>
<trkpt lat="63.937435150" lon="-21.000610352">
<ele>23.699707</ele>
<time>2012-07-27T17:12:13Z</time>
<extensions>
<speed>0.0</speed>
<temp>0.00</temp>
<bpm>0</bpm>
<rpm>0.00</rpm>
</extensions>
</trkpt>
<trkpt lat="63.937435150" lon="-21.000612259">
<ele>23.724121</ele>
<time>2012-07-27T17:12:18Z</time>
<extensions>
<speed>0.0</speed>
<temp>0.00</temp>
<bpm>0</bpm>
<rpm>0.00</rpm>
</extensions>
</trkpt>
<trkpt lat="63.937435150" lon="-21.000612259">
<ele>23.750000</ele>
<time>2012-07-27T17:12:23Z</time>
<extensions>
<speed>0.0</speed>
<temp>0.00</temp>
<bpm>0</bpm>
<rpm>0.00</rpm>
</extensions>
</trkpt>
<trkpt lat="63.937435150" lon="-21.000614166">
<ele>23.763184</ele>
<time>2012-07-27T17:12:28Z</time>
<speed>0.010000</speed>
<extensions>
<speed>0.0</speed>
<temp>0.00</temp>
<bpm>0</bpm>
<rpm>0.00</rpm>
</extensions>
</trkpt>
<trkpt lat="63.937431335" lon="-21.000614166">
<ele>23.780273</ele>
<time>2012-07-27T17:12:33Z</time>
<speed>0.010000</speed>
<extensions>
<speed>0.0</speed>
<temp>0.00</temp>
<bpm>0</bpm>
<rpm>0.00</rpm>
</extensions>
</trkpt>
<trkpt lat="63.937431335" lon="-21.000614166">
<ele>23.797363</ele>
<time>2012-07-27T17:12:38Z</time>
<extensions>
<speed>0.0</speed>
<temp>0.00</temp>
<bpm>0</bpm>
<rpm>0.00</rpm>
</extensions>
</trkpt>
<trkpt lat="63.937431335" lon="-21.000616074">
<ele>23.820801</ele>
<time>2012-07-27T17:12:43Z</time>
<extensions>
<speed>0.0</speed>
<temp>0.00</temp>
<bpm>0</bpm>
<rpm>0.00</rpm>
</extensions>
</trkpt>
<trkpt lat="63.937431335" lon="-21.000616074">
<ele>23.839355</ele>
<time>2012-07-27T17:12:48Z</time>
<extensions>
<speed>0.0</speed>
<temp>0.00</temp>
<bpm>0</bpm>
<rpm>0.00</rpm>
</extensions>
</trkpt>
<trkpt lat="63.937431335" lon="-21.000617981">
<ele>23.862305</ele>
<time>2012-07-27T17:12:53Z</time>
<speed>0.010000</speed>
<extensions>
<speed>0.0</speed>
<temp>0.00</temp>
<bpm>0</bpm>
<rpm>0.00</rpm>
</extensions>
</trkpt>
<trkpt lat="63.937431335" lon="-21.000617981">
<ele>23.872559</ele>
<time>2012-07-27T17:12:58Z</time>
<speed>0.020000</speed>
<extensions>
<speed>0.0</speed>
<temp>0.00</temp>
<bpm>0</bpm>
<rpm>0.00</rpm>
</extensions>
</trkpt>
<trkpt lat="63.937431335" lon="-21.000619888">
<ele>23.885742</ele>
<time>2012-07-27T17:13:03Z</time>
<speed>0.010000</speed>
<extensions>
<speed>0.0</speed>
<temp>0.00</temp>
<bpm>0</bpm>
<rpm>0.00</rpm>
</extensions>
</trkpt>
<trkpt lat="63.937431335" lon="-21.000619888">
<ele>23.891113</ele>
<time>2012-07-27T17:13:08Z</time>
<extensions>
<speed>0.0</speed>
<temp>0.00</temp>
<bpm>0</bpm>
<rpm>0.00</rpm>
</extensions>
</trkpt>
<trkpt lat="63.937431335" lon="-21.000619888">
<ele>23.903320</ele>
<time>2012-07-27T17:13:13Z</time>
<speed>0.010000</speed>
<extensions>
<speed>0.0</speed>
<temp>0.00</temp>
<bpm>0</bpm>
<rpm>0.00</rpm>
</extensions>
</trkpt>
<trkpt lat="63.937431335" lon="-21.000621796">
<ele>23.918945</ele>
<time>2012-07-27T17:13:18Z</time>
<extensions>
<speed>0.0</speed>
<temp>0.00</temp>
<bpm>0</bpm>
<rpm>0.00</rpm>
</extensions>
</trkpt>
<trkpt lat="63.937431335" lon="-21.000621796">
<ele>23.926270</ele>
<time>2012-07-27T17:13:23Z</time>
<extensions>
<speed>0.0</speed>
<temp>0.00</temp>
<bpm>0</bpm>
<rpm>0.00</rpm>
</extensions>
</trkpt>
<trkpt lat="63.937431335" lon="-21.000623703">
<ele>23.945313</ele>
<time>2012-07-27T17:13:28Z</time>
<speed>0.010000</speed>
<extensions>
<speed>0.0</speed>
<temp>0.00</temp>
<bpm>0</bpm>
<rpm>0.00</rpm>
</extensions>
</trkpt>
<trkpt lat="63.937431335" lon="-21.000623703">
<ele>23.953613</ele>
<time>2012-07-27T17:13:33Z</time>
<speed>0.010000</speed>
<extensions>
<speed>0.0</speed>
<temp>0.00</temp>
<bpm>0</bpm>
<rpm>0.00</rpm>
</extensions>
</trkpt>
<trkpt lat="63.937431335" lon="-21.000623703">
<ele>23.954590</ele>
<time>2012-07-27T17:13:38Z</time>
<speed>0.010000</speed>
<extensions>
<speed>0.0</speed>
<temp>0.00</temp>
<bpm>0</bpm>
<rpm>0.00</rpm>
</extensions>
</trkpt>
<trkpt lat="63.937431335" lon="-21.000623703">
<ele>23.937988</ele>
<time>2012-07-27T17:13:43Z</time>
<extensions>
<speed>0.0</speed>
<temp>0.00</temp>
<bpm>0</bpm>
<rpm>0.00</rpm>
</extensions>
</trkpt>
<trkpt lat="63.937431335" lon="-21.000623703">
<ele>23.923828</ele>
<time>2012-07-27T17:13:48Z</time>
<extensions>
<speed>0.0</speed>
<temp>0.00</temp>
<bpm>0</bpm>
<rpm>0.00</rpm>
</extensions>
</trkpt>
<trkpt lat="63.937431335" lon="-21.000625610">
<ele>23.911133</ele>
<time>2012-07-27T17:13:53Z</time>
<speed>0.010000</speed>
<extensions>
<speed>0.0</speed>
<temp>0.00</temp>
<bpm>0</bpm>
<rpm>0.00</rpm>
</extensions>
</trkpt>
<trkpt lat="63.937431335" lon="-21.000625610">
<ele>23.910645</ele>
<time>2012-07-27T17:13:58Z</time>
<speed>0.020000</speed>
<extensions>
<speed>0.0</speed>
<temp>0.00</temp>
<bpm>0</bpm>
<rpm>0.00</rpm>
</extensions>
</trkpt>
<trkpt lat="63.937431335" lon="-21.000625610">
<ele>23.895508</ele>
<time>2012-07-27T17:14:03Z</time>
<extensions>
<speed>0.0</speed>
<temp>0.00</temp>
<bpm>0</bpm>
<rpm>0.00</rpm>
</extensions>
</trkpt>
<trkpt lat="63.937431335" lon="-21.000623703">
<ele>23.846680</ele>
<time>2012-07-27T17:14:08Z</time>
<speed>0.010000</speed>
<extensions>
<speed>0.0</speed>
<temp>0.00</temp>
<bpm>0</bpm>
<rpm>0.00</rpm>
</extensions>
</trkpt>
<trkpt lat="63.937431335" lon="-21.000621796">
<ele>23.806641</ele>
<time>2012-07-27T17:14:13Z</time>
<extensions>
<speed>0.0</speed>
<temp>0.00</temp>
<bpm>0</bpm>
<rpm>0.00</rpm>
</extensions>
</trkpt>
<trkpt lat="63.937431335" lon="-21.000621796">
<ele>23.765137</ele>
<time>2012-07-27T17:14:18Z</time>
<extensions>
<speed>0.0</speed>
<temp>0.00</temp>
<bpm>0</bpm>
<rpm>0.00</rpm>
</extensions>
</trkpt>
<trkpt lat="63.937431335" lon="-21.000621796">
<ele>23.747070</ele>
<time>2012-07-27T17:14:23Z</time>
<extensions>
<speed>0.0</speed>
<temp>0.00</temp>
<bpm>0</bpm>
<rpm>0.00</rpm>
</extensions>
</trkpt>
<trkpt lat="63.937431335" lon="-21.000621796">
<ele>23.717773</ele>
<time>2012-07-27T17:14:28Z</time>
<speed>0.010000</speed>
<extensions>
<speed>0.0</speed>
<temp>0.00</temp>
<bpm>0</bpm>
<rpm>0.00</rpm>
</extensions>
</trkpt>
<trkpt lat="63.937431335" lon="-21.000619888">
<ele>23.698242</ele>
<time>2012-07-27T17:14:33Z</time>
<speed>0.020000</speed>
<extensions>
<speed>0.0</speed>
<temp>0.00</temp>
<bpm>0</bpm>
<rpm>0.00</rpm>
</extensions>
</trkpt>
<trkpt lat="63.937431335" lon="-21.000619888">
<ele>23.699707</ele>
<time>2012-07-27T17:14:38Z</time>
<speed>0.030000</speed>
<extensions>
<speed>0.0</speed>
<temp>0.00</temp>
<bpm>0</bpm>
<rpm>0.00</rpm>
</extensions>
</trkpt>
<trkpt lat="63.937431335" lon="-21.000619888">
<ele>23.705566</ele>
<time>2012-07-27T17:14:43Z</time>
<speed>0.010000</speed>
<extensions>
<speed>0.0</speed>
<temp>0.00</temp>
<bpm>0</bpm>
<rpm>0.00</rpm>
</extensions>
</trkpt>
<trkpt lat="63.937431335" lon="-21.000619888">
<ele>23.724121</ele>
<time>2012-07-27T17:14:48Z</time>
<extensions>
<speed>0.0</speed>
<temp>0.00</temp>
<bpm>0</bpm>
<rpm>0.00</rpm>
</extensions>
</trkpt>
<trkpt lat="63.937431335" lon="-21.000619888">
<ele>23.685547</ele>
<time>2012-07-27T17:14:53Z</time>
<extensions>
<speed>0.0</speed>
<temp>0.00</temp>
<bpm>0</bpm>
<rpm>0.00</rpm>
</extensions>
</trkpt>
<trkpt lat="63.937431335" lon="-21.000619888">
<ele>23.659180</ele>
<time>2012-07-27T17:14:58Z</time>
<speed>0.010000</speed>
<extensions>
<speed>0.0</speed>
<temp>0.00</temp>
<bpm>0</bpm>
<rpm>0.00</rpm>
</extensions>
</trkpt>
<trkpt lat="63.937431335" lon="-21.000619888">
<ele>23.625977</ele>
<time>2012-07-27T17:15:03Z</time>
<extensions>
<speed>0.0</speed>
<temp>0.00</temp>
<bpm>0</bpm>
<rpm>0.00</rpm>
</extensions>
</trkpt>
<trkpt lat="63.937431335" lon="-21.000617981">
<ele>23.584473</ele>
<time>2012-07-27T17:15:08Z</time>
<extensions>
<speed>0.0</speed>
<temp>0.00</temp>
<bpm>0</bpm>
<rpm>0.00</rpm>
</extensions>
</trkpt>
<trkpt lat="63.937431335" lon="-21.000617981">
<ele>23.550781</ele>
<time>2012-07-27T17:15:13Z</time>
<extensions>
<speed>0.0</speed>
<temp>0.00</temp>
<bpm>0</bpm>
<rpm>0.00</rpm>
</extensions>
</trkpt>
<trkpt lat="63.937431335" lon="-21.000617981">
<ele>23.510254</ele>
<time>2012-07-27T17:15:18Z</time>
<speed>0.020000</speed>
<extensions>
<speed>0.0</speed>
<temp>0.00</temp>
<bpm>0</bpm>
<rpm>0.00</rpm>
</extensions>
</trkpt>
<trkpt lat="63.937431335" lon="-21.000617981">
<ele>23.494141</ele>
<time>2012-07-27T17:15:23Z</time>
<speed>0.010000</speed>
<extensions>
<speed>0.0</speed>
<temp>0.00</temp>
<bpm>0</bpm>
<rpm>0.00</rpm>
</extensions>
</trkpt>
<trkpt lat="63.937431335" lon="-21.000617981">
<ele>23.487793</ele>
<time>2012-07-27T17:15:28Z</time>
<extensions>
<speed>0.0</speed>
<temp>0.00</temp>
<bpm>0</bpm>
<rpm>0.00</rpm>
</extensions>
</trkpt>
<trkpt lat="63.937431335" lon="-21.000617981">
<ele>23.471191</ele>
<time>2012-07-27T17:15:33Z</time>
<extensions>
<speed>0.0</speed>
<temp>0.00</temp>
<bpm>0</bpm>
<rpm>0.00</rpm>
</extensions>
</trkpt>
<trkpt lat="63.937431335" lon="-21.000617981">
<ele>23.460938</ele>
<time>2012-07-27T17:15:38Z</time>
<extensions>
<speed>0.0</speed>
<temp>0.00</temp>
<bpm>0</bpm>
<rpm>0.00</rpm>
</extensions>
</trkpt>
<trkpt lat="63.937431335" lon="-21.000617981">
<ele>23.447266</ele>
<time>2012-07-27T17:15:43Z</time>
<extensions>
<speed>0.0</speed>
<temp>0.00</temp>
<bpm>0</bpm>
<rpm>0.00</rpm>
</extensions>
</trkpt>
<trkpt lat="63.937431335" lon="-21.000617981">
<ele>23.423340</ele>
<time>2012-07-27T17:15:48Z</time>
<speed>0.010000</speed>
<extensions>
<speed>0.0</speed>
<temp>0.00</temp>
<bpm>0</bpm>
<rpm>0.00</rpm>
</extensions>
</trkpt>
<trkpt lat="63.937427521" lon="-21.000617981">
<ele>23.405273</ele>
<time>2012-07-27T17:15:53Z</time>
<extensions>
<speed>0.0</speed>
<temp>0.00</temp>
<bpm>0</bpm>
<rpm>0.00</rpm>
</extensions>
</trkpt>
<trkpt lat="63.937427521" lon="-21.000617981">
<ele>23.377930</ele>
<time>2012-07-27T17:15:58Z</time>
<extensions>
<speed>0.0</speed>
<temp>0.00</temp>
<bpm>0</bpm>
<rpm>0.00</rpm>
</extensions>
</trkpt>
<trkpt lat="63.937427521" lon="-21.000617981">
<ele>23.341309</ele>
<time>2012-07-27T17:16:03Z</time>
<extensions>
<speed>0.0</speed>
<temp>0.00</temp>
<bpm>0</bpm>
<rpm>0.00</rpm>
</extensions>
</trkpt>
<trkpt lat="63.937427521" lon="-21.000617981">
<ele>23.307617</ele>
<time>2012-07-27T17:16:08Z</time>
<extensions>
<speed>0.0</speed>
<temp>0.00</temp>
<bpm>0</bpm>
<rpm>0.00</rpm>
</extensions>
</trkpt>
<trkpt lat="63.937427521" lon="-21.000617981">
<ele>23.291992</ele>
<time>2012-07-27T17:16:13Z</time>
<extensions>
<speed>0.0</speed>
<temp>0.00</temp>
<bpm>0</bpm>
<rpm>0.00</rpm>
</extensions>
</trkpt>
<trkpt lat="63.937427521" lon="-21.000617981">
<ele>23.285645</ele>
<time>2012-07-27T17:16:18Z</time>
<extensions>
<speed>0.0</speed>
<temp>0.00</temp>
<bpm>0</bpm>
<rpm>0.00</rpm>
</extensions>
</trkpt>
<trkpt lat="63.937427521" lon="-21.000617981">
<ele>23.277832</ele>
<time>2012-07-27T17:16:23Z</time>
<speed>0.020000</speed>
<extensions>
<speed>0.0</speed>
<temp>0.00</temp>
<bpm>0</bpm>
<rpm>0.00</rpm>
</extensions>
</trkpt>
<trkpt lat="63.937427521" lon="-21.000617981">
<ele>23.260742</ele>
<time>2012-07-27T17:16:28Z</time>
<speed>0.010000</speed>
<extensions>
<speed>0.0</speed>
<temp>0.00</temp>
<bpm>0</bpm>
<rpm>0.00</rpm>
</extensions>
</trkpt>
<trkpt lat="63.937427521" lon="-21.000617981">
<ele>23.258789</ele>
<time>2012-07-27T17:16:33Z</time>
<speed>0.020000</speed>
<extensions>
<speed>0.0</speed>
<temp>0.00</temp>
<bpm>0</bpm>
<rpm>0.00</rpm>
</extensions>
</trkpt>
<trkpt lat="63.937427521" lon="-21.000617981">
<ele>23.250977</ele>
<time>2012-07-27T17:16:38Z</time>
<speed>0.010000</speed>
<extensions>
<speed>0.0</speed>
<temp>0.00</temp>
<bpm>0</bpm>
<rpm>0.00</rpm>
</extensions>
</trkpt>
<trkpt lat="63.937427521" lon="-21.000617981">
<ele>23.248535</ele>
<time>2012-07-27T17:16:43Z</time>
<extensions>
<speed>0.0</speed>
<temp>0.00</temp>
<bpm>0</bpm>
<rpm>0.00</rpm>
</extensions>
</trkpt>
<trkpt lat="63.937427521" lon="-21.000617981">
<ele>23.250000</ele>
<time>2012-07-27T17:16:48Z</time>
<speed>0.010000</speed>
<extensions>
<speed>0.0</speed>
<temp>0.00</temp>
<bpm>0</bpm>
<rpm>0.00</rpm>
</extensions>
</trkpt>
<trkpt lat="63.937427521" lon="-21.000617981">
<ele>23.252441</ele>
<time>2012-07-27T17:16:53Z</time>
<speed>0.010000</speed>
<extensions>
<speed>0.0</speed>
<temp>0.00</temp>
<bpm>0</bpm>
<rpm>0.00</rpm>
</extensions>
</trkpt>
<trkpt lat="63.937427521" lon="-21.000617981">
<ele>23.258301</ele>
<time>2012-07-27T17:16:58Z</time>
<extensions>
<speed>0.0</speed>
<temp>0.00</temp>
<bpm>0</bpm>
<rpm>0.00</rpm>
</extensions>
</trkpt>
<trkpt lat="63.937427521" lon="-21.000617981">
<ele>23.264648</ele>
<time>2012-07-27T17:17:03Z</time>
<extensions>
<speed>0.0</speed>
<temp>0.00</temp>
<bpm>0</bpm>
<rpm>0.00</rpm>
</extensions>
</trkpt>
<trkpt lat="63.937427521" lon="-21.000617981">
<ele>23.268066</ele>
<time>2012-07-27T17:17:08Z</time>
<speed>0.010000</speed>
<extensions>
<speed>0.0</speed>
<temp>0.00</temp>
<bpm>0</bpm>
<rpm>0.00</rpm>
</extensions>
</trkpt>
<trkpt lat="63.937427521" lon="-21.000617981">
<ele>23.267578</ele>
<time>2012-07-27T17:17:13Z</time>
<speed>0.010000</speed>
<extensions>
<speed>0.0</speed>
<temp>0.00</temp>
<bpm>0</bpm>
<rpm>0.00</rpm>
</extensions>
</trkpt>
<trkpt lat="63.937427521" lon="-21.000617981">
<ele>23.268066</ele>
<time>2012-07-27T17:17:18Z</time>
<extensions>
<speed>0.0</speed>
<temp>0.00</temp>
<bpm>0</bpm>
<rpm>0.00</rpm>
</extensions>
</trkpt>
<trkpt lat="63.937427521" lon="-21.000619888">
<ele>23.278320</ele>
<time>2012-07-27T17:17:23Z</time>
<extensions>
<speed>0.0</speed>
<temp>0.00</temp>
<bpm>0</bpm>
<rpm>0.00</rpm>
</extensions>
</trkpt>
<trkpt lat="63.937427521" lon="-21.000619888">
<ele>23.298340</ele>
<time>2012-07-27T17:17:28Z</time>
<speed>0.020000</speed>
<extensions>
<speed>0.0</speed>
<temp>0.00</temp>
<bpm>0</bpm>
<rpm>0.00</rpm>
</extensions>
</trkpt>
<trkpt lat="63.937427521" lon="-21.000619888">
<ele>23.340820</ele>
<time>2012-07-27T17:17:33Z</time>
<speed>0.020000</speed>
<extensions>
<speed>0.0</speed>
<temp>0.00</temp>
<bpm>0</bpm>
<rpm>0.00</rpm>
</extensions>
</trkpt>
<trkpt lat="63.937427521" lon="-21.000621796">
<ele>23.392090</ele>
<time>2012-07-27T17:17:38Z</time>
<speed>0.020000</speed>
<extensions>
<speed>0.0</speed>
<temp>0.00</temp>
<bpm>0</bpm>
<rpm>0.00</rpm>
</extensions>
</trkpt>
<trkpt lat="63.937427521" lon="-21.000623703">
<ele>23.442871</ele>
<time>2012-07-27T17:17:43Z</time>
<speed>0.010000</speed>
<extensions>
<speed>0.0</speed>
<temp>0.00</temp>
<bpm>0</bpm>
<rpm>0.00</rpm>
</extensions>
</trkpt>
<trkpt lat="63.937427521" lon="-21.000625610">
<ele>23.470703</ele>
<time>2012-07-27T17:17:48Z</time>
<speed>0.010000</speed>
<extensions>
<speed>0.0</speed>
<temp>0.00</temp>
<bpm>0</bpm>
<rpm>0.00</rpm>
</extensions>
</trkpt>
<trkpt lat="63.937427521" lon="-21.000625610">
<ele>23.498535</ele>
<time>2012-07-27T17:17:53Z</time>
<speed>0.010000</speed>
<extensions>
<speed>0.0</speed>
<temp>0.00</temp>
<bpm>0</bpm>
<rpm>0.00</rpm>
</extensions>
</trkpt>
<trkpt lat="63.937427521" lon="-21.000627518">
<ele>23.503906</ele>
<time>2012-07-27T17:17:58Z</time>
<speed>0.010000</speed>
<extensions>
<speed>0.0</speed>
<temp>0.00</temp>
<bpm>0</bpm>
<rpm>0.00</rpm>
</extensions>
</trkpt>
<trkpt lat="63.937427521" lon="-21.000627518">
<ele>23.512695</ele>
<time>2012-07-27T17:18:03Z</time>
<extensions>
<speed>0.0</speed>
<temp>0.00</temp>
<bpm>0</bpm>
<rpm>0.00</rpm>
</extensions>
</trkpt>
<trkpt lat="63.937427521" lon="-21.000629425">
<ele>23.528809</ele>
<time>2012-07-27T17:18:08Z</time>
<extensions>
<speed>0.0</speed>
<temp>0.00</temp>
<bpm>0</bpm>
<rpm>0.00</rpm>
</extensions>
</trkpt>
<trkpt lat="63.937427521" lon="-21.000629425">
<ele>23.529297</ele>
<time>2012-07-27T17:18:13Z</time>
<extensions>
<speed>0.0</speed>
<temp>0.00</temp>
<bpm>0</bpm>
<rpm>0.00</rpm>
</extensions>
</trkpt>
<trkpt lat="63.937427521" lon="-21.000629425">
<ele>23.528320</ele>
<time>2012-07-27T17:18:18Z</time>
<extensions>
<speed>0.0</speed>
<temp>0.00</temp>
<bpm>0</bpm>
<rpm>0.00</rpm>
</extensions>
</trkpt>
<trkpt lat="63.937427521" lon="-21.000629425">
<ele>23.533203</ele>
<time>2012-07-27T17:18:23Z</time>
<speed>0.020000</speed>
<extensions>
<speed>0.0</speed>
<temp>0.00</temp>
<bpm>0</bpm>
<rpm>0.00</rpm>
</extensions>
</trkpt>
<trkpt lat="63.937427521" lon="-21.000631332">
<ele>23.534668</ele>
<time>2012-07-27T17:18:28Z</time>
<extensions>
<speed>0.0</speed>
<temp>0.00</temp>
<bpm>0</bpm>
<rpm>0.00</rpm>
</extensions>
</trkpt>
<trkpt lat="63.937427521" lon="-21.000631332">
<ele>23.528320</ele>
<time>2012-07-27T17:18:33Z</time>
<extensions>
<speed>0.0</speed>
<temp>0.00</temp>
<bpm>0</bpm>
<rpm>0.00</rpm>
</extensions>
</trkpt>
<trkpt lat="63.937423706" lon="-21.000631332">
<ele>23.522949</ele>
<time>2012-07-27T17:18:38Z</time>
<extensions>
<speed>0.0</speed>
<temp>0.00</temp>
<bpm>0</bpm>
<rpm>0.00</rpm>
</extensions>
</trkpt>
<trkpt lat="63.937423706" lon="-21.000631332">
<ele>23.526855</ele>
<time>2012-07-27T17:18:43Z</time>
<extensions>
<speed>0.0</speed>
<temp>0.00</temp>
<bpm>0</bpm>
<rpm>0.00</rpm>
</extensions>
</trkpt>
<trkpt lat="63.937423706" lon="-21.000633240">
<ele>23.539551</ele>
<time>2012-07-27T17:18:48Z</time>
<extensions>
<speed>0.0</speed>
<temp>0.00</temp>
<bpm>0</bpm>
<rpm>0.00</rpm>
</extensions>
</trkpt>
<trkpt lat="63.937423706" lon="-21.000633240">
<ele>23.532715</ele>
<time>2012-07-27T17:18:53Z</time>
<speed>0.010000</speed>
<extensions>
<speed>0.0</speed>
<temp>0.00</temp>
<bpm>0</bpm>
<rpm>0.00</rpm>
</extensions>
</trkpt>
<trkpt lat="63.937423706" lon="-21.000633240">
<ele>23.537598</ele>
<time>2012-07-27T17:18:58Z</time>
<extensions>
<speed>0.0</speed>
<temp>0.00</temp>
<bpm>0</bpm>
<rpm>0.00</rpm>
</extensions>
</trkpt>
<trkpt lat="63.937423706" lon="-21.000635147">
<ele>23.596680</ele>
<time>2012-07-27T17:19:03Z</time>
<speed>0.030000</speed>
<extensions>
<speed>0.0</speed>
<temp>0.00</temp>
<bpm>0</bpm>
<rpm>0.00</rpm>
</extensions>
</trkpt>
<trkpt lat="63.937423706" lon="-21.000640869">
<ele>23.691406</ele>
<time>2012-07-27T17:19:08Z</time>
<speed>0.010000</speed>
<extensions>
<speed>0.0</speed>
<temp>0.00</temp>
<bpm>0</bpm>
<rpm>0.00</rpm>
</extensions>
</trkpt>
<trkpt lat="63.937423706" lon="-21.000652313">
<ele>23.762207</ele>
<time>2012-07-27T17:19:13Z</time>
<speed>0.030000</speed>
<extensions>
<speed>0.0</speed>
<temp>0.00</temp>
<bpm>0</bpm>
<rpm>0.00</rpm>
</extensions>
</trkpt>
<trkpt lat="63.937423706" lon="-21.000663757">
<ele>23.820801</ele>
<time>2012-07-27T17:19:18Z</time>
<extensions>
<speed>0.0</speed>
<temp>0.00</temp>
<bpm>0</bpm>
<rpm>0.00</rpm>
</extensions>
</trkpt>
<trkpt lat="63.937419891" lon="-21.000667572">
<ele>23.819824</ele>
<time>2012-07-27T17:19:23Z</time>
<speed>0.010000</speed>
<extensions>
<speed>0.0</speed>
<temp>0.00</temp>
<bpm>0</bpm>
<rpm>0.00</rpm>
</extensions>
</trkpt>
<trkpt lat="63.937419891" lon="-21.000669479">
<ele>23.825684</ele>
<time>2012-07-27T17:19:28Z</time>
<extensions>
<speed>0.0</speed>
<temp>0.00</temp>
<bpm>0</bpm>
<rpm>0.00</rpm>
</extensions>
</trkpt>
<trkpt lat="63.937419891" lon="-21.000671387">
<ele>23.840332</ele>
<time>2012-07-27T17:19:33Z</time>
<speed>0.010000</speed>
<extensions>
<speed>0.0</speed>
<temp>0.00</temp>
<bpm>0</bpm>
<rpm>0.00</rpm>
</extensions>
</trkpt>
<trkpt lat="63.937419891" lon="-21.000671387">
<ele>23.860352</ele>
<time>2012-07-27T17:19:38Z</time>
<speed>0.010000</speed>
<extensions>
<speed>0.0</speed>
<temp>0.00</temp>
<bpm>0</bpm>
<rpm>0.00</rpm>
</extensions>
</trkpt>
<trkpt lat="63.937419891" lon="-21.000673294">
<ele>23.871582</ele>
<time>2012-07-27T17:19:43Z</time>
<extensions>
<speed>0.0</speed>
<temp>0.00</temp>
<bpm>0</bpm>
<rpm>0.00</rpm>
</extensions>
</trkpt>
<trkpt lat="63.937419891" lon="-21.000675201">
<ele>23.948242</ele>
<time>2012-07-27T17:19:48Z</time>
<speed>0.020000</speed>
<extensions>
<speed>0.0</speed>
<temp>0.00</temp>
<bpm>0</bpm>
<rpm>0.00</rpm>
</extensions>
</trkpt>
<trkpt lat="63.937419891" lon="-21.000677109">
<ele>23.977539</ele>
<time>2012-07-27T17:19:53Z</time>
<extensions>
<speed>0.0</speed>
<temp>0.00</temp>
<bpm>0</bpm>
<rpm>0.00</rpm>
</extensions>
</trkpt>
<trkpt lat="63.937419891" lon="-21.000677109">
<ele>23.977051</ele>
<time>2012-07-27T17:19:58Z</time>
<extensions>
<speed>0.0</speed>
<temp>0.00</temp>
<bpm>0</bpm>
<rpm>0.00</rpm>
</extensions>
</trkpt>
<trkpt lat="63.937419891" lon="-21.000677109">
<ele>23.971680</ele>
<time>2012-07-27T17:20:03Z</time>
<speed>0.010000</speed>
<extensions>
<speed>0.0</speed>
<temp>0.00</temp>
<bpm>0</bpm>
<rpm>0.00</rpm>
</extensions>
</trkpt>
<trkpt lat="63.937419891" lon="-21.000679016">
<ele>23.967773</ele>
<time>2012-07-27T17:20:08Z</time>
<speed>0.010000</speed>
<extensions>
<speed>0.0</speed>
<temp>0.00</temp>
<bpm>0</bpm>
<rpm>0.00</rpm>
</extensions>
</trkpt>
<trkpt lat="63.937419891" lon="-21.000679016">
<ele>23.970703</ele>
<time>2012-07-27T17:20:13Z</time>
<extensions>
<speed>0.0</speed>
<temp>0.00</temp>
<bpm>0</bpm>
<rpm>0.00</rpm>
</extensions>
</trkpt>
<trkpt lat="63.937419891" lon="-21.000679016">
<ele>23.967773</ele>
<time>2012-07-27T17:20:18Z</time>
<extensions>
<speed>0.0</speed>
<temp>0.00</temp>
<bpm>0</bpm>
<rpm>0.00</rpm>
</extensions>
</trkpt>
<trkpt lat="63.937419891" lon="-21.000679016">
<ele>23.971191</ele>
<time>2012-07-27T17:20:23Z</time>
<extensions>
<speed>0.0</speed>
<temp>0.00</temp>
<bpm>0</bpm>
<rpm>0.00</rpm>
</extensions>
</trkpt>
<trkpt lat="63.937416077" lon="-21.000680923">
<ele>23.993164</ele>
<time>2012-07-27T17:20:28Z</time>
<extensions>
<speed>0.0</speed>
<temp>0.00</temp>
<bpm>0</bpm>
<rpm>0.00</rpm>
</extensions>
</trkpt>
<trkpt lat="63.937416077" lon="-21.000680923">
<ele>24.005859</ele>
<time>2012-07-27T17:20:33Z</time>
<extensions>
<speed>0.0</speed>
<temp>0.00</temp>
<bpm>0</bpm>
<rpm>0.00</rpm>
</extensions>
</trkpt>
<trkpt lat="63.937416077" lon="-21.000680923">
<ele>24.016602</ele>
<time>2012-07-27T17:20:38Z</time>
<extensions>
<speed>0.0</speed>
<temp>0.00</temp>
<bpm>0</bpm>
<rpm>0.00</rpm>
</extensions>
</trkpt>
<trkpt lat="63.937416077" lon="-21.000682831">
<ele>24.023438</ele>
<time>2012-07-27T17:20:43Z</time>
<extensions>
<speed>0.0</speed>
<temp>0.00</temp>
<bpm>0</bpm>
<rpm>0.00</rpm>
</extensions>
</trkpt>
<trkpt lat="63.937416077" lon="-21.000682831">
<ele>24.009277</ele>
<time>2012-07-27T17:20:48Z</time>
<speed>0.010000</speed>
<extensions>
<speed>0.0</speed>
<temp>0.00</temp>
<bpm>0</bpm>
<rpm>0.00</rpm>
</extensions>
</trkpt>
<trkpt lat="63.937416077" lon="-21.000682831">
<ele>23.984375</ele>
<time>2012-07-27T17:20:53Z</time>
<speed>0.010000</speed>
<extensions>
<speed>0.0</speed>
<temp>0.00</temp>
<bpm>0</bpm>
<rpm>0.00</rpm>
</extensions>
</trkpt>
<trkpt lat="63.937416077" lon="-21.000682831">
<ele>23.967285</ele>
<time>2012-07-27T17:20:58Z</time>
<extensions>
<speed>0.0</speed>
<temp>0.00</temp>
<bpm>0</bpm>
<rpm>0.00</rpm>
</extensions>
</trkpt>
<trkpt lat="63.937416077" lon="-21.000682831">
<ele>23.973633</ele>
<time>2012-07-27T17:21:03Z</time>
<extensions>
<speed>0.0</speed>
<temp>0.00</temp>
<bpm>0</bpm>
<rpm>0.00</rpm>
</extensions>
</trkpt>
<trkpt lat="63.937416077" lon="-21.000684738">
<ele>23.994141</ele>
<time>2012-07-27T17:21:08Z</time>
<extensions>
<speed>0.0</speed>
<temp>0.00</temp>
<bpm>0</bpm>
<rpm>0.00</rpm>
</extensions>
</trkpt>
<trkpt lat="63.937416077" lon="-21.000684738">
<ele>23.981445</ele>
<time>2012-07-27T17:21:13Z</time>
<extensions>
<speed>0.0</speed>
<temp>0.00</temp>
<bpm>0</bpm>
<rpm>0.00</rpm>
</extensions>
</trkpt>
<trkpt lat="63.937416077" lon="-21.000684738">
<ele>23.968262</ele>
<time>2012-07-27T17:21:18Z</time>
<extensions>
<speed>0.0</speed>
<temp>0.00</temp>
<bpm>0</bpm>
<rpm>0.00</rpm>
</extensions>
</trkpt>
<trkpt lat="63.937416077" lon="-21.000682831">
<ele>23.958008</ele>
<time>2012-07-27T17:21:23Z</time>
<extensions>
<speed>0.0</speed>
<temp>0.00</temp>
<bpm>0</bpm>
<rpm>0.00</rpm>
</extensions>
</trkpt>
<trkpt lat="63.937416077" lon="-21.000682831">
<ele>23.933594</ele>
<time>2012-07-27T17:21:28Z</time>
<speed>0.010000</speed>
<extensions>
<speed>0.0</speed>
<temp>0.00</temp>
<bpm>0</bpm>
<rpm>0.00</rpm>
</extensions>
</trkpt>
<trkpt lat="63.937416077" lon="-21.000682831">
<ele>23.909180</ele>
<time>2012-07-27T17:21:33Z</time>
<extensions>
<speed>0.0</speed>
<temp>0.00</temp>
<bpm>0</bpm>
<rpm>0.00</rpm>
</extensions>
</trkpt>
<trkpt lat="63.937416077" lon="-21.000682831">
<ele>23.893555</ele>
<time>2012-07-27T17:21:38Z</time>
<extensions>
<speed>0.0</speed>
<temp>0.00</temp>
<bpm>0</bpm>
<rpm>0.00</rpm>
</extensions>
</trkpt>
<trkpt lat="63.937416077" lon="-21.000682831">
<ele>23.906250</ele>
<time>2012-07-27T17:21:43Z</time>
<speed>0.010000</speed>
<extensions>
<speed>0.0</speed>
<temp>0.00</temp>
<bpm>0</bpm>
<rpm>0.00</rpm>
</extensions>
</trkpt>
<trkpt lat="63.937416077" lon="-21.000684738">
<ele>23.926270</ele>
<time>2012-07-27T17:21:48Z</time>
<speed>0.010000</speed>
<extensions>
<speed>0.0</speed>
<temp>0.00</temp>
<bpm>0</bpm>
<rpm>0.00</rpm>
</extensions>
</trkpt>
<trkpt lat="63.937416077" lon="-21.000684738">
<ele>23.939941</ele>
<time>2012-07-27T17:21:53Z</time>
<speed>0.010000</speed>
<extensions>
<speed>0.0</speed>
<temp>0.00</temp>
<bpm>0</bpm>
<rpm>0.00</rpm>
</extensions>
</trkpt>
<trkpt lat="63.937416077" lon="-21.000684738">
<ele>23.944824</ele>
<time>2012-07-27T17:21:58Z</time>
<speed>0.010000</speed>
<extensions>
<speed>0.0</speed>
<temp>0.00</temp>
<bpm>0</bpm>
<rpm>0.00</rpm>
</extensions>
</trkpt>
<trkpt lat="63.937416077" lon="-21.000684738">
<ele>23.943848</ele>
<time>2012-07-27T17:22:03Z</time>
<extensions>
<speed>0.0</speed>
<temp>0.00</temp>
<bpm>0</bpm>
<rpm>0.00</rpm>
</extensions>
</trkpt>
<trkpt lat="63.937416077" lon="-21.000684738">
<ele>23.962891</ele>
<time>2012-07-27T17:22:08Z</time>
<speed>0.010000</speed>
<extensions>
<speed>0.0</speed>
<temp>0.00</temp>
<bpm>0</bpm>
<rpm>0.00</rpm>
</extensions>
</trkpt>
<trkpt lat="63.937416077" lon="-21.000686646">
<ele>23.983398</ele>
<time>2012-07-27T17:22:13Z</time>
<extensions>
<speed>0.0</speed>
<temp>0.00</temp>
<bpm>0</bpm>
<rpm>0.00</rpm>
</extensions>
</trkpt>
<trkpt lat="63.937412262" lon="-21.000686646">
<ele>23.976074</ele>
<time>2012-07-27T17:22:18Z</time>
<speed>0.010000</speed>
<extensions>
<speed>0.0</speed>
<temp>0.00</temp>
<bpm>0</bpm>
<rpm>0.00</rpm>
</extensions>
</trkpt>
<trkpt lat="63.937412262" lon="-21.000688553">
<ele>23.983887</ele>
<time>2012-07-27T17:22:23Z</time>
<speed>0.010000</speed>
<extensions>
<speed>0.0</speed>
<temp>0.00</temp>
<bpm>0</bpm>
<rpm>0.00</rpm>
</extensions>
</trkpt>
<trkpt lat="63.937412262" lon="-21.000688553">
<ele>23.982910</ele>
<time>2012-07-27T17:22:28Z</time>
<extensions>
<speed>0.0</speed>
<temp>0.00</temp>
<bpm>0</bpm>
<rpm>0.00</rpm>
</extensions>
</trkpt>
<trkpt lat="63.937412262" lon="-21.000690460">
<ele>23.992676</ele>
<time>2012-07-27T17:22:33Z</time>
<speed>0.010000</speed>
<extensions>
<speed>0.0</speed>
<temp>0.00</temp>
<bpm>0</bpm>
<rpm>0.00</rpm>
</extensions>
</trkpt>
<trkpt lat="63.937412262" lon="-21.000690460">
<ele>24.006836</ele>
<time>2012-07-27T17:22:38Z</time>
<extensions>
<speed>0.0</speed>
<temp>0.00</temp>
<bpm>0</bpm>
<rpm>0.00</rpm>
</extensions>
</trkpt>
<trkpt lat="63.937412262" lon="-21.000692368">
<ele>24.019043</ele>
<time>2012-07-27T17:22:43Z</time>
<extensions>
<speed>0.0</speed>
<temp>0.00</temp>
<bpm>0</bpm>
<rpm>0.00</rpm>
</extensions>
</trkpt>
<trkpt lat="63.937412262" lon="-21.000692368">
<ele>24.041016</ele>
<time>2012-07-27T17:22:48Z</time>
<extensions>
<speed>0.0</speed>
<temp>0.00</temp>
<bpm>0</bpm>
<rpm>0.00</rpm>
</extensions>
</trkpt>
<trkpt lat="63.937412262" lon="-21.000694275">
<ele>24.045410</ele>
<time>2012-07-27T17:22:53Z</time>
<extensions>
<speed>0.0</speed>
<temp>0.00</temp>
<bpm>0</bpm>
<rpm>0.00</rpm>
</extensions>
</trkpt>
<trkpt lat="63.937412262" lon="-21.000694275">
<ele>24.052246</ele>
<time>2012-07-27T17:22:58Z</time>
<speed>0.010000</speed>
<extensions>
<speed>0.0</speed>
<temp>0.00</temp>
<bpm>0</bpm>
<rpm>0.00</rpm>
</extensions>
</trkpt>
<trkpt lat="63.937412262" lon="-21.000694275">
<ele>24.057617</ele>
<time>2012-07-27T17:23:03Z</time>
<extensions>
<speed>0.0</speed>
<temp>0.00</temp>
<bpm>0</bpm>
<rpm>0.00</rpm>
</extensions>
</trkpt>
<trkpt lat="63.937412262" lon="-21.000694275">
<ele>24.058105</ele>
<time>2012-07-27T17:23:08Z</time>
<extensions>
<speed>0.0</speed>
<temp>0.00</temp>
<bpm>0</bpm>
<rpm>0.00</rpm>
</extensions>
</trkpt>
<trkpt lat="63.937412262" lon="-21.000694275">
<ele>24.053711</ele>
<time>2012-07-27T17:23:13Z</time>
<extensions>
<speed>0.0</speed>
<temp>0.00</temp>
<bpm>0</bpm>
<rpm>0.00</rpm>
</extensions>
</trkpt>
<trkpt lat="63.937412262" lon="-21.000694275">
<ele>24.053223</ele>
<time>2012-07-27T17:23:18Z</time>
<extensions>
<speed>0.0</speed>
<temp>0.00</temp>
<bpm>0</bpm>
<rpm>0.00</rpm>
</extensions>
</trkpt>
<trkpt lat="63.937412262" lon="-21.000696182">
<ele>24.067871</ele>
<time>2012-07-27T17:23:23Z</time>
<extensions>
<speed>0.0</speed>
<temp>0.00</temp>
<bpm>0</bpm>
<rpm>0.00</rpm>
</extensions>
</trkpt>
<trkpt lat="63.937412262" lon="-21.000696182">
<ele>24.077148</ele>
<time>2012-07-27T17:23:28Z</time>
<extensions>
<speed>0.0</speed>
<temp>0.00</temp>
<bpm>0</bpm>
<rpm>0.00</rpm>
</extensions>
</trkpt>
<trkpt lat="63.937412262" lon="-21.000696182">
<ele>24.078125</ele>
<time>2012-07-27T17:23:33Z</time>
<extensions>
<speed>0.0</speed>
<temp>0.00</temp>
<bpm>0</bpm>
<rpm>0.00</rpm>
</extensions>
</trkpt>
<trkpt lat="63.937412262" lon="-21.000698090">
<ele>24.079102</ele>
<time>2012-07-27T17:23:38Z</time>
<extensions>
<speed>0.0</speed>
<temp>0.00</temp>
<bpm>0</bpm>
<rpm>0.00</rpm>
</extensions>
</trkpt>
<trkpt lat="63.937408447" lon="-21.000698090">
<ele>24.090820</ele>
<time>2012-07-27T17:23:43Z</time>
<speed>0.010000</speed>
<extensions>
<speed>0.0</speed>
<temp>0.00</temp>
<bpm>0</bpm>
<rpm>0.00</rpm>
</extensions>
</trkpt>
<trkpt lat="63.937408447" lon="-21.000698090">
<ele>24.092773</ele>
<time>2012-07-27T17:23:48Z</time>
<extensions>
<speed>0.0</speed>
<temp>0.00</temp>
<bpm>0</bpm>
<rpm>0.00</rpm>
</extensions>
</trkpt>
<trkpt lat="63.937408447" lon="-21.000698090">
<ele>24.096680</ele>
<time>2012-07-27T17:23:53Z</time>
<speed>0.040000</speed>
<extensions>
<speed>0.0</speed>
<temp>0.00</temp>
<bpm>0</bpm>
<rpm>0.00</rpm>
</extensions>
</trkpt>
<trkpt lat="63.937408447" lon="-21.000699997">
<ele>24.114258</ele>
<time>2012-07-27T17:23:58Z</time>
<speed>0.010000</speed>
<extensions>
<speed>0.0</speed>
<temp>0.00</temp>
<bpm>0</bpm>
<rpm>0.00</rpm>
</extensions>
</trkpt>
<trkpt lat="63.937408447" lon="-21.000699997">
<ele>24.129395</ele>
<time>2012-07-27T17:24:03Z</time>
<extensions>
<speed>0.0</speed>
<temp>0.00</temp>
<bpm>0</bpm>
<rpm>0.00</rpm>
</extensions>
</trkpt>
<trkpt lat="63.937408447" lon="-21.000699997">
<ele>24.139160</ele>
<time>2012-07-27T17:24:08Z</time>
<speed>0.010000</speed>
<extensions>
<speed>0.0</speed>
<temp>0.00</temp>
<bpm>0</bpm>
<rpm>0.00</rpm>
</extensions>
</trkpt>
<trkpt lat="63.937408447" lon="-21.000699997">
<ele>24.119629</ele>
<time>2012-07-27T17:24:13Z</time>
<speed>0.020000</speed>
<extensions>
<speed>0.0</speed>
<temp>0.00</temp>
<bpm>0</bpm>
<rpm>0.00</rpm>
</extensions>
</trkpt>
<trkpt lat="63.937408447" lon="-21.000701904">
<ele>24.108398</ele>
<time>2012-07-27T17:24:18Z</time>
<speed>0.010000</speed>
<extensions>
<speed>0.0</speed>
<temp>0.00</temp>
<bpm>0</bpm>
<rpm>0.00</rpm>
</extensions>
</trkpt>
<trkpt lat="63.937408447" lon="-21.000701904">
<ele>24.103027</ele>
<time>2012-07-27T17:24:23Z</time>
<speed>0.040000</speed>
<extensions>
<speed>0.0</speed>
<temp>0.00</temp>
<bpm>0</bpm>
<rpm>0.00</rpm>
</extensions>
</trkpt>
<trkpt lat="63.937408447" lon="-21.000701904">
<ele>24.112305</ele>
<time>2012-07-27T17:24:28Z</time>
<speed>0.030000</speed>
<extensions>
<speed>0.0</speed>
<temp>0.00</temp>
<bpm>0</bpm>
<rpm>0.00</rpm>
</extensions>
</trkpt>
<trkpt lat="63.937408447" lon="-21.000699997">
<ele>24.118164</ele>
<time>2012-07-27T17:24:33Z</time>
<speed>0.030000</speed>
<extensions>
<speed>0.0</speed>
<temp>0.00</temp>
<bpm>0</bpm>
<rpm>0.00</rpm>
</extensions>
</trkpt>
<trkpt lat="63.937408447" lon="-21.000699997">
<ele>24.128418</ele>
<time>2012-07-27T17:24:38Z</time>
<extensions>
<speed>0.0</speed>
<temp>0.00</temp>
<bpm>0</bpm>
<rpm>0.00</rpm>
</extensions>
</trkpt>
<trkpt lat="63.937408447" lon="-21.000701904">
<ele>24.155273</ele>
<time>2012-07-27T17:24:43Z</time>
<extensions>
<speed>0.0</speed>
<temp>0.00</temp>
<bpm>0</bpm>
<rpm>0.00</rpm>
</extensions>
</trkpt>
<trkpt lat="63.937408447" lon="-21.000701904">
<ele>24.174805</ele>
<time>2012-07-27T17:24:48Z</time>
<speed>0.020000</speed>
<extensions>
<speed>0.0</speed>
<temp>0.00</temp>
<bpm>0</bpm>
<rpm>0.00</rpm>
</extensions>
</trkpt>
<trkpt lat="63.937408447" lon="-21.000701904">
<ele>24.212891</ele>
<time>2012-07-27T17:24:53Z</time>
<speed>0.070000</speed>
<extensions>
<speed>0.1</speed>
<temp>0.00</temp>
<bpm>0</bpm>
<rpm>0.00</rpm>
</extensions>
</trkpt>
<trkpt lat="63.937404633" lon="-21.000703812">
<ele>24.226074</ele>
<time>2012-07-27T17:24:58Z</time>
<extensions>
<speed>0.0</speed>
<temp>0.00</temp>
<bpm>0</bpm>
<rpm>0.00</rpm>
</extensions>
</trkpt>
<trkpt lat="63.937404633" lon="-21.000703812">
<ele>24.197754</ele>
<time>2012-07-27T17:25:03Z</time>
<speed>0.020000</speed>
<extensions>
<speed>0.0</speed>
<temp>0.00</temp>
<bpm>0</bpm>
<rpm>0.00</rpm>
</extensions>
</trkpt>
<trkpt lat="63.937404633" lon="-21.000705719">
<ele>24.188965</ele>
<time>2012-07-27T17:25:08Z</time>
<extensions>
<speed>0.0</speed>
<temp>0.00</temp>
<bpm>0</bpm>
<rpm>0.00</rpm>
</extensions>
</trkpt>
<trkpt lat="63.937404633" lon="-21.000705719">
<ele>24.193359</ele>
<time>2012-07-27T17:25:13Z</time>
<speed>0.020000</speed>
<extensions>
<speed>0.0</speed>
<temp>0.00</temp>
<bpm>0</bpm>
<rpm>0.00</rpm>
</extensions>
</trkpt>
<trkpt lat="63.937404633" lon="-21.000705719">
<ele>24.202148</ele>
<time>2012-07-27T17:25:18Z</time>
<extensions>
<speed>0.0</speed>
<temp>0.00</temp>
<bpm>0</bpm>
<rpm>0.00</rpm>
</extensions>
</trkpt>
<trkpt lat="63.937404633" lon="-21.000707626">
<ele>24.198730</ele>
<time>2012-07-27T17:25:23Z</time>
<extensions>
<speed>0.0</speed>
<temp>0.00</temp>
<bpm>0</bpm>
<rpm>0.00</rpm>
</extensions>
</trkpt>
<trkpt lat="63.937404633" lon="-21.000707626">
<ele>24.202148</ele>
<time>2012-07-27T17:25:28Z</time>
<extensions>
<speed>0.0</speed>
<temp>0.00</temp>
<bpm>0</bpm>
<rpm>0.00</rpm>
</extensions>
</trkpt>
<trkpt lat="63.937404633" lon="-21.000707626">
<ele>24.206055</ele>
<time>2012-07-27T17:25:33Z</time>
<speed>0.020000</speed>
<extensions>
<speed>0.0</speed>
<temp>0.00</temp>
<bpm>0</bpm>
<rpm>0.00</rpm>
</extensions>
</trkpt>
<trkpt lat="63.937404633" lon="-21.000707626">
<ele>24.212402</ele>
<time>2012-07-27T17:25:38Z</time>
<extensions>
<speed>0.0</speed>
<temp>0.00</temp>
<bpm>0</bpm>
<rpm>0.00</rpm>
</extensions>
</trkpt>
<trkpt lat="63.937404633" lon="-21.000709534">
<ele>24.227051</ele>
<time>2012-07-27T17:25:43Z</time>
<speed>0.010000</speed>
<extensions>
<speed>0.0</speed>
<temp>0.00</temp>
<bpm>0</bpm>
<rpm>0.00</rpm>
</extensions>
</trkpt>
<trkpt lat="63.937404633" lon="-21.000709534">
<ele>24.249023</ele>
<time>2012-07-27T17:25:48Z</time>
<extensions>
<speed>0.0</speed>
<temp>0.00</temp>
<bpm>0</bpm>
<rpm>0.00</rpm>
</extensions>
</trkpt>
<trkpt lat="63.937404633" lon="-21.000711441">
<ele>24.259277</ele>
<time>2012-07-27T17:25:53Z</time>
<speed>0.010000</speed>
<extensions>
<speed>0.0</speed>
<temp>0.00</temp>
<bpm>0</bpm>
<rpm>0.00</rpm>
</extensions>
</trkpt>
<trkpt lat="63.937404633" lon="-21.000711441">
<ele>24.271484</ele>
<time>2012-07-27T17:25:58Z</time>
<extensions>
<speed>0.0</speed>
<temp>0.00</temp>
<bpm>0</bpm>
<rpm>0.00</rpm>
</extensions>
</trkpt>
<trkpt lat="63.937404633" lon="-21.000711441">
<ele>24.276855</ele>
<time>2012-07-27T17:26:03Z</time>
<extensions>
<speed>0.0</speed>
<temp>0.00</temp>
<bpm>0</bpm>
<rpm>0.00</rpm>
</extensions>
</trkpt>
<trkpt lat="63.937404633" lon="-21.000711441">
<ele>24.282715</ele>
<time>2012-07-27T17:26:08Z</time>
<extensions>
<speed>0.0</speed>
<temp>0.00</temp>
<bpm>0</bpm>
<rpm>0.00</rpm>
</extensions>
</trkpt>
<trkpt lat="63.937404633" lon="-21.000711441">
<ele>24.279297</ele>
<time>2012-07-27T17:26:13Z</time>
<extensions>
<speed>0.0</speed>
<temp>0.00</temp>
<bpm>0</bpm>
<rpm>0.00</rpm>
</extensions>
</trkpt>
<trkpt lat="63.937404633" lon="-21.000711441">
<ele>24.275879</ele>
<time>2012-07-27T17:26:18Z</time>
<speed>0.010000</speed>
<extensions>
<speed>0.0</speed>
<temp>0.00</temp>
<bpm>0</bpm>
<rpm>0.00</rpm>
</extensions>
</trkpt>
<trkpt lat="63.937404633" lon="-21.000711441">
<ele>24.284668</ele>
<time>2012-07-27T17:26:23Z</time>
<speed>0.010000</speed>
<extensions>
<speed>0.0</speed>
<temp>0.00</temp>
<bpm>0</bpm>
<rpm>0.00</rpm>
</extensions>
</trkpt>
<trkpt lat="63.937404633" lon="-21.000711441">
<ele>24.293457</ele>
<time>2012-07-27T17:26:28Z</time>
<extensions>
<speed>0.0</speed>
<temp>0.00</temp>
<bpm>0</bpm>
<rpm>0.00</rpm>
</extensions>
</trkpt>
<trkpt lat="63.937404633" lon="-21.000711441">
<ele>24.300293</ele>
<time>2012-07-27T17:26:33Z</time>
<extensions>
<speed>0.0</speed>
<temp>0.00</temp>
<bpm>0</bpm>
<rpm>0.00</rpm>
</extensions>
</trkpt>
<trkpt lat="63.937404633" lon="-21.000711441">
<ele>24.299316</ele>
<time>2012-07-27T17:26:38Z</time>
<speed>0.010000</speed>
<extensions>
<speed>0.0</speed>
<temp>0.00</temp>
<bpm>0</bpm>
<rpm>0.00</rpm>
</extensions>
</trkpt>
<trkpt lat="63.937404633" lon="-21.000711441">
<ele>24.294434</ele>
<time>2012-07-27T17:26:43Z</time>
<extensions>
<speed>0.0</speed>
<temp>0.00</temp>
<bpm>0</bpm>
<rpm>0.00</rpm>
</extensions>
</trkpt>
<trkpt lat="63.937400818" lon="-21.000711441">
<ele>24.302734</ele>
<time>2012-07-27T17:26:48Z</time>
<extensions>
<speed>0.0</speed>
<temp>0.00</temp>
<bpm>0</bpm>
<rpm>0.00</rpm>
</extensions>
</trkpt>
<trkpt lat="63.937400818" lon="-21.000713348">
<ele>24.306641</ele>
<time>2012-07-27T17:26:53Z</time>
<speed>0.010000</speed>
<extensions>
<speed>0.0</speed>
<temp>0.00</temp>
<bpm>0</bpm>
<rpm>0.00</rpm>
</extensions>
</trkpt>
<trkpt lat="63.937400818" lon="-21.000713348">
<ele>24.303711</ele>
<time>2012-07-27T17:26:58Z</time>
<extensions>
<speed>0.0</speed>
<temp>0.00</temp>
<bpm>0</bpm>
<rpm>0.00</rpm>
</extensions>
</trkpt>
<trkpt lat="63.937400818" lon="-21.000713348">
<ele>24.304688</ele>
<time>2012-07-27T17:27:03Z</time>
<speed>0.010000</speed>
<extensions>
<speed>0.0</speed>
<temp>0.00</temp>
<bpm>0</bpm>
<rpm>0.00</rpm>
</extensions>
</trkpt>
<trkpt lat="63.937400818" lon="-21.000713348">
<ele>24.305176</ele>
<time>2012-07-27T17:27:08Z</time>
<extensions>
<speed>0.0</speed>
<temp>0.00</temp>
<bpm>0</bpm>
<rpm>0.00</rpm>
</extensions>
</trkpt>
<trkpt lat="63.937400818" lon="-21.000713348">
<ele>24.307129</ele>
<time>2012-07-27T17:27:13Z</time>
<extensions>
<speed>0.0</speed>
<temp>0.00</temp>
<bpm>0</bpm>
<rpm>0.00</rpm>
</extensions>
</trkpt>
<trkpt lat="63.937400818" lon="-21.000713348">
<ele>24.303711</ele>
<time>2012-07-27T17:27:18Z</time>
<speed>0.010000</speed>
<extensions>
<speed>0.0</speed>
<temp>0.00</temp>
<bpm>0</bpm>
<rpm>0.00</rpm>
</extensions>
</trkpt>
<trkpt lat="63.937400818" lon="-21.000713348">
<ele>24.298340</ele>
<time>2012-07-27T17:27:23Z</time>
<speed>0.010000</speed>
<extensions>
<speed>0.0</speed>
<temp>0.00</temp>
<bpm>0</bpm>
<rpm>0.00</rpm>
</extensions>
</trkpt>
<trkpt lat="63.937400818" lon="-21.000713348">
<ele>24.301270</ele>
<time>2012-07-27T17:27:28Z</time>
<extensions>
<speed>0.0</speed>
<temp>0.00</temp>
<bpm>0</bpm>
<rpm>0.00</rpm>
</extensions>
</trkpt>
<trkpt lat="63.937400818" lon="-21.000713348">
<ele>24.305664</ele>
<time>2012-07-27T17:27:33Z</time>
<extensions>
<speed>0.0</speed>
<temp>0.00</temp>
<bpm>0</bpm>
<rpm>0.00</rpm>
</extensions>
</trkpt>
<trkpt lat="63.937400818" lon="-21.000715256">
<ele>24.313477</ele>
<time>2012-07-27T17:27:38Z</time>
<extensions>
<speed>0.0</speed>
<temp>0.00</temp>
<bpm>0</bpm>
<rpm>0.00</rpm>
</extensions>
</trkpt>
<trkpt lat="63.937400818" lon="-21.000715256">
<ele>24.321289</ele>
<time>2012-07-27T17:27:43Z</time>
<speed>0.010000</speed>
<extensions>
<speed>0.0</speed>
<temp>0.00</temp>
<bpm>0</bpm>
<rpm>0.00</rpm>
</extensions>
</trkpt>
<trkpt lat="63.937400818" lon="-21.000715256">
<ele>24.331543</ele>
<time>2012-07-27T17:27:48Z</time>
<extensions>
<speed>0.0</speed>
<temp>0.00</temp>
<bpm>0</bpm>
<rpm>0.00</rpm>
</extensions>
</trkpt>
<trkpt lat="63.937400818" lon="-21.000715256">
<ele>24.335938</ele>
<time>2012-07-27T17:27:53Z</time>
<extensions>
<speed>0.0</speed>
<temp>0.00</temp>
<bpm>0</bpm>
<rpm>0.00</rpm>
</extensions>
</trkpt>
<trkpt lat="63.937400818" lon="-21.000715256">
<ele>24.342285</ele>
<time>2012-07-27T17:27:58Z</time>
<speed>0.020000</speed>
<extensions>
<speed>0.0</speed>
<temp>0.00</temp>
<bpm>0</bpm>
<rpm>0.00</rpm>
</extensions>
</trkpt>
<trkpt lat="63.937400818" lon="-21.000715256">
<ele>24.354492</ele>
<time>2012-07-27T17:28:03Z</time>
<speed>0.020000</speed>
<extensions>
<speed>0.0</speed>
<temp>0.00</temp>
<bpm>0</bpm>
<rpm>0.00</rpm>
</extensions>
</trkpt>
<trkpt lat="63.937400818" lon="-21.000715256">
<ele>24.371094</ele>
<time>2012-07-27T17:28:08Z</time>
<speed>0.010000</speed>
<extensions>
<speed>0.0</speed>
<temp>0.00</temp>
<bpm>0</bpm>
<rpm>0.00</rpm>
</extensions>
</trkpt>
<trkpt lat="63.937400818" lon="-21.000715256">
<ele>24.377930</ele>
<time>2012-07-27T17:28:13Z</time>
<speed>0.010000</speed>
<extensions>
<speed>0.0</speed>
<temp>0.00</temp>
<bpm>0</bpm>
<rpm>0.00</rpm>
</extensions>
</trkpt>
<trkpt lat="63.937400818" lon="-21.000715256">
<ele>24.382813</ele>
<time>2012-07-27T17:28:18Z</time>
<extensions>
<speed>0.0</speed>
<temp>0.00</temp>
<bpm>0</bpm>
<rpm>0.00</rpm>
</extensions>
</trkpt>
<trkpt lat="63.937400818" lon="-21.000715256">
<ele>24.387695</ele>
<time>2012-07-27T17:28:23Z</time>
<extensions>
<speed>0.0</speed>
<temp>0.00</temp>
<bpm>0</bpm>
<rpm>0.00</rpm>
</extensions>
</trkpt>
<trkpt lat="63.937400818" lon="-21.000715256">
<ele>24.393066</ele>
<time>2012-07-27T17:28:28Z</time>
<speed>0.010000</speed>
<extensions>
<speed>0.0</speed>
<temp>0.00</temp>
<bpm>0</bpm>
<rpm>0.00</rpm>
</extensions>
</trkpt>
<trkpt lat="63.937400818" lon="-21.000715256">
<ele>24.397949</ele>
<time>2012-07-27T17:28:33Z</time>
<extensions>
<speed>0.0</speed>
<temp>0.00</temp>
<bpm>0</bpm>
<rpm>0.00</rpm>
</extensions>
</trkpt>
<trkpt lat="63.937400818" lon="-21.000715256">
<ele>24.397461</ele>
<time>2012-07-27T17:28:38Z</time>
<extensions>
<speed>0.0</speed>
<temp>0.00</temp>
<bpm>0</bpm>
<rpm>0.00</rpm>
</extensions>
</trkpt>
<trkpt lat="63.937400818" lon="-21.000715256">
<ele>24.403809</ele>
<time>2012-07-27T17:28:43Z</time>
<extensions>
<speed>0.0</speed>
<temp>0.00</temp>
<bpm>0</bpm>
<rpm>0.00</rpm>
</extensions>
</trkpt>
<trkpt lat="63.937400818" lon="-21.000715256">
<ele>24.403320</ele>
<time>2012-07-27T17:28:48Z</time>
<speed>0.010000</speed>
<extensions>
<speed>0.0</speed>
<temp>0.00</temp>
<bpm>0</bpm>
<rpm>0.00</rpm>
</extensions>
</trkpt>
<trkpt lat="63.937400818" lon="-21.000715256">
<ele>24.406738</ele>
<time>2012-07-27T17:28:53Z</time>
<speed>0.010000</speed>
<extensions>
<speed>0.0</speed>
<temp>0.00</temp>
<bpm>0</bpm>
<rpm>0.00</rpm>
</extensions>
</trkpt>
<trkpt lat="63.937400818" lon="-21.000715256">
<ele>24.405762</ele>
<time>2012-07-27T17:28:58Z</time>
<extensions>
<speed>0.0</speed>
<temp>0.00</temp>
<bpm>0</bpm>
<rpm>0.00</rpm>
</extensions>
</trkpt>
<trkpt lat="63.937400818" lon="-21.000715256">
<ele>24.407715</ele>
<time>2012-07-27T17:29:03Z</time>
<extensions>
<speed>0.0</speed>
<temp>0.00</temp>
<bpm>0</bpm>
<rpm>0.00</rpm>
</extensions>
</trkpt>
<trkpt lat="63.937400818" lon="-21.000715256">
<ele>24.416016</ele>
<time>2012-07-27T17:29:08Z</time>
<extensions>
<speed>0.0</speed>
<temp>0.00</temp>
<bpm>0</bpm>
<rpm>0.00</rpm>
</extensions>
</trkpt>
<trkpt lat="63.937397003" lon="-21.000715256">
<ele>24.416992</ele>
<time>2012-07-27T17:29:13Z</time>
<extensions>
<speed>0.0</speed>
<temp>0.00</temp>
<bpm>0</bpm>
<rpm>0.00</rpm>
</extensions>
</trkpt>
<trkpt lat="63.937397003" lon="-21.000715256">
<ele>24.413086</ele>
<time>2012-07-27T17:29:18Z</time>
<extensions>
<speed>0.0</speed>
<temp>0.00</temp>
<bpm>0</bpm>
<rpm>0.00</rpm>
</extensions>
</trkpt>
<trkpt lat="63.937397003" lon="-21.000715256">
<ele>24.385742</ele>
<time>2012-07-27T17:29:23Z</time>
<extensions>
<speed>0.0</speed>
<temp>0.00</temp>
<bpm>0</bpm>
<rpm>0.00</rpm>
</extensions>
</trkpt>
<trkpt lat="63.937397003" lon="-21.000715256">
<ele>24.362793</ele>
<time>2012-07-27T17:29:28Z</time>
<extensions>
<speed>0.0</speed>
<temp>0.00</temp>
<bpm>0</bpm>
<rpm>0.00</rpm>
</extensions>
</trkpt>
<trkpt lat="63.937397003" lon="-21.000715256">
<ele>24.334961</ele>
<time>2012-07-27T17:29:33Z</time>
<extensions>
<speed>0.0</speed>
<temp>0.00</temp>
<bpm>0</bpm>
<rpm>0.00</rpm>
</extensions>
</trkpt>
<trkpt lat="63.937397003" lon="-21.000715256">
<ele>24.315918</ele>
<time>2012-07-27T17:29:38Z</time>
<speed>0.010000</speed>
<extensions>
<speed>0.0</speed>
<temp>0.00</temp>
<bpm>0</bpm>
<rpm>0.00</rpm>
</extensions>
</trkpt>
<trkpt lat="63.937397003" lon="-21.000715256">
<ele>24.292480</ele>
<time>2012-07-27T17:29:43Z</time>
<extensions>
<speed>0.0</speed>
<temp>0.00</temp>
<bpm>0</bpm>
<rpm>0.00</rpm>
</extensions>
</trkpt>
<trkpt lat="63.937397003" lon="-21.000713348">
<ele>24.267578</ele>
<time>2012-07-27T17:29:48Z</time>
<extensions>
<speed>0.0</speed>
<temp>0.00</temp>
<bpm>0</bpm>
<rpm>0.00</rpm>
</extensions>
</trkpt>
<trkpt lat="63.937397003" lon="-21.000713348">
<ele>24.243652</ele>
<time>2012-07-27T17:29:53Z</time>
<speed>0.010000</speed>
<extensions>
<speed>0.0</speed>
<temp>0.00</temp>
<bpm>0</bpm>
<rpm>0.00</rpm>
</extensions>
</trkpt>
<trkpt lat="63.937397003" lon="-21.000713348">
<ele>24.235352</ele>
<time>2012-07-27T17:29:58Z</time>
<speed>0.010000</speed>
<extensions>
<speed>0.0</speed>
<temp>0.00</temp>
<bpm>0</bpm>
<rpm>0.00</rpm>
</extensions>
</trkpt>
<trkpt lat="63.937397003" lon="-21.000713348">
<ele>24.221680</ele>
<time>2012-07-27T17:30:03Z</time>
<extensions>
<speed>0.0</speed>
<temp>0.00</temp>
<bpm>0</bpm>
<rpm>0.00</rpm>
</extensions>
</trkpt>
<trkpt lat="63.937397003" lon="-21.000713348">
<ele>24.206543</ele>
<time>2012-07-27T17:30:08Z</time>
<extensions>
<speed>0.0</speed>
<temp>0.00</temp>
<bpm>0</bpm>
<rpm>0.00</rpm>
</extensions>
</trkpt>
<trkpt lat="63.937397003" lon="-21.000713348">
<ele>24.186035</ele>
<time>2012-07-27T17:30:13Z</time>
<extensions>
<speed>0.0</speed>
<temp>0.00</temp>
<bpm>0</bpm>
<rpm>0.00</rpm>
</extensions>
</trkpt>
<trkpt lat="63.937397003" lon="-21.000715256">
<ele>24.188477</ele>
<time>2012-07-27T17:30:18Z</time>
<extensions>
<speed>0.0</speed>
<temp>0.00</temp>
<bpm>0</bpm>
<rpm>0.00</rpm>
</extensions>
</trkpt>
<trkpt lat="63.937397003" lon="-21.000715256">
<ele>24.196289</ele>
<time>2012-07-27T17:30:23Z</time>
<extensions>
<speed>0.0</speed>
<temp>0.00</temp>
<bpm>0</bpm>
<rpm>0.00</rpm>
</extensions>
</trkpt>
<trkpt lat="63.937397003" lon="-21.000715256">
<ele>24.211914</ele>
<time>2012-07-27T17:30:28Z</time>
<speed>0.010000</speed>
<extensions>
<speed>0.0</speed>
<temp>0.00</temp>
<bpm>0</bpm>
<rpm>0.00</rpm>
</extensions>
</trkpt>
<trkpt lat="63.937397003" lon="-21.000715256">
<ele>24.203613</ele>
<time>2012-07-27T17:30:33Z</time>
<extensions>
<speed>0.0</speed>
<temp>0.00</temp>
<bpm>0</bpm>
<rpm>0.00</rpm>
</extensions>
</trkpt>
<trkpt lat="63.937397003" lon="-21.000715256">
<ele>24.198242</ele>
<time>2012-07-27T17:30:38Z</time>
<speed>0.010000</speed>
<extensions>
<speed>0.0</speed>
<temp>0.00</temp>
<bpm>0</bpm>
<rpm>0.00</rpm>
</extensions>
</trkpt>
<trkpt lat="63.937397003" lon="-21.000715256">
<ele>24.196777</ele>
<time>2012-07-27T17:30:43Z</time>
<extensions>
<speed>0.0</speed>
<temp>0.00</temp>
<bpm>0</bpm>
<rpm>0.00</rpm>
</extensions>
</trkpt>
<trkpt lat="63.937397003" lon="-21.000717163">
<ele>24.191406</ele>
<time>2012-07-27T17:30:48Z</time>
<speed>0.010000</speed>
<extensions>
<speed>0.0</speed>
<temp>0.00</temp>
<bpm>0</bpm>
<rpm>0.00</rpm>
</extensions>
</trkpt>
<trkpt lat="63.937397003" lon="-21.000717163">
<ele>24.181641</ele>
<time>2012-07-27T17:30:53Z</time>
<extensions>
<speed>0.0</speed>
<temp>0.00</temp>
<bpm>0</bpm>
<rpm>0.00</rpm>
</extensions>
</trkpt>
<trkpt lat="63.937397003" lon="-21.000717163">
<ele>24.169922</ele>
<time>2012-07-27T17:30:58Z</time>
<extensions>
<speed>0.0</speed>
<temp>0.00</temp>
<bpm>0</bpm>
<rpm>0.00</rpm>
</extensions>
</trkpt>
<trkpt lat="63.937397003" lon="-21.000717163">
<ele>24.159668</ele>
<time>2012-07-27T17:31:03Z</time>
<speed>0.010000</speed>
<extensions>
<speed>0.0</speed>
<temp>0.00</temp>
<bpm>0</bpm>
<rpm>0.00</rpm>
</extensions>
</trkpt>
<trkpt lat="63.937397003" lon="-21.000717163">
<ele>24.169922</ele>
<time>2012-07-27T17:31:08Z</time>
<extensions>
<speed>0.0</speed>
<temp>0.00</temp>
<bpm>0</bpm>
<rpm>0.00</rpm>
</extensions>
</trkpt>
<trkpt lat="63.937397003" lon="-21.000717163">
<ele>24.160156</ele>
<time>2012-07-27T17:31:13Z</time>
<extensions>
<speed>0.0</speed>
<temp>0.00</temp>
<bpm>0</bpm>
<rpm>0.00</rpm>
</extensions>
</trkpt>
<trkpt lat="63.937397003" lon="-21.000717163">
<ele>24.141602</ele>
<time>2012-07-27T17:31:18Z</time>
<speed>0.010000</speed>
<extensions>
<speed>0.0</speed>
<temp>0.00</temp>
<bpm>0</bpm>
<rpm>0.00</rpm>
</extensions>
</trkpt>
<trkpt lat="63.937397003" lon="-21.000717163">
<ele>24.131348</ele>
<time>2012-07-27T17:31:23Z</time>
<speed>0.010000</speed>
<extensions>
<speed>0.0</speed>
<temp>0.00</temp>
<bpm>0</bpm>
<rpm>0.00</rpm>
</extensions>
</trkpt>
<trkpt lat="63.937397003" lon="-21.000717163">
<ele>24.122559</ele>
<time>2012-07-27T17:31:28Z</time>
<speed>0.010000</speed>
<extensions>
<speed>0.0</speed>
<temp>0.00</temp>
<bpm>0</bpm>
<rpm>0.00</rpm>
</extensions>
</trkpt>
<trkpt lat="63.937397003" lon="-21.000717163">
<ele>24.111328</ele>
<time>2012-07-27T17:31:33Z</time>
<extensions>
<speed>0.0</speed>
<temp>0.00</temp>
<bpm>0</bpm>
<rpm>0.00</rpm>
</extensions>
</trkpt>
<trkpt lat="63.937397003" lon="-21.000717163">
<ele>24.085938</ele>
<time>2012-07-27T17:31:38Z</time>
<extensions>
<speed>0.0</speed>
<temp>0.00</temp>
<bpm>0</bpm>
<rpm>0.00</rpm>
</extensions>
</trkpt>
<trkpt lat="63.937397003" lon="-21.000717163">
<ele>24.062988</ele>
<time>2012-07-27T17:31:43Z</time>
<extensions>
<speed>0.0</speed>
<temp>0.00</temp>
<bpm>0</bpm>
<rpm>0.00</rpm>
</extensions>
</trkpt>
<trkpt lat="63.937397003" lon="-21.000715256">
<ele>24.041016</ele>
<time>2012-07-27T17:31:48Z</time>
<extensions>
<speed>0.0</speed>
<temp>0.00</temp>
<bpm>0</bpm>
<rpm>0.00</rpm>
</extensions>
</trkpt>
<trkpt lat="63.937397003" lon="-21.000715256">
<ele>24.024414</ele>
<time>2012-07-27T17:31:53Z</time>
<extensions>
<speed>0.0</speed>
<temp>0.00</temp>
<bpm>0</bpm>
<rpm>0.00</rpm>
</extensions>
</trkpt>
<trkpt lat="63.937397003" lon="-21.000715256">
<ele>24.012207</ele>
<time>2012-07-27T17:31:58Z</time>
<extensions>
<speed>0.0</speed>
<temp>0.00</temp>
<bpm>0</bpm>
<rpm>0.00</rpm>
</extensions>
</trkpt>
<trkpt lat="63.937397003" lon="-21.000715256">
<ele>23.991211</ele>
<time>2012-07-27T17:32:03Z</time>
<speed>0.010000</speed>
<extensions>
<speed>0.0</speed>
<temp>0.00</temp>
<bpm>0</bpm>
<rpm>0.00</rpm>
</extensions>
</trkpt>
<trkpt lat="63.937397003" lon="-21.000715256">
<ele>23.993652</ele>
<time>2012-07-27T17:32:08Z</time>
<extensions>
<speed>0.0</speed>
<temp>0.00</temp>
<bpm>0</bpm>
<rpm>0.00</rpm>
</extensions>
</trkpt>
<trkpt lat="63.937393188" lon="-21.000715256">
<ele>24.007813</ele>
<time>2012-07-27T17:32:13Z</time>
<extensions>
<speed>0.0</speed>
<temp>0.00</temp>
<bpm>0</bpm>
<rpm>0.00</rpm>
</extensions>
</trkpt>
<trkpt lat="63.937393188" lon="-21.000715256">
<ele>24.026855</ele>
<time>2012-07-27T17:32:18Z</time>
<extensions>
<speed>0.0</speed>
<temp>0.00</temp>
<bpm>0</bpm>
<rpm>0.00</rpm>
</extensions>
</trkpt>
<trkpt lat="63.937393188" lon="-21.000717163">
<ele>24.039063</ele>
<time>2012-07-27T17:32:23Z</time>
<extensions>
<speed>0.0</speed>
<temp>0.00</temp>
<bpm>0</bpm>
<rpm>0.00</rpm>
</extensions>
</trkpt>
<trkpt lat="63.937393188" lon="-21.000717163">
<ele>24.069336</ele>
<time>2012-07-27T17:32:28Z</time>
<speed>0.010000</speed>
<extensions>
<speed>0.0</speed>
<temp>0.00</temp>
<bpm>0</bpm>
<rpm>0.00</rpm>
</extensions>
</trkpt>
<trkpt lat="63.937393188" lon="-21.000719070">
<ele>24.100098</ele>
<time>2012-07-27T17:32:33Z</time>
<extensions>
<speed>0.0</speed>
<temp>0.00</temp>
<bpm>0</bpm>
<rpm>0.00</rpm>
</extensions>
</trkpt>
<trkpt lat="63.937393188" lon="-21.000719070">
<ele>24.109375</ele>
<time>2012-07-27T17:32:38Z</time>
<speed>0.010000</speed>
<extensions>
<speed>0.0</speed>
<temp>0.00</temp>
<bpm>0</bpm>
<rpm>0.00</rpm>
</extensions>
</trkpt>
<trkpt lat="63.937393188" lon="-21.000719070">
<ele>24.128418</ele>
<time>2012-07-27T17:32:43Z</time>
<extensions>
<speed>0.0</speed>
<temp>0.00</temp>
<bpm>0</bpm>
<rpm>0.00</rpm>
</extensions>
</trkpt>
<trkpt lat="63.937393188" lon="-21.000719070">
<ele>24.145996</ele>
<time>2012-07-27T17:32:48Z</time>
<speed>0.010000</speed>
<extensions>
<speed>0.0</speed>
<temp>0.00</temp>
<bpm>0</bpm>
<rpm>0.00</rpm>
</extensions>
</trkpt>
<trkpt lat="63.937393188" lon="-21.000720978">
<ele>24.171387</ele>
<time>2012-07-27T17:32:53Z</time>
<speed>0.010000</speed>
<extensions>
<speed>0.0</speed>
<temp>0.00</temp>
<bpm>0</bpm>
<rpm>0.00</rpm>
</extensions>
</trkpt>
<trkpt lat="63.937393188" lon="-21.000720978">
<ele>24.190430</ele>
<time>2012-07-27T17:32:58Z</time>
<extensions>
<speed>0.0</speed>
<temp>0.00</temp>
<bpm>0</bpm>
<rpm>0.00</rpm>
</extensions>
</trkpt>
<trkpt lat="63.937393188" lon="-21.000720978">
<ele>24.213867</ele>
<time>2012-07-27T17:33:03Z</time>
<speed>0.010000</speed>
<extensions>
<speed>0.0</speed>
<temp>0.00</temp>
<bpm>0</bpm>
<rpm>0.00</rpm>
</extensions>
</trkpt>
<trkpt lat="63.937393188" lon="-21.000722885">
<ele>24.231445</ele>
<time>2012-07-27T17:33:08Z</time>
<speed>0.010000</speed>
<extensions>
<speed>0.0</speed>
<temp>0.00</temp>
<bpm>0</bpm>
<rpm>0.00</rpm>
</extensions>
</trkpt>
<trkpt lat="63.937393188" lon="-21.000722885">
<ele>24.261719</ele>
<time>2012-07-27T17:33:13Z</time>
<speed>0.010000</speed>
<extensions>
<speed>0.0</speed>
<temp>0.00</temp>
<bpm>0</bpm>
<rpm>0.00</rpm>
</extensions>
</trkpt>
<trkpt lat="63.937393188" lon="-21.000722885">
<ele>24.274414</ele>
<time>2012-07-27T17:33:18Z</time>
<extensions>
<speed>0.0</speed>
<temp>0.00</temp>
<bpm>0</bpm>
<rpm>0.00</rpm>
</extensions>
</trkpt>
<trkpt lat="63.937393188" lon="-21.000724792">
<ele>24.279785</ele>
<time>2012-07-27T17:33:23Z</time>
<extensions>
<speed>0.0</speed>
<temp>0.00</temp>
<bpm>0</bpm>
<rpm>0.00</rpm>
</extensions>
</trkpt>
<trkpt lat="63.937393188" lon="-21.000724792">
<ele>24.290527</ele>
<time>2012-07-27T17:33:28Z</time>
<extensions>
<speed>0.0</speed>
<temp>0.00</temp>
<bpm>0</bpm>
<rpm>0.00</rpm>
</extensions>
</trkpt>
<trkpt lat="63.937393188" lon="-21.000724792">
<ele>24.339844</ele>
<time>2012-07-27T17:33:33Z</time>
<extensions>
<speed>0.0</speed>
<temp>0.00</temp>
<bpm>0</bpm>
<rpm>0.00</rpm>
</extensions>
</trkpt>
<trkpt lat="63.937393188" lon="-21.000726700">
<ele>24.361816</ele>
<time>2012-07-27T17:33:38Z</time>
<extensions>
<speed>0.0</speed>
<temp>0.00</temp>
<bpm>0</bpm>
<rpm>0.00</rpm>
</extensions>
</trkpt>
<trkpt lat="63.937393188" lon="-21.000726700">
<ele>24.362305</ele>
<time>2012-07-27T17:33:43Z</time>
<extensions>
<speed>0.0</speed>
<temp>0.00</temp>
<bpm>0</bpm>
<rpm>0.00</rpm>
</extensions>
</trkpt>
<trkpt lat="63.937393188" lon="-21.000726700">
<ele>24.357910</ele>
<time>2012-07-27T17:33:48Z</time>
<extensions>
<speed>0.0</speed>
<temp>0.00</temp>
<bpm>0</bpm>
<rpm>0.00</rpm>
</extensions>
</trkpt>
<trkpt lat="63.937393188" lon="-21.000726700">
<ele>24.351074</ele>
<time>2012-07-27T17:33:53Z</time>
<extensions>
<speed>0.0</speed>
<temp>0.00</temp>
<bpm>0</bpm>
<rpm>0.00</rpm>
</extensions>
</trkpt>
<trkpt lat="63.937393188" lon="-21.000726700">
<ele>24.396973</ele>
<time>2012-07-27T17:33:58Z</time>
<speed>0.010000</speed>
<extensions>
<speed>0.0</speed>
<temp>0.00</temp>
<bpm>0</bpm>
<rpm>0.00</rpm>
</extensions>
</trkpt>
<trkpt lat="63.937393188" lon="-21.000728607">
<ele>24.446289</ele>
<time>2012-07-27T17:34:03Z</time>
<extensions>
<speed>0.0</speed>
<temp>0.00</temp>
<bpm>0</bpm>
<rpm>0.00</rpm>
</extensions>
</trkpt>
<trkpt lat="63.937393188" lon="-21.000730515">
<ele>24.522949</ele>
<time>2012-07-27T17:34:08Z</time>
<speed>0.010000</speed>
<extensions>
<speed>0.0</speed>
<temp>0.00</temp>
<bpm>0</bpm>
<rpm>0.00</rpm>
</extensions>
</trkpt>
<trkpt lat="63.937393188" lon="-21.000732422">
<ele>24.603027</ele>
<time>2012-07-27T17:34:13Z</time>
<extensions>
<speed>0.0</speed>
<temp>0.00</temp>
<bpm>0</bpm>
<rpm>0.00</rpm>
</extensions>
</trkpt>
<trkpt lat="63.937389374" lon="-21.000732422">
<ele>24.663574</ele>
<time>2012-07-27T17:34:18Z</time>
<speed>0.020000</speed>
<extensions>
<speed>0.0</speed>
<temp>0.00</temp>
<bpm>0</bpm>
<rpm>0.00</rpm>
</extensions>
</trkpt>
<trkpt lat="63.937389374" lon="-21.000732422">
<ele>24.683594</ele>
<time>2012-07-27T17:34:23Z</time>
<speed>0.010000</speed>
<extensions>
<speed>0.0</speed>
<temp>0.00</temp>
<bpm>0</bpm>
<rpm>0.00</rpm>
</extensions>
</trkpt>
<trkpt lat="63.937389374" lon="-21.000732422">
<ele>24.679688</ele>
<time>2012-07-27T17:34:28Z</time>
<extensions>
<speed>0.0</speed>
<temp>0.00</temp>
<bpm>0</bpm>
<rpm>0.00</rpm>
</extensions>
</trkpt>
<trkpt lat="63.937389374" lon="-21.000734329">
<ele>24.669434</ele>
<time>2012-07-27T17:34:33Z</time>
<speed>0.020000</speed>
<extensions>
<speed>0.0</speed>
<temp>0.00</temp>
<bpm>0</bpm>
<rpm>0.00</rpm>
</extensions>
</trkpt>
<trkpt lat="63.937389374" lon="-21.000732422">
<ele>24.635254</ele>
<time>2012-07-27T17:34:38Z</time>
<extensions>
<speed>0.0</speed>
<temp>0.00</temp>
<bpm>0</bpm>
<rpm>0.00</rpm>
</extensions>
</trkpt>
<trkpt lat="63.937389374" lon="-21.000732422">
<ele>24.598633</ele>
<time>2012-07-27T17:34:43Z</time>
<extensions>
<speed>0.0</speed>
<temp>0.00</temp>
<bpm>0</bpm>
<rpm>0.00</rpm>
</extensions>
</trkpt>
<trkpt lat="63.937389374" lon="-21.000732422">
<ele>24.569824</ele>
<time>2012-07-27T17:34:48Z</time>
<speed>0.010000</speed>
<extensions>
<speed>0.0</speed>
<temp>0.00</temp>
<bpm>0</bpm>
<rpm>0.00</rpm>
</extensions>
</trkpt>
<trkpt lat="63.937389374" lon="-21.000732422">
<ele>24.511230</ele>
<time>2012-07-27T17:34:53Z</time>
<speed>0.010000</speed>
<extensions>
<speed>0.0</speed>
<temp>0.00</temp>
<bpm>0</bpm>
<rpm>0.00</rpm>
</extensions>
</trkpt>
<trkpt lat="63.937389374" lon="-21.000730515">
<ele>24.465820</ele>
<time>2012-07-27T17:34:58Z</time>
<speed>0.010000</speed>
<extensions>
<speed>0.0</speed>
<temp>0.00</temp>
<bpm>0</bpm>
<rpm>0.00</rpm>
</extensions>
</trkpt>
<trkpt lat="63.937389374" lon="-21.000730515">
<ele>24.439941</ele>
<time>2012-07-27T17:35:03Z</time>
<speed>0.030000</speed>
<extensions>
<speed>0.0</speed>
<temp>0.00</temp>
<bpm>0</bpm>
<rpm>0.00</rpm>
</extensions>
</trkpt>
<trkpt lat="63.937389374" lon="-21.000728607">
<ele>24.420410</ele>
<time>2012-07-27T17:35:08Z</time>
<extensions>
<speed>0.0</speed>
<temp>0.00</temp>
<bpm>0</bpm>
<rpm>0.00</rpm>
</extensions>
</trkpt>
<trkpt lat="63.937389374" lon="-21.000728607">
<ele>24.419434</ele>
<time>2012-07-27T17:35:13Z</time>
<extensions>
<speed>0.0</speed>
<temp>0.00</temp>
<bpm>0</bpm>
<rpm>0.00</rpm>
</extensions>
</trkpt>
<trkpt lat="63.937389374" lon="-21.000728607">
<ele>24.416016</ele>
<time>2012-07-27T17:35:18Z</time>
<speed>0.010000</speed>
<extensions>
<speed>0.0</speed>
<temp>0.00</temp>
<bpm>0</bpm>
<rpm>0.00</rpm>
</extensions>
</trkpt>
<trkpt lat="63.937389374" lon="-21.000728607">
<ele>24.434570</ele>
<time>2012-07-27T17:35:23Z</time>
<extensions>
<speed>0.0</speed>
<temp>0.00</temp>
<bpm>0</bpm>
<rpm>0.00</rpm>
</extensions>
</trkpt>
<trkpt lat="63.937389374" lon="-21.000730515">
<ele>24.486328</ele>
<time>2012-07-27T17:35:28Z</time>
<speed>0.020000</speed>
<extensions>
<speed>0.0</speed>
<temp>0.00</temp>
<bpm>0</bpm>
<rpm>0.00</rpm>
</extensions>
</trkpt>
<trkpt lat="63.937389374" lon="-21.000730515">
<ele>24.522461</ele>
<time>2012-07-27T17:35:33Z</time>
<speed>0.020000</speed>
<extensions>
<speed>0.0</speed>
<temp>0.00</temp>
<bpm>0</bpm>
<rpm>0.00</rpm>
</extensions>
</trkpt>
<trkpt lat="63.937389374" lon="-21.000730515">
<ele>24.584961</ele>
<time>2012-07-27T17:35:38Z</time>
<extensions>
<speed>0.0</speed>
<temp>0.00</temp>
<bpm>0</bpm>
<rpm>0.00</rpm>
</extensions>
</trkpt>
<trkpt lat="63.937389374" lon="-21.000732422">
<ele>24.645996</ele>
<time>2012-07-27T17:35:43Z</time>
<speed>0.020000</speed>
<extensions>
<speed>0.0</speed>
<temp>0.00</temp>
<bpm>0</bpm>
<rpm>0.00</rpm>
</extensions>
</trkpt>
<trkpt lat="63.937389374" lon="-21.000732422">
<ele>24.713867</ele>
<time>2012-07-27T17:35:48Z</time>
<speed>0.010000</speed>
<extensions>
<speed>0.0</speed>
<temp>0.00</temp>
<bpm>0</bpm>
<rpm>0.00</rpm>
</extensions>
</trkpt>
<trkpt lat="63.937389374" lon="-21.000736237">
<ele>24.761719</ele>
<time>2012-07-27T17:35:53Z</time>
<extensions>
<speed>0.0</speed>
<temp>0.00</temp>
<bpm>0</bpm>
<rpm>0.00</rpm>
</extensions>
</trkpt>
<trkpt lat="63.937389374" lon="-21.000740051">
<ele>24.803223</ele>
<time>2012-07-27T17:35:58Z</time>
<speed>0.020000</speed>
<extensions>
<speed>0.0</speed>
<temp>0.00</temp>
<bpm>0</bpm>
<rpm>0.00</rpm>
</extensions>
</trkpt>
<trkpt lat="63.937389374" lon="-21.000741959">
<ele>24.831055</ele>
<time>2012-07-27T17:36:03Z</time>
<speed>0.020000</speed>
<extensions>
<speed>0.0</speed>
<temp>0.00</temp>
<bpm>0</bpm>
<rpm>0.00</rpm>
</extensions>
</trkpt>
<trkpt lat="63.937385559" lon="-21.000743866">
<ele>24.884766</ele>
<time>2012-07-27T17:36:08Z</time>
<speed>0.010000</speed>
<extensions>
<speed>0.0</speed>
<temp>0.00</temp>
<bpm>0</bpm>
<rpm>0.00</rpm>
</extensions>
</trkpt>
<trkpt lat="63.937385559" lon="-21.000745773">
<ele>25.020020</ele>
<time>2012-07-27T17:36:13Z</time>
<speed>0.020000</speed>
<extensions>
<speed>0.0</speed>
<temp>0.00</temp>
<bpm>0</bpm>
<rpm>0.00</rpm>
</extensions>
</trkpt>
<trkpt lat="63.937385559" lon="-21.000751495">
<ele>25.298340</ele>
<time>2012-07-27T17:36:18Z</time>
<speed>0.100000</speed>
<extensions>
<speed>0.1</speed>
<temp>0.00</temp>
<bpm>0</bpm>
<rpm>0.00</rpm>
</extensions>
</trkpt>
<trkpt lat="63.937385559" lon="-21.000761032">
<ele>25.705078</ele>
<time>2012-07-27T17:36:23Z</time>
<speed>0.040000</speed>
<extensions>
<speed>0.0</speed>
<temp>0.00</temp>
<bpm>0</bpm>
<rpm>0.00</rpm>
</extensions>
</trkpt>
<trkpt lat="63.937385559" lon="-21.000762939">
<ele>26.098633</ele>
<time>2012-07-27T17:36:28Z</time>
<extensions>
<speed>0.0</speed>
<temp>0.00</temp>
<bpm>0</bpm>
<rpm>0.00</rpm>
</extensions>
</trkpt>
<trkpt lat="63.937385559" lon="-21.000762939">
<ele>26.514648</ele>
<time>2012-07-27T17:36:33Z</time>
<extensions>
<speed>0.0</speed>
<temp>0.00</temp>
<bpm>0</bpm>
<rpm>0.00</rpm>
</extensions>
</trkpt>
<trkpt lat="63.937385559" lon="-21.000762939">
<ele>26.951172</ele>
<time>2012-07-27T17:36:38Z</time>
<speed>0.010000</speed>
<extensions>
<speed>0.0</speed>
<temp>0.00</temp>
<bpm>0</bpm>
<rpm>0.00</rpm>
</extensions>
</trkpt>
<trkpt lat="63.937385559" lon="-21.000766754">
<ele>27.415527</ele>
<time>2012-07-27T17:36:43Z</time>
<speed>0.050000</speed>
<extensions>
<speed>0.1</speed>
<temp>0.00</temp>
<bpm>0</bpm>
<rpm>0.00</rpm>
</extensions>
</trkpt>
<trkpt lat="63.937385559" lon="-21.000772476">
<ele>27.919434</ele>
<time>2012-07-27T17:36:48Z</time>
<speed>0.040000</speed>
<extensions>
<speed>0.0</speed>
<temp>0.00</temp>
<bpm>0</bpm>
<rpm>0.00</rpm>
</extensions>
</trkpt>
<trkpt lat="63.937385559" lon="-21.000782013">
<ele>28.458496</ele>
<time>2012-07-27T17:36:53Z</time>
<speed>0.080000</speed>
<extensions>
<speed>0.1</speed>
<temp>0.00</temp>
<bpm>0</bpm>
<rpm>0.00</rpm>
</extensions>
</trkpt>
<trkpt lat="63.937385559" lon="-21.000793457">
<ele>29.027832</ele>
<time>2012-07-27T17:36:58Z</time>
<speed>0.080000</speed>
<extensions>
<speed>0.1</speed>
<temp>0.00</temp>
<bpm>0</bpm>
<rpm>0.00</rpm>
</extensions>
</trkpt>
<trkpt lat="63.937385559" lon="-21.000801086">
<ele>29.604980</ele>
<time>2012-07-27T17:37:03Z</time>
<speed>0.070000</speed>
<extensions>
<speed>0.1</speed>
<temp>0.00</temp>
<bpm>0</bpm>
<rpm>0.00</rpm>
</extensions>
</trkpt>
<trkpt lat="63.937385559" lon="-21.000810623">
<ele>30.231445</ele>
<time>2012-07-27T17:37:08Z</time>
<speed>0.090000</speed>
<extensions>
<speed>0.1</speed>
<temp>0.00</temp>
<bpm>0</bpm>
<rpm>0.00</rpm>
</extensions>
</trkpt>
<trkpt lat="63.937381744" lon="-21.000818253">
<ele>30.910645</ele>
<time>2012-07-27T17:37:13Z</time>
<speed>0.070000</speed>
<extensions>
<speed>0.1</speed>
<temp>0.00</temp>
<bpm>0</bpm>
<rpm>0.00</rpm>
</extensions>
</trkpt>
<trkpt lat="63.937381744" lon="-21.000827789">
<ele>31.641602</ele>
<time>2012-07-27T17:37:18Z</time>
<speed>0.110000</speed>
<extensions>
<speed>0.1</speed>
<temp>0.00</temp>
<bpm>0</bpm>
<rpm>0.00</rpm>
</extensions>
</trkpt>
<trkpt lat="63.937381744" lon="-21.000839233">
<ele>32.352539</ele>
<time>2012-07-27T17:37:23Z</time>
<speed>0.090000</speed>
<extensions>
<speed>0.1</speed>
<temp>0.00</temp>
<bpm>0</bpm>
<rpm>0.00</rpm>
</extensions>
</trkpt>
<trkpt lat="63.937381744" lon="-21.000848770">
<ele>32.989258</ele>
<time>2012-07-27T17:37:28Z</time>
<speed>0.080000</speed>
<extensions>
<speed>0.1</speed>
<temp>0.00</temp>
<bpm>0</bpm>
<rpm>0.00</rpm>
</extensions>
</trkpt>
<trkpt lat="63.937381744" lon="-21.000856400">
<ele>33.602539</ele>
<time>2012-07-27T17:37:33Z</time>
<speed>0.060000</speed>
<extensions>
<speed>0.1</speed>
<temp>0.00</temp>
<bpm>0</bpm>
<rpm>0.00</rpm>
</extensions>
</trkpt>
<trkpt lat="63.937381744" lon="-21.000862122">
<ele>34.145508</ele>
<time>2012-07-27T17:37:38Z</time>
<speed>0.040000</speed>
<extensions>
<speed>0.0</speed>
<temp>0.00</temp>
<bpm>0</bpm>
<rpm>0.00</rpm>
</extensions>
</trkpt>
<trkpt lat="63.937381744" lon="-21.000864029">
<ele>34.603516</ele>
<time>2012-07-27T17:37:43Z</time>
<speed>0.020000</speed>
<extensions>
<speed>0.0</speed>
<temp>0.00</temp>
<bpm>0</bpm>
<rpm>0.00</rpm>
</extensions>
</trkpt>
<trkpt lat="63.937385559" lon="-21.000862122">
<ele>34.965820</ele>
<time>2012-07-27T17:37:48Z</time>
<speed>0.030000</speed>
<extensions>
<speed>0.0</speed>
<temp>0.00</temp>
<bpm>0</bpm>
<rpm>0.00</rpm>
</extensions>
</trkpt>
<trkpt lat="63.937385559" lon="-21.000854492">
<ele>35.304688</ele>
<time>2012-07-27T17:37:53Z</time>
<speed>0.100000</speed>
<extensions>
<speed>0.1</speed>
<temp>0.00</temp>
<bpm>0</bpm>
<rpm>0.00</rpm>
</extensions>
</trkpt>
<trkpt lat="63.937381744" lon="-21.000846863">
<ele>35.603516</ele>
<time>2012-07-27T17:37:58Z</time>
<speed>0.010000</speed>
<extensions>
<speed>0.0</speed>
<temp>0.00</temp>
<bpm>0</bpm>
<rpm>0.00</rpm>
</extensions>
</trkpt>
<trkpt lat="63.937381744" lon="-21.000848770">
<ele>35.834961</ele>
<time>2012-07-27T17:38:03Z</time>
<speed>0.010000</speed>
<extensions>
<speed>0.0</speed>
<temp>0.00</temp>
<bpm>0</bpm>
<rpm>0.00</rpm>
</extensions>
</trkpt>
<trkpt lat="63.937381744" lon="-21.000850677">
<ele>36.061523</ele>
<time>2012-07-27T17:38:08Z</time>
<speed>0.010000</speed>
<extensions>
<speed>0.0</speed>
<temp>0.00</temp>
<bpm>0</bpm>
<rpm>0.00</rpm>
</extensions>
</trkpt>
<trkpt lat="63.937381744" lon="-21.000852585">
<ele>36.290039</ele>
<time>2012-07-27T17:38:13Z</time>
<speed>0.020000</speed>
<extensions>
<speed>0.0</speed>
<temp>0.00</temp>
<bpm>0</bpm>
<rpm>0.00</rpm>
</extensions>
</trkpt>
<trkpt lat="63.937381744" lon="-21.000854492">
<ele>36.561523</ele>
<time>2012-07-27T17:38:18Z</time>
<speed>0.020000</speed>
<extensions>
<speed>0.0</speed>
<temp>0.00</temp>
<bpm>0</bpm>
<rpm>0.00</rpm>
</extensions>
</trkpt>
<trkpt lat="63.937381744" lon="-21.000856400">
<ele>36.849609</ele>
<time>2012-07-27T17:38:23Z</time>
<speed>0.010000</speed>
<extensions>
<speed>0.0</speed>
<temp>0.00</temp>
<bpm>0</bpm>
<rpm>0.00</rpm>
</extensions>
</trkpt>
<trkpt lat="63.937381744" lon="-21.000854492">
<ele>37.155273</ele>
<time>2012-07-27T17:38:28Z</time>
<speed>0.030000</speed>
<extensions>
<speed>0.0</speed>
<temp>0.00</temp>
<bpm>0</bpm>
<rpm>0.00</rpm>
</extensions>
</trkpt>
<trkpt lat="63.937381744" lon="-21.000850677">
<ele>37.458984</ele>
<time>2012-07-27T17:38:33Z</time>
<speed>0.030000</speed>
<extensions>
<speed>0.0</speed>
<temp>0.00</temp>
<bpm>0</bpm>
<rpm>0.00</rpm>
</extensions>
</trkpt>
<trkpt lat="63.937377930" lon="-21.000848770">
<ele>37.770508</ele>
<time>2012-07-27T17:38:38Z</time>
<speed>0.060000</speed>
<extensions>
<speed>0.1</speed>
<temp>0.00</temp>
<bpm>0</bpm>
<rpm>0.00</rpm>
</extensions>
</trkpt>
<trkpt lat="63.937377930" lon="-21.000844955">
<ele>38.085938</ele>
<time>2012-07-27T17:38:43Z</time>
<speed>0.030000</speed>
<extensions>
<speed>0.0</speed>
<temp>0.00</temp>
<bpm>0</bpm>
<rpm>0.00</rpm>
</extensions>
</trkpt>
<trkpt lat="63.937374115" lon="-21.000843048">
<ele>38.426758</ele>
<time>2012-07-27T17:38:48Z</time>
<speed>0.030000</speed>
<extensions>
<speed>0.0</speed>
<temp>0.00</temp>
<bpm>0</bpm>
<rpm>0.00</rpm>
</extensions>
</trkpt>
<trkpt lat="63.937374115" lon="-21.000841141">
<ele>38.796875</ele>
<time>2012-07-27T17:38:53Z</time>
<speed>0.040000</speed>
<extensions>
<speed>0.0</speed>
<temp>0.00</temp>
<bpm>0</bpm>
<rpm>0.00</rpm>
</extensions>
</trkpt>
<trkpt lat="63.937374115" lon="-21.000837326">
<ele>39.250000</ele>
<time>2012-07-27T17:38:58Z</time>
<speed>0.020000</speed>
<extensions>
<speed>0.0</speed>
<temp>0.00</temp>
<bpm>0</bpm>
<rpm>0.00</rpm>
</extensions>
</trkpt>
<trkpt lat="63.937374115" lon="-21.000841141">
<ele>39.761719</ele>
<time>2012-07-27T17:39:03Z</time>
<speed>0.030000</speed>
<extensions>
<speed>0.0</speed>
<temp>0.00</temp>
<bpm>0</bpm>
<rpm>0.00</rpm>
</extensions>
</trkpt>
<trkpt lat="63.937374115" lon="-21.000843048">
<ele>40.223633</ele>
<time>2012-07-27T17:39:08Z</time>
<speed>0.040000</speed>
<extensions>
<speed>0.0</speed>
<temp>0.00</temp>
<bpm>0</bpm>
<rpm>0.00</rpm>
</extensions>
</trkpt>
<trkpt lat="63.937374115" lon="-21.000841141">
<ele>40.318359</ele>
<time>2012-07-27T17:39:13Z</time>
<speed>0.010000</speed>
<extensions>
<speed>0.0</speed>
<temp>0.00</temp>
<bpm>0</bpm>
<rpm>0.00</rpm>
</extensions>
</trkpt>
<trkpt lat="63.937374115" lon="-21.000841141">
<ele>40.326172</ele>
<time>2012-07-27T17:39:18Z</time>
<speed>0.010000</speed>
<extensions>
<speed>0.0</speed>
<temp>0.00</temp>
<bpm>0</bpm>
<rpm>0.00</rpm>
</extensions>
</trkpt>
<trkpt lat="63.937374115" lon="-21.000841141">
<ele>40.342773</ele>
<time>2012-07-27T17:39:23Z</time>
<extensions>
<speed>0.0</speed>
<temp>0.00</temp>
<bpm>0</bpm>
<rpm>0.00</rpm>
</extensions>
</trkpt>
<trkpt lat="63.937374115" lon="-21.000841141">
<ele>40.457031</ele>
<time>2012-07-27T17:39:28Z</time>
<speed>0.020000</speed>
<extensions>
<speed>0.0</speed>
<temp>0.00</temp>
<bpm>0</bpm>
<rpm>0.00</rpm>
</extensions>
</trkpt>
<trkpt lat="63.937374115" lon="-21.000841141">
<ele>40.546875</ele>
<time>2012-07-27T17:39:33Z</time>
<speed>0.010000</speed>
<extensions>
<speed>0.0</speed>
<temp>0.00</temp>
<bpm>0</bpm>
<rpm>0.00</rpm>
</extensions>
</trkpt>
<trkpt lat="63.937374115" lon="-21.000843048">
<ele>40.655273</ele>
<time>2012-07-27T17:39:38Z</time>
<extensions>
<speed>0.0</speed>
<temp>0.00</temp>
<bpm>0</bpm>
<rpm>0.00</rpm>
</extensions>
</trkpt>
<trkpt lat="63.937374115" lon="-21.000843048">
<ele>40.774414</ele>
<time>2012-07-27T17:39:43Z</time>
<extensions>
<speed>0.0</speed>
<temp>0.00</temp>
<bpm>0</bpm>
<rpm>0.00</rpm>
</extensions>
</trkpt>
<trkpt lat="63.937374115" lon="-21.000841141">
<ele>40.890625</ele>
<time>2012-07-27T17:39:48Z</time>
<extensions>
<speed>0.0</speed>
<temp>0.00</temp>
<bpm>0</bpm>
<rpm>0.00</rpm>
</extensions>
</trkpt>
<trkpt lat="63.937374115" lon="-21.000843048">
<ele>40.994141</ele>
<time>2012-07-27T17:39:53Z</time>
<speed>0.010000</speed>
<extensions>
<speed>0.0</speed>
<temp>0.00</temp>
<bpm>0</bpm>
<rpm>0.00</rpm>
</extensions>
</trkpt>
<trkpt lat="63.937374115" lon="-21.000841141">
<ele>40.943359</ele>
<time>2012-07-27T17:39:58Z</time>
<speed>0.010000</speed>
<extensions>
<speed>0.0</speed>
<temp>0.00</temp>
<bpm>0</bpm>
<rpm>0.00</rpm>
</extensions>
</trkpt>
<trkpt lat="63.937374115" lon="-21.000839233">
<ele>40.883789</ele>
<time>2012-07-27T17:40:03Z</time>
<speed>0.020000</speed>
<extensions>
<speed>0.0</speed>
<temp>0.00</temp>
<bpm>0</bpm>
<rpm>0.00</rpm>
</extensions>
</trkpt>
<trkpt lat="63.937374115" lon="-21.000839233">
<ele>40.972656</ele>
<time>2012-07-27T17:40:08Z</time>
<speed>0.020000</speed>
<extensions>
<speed>0.0</speed>
<temp>0.00</temp>
<bpm>0</bpm>
<rpm>0.00</rpm>
</extensions>
</trkpt>
<trkpt lat="63.937374115" lon="-21.000841141">
<ele>41.242188</ele>
<time>2012-07-27T17:40:13Z</time>
<extensions>
<speed>0.0</speed>
<temp>0.00</temp>
<bpm>0</bpm>
<rpm>0.00</rpm>
</extensions>
</trkpt>
<trkpt lat="63.937374115" lon="-21.000843048">
<ele>41.485352</ele>
<time>2012-07-27T17:40:18Z</time>
<extensions>
<speed>0.0</speed>
<temp>0.00</temp>
<bpm>0</bpm>
<rpm>0.00</rpm>
</extensions>
</trkpt>
<trkpt lat="63.937374115" lon="-21.000843048">
<ele>41.521484</ele>
<time>2012-07-27T17:40:23Z</time>
<extensions>
<speed>0.0</speed>
<temp>0.00</temp>
<bpm>0</bpm>
<rpm>0.00</rpm>
</extensions>
</trkpt>
<trkpt lat="63.937374115" lon="-21.000843048">
<ele>41.548828</ele>
<time>2012-07-27T17:40:28Z</time>
<speed>0.010000</speed>
<extensions>
<speed>0.0</speed>
<temp>0.00</temp>
<bpm>0</bpm>
<rpm>0.00</rpm>
</extensions>
</trkpt>
<trkpt lat="63.937374115" lon="-21.000843048">
<ele>41.579102</ele>
<time>2012-07-27T17:40:33Z</time>
<speed>0.010000</speed>
<extensions>
<speed>0.0</speed>
<temp>0.00</temp>
<bpm>0</bpm>
<rpm>0.00</rpm>
</extensions>
</trkpt>
<trkpt lat="63.937374115" lon="-21.000843048">
<ele>41.607422</ele>
<time>2012-07-27T17:40:38Z</time>
<speed>0.010000</speed>
<extensions>
<speed>0.0</speed>
<temp>0.00</temp>
<bpm>0</bpm>
<rpm>0.00</rpm>
</extensions>
</trkpt>
<trkpt lat="63.937374115" lon="-21.000843048">
<ele>41.649414</ele>
<time>2012-07-27T17:40:43Z</time>
<speed>0.010000</speed>
<extensions>
<speed>0.0</speed>
<temp>0.00</temp>
<bpm>0</bpm>
<rpm>0.00</rpm>
</extensions>
</trkpt>
<trkpt lat="63.937374115" lon="-21.000843048">
<ele>41.672852</ele>
<time>2012-07-27T17:40:48Z</time>
<extensions>
<speed>0.0</speed>
<temp>0.00</temp>
<bpm>0</bpm>
<rpm>0.00</rpm>
</extensions>
</trkpt>
<trkpt lat="63.937374115" lon="-21.000841141">
<ele>41.677734</ele>
<time>2012-07-27T17:40:53Z</time>
<speed>0.010000</speed>
<extensions>
<speed>0.0</speed>
<temp>0.00</temp>
<bpm>0</bpm>
<rpm>0.00</rpm>
</extensions>
</trkpt>
<trkpt lat="63.937374115" lon="-21.000841141">
<ele>41.658203</ele>
<time>2012-07-27T17:40:58Z</time>
<speed>0.010000</speed>
<extensions>
<speed>0.0</speed>
<temp>0.00</temp>
<bpm>0</bpm>
<rpm>0.00</rpm>
</extensions>
</trkpt>
<trkpt lat="63.937374115" lon="-21.000841141">
<ele>41.629883</ele>
<time>2012-07-27T17:41:03Z</time>
<extensions>
<speed>0.0</speed>
<temp>0.00</temp>
<bpm>0</bpm>
<rpm>0.00</rpm>
</extensions>
</trkpt>
<trkpt lat="63.937374115" lon="-21.000839233">
<ele>41.595703</ele>
<time>2012-07-27T17:41:08Z</time>
<speed>0.010000</speed>
<extensions>
<speed>0.0</speed>
<temp>0.00</temp>
<bpm>0</bpm>
<rpm>0.00</rpm>
</extensions>
</trkpt>
<trkpt lat="63.937370300" lon="-21.000839233">
<ele>41.570313</ele>
<time>2012-07-27T17:41:13Z</time>
<speed>0.010000</speed>
<extensions>
<speed>0.0</speed>
<temp>0.00</temp>
<bpm>0</bpm>
<rpm>0.00</rpm>
</extensions>
</trkpt>
<trkpt lat="63.937370300" lon="-21.000839233">
<ele>41.520508</ele>
<time>2012-07-27T17:41:18Z</time>
<extensions>
<speed>0.0</speed>
<temp>0.00</temp>
<bpm>0</bpm>
<rpm>0.00</rpm>
</extensions>
</trkpt>
<trkpt lat="63.937374115" lon="-21.000837326">
<ele>41.427734</ele>
<time>2012-07-27T17:41:23Z</time>
<extensions>
<speed>0.0</speed>
<temp>0.00</temp>
<bpm>0</bpm>
<rpm>0.00</rpm>
</extensions>
</trkpt>
<trkpt lat="63.937374115" lon="-21.000835419">
<ele>41.300781</ele>
<time>2012-07-27T17:41:28Z</time>
<speed>0.010000</speed>
<extensions>
<speed>0.0</speed>
<temp>0.00</temp>
<bpm>0</bpm>
<rpm>0.00</rpm>
</extensions>
</trkpt>
<trkpt lat="63.937374115" lon="-21.000831604">
<ele>41.126953</ele>
<time>2012-07-27T17:41:33Z</time>
<speed>0.020000</speed>
<extensions>
<speed>0.0</speed>
<temp>0.00</temp>
<bpm>0</bpm>
<rpm>0.00</rpm>
</extensions>
</trkpt>
<trkpt lat="63.937374115" lon="-21.000827789">
<ele>40.869141</ele>
<time>2012-07-27T17:41:38Z</time>
<speed>0.040000</speed>
<extensions>
<speed>0.0</speed>
<temp>0.00</temp>
<bpm>0</bpm>
<rpm>0.00</rpm>
</extensions>
</trkpt>
<trkpt lat="63.937374115" lon="-21.000825882">
<ele>40.776367</ele>
<time>2012-07-27T17:41:43Z</time>
<speed>0.020000</speed>
<extensions>
<speed>0.0</speed>
<temp>0.00</temp>
<bpm>0</bpm>
<rpm>0.00</rpm>
</extensions>
</trkpt>
<trkpt lat="63.937374115" lon="-21.000825882">
<ele>40.770508</ele>
<time>2012-07-27T17:41:48Z</time>
<extensions>
<speed>0.0</speed>
<temp>0.00</temp>
<bpm>0</bpm>
<rpm>0.00</rpm>
</extensions>
</trkpt>
<trkpt lat="63.937374115" lon="-21.000823975">
<ele>40.762695</ele>
<time>2012-07-27T17:41:53Z</time>
<extensions>
<speed>0.0</speed>
<temp>0.00</temp>
<bpm>0</bpm>
<rpm>0.00</rpm>
</extensions>
</trkpt>
<trkpt lat="63.937370300" lon="-21.000823975">
<ele>40.759766</ele>
<time>2012-07-27T17:41:58Z</time>
<extensions>
<speed>0.0</speed>
<temp>0.00</temp>
<bpm>0</bpm>
<rpm>0.00</rpm>
</extensions>
</trkpt>
<trkpt lat="63.937370300" lon="-21.000822067">
<ele>40.763672</ele>
<time>2012-07-27T17:42:03Z</time>
<speed>0.020000</speed>
<extensions>
<speed>0.0</speed>
<temp>0.00</temp>
<bpm>0</bpm>
<rpm>0.00</rpm>
</extensions>
</trkpt>
<trkpt lat="63.937370300" lon="-21.000823975">
<ele>40.762695</ele>
<time>2012-07-27T17:42:08Z</time>
<extensions>
<speed>0.0</speed>
<temp>0.00</temp>
<bpm>0</bpm>
<rpm>0.00</rpm>
</extensions>
</trkpt>
<trkpt lat="63.937370300" lon="-21.000820160">
<ele>40.663086</ele>
<time>2012-07-27T17:42:13Z</time>
<speed>0.010000</speed>
<extensions>
<speed>0.0</speed>
<temp>0.00</temp>
<bpm>0</bpm>
<rpm>0.00</rpm>
</extensions>
</trkpt>
<trkpt lat="63.937370300" lon="-21.000818253">
<ele>40.476563</ele>
<time>2012-07-27T17:42:18Z</time>
<extensions>
<speed>0.0</speed>
<temp>0.00</temp>
<bpm>0</bpm>
<rpm>0.00</rpm>
</extensions>
</trkpt>
<trkpt lat="63.937370300" lon="-21.000818253">
<ele>40.416016</ele>
<time>2012-07-27T17:42:23Z</time>
<speed>0.010000</speed>
<extensions>
<speed>0.0</speed>
<temp>0.00</temp>
<bpm>0</bpm>
<rpm>0.00</rpm>
</extensions>
</trkpt>
<trkpt lat="63.937370300" lon="-21.000816345">
<ele>40.344727</ele>
<time>2012-07-27T17:42:28Z</time>
<speed>0.010000</speed>
<extensions>
<speed>0.0</speed>
<temp>0.00</temp>
<bpm>0</bpm>
<rpm>0.00</rpm>
</extensions>
</trkpt>
<trkpt lat="63.937370300" lon="-21.000816345">
<ele>40.320313</ele>
<time>2012-07-27T17:42:33Z</time>
<speed>0.020000</speed>
<extensions>
<speed>0.0</speed>
<temp>0.00</temp>
<bpm>0</bpm>
<rpm>0.00</rpm>
</extensions>
</trkpt>
<trkpt lat="63.937370300" lon="-21.000816345">
<ele>40.307617</ele>
<time>2012-07-27T17:42:38Z</time>
<extensions>
<speed>0.0</speed>
<temp>0.00</temp>
<bpm>0</bpm>
<rpm>0.00</rpm>
</extensions>
</trkpt>
<trkpt lat="63.937370300" lon="-21.000814438">
<ele>40.271484</ele>
<time>2012-07-27T17:42:43Z</time>
<extensions>
<speed>0.0</speed>
<temp>0.00</temp>
<bpm>0</bpm>
<rpm>0.00</rpm>
</extensions>
</trkpt>
<trkpt lat="63.937374115" lon="-21.000814438">
<ele>40.233398</ele>
<time>2012-07-27T17:42:48Z</time>
<extensions>
<speed>0.0</speed>
<temp>0.00</temp>
<bpm>0</bpm>
<rpm>0.00</rpm>
</extensions>
</trkpt>
<trkpt lat="63.937374115" lon="-21.000812531">
<ele>40.177734</ele>
<time>2012-07-27T17:42:53Z</time>
<speed>0.010000</speed>
<extensions>
<speed>0.0</speed>
<temp>0.00</temp>
<bpm>0</bpm>
<rpm>0.00</rpm>
</extensions>
</trkpt>
<trkpt lat="63.937374115" lon="-21.000812531">
<ele>40.116211</ele>
<time>2012-07-27T17:42:58Z</time>
<extensions>
<speed>0.0</speed>
<temp>0.00</temp>
<bpm>0</bpm>
<rpm>0.00</rpm>
</extensions>
</trkpt>
<trkpt lat="63.937374115" lon="-21.000812531">
<ele>40.082031</ele>
<time>2012-07-27T17:43:03Z</time>
<extensions>
<speed>0.0</speed>
<temp>0.00</temp>
<bpm>0</bpm>
<rpm>0.00</rpm>
</extensions>
</trkpt>
<trkpt lat="63.937374115" lon="-21.000812531">
<ele>40.041992</ele>
<time>2012-07-27T17:43:08Z</time>
<speed>0.010000</speed>
<extensions>
<speed>0.0</speed>
<temp>0.00</temp>
<bpm>0</bpm>
<rpm>0.00</rpm>
</extensions>
</trkpt>
<trkpt lat="63.937374115" lon="-21.000810623">
<ele>40.028320</ele>
<time>2012-07-27T17:43:13Z</time>
<extensions>
<speed>0.0</speed>
<temp>0.00</temp>
<bpm>0</bpm>
<rpm>0.00</rpm>
</extensions>
</trkpt>
<trkpt lat="63.937374115" lon="-21.000810623">
<ele>40.003906</ele>
<time>2012-07-27T17:43:18Z</time>
<extensions>
<speed>0.0</speed>
<temp>0.00</temp>
<bpm>0</bpm>
<rpm>0.00</rpm>
</extensions>
</trkpt>
<trkpt lat="63.937374115" lon="-21.000808716">
<ele>39.957031</ele>
<time>2012-07-27T17:43:23Z</time>
<extensions>
<speed>0.0</speed>
<temp>0.00</temp>
<bpm>0</bpm>
<rpm>0.00</rpm>
</extensions>
</trkpt>
<trkpt lat="63.937374115" lon="-21.000808716">
<ele>39.908203</ele>
<time>2012-07-27T17:43:28Z</time>
<speed>0.010000</speed>
<extensions>
<speed>0.0</speed>
<temp>0.00</temp>
<bpm>0</bpm>
<rpm>0.00</rpm>
</extensions>
</trkpt>
<trkpt lat="63.937374115" lon="-21.000806808">
<ele>39.879883</ele>
<time>2012-07-27T17:43:33Z</time>
<extensions>
<speed>0.0</speed>
<temp>0.00</temp>
<bpm>0</bpm>
<rpm>0.00</rpm>
</extensions>
</trkpt>
<trkpt lat="63.937374115" lon="-21.000806808">
<ele>39.859375</ele>
<time>2012-07-27T17:43:38Z</time>
<speed>0.010000</speed>
<extensions>
<speed>0.0</speed>
<temp>0.00</temp>
<bpm>0</bpm>
<rpm>0.00</rpm>
</extensions>
</trkpt>
<trkpt lat="63.937374115" lon="-21.000804901">
<ele>39.830078</ele>
<time>2012-07-27T17:43:43Z</time>
<extensions>
<speed>0.0</speed>
<temp>0.00</temp>
<bpm>0</bpm>
<rpm>0.00</rpm>
</extensions>
</trkpt>
<trkpt lat="63.937374115" lon="-21.000802994">
<ele>39.766602</ele>
<time>2012-07-27T17:43:48Z</time>
<speed>0.010000</speed>
<extensions>
<speed>0.0</speed>
<temp>0.00</temp>
<bpm>0</bpm>
<rpm>0.00</rpm>
</extensions>
</trkpt>
<trkpt lat="63.937374115" lon="-21.000801086">
<ele>39.668945</ele>
<time>2012-07-27T17:43:53Z</time>
<speed>0.010000</speed>
<extensions>
<speed>0.0</speed>
<temp>0.00</temp>
<bpm>0</bpm>
<rpm>0.00</rpm>
</extensions>
</trkpt>
<trkpt lat="63.937374115" lon="-21.000799179">
<ele>39.583984</ele>
<time>2012-07-27T17:43:58Z</time>
<speed>0.020000</speed>
<extensions>
<speed>0.0</speed>
<temp>0.00</temp>
<bpm>0</bpm>
<rpm>0.00</rpm>
</extensions>
</trkpt>
<trkpt lat="63.937374115" lon="-21.000797272">
<ele>39.536133</ele>
<time>2012-07-27T17:44:03Z</time>
<extensions>
<speed>0.0</speed>
<temp>0.00</temp>
<bpm>0</bpm>
<rpm>0.00</rpm>
</extensions>
</trkpt>
<trkpt lat="63.937374115" lon="-21.000797272">
<ele>39.513672</ele>
<time>2012-07-27T17:44:08Z</time>
<speed>0.010000</speed>
<extensions>
<speed>0.0</speed>
<temp>0.00</temp>
<bpm>0</bpm>
<rpm>0.00</rpm>
</extensions>
</trkpt>
<trkpt lat="63.937370300" lon="-21.000797272">
<ele>39.495117</ele>
<time>2012-07-27T17:44:13Z</time>
<speed>0.010000</speed>
<extensions>
<speed>0.0</speed>
<temp>0.00</temp>
<bpm>0</bpm>
<rpm>0.00</rpm>
</extensions>
</trkpt>
<trkpt lat="63.937374115" lon="-21.000797272">
<ele>39.449219</ele>
<time>2012-07-27T17:44:18Z</time>
<speed>0.020000</speed>
<extensions>
<speed>0.0</speed>
<temp>0.00</temp>
<bpm>0</bpm>
<rpm>0.00</rpm>
</extensions>
</trkpt>
<trkpt lat="63.937370300" lon="-21.000797272">
<ele>39.389648</ele>
<time>2012-07-27T17:44:23Z</time>
<extensions>
<speed>0.0</speed>
<temp>0.00</temp>
<bpm>0</bpm>
<rpm>0.00</rpm>
</extensions>
</trkpt>
<trkpt lat="63.937374115" lon="-21.000795364">
<ele>39.327148</ele>
<time>2012-07-27T17:44:28Z</time>
<speed>0.010000</speed>
<extensions>
<speed>0.0</speed>
<temp>0.00</temp>
<bpm>0</bpm>
<rpm>0.00</rpm>
</extensions>
</trkpt>
<trkpt lat="63.937370300" lon="-21.000795364">
<ele>39.252930</ele>
<time>2012-07-27T17:44:33Z</time>
<extensions>
<speed>0.0</speed>
<temp>0.00</temp>
<bpm>0</bpm>
<rpm>0.00</rpm>
</extensions>
</trkpt>
<trkpt lat="63.937370300" lon="-21.000795364">
<ele>39.141602</ele>
<time>2012-07-27T17:44:38Z</time>
<speed>0.020000</speed>
<extensions>
<speed>0.0</speed>
<temp>0.00</temp>
<bpm>0</bpm>
<rpm>0.00</rpm>
</extensions>
</trkpt>
<trkpt lat="63.937370300" lon="-21.000795364">
<ele>39.043945</ele>
<time>2012-07-27T17:44:43Z</time>
<extensions>
<speed>0.0</speed>
<temp>0.00</temp>
<bpm>0</bpm>
<rpm>0.00</rpm>
</extensions>
</trkpt>
<trkpt lat="63.937370300" lon="-21.000793457">
<ele>38.981445</ele>
<time>2012-07-27T17:44:48Z</time>
<extensions>
<speed>0.0</speed>
<temp>0.00</temp>
<bpm>0</bpm>
<rpm>0.00</rpm>
</extensions>
</trkpt>
<trkpt lat="63.937370300" lon="-21.000793457">
<ele>38.948242</ele>
<time>2012-07-27T17:44:53Z</time>
<extensions>
<speed>0.0</speed>
<temp>0.00</temp>
<bpm>0</bpm>
<rpm>0.00</rpm>
</extensions>
</trkpt>
<trkpt lat="63.937370300" lon="-21.000791550">
<ele>38.933594</ele>
<time>2012-07-27T17:44:58Z</time>
<extensions>
<speed>0.0</speed>
<temp>0.00</temp>
<bpm>0</bpm>
<rpm>0.00</rpm>
</extensions>
</trkpt>
<trkpt lat="63.937370300" lon="-21.000787735">
<ele>38.910156</ele>
<time>2012-07-27T17:45:03Z</time>
<speed>0.030000</speed>
<extensions>
<speed>0.0</speed>
<temp>0.00</temp>
<bpm>0</bpm>
<rpm>0.00</rpm>
</extensions>
</trkpt>
<trkpt lat="63.937370300" lon="-21.000783920">
<ele>38.895508</ele>
<time>2012-07-27T17:45:08Z</time>
<speed>0.010000</speed>
<extensions>
<speed>0.0</speed>
<temp>0.00</temp>
<bpm>0</bpm>
<rpm>0.00</rpm>
</extensions>
</trkpt>
<trkpt lat="63.937370300" lon="-21.000783920">
<ele>38.878906</ele>
<time>2012-07-27T17:45:13Z</time>
<speed>0.010000</speed>
<extensions>
<speed>0.0</speed>
<temp>0.00</temp>
<bpm>0</bpm>
<rpm>0.00</rpm>
</extensions>
</trkpt>
<trkpt lat="63.937370300" lon="-21.000782013">
<ele>38.862305</ele>
<time>2012-07-27T17:45:18Z</time>
<extensions>
<speed>0.0</speed>
<temp>0.00</temp>
<bpm>0</bpm>
<rpm>0.00</rpm>
</extensions>
</trkpt>
<trkpt lat="63.937370300" lon="-21.000782013">
<ele>38.839844</ele>
<time>2012-07-27T17:45:23Z</time>
<extensions>
<speed>0.0</speed>
<temp>0.00</temp>
<bpm>0</bpm>
<rpm>0.00</rpm>
</extensions>
</trkpt>
<trkpt lat="63.937370300" lon="-21.000780106">
<ele>38.814453</ele>
<time>2012-07-27T17:45:28Z</time>
<speed>0.010000</speed>
<extensions>
<speed>0.0</speed>
<temp>0.00</temp>
<bpm>0</bpm>
<rpm>0.00</rpm>
</extensions>
</trkpt>
<trkpt lat="63.937370300" lon="-21.000780106">
<ele>38.811523</ele>
<time>2012-07-27T17:45:33Z</time>
<speed>0.010000</speed>
<extensions>
<speed>0.0</speed>
<temp>0.00</temp>
<bpm>0</bpm>
<rpm>0.00</rpm>
</extensions>
</trkpt>
<trkpt lat="63.937370300" lon="-21.000778198">
<ele>38.816406</ele>
<time>2012-07-27T17:45:38Z</time>
<speed>0.010000</speed>
<extensions>
<speed>0.0</speed>
<temp>0.00</temp>
<bpm>0</bpm>
<rpm>0.00</rpm>
</extensions>
</trkpt>
<trkpt lat="63.937370300" lon="-21.000778198">
<ele>38.816406</ele>
<time>2012-07-27T17:45:43Z</time>
<speed>0.010000</speed>
<extensions>
<speed>0.0</speed>
<temp>0.00</temp>
<bpm>0</bpm>
<rpm>0.00</rpm>
</extensions>
</trkpt>
<trkpt lat="63.937370300" lon="-21.000778198">
<ele>38.807617</ele>
<time>2012-07-27T17:45:48Z</time>
<extensions>
<speed>0.0</speed>
<temp>0.00</temp>
<bpm>0</bpm>
<rpm>0.00</rpm>
</extensions>
</trkpt>
<trkpt lat="63.937370300" lon="-21.000776291">
<ele>38.791992</ele>
<time>2012-07-27T17:45:53Z</time>
<speed>0.010000</speed>
<extensions>
<speed>0.0</speed>
<temp>0.00</temp>
<bpm>0</bpm>
<rpm>0.00</rpm>
</extensions>
</trkpt>
<trkpt lat="63.937370300" lon="-21.000774384">
<ele>38.749023</ele>
<time>2012-07-27T17:45:58Z</time>
<speed>0.030000</speed>
<extensions>
<speed>0.0</speed>
<temp>0.00</temp>
<bpm>0</bpm>
<rpm>0.00</rpm>
</extensions>
</trkpt>
<trkpt lat="63.937374115" lon="-21.000770569">
<ele>38.668945</ele>
<time>2012-07-27T17:46:03Z</time>
<speed>0.010000</speed>
<extensions>
<speed>0.0</speed>
<temp>0.00</temp>
<bpm>0</bpm>
<rpm>0.00</rpm>
</extensions>
</trkpt>
<trkpt lat="63.937374115" lon="-21.000768661">
<ele>38.538086</ele>
<time>2012-07-27T17:46:08Z</time>
<speed>0.010000</speed>
<extensions>
<speed>0.0</speed>
<temp>0.00</temp>
<bpm>0</bpm>
<rpm>0.00</rpm>
</extensions>
</trkpt>
<trkpt lat="63.937374115" lon="-21.000766754">
<ele>38.394531</ele>
<time>2012-07-27T17:46:13Z</time>
<extensions>
<speed>0.0</speed>
<temp>0.00</temp>
<bpm>0</bpm>
<rpm>0.00</rpm>
</extensions>
</trkpt>
<trkpt lat="63.937374115" lon="-21.000764847">
<ele>38.262695</ele>
<time>2012-07-27T17:46:18Z</time>
<speed>0.010000</speed>
<extensions>
<speed>0.0</speed>
<temp>0.00</temp>
<bpm>0</bpm>
<rpm>0.00</rpm>
</extensions>
</trkpt>
<trkpt lat="63.937374115" lon="-21.000761032">
<ele>38.101563</ele>
<time>2012-07-27T17:46:23Z</time>
<speed>0.020000</speed>
<extensions>
<speed>0.0</speed>
<temp>0.00</temp>
<bpm>0</bpm>
<rpm>0.00</rpm>
</extensions>
</trkpt>
<trkpt lat="63.937374115" lon="-21.000755310">
<ele>37.893555</ele>
<time>2012-07-27T17:46:28Z</time>
<extensions>
<speed>0.0</speed>
<temp>0.00</temp>
<bpm>0</bpm>
<rpm>0.00</rpm>
</extensions>
</trkpt>
<trkpt lat="63.937374115" lon="-21.000753403">
<ele>37.716797</ele>
<time>2012-07-27T17:46:33Z</time>
<extensions>
<speed>0.0</speed>
<temp>0.00</temp>
<bpm>0</bpm>
<rpm>0.00</rpm>
</extensions>
</trkpt>
<trkpt lat="63.937374115" lon="-21.000751495">
<ele>37.513672</ele>
<time>2012-07-27T17:46:38Z</time>
<speed>0.010000</speed>
<extensions>
<speed>0.0</speed>
<temp>0.00</temp>
<bpm>0</bpm>
<rpm>0.00</rpm>
</extensions>
</trkpt>
<trkpt lat="63.937374115" lon="-21.000747681">
<ele>37.286133</ele>
<time>2012-07-27T17:46:43Z</time>
<speed>0.020000</speed>
<extensions>
<speed>0.0</speed>
<temp>0.00</temp>
<bpm>0</bpm>
<rpm>0.00</rpm>
</extensions>
</trkpt>
<trkpt lat="63.937374115" lon="-21.000743866">
<ele>36.988281</ele>
<time>2012-07-27T17:46:48Z</time>
<speed>0.020000</speed>
<extensions>
<speed>0.0</speed>
<temp>0.00</temp>
<bpm>0</bpm>
<rpm>0.00</rpm>
</extensions>
</trkpt>
<trkpt lat="63.937374115" lon="-21.000740051">
<ele>36.666992</ele>
<time>2012-07-27T17:46:53Z</time>
<speed>0.030000</speed>
<extensions>
<speed>0.0</speed>
<temp>0.00</temp>
<bpm>0</bpm>
<rpm>0.00</rpm>
</extensions>
</trkpt>
<trkpt lat="63.937374115" lon="-21.000738144">
<ele>36.330078</ele>
<time>2012-07-27T17:46:58Z</time>
<speed>0.020000</speed>
<extensions>
<speed>0.0</speed>
<temp>0.00</temp>
<bpm>0</bpm>
<rpm>0.00</rpm>
</extensions>
</trkpt>
<trkpt lat="63.937374115" lon="-21.000732422">
<ele>35.956055</ele>
<time>2012-07-27T17:47:03Z</time>
<speed>0.020000</speed>
<extensions>
<speed>0.0</speed>
<temp>0.00</temp>
<bpm>0</bpm>
<rpm>0.00</rpm>
</extensions>
</trkpt>
<trkpt lat="63.937374115" lon="-21.000728607">
<ele>35.564453</ele>
<time>2012-07-27T17:47:08Z</time>
<speed>0.030000</speed>
<extensions>
<speed>0.0</speed>
<temp>0.00</temp>
<bpm>0</bpm>
<rpm>0.00</rpm>
</extensions>
</trkpt>
<trkpt lat="63.937374115" lon="-21.000724792">
<ele>35.132813</ele>
<time>2012-07-27T17:47:13Z</time>
<speed>0.040000</speed>
<extensions>
<speed>0.0</speed>
<temp>0.00</temp>
<bpm>0</bpm>
<rpm>0.00</rpm>
</extensions>
</trkpt>
<trkpt lat="63.937374115" lon="-21.000719070">
<ele>34.658203</ele>
<time>2012-07-27T17:47:18Z</time>
<speed>0.040000</speed>
<extensions>
<speed>0.0</speed>
<temp>0.00</temp>
<bpm>0</bpm>
<rpm>0.00</rpm>
</extensions>
</trkpt>
<trkpt lat="63.937374115" lon="-21.000715256">
<ele>34.286133</ele>
<time>2012-07-27T17:47:23Z</time>
<speed>0.020000</speed>
<extensions>
<speed>0.0</speed>
<temp>0.00</temp>
<bpm>0</bpm>
<rpm>0.00</rpm>
</extensions>
</trkpt>
<trkpt lat="63.937374115" lon="-21.000715256">
<ele>34.261719</ele>
<time>2012-07-27T17:47:28Z</time>
<extensions>
<speed>0.0</speed>
<temp>0.00</temp>
<bpm>0</bpm>
<rpm>0.00</rpm>
</extensions>
</trkpt>
<trkpt lat="63.937374115" lon="-21.000715256">
<ele>34.243164</ele>
<time>2012-07-27T17:47:33Z</time>
<extensions>
<speed>0.0</speed>
<temp>0.00</temp>
<bpm>0</bpm>
<rpm>0.00</rpm>
</extensions>
</trkpt>
<trkpt lat="63.937374115" lon="-21.000715256">
<ele>34.230469</ele>
<time>2012-07-27T17:47:38Z</time>
<extensions>
<speed>0.0</speed>
<temp>0.00</temp>
<bpm>0</bpm>
<rpm>0.00</rpm>
</extensions>
</trkpt>
<trkpt lat="63.937374115" lon="-21.000715256">
<ele>34.194336</ele>
<time>2012-07-27T17:47:43Z</time>
<extensions>
<speed>0.0</speed>
<temp>0.00</temp>
<bpm>0</bpm>
<rpm>0.00</rpm>
</extensions>
</trkpt>
<trkpt lat="63.937374115" lon="-21.000713348">
<ele>34.182617</ele>
<time>2012-07-27T17:47:48Z</time>
<speed>0.010000</speed>
<extensions>
<speed>0.0</speed>
<temp>0.00</temp>
<bpm>0</bpm>
<rpm>0.00</rpm>
</extensions>
</trkpt>
<trkpt lat="63.937374115" lon="-21.000713348">
<ele>34.177734</ele>
<time>2012-07-27T17:47:53Z</time>
<extensions>
<speed>0.0</speed>
<temp>0.00</temp>
<bpm>0</bpm>
<rpm>0.00</rpm>
</extensions>
</trkpt>
<trkpt lat="63.937374115" lon="-21.000713348">
<ele>34.174805</ele>
<time>2012-07-27T17:47:58Z</time>
<speed>0.020000</speed>
<extensions>
<speed>0.0</speed>
<temp>0.00</temp>
<bpm>0</bpm>
<rpm>0.00</rpm>
</extensions>
</trkpt>
<trkpt lat="63.937374115" lon="-21.000711441">
<ele>34.160156</ele>
<time>2012-07-27T17:48:03Z</time>
<speed>0.010000</speed>
<extensions>
<speed>0.0</speed>
<temp>0.00</temp>
<bpm>0</bpm>
<rpm>0.00</rpm>
</extensions>
</trkpt>
<trkpt lat="63.937374115" lon="-21.000711441">
<ele>34.127930</ele>
<time>2012-07-27T17:48:08Z</time>
<extensions>
<speed>0.0</speed>
<temp>0.00</temp>
<bpm>0</bpm>
<rpm>0.00</rpm>
</extensions>
</trkpt>
<trkpt lat="63.937374115" lon="-21.000711441">
<ele>34.084961</ele>
<time>2012-07-27T17:48:13Z</time>
<speed>0.010000</speed>
<extensions>
<speed>0.0</speed>
<temp>0.00</temp>
<bpm>0</bpm>
<rpm>0.00</rpm>
</extensions>
</trkpt>
<trkpt lat="63.937374115" lon="-21.000709534">
<ele>34.048828</ele>
<time>2012-07-27T17:48:18Z</time>
<speed>0.010000</speed>
<extensions>
<speed>0.0</speed>
<temp>0.00</temp>
<bpm>0</bpm>
<rpm>0.00</rpm>
</extensions>
</trkpt>
<trkpt lat="63.937374115" lon="-21.000709534">
<ele>34.035156</ele>
<time>2012-07-27T17:48:23Z</time>
<speed>0.010000</speed>
<extensions>
<speed>0.0</speed>
<temp>0.00</temp>
<bpm>0</bpm>
<rpm>0.00</rpm>
</extensions>
</trkpt>
<trkpt lat="63.937374115" lon="-21.000709534">
<ele>34.001953</ele>
<time>2012-07-27T17:48:28Z</time>
<speed>0.010000</speed>
<extensions>
<speed>0.0</speed>
<temp>0.00</temp>
<bpm>0</bpm>
<rpm>0.00</rpm>
</extensions>
</trkpt>
<trkpt lat="63.937374115" lon="-21.000707626">
<ele>33.959961</ele>
<time>2012-07-27T17:48:33Z</time>
<extensions>
<speed>0.0</speed>
<temp>0.00</temp>
<bpm>0</bpm>
<rpm>0.00</rpm>
</extensions>
</trkpt>
<trkpt lat="63.937374115" lon="-21.000707626">
<ele>33.916992</ele>
<time>2012-07-27T17:48:38Z</time>
<speed>0.010000</speed>
<extensions>
<speed>0.0</speed>
<temp>0.00</temp>
<bpm>0</bpm>
<rpm>0.00</rpm>
</extensions>
</trkpt>
<trkpt lat="63.937374115" lon="-21.000705719">
<ele>33.856445</ele>
<time>2012-07-27T17:48:43Z</time>
<extensions>
<speed>0.0</speed>
<temp>0.00</temp>
<bpm>0</bpm>
<rpm>0.00</rpm>
</extensions>
</trkpt>
<trkpt lat="63.937374115" lon="-21.000705719">
<ele>33.825195</ele>
<time>2012-07-27T17:48:48Z</time>
<extensions>
<speed>0.0</speed>
<temp>0.00</temp>
<bpm>0</bpm>
<rpm>0.00</rpm>
</extensions>
</trkpt>
<trkpt lat="63.937374115" lon="-21.000703812">
<ele>33.784180</ele>
<time>2012-07-27T17:48:53Z</time>
<speed>0.010000</speed>
<extensions>
<speed>0.0</speed>
<temp>0.00</temp>
<bpm>0</bpm>
<rpm>0.00</rpm>
</extensions>
</trkpt>
<trkpt lat="63.937374115" lon="-21.000703812">
<ele>33.754883</ele>
<time>2012-07-27T17:48:58Z</time>
<speed>0.010000</speed>
<extensions>
<speed>0.0</speed>
<temp>0.00</temp>
<bpm>0</bpm>
<rpm>0.00</rpm>
</extensions>
</trkpt>
<trkpt lat="63.937374115" lon="-21.000703812">
<ele>33.716797</ele>
<time>2012-07-27T17:49:03Z</time>
<extensions>
<speed>0.0</speed>
<temp>0.00</temp>
<bpm>0</bpm>
<rpm>0.00</rpm>
</extensions>
</trkpt>
<trkpt lat="63.937374115" lon="-21.000701904">
<ele>33.673828</ele>
<time>2012-07-27T17:49:08Z</time>
<speed>0.020000</speed>
<extensions>
<speed>0.0</speed>
<temp>0.00</temp>
<bpm>0</bpm>
<rpm>0.00</rpm>
</extensions>
</trkpt>
<trkpt lat="63.937374115" lon="-21.000701904">
<ele>33.623047</ele>
<time>2012-07-27T17:49:13Z</time>
<speed>0.010000</speed>
<extensions>
<speed>0.0</speed>
<temp>0.00</temp>
<bpm>0</bpm>
<rpm>0.00</rpm>
</extensions>
</trkpt>
<trkpt lat="63.937374115" lon="-21.000701904">
<ele>33.571289</ele>
<time>2012-07-27T17:49:18Z</time>
<extensions>
<speed>0.0</speed>
<temp>0.00</temp>
<bpm>0</bpm>
<rpm>0.00</rpm>
</extensions>
</trkpt>
<trkpt lat="63.937374115" lon="-21.000699997">
<ele>33.529297</ele>
<time>2012-07-27T17:49:23Z</time>
<speed>0.010000</speed>
<extensions>
<speed>0.0</speed>
<temp>0.00</temp>
<bpm>0</bpm>
<rpm>0.00</rpm>
</extensions>
</trkpt>
<trkpt lat="63.937374115" lon="-21.000699997">
<ele>33.518555</ele>
<time>2012-07-27T17:49:28Z</time>
<speed>0.010000</speed>
<extensions>
<speed>0.0</speed>
<temp>0.00</temp>
<bpm>0</bpm>
<rpm>0.00</rpm>
</extensions>
</trkpt>
<trkpt lat="63.937374115" lon="-21.000699997">
<ele>33.480469</ele>
<time>2012-07-27T17:49:33Z</time>
<extensions>
<speed>0.0</speed>
<temp>0.00</temp>
<bpm>0</bpm>
<rpm>0.00</rpm>
</extensions>
</trkpt>
<trkpt lat="63.937374115" lon="-21.000698090">
<ele>33.453125</ele>
<time>2012-07-27T17:49:38Z</time>
<extensions>
<speed>0.0</speed>
<temp>0.00</temp>
<bpm>0</bpm>
<rpm>0.00</rpm>
</extensions>
</trkpt>
<trkpt lat="63.937374115" lon="-21.000698090">
<ele>33.425781</ele>
<time>2012-07-27T17:49:43Z</time>
<speed>0.010000</speed>
<extensions>
<speed>0.0</speed>
<temp>0.00</temp>
<bpm>0</bpm>
<rpm>0.00</rpm>
</extensions>
</trkpt>
<trkpt lat="63.937374115" lon="-21.000698090">
<ele>33.406250</ele>
<time>2012-07-27T17:49:48Z</time>
<speed>0.020000</speed>
<extensions>
<speed>0.0</speed>
<temp>0.00</temp>
<bpm>0</bpm>
<rpm>0.00</rpm>
</extensions>
</trkpt>
<trkpt lat="63.937374115" lon="-21.000698090">
<ele>33.393555</ele>
<time>2012-07-27T17:49:53Z</time>
<extensions>
<speed>0.0</speed>
<temp>0.00</temp>
<bpm>0</bpm>
<rpm>0.00</rpm>
</extensions>
</trkpt>
<trkpt lat="63.937374115" lon="-21.000696182">
<ele>33.381836</ele>
<time>2012-07-27T17:49:58Z</time>
<extensions>
<speed>0.0</speed>
<temp>0.00</temp>
<bpm>0</bpm>
<rpm>0.00</rpm>
</extensions>
</trkpt>
<trkpt lat="63.937374115" lon="-21.000696182">
<ele>33.379883</ele>
<time>2012-07-27T17:50:03Z</time>
<speed>0.020000</speed>
<extensions>
<speed>0.0</speed>
<temp>0.00</temp>
<bpm>0</bpm>
<rpm>0.00</rpm>
</extensions>
</trkpt>
<trkpt lat="63.937374115" lon="-21.000696182">
<ele>33.370117</ele>
<time>2012-07-27T17:50:08Z</time>
<speed>0.010000</speed>
<extensions>
<speed>0.0</speed>
<temp>0.00</temp>
<bpm>0</bpm>
<rpm>0.00</rpm>
</extensions>
</trkpt>
<trkpt lat="63.937374115" lon="-21.000696182">
<ele>33.359375</ele>
<time>2012-07-27T17:50:13Z</time>
<speed>0.010000</speed>
<extensions>
<speed>0.0</speed>
<temp>0.00</temp>
<bpm>0</bpm>
<rpm>0.00</rpm>
</extensions>
</trkpt>
<trkpt lat="63.937374115" lon="-21.000696182">
<ele>33.348633</ele>
<time>2012-07-27T17:50:18Z</time>
<extensions>
<speed>0.0</speed>
<temp>0.00</temp>
<bpm>0</bpm>
<rpm>0.00</rpm>
</extensions>
</trkpt>
<trkpt lat="63.937374115" lon="-21.000696182">
<ele>33.332031</ele>
<time>2012-07-27T17:50:23Z</time>
<speed>0.010000</speed>
<extensions>
<speed>0.0</speed>
<temp>0.00</temp>
<bpm>0</bpm>
<rpm>0.00</rpm>
</extensions>
</trkpt>
<trkpt lat="63.937374115" lon="-21.000696182">
<ele>33.328125</ele>
<time>2012-07-27T17:50:28Z</time>
<speed>0.010000</speed>
<extensions>
<speed>0.0</speed>
<temp>0.00</temp>
<bpm>0</bpm>
<rpm>0.00</rpm>
</extensions>
</trkpt>
<trkpt lat="63.937374115" lon="-21.000696182">
<ele>33.333008</ele>
<time>2012-07-27T17:50:33Z</time>
<extensions>
<speed>0.0</speed>
<temp>0.00</temp>
<bpm>0</bpm>
<rpm>0.00</rpm>
</extensions>
</trkpt>
<trkpt lat="63.937374115" lon="-21.000696182">
<ele>33.327148</ele>
<time>2012-07-27T17:50:38Z</time>
<speed>0.010000</speed>
<extensions>
<speed>0.0</speed>
<temp>0.00</temp>
<bpm>0</bpm>
<rpm>0.00</rpm>
</extensions>
</trkpt>
<trkpt lat="63.937374115" lon="-21.000694275">
<ele>33.323242</ele>
<time>2012-07-27T17:50:43Z</time>
<extensions>
<speed>0.0</speed>
<temp>0.00</temp>
<bpm>0</bpm>
<rpm>0.00</rpm>
</extensions>
</trkpt>
<trkpt lat="63.937374115" lon="-21.000694275">
<ele>33.329102</ele>
<time>2012-07-27T17:50:48Z</time>
<speed>0.010000</speed>
<extensions>
<speed>0.0</speed>
<temp>0.00</temp>
<bpm>0</bpm>
<rpm>0.00</rpm>
</extensions>
</trkpt>
<trkpt lat="63.937377930" lon="-21.000694275">
<ele>33.319336</ele>
<time>2012-07-27T17:50:53Z</time>
<speed>0.010000</speed>
<extensions>
<speed>0.0</speed>
<temp>0.00</temp>
<bpm>0</bpm>
<rpm>0.00</rpm>
</extensions>
</trkpt>
<trkpt lat="63.937377930" lon="-21.000694275">
<ele>33.286133</ele>
<time>2012-07-27T17:50:58Z</time>
<extensions>
<speed>0.0</speed>
<temp>0.00</temp>
<bpm>0</bpm>
<rpm>0.00</rpm>
</extensions>
</trkpt>
<trkpt lat="63.937377930" lon="-21.000694275">
<ele>33.245117</ele>
<time>2012-07-27T17:51:03Z</time>
<extensions>
<speed>0.0</speed>
<temp>0.00</temp>
<bpm>0</bpm>
<rpm>0.00</rpm>
</extensions>
</trkpt>
<trkpt lat="63.937377930" lon="-21.000694275">
<ele>33.204102</ele>
<time>2012-07-27T17:51:08Z</time>
<extensions>
<speed>0.0</speed>
<temp>0.00</temp>
<bpm>0</bpm>
<rpm>0.00</rpm>
</extensions>
</trkpt>
<trkpt lat="63.937377930" lon="-21.000694275">
<ele>33.165039</ele>
<time>2012-07-27T17:51:13Z</time>
<extensions>
<speed>0.0</speed>
<temp>0.00</temp>
<bpm>0</bpm>
<rpm>0.00</rpm>
</extensions>
</trkpt>
<trkpt lat="63.937377930" lon="-21.000692368">
<ele>33.136719</ele>
<time>2012-07-27T17:51:18Z</time>
<extensions>
<speed>0.0</speed>
<temp>0.00</temp>
<bpm>0</bpm>
<rpm>0.00</rpm>
</extensions>
</trkpt>
<trkpt lat="63.937377930" lon="-21.000692368">
<ele>33.128906</ele>
<time>2012-07-27T17:51:23Z</time>
<speed>0.010000</speed>
<extensions>
<speed>0.0</speed>
<temp>0.00</temp>
<bpm>0</bpm>
<rpm>0.00</rpm>
</extensions>
</trkpt>
<trkpt lat="63.937377930" lon="-21.000692368">
<ele>33.117188</ele>
<time>2012-07-27T17:51:28Z</time>
<speed>0.010000</speed>
<extensions>
<speed>0.0</speed>
<temp>0.00</temp>
<bpm>0</bpm>
<rpm>0.00</rpm>
</extensions>
</trkpt>
<trkpt lat="63.937377930" lon="-21.000692368">
<ele>33.113281</ele>
<time>2012-07-27T17:51:33Z</time>
<speed>0.010000</speed>
<extensions>
<speed>0.0</speed>
<temp>0.00</temp>
<bpm>0</bpm>
<rpm>0.00</rpm>
</extensions>
</trkpt>
<trkpt lat="63.937377930" lon="-21.000692368">
<ele>33.117188</ele>
<time>2012-07-27T17:51:38Z</time>
<extensions>
<speed>0.0</speed>
<temp>0.00</temp>
<bpm>0</bpm>
<rpm>0.00</rpm>
</extensions>
</trkpt>
<trkpt lat="63.937377930" lon="-21.000692368">
<ele>33.136719</ele>
<time>2012-07-27T17:51:43Z</time>
<extensions>
<speed>0.0</speed>
<temp>0.00</temp>
<bpm>0</bpm>
<rpm>0.00</rpm>
</extensions>
</trkpt>
<trkpt lat="63.937377930" lon="-21.000692368">
<ele>33.149414</ele>
<time>2012-07-27T17:51:48Z</time>
<extensions>
<speed>0.0</speed>
<temp>0.00</temp>
<bpm>0</bpm>
<rpm>0.00</rpm>
</extensions>
</trkpt>
<trkpt lat="63.937377930" lon="-21.000692368">
<ele>33.149414</ele>
<time>2012-07-27T17:51:53Z</time>
<extensions>
<speed>0.0</speed>
<temp>0.00</temp>
<bpm>0</bpm>
<rpm>0.00</rpm>
</extensions>
</trkpt>
<trkpt lat="63.937377930" lon="-21.000690460">
<ele>33.143555</ele>
<time>2012-07-27T17:51:58Z</time>
<speed>0.010000</speed>
<extensions>
<speed>0.0</speed>
<temp>0.00</temp>
<bpm>0</bpm>
<rpm>0.00</rpm>
</extensions>
</trkpt>
<trkpt lat="63.937377930" lon="-21.000690460">
<ele>33.131836</ele>
<time>2012-07-27T17:52:03Z</time>
<extensions>
<speed>0.0</speed>
<temp>0.00</temp>
<bpm>0</bpm>
<rpm>0.00</rpm>
</extensions>
</trkpt>
<trkpt lat="63.937377930" lon="-21.000690460">
<ele>33.114258</ele>
<time>2012-07-27T17:52:08Z</time>
<extensions>
<speed>0.0</speed>
<temp>0.00</temp>
<bpm>0</bpm>
<rpm>0.00</rpm>
</extensions>
</trkpt>
<trkpt lat="63.937377930" lon="-21.000688553">
<ele>33.108398</ele>
<time>2012-07-27T17:52:13Z</time>
<speed>0.010000</speed>
<extensions>
<speed>0.0</speed>
<temp>0.00</temp>
<bpm>0</bpm>
<rpm>0.00</rpm>
</extensions>
</trkpt>
<trkpt lat="63.937377930" lon="-21.000688553">
<ele>33.109375</ele>
<time>2012-07-27T17:52:18Z</time>
<speed>0.020000</speed>
<extensions>
<speed>0.0</speed>
<temp>0.00</temp>
<bpm>0</bpm>
<rpm>0.00</rpm>
</extensions>
</trkpt>
<trkpt lat="63.937377930" lon="-21.000688553">
<ele>33.101563</ele>
<time>2012-07-27T17:52:23Z</time>
<extensions>
<speed>0.0</speed>
<temp>0.00</temp>
<bpm>0</bpm>
<rpm>0.00</rpm>
</extensions>
</trkpt>
<trkpt lat="63.937377930" lon="-21.000688553">
<ele>33.098633</ele>
<time>2012-07-27T17:52:28Z</time>
<extensions>
<speed>0.0</speed>
<temp>0.00</temp>
<bpm>0</bpm>
<rpm>0.00</rpm>
</extensions>
</trkpt>
<trkpt lat="63.937377930" lon="-21.000688553">
<ele>33.102539</ele>
<time>2012-07-27T17:52:33Z</time>
<extensions>
<speed>0.0</speed>
<temp>0.00</temp>
<bpm>0</bpm>
<rpm>0.00</rpm>
</extensions>
</trkpt>
<trkpt lat="63.937377930" lon="-21.000686646">
<ele>33.098633</ele>
<time>2012-07-27T17:52:38Z</time>
<extensions>
<speed>0.0</speed>
<temp>0.00</temp>
<bpm>0</bpm>
<rpm>0.00</rpm>
</extensions>
</trkpt>
<trkpt lat="63.937377930" lon="-21.000686646">
<ele>33.089844</ele>
<time>2012-07-27T17:52:43Z</time>
<extensions>
<speed>0.0</speed>
<temp>0.00</temp>
<bpm>0</bpm>
<rpm>0.00</rpm>
</extensions>
</trkpt>
<trkpt lat="63.937377930" lon="-21.000686646">
<ele>33.077148</ele>
<time>2012-07-27T17:52:48Z</time>
<extensions>
<speed>0.0</speed>
<temp>0.00</temp>
<bpm>0</bpm>
<rpm>0.00</rpm>
</extensions>
</trkpt>
<trkpt lat="63.937377930" lon="-21.000686646">
<ele>33.062500</ele>
<time>2012-07-27T17:52:53Z</time>
<speed>0.010000</speed>
<extensions>
<speed>0.0</speed>
<temp>0.00</temp>
<bpm>0</bpm>
<rpm>0.00</rpm>
</extensions>
</trkpt>
<trkpt lat="63.937377930" lon="-21.000686646">
<ele>33.045898</ele>
<time>2012-07-27T17:52:58Z</time>
<extensions>
<speed>0.0</speed>
<temp>0.00</temp>
<bpm>0</bpm>
<rpm>0.00</rpm>
</extensions>
</trkpt>
<trkpt lat="63.937377930" lon="-21.000686646">
<ele>33.029297</ele>
<time>2012-07-27T17:53:03Z</time>
<extensions>
<speed>0.0</speed>
<temp>0.00</temp>
<bpm>0</bpm>
<rpm>0.00</rpm>
</extensions>
</trkpt>
<trkpt lat="63.937377930" lon="-21.000684738">
<ele>33.014648</ele>
<time>2012-07-27T17:53:08Z</time>
<extensions>
<speed>0.0</speed>
<temp>0.00</temp>
<bpm>0</bpm>
<rpm>0.00</rpm>
</extensions>
</trkpt>
<trkpt lat="63.937377930" lon="-21.000684738">
<ele>33.000000</ele>
<time>2012-07-27T17:53:13Z</time>
<speed>0.010000</speed>
<extensions>
<speed>0.0</speed>
<temp>0.00</temp>
<bpm>0</bpm>
<rpm>0.00</rpm>
</extensions>
</trkpt>
<trkpt lat="63.937377930" lon="-21.000684738">
<ele>32.978516</ele>
<time>2012-07-27T17:53:18Z</time>
<speed>0.010000</speed>
<extensions>
<speed>0.0</speed>
<temp>0.00</temp>
<bpm>0</bpm>
<rpm>0.00</rpm>
</extensions>
</trkpt>
<trkpt lat="63.937377930" lon="-21.000684738">
<ele>32.965820</ele>
<time>2012-07-27T17:53:23Z</time>
<speed>0.010000</speed>
<extensions>
<speed>0.0</speed>
<temp>0.00</temp>
<bpm>0</bpm>
<rpm>0.00</rpm>
</extensions>
</trkpt>
<trkpt lat="63.937377930" lon="-21.000682831">
<ele>32.958984</ele>
<time>2012-07-27T17:53:28Z</time>
<extensions>
<speed>0.0</speed>
<temp>0.00</temp>
<bpm>0</bpm>
<rpm>0.00</rpm>
</extensions>
</trkpt>
<trkpt lat="63.937377930" lon="-21.000682831">
<ele>32.956055</ele>
<time>2012-07-27T17:53:33Z</time>
<extensions>
<speed>0.0</speed>
<temp>0.00</temp>
<bpm>0</bpm>
<rpm>0.00</rpm>
</extensions>
</trkpt>
<trkpt lat="63.937377930" lon="-21.000682831">
<ele>32.957031</ele>
<time>2012-07-27T17:53:38Z</time>
<extensions>
<speed>0.0</speed>
<temp>0.00</temp>
<bpm>0</bpm>
<rpm>0.00</rpm>
</extensions>
</trkpt>
<trkpt lat="63.937377930" lon="-21.000682831">
<ele>32.955078</ele>
<time>2012-07-27T17:53:43Z</time>
<extensions>
<speed>0.0</speed>
<temp>0.00</temp>
<bpm>0</bpm>
<rpm>0.00</rpm>
</extensions>
</trkpt>
<trkpt lat="63.937377930" lon="-21.000682831">
<ele>32.953125</ele>
<time>2012-07-27T17:53:48Z</time>
<extensions>
<speed>0.0</speed>
<temp>0.00</temp>
<bpm>0</bpm>
<rpm>0.00</rpm>
</extensions>
</trkpt>
<trkpt lat="63.937374115" lon="-21.000682831">
<ele>32.944336</ele>
<time>2012-07-27T17:53:53Z</time>
<extensions>
<speed>0.0</speed>
<temp>0.00</temp>
<bpm>0</bpm>
<rpm>0.00</rpm>
</extensions>
</trkpt>
<trkpt lat="63.937374115" lon="-21.000682831">
<ele>32.932617</ele>
<time>2012-07-27T17:53:58Z</time>
<speed>0.010000</speed>
<extensions>
<speed>0.0</speed>
<temp>0.00</temp>
<bpm>0</bpm>
<rpm>0.00</rpm>
</extensions>
</trkpt>
<trkpt lat="63.937374115" lon="-21.000682831">
<ele>32.905273</ele>
<time>2012-07-27T17:54:03Z</time>
<extensions>
<speed>0.0</speed>
<temp>0.00</temp>
<bpm>0</bpm>
<rpm>0.00</rpm>
</extensions>
</trkpt>
<trkpt lat="63.937377930" lon="-21.000682831">
<ele>32.885742</ele>
<time>2012-07-27T17:54:08Z</time>
<extensions>
<speed>0.0</speed>
<temp>0.00</temp>
<bpm>0</bpm>
<rpm>0.00</rpm>
</extensions>
</trkpt>
<trkpt lat="63.937377930" lon="-21.000682831">
<ele>32.889648</ele>
<time>2012-07-27T17:54:13Z</time>
<extensions>
<speed>0.0</speed>
<temp>0.00</temp>
<bpm>0</bpm>
<rpm>0.00</rpm>
</extensions>
</trkpt>
<trkpt lat="63.937377930" lon="-21.000682831">
<ele>32.894531</ele>
<time>2012-07-27T17:54:18Z</time>
<extensions>
<speed>0.0</speed>
<temp>0.00</temp>
<bpm>0</bpm>
<rpm>0.00</rpm>
</extensions>
</trkpt>
<trkpt lat="63.937377930" lon="-21.000682831">
<ele>32.922852</ele>
<time>2012-07-27T17:54:23Z</time>
<extensions>
<speed>0.0</speed>
<temp>0.00</temp>
<bpm>0</bpm>
<rpm>0.00</rpm>
</extensions>
</trkpt>
<trkpt lat="63.937377930" lon="-21.000682831">
<ele>32.933594</ele>
<time>2012-07-27T17:54:28Z</time>
<extensions>
<speed>0.0</speed>
<temp>0.00</temp>
<bpm>0</bpm>
<rpm>0.00</rpm>
</extensions>
</trkpt>
<trkpt lat="63.937377930" lon="-21.000680923">
<ele>32.940430</ele>
<time>2012-07-27T17:54:33Z</time>
<extensions>
<speed>0.0</speed>
<temp>0.00</temp>
<bpm>0</bpm>
<rpm>0.00</rpm>
</extensions>
</trkpt>
<trkpt lat="63.937377930" lon="-21.000680923">
<ele>32.935547</ele>
<time>2012-07-27T17:54:38Z</time>
<extensions>
<speed>0.0</speed>
<temp>0.00</temp>
<bpm>0</bpm>
<rpm>0.00</rpm>
</extensions>
</trkpt>
<trkpt lat="63.937377930" lon="-21.000680923">
<ele>32.924805</ele>
<time>2012-07-27T17:54:43Z</time>
<speed>0.010000</speed>
<extensions>
<speed>0.0</speed>
<temp>0.00</temp>
<bpm>0</bpm>
<rpm>0.00</rpm>
</extensions>
</trkpt>
<trkpt lat="63.937377930" lon="-21.000680923">
<ele>32.913086</ele>
<time>2012-07-27T17:54:48Z</time>
<extensions>
<speed>0.0</speed>
<temp>0.00</temp>
<bpm>0</bpm>
<rpm>0.00</rpm>
</extensions>
</trkpt>
<trkpt lat="63.937377930" lon="-21.000680923">
<ele>32.905273</ele>
<time>2012-07-27T17:54:53Z</time>
<extensions>
<speed>0.0</speed>
<temp>0.00</temp>
<bpm>0</bpm>
<rpm>0.00</rpm>
</extensions>
</trkpt>
<trkpt lat="63.937377930" lon="-21.000680923">
<ele>32.898438</ele>
<time>2012-07-27T17:54:58Z</time>
<speed>0.010000</speed>
<extensions>
<speed>0.0</speed>
<temp>0.00</temp>
<bpm>0</bpm>
<rpm>0.00</rpm>
</extensions>
</trkpt>
<trkpt lat="63.937377930" lon="-21.000680923">
<ele>32.888672</ele>
<time>2012-07-27T17:55:03Z</time>
<speed>0.010000</speed>
<extensions>
<speed>0.0</speed>
<temp>0.00</temp>
<bpm>0</bpm>
<rpm>0.00</rpm>
</extensions>
</trkpt>
<trkpt lat="63.937377930" lon="-21.000680923">
<ele>32.893555</ele>
<time>2012-07-27T17:55:08Z</time>
<extensions>
<speed>0.0</speed>
<temp>0.00</temp>
<bpm>0</bpm>
<rpm>0.00</rpm>
</extensions>
</trkpt>
<trkpt lat="63.937377930" lon="-21.000680923">
<ele>32.881836</ele>
<time>2012-07-27T17:55:13Z</time>
<extensions>
<speed>0.0</speed>
<temp>0.00</temp>
<bpm>0</bpm>
<rpm>0.00</rpm>
</extensions>
</trkpt>
<trkpt lat="63.937377930" lon="-21.000679016">
<ele>32.889648</ele>
<time>2012-07-27T17:55:18Z</time>
<extensions>
<speed>0.0</speed>
<temp>0.00</temp>
<bpm>0</bpm>
<rpm>0.00</rpm>
</extensions>
</trkpt>
<trkpt lat="63.937377930" lon="-21.000679016">
<ele>32.901367</ele>
<time>2012-07-27T17:55:23Z</time>
<extensions>
<speed>0.0</speed>
<temp>0.00</temp>
<bpm>0</bpm>
<rpm>0.00</rpm>
</extensions>
</trkpt>
<trkpt lat="63.937377930" lon="-21.000679016">
<ele>32.845703</ele>
<time>2012-07-27T17:55:28Z</time>
<extensions>
<speed>0.0</speed>
<temp>0.00</temp>
<bpm>0</bpm>
<rpm>0.00</rpm>
</extensions>
</trkpt>
<trkpt lat="63.937377930" lon="-21.000679016">
<ele>32.876953</ele>
<time>2012-07-27T17:55:33Z</time>
<extensions>
<speed>0.0</speed>
<temp>0.00</temp>
<bpm>0</bpm>
<rpm>0.00</rpm>
</extensions>
</trkpt>
<trkpt lat="63.937374115" lon="-21.000679016">
<ele>32.891602</ele>
<time>2012-07-27T17:55:38Z</time>
<extensions>
<speed>0.0</speed>
<temp>0.00</temp>
<bpm>0</bpm>
<rpm>0.00</rpm>
</extensions>
</trkpt>
<trkpt lat="63.937377930" lon="-21.000679016">
<ele>32.904297</ele>
<time>2012-07-27T17:55:43Z</time>
<speed>0.010000</speed>
<extensions>
<speed>0.0</speed>
<temp>0.00</temp>
<bpm>0</bpm>
<rpm>0.00</rpm>
</extensions>
</trkpt>
<trkpt lat="63.937377930" lon="-21.000679016">
<ele>32.894531</ele>
<time>2012-07-27T17:55:48Z</time>
<extensions>
<speed>0.0</speed>
<temp>0.00</temp>
<bpm>0</bpm>
<rpm>0.00</rpm>
</extensions>
</trkpt>
<trkpt lat="63.937377930" lon="-21.000679016">
<ele>32.907227</ele>
<time>2012-07-27T17:55:53Z</time>
<speed>0.010000</speed>
<extensions>
<speed>0.0</speed>
<temp>0.00</temp>
<bpm>0</bpm>
<rpm>0.00</rpm>
</extensions>
</trkpt>
<trkpt lat="63.937377930" lon="-21.000679016">
<ele>32.909180</ele>
<time>2012-07-27T17:55:58Z</time>
<extensions>
<speed>0.0</speed>
<temp>0.00</temp>
<bpm>0</bpm>
<rpm>0.00</rpm>
</extensions>
</trkpt>
<trkpt lat="63.937377930" lon="-21.000679016">
<ele>32.908203</ele>
<time>2012-07-27T17:56:03Z</time>
<extensions>
<speed>0.0</speed>
<temp>0.00</temp>
<bpm>0</bpm>
<rpm>0.00</rpm>
</extensions>
</trkpt>
<trkpt lat="63.937377930" lon="-21.000679016">
<ele>32.912109</ele>
<time>2012-07-27T17:56:08Z</time>
<extensions>
<speed>0.0</speed>
<temp>0.00</temp>
<bpm>0</bpm>
<rpm>0.00</rpm>
</extensions>
</trkpt>
<trkpt lat="63.937377930" lon="-21.000679016">
<ele>32.946289</ele>
<time>2012-07-27T17:56:13Z</time>
<extensions>
<speed>0.0</speed>
<temp>0.00</temp>
<bpm>0</bpm>
<rpm>0.00</rpm>
</extensions>
</trkpt>
<trkpt lat="63.937377930" lon="-21.000679016">
<ele>32.974609</ele>
<time>2012-07-27T17:56:18Z</time>
<extensions>
<speed>0.0</speed>
<temp>0.00</temp>
<bpm>0</bpm>
<rpm>0.00</rpm>
</extensions>
</trkpt>
<trkpt lat="63.937377930" lon="-21.000679016">
<ele>32.996094</ele>
<time>2012-07-27T17:56:23Z</time>
<speed>0.010000</speed>
<extensions>
<speed>0.0</speed>
<temp>0.00</temp>
<bpm>0</bpm>
<rpm>0.00</rpm>
</extensions>
</trkpt>
<trkpt lat="63.937377930" lon="-21.000679016">
<ele>33.012695</ele>
<time>2012-07-27T17:56:28Z</time>
<extensions>
<speed>0.0</speed>
<temp>0.00</temp>
<bpm>0</bpm>
<rpm>0.00</rpm>
</extensions>
</trkpt>
<trkpt lat="63.937377930" lon="-21.000679016">
<ele>33.017578</ele>
<time>2012-07-27T17:56:33Z</time>
<speed>0.010000</speed>
<extensions>
<speed>0.0</speed>
<temp>0.00</temp>
<bpm>0</bpm>
<rpm>0.00</rpm>
</extensions>
</trkpt>
<trkpt lat="63.937377930" lon="-21.000679016">
<ele>33.022461</ele>
<time>2012-07-27T17:56:38Z</time>
<speed>0.010000</speed>
<extensions>
<speed>0.0</speed>
<temp>0.00</temp>
<bpm>0</bpm>
<rpm>0.00</rpm>
</extensions>
</trkpt>
<trkpt lat="63.937377930" lon="-21.000679016">
<ele>33.029297</ele>
<time>2012-07-27T17:56:43Z</time>
<speed>0.010000</speed>
<extensions>
<speed>0.0</speed>
<temp>0.00</temp>
<bpm>0</bpm>
<rpm>0.00</rpm>
</extensions>
</trkpt>
<trkpt lat="63.937377930" lon="-21.000679016">
<ele>33.041016</ele>
<time>2012-07-27T17:56:48Z</time>
<extensions>
<speed>0.0</speed>
<temp>0.00</temp>
<bpm>0</bpm>
<rpm>0.00</rpm>
</extensions>
</trkpt>
<trkpt lat="63.937377930" lon="-21.000679016">
<ele>33.060547</ele>
<time>2012-07-27T17:56:53Z</time>
<extensions>
<speed>0.0</speed>
<temp>0.00</temp>
<bpm>0</bpm>
<rpm>0.00</rpm>
</extensions>
</trkpt>
<trkpt lat="63.937377930" lon="-21.000679016">
<ele>33.099609</ele>
<time>2012-07-27T17:56:58Z</time>
<speed>0.010000</speed>
<extensions>
<speed>0.0</speed>
<temp>0.00</temp>
<bpm>0</bpm>
<rpm>0.00</rpm>
</extensions>
</trkpt>
<trkpt lat="63.937377930" lon="-21.000679016">
<ele>33.196289</ele>
<time>2012-07-27T17:57:03Z</time>
<extensions>
<speed>0.0</speed>
<temp>0.00</temp>
<bpm>0</bpm>
<rpm>0.00</rpm>
</extensions>
</trkpt>
<trkpt lat="63.937377930" lon="-21.000679016">
<ele>33.309570</ele>
<time>2012-07-27T17:57:08Z</time>
<extensions>
<speed>0.0</speed>
<temp>0.00</temp>
<bpm>0</bpm>
<rpm>0.00</rpm>
</extensions>
</trkpt>
<trkpt lat="63.937377930" lon="-21.000679016">
<ele>33.406250</ele>
<time>2012-07-27T17:57:13Z</time>
<speed>0.010000</speed>
<extensions>
<speed>0.0</speed>
<temp>0.00</temp>
<bpm>0</bpm>
<rpm>0.00</rpm>
</extensions>
</trkpt>
<trkpt lat="63.937377930" lon="-21.000679016">
<ele>33.437500</ele>
<time>2012-07-27T17:57:18Z</time>
<speed>0.010000</speed>
<extensions>
<speed>0.0</speed>
<temp>0.00</temp>
<bpm>0</bpm>
<rpm>0.00</rpm>
</extensions>
</trkpt>
<trkpt lat="63.937377930" lon="-21.000679016">
<ele>33.422852</ele>
<time>2012-07-27T17:57:23Z</time>
<extensions>
<speed>0.0</speed>
<temp>0.00</temp>
<bpm>0</bpm>
<rpm>0.00</rpm>
</extensions>
</trkpt>
<trkpt lat="63.937377930" lon="-21.000677109">
<ele>33.441406</ele>
<time>2012-07-27T17:57:28Z</time>
<extensions>
<speed>0.0</speed>
<temp>0.00</temp>
<bpm>0</bpm>
<rpm>0.00</rpm>
</extensions>
</trkpt>
<trkpt lat="63.937377930" lon="-21.000677109">
<ele>33.473633</ele>
<time>2012-07-27T17:57:33Z</time>
<extensions>
<speed>0.0</speed>
<temp>0.00</temp>
<bpm>0</bpm>
<rpm>0.00</rpm>
</extensions>
</trkpt>
<trkpt lat="63.937377930" lon="-21.000679016">
<ele>33.496094</ele>
<time>2012-07-27T17:57:38Z</time>
<speed>0.010000</speed>
<extensions>
<speed>0.0</speed>
<temp>0.00</temp>
<bpm>0</bpm>
<rpm>0.00</rpm>
</extensions>
</trkpt>
<trkpt lat="63.937377930" lon="-21.000679016">
<ele>33.517578</ele>
<time>2012-07-27T17:57:43Z</time>
<extensions>
<speed>0.0</speed>
<temp>0.00</temp>
<bpm>0</bpm>
<rpm>0.00</rpm>
</extensions>
</trkpt>
<trkpt lat="63.937377930" lon="-21.000679016">
<ele>33.537109</ele>
<time>2012-07-27T17:57:48Z</time>
<speed>0.010000</speed>
<extensions>
<speed>0.0</speed>
<temp>0.00</temp>
<bpm>0</bpm>
<rpm>0.00</rpm>
</extensions>
</trkpt>
<trkpt lat="63.937377930" lon="-21.000679016">
<ele>33.537109</ele>
<time>2012-07-27T17:57:53Z</time>
<speed>0.020000</speed>
<extensions>
<speed>0.0</speed>
<temp>0.00</temp>
<bpm>0</bpm>
<rpm>0.00</rpm>
</extensions>
</trkpt>
<trkpt lat="63.937377930" lon="-21.000679016">
<ele>33.528320</ele>
<time>2012-07-27T17:57:58Z</time>
<extensions>
<speed>0.0</speed>
<temp>0.00</temp>
<bpm>0</bpm>
<rpm>0.00</rpm>
</extensions>
</trkpt>
<trkpt lat="63.937377930" lon="-21.000679016">
<ele>33.523438</ele>
<time>2012-07-27T17:58:03Z</time>
<extensions>
<speed>0.0</speed>
<temp>0.00</temp>
<bpm>0</bpm>
<rpm>0.00</rpm>
</extensions>
</trkpt>
<trkpt lat="63.937377930" lon="-21.000679016">
<ele>33.524414</ele>
<time>2012-07-27T17:58:08Z</time>
<extensions>
<speed>0.0</speed>
<temp>0.00</temp>
<bpm>0</bpm>
<rpm>0.00</rpm>
</extensions>
</trkpt>
<trkpt lat="63.937377930" lon="-21.000679016">
<ele>33.514648</ele>
<time>2012-07-27T17:58:13Z</time>
<extensions>
<speed>0.0</speed>
<temp>0.00</temp>
<bpm>0</bpm>
<rpm>0.00</rpm>
</extensions>
</trkpt>
<trkpt lat="63.937377930" lon="-21.000677109">
<ele>33.478516</ele>
<time>2012-07-27T17:58:18Z</time>
<speed>0.010000</speed>
<extensions>
<speed>0.0</speed>
<temp>0.00</temp>
<bpm>0</bpm>
<rpm>0.00</rpm>
</extensions>
</trkpt>
<trkpt lat="63.937377930" lon="-21.000677109">
<ele>33.401367</ele>
<time>2012-07-27T17:58:23Z</time>
<speed>0.010000</speed>
<extensions>
<speed>0.0</speed>
<temp>0.00</temp>
<bpm>0</bpm>
<rpm>0.00</rpm>
</extensions>
</trkpt>
<trkpt lat="63.937377930" lon="-21.000675201">
<ele>33.294922</ele>
<time>2012-07-27T17:58:28Z</time>
<speed>0.010000</speed>
<extensions>
<speed>0.0</speed>
<temp>0.00</temp>
<bpm>0</bpm>
<rpm>0.00</rpm>
</extensions>
</trkpt>
<trkpt lat="63.937377930" lon="-21.000675201">
<ele>33.259766</ele>
<time>2012-07-27T17:58:33Z</time>
<speed>0.010000</speed>
<extensions>
<speed>0.0</speed>
<temp>0.00</temp>
<bpm>0</bpm>
<rpm>0.00</rpm>
</extensions>
</trkpt>
<trkpt lat="63.937377930" lon="-21.000675201">
<ele>33.243164</ele>
<time>2012-07-27T17:58:38Z</time>
<speed>0.010000</speed>
<extensions>
<speed>0.0</speed>
<temp>0.00</temp>
<bpm>0</bpm>
<rpm>0.00</rpm>
</extensions>
</trkpt>
<trkpt lat="63.937377930" lon="-21.000675201">
<ele>33.235352</ele>
<time>2012-07-27T17:58:43Z</time>
<extensions>
<speed>0.0</speed>
<temp>0.00</temp>
<bpm>0</bpm>
<rpm>0.00</rpm>
</extensions>
</trkpt>
<trkpt lat="63.937377930" lon="-21.000675201">
<ele>33.240234</ele>
<time>2012-07-27T17:58:48Z</time>
<speed>0.020000</speed>
<extensions>
<speed>0.0</speed>
<temp>0.00</temp>
<bpm>0</bpm>
<rpm>0.00</rpm>
</extensions>
</trkpt>
<trkpt lat="63.937377930" lon="-21.000675201">
<ele>33.246094</ele>
<time>2012-07-27T17:58:53Z</time>
<extensions>
<speed>0.0</speed>
<temp>0.00</temp>
<bpm>0</bpm>
<rpm>0.00</rpm>
</extensions>
</trkpt>
<trkpt lat="63.937377930" lon="-21.000675201">
<ele>33.244141</ele>
<time>2012-07-27T17:58:58Z</time>
<speed>0.010000</speed>
<extensions>
<speed>0.0</speed>
<temp>0.00</temp>
<bpm>0</bpm>
<rpm>0.00</rpm>
</extensions>
</trkpt>
<trkpt lat="63.937377930" lon="-21.000673294">
<ele>33.233398</ele>
<time>2012-07-27T17:59:03Z</time>
<extensions>
<speed>0.0</speed>
<temp>0.00</temp>
<bpm>0</bpm>
<rpm>0.00</rpm>
</extensions>
</trkpt>
<trkpt lat="63.937377930" lon="-21.000673294">
<ele>33.212891</ele>
<time>2012-07-27T17:59:08Z</time>
<speed>0.010000</speed>
<extensions>
<speed>0.0</speed>
<temp>0.00</temp>
<bpm>0</bpm>
<rpm>0.00</rpm>
</extensions>
</trkpt>
<trkpt lat="63.937377930" lon="-21.000673294">
<ele>33.191406</ele>
<time>2012-07-27T17:59:13Z</time>
<speed>0.010000</speed>
<extensions>
<speed>0.0</speed>
<temp>0.00</temp>
<bpm>0</bpm>
<rpm>0.00</rpm>
</extensions>
</trkpt>
<trkpt lat="63.937377930" lon="-21.000673294">
<ele>33.169922</ele>
<time>2012-07-27T17:59:18Z</time>
<extensions>
<speed>0.0</speed>
<temp>0.00</temp>
<bpm>0</bpm>
<rpm>0.00</rpm>
</extensions>
</trkpt>
<trkpt lat="63.937381744" lon="-21.000673294">
<ele>33.148438</ele>
<time>2012-07-27T17:59:23Z</time>
<extensions>
<speed>0.0</speed>
<temp>0.00</temp>
<bpm>0</bpm>
<rpm>0.00</rpm>
</extensions>
</trkpt>
<trkpt lat="63.937381744" lon="-21.000671387">
<ele>33.124023</ele>
<time>2012-07-27T17:59:28Z</time>
<extensions>
<speed>0.0</speed>
<temp>0.00</temp>
<bpm>0</bpm>
<rpm>0.00</rpm>
</extensions>
</trkpt>
<trkpt lat="63.937377930" lon="-21.000671387">
<ele>33.100586</ele>
<time>2012-07-27T17:59:33Z</time>
<speed>0.010000</speed>
<extensions>
<speed>0.0</speed>
<temp>0.00</temp>
<bpm>0</bpm>
<rpm>0.00</rpm>
</extensions>
</trkpt>
<trkpt lat="63.937377930" lon="-21.000671387">
<ele>33.091797</ele>
<time>2012-07-27T17:59:38Z</time>
<extensions>
<speed>0.0</speed>
<temp>0.00</temp>
<bpm>0</bpm>
<rpm>0.00</rpm>
</extensions>
</trkpt>
<trkpt lat="63.937377930" lon="-21.000671387">
<ele>33.081055</ele>
<time>2012-07-27T17:59:43Z</time>
<extensions>
<speed>0.0</speed>
<temp>0.00</temp>
<bpm>0</bpm>
<rpm>0.00</rpm>
</extensions>
</trkpt>
<trkpt lat="63.937377930" lon="-21.000671387">
<ele>33.062500</ele>
<time>2012-07-27T17:59:48Z</time>
<extensions>
<speed>0.0</speed>
<temp>0.00</temp>
<bpm>0</bpm>
<rpm>0.00</rpm>
</extensions>
</trkpt>
<trkpt lat="63.937381744" lon="-21.000671387">
<ele>33.041992</ele>
<time>2012-07-27T17:59:53Z</time>
<extensions>
<speed>0.0</speed>
<temp>0.00</temp>
<bpm>0</bpm>
<rpm>0.00</rpm>
</extensions>
</trkpt>
<trkpt lat="63.937381744" lon="-21.000671387">
<ele>33.033203</ele>
<time>2012-07-27T17:59:58Z</time>
<extensions>
<speed>0.0</speed>
<temp>0.00</temp>
<bpm>0</bpm>
<rpm>0.00</rpm>
</extensions>
</trkpt>
<trkpt lat="63.937381744" lon="-21.000669479">
<ele>32.982422</ele>
<time>2012-07-27T18:00:03Z</time>
<speed>0.010000</speed>
<extensions>
<speed>0.0</speed>
<temp>0.00</temp>
<bpm>0</bpm>
<rpm>0.00</rpm>
</extensions>
</trkpt>
<trkpt lat="63.937381744" lon="-21.000669479">
<ele>32.928711</ele>
<time>2012-07-27T18:00:08Z</time>
<speed>0.020000</speed>
<extensions>
<speed>0.0</speed>
<temp>0.00</temp>
<bpm>0</bpm>
<rpm>0.00</rpm>
</extensions>
</trkpt>
<trkpt lat="63.937381744" lon="-21.000669479">
<ele>32.893555</ele>
<time>2012-07-27T18:00:13Z</time>
<extensions>
<speed>0.0</speed>
<temp>0.00</temp>
<bpm>0</bpm>
<rpm>0.00</rpm>
</extensions>
</trkpt>
<trkpt lat="63.937381744" lon="-21.000667572">
<ele>32.873047</ele>
<time>2012-07-27T18:00:18Z</time>
<extensions>
<speed>0.0</speed>
<temp>0.00</temp>
<bpm>0</bpm>
<rpm>0.00</rpm>
</extensions>
</trkpt>
<trkpt lat="63.937381744" lon="-21.000667572">
<ele>32.865234</ele>
<time>2012-07-27T18:00:23Z</time>
<extensions>
<speed>0.0</speed>
<temp>0.00</temp>
<bpm>0</bpm>
<rpm>0.00</rpm>
</extensions>
</trkpt>
<trkpt lat="63.937381744" lon="-21.000667572">
<ele>32.860352</ele>
<time>2012-07-27T18:00:28Z</time>
<extensions>
<speed>0.0</speed>
<temp>0.00</temp>
<bpm>0</bpm>
<rpm>0.00</rpm>
</extensions>
</trkpt>
<trkpt lat="63.937381744" lon="-21.000667572">
<ele>32.839844</ele>
<time>2012-07-27T18:00:33Z</time>
<extensions>
<speed>0.0</speed>
<temp>0.00</temp>
<bpm>0</bpm>
<rpm>0.00</rpm>
</extensions>
</trkpt>
<trkpt lat="63.937381744" lon="-21.000665665">
<ele>32.815430</ele>
<time>2012-07-27T18:00:38Z</time>
<speed>0.010000</speed>
<extensions>
<speed>0.0</speed>
<temp>0.00</temp>
<bpm>0</bpm>
<rpm>0.00</rpm>
</extensions>
</trkpt>
<trkpt lat="63.937381744" lon="-21.000665665">
<ele>32.777344</ele>
<time>2012-07-27T18:00:43Z</time>
<extensions>
<speed>0.0</speed>
<temp>0.00</temp>
<bpm>0</bpm>
<rpm>0.00</rpm>
</extensions>
</trkpt>
<trkpt lat="63.937381744" lon="-21.000665665">
<ele>32.746094</ele>
<time>2012-07-27T18:00:48Z</time>
<extensions>
<speed>0.0</speed>
<temp>0.00</temp>
<bpm>0</bpm>
<rpm>0.00</rpm>
</extensions>
</trkpt>
<trkpt lat="63.937381744" lon="-21.000665665">
<ele>32.697266</ele>
<time>2012-07-27T18:00:53Z</time>
<speed>0.010000</speed>
<extensions>
<speed>0.0</speed>
<temp>0.00</temp>
<bpm>0</bpm>
<rpm>0.00</rpm>
</extensions>
</trkpt>
<trkpt lat="63.937381744" lon="-21.000663757">
<ele>32.636719</ele>
<time>2012-07-27T18:00:58Z</time>
<speed>0.020000</speed>
<extensions>
<speed>0.0</speed>
<temp>0.00</temp>
<bpm>0</bpm>
<rpm>0.00</rpm>
</extensions>
</trkpt>
<trkpt lat="63.937381744" lon="-21.000663757">
<ele>32.552734</ele>
<time>2012-07-27T18:01:03Z</time>
<speed>0.010000</speed>
<extensions>
<speed>0.0</speed>
<temp>0.00</temp>
<bpm>0</bpm>
<rpm>0.00</rpm>
</extensions>
</trkpt>
<trkpt lat="63.937381744" lon="-21.000661850">
<ele>32.460938</ele>
<time>2012-07-27T18:01:08Z</time>
<extensions>
<speed>0.0</speed>
<temp>0.00</temp>
<bpm>0</bpm>
<rpm>0.00</rpm>
</extensions>
</trkpt>
<trkpt lat="63.937381744" lon="-21.000661850">
<ele>32.434570</ele>
<time>2012-07-27T18:01:13Z</time>
<speed>0.010000</speed>
<extensions>
<speed>0.0</speed>
<temp>0.00</temp>
<bpm>0</bpm>
<rpm>0.00</rpm>
</extensions>
</trkpt>
<trkpt lat="63.937381744" lon="-21.000661850">
<ele>32.415039</ele>
<time>2012-07-27T18:01:18Z</time>
<extensions>
<speed>0.0</speed>
<temp>0.00</temp>
<bpm>0</bpm>
<rpm>0.00</rpm>
</extensions>
</trkpt>
<trkpt lat="63.937377930" lon="-21.000661850">
<ele>32.394531</ele>
<time>2012-07-27T18:01:23Z</time>
<extensions>
<speed>0.0</speed>
<temp>0.00</temp>
<bpm>0</bpm>
<rpm>0.00</rpm>
</extensions>
</trkpt>
<trkpt lat="63.937377930" lon="-21.000661850">
<ele>32.372070</ele>
<time>2012-07-27T18:01:28Z</time>
<extensions>
<speed>0.0</speed>
<temp>0.00</temp>
<bpm>0</bpm>
<rpm>0.00</rpm>
</extensions>
</trkpt>
<trkpt lat="63.937377930" lon="-21.000659943">
<ele>32.337891</ele>
<time>2012-07-27T18:01:33Z</time>
<extensions>
<speed>0.0</speed>
<temp>0.00</temp>
<bpm>0</bpm>
<rpm>0.00</rpm>
</extensions>
</trkpt>
<trkpt lat="63.937381744" lon="-21.000659943">
<ele>32.306641</ele>
<time>2012-07-27T18:01:38Z</time>
<extensions>
<speed>0.0</speed>
<temp>0.00</temp>
<bpm>0</bpm>
<rpm>0.00</rpm>
</extensions>
</trkpt>
<trkpt lat="63.937381744" lon="-21.000659943">
<ele>32.274414</ele>
<time>2012-07-27T18:01:43Z</time>
<extensions>
<speed>0.0</speed>
<temp>0.00</temp>
<bpm>0</bpm>
<rpm>0.00</rpm>
</extensions>
</trkpt>
<trkpt lat="63.937381744" lon="-21.000659943">
<ele>32.247070</ele>
<time>2012-07-27T18:01:48Z</time>
<extensions>
<speed>0.0</speed>
<temp>0.00</temp>
<bpm>0</bpm>
<rpm>0.00</rpm>
</extensions>
</trkpt>
<trkpt lat="63.937381744" lon="-21.000658035">
<ele>32.228516</ele>
<time>2012-07-27T18:01:53Z</time>
<extensions>
<speed>0.0</speed>
<temp>0.00</temp>
<bpm>0</bpm>
<rpm>0.00</rpm>
</extensions>
</trkpt>
<trkpt lat="63.937381744" lon="-21.000658035">
<ele>32.219727</ele>
<time>2012-07-27T18:01:58Z</time>
<extensions>
<speed>0.0</speed>
<temp>0.00</temp>
<bpm>0</bpm>
<rpm>0.00</rpm>
</extensions>
</trkpt>
<trkpt lat="63.937381744" lon="-21.000658035">
<ele>32.213867</ele>
<time>2012-07-27T18:02:03Z</time>
<extensions>
<speed>0.0</speed>
<temp>0.00</temp>
<bpm>0</bpm>
<rpm>0.00</rpm>
</extensions>
</trkpt>
<trkpt lat="63.937381744" lon="-21.000658035">
<ele>32.206055</ele>
<time>2012-07-27T18:02:08Z</time>
<extensions>
<speed>0.0</speed>
<temp>0.00</temp>
<bpm>0</bpm>
<rpm>0.00</rpm>
</extensions>
</trkpt>
<trkpt lat="63.937381744" lon="-21.000658035">
<ele>32.207031</ele>
<time>2012-07-27T18:02:13Z</time>
<extensions>
<speed>0.0</speed>
<temp>0.00</temp>
<bpm>0</bpm>
<rpm>0.00</rpm>
</extensions>
</trkpt>
<trkpt lat="63.937381744" lon="-21.000658035">
<ele>32.220703</ele>
<time>2012-07-27T18:02:18Z</time>
<extensions>
<speed>0.0</speed>
<temp>0.00</temp>
<bpm>0</bpm>
<rpm>0.00</rpm>
</extensions>
</trkpt>
<trkpt lat="63.937381744" lon="-21.000658035">
<ele>32.235352</ele>
<time>2012-07-27T18:02:23Z</time>
<speed>0.010000</speed>
<extensions>
<speed>0.0</speed>
<temp>0.00</temp>
<bpm>0</bpm>
<rpm>0.00</rpm>
</extensions>
</trkpt>
<trkpt lat="63.937381744" lon="-21.000658035">
<ele>32.242188</ele>
<time>2012-07-27T18:02:28Z</time>
<extensions>
<speed>0.0</speed>
<temp>0.00</temp>
<bpm>0</bpm>
<rpm>0.00</rpm>
</extensions>
</trkpt>
<trkpt lat="63.937381744" lon="-21.000656128">
<ele>32.242188</ele>
<time>2012-07-27T18:02:33Z</time>
<speed>0.010000</speed>
<extensions>
<speed>0.0</speed>
<temp>0.00</temp>
<bpm>0</bpm>
<rpm>0.00</rpm>
</extensions>
</trkpt>
<trkpt lat="63.937381744" lon="-21.000656128">
<ele>32.244141</ele>
<time>2012-07-27T18:02:38Z</time>
<speed>0.010000</speed>
<extensions>
<speed>0.0</speed>
<temp>0.00</temp>
<bpm>0</bpm>
<rpm>0.00</rpm>
</extensions>
</trkpt>
<trkpt lat="63.937381744" lon="-21.000656128">
<ele>32.249023</ele>
<time>2012-07-27T18:02:43Z</time>
<extensions>
<speed>0.0</speed>
<temp>0.00</temp>
<bpm>0</bpm>
<rpm>0.00</rpm>
</extensions>
</trkpt>
<trkpt lat="63.937381744" lon="-21.000656128">
<ele>32.252930</ele>
<time>2012-07-27T18:02:48Z</time>
<extensions>
<speed>0.0</speed>
<temp>0.00</temp>
<bpm>0</bpm>
<rpm>0.00</rpm>
</extensions>
</trkpt>
<trkpt lat="63.937381744" lon="-21.000656128">
<ele>32.252930</ele>
<time>2012-07-27T18:02:53Z</time>
<speed>0.010000</speed>
<extensions>
<speed>0.0</speed>
<temp>0.00</temp>
<bpm>0</bpm>
<rpm>0.00</rpm>
</extensions>
</trkpt>
<trkpt lat="63.937385559" lon="-21.000656128">
<ele>32.258789</ele>
<time>2012-07-27T18:02:58Z</time>
<extensions>
<speed>0.0</speed>
<temp>0.00</temp>
<bpm>0</bpm>
<rpm>0.00</rpm>
</extensions>
</trkpt>
<trkpt lat="63.937385559" lon="-21.000656128">
<ele>32.264648</ele>
<time>2012-07-27T18:03:03Z</time>
<extensions>
<speed>0.0</speed>
<temp>0.00</temp>
<bpm>0</bpm>
<rpm>0.00</rpm>
</extensions>
</trkpt>
<trkpt lat="63.937385559" lon="-21.000654221">
<ele>32.277344</ele>
<time>2012-07-27T18:03:08Z</time>
<extensions>
<speed>0.0</speed>
<temp>0.00</temp>
<bpm>0</bpm>
<rpm>0.00</rpm>
</extensions>
</trkpt>
<trkpt lat="63.937385559" lon="-21.000654221">
<ele>32.296875</ele>
<time>2012-07-27T18:03:13Z</time>
<extensions>
<speed>0.0</speed>
<temp>0.00</temp>
<bpm>0</bpm>
<rpm>0.00</rpm>
</extensions>
</trkpt>
<trkpt lat="63.937385559" lon="-21.000654221">
<ele>32.296875</ele>
<time>2012-07-27T18:03:18Z</time>
<extensions>
<speed>0.0</speed>
<temp>0.00</temp>
<bpm>0</bpm>
<rpm>0.00</rpm>
</extensions>
</trkpt>
<trkpt lat="63.937385559" lon="-21.000654221">
<ele>32.311523</ele>
<time>2012-07-27T18:03:23Z</time>
<extensions>
<speed>0.0</speed>
<temp>0.00</temp>
<bpm>0</bpm>
<rpm>0.00</rpm>
</extensions>
</trkpt>
<trkpt lat="63.937385559" lon="-21.000654221">
<ele>32.351563</ele>
<time>2012-07-27T18:03:28Z</time>
<extensions>
<speed>0.0</speed>
<temp>0.00</temp>
<bpm>0</bpm>
<rpm>0.00</rpm>
</extensions>
</trkpt>
<trkpt lat="63.937385559" lon="-21.000654221">
<ele>32.377930</ele>
<time>2012-07-27T18:03:33Z</time>
<speed>0.010000</speed>
<extensions>
<speed>0.0</speed>
<temp>0.00</temp>
<bpm>0</bpm>
<rpm>0.00</rpm>
</extensions>
</trkpt>
<trkpt lat="63.937389374" lon="-21.000654221">
<ele>32.388672</ele>
<time>2012-07-27T18:03:38Z</time>
<extensions>
<speed>0.0</speed>
<temp>0.00</temp>
<bpm>0</bpm>
<rpm>0.00</rpm>
</extensions>
</trkpt>
<trkpt lat="63.937389374" lon="-21.000654221">
<ele>32.425781</ele>
<time>2012-07-27T18:03:43Z</time>
<extensions>
<speed>0.0</speed>
<temp>0.00</temp>
<bpm>0</bpm>
<rpm>0.00</rpm>
</extensions>
</trkpt>
<trkpt lat="63.937389374" lon="-21.000654221">
<ele>32.457031</ele>
<time>2012-07-27T18:03:48Z</time>
<extensions>
<speed>0.0</speed>
<temp>0.00</temp>
<bpm>0</bpm>
<rpm>0.00</rpm>
</extensions>
</trkpt>
<trkpt lat="63.937389374" lon="-21.000654221">
<ele>32.481445</ele>
<time>2012-07-27T18:03:53Z</time>
<extensions>
<speed>0.0</speed>
<temp>0.00</temp>
<bpm>0</bpm>
<rpm>0.00</rpm>
</extensions>
</trkpt>
<trkpt lat="63.937389374" lon="-21.000654221">
<ele>32.499023</ele>
<time>2012-07-27T18:03:58Z</time>
<extensions>
<speed>0.0</speed>
<temp>0.00</temp>
<bpm>0</bpm>
<rpm>0.00</rpm>
</extensions>
</trkpt>
<trkpt lat="63.937389374" lon="-21.000654221">
<ele>32.513672</ele>
<time>2012-07-27T18:04:03Z</time>
<extensions>
<speed>0.0</speed>
<temp>0.00</temp>
<bpm>0</bpm>
<rpm>0.00</rpm>
</extensions>
</trkpt>
<trkpt lat="63.937389374" lon="-21.000654221">
<ele>32.524414</ele>
<time>2012-07-27T18:04:08Z</time>
<extensions>
<speed>0.0</speed>
<temp>0.00</temp>
<bpm>0</bpm>
<rpm>0.00</rpm>
</extensions>
</trkpt>
<trkpt lat="63.937389374" lon="-21.000654221">
<ele>32.541992</ele>
<time>2012-07-27T18:04:13Z</time>
<extensions>
<speed>0.0</speed>
<temp>0.00</temp>
<bpm>0</bpm>
<rpm>0.00</rpm>
</extensions>
</trkpt>
<trkpt lat="63.937389374" lon="-21.000654221">
<ele>32.568359</ele>
<time>2012-07-27T18:04:18Z</time>
<extensions>
<speed>0.0</speed>
<temp>0.00</temp>
<bpm>0</bpm>
<rpm>0.00</rpm>
</extensions>
</trkpt>
<trkpt lat="63.937393188" lon="-21.000654221">
<ele>32.591797</ele>
<time>2012-07-27T18:04:23Z</time>
<extensions>
<speed>0.0</speed>
<temp>0.00</temp>
<bpm>0</bpm>
<rpm>0.00</rpm>
</extensions>
</trkpt>
<trkpt lat="63.937393188" lon="-21.000654221">
<ele>32.609375</ele>
<time>2012-07-27T18:04:28Z</time>
<speed>0.010000</speed>
<extensions>
<speed>0.0</speed>
<temp>0.00</temp>
<bpm>0</bpm>
<rpm>0.00</rpm>
</extensions>
</trkpt>
<trkpt lat="63.937393188" lon="-21.000654221">
<ele>32.627930</ele>
<time>2012-07-27T18:04:33Z</time>
<extensions>
<speed>0.0</speed>
<temp>0.00</temp>
<bpm>0</bpm>
<rpm>0.00</rpm>
</extensions>
</trkpt>
<trkpt lat="63.937393188" lon="-21.000652313">
<ele>32.640625</ele>
<time>2012-07-27T18:04:38Z</time>
<speed>0.010000</speed>
<extensions>
<speed>0.0</speed>
<temp>0.00</temp>
<bpm>0</bpm>
<rpm>0.00</rpm>
</extensions>
</trkpt>
<trkpt lat="63.937393188" lon="-21.000652313">
<ele>32.643555</ele>
<time>2012-07-27T18:04:43Z</time>
<extensions>
<speed>0.0</speed>
<temp>0.00</temp>
<bpm>0</bpm>
<rpm>0.00</rpm>
</extensions>
</trkpt>
<trkpt lat="63.937393188" lon="-21.000652313">
<ele>32.650391</ele>
<time>2012-07-27T18:04:48Z</time>
<extensions>
<speed>0.0</speed>
<temp>0.00</temp>
<bpm>0</bpm>
<rpm>0.00</rpm>
</extensions>
</trkpt>
<trkpt lat="63.937393188" lon="-21.000652313">
<ele>32.663086</ele>
<time>2012-07-27T18:04:53Z</time>
<extensions>
<speed>0.0</speed>
<temp>0.00</temp>
<bpm>0</bpm>
<rpm>0.00</rpm>
</extensions>
</trkpt>
<trkpt lat="63.937393188" lon="-21.000652313">
<ele>32.684570</ele>
<time>2012-07-27T18:04:58Z</time>
<extensions>
<speed>0.0</speed>
<temp>0.00</temp>
<bpm>0</bpm>
<rpm>0.00</rpm>
</extensions>
</trkpt>
<trkpt lat="63.937393188" lon="-21.000652313">
<ele>32.690430</ele>
<time>2012-07-27T18:05:03Z</time>
<speed>0.010000</speed>
<extensions>
<speed>0.0</speed>
<temp>0.00</temp>
<bpm>0</bpm>
<rpm>0.00</rpm>
</extensions>
</trkpt>
<trkpt lat="63.937393188" lon="-21.000652313">
<ele>32.697266</ele>
<time>2012-07-27T18:05:08Z</time>
<extensions>
<speed>0.0</speed>
<temp>0.00</temp>
<bpm>0</bpm>
<rpm>0.00</rpm>
</extensions>
</trkpt>
<trkpt lat="63.937393188" lon="-21.000654221">
<ele>32.701172</ele>
<time>2012-07-27T18:05:13Z</time>
<extensions>
<speed>0.0</speed>
<temp>0.00</temp>
<bpm>0</bpm>
<rpm>0.00</rpm>
</extensions>
</trkpt>
<trkpt lat="63.937393188" lon="-21.000654221">
<ele>32.707031</ele>
<time>2012-07-27T18:05:18Z</time>
<speed>0.010000</speed>
<extensions>
<speed>0.0</speed>
<temp>0.00</temp>
<bpm>0</bpm>
<rpm>0.00</rpm>
</extensions>
</trkpt>
<trkpt lat="63.937397003" lon="-21.000652313">
<ele>32.716797</ele>
<time>2012-07-27T18:05:23Z</time>
<extensions>
<speed>0.0</speed>
<temp>0.00</temp>
<bpm>0</bpm>
<rpm>0.00</rpm>
</extensions>
</trkpt>
<trkpt lat="63.937397003" lon="-21.000652313">
<ele>32.719727</ele>
<time>2012-07-27T18:05:28Z</time>
<speed>0.010000</speed>
<extensions>
<speed>0.0</speed>
<temp>0.00</temp>
<bpm>0</bpm>
<rpm>0.00</rpm>
</extensions>
</trkpt>
<trkpt lat="63.937397003" lon="-21.000652313">
<ele>32.714844</ele>
<time>2012-07-27T18:05:33Z</time>
<extensions>
<speed>0.0</speed>
<temp>0.00</temp>
<bpm>0</bpm>
<rpm>0.00</rpm>
</extensions>
</trkpt>
<trkpt lat="63.937397003" lon="-21.000652313">
<ele>32.720703</ele>
<time>2012-07-27T18:05:38Z</time>
<speed>0.030000</speed>
<extensions>
<speed>0.0</speed>
<temp>0.00</temp>
<bpm>0</bpm>
<rpm>0.00</rpm>
</extensions>
</trkpt>
<trkpt lat="63.937397003" lon="-21.000652313">
<ele>32.722656</ele>
<time>2012-07-27T18:05:43Z</time>
<speed>0.010000</speed>
<extensions>
<speed>0.0</speed>
<temp>0.00</temp>
<bpm>0</bpm>
<rpm>0.00</rpm>
</extensions>
</trkpt>
<trkpt lat="63.937397003" lon="-21.000652313">
<ele>32.718750</ele>
<time>2012-07-27T18:05:48Z</time>
<extensions>
<speed>0.0</speed>
<temp>0.00</temp>
<bpm>0</bpm>
<rpm>0.00</rpm>
</extensions>
</trkpt>
<trkpt lat="63.937397003" lon="-21.000652313">
<ele>32.723633</ele>
<time>2012-07-27T18:05:53Z</time>
<speed>0.020000</speed>
<extensions>
<speed>0.0</speed>
<temp>0.00</temp>
<bpm>0</bpm>
<rpm>0.00</rpm>
</extensions>
</trkpt>
<trkpt lat="63.937397003" lon="-21.000652313">
<ele>32.730469</ele>
<time>2012-07-27T18:05:58Z</time>
<speed>0.020000</speed>
<extensions>
<speed>0.0</speed>
<temp>0.00</temp>
<bpm>0</bpm>
<rpm>0.00</rpm>
</extensions>
</trkpt>
<trkpt lat="63.937397003" lon="-21.000652313">
<ele>32.744141</ele>
<time>2012-07-27T18:06:03Z</time>
<speed>0.010000</speed>
<extensions>
<speed>0.0</speed>
<temp>0.00</temp>
<bpm>0</bpm>
<rpm>0.00</rpm>
</extensions>
</trkpt>
<trkpt lat="63.937397003" lon="-21.000650406">
<ele>32.770508</ele>
<time>2012-07-27T18:06:08Z</time>
<speed>0.030000</speed>
<extensions>
<speed>0.0</speed>
<temp>0.00</temp>
<bpm>0</bpm>
<rpm>0.00</rpm>
</extensions>
</trkpt>
<trkpt lat="63.937397003" lon="-21.000648499">
<ele>32.807617</ele>
<time>2012-07-27T18:06:13Z</time>
<speed>0.030000</speed>
<extensions>
<speed>0.0</speed>
<temp>0.00</temp>
<bpm>0</bpm>
<rpm>0.00</rpm>
</extensions>
</trkpt>
<trkpt lat="63.937400818" lon="-21.000650406">
<ele>32.840820</ele>
<time>2012-07-27T18:06:18Z</time>
<speed>0.040000</speed>
<extensions>
<speed>0.0</speed>
<temp>0.00</temp>
<bpm>0</bpm>
<rpm>0.00</rpm>
</extensions>
</trkpt>
<trkpt lat="63.937400818" lon="-21.000654221">
<ele>32.869141</ele>
<time>2012-07-27T18:06:23Z</time>
<speed>0.040000</speed>
<extensions>
<speed>0.0</speed>
<temp>0.00</temp>
<bpm>0</bpm>
<rpm>0.00</rpm>
</extensions>
</trkpt>
<trkpt lat="63.937400818" lon="-21.000658035">
<ele>32.905273</ele>
<time>2012-07-27T18:06:28Z</time>
<speed>0.070000</speed>
<extensions>
<speed>0.1</speed>
<temp>0.00</temp>
<bpm>0</bpm>
<rpm>0.00</rpm>
</extensions>
</trkpt>
<trkpt lat="63.937400818" lon="-21.000663757">
<ele>32.967773</ele>
<time>2012-07-27T18:06:33Z</time>
<speed>0.080000</speed>
<extensions>
<speed>0.1</speed>
<temp>0.00</temp>
<bpm>0</bpm>
<rpm>0.00</rpm>
</extensions>
</trkpt>
<trkpt lat="63.937404633" lon="-21.000663757">
<ele>33.026367</ele>
<time>2012-07-27T18:06:38Z</time>
<speed>0.010000</speed>
<extensions>
<speed>0.0</speed>
<temp>0.00</temp>
<bpm>0</bpm>
<rpm>0.00</rpm>
</extensions>
</trkpt>
<trkpt lat="63.937408447" lon="-21.000663757">
<ele>33.049805</ele>
<time>2012-07-27T18:06:43Z</time>
<extensions>
<speed>0.0</speed>
<temp>0.00</temp>
<bpm>0</bpm>
<rpm>0.00</rpm>
</extensions>
</trkpt>
<trkpt lat="63.937408447" lon="-21.000663757">
<ele>33.048828</ele>
<time>2012-07-27T18:06:48Z</time>
<speed>0.010000</speed>
<extensions>
<speed>0.0</speed>
<temp>0.00</temp>
<bpm>0</bpm>
<rpm>0.00</rpm>
</extensions>
</trkpt>
<trkpt lat="63.937408447" lon="-21.000663757">
<ele>33.034180</ele>
<time>2012-07-27T18:06:53Z</time>
<speed>0.010000</speed>
<extensions>
<speed>0.0</speed>
<temp>0.00</temp>
<bpm>0</bpm>
<rpm>0.00</rpm>
</extensions>
</trkpt>
<trkpt lat="63.937408447" lon="-21.000665665">
<ele>33.009766</ele>
<time>2012-07-27T18:06:58Z</time>
<extensions>
<speed>0.0</speed>
<temp>0.00</temp>
<bpm>0</bpm>
<rpm>0.00</rpm>
</extensions>
</trkpt>
<trkpt lat="63.937408447" lon="-21.000663757">
<ele>33.002930</ele>
<time>2012-07-27T18:07:03Z</time>
<speed>0.010000</speed>
<extensions>
<speed>0.0</speed>
<temp>0.00</temp>
<bpm>0</bpm>
<rpm>0.00</rpm>
</extensions>
</trkpt>
<trkpt lat="63.937408447" lon="-21.000661850">
<ele>33.023438</ele>
<time>2012-07-27T18:07:08Z</time>
<speed>0.010000</speed>
<extensions>
<speed>0.0</speed>
<temp>0.00</temp>
<bpm>0</bpm>
<rpm>0.00</rpm>
</extensions>
</trkpt>
<trkpt lat="63.937408447" lon="-21.000659943">
<ele>33.068359</ele>
<time>2012-07-27T18:07:13Z</time>
<speed>0.010000</speed>
<extensions>
<speed>0.0</speed>
<temp>0.00</temp>
<bpm>0</bpm>
<rpm>0.00</rpm>
</extensions>
</trkpt>
<trkpt lat="63.937408447" lon="-21.000659943">
<ele>33.157227</ele>
<time>2012-07-27T18:07:18Z</time>
<speed>0.010000</speed>
<extensions>
<speed>0.0</speed>
<temp>0.00</temp>
<bpm>0</bpm>
<rpm>0.00</rpm>
</extensions>
</trkpt>
<trkpt lat="63.937408447" lon="-21.000656128">
<ele>33.266602</ele>
<time>2012-07-27T18:07:23Z</time>
<speed>0.060000</speed>
<extensions>
<speed>0.1</speed>
<temp>0.00</temp>
<bpm>0</bpm>
<rpm>0.00</rpm>
</extensions>
</trkpt>
<trkpt lat="63.937408447" lon="-21.000648499">
<ele>33.348633</ele>
<time>2012-07-27T18:07:28Z</time>
<speed>0.110000</speed>
<extensions>
<speed>0.1</speed>
<temp>0.00</temp>
<bpm>0</bpm>
<rpm>0.00</rpm>
</extensions>
</trkpt>
<trkpt lat="63.937404633" lon="-21.000637054">
<ele>33.391602</ele>
<time>2012-07-27T18:07:33Z</time>
<speed>0.120000</speed>
<extensions>
<speed>0.1</speed>
<temp>0.00</temp>
<bpm>0</bpm>
<rpm>0.00</rpm>
</extensions>
</trkpt>
<trkpt lat="63.937404633" lon="-21.000621796">
<ele>33.404297</ele>
<time>2012-07-27T18:07:38Z</time>
<speed>0.140000</speed>
<extensions>
<speed>0.1</speed>
<temp>0.00</temp>
<bpm>0</bpm>
<rpm>0.00</rpm>
</extensions>
</trkpt>
<trkpt lat="63.937400818" lon="-21.000616074">
<ele>33.323242</ele>
<time>2012-07-27T18:07:43Z</time>
<speed>0.090000</speed>
<extensions>
<speed>0.1</speed>
<temp>0.00</temp>
<bpm>0</bpm>
<rpm>0.00</rpm>
</extensions>
</trkpt>
<trkpt lat="63.937397003" lon="-21.000616074">
<ele>33.202148</ele>
<time>2012-07-27T18:07:48Z</time>
<speed>0.030000</speed>
<extensions>
<speed>0.0</speed>
<temp>0.00</temp>
<bpm>0</bpm>
<rpm>0.00</rpm>
</extensions>
</trkpt>
<trkpt lat="63.937397003" lon="-21.000616074">
<ele>33.299805</ele>
<time>2012-07-27T18:07:53Z</time>
<speed>0.040000</speed>
<extensions>
<speed>0.0</speed>
<temp>0.00</temp>
<bpm>0</bpm>
<rpm>0.00</rpm>
</extensions>
</trkpt>
<trkpt lat="63.937400818" lon="-21.000617981">
<ele>33.438477</ele>
<time>2012-07-27T18:07:58Z</time>
<extensions>
<speed>0.0</speed>
<temp>0.00</temp>
<bpm>0</bpm>
<rpm>0.00</rpm>
</extensions>
</trkpt>
<trkpt lat="63.937400818" lon="-21.000617981">
<ele>33.471680</ele>
<time>2012-07-27T18:08:03Z</time>
<extensions>
<speed>0.0</speed>
<temp>0.00</temp>
<bpm>0</bpm>
<rpm>0.00</rpm>
</extensions>
</trkpt>
<trkpt lat="63.937400818" lon="-21.000617981">
<ele>33.484375</ele>
<time>2012-07-27T18:08:08Z</time>
<extensions>
<speed>0.0</speed>
<temp>0.00</temp>
<bpm>0</bpm>
<rpm>0.00</rpm>
</extensions>
</trkpt>
<trkpt lat="63.937400818" lon="-21.000617981">
<ele>33.502930</ele>
<time>2012-07-27T18:08:13Z</time>
<speed>0.010000</speed>
<extensions>
<speed>0.0</speed>
<temp>0.00</temp>
<bpm>0</bpm>
<rpm>0.00</rpm>
</extensions>
</trkpt>
<trkpt lat="63.937400818" lon="-21.000619888">
<ele>33.498047</ele>
<time>2012-07-27T18:08:18Z</time>
<speed>0.020000</speed>
<extensions>
<speed>0.0</speed>
<temp>0.00</temp>
<bpm>0</bpm>
<rpm>0.00</rpm>
</extensions>
</trkpt>
<trkpt lat="63.937404633" lon="-21.000621796">
<ele>33.493164</ele>
<time>2012-07-27T18:08:23Z</time>
<speed>0.040000</speed>
<extensions>
<speed>0.0</speed>
<temp>0.00</temp>
<bpm>0</bpm>
<rpm>0.00</rpm>
</extensions>
</trkpt>
<trkpt lat="63.937404633" lon="-21.000621796">
<ele>33.531250</ele>
<time>2012-07-27T18:08:28Z</time>
<speed>0.030000</speed>
<extensions>
<speed>0.0</speed>
<temp>0.00</temp>
<bpm>0</bpm>
<rpm>0.00</rpm>
</extensions>
</trkpt>
<trkpt lat="63.937400818" lon="-21.000619888">
<ele>33.565430</ele>
<time>2012-07-27T18:08:33Z</time>
<speed>0.040000</speed>
<extensions>
<speed>0.0</speed>
<temp>0.00</temp>
<bpm>0</bpm>
<rpm>0.00</rpm>
</extensions>
</trkpt>
<trkpt lat="63.937400818" lon="-21.000616074">
<ele>33.574219</ele>
<time>2012-07-27T18:08:38Z</time>
<speed>0.030000</speed>
<extensions>
<speed>0.0</speed>
<temp>0.00</temp>
<bpm>0</bpm>
<rpm>0.00</rpm>
</extensions>
</trkpt>
<trkpt lat="63.937400818" lon="-21.000616074">
<ele>33.453125</ele>
<time>2012-07-27T18:08:43Z</time>
<speed>0.020000</speed>
<extensions>
<speed>0.0</speed>
<temp>0.00</temp>
<bpm>0</bpm>
<rpm>0.00</rpm>
</extensions>
</trkpt>
<trkpt lat="63.937400818" lon="-21.000616074">
<ele>33.478516</ele>
<time>2012-07-27T18:08:48Z</time>
<speed>0.060000</speed>
<extensions>
<speed>0.1</speed>
<temp>0.00</temp>
<bpm>0</bpm>
<rpm>0.00</rpm>
</extensions>
</trkpt>
<trkpt lat="63.937400818" lon="-21.000616074">
<ele>33.473633</ele>
<time>2012-07-27T18:08:53Z</time>
<speed>0.040000</speed>
<extensions>
<speed>0.0</speed>
<temp>0.00</temp>
<bpm>0</bpm>
<rpm>0.00</rpm>
</extensions>
</trkpt>
<trkpt lat="63.937397003" lon="-21.000627518">
<ele>33.490234</ele>
<time>2012-07-27T18:08:58Z</time>
<speed>0.190000</speed>
<extensions>
<speed>0.2</speed>
<temp>0.00</temp>
<bpm>0</bpm>
<rpm>0.00</rpm>
</extensions>
</trkpt>
<trkpt lat="63.937397003" lon="-21.000625610">
<ele>33.494141</ele>
<time>2012-07-27T18:09:03Z</time>
<speed>0.210000</speed>
<extensions>
<speed>0.2</speed>
<temp>0.00</temp>
<bpm>0</bpm>
<rpm>0.00</rpm>
</extensions>
</trkpt>
<trkpt lat="63.937393188" lon="-21.000633240">
<ele>32.027344</ele>
<time>2012-07-27T18:09:08Z</time>
<speed>0.560000</speed>
<extensions>
<speed>0.6</speed>
<temp>0.00</temp>
<bpm>0</bpm>
<rpm>0.00</rpm>
</extensions>
</trkpt>
<trkpt lat="63.937377930" lon="-21.000642776">
<ele>28.581543</ele>
<time>2012-07-27T18:09:13Z</time>
<speed>0.710000</speed>
<extensions>
<speed>0.7</speed>
<temp>0.00</temp>
<bpm>0</bpm>
<rpm>0.00</rpm>
</extensions>
</trkpt>
<trkpt lat="63.937343597" lon="-21.000736237">
<ele>27.401367</ele>
<time>2012-07-27T18:09:18Z</time>
<speed>1.910000</speed>
<extensions>
<speed>1.9</speed>
<temp>0.00</temp>
<bpm>0</bpm>
<rpm>0.00</rpm>
</extensions>
</trkpt>
<trkpt lat="63.937343597" lon="-21.000892639">
<ele>25.469238</ele>
<time>2012-07-27T18:09:23Z</time>
<speed>1.410000</speed>
<extensions>
<speed>1.4</speed>
<temp>0.00</temp>
<bpm>0</bpm>
<rpm>0.00</rpm>
</extensions>
</trkpt>
<trkpt lat="63.937347412" lon="-21.001127243">
<ele>25.063965</ele>
<time>2012-07-27T18:09:28Z</time>
<speed>2.530000</speed>
<extensions>
<speed>2.5</speed>
<temp>0.00</temp>
<bpm>0</bpm>
<rpm>0.00</rpm>
</extensions>
</trkpt>
<trkpt lat="63.937366486" lon="-21.001388550">
<ele>25.587402</ele>
<time>2012-07-27T18:09:33Z</time>
<speed>2.240000</speed>
<extensions>
<speed>2.2</speed>
<temp>0.00</temp>
<bpm>0</bpm>
<rpm>0.00</rpm>
</extensions>
</trkpt>
<trkpt lat="63.937385559" lon="-21.001583099">
<ele>24.875977</ele>
<time>2012-07-27T18:09:38Z</time>
<speed>2.140000</speed>
<extensions>
<speed>2.1</speed>
<temp>0.00</temp>
<bpm>0</bpm>
<rpm>0.00</rpm>
</extensions>
</trkpt>
<trkpt lat="63.937400818" lon="-21.001810074">
<ele>22.842285</ele>
<time>2012-07-27T18:09:43Z</time>
<speed>2.210000</speed>
<extensions>
<speed>2.2</speed>
<temp>0.00</temp>
<bpm>0</bpm>
<rpm>0.00</rpm>
</extensions>
</trkpt>
<trkpt lat="63.937412262" lon="-21.002088547">
<ele>22.924316</ele>
<time>2012-07-27T18:09:48Z</time>
<speed>2.480000</speed>
<extensions>
<speed>2.5</speed>
<temp>0.00</temp>
<bpm>0</bpm>
<rpm>0.00</rpm>
</extensions>
</trkpt>
<trkpt lat="63.937427521" lon="-21.002349854">
<ele>22.942871</ele>
<time>2012-07-27T18:09:53Z</time>
<speed>2.450000</speed>
<extensions>
<speed>2.4</speed>
<temp>0.00</temp>
<bpm>0</bpm>
<rpm>0.00</rpm>
</extensions>
</trkpt>
<trkpt lat="63.937438965" lon="-21.002609253">
<ele>23.351074</ele>
<time>2012-07-27T18:09:58Z</time>
<speed>2.500000</speed>
<extensions>
<speed>2.5</speed>
<temp>0.00</temp>
<bpm>0</bpm>
<rpm>0.00</rpm>
</extensions>
</trkpt>
<trkpt lat="63.937454224" lon="-21.002744675">
<ele>23.075684</ele>
<time>2012-07-27T18:10:03Z</time>
<speed>0.220000</speed>
<extensions>
<speed>0.2</speed>
<temp>0.00</temp>
<bpm>0</bpm>
<rpm>0.00</rpm>
</extensions>
</trkpt>
<trkpt lat="63.937416077" lon="-21.002771378">
<ele>22.823730</ele>
<time>2012-07-27T18:10:08Z</time>
<speed>1.850000</speed>
<extensions>
<speed>1.8</speed>
<temp>0.00</temp>
<bpm>0</bpm>
<rpm>0.00</rpm>
</extensions>
</trkpt>
<trkpt lat="63.937358856" lon="-21.002801895">
<ele>22.076660</ele>
<time>2012-07-27T18:10:13Z</time>
<speed>2.180000</speed>
<extensions>
<speed>2.2</speed>
<temp>0.00</temp>
<bpm>0</bpm>
<rpm>0.00</rpm>
</extensions>
</trkpt>
<trkpt lat="63.937282562" lon="-21.002706528">
<ele>22.276855</ele>
<time>2012-07-27T18:10:18Z</time>
<speed>2.350000</speed>
<extensions>
<speed>2.4</speed>
<temp>0.00</temp>
<bpm>0</bpm>
<rpm>0.00</rpm>
</extensions>
</trkpt>
<trkpt lat="63.937267303" lon="-21.002426147">
<ele>22.442383</ele>
<time>2012-07-27T18:10:23Z</time>
<speed>2.760000</speed>
<extensions>
<speed>2.8</speed>
<temp>0.00</temp>
<bpm>0</bpm>
<rpm>0.00</rpm>
</extensions>
</trkpt>
<trkpt lat="63.937240601" lon="-21.002193451">
<ele>21.691406</ele>
<time>2012-07-27T18:10:28Z</time>
<speed>2.240000</speed>
<extensions>
<speed>2.2</speed>
<temp>0.00</temp>
<bpm>0</bpm>
<rpm>0.00</rpm>
</extensions>
</trkpt>
<trkpt lat="63.937221527" lon="-21.002012253">
<ele>21.933594</ele>
<time>2012-07-27T18:10:33Z</time>
<speed>1.540000</speed>
<extensions>
<speed>1.5</speed>
<temp>0.00</temp>
<bpm>0</bpm>
<rpm>0.00</rpm>
</extensions>
</trkpt>
<trkpt lat="63.937213898" lon="-21.001974106">
<ele>22.741211</ele>
<time>2012-07-27T18:10:38Z</time>
<speed>0.110000</speed>
<extensions>
<speed>0.1</speed>
<temp>0.00</temp>
<bpm>0</bpm>
<rpm>0.00</rpm>
</extensions>
</trkpt>
<trkpt lat="63.937206268" lon="-21.001962662">
<ele>22.758789</ele>
<time>2012-07-27T18:10:43Z</time>
<extensions>
<speed>0.0</speed>
<temp>0.00</temp>
<bpm>0</bpm>
<rpm>0.00</rpm>
</extensions>
</trkpt>
<trkpt lat="63.937206268" lon="-21.001962662">
<ele>22.721191</ele>
<time>2012-07-27T18:10:48Z</time>
<speed>0.020000</speed>
<extensions>
<speed>0.0</speed>
<temp>0.00</temp>
<bpm>0</bpm>
<rpm>0.00</rpm>
</extensions>
</trkpt>
<trkpt lat="63.937206268" lon="-21.001962662">
<ele>22.697754</ele>
<time>2012-07-27T18:10:53Z</time>
<extensions>
<speed>0.0</speed>
<temp>0.00</temp>
<bpm>0</bpm>
<rpm>0.00</rpm>
</extensions>
</trkpt>
<trkpt lat="63.937206268" lon="-21.001962662">
<ele>22.701172</ele>
<time>2012-07-27T18:10:58Z</time>
<extensions>
<speed>0.0</speed>
<temp>0.00</temp>
<bpm>0</bpm>
<rpm>0.00</rpm>
</extensions>
</trkpt>
<trkpt lat="63.937206268" lon="-21.001962662">
<ele>22.698730</ele>
<time>2012-07-27T18:11:03Z</time>
<extensions>
<speed>0.0</speed>
<temp>0.00</temp>
<bpm>0</bpm>
<rpm>0.00</rpm>
</extensions>
</trkpt>
<trkpt lat="63.937206268" lon="-21.001962662">
<ele>22.698242</ele>
<time>2012-07-27T18:11:08Z</time>
<speed>0.010000</speed>
<extensions>
<speed>0.0</speed>
<temp>0.00</temp>
<bpm>0</bpm>
<rpm>0.00</rpm>
</extensions>
</trkpt>
<trkpt lat="63.937206268" lon="-21.001960754">
<ele>22.695313</ele>
<time>2012-07-27T18:11:13Z</time>
<speed>0.200000</speed>
<extensions>
<speed>0.2</speed>
<temp>0.00</temp>
<bpm>0</bpm>
<rpm>0.00</rpm>
</extensions>
</trkpt>
<trkpt lat="63.937194824" lon="-21.001884460">
<ele>22.041016</ele>
<time>2012-07-27T18:11:18Z</time>
<speed>2.060000</speed>
<extensions>
<speed>2.1</speed>
<temp>0.00</temp>
<bpm>0</bpm>
<rpm>0.00</rpm>
</extensions>
</trkpt>
<trkpt lat="63.937160492" lon="-21.001674652">
<ele>19.834961</ele>
<time>2012-07-27T18:11:23Z</time>
<speed>1.970000</speed>
<extensions>
<speed>2.0</speed>
<temp>0.00</temp>
<bpm>0</bpm>
<rpm>0.00</rpm>
</extensions>
</trkpt>
<trkpt lat="63.937164307" lon="-21.001562119">
<ele>17.597656</ele>
<time>2012-07-27T18:11:28Z</time>
<speed>0.200000</speed>
<extensions>
<speed>0.2</speed>
<temp>0.00</temp>
<bpm>0</bpm>
<rpm>0.00</rpm>
</extensions>
</trkpt>
<trkpt lat="63.937183380" lon="-21.001548767">
<ele>18.160156</ele>
<time>2012-07-27T18:11:33Z</time>
<speed>0.090000</speed>
<extensions>
<speed>0.1</speed>
<temp>0.00</temp>
<bpm>0</bpm>
<rpm>0.00</rpm>
</extensions>
</trkpt>
<trkpt lat="63.937183380" lon="-21.001550674">
<ele>17.976074</ele>
<time>2012-07-27T18:11:38Z</time>
<speed>0.030000</speed>
<extensions>
<speed>0.0</speed>
<temp>0.00</temp>
<bpm>0</bpm>
<rpm>0.00</rpm>
</extensions>
</trkpt>
<trkpt lat="63.937183380" lon="-21.001550674">
<ele>17.822266</ele>
<time>2012-07-27T18:11:43Z</time>
<speed>0.040000</speed>
<extensions>
<speed>0.0</speed>
<temp>0.00</temp>
<bpm>0</bpm>
<rpm>0.00</rpm>
</extensions>
</trkpt>
<trkpt lat="63.937198639" lon="-21.001556396">
<ele>17.631836</ele>
<time>2012-07-27T18:11:48Z</time>
<speed>1.060000</speed>
<extensions>
<speed>1.1</speed>
<temp>0.00</temp>
<bpm>0</bpm>
<rpm>0.00</rpm>
</extensions>
</trkpt>
<trkpt lat="63.937271118" lon="-21.001562119">
<ele>17.224609</ele>
<time>2012-07-27T18:11:53Z</time>
<speed>2.140000</speed>
<extensions>
<speed>2.1</speed>
<temp>0.00</temp>
<bpm>0</bpm>
<rpm>0.00</rpm>
</extensions>
</trkpt>
<trkpt lat="63.937332153" lon="-21.001810074">
<ele>17.422363</ele>
<time>2012-07-27T18:11:58Z</time>
<speed>3.540000</speed>
<extensions>
<speed>3.5</speed>
<temp>0.00</temp>
<bpm>0</bpm>
<rpm>0.00</rpm>
</extensions>
</trkpt>
<trkpt lat="63.937358856" lon="-21.002197266">
<ele>17.838379</ele>
<time>2012-07-27T18:12:03Z</time>
<speed>3.740000</speed>
<extensions>
<speed>3.7</speed>
<temp>0.00</temp>
<bpm>0</bpm>
<rpm>0.00</rpm>
</extensions>
</trkpt>
<trkpt lat="63.937385559" lon="-21.002546310">
<ele>17.846680</ele>
<time>2012-07-27T18:12:08Z</time>
<speed>3.320000</speed>
<extensions>
<speed>3.3</speed>
<temp>0.00</temp>
<bpm>0</bpm>
<rpm>0.00</rpm>
</extensions>
</trkpt>
<trkpt lat="63.937423706" lon="-21.002912521">
<ele>19.181152</ele>
<time>2012-07-27T18:12:13Z</time>
<speed>4.100000</speed>
<extensions>
<speed>4.1</speed>
<temp>0.00</temp>
<bpm>0</bpm>
<rpm>0.00</rpm>
</extensions>
</trkpt>
<trkpt lat="63.937500000" lon="-21.003278732">
<ele>19.389160</ele>
<time>2012-07-27T18:12:18Z</time>
<speed>3.610000</speed>
<extensions>
<speed>3.6</speed>
<temp>0.00</temp>
<bpm>0</bpm>
<rpm>0.00</rpm>
</extensions>
</trkpt>
<trkpt lat="63.937595367" lon="-21.003490448">
<ele>18.932129</ele>
<time>2012-07-27T18:12:23Z</time>
<speed>2.920000</speed>
<extensions>
<speed>2.9</speed>
<temp>0.00</temp>
<bpm>0</bpm>
<rpm>0.00</rpm>
</extensions>
</trkpt>
<trkpt lat="63.937591553" lon="-21.003833771">
<ele>18.816406</ele>
<time>2012-07-27T18:12:28Z</time>
<speed>4.100000</speed>
<extensions>
<speed>4.1</speed>
<temp>0.00</temp>
<bpm>0</bpm>
<rpm>0.00</rpm>
</extensions>
</trkpt>
<trkpt lat="63.937442780" lon="-21.004096985">
<ele>19.054688</ele>
<time>2012-07-27T18:12:33Z</time>
<speed>3.950000</speed>
<extensions>
<speed>4.0</speed>
<temp>0.00</temp>
<bpm>0</bpm>
<rpm>0.00</rpm>
</extensions>
</trkpt>
<trkpt lat="63.937294006" lon="-21.004400253">
<ele>18.924805</ele>
<time>2012-07-27T18:12:38Z</time>
<speed>4.650000</speed>
<extensions>
<speed>4.6</speed>
<temp>0.00</temp>
<bpm>0</bpm>
<rpm>0.00</rpm>
</extensions>
</trkpt>
<trkpt lat="63.937152863" lon="-21.004766464">
<ele>19.187500</ele>
<time>2012-07-27T18:12:43Z</time>
<speed>4.980000</speed>
<extensions>
<speed>5.0</speed>
<temp>0.00</temp>
<bpm>0</bpm>
<rpm>0.00</rpm>
</extensions>
</trkpt>
<trkpt lat="63.937030792" lon="-21.005146027">
<ele>18.741211</ele>
<time>2012-07-27T18:12:48Z</time>
<speed>4.340000</speed>
<extensions>
<speed>4.3</speed>
<temp>0.00</temp>
<bpm>0</bpm>
<rpm>0.00</rpm>
</extensions>
</trkpt>
<trkpt lat="63.936927795" lon="-21.005447388">
<ele>18.727051</ele>
<time>2012-07-27T18:12:53Z</time>
<speed>3.330000</speed>
<extensions>
<speed>3.3</speed>
<temp>0.00</temp>
<bpm>0</bpm>
<rpm>0.00</rpm>
</extensions>
</trkpt>
<trkpt lat="63.936847687" lon="-21.005649567">
<ele>18.330078</ele>
<time>2012-07-27T18:12:58Z</time>
<speed>2.240000</speed>
<extensions>
<speed>2.2</speed>
<temp>0.00</temp>
<bpm>0</bpm>
<rpm>0.00</rpm>
</extensions>
</trkpt>
<trkpt lat="63.936790466" lon="-21.005807877">
<ele>17.716309</ele>
<time>2012-07-27T18:13:03Z</time>
<speed>2.450000</speed>
<extensions>
<speed>2.4</speed>
<temp>0.00</temp>
<bpm>0</bpm>
<rpm>0.00</rpm>
</extensions>
</trkpt>
<trkpt lat="63.936714172" lon="-21.006029129">
<ele>18.325684</ele>
<time>2012-07-27T18:13:08Z</time>
<speed>3.240000</speed>
<extensions>
<speed>3.2</speed>
<temp>0.00</temp>
<bpm>0</bpm>
<rpm>0.00</rpm>
</extensions>
</trkpt>
<trkpt lat="63.936607361" lon="-21.006275177">
<ele>18.905273</ele>
<time>2012-07-27T18:13:13Z</time>
<speed>3.430000</speed>
<extensions>
<speed>3.4</speed>
<temp>0.00</temp>
<bpm>0</bpm>
<rpm>0.00</rpm>
</extensions>
</trkpt>
<trkpt lat="63.936489105" lon="-21.006473541">
<ele>20.189941</ele>
<time>2012-07-27T18:13:18Z</time>
<speed>3.500000</speed>
<extensions>
<speed>3.5</speed>
<temp>0.00</temp>
<bpm>0</bpm>
<rpm>0.00</rpm>
</extensions>
</trkpt>
<trkpt lat="63.936367035" lon="-21.006666183">
<ele>20.792969</ele>
<time>2012-07-27T18:13:23Z</time>
<speed>3.410000</speed>
<extensions>
<speed>3.4</speed>
<temp>0.00</temp>
<bpm>0</bpm>
<rpm>0.00</rpm>
</extensions>
</trkpt>
<trkpt lat="63.936267853" lon="-21.006921768">
<ele>21.123047</ele>
<time>2012-07-27T18:13:28Z</time>
<speed>2.770000</speed>
<extensions>
<speed>2.8</speed>
<temp>0.00</temp>
<bpm>0</bpm>
<rpm>0.00</rpm>
</extensions>
</trkpt>
<trkpt lat="63.936210632" lon="-21.007066727">
<ele>21.499023</ele>
<time>2012-07-27T18:13:33Z</time>
<speed>0.160000</speed>
<extensions>
<speed>0.2</speed>
<temp>0.00</temp>
<bpm>0</bpm>
<rpm>0.00</rpm>
</extensions>
</trkpt>
<trkpt lat="63.936218262" lon="-21.007064819">
<ele>21.515625</ele>
<time>2012-07-27T18:13:38Z</time>
<speed>0.030000</speed>
<extensions>
<speed>0.0</speed>
<temp>0.00</temp>
<bpm>0</bpm>
<rpm>0.00</rpm>
</extensions>
</trkpt>
<trkpt lat="63.936222076" lon="-21.007066727">
<ele>21.426270</ele>
<time>2012-07-27T18:13:43Z</time>
<speed>0.010000</speed>
<extensions>
<speed>0.0</speed>
<temp>0.00</temp>
<bpm>0</bpm>
<rpm>0.00</rpm>
</extensions>
</trkpt>
<trkpt lat="63.936222076" lon="-21.007068634">
<ele>21.440430</ele>
<time>2012-07-27T18:13:48Z</time>
<speed>0.010000</speed>
<extensions>
<speed>0.0</speed>
<temp>0.00</temp>
<bpm>0</bpm>
<rpm>0.00</rpm>
</extensions>
</trkpt>
<trkpt lat="63.936222076" lon="-21.007068634">
<ele>21.420898</ele>
<time>2012-07-27T18:13:53Z</time>
<speed>0.010000</speed>
<extensions>
<speed>0.0</speed>
<temp>0.00</temp>
<bpm>0</bpm>
<rpm>0.00</rpm>
</extensions>
</trkpt>
<trkpt lat="63.936222076" lon="-21.007068634">
<ele>21.418945</ele>
<time>2012-07-27T18:13:58Z</time>
<extensions>
<speed>0.0</speed>
<temp>0.00</temp>
<bpm>0</bpm>
<rpm>0.00</rpm>
</extensions>
</trkpt>
<trkpt lat="63.936222076" lon="-21.007066727">
<ele>21.354980</ele>
<time>2012-07-27T18:14:03Z</time>
<extensions>
<speed>0.0</speed>
<temp>0.00</temp>
<bpm>0</bpm>
<rpm>0.00</rpm>
</extensions>
</trkpt>
<trkpt lat="63.936222076" lon="-21.007066727">
<ele>21.386719</ele>
<time>2012-07-27T18:14:08Z</time>
<extensions>
<speed>0.0</speed>
<temp>0.00</temp>
<bpm>0</bpm>
<rpm>0.00</rpm>
</extensions>
</trkpt>
<trkpt lat="63.936222076" lon="-21.007066727">
<ele>21.371582</ele>
<time>2012-07-27T18:14:13Z</time>
<speed>0.020000</speed>
<extensions>
<speed>0.0</speed>
<temp>0.00</temp>
<bpm>0</bpm>
<rpm>0.00</rpm>
</extensions>
</trkpt>
<trkpt lat="63.936222076" lon="-21.007066727">
<ele>21.341797</ele>
<time>2012-07-27T18:14:18Z</time>
<extensions>
<speed>0.0</speed>
<temp>0.00</temp>
<bpm>0</bpm>
<rpm>0.00</rpm>
</extensions>
</trkpt>
<trkpt lat="63.936222076" lon="-21.007068634">
<ele>21.331055</ele>
<time>2012-07-27T18:14:23Z</time>
<extensions>
<speed>0.0</speed>
<temp>0.00</temp>
<bpm>0</bpm>
<rpm>0.00</rpm>
</extensions>
</trkpt>
<trkpt lat="63.936176300" lon="-21.007165909">
<ele>21.365723</ele>
<time>2012-07-27T18:14:28Z</time>
<speed>2.370000</speed>
<extensions>
<speed>2.4</speed>
<temp>0.00</temp>
<bpm>0</bpm>
<rpm>0.00</rpm>
</extensions>
</trkpt>
<trkpt lat="63.936061859" lon="-21.007425308">
<ele>21.459473</ele>
<time>2012-07-27T18:14:33Z</time>
<speed>3.940000</speed>
<extensions>
<speed>3.9</speed>
<temp>0.00</temp>
<bpm>0</bpm>
<rpm>0.00</rpm>
</extensions>
</trkpt>
<trkpt lat="63.935916901" lon="-21.007720947">
<ele>21.218750</ele>
<time>2012-07-27T18:14:38Z</time>
<speed>4.660000</speed>
<extensions>
<speed>4.7</speed>
<temp>0.00</temp>
<bpm>0</bpm>
<rpm>0.00</rpm>
</extensions>
</trkpt>
<trkpt lat="63.935768127" lon="-21.008052826">
<ele>21.148926</ele>
<time>2012-07-27T18:14:43Z</time>
<speed>4.240000</speed>
<extensions>
<speed>4.2</speed>
<temp>0.00</temp>
<bpm>0</bpm>
<rpm>0.00</rpm>
</extensions>
</trkpt>
<trkpt lat="63.935615540" lon="-21.008371353">
<ele>21.291016</ele>
<time>2012-07-27T18:14:48Z</time>
<speed>4.800000</speed>
<extensions>
<speed>4.8</speed>
<temp>0.00</temp>
<bpm>0</bpm>
<rpm>0.00</rpm>
</extensions>
</trkpt>
<trkpt lat="63.935459137" lon="-21.008710861">
<ele>21.166992</ele>
<time>2012-07-27T18:14:53Z</time>
<speed>4.560000</speed>
<extensions>
<speed>4.6</speed>
<temp>0.00</temp>
<bpm>0</bpm>
<rpm>0.00</rpm>
</extensions>
</trkpt>
<trkpt lat="63.935310364" lon="-21.009010315">
<ele>21.299805</ele>
<time>2012-07-27T18:14:58Z</time>
<speed>4.550000</speed>
<extensions>
<speed>4.5</speed>
<temp>0.00</temp>
<bpm>0</bpm>
<rpm>0.00</rpm>
</extensions>
</trkpt>
<trkpt lat="63.935161591" lon="-21.009340286">
<ele>21.285645</ele>
<time>2012-07-27T18:15:03Z</time>
<speed>4.500000</speed>
<extensions>
<speed>4.5</speed>
<temp>0.00</temp>
<bpm>0</bpm>
<rpm>0.00</rpm>
</extensions>
</trkpt>
<trkpt lat="63.935035706" lon="-21.009645462">
<ele>21.064453</ele>
<time>2012-07-27T18:15:08Z</time>
<speed>4.070000</speed>
<extensions>
<speed>4.1</speed>
<temp>0.00</temp>
<bpm>0</bpm>
<rpm>0.00</rpm>
</extensions>
</trkpt>
<trkpt lat="63.934928894" lon="-21.009990692">
<ele>20.497559</ele>
<time>2012-07-27T18:15:13Z</time>
<speed>3.600000</speed>
<extensions>
<speed>3.6</speed>
<temp>0.00</temp>
<bpm>0</bpm>
<rpm>0.00</rpm>
</extensions>
</trkpt>
<trkpt lat="63.934844971" lon="-21.010231018">
<ele>20.819824</ele>
<time>2012-07-27T18:15:18Z</time>
<speed>2.790000</speed>
<extensions>
<speed>2.8</speed>
<temp>0.00</temp>
<bpm>0</bpm>
<rpm>0.00</rpm>
</extensions>
</trkpt>
<trkpt lat="63.934761047" lon="-21.010461807">
<ele>21.518066</ele>
<time>2012-07-27T18:15:23Z</time>
<speed>3.090000</speed>
<extensions>
<speed>3.1</speed>
<temp>0.00</temp>
<bpm>0</bpm>
<rpm>0.00</rpm>
</extensions>
</trkpt>
<trkpt lat="63.934684753" lon="-21.010704041">
<ele>22.175293</ele>
<time>2012-07-27T18:15:28Z</time>
<speed>2.730000</speed>
<extensions>
<speed>2.7</speed>
<temp>0.00</temp>
<bpm>0</bpm>
<rpm>0.00</rpm>
</extensions>
</trkpt>
<trkpt lat="63.934593201" lon="-21.010892868">
<ele>22.318359</ele>
<time>2012-07-27T18:15:33Z</time>
<speed>3.260000</speed>
<extensions>
<speed>3.3</speed>
<temp>0.00</temp>
<bpm>0</bpm>
<rpm>0.00</rpm>
</extensions>
</trkpt>
<trkpt lat="63.934467316" lon="-21.011169434">
<ele>21.113281</ele>
<time>2012-07-27T18:15:38Z</time>
<speed>3.880000</speed>
<extensions>
<speed>3.9</speed>
<temp>0.00</temp>
<bpm>0</bpm>
<rpm>0.00</rpm>
</extensions>
</trkpt>
<trkpt lat="63.934368134" lon="-21.011560440">
<ele>20.716309</ele>
<time>2012-07-27T18:15:43Z</time>
<speed>4.110000</speed>
<extensions>
<speed>4.1</speed>
<temp>0.00</temp>
<bpm>0</bpm>
<rpm>0.00</rpm>
</extensions>
</trkpt>
<trkpt lat="63.934230804" lon="-21.011829376">
<ele>20.896484</ele>
<time>2012-07-27T18:15:48Z</time>
<speed>4.160000</speed>
<extensions>
<speed>4.2</speed>
<temp>0.00</temp>
<bpm>0</bpm>
<rpm>0.00</rpm>
</extensions>
</trkpt>
<trkpt lat="63.934082031" lon="-21.012029648">
<ele>20.374512</ele>
<time>2012-07-27T18:15:53Z</time>
<speed>3.420000</speed>
<extensions>
<speed>3.4</speed>
<temp>0.00</temp>
<bpm>0</bpm>
<rpm>0.00</rpm>
</extensions>
</trkpt>
<trkpt lat="63.933963776" lon="-21.012248993">
<ele>19.782227</ele>
<time>2012-07-27T18:15:58Z</time>
<speed>3.430000</speed>
<extensions>
<speed>3.4</speed>
<temp>0.00</temp>
<bpm>0</bpm>
<rpm>0.00</rpm>
</extensions>
</trkpt>
<trkpt lat="63.933834076" lon="-21.012470245">
<ele>19.307129</ele>
<time>2012-07-27T18:16:03Z</time>
<speed>3.920000</speed>
<extensions>
<speed>3.9</speed>
<temp>0.00</temp>
<bpm>0</bpm>
<rpm>0.00</rpm>
</extensions>
</trkpt>
<trkpt lat="63.933689117" lon="-21.012748718">
<ele>18.905762</ele>
<time>2012-07-27T18:16:08Z</time>
<speed>4.350000</speed>
<extensions>
<speed>4.3</speed>
<temp>0.00</temp>
<bpm>0</bpm>
<rpm>0.00</rpm>
</extensions>
</trkpt>
<trkpt lat="63.933532715" lon="-21.013053894">
<ele>18.458496</ele>
<time>2012-07-27T18:16:13Z</time>
<speed>4.730000</speed>
<extensions>
<speed>4.7</speed>
<temp>0.00</temp>
<bpm>0</bpm>
<rpm>0.00</rpm>
</extensions>
</trkpt>
<trkpt lat="63.933380127" lon="-21.013368607">
<ele>18.330078</ele>
<time>2012-07-27T18:16:18Z</time>
<speed>4.710000</speed>
<extensions>
<speed>4.7</speed>
<temp>0.00</temp>
<bpm>0</bpm>
<rpm>0.00</rpm>
</extensions>
</trkpt>
<trkpt lat="63.933227539" lon="-21.013719559">
<ele>19.041992</ele>
<time>2012-07-27T18:16:23Z</time>
<speed>4.950000</speed>
<extensions>
<speed>4.9</speed>
<temp>0.00</temp>
<bpm>0</bpm>
<rpm>0.00</rpm>
</extensions>
</trkpt>
<trkpt lat="63.933063507" lon="-21.014072418">
<ele>18.886230</ele>
<time>2012-07-27T18:16:28Z</time>
<speed>5.230000</speed>
<extensions>
<speed>5.2</speed>
<temp>0.00</temp>
<bpm>0</bpm>
<rpm>0.00</rpm>
</extensions>
</trkpt>
<trkpt lat="63.932895660" lon="-21.014465332">
<ele>18.950684</ele>
<time>2012-07-27T18:16:33Z</time>
<speed>5.230000</speed>
<extensions>
<speed>5.2</speed>
<temp>0.00</temp>
<bpm>0</bpm>
<rpm>0.00</rpm>
</extensions>
</trkpt>
<trkpt lat="63.932735443" lon="-21.014804840">
<ele>19.286621</ele>
<time>2012-07-27T18:16:38Z</time>
<speed>5.050000</speed>
<extensions>
<speed>5.1</speed>
<temp>0.00</temp>
<bpm>0</bpm>
<rpm>0.00</rpm>
</extensions>
</trkpt>
<trkpt lat="63.932567596" lon="-21.015169144">
<ele>19.019043</ele>
<time>2012-07-27T18:16:43Z</time>
<speed>5.280000</speed>
<extensions>
<speed>5.3</speed>
<temp>0.00</temp>
<bpm>0</bpm>
<rpm>0.00</rpm>
</extensions>
</trkpt>
<trkpt lat="63.932388306" lon="-21.015577316">
<ele>18.986816</ele>
<time>2012-07-27T18:16:48Z</time>
<speed>5.950000</speed>
<extensions>
<speed>6.0</speed>
<temp>0.00</temp>
<bpm>0</bpm>
<rpm>0.00</rpm>
</extensions>
</trkpt>
<trkpt lat="63.932193756" lon="-21.015996933">
<ele>19.082031</ele>
<time>2012-07-27T18:16:53Z</time>
<speed>5.980000</speed>
<extensions>
<speed>6.0</speed>
<temp>0.00</temp>
<bpm>0</bpm>
<rpm>0.00</rpm>
</extensions>
</trkpt>
<trkpt lat="63.932014465" lon="-21.016387939">
<ele>19.468262</ele>
<time>2012-07-27T18:16:58Z</time>
<speed>4.930000</speed>
<extensions>
<speed>4.9</speed>
<temp>0.00</temp>
<bpm>0</bpm>
<rpm>0.00</rpm>
</extensions>
</trkpt>
<trkpt lat="63.931911469" lon="-21.016761780">
<ele>17.224609</ele>
<time>2012-07-27T18:17:03Z</time>
<speed>4.130000</speed>
<extensions>
<speed>4.1</speed>
<temp>0.00</temp>
<bpm>0</bpm>
<rpm>0.00</rpm>
</extensions>
</trkpt>
<trkpt lat="63.931831360" lon="-21.017019272">
<ele>17.003906</ele>
<time>2012-07-27T18:17:08Z</time>
<speed>0.310000</speed>
<extensions>
<speed>0.3</speed>
<temp>0.00</temp>
<bpm>0</bpm>
<rpm>0.00</rpm>
</extensions>
</trkpt>
<trkpt lat="63.931838989" lon="-21.017011642">
<ele>17.078125</ele>
<time>2012-07-27T18:17:13Z</time>
<speed>0.040000</speed>
<extensions>
<speed>0.0</speed>
<temp>0.00</temp>
<bpm>0</bpm>
<rpm>0.00</rpm>
</extensions>
</trkpt>
<trkpt lat="63.931838989" lon="-21.017011642">
<ele>16.892090</ele>
<time>2012-07-27T18:17:18Z</time>
<speed>0.010000</speed>
<extensions>
<speed>0.0</speed>
<temp>0.00</temp>
<bpm>0</bpm>
<rpm>0.00</rpm>
</extensions>
</trkpt>
<trkpt lat="63.931838989" lon="-21.017011642">
<ele>16.866699</ele>
<time>2012-07-27T18:17:23Z</time>
<extensions>
<speed>0.0</speed>
<temp>0.00</temp>
<bpm>0</bpm>
<rpm>0.00</rpm>
</extensions>
</trkpt>
<trkpt lat="63.931838989" lon="-21.017011642">
<ele>16.842773</ele>
<time>2012-07-27T18:17:28Z</time>
<speed>0.020000</speed>
<extensions>
<speed>0.0</speed>
<temp>0.00</temp>
<bpm>0</bpm>
<rpm>0.00</rpm>
</extensions>
</trkpt>
<trkpt lat="63.931835175" lon="-21.017017365">
<ele>16.859863</ele>
<time>2012-07-27T18:17:33Z</time>
<speed>1.250000</speed>
<extensions>
<speed>1.3</speed>
<temp>0.00</temp>
<bpm>0</bpm>
<rpm>0.00</rpm>
</extensions>
</trkpt>
<trkpt lat="63.931747437" lon="-21.017200470">
<ele>16.766602</ele>
<time>2012-07-27T18:17:38Z</time>
<speed>3.670000</speed>
<extensions>
<speed>3.7</speed>
<temp>0.00</temp>
<bpm>0</bpm>
<rpm>0.00</rpm>
</extensions>
</trkpt>
<trkpt lat="63.931606293" lon="-21.017494202">
<ele>16.620605</ele>
<time>2012-07-27T18:17:43Z</time>
<speed>4.470000</speed>
<extensions>
<speed>4.5</speed>
<temp>0.00</temp>
<bpm>0</bpm>
<rpm>0.00</rpm>
</extensions>
</trkpt>
<trkpt lat="63.931457520" lon="-21.017827988">
<ele>16.710449</ele>
<time>2012-07-27T18:17:48Z</time>
<speed>4.970000</speed>
<extensions>
<speed>5.0</speed>
<temp>0.00</temp>
<bpm>0</bpm>
<rpm>0.00</rpm>
</extensions>
</trkpt>
<trkpt lat="63.931289673" lon="-21.018175125">
<ele>16.515625</ele>
<time>2012-07-27T18:17:53Z</time>
<speed>4.890000</speed>
<extensions>
<speed>4.9</speed>
<temp>0.00</temp>
<bpm>0</bpm>
<rpm>0.00</rpm>
</extensions>
</trkpt>
<trkpt lat="63.931140900" lon="-21.018503189">
<ele>16.720703</ele>
<time>2012-07-27T18:17:58Z</time>
<speed>4.880000</speed>
<extensions>
<speed>4.9</speed>
<temp>0.00</temp>
<bpm>0</bpm>
<rpm>0.00</rpm>
</extensions>
</trkpt>
<trkpt lat="63.930969238" lon="-21.018745422">
<ele>16.029297</ele>
<time>2012-07-27T18:18:03Z</time>
<speed>4.030000</speed>
<extensions>
<speed>4.0</speed>
<temp>0.00</temp>
<bpm>0</bpm>
<rpm>0.00</rpm>
</extensions>
</trkpt>
<trkpt lat="63.930866241" lon="-21.018955231">
<ele>15.956299</ele>
<time>2012-07-27T18:18:08Z</time>
<speed>3.090000</speed>
<extensions>
<speed>3.1</speed>
<temp>0.00</temp>
<bpm>0</bpm>
<rpm>0.00</rpm>
</extensions>
</trkpt>
<trkpt lat="63.930755615" lon="-21.019165039">
<ele>15.477539</ele>
<time>2012-07-27T18:18:13Z</time>
<speed>3.480000</speed>
<extensions>
<speed>3.5</speed>
<temp>0.00</temp>
<bpm>0</bpm>
<rpm>0.00</rpm>
</extensions>
</trkpt>
<trkpt lat="63.930633545" lon="-21.019403458">
<ele>15.310059</ele>
<time>2012-07-27T18:18:18Z</time>
<speed>3.380000</speed>
<extensions>
<speed>3.4</speed>
<temp>0.00</temp>
<bpm>0</bpm>
<rpm>0.00</rpm>
</extensions>
</trkpt>
<trkpt lat="63.930511475" lon="-21.019636154">
<ele>15.290283</ele>
<time>2012-07-27T18:18:23Z</time>
<speed>3.320000</speed>
<extensions>
<speed>3.3</speed>
<temp>0.00</temp>
<bpm>0</bpm>
<rpm>0.00</rpm>
</extensions>
</trkpt>
<trkpt lat="63.930385590" lon="-21.019868851">
<ele>14.909424</ele>
<time>2012-07-27T18:18:28Z</time>
<speed>3.720000</speed>
<extensions>
<speed>3.7</speed>
<temp>0.00</temp>
<bpm>0</bpm>
<rpm>0.00</rpm>
</extensions>
</trkpt>
<trkpt lat="63.930233002" lon="-21.020111084">
<ele>15.199463</ele>
<time>2012-07-27T18:18:33Z</time>
<speed>4.000000</speed>
<extensions>
<speed>4.0</speed>
<temp>0.00</temp>
<bpm>0</bpm>
<rpm>0.00</rpm>
</extensions>
</trkpt>
<trkpt lat="63.930088043" lon="-21.020387650">
<ele>14.796387</ele>
<time>2012-07-27T18:18:38Z</time>
<speed>4.210000</speed>
<extensions>
<speed>4.2</speed>
<temp>0.00</temp>
<bpm>0</bpm>
<rpm>0.00</rpm>
</extensions>
</trkpt>
<trkpt lat="63.929943085" lon="-21.020666122">
<ele>13.556152</ele>
<time>2012-07-27T18:18:43Z</time>
<speed>4.570000</speed>
<extensions>
<speed>4.6</speed>
<temp>0.00</temp>
<bpm>0</bpm>
<rpm>0.00</rpm>
</extensions>
</trkpt>
<trkpt lat="63.929782867" lon="-21.020938873">
<ele>13.019531</ele>
<time>2012-07-27T18:18:48Z</time>
<speed>4.380000</speed>
<extensions>
<speed>4.4</speed>
<temp>0.00</temp>
<bpm>0</bpm>
<rpm>0.00</rpm>
</extensions>
</trkpt>
<trkpt lat="63.929630280" lon="-21.021226883">
<ele>12.808838</ele>
<time>2012-07-27T18:18:53Z</time>
<speed>4.260000</speed>
<extensions>
<speed>4.3</speed>
<temp>0.00</temp>
<bpm>0</bpm>
<rpm>0.00</rpm>
</extensions>
</trkpt>
<trkpt lat="63.929466248" lon="-21.021480560">
<ele>12.669189</ele>
<time>2012-07-27T18:18:58Z</time>
<speed>4.500000</speed>
<extensions>
<speed>4.5</speed>
<temp>0.00</temp>
<bpm>0</bpm>
<rpm>0.00</rpm>
</extensions>
</trkpt>
<trkpt lat="63.929306030" lon="-21.021759033">
<ele>12.748291</ele>
<time>2012-07-27T18:19:03Z</time>
<speed>4.570000</speed>
<extensions>
<speed>4.6</speed>
<temp>0.00</temp>
<bpm>0</bpm>
<rpm>0.00</rpm>
</extensions>
</trkpt>
<trkpt lat="63.929134369" lon="-21.021963120">
<ele>12.345215</ele>
<time>2012-07-27T18:19:08Z</time>
<speed>4.600000</speed>
<extensions>
<speed>4.6</speed>
<temp>0.00</temp>
<bpm>0</bpm>
<rpm>0.00</rpm>
</extensions>
</trkpt>
<trkpt lat="63.928962708" lon="-21.022262573">
<ele>12.643555</ele>
<time>2012-07-27T18:19:13Z</time>
<speed>5.300000</speed>
<extensions>
<speed>5.3</speed>
<temp>0.00</temp>
<bpm>0</bpm>
<rpm>0.00</rpm>
</extensions>
</trkpt>
<trkpt lat="63.928745270" lon="-21.022600174">
<ele>12.554199</ele>
<time>2012-07-27T18:19:18Z</time>
<speed>6.110000</speed>
<extensions>
<speed>6.1</speed>
<temp>0.00</temp>
<bpm>0</bpm>
<rpm>0.00</rpm>
</extensions>
</trkpt>
<trkpt lat="63.928508759" lon="-21.022968292">
<ele>12.917969</ele>
<time>2012-07-27T18:19:23Z</time>
<speed>6.610000</speed>
<extensions>
<speed>6.6</speed>
<temp>0.00</temp>
<bpm>0</bpm>
<rpm>0.00</rpm>
</extensions>
</trkpt>
<trkpt lat="63.928256989" lon="-21.023374557">
<ele>13.143799</ele>
<time>2012-07-27T18:19:28Z</time>
<speed>7.050000</speed>
<extensions>
<speed>7.0</speed>
<temp>0.00</temp>
<bpm>0</bpm>
<rpm>0.00</rpm>
</extensions>
</trkpt>
<trkpt lat="63.928016663" lon="-21.023780823">
<ele>13.103027</ele>
<time>2012-07-27T18:19:33Z</time>
<speed>6.250000</speed>
<extensions>
<speed>6.3</speed>
<temp>0.00</temp>
<bpm>0</bpm>
<rpm>0.00</rpm>
</extensions>
</trkpt>
<trkpt lat="63.927795410" lon="-21.024143219">
<ele>13.206543</ele>
<time>2012-07-27T18:19:38Z</time>
<speed>6.160000</speed>
<extensions>
<speed>6.2</speed>
<temp>0.00</temp>
<bpm>0</bpm>
<rpm>0.00</rpm>
</extensions>
</trkpt>
<trkpt lat="63.927574158" lon="-21.024513245">
<ele>12.996338</ele>
<time>2012-07-27T18:19:43Z</time>
<speed>5.970000</speed>
<extensions>
<speed>6.0</speed>
<temp>0.00</temp>
<bpm>0</bpm>
<rpm>0.00</rpm>
</extensions>
</trkpt>
<trkpt lat="63.927368164" lon="-21.024852753">
<ele>13.028809</ele>
<time>2012-07-27T18:19:48Z</time>
<speed>5.440000</speed>
<extensions>
<speed>5.4</speed>
<temp>0.00</temp>
<bpm>0</bpm>
<rpm>0.00</rpm>
</extensions>
</trkpt>
<trkpt lat="63.927162170" lon="-21.025203705">
<ele>13.132324</ele>
<time>2012-07-27T18:19:53Z</time>
<speed>6.180000</speed>
<extensions>
<speed>6.2</speed>
<temp>0.00</temp>
<bpm>0</bpm>
<rpm>0.00</rpm>
</extensions>
</trkpt>
<trkpt lat="63.926918030" lon="-21.025600433">
<ele>12.912109</ele>
<time>2012-07-27T18:19:58Z</time>
<speed>7.120000</speed>
<extensions>
<speed>7.1</speed>
<temp>0.00</temp>
<bpm>0</bpm>
<rpm>0.00</rpm>
</extensions>
</trkpt>
<trkpt lat="63.926647186" lon="-21.026050568">
<ele>13.034424</ele>
<time>2012-07-27T18:20:03Z</time>
<speed>7.810000</speed>
<extensions>
<speed>7.8</speed>
<temp>0.00</temp>
<bpm>0</bpm>
<rpm>0.00</rpm>
</extensions>
</trkpt>
<trkpt lat="63.926368713" lon="-21.026550293">
<ele>12.903809</ele>
<time>2012-07-27T18:20:08Z</time>
<speed>7.780000</speed>
<extensions>
<speed>7.8</speed>
<temp>0.00</temp>
<bpm>0</bpm>
<rpm>0.00</rpm>
</extensions>
</trkpt>
<trkpt lat="63.926113129" lon="-21.027017593">
<ele>12.663330</ele>
<time>2012-07-27T18:20:13Z</time>
<speed>6.970000</speed>
<extensions>
<speed>7.0</speed>
<temp>0.00</temp>
<bpm>0</bpm>
<rpm>0.00</rpm>
</extensions>
</trkpt>
<trkpt lat="63.925872803" lon="-21.027465820">
<ele>13.021973</ele>
<time>2012-07-27T18:20:18Z</time>
<speed>7.020000</speed>
<extensions>
<speed>7.0</speed>
<temp>0.00</temp>
<bpm>0</bpm>
<rpm>0.00</rpm>
</extensions>
</trkpt>
<trkpt lat="63.925628662" lon="-21.027921677">
<ele>13.275391</ele>
<time>2012-07-27T18:20:23Z</time>
<speed>7.260000</speed>
<extensions>
<speed>7.3</speed>
<temp>0.00</temp>
<bpm>0</bpm>
<rpm>0.00</rpm>
</extensions>
</trkpt>
<trkpt lat="63.925373077" lon="-21.028404236">
<ele>13.294678</ele>
<time>2012-07-27T18:20:28Z</time>
<speed>7.290000</speed>
<extensions>
<speed>7.3</speed>
<temp>0.00</temp>
<bpm>0</bpm>
<rpm>0.00</rpm>
</extensions>
</trkpt>
<trkpt lat="63.925140381" lon="-21.028854370">
<ele>13.423584</ele>
<time>2012-07-27T18:20:33Z</time>
<speed>6.710000</speed>
<extensions>
<speed>6.7</speed>
<temp>0.00</temp>
<bpm>0</bpm>
<rpm>0.00</rpm>
</extensions>
</trkpt>
<trkpt lat="63.924900055" lon="-21.029294968">
<ele>13.925537</ele>
<time>2012-07-27T18:20:38Z</time>
<speed>7.010000</speed>
<extensions>
<speed>7.0</speed>
<temp>0.00</temp>
<bpm>0</bpm>
<rpm>0.00</rpm>
</extensions>
</trkpt>
<trkpt lat="63.924640656" lon="-21.029743195">
<ele>14.541992</ele>
<time>2012-07-27T18:20:43Z</time>
<speed>7.320000</speed>
<extensions>
<speed>7.3</speed>
<temp>0.00</temp>
<bpm>0</bpm>
<rpm>0.00</rpm>
</extensions>
</trkpt>
<trkpt lat="63.924369812" lon="-21.030197144">
<ele>14.640869</ele>
<time>2012-07-27T18:20:48Z</time>
<speed>7.200000</speed>
<extensions>
<speed>7.2</speed>
<temp>0.00</temp>
<bpm>0</bpm>
<rpm>0.00</rpm>
</extensions>
</trkpt>
<trkpt lat="63.924110413" lon="-21.030624390">
<ele>15.090088</ele>
<time>2012-07-27T18:20:53Z</time>
<speed>7.560000</speed>
<extensions>
<speed>7.6</speed>
<temp>0.00</temp>
<bpm>0</bpm>
<rpm>0.00</rpm>
</extensions>
</trkpt>
<trkpt lat="63.923820496" lon="-21.031110764">
<ele>15.461182</ele>
<time>2012-07-27T18:20:58Z</time>
<speed>7.970000</speed>
<extensions>
<speed>8.0</speed>
<temp>0.00</temp>
<bpm>0</bpm>
<rpm>0.00</rpm>
</extensions>
</trkpt>
<trkpt lat="63.923534393" lon="-21.031604767">
<ele>15.477783</ele>
<time>2012-07-27T18:21:03Z</time>
<speed>8.080000</speed>
<extensions>
<speed>8.1</speed>
<temp>0.00</temp>
<bpm>0</bpm>
<rpm>0.00</rpm>
</extensions>
</trkpt>
<trkpt lat="63.923244476" lon="-21.032102585">
<ele>15.819580</ele>
<time>2012-07-27T18:21:08Z</time>
<speed>8.300000</speed>
<extensions>
<speed>8.3</speed>
<temp>0.00</temp>
<bpm>0</bpm>
<rpm>0.00</rpm>
</extensions>
</trkpt>
<trkpt lat="63.922950745" lon="-21.032608032">
<ele>16.359863</ele>
<time>2012-07-27T18:21:13Z</time>
<speed>8.130000</speed>
<extensions>
<speed>8.1</speed>
<temp>0.00</temp>
<bpm>0</bpm>
<rpm>0.00</rpm>
</extensions>
</trkpt>
<trkpt lat="63.922653198" lon="-21.033111572">
<ele>16.318359</ele>
<time>2012-07-27T18:21:18Z</time>
<speed>8.050000</speed>
<extensions>
<speed>8.0</speed>
<temp>0.00</temp>
<bpm>0</bpm>
<rpm>0.00</rpm>
</extensions>
</trkpt>
<trkpt lat="63.922355652" lon="-21.033609390">
<ele>16.400879</ele>
<time>2012-07-27T18:21:23Z</time>
<speed>8.400000</speed>
<extensions>
<speed>8.4</speed>
<temp>0.00</temp>
<bpm>0</bpm>
<rpm>0.00</rpm>
</extensions>
</trkpt>
<trkpt lat="63.922050476" lon="-21.034112930">
<ele>16.527832</ele>
<time>2012-07-27T18:21:28Z</time>
<speed>8.310000</speed>
<extensions>
<speed>8.3</speed>
<temp>0.00</temp>
<bpm>0</bpm>
<rpm>0.00</rpm>
</extensions>
</trkpt>
<trkpt lat="63.921752930" lon="-21.034620285">
<ele>16.479980</ele>
<time>2012-07-27T18:21:33Z</time>
<speed>8.390000</speed>
<extensions>
<speed>8.4</speed>
<temp>0.00</temp>
<bpm>0</bpm>
<rpm>0.00</rpm>
</extensions>
</trkpt>
<trkpt lat="63.921451569" lon="-21.035123825">
<ele>15.871826</ele>
<time>2012-07-27T18:21:38Z</time>
<speed>8.380000</speed>
<extensions>
<speed>8.4</speed>
<temp>0.00</temp>
<bpm>0</bpm>
<rpm>0.00</rpm>
</extensions>
</trkpt>
<trkpt lat="63.921173096" lon="-21.035598755">
<ele>15.905762</ele>
<time>2012-07-27T18:21:43Z</time>
<speed>7.250000</speed>
<extensions>
<speed>7.3</speed>
<temp>0.00</temp>
<bpm>0</bpm>
<rpm>0.00</rpm>
</extensions>
</trkpt>
<trkpt lat="63.920928955" lon="-21.036016464">
<ele>15.907471</ele>
<time>2012-07-27T18:21:48Z</time>
<speed>6.780000</speed>
<extensions>
<speed>6.8</speed>
<temp>0.00</temp>
<bpm>0</bpm>
<rpm>0.00</rpm>
</extensions>
</trkpt>
<trkpt lat="63.920677185" lon="-21.036426544">
<ele>15.900635</ele>
<time>2012-07-27T18:21:53Z</time>
<speed>7.240000</speed>
<extensions>
<speed>7.2</speed>
<temp>0.00</temp>
<bpm>0</bpm>
<rpm>0.00</rpm>
</extensions>
</trkpt>
<trkpt lat="63.920425415" lon="-21.036851883">
<ele>15.947510</ele>
<time>2012-07-27T18:21:58Z</time>
<speed>6.400000</speed>
<extensions>
<speed>6.4</speed>
<temp>0.00</temp>
<bpm>0</bpm>
<rpm>0.00</rpm>
</extensions>
</trkpt>
<trkpt lat="63.920215607" lon="-21.037225723">
<ele>15.486328</ele>
<time>2012-07-27T18:22:03Z</time>
<speed>5.520000</speed>
<extensions>
<speed>5.5</speed>
<temp>0.00</temp>
<bpm>0</bpm>
<rpm>0.00</rpm>
</extensions>
</trkpt>
<trkpt lat="63.920036316" lon="-21.037549973">
<ele>15.493652</ele>
<time>2012-07-27T18:22:08Z</time>
<speed>4.770000</speed>
<extensions>
<speed>4.8</speed>
<temp>0.00</temp>
<bpm>0</bpm>
<rpm>0.00</rpm>
</extensions>
</trkpt>
<trkpt lat="63.919849396" lon="-21.037847519">
<ele>15.247559</ele>
<time>2012-07-27T18:22:13Z</time>
<speed>5.780000</speed>
<extensions>
<speed>5.8</speed>
<temp>0.00</temp>
<bpm>0</bpm>
<rpm>0.00</rpm>
</extensions>
</trkpt>
<trkpt lat="63.919628143" lon="-21.038234711">
<ele>15.382568</ele>
<time>2012-07-27T18:22:18Z</time>
<speed>6.600000</speed>
<extensions>
<speed>6.6</speed>
<temp>0.00</temp>
<bpm>0</bpm>
<rpm>0.00</rpm>
</extensions>
</trkpt>
<trkpt lat="63.919372559" lon="-21.038650513">
<ele>15.375977</ele>
<time>2012-07-27T18:22:23Z</time>
<speed>7.150000</speed>
<extensions>
<speed>7.1</speed>
<temp>0.00</temp>
<bpm>0</bpm>
<rpm>0.00</rpm>
</extensions>
</trkpt>
<trkpt lat="63.919105530" lon="-21.039094925">
<ele>15.034912</ele>
<time>2012-07-27T18:22:28Z</time>
<speed>7.650000</speed>
<extensions>
<speed>7.7</speed>
<temp>0.00</temp>
<bpm>0</bpm>
<rpm>0.00</rpm>
</extensions>
</trkpt>
<trkpt lat="63.918830872" lon="-21.039571762">
<ele>14.673584</ele>
<time>2012-07-27T18:22:33Z</time>
<speed>7.780000</speed>
<extensions>
<speed>7.8</speed>
<temp>0.00</temp>
<bpm>0</bpm>
<rpm>0.00</rpm>
</extensions>
</trkpt>
<trkpt lat="63.918552399" lon="-21.040042877">
<ele>14.719482</ele>
<time>2012-07-27T18:22:38Z</time>
<speed>7.700000</speed>
<extensions>
<speed>7.7</speed>
<temp>0.00</temp>
<bpm>0</bpm>
<rpm>0.00</rpm>
</extensions>
</trkpt>
<trkpt lat="63.918289185" lon="-21.040506363">
<ele>14.431396</ele>
<time>2012-07-27T18:22:43Z</time>
<speed>6.930000</speed>
<extensions>
<speed>6.9</speed>
<temp>0.00</temp>
<bpm>0</bpm>
<rpm>0.00</rpm>
</extensions>
</trkpt>
<trkpt lat="63.918041229" lon="-21.040945053">
<ele>14.418213</ele>
<time>2012-07-27T18:22:48Z</time>
<speed>7.230000</speed>
<extensions>
<speed>7.2</speed>
<temp>0.00</temp>
<bpm>0</bpm>
<rpm>0.00</rpm>
</extensions>
</trkpt>
<trkpt lat="63.917785645" lon="-21.041444778">
<ele>14.376953</ele>
<time>2012-07-27T18:22:53Z</time>
<speed>7.550000</speed>
<extensions>
<speed>7.6</speed>
<temp>0.00</temp>
<bpm>0</bpm>
<rpm>0.00</rpm>
</extensions>
</trkpt>
<trkpt lat="63.917526245" lon="-21.041946411">
<ele>14.167236</ele>
<time>2012-07-27T18:22:58Z</time>
<speed>7.610000</speed>
<extensions>
<speed>7.6</speed>
<temp>0.00</temp>
<bpm>0</bpm>
<rpm>0.00</rpm>
</extensions>
</trkpt>
<trkpt lat="63.917274475" lon="-21.042467117">
<ele>13.719482</ele>
<time>2012-07-27T18:23:03Z</time>
<speed>7.850000</speed>
<extensions>
<speed>7.9</speed>
<temp>0.00</temp>
<bpm>0</bpm>
<rpm>0.00</rpm>
</extensions>
</trkpt>
<trkpt lat="63.917007446" lon="-21.043010712">
<ele>13.635742</ele>
<time>2012-07-27T18:23:08Z</time>
<speed>8.110000</speed>
<extensions>
<speed>8.1</speed>
<temp>0.00</temp>
<bpm>0</bpm>
<rpm>0.00</rpm>
</extensions>
</trkpt>
<trkpt lat="63.916732788" lon="-21.043552399">
<ele>13.072266</ele>
<time>2012-07-27T18:23:13Z</time>
<speed>8.130000</speed>
<extensions>
<speed>8.1</speed>
<temp>0.00</temp>
<bpm>0</bpm>
<rpm>0.00</rpm>
</extensions>
</trkpt>
<trkpt lat="63.916461945" lon="-21.044109344">
<ele>12.817871</ele>
<time>2012-07-27T18:23:18Z</time>
<speed>8.210000</speed>
<extensions>
<speed>8.2</speed>
<temp>0.00</temp>
<bpm>0</bpm>
<rpm>0.00</rpm>
</extensions>
</trkpt>
<trkpt lat="63.916179657" lon="-21.044660568">
<ele>12.641113</ele>
<time>2012-07-27T18:23:23Z</time>
<speed>8.070000</speed>
<extensions>
<speed>8.1</speed>
<temp>0.00</temp>
<bpm>0</bpm>
<rpm>0.00</rpm>
</extensions>
</trkpt>
<trkpt lat="63.915916443" lon="-21.045173645">
<ele>12.125000</ele>
<time>2012-07-27T18:23:28Z</time>
<speed>7.650000</speed>
<extensions>
<speed>7.7</speed>
<temp>0.00</temp>
<bpm>0</bpm>
<rpm>0.00</rpm>
</extensions>
</trkpt>
<trkpt lat="63.915653229" lon="-21.045682907">
<ele>11.562500</ele>
<time>2012-07-27T18:23:33Z</time>
<speed>7.930000</speed>
<extensions>
<speed>7.9</speed>
<temp>0.00</temp>
<bpm>0</bpm>
<rpm>0.00</rpm>
</extensions>
</trkpt>
<trkpt lat="63.915382385" lon="-21.046199799">
<ele>11.339600</ele>
<time>2012-07-27T18:23:38Z</time>
<speed>7.720000</speed>
<extensions>
<speed>7.7</speed>
<temp>0.00</temp>
<bpm>0</bpm>
<rpm>0.00</rpm>
</extensions>
</trkpt>
<trkpt lat="63.915126801" lon="-21.046705246">
<ele>11.098389</ele>
<time>2012-07-27T18:23:43Z</time>
<speed>7.420000</speed>
<extensions>
<speed>7.4</speed>
<temp>0.00</temp>
<bpm>0</bpm>
<rpm>0.00</rpm>
</extensions>
</trkpt>
<trkpt lat="63.914867401" lon="-21.047189713">
<ele>10.692871</ele>
<time>2012-07-27T18:23:48Z</time>
<speed>7.380000</speed>
<extensions>
<speed>7.4</speed>
<temp>0.00</temp>
<bpm>0</bpm>
<rpm>0.00</rpm>
</extensions>
</trkpt>
<trkpt lat="63.914615631" lon="-21.047676086">
<ele>10.629639</ele>
<time>2012-07-27T18:23:53Z</time>
<speed>7.350000</speed>
<extensions>
<speed>7.3</speed>
<temp>0.00</temp>
<bpm>0</bpm>
<rpm>0.00</rpm>
</extensions>
</trkpt>
<trkpt lat="63.914360046" lon="-21.048158646">
<ele>10.713135</ele>
<time>2012-07-27T18:23:58Z</time>
<speed>7.370000</speed>
<extensions>
<speed>7.4</speed>
<temp>0.00</temp>
<bpm>0</bpm>
<rpm>0.00</rpm>
</extensions>
</trkpt>
<trkpt lat="63.914108276" lon="-21.048641205">
<ele>11.191650</ele>
<time>2012-07-27T18:24:03Z</time>
<speed>7.450000</speed>
<extensions>
<speed>7.4</speed>
<temp>0.00</temp>
<bpm>0</bpm>
<rpm>0.00</rpm>
</extensions>
</trkpt>
<trkpt lat="63.913852692" lon="-21.049129486">
<ele>11.308350</ele>
<time>2012-07-27T18:24:08Z</time>
<speed>7.050000</speed>
<extensions>
<speed>7.0</speed>
<temp>0.00</temp>
<bpm>0</bpm>
<rpm>0.00</rpm>
</extensions>
</trkpt>
<trkpt lat="63.913616180" lon="-21.049577713">
<ele>11.368896</ele>
<time>2012-07-27T18:24:13Z</time>
<speed>7.110000</speed>
<extensions>
<speed>7.1</speed>
<temp>0.00</temp>
<bpm>0</bpm>
<rpm>0.00</rpm>
</extensions>
</trkpt>
<trkpt lat="63.913364410" lon="-21.050060272">
<ele>11.376465</ele>
<time>2012-07-27T18:24:18Z</time>
<speed>7.420000</speed>
<extensions>
<speed>7.4</speed>
<temp>0.00</temp>
<bpm>0</bpm>
<rpm>0.00</rpm>
</extensions>
</trkpt>
<trkpt lat="63.913124084" lon="-21.050508499">
<ele>10.907715</ele>
<time>2012-07-27T18:24:23Z</time>
<speed>6.860000</speed>
<extensions>
<speed>6.9</speed>
<temp>0.00</temp>
<bpm>0</bpm>
<rpm>0.00</rpm>
</extensions>
</trkpt>
<trkpt lat="63.912876129" lon="-21.050983429">
<ele>11.000732</ele>
<time>2012-07-27T18:24:28Z</time>
<speed>7.480000</speed>
<extensions>
<speed>7.5</speed>
<temp>0.00</temp>
<bpm>0</bpm>
<rpm>0.00</rpm>
</extensions>
</trkpt>
<trkpt lat="63.912612915" lon="-21.051485062">
<ele>10.838135</ele>
<time>2012-07-27T18:24:33Z</time>
<speed>7.720000</speed>
<extensions>
<speed>7.7</speed>
<temp>0.00</temp>
<bpm>0</bpm>
<rpm>0.00</rpm>
</extensions>
</trkpt>
<trkpt lat="63.912349701" lon="-21.051990509">
<ele>10.986816</ele>
<time>2012-07-27T18:24:38Z</time>
<speed>7.730000</speed>
<extensions>
<speed>7.7</speed>
<temp>0.00</temp>
<bpm>0</bpm>
<rpm>0.00</rpm>
</extensions>
</trkpt>
<trkpt lat="63.912094116" lon="-21.052478790">
<ele>11.191162</ele>
<time>2012-07-27T18:24:43Z</time>
<speed>6.920000</speed>
<extensions>
<speed>6.9</speed>
<temp>0.00</temp>
<bpm>0</bpm>
<rpm>0.00</rpm>
</extensions>
</trkpt>
<trkpt lat="63.911872864" lon="-21.052915573">
<ele>11.452148</ele>
<time>2012-07-27T18:24:48Z</time>
<speed>6.650000</speed>
<extensions>
<speed>6.7</speed>
<temp>0.00</temp>
<bpm>0</bpm>
<rpm>0.00</rpm>
</extensions>
</trkpt>
<trkpt lat="63.911632538" lon="-21.053367615">
<ele>11.564209</ele>
<time>2012-07-27T18:24:53Z</time>
<speed>7.220000</speed>
<extensions>
<speed>7.2</speed>
<temp>0.00</temp>
<bpm>0</bpm>
<rpm>0.00</rpm>
</extensions>
</trkpt>
<trkpt lat="63.911388397" lon="-21.053838730">
<ele>11.968506</ele>
<time>2012-07-27T18:24:58Z</time>
<speed>7.220000</speed>
<extensions>
<speed>7.2</speed>
<temp>0.00</temp>
<bpm>0</bpm>
<rpm>0.00</rpm>
</extensions>
</trkpt>
<trkpt lat="63.911136627" lon="-21.054321289">
<ele>11.825439</ele>
<time>2012-07-27T18:25:03Z</time>
<speed>7.310000</speed>
<extensions>
<speed>7.3</speed>
<temp>0.00</temp>
<bpm>0</bpm>
<rpm>0.00</rpm>
</extensions>
</trkpt>
<trkpt lat="63.910877228" lon="-21.054800034">
<ele>11.340820</ele>
<time>2012-07-27T18:25:08Z</time>
<speed>7.610000</speed>
<extensions>
<speed>7.6</speed>
<temp>0.00</temp>
<bpm>0</bpm>
<rpm>0.00</rpm>
</extensions>
</trkpt>
<trkpt lat="63.910614014" lon="-21.055318832">
<ele>10.861328</ele>
<time>2012-07-27T18:25:13Z</time>
<speed>7.920000</speed>
<extensions>
<speed>7.9</speed>
<temp>0.00</temp>
<bpm>0</bpm>
<rpm>0.00</rpm>
</extensions>
</trkpt>
<trkpt lat="63.910343170" lon="-21.055841446">
<ele>10.750244</ele>
<time>2012-07-27T18:25:18Z</time>
<speed>7.930000</speed>
<extensions>
<speed>7.9</speed>
<temp>0.00</temp>
<bpm>0</bpm>
<rpm>0.00</rpm>
</extensions>
</trkpt>
<trkpt lat="63.910068512" lon="-21.056364059">
<ele>10.754150</ele>
<time>2012-07-27T18:25:23Z</time>
<speed>8.100000</speed>
<extensions>
<speed>8.1</speed>
<temp>0.00</temp>
<bpm>0</bpm>
<rpm>0.00</rpm>
</extensions>
</trkpt>
<trkpt lat="63.909782410" lon="-21.056901932">
<ele>11.053467</ele>
<time>2012-07-27T18:25:28Z</time>
<speed>8.230000</speed>
<extensions>
<speed>8.2</speed>
<temp>0.00</temp>
<bpm>0</bpm>
<rpm>0.00</rpm>
</extensions>
</trkpt>
<trkpt lat="63.909507751" lon="-21.057445526">
<ele>11.529053</ele>
<time>2012-07-27T18:25:33Z</time>
<speed>8.100000</speed>
<extensions>
<speed>8.1</speed>
<temp>0.00</temp>
<bpm>0</bpm>
<rpm>0.00</rpm>
</extensions>
</trkpt>
<trkpt lat="63.909225464" lon="-21.057977676">
<ele>11.237549</ele>
<time>2012-07-27T18:25:38Z</time>
<speed>8.270000</speed>
<extensions>
<speed>8.3</speed>
<temp>0.00</temp>
<bpm>0</bpm>
<rpm>0.00</rpm>
</extensions>
</trkpt>
<trkpt lat="63.908966064" lon="-21.058496475">
<ele>10.865967</ele>
<time>2012-07-27T18:25:43Z</time>
<speed>7.140000</speed>
<extensions>
<speed>7.1</speed>
<temp>0.00</temp>
<bpm>0</bpm>
<rpm>0.00</rpm>
</extensions>
</trkpt>
<trkpt lat="63.908710480" lon="-21.058971405">
<ele>10.645996</ele>
<time>2012-07-27T18:25:48Z</time>
<speed>7.410000</speed>
<extensions>
<speed>7.4</speed>
<temp>0.00</temp>
<bpm>0</bpm>
<rpm>0.00</rpm>
</extensions>
</trkpt>
<trkpt lat="63.908454895" lon="-21.059450150">
<ele>10.787598</ele>
<time>2012-07-27T18:25:53Z</time>
<speed>7.480000</speed>
<extensions>
<speed>7.5</speed>
<temp>0.00</temp>
<bpm>0</bpm>
<rpm>0.00</rpm>
</extensions>
</trkpt>
<trkpt lat="63.908199310" lon="-21.059934616">
<ele>10.797363</ele>
<time>2012-07-27T18:25:58Z</time>
<speed>7.460000</speed>
<extensions>
<speed>7.5</speed>
<temp>0.00</temp>
<bpm>0</bpm>
<rpm>0.00</rpm>
</extensions>
</trkpt>
<trkpt lat="63.907936096" lon="-21.060411453">
<ele>10.855469</ele>
<time>2012-07-27T18:26:03Z</time>
<speed>7.510000</speed>
<extensions>
<speed>7.5</speed>
<temp>0.00</temp>
<bpm>0</bpm>
<rpm>0.00</rpm>
</extensions>
</trkpt>
<trkpt lat="63.907691956" lon="-21.060899734">
<ele>10.962891</ele>
<time>2012-07-27T18:26:08Z</time>
<speed>6.580000</speed>
<extensions>
<speed>6.6</speed>
<temp>0.00</temp>
<bpm>0</bpm>
<rpm>0.00</rpm>
</extensions>
</trkpt>
<trkpt lat="63.907459259" lon="-21.061344147">
<ele>10.746094</ele>
<time>2012-07-27T18:26:13Z</time>
<speed>6.990000</speed>
<extensions>
<speed>7.0</speed>
<temp>0.00</temp>
<bpm>0</bpm>
<rpm>0.00</rpm>
</extensions>
</trkpt>
<trkpt lat="63.907211304" lon="-21.061801910">
<ele>10.824951</ele>
<time>2012-07-27T18:26:18Z</time>
<speed>7.250000</speed>
<extensions>
<speed>7.3</speed>
<temp>0.00</temp>
<bpm>0</bpm>
<rpm>0.00</rpm>
</extensions>
</trkpt>
<trkpt lat="63.906978607" lon="-21.062263489">
<ele>11.078857</ele>
<time>2012-07-27T18:26:23Z</time>
<speed>6.470000</speed>
<extensions>
<speed>6.5</speed>
<temp>0.00</temp>
<bpm>0</bpm>
<rpm>0.00</rpm>
</extensions>
</trkpt>
<trkpt lat="63.906768799" lon="-21.062673569">
<ele>11.098877</ele>
<time>2012-07-27T18:26:28Z</time>
<speed>6.350000</speed>
<extensions>
<speed>6.4</speed>
<temp>0.00</temp>
<bpm>0</bpm>
<rpm>0.00</rpm>
</extensions>
</trkpt>
<trkpt lat="63.906536102" lon="-21.063091278">
<ele>11.551270</ele>
<time>2012-07-27T18:26:33Z</time>
<speed>6.740000</speed>
<extensions>
<speed>6.7</speed>
<temp>0.00</temp>
<bpm>0</bpm>
<rpm>0.00</rpm>
</extensions>
</trkpt>
<trkpt lat="63.906284332" lon="-21.063508987">
<ele>12.105225</ele>
<time>2012-07-27T18:26:38Z</time>
<speed>6.950000</speed>
<extensions>
<speed>7.0</speed>
<temp>0.00</temp>
<bpm>0</bpm>
<rpm>0.00</rpm>
</extensions>
</trkpt>
<trkpt lat="63.906051636" lon="-21.063875198">
<ele>12.646240</ele>
<time>2012-07-27T18:26:43Z</time>
<speed>5.930000</speed>
<extensions>
<speed>5.9</speed>
<temp>0.00</temp>
<bpm>0</bpm>
<rpm>0.00</rpm>
</extensions>
</trkpt>
<trkpt lat="63.905818939" lon="-21.064195633">
<ele>13.063477</ele>
<time>2012-07-27T18:26:48Z</time>
<speed>6.400000</speed>
<extensions>
<speed>6.4</speed>
<temp>0.00</temp>
<bpm>0</bpm>
<rpm>0.00</rpm>
</extensions>
</trkpt>
<trkpt lat="63.905548096" lon="-21.064510345">
<ele>13.124512</ele>
<time>2012-07-27T18:26:53Z</time>
<speed>6.820000</speed>
<extensions>
<speed>6.8</speed>
<temp>0.00</temp>
<bpm>0</bpm>
<rpm>0.00</rpm>
</extensions>
</trkpt>
<trkpt lat="63.905258179" lon="-21.064802170">
<ele>12.999268</ele>
<time>2012-07-27T18:26:58Z</time>
<speed>7.320000</speed>
<extensions>
<speed>7.3</speed>
<temp>0.00</temp>
<bpm>0</bpm>
<rpm>0.00</rpm>
</extensions>
</trkpt>
<trkpt lat="63.904949188" lon="-21.065114975">
<ele>12.843994</ele>
<time>2012-07-27T18:27:03Z</time>
<speed>7.600000</speed>
<extensions>
<speed>7.6</speed>
<temp>0.00</temp>
<bpm>0</bpm>
<rpm>0.00</rpm>
</extensions>
</trkpt>
<trkpt lat="63.904628754" lon="-21.065452576">
<ele>12.684326</ele>
<time>2012-07-27T18:27:08Z</time>
<speed>8.180000</speed>
<extensions>
<speed>8.2</speed>
<temp>0.00</temp>
<bpm>0</bpm>
<rpm>0.00</rpm>
</extensions>
</trkpt>
<trkpt lat="63.904289246" lon="-21.065792084">
<ele>12.646729</ele>
<time>2012-07-27T18:27:13Z</time>
<speed>8.360000</speed>
<extensions>
<speed>8.4</speed>
<temp>0.00</temp>
<bpm>0</bpm>
<rpm>0.00</rpm>
</extensions>
</trkpt>
<trkpt lat="63.903945923" lon="-21.066144943">
<ele>12.742432</ele>
<time>2012-07-27T18:27:18Z</time>
<speed>8.470000</speed>
<extensions>
<speed>8.5</speed>
<temp>0.00</temp>
<bpm>0</bpm>
<rpm>0.00</rpm>
</extensions>
</trkpt>
<trkpt lat="63.903602600" lon="-21.066503525">
<ele>12.677002</ele>
<time>2012-07-27T18:27:23Z</time>
<speed>8.510000</speed>
<extensions>
<speed>8.5</speed>
<temp>0.00</temp>
<bpm>0</bpm>
<rpm>0.00</rpm>
</extensions>
</trkpt>
<trkpt lat="63.903255463" lon="-21.066858292">
<ele>12.816895</ele>
<time>2012-07-27T18:27:28Z</time>
<speed>8.500000</speed>
<extensions>
<speed>8.5</speed>
<temp>0.00</temp>
<bpm>0</bpm>
<rpm>0.00</rpm>
</extensions>
</trkpt>
<trkpt lat="63.902904510" lon="-21.067228317">
<ele>12.997070</ele>
<time>2012-07-27T18:27:33Z</time>
<speed>8.480000</speed>
<extensions>
<speed>8.5</speed>
<temp>0.00</temp>
<bpm>0</bpm>
<rpm>0.00</rpm>
</extensions>
</trkpt>
<trkpt lat="63.902553558" lon="-21.067586899">
<ele>13.187988</ele>
<time>2012-07-27T18:27:38Z</time>
<speed>8.540000</speed>
<extensions>
<speed>8.5</speed>
<temp>0.00</temp>
<bpm>0</bpm>
<rpm>0.00</rpm>
</extensions>
</trkpt>
<trkpt lat="63.902202606" lon="-21.067949295">
<ele>13.094482</ele>
<time>2012-07-27T18:27:43Z</time>
<speed>8.480000</speed>
<extensions>
<speed>8.5</speed>
<temp>0.00</temp>
<bpm>0</bpm>
<rpm>0.00</rpm>
</extensions>
</trkpt>
<trkpt lat="63.901863098" lon="-21.068288803">
<ele>13.273682</ele>
<time>2012-07-27T18:27:48Z</time>
<speed>8.060000</speed>
<extensions>
<speed>8.1</speed>
<temp>0.00</temp>
<bpm>0</bpm>
<rpm>0.00</rpm>
</extensions>
</trkpt>
<trkpt lat="63.901561737" lon="-21.068597794">
<ele>14.343262</ele>
<time>2012-07-27T18:27:53Z</time>
<speed>7.300000</speed>
<extensions>
<speed>7.3</speed>
<temp>0.00</temp>
<bpm>0</bpm>
<rpm>0.00</rpm>
</extensions>
</trkpt>
<trkpt lat="63.901252747" lon="-21.068889618">
<ele>13.643066</ele>
<time>2012-07-27T18:27:58Z</time>
<speed>7.700000</speed>
<extensions>
<speed>7.7</speed>
<temp>0.00</temp>
<bpm>0</bpm>
<rpm>0.00</rpm>
</extensions>
</trkpt>
<trkpt lat="63.900932312" lon="-21.069221497">
<ele>13.539795</ele>
<time>2012-07-27T18:28:03Z</time>
<speed>7.980000</speed>
<extensions>
<speed>8.0</speed>
<temp>0.00</temp>
<bpm>0</bpm>
<rpm>0.00</rpm>
</extensions>
</trkpt>
<trkpt lat="63.900604248" lon="-21.069559097">
<ele>13.917480</ele>
<time>2012-07-27T18:28:08Z</time>
<speed>8.340000</speed>
<extensions>
<speed>8.3</speed>
<temp>0.00</temp>
<bpm>0</bpm>
<rpm>0.00</rpm>
</extensions>
</trkpt>
<trkpt lat="63.900260925" lon="-21.069898605">
<ele>13.965576</ele>
<time>2012-07-27T18:28:13Z</time>
<speed>8.290000</speed>
<extensions>
<speed>8.3</speed>
<temp>0.00</temp>
<bpm>0</bpm>
<rpm>0.00</rpm>
</extensions>
</trkpt>
<trkpt lat="63.899925232" lon="-21.070234299">
<ele>14.634033</ele>
<time>2012-07-27T18:28:18Z</time>
<speed>8.420000</speed>
<extensions>
<speed>8.4</speed>
<temp>0.00</temp>
<bpm>0</bpm>
<rpm>0.00</rpm>
</extensions>
</trkpt>
<trkpt lat="63.899585724" lon="-21.070587158">
<ele>14.470459</ele>
<time>2012-07-27T18:28:23Z</time>
<speed>7.730000</speed>
<extensions>
<speed>7.7</speed>
<temp>0.00</temp>
<bpm>0</bpm>
<rpm>0.00</rpm>
</extensions>
</trkpt>
<trkpt lat="63.899291992" lon="-21.070909500">
<ele>14.362305</ele>
<time>2012-07-27T18:28:28Z</time>
<speed>6.600000</speed>
<extensions>
<speed>6.6</speed>
<temp>0.00</temp>
<bpm>0</bpm>
<rpm>0.00</rpm>
</extensions>
</trkpt>
<trkpt lat="63.899044037" lon="-21.071161270">
<ele>14.296143</ele>
<time>2012-07-27T18:28:33Z</time>
<speed>5.800000</speed>
<extensions>
<speed>5.8</speed>
<temp>0.00</temp>
<bpm>0</bpm>
<rpm>0.00</rpm>
</extensions>
</trkpt>
<trkpt lat="63.898826599" lon="-21.071384430">
<ele>14.386230</ele>
<time>2012-07-27T18:28:38Z</time>
<speed>5.090000</speed>
<extensions>
<speed>5.1</speed>
<temp>0.00</temp>
<bpm>0</bpm>
<rpm>0.00</rpm>
</extensions>
</trkpt>
<trkpt lat="63.898620605" lon="-21.071598053">
<ele>12.346436</ele>
<time>2012-07-27T18:28:43Z</time>
<speed>5.030000</speed>
<extensions>
<speed>5.0</speed>
<temp>0.00</temp>
<bpm>0</bpm>
<rpm>0.00</rpm>
</extensions>
</trkpt>
<trkpt lat="63.898376465" lon="-21.071838379">
<ele>11.985840</ele>
<time>2012-07-27T18:28:48Z</time>
<speed>6.380000</speed>
<extensions>
<speed>6.4</speed>
<temp>0.00</temp>
<bpm>0</bpm>
<rpm>0.00</rpm>
</extensions>
</trkpt>
<trkpt lat="63.898090363" lon="-21.072105408">
<ele>11.748291</ele>
<time>2012-07-27T18:28:53Z</time>
<speed>7.060000</speed>
<extensions>
<speed>7.1</speed>
<temp>0.00</temp>
<bpm>0</bpm>
<rpm>0.00</rpm>
</extensions>
</trkpt>
<trkpt lat="63.897808075" lon="-21.072359085">
<ele>11.893311</ele>
<time>2012-07-27T18:28:58Z</time>
<speed>6.400000</speed>
<extensions>
<speed>6.4</speed>
<temp>0.00</temp>
<bpm>0</bpm>
<rpm>0.00</rpm>
</extensions>
</trkpt>
<trkpt lat="63.897552490" lon="-21.072584152">
<ele>11.179443</ele>
<time>2012-07-27T18:29:03Z</time>
<speed>5.940000</speed>
<extensions>
<speed>5.9</speed>
<temp>0.00</temp>
<bpm>0</bpm>
<rpm>0.00</rpm>
</extensions>
</trkpt>
<trkpt lat="63.897289276" lon="-21.072803497">
<ele>10.774170</ele>
<time>2012-07-27T18:29:08Z</time>
<speed>6.450000</speed>
<extensions>
<speed>6.4</speed>
<temp>0.00</temp>
<bpm>0</bpm>
<rpm>0.00</rpm>
</extensions>
</trkpt>
<trkpt lat="63.897010803" lon="-21.073028564">
<ele>10.581055</ele>
<time>2012-07-27T18:29:13Z</time>
<speed>6.900000</speed>
<extensions>
<speed>6.9</speed>
<temp>0.00</temp>
<bpm>0</bpm>
<rpm>0.00</rpm>
</extensions>
</trkpt>
<trkpt lat="63.896701813" lon="-21.073266983">
<ele>9.865479</ele>
<time>2012-07-27T18:29:18Z</time>
<speed>7.440000</speed>
<extensions>
<speed>7.4</speed>
<temp>0.00</temp>
<bpm>0</bpm>
<rpm>0.00</rpm>
</extensions>
</trkpt>
<trkpt lat="63.896385193" lon="-21.073524475">
<ele>9.695557</ele>
<time>2012-07-27T18:29:23Z</time>
<speed>7.670000</speed>
<extensions>
<speed>7.7</speed>
<temp>0.00</temp>
<bpm>0</bpm>
<rpm>0.00</rpm>
</extensions>
</trkpt>
<trkpt lat="63.896087646" lon="-21.073759079">
<ele>9.668701</ele>
<time>2012-07-27T18:29:28Z</time>
<speed>6.730000</speed>
<extensions>
<speed>6.7</speed>
<temp>0.00</temp>
<bpm>0</bpm>
<rpm>0.00</rpm>
</extensions>
</trkpt>
<trkpt lat="63.895828247" lon="-21.073955536">
<ele>10.533936</ele>
<time>2012-07-27T18:29:33Z</time>
<speed>5.920000</speed>
<extensions>
<speed>5.9</speed>
<temp>0.00</temp>
<bpm>0</bpm>
<rpm>0.00</rpm>
</extensions>
</trkpt>
<trkpt lat="63.895591736" lon="-21.074131012">
<ele>11.169922</ele>
<time>2012-07-27T18:29:38Z</time>
<speed>5.650000</speed>
<extensions>
<speed>5.7</speed>
<temp>0.00</temp>
<bpm>0</bpm>
<rpm>0.00</rpm>
</extensions>
</trkpt>
<trkpt lat="63.895336151" lon="-21.074327469">
<ele>11.542725</ele>
<time>2012-07-27T18:29:43Z</time>
<speed>6.600000</speed>
<extensions>
<speed>6.6</speed>
<temp>0.00</temp>
<bpm>0</bpm>
<rpm>0.00</rpm>
</extensions>
</trkpt>
<trkpt lat="63.895038605" lon="-21.074581146">
<ele>11.342285</ele>
<time>2012-07-27T18:29:48Z</time>
<speed>7.100000</speed>
<extensions>
<speed>7.1</speed>
<temp>0.00</temp>
<bpm>0</bpm>
<rpm>0.00</rpm>
</extensions>
</trkpt>
<trkpt lat="63.894725800" lon="-21.074840546">
<ele>10.916504</ele>
<time>2012-07-27T18:29:53Z</time>
<speed>7.510000</speed>
<extensions>
<speed>7.5</speed>
<temp>0.00</temp>
<bpm>0</bpm>
<rpm>0.00</rpm>
</extensions>
</trkpt>
<trkpt lat="63.894393921" lon="-21.075120926">
<ele>10.465576</ele>
<time>2012-07-27T18:29:58Z</time>
<speed>7.760000</speed>
<extensions>
<speed>7.8</speed>
<temp>0.00</temp>
<bpm>0</bpm>
<rpm>0.00</rpm>
</extensions>
</trkpt>
<trkpt lat="63.894062042" lon="-21.075374603">
<ele>10.471680</ele>
<time>2012-07-27T18:30:03Z</time>
<speed>7.870000</speed>
<extensions>
<speed>7.9</speed>
<temp>0.00</temp>
<bpm>0</bpm>
<rpm>0.00</rpm>
</extensions>
</trkpt>
<trkpt lat="63.893745422" lon="-21.075624466">
<ele>10.785889</ele>
<time>2012-07-27T18:30:08Z</time>
<speed>6.940000</speed>
<extensions>
<speed>6.9</speed>
<temp>0.00</temp>
<bpm>0</bpm>
<rpm>0.00</rpm>
</extensions>
</trkpt>
<trkpt lat="63.893466949" lon="-21.075857162">
<ele>10.743164</ele>
<time>2012-07-27T18:30:13Z</time>
<speed>6.290000</speed>
<extensions>
<speed>6.3</speed>
<temp>0.00</temp>
<bpm>0</bpm>
<rpm>0.00</rpm>
</extensions>
</trkpt>
<trkpt lat="63.893199921" lon="-21.076063156">
<ele>10.393311</ele>
<time>2012-07-27T18:30:18Z</time>
<speed>6.560000</speed>
<extensions>
<speed>6.6</speed>
<temp>0.00</temp>
<bpm>0</bpm>
<rpm>0.00</rpm>
</extensions>
</trkpt>
<trkpt lat="63.892921448" lon="-21.076255798">
<ele>11.013184</ele>
<time>2012-07-27T18:30:23Z</time>
<speed>6.640000</speed>
<extensions>
<speed>6.6</speed>
<temp>0.00</temp>
<bpm>0</bpm>
<rpm>0.00</rpm>
</extensions>
</trkpt>
<trkpt lat="63.892635345" lon="-21.076490402">
<ele>10.852051</ele>
<time>2012-07-27T18:30:28Z</time>
<speed>6.930000</speed>
<extensions>
<speed>6.9</speed>
<temp>0.00</temp>
<bpm>0</bpm>
<rpm>0.00</rpm>
</extensions>
</trkpt>
<trkpt lat="63.892337799" lon="-21.076725006">
<ele>10.948242</ele>
<time>2012-07-27T18:30:33Z</time>
<speed>7.310000</speed>
<extensions>
<speed>7.3</speed>
<temp>0.00</temp>
<bpm>0</bpm>
<rpm>0.00</rpm>
</extensions>
</trkpt>
<trkpt lat="63.892009735" lon="-21.076986313">
<ele>9.962891</ele>
<time>2012-07-27T18:30:38Z</time>
<speed>7.920000</speed>
<extensions>
<speed>7.9</speed>
<temp>0.00</temp>
<bpm>0</bpm>
<rpm>0.00</rpm>
</extensions>
</trkpt>
<trkpt lat="63.891689301" lon="-21.077238083">
<ele>10.127930</ele>
<time>2012-07-27T18:30:43Z</time>
<speed>7.090000</speed>
<extensions>
<speed>7.1</speed>
<temp>0.00</temp>
<bpm>0</bpm>
<rpm>0.00</rpm>
</extensions>
</trkpt>
<trkpt lat="63.891407013" lon="-21.077465057">
<ele>9.727783</ele>
<time>2012-07-27T18:30:48Z</time>
<speed>6.240000</speed>
<extensions>
<speed>6.2</speed>
<temp>0.00</temp>
<bpm>0</bpm>
<rpm>0.00</rpm>
</extensions>
</trkpt>
<trkpt lat="63.891139984" lon="-21.077692032">
<ele>9.730713</ele>
<time>2012-07-27T18:30:53Z</time>
<speed>6.450000</speed>
<extensions>
<speed>6.4</speed>
<temp>0.00</temp>
<bpm>0</bpm>
<rpm>0.00</rpm>
</extensions>
</trkpt>
<trkpt lat="63.890857697" lon="-21.077928543">
<ele>9.308594</ele>
<time>2012-07-27T18:30:58Z</time>
<speed>6.880000</speed>
<extensions>
<speed>6.9</speed>
<temp>0.00</temp>
<bpm>0</bpm>
<rpm>0.00</rpm>
</extensions>
</trkpt>
<trkpt lat="63.890560150" lon="-21.078176498">
<ele>9.178955</ele>
<time>2012-07-27T18:31:03Z</time>
<speed>7.020000</speed>
<extensions>
<speed>7.0</speed>
<temp>0.00</temp>
<bpm>0</bpm>
<rpm>0.00</rpm>
</extensions>
</trkpt>
<trkpt lat="63.890266418" lon="-21.078435898">
<ele>9.142822</ele>
<time>2012-07-27T18:31:08Z</time>
<speed>7.130000</speed>
<extensions>
<speed>7.1</speed>
<temp>0.00</temp>
<bpm>0</bpm>
<rpm>0.00</rpm>
</extensions>
</trkpt>
<trkpt lat="63.889957428" lon="-21.078691483">
<ele>9.275391</ele>
<time>2012-07-27T18:31:13Z</time>
<speed>7.400000</speed>
<extensions>
<speed>7.4</speed>
<temp>0.00</temp>
<bpm>0</bpm>
<rpm>0.00</rpm>
</extensions>
</trkpt>
<trkpt lat="63.889656067" lon="-21.078966141">
<ele>8.914795</ele>
<time>2012-07-27T18:31:18Z</time>
<speed>6.860000</speed>
<extensions>
<speed>6.9</speed>
<temp>0.00</temp>
<bpm>0</bpm>
<rpm>0.00</rpm>
</extensions>
</trkpt>
<trkpt lat="63.889392853" lon="-21.079200745">
<ele>9.368164</ele>
<time>2012-07-27T18:31:23Z</time>
<speed>6.050000</speed>
<extensions>
<speed>6.1</speed>
<temp>0.00</temp>
<bpm>0</bpm>
<rpm>0.00</rpm>
</extensions>
</trkpt>
<trkpt lat="63.889160156" lon="-21.079437256">
<ele>9.473877</ele>
<time>2012-07-27T18:31:28Z</time>
<speed>5.380000</speed>
<extensions>
<speed>5.4</speed>
<temp>0.00</temp>
<bpm>0</bpm>
<rpm>0.00</rpm>
</extensions>
</trkpt>
<trkpt lat="63.888931274" lon="-21.079658508">
<ele>9.417969</ele>
<time>2012-07-27T18:31:33Z</time>
<speed>5.970000</speed>
<extensions>
<speed>6.0</speed>
<temp>0.00</temp>
<bpm>0</bpm>
<rpm>0.00</rpm>
</extensions>
</trkpt>
<trkpt lat="63.888675690" lon="-21.079914093">
<ele>9.545410</ele>
<time>2012-07-27T18:31:38Z</time>
<speed>6.450000</speed>
<extensions>
<speed>6.4</speed>
<temp>0.00</temp>
<bpm>0</bpm>
<rpm>0.00</rpm>
</extensions>
</trkpt>
<trkpt lat="63.888408661" lon="-21.080184937">
<ele>10.049805</ele>
<time>2012-07-27T18:31:43Z</time>
<speed>6.620000</speed>
<extensions>
<speed>6.6</speed>
<temp>0.00</temp>
<bpm>0</bpm>
<rpm>0.00</rpm>
</extensions>
</trkpt>
<trkpt lat="63.888134003" lon="-21.080472946">
<ele>10.048340</ele>
<time>2012-07-27T18:31:48Z</time>
<speed>6.860000</speed>
<extensions>
<speed>6.9</speed>
<temp>0.00</temp>
<bpm>0</bpm>
<rpm>0.00</rpm>
</extensions>
</trkpt>
<trkpt lat="63.887840271" lon="-21.080770493">
<ele>9.760010</ele>
<time>2012-07-27T18:31:53Z</time>
<speed>7.360000</speed>
<extensions>
<speed>7.4</speed>
<temp>0.00</temp>
<bpm>0</bpm>
<rpm>0.00</rpm>
</extensions>
</trkpt>
<trkpt lat="63.887535095" lon="-21.081087112">
<ele>9.838623</ele>
<time>2012-07-27T18:31:58Z</time>
<speed>7.490000</speed>
<extensions>
<speed>7.5</speed>
<temp>0.00</temp>
<bpm>0</bpm>
<rpm>0.00</rpm>
</extensions>
</trkpt>
<trkpt lat="63.887222290" lon="-21.081413269">
<ele>9.925537</ele>
<time>2012-07-27T18:32:03Z</time>
<speed>7.620000</speed>
<extensions>
<speed>7.6</speed>
<temp>0.00</temp>
<bpm>0</bpm>
<rpm>0.00</rpm>
</extensions>
</trkpt>
<trkpt lat="63.886913300" lon="-21.081720352">
<ele>10.309570</ele>
<time>2012-07-27T18:32:08Z</time>
<speed>7.140000</speed>
<extensions>
<speed>7.1</speed>
<temp>0.00</temp>
<bpm>0</bpm>
<rpm>0.00</rpm>
</extensions>
</trkpt>
<trkpt lat="63.886650085" lon="-21.081989288">
<ele>11.481934</ele>
<time>2012-07-27T18:32:13Z</time>
<speed>5.330000</speed>
<extensions>
<speed>5.3</speed>
<temp>0.00</temp>
<bpm>0</bpm>
<rpm>0.00</rpm>
</extensions>
</trkpt>
<trkpt lat="63.886413574" lon="-21.082225800">
<ele>12.442383</ele>
<time>2012-07-27T18:32:18Z</time>
<speed>5.590000</speed>
<extensions>
<speed>5.6</speed>
<temp>0.00</temp>
<bpm>0</bpm>
<rpm>0.00</rpm>
</extensions>
</trkpt>
<trkpt lat="63.886165619" lon="-21.082477570">
<ele>12.522705</ele>
<time>2012-07-27T18:32:23Z</time>
<speed>6.350000</speed>
<extensions>
<speed>6.4</speed>
<temp>0.00</temp>
<bpm>0</bpm>
<rpm>0.00</rpm>
</extensions>
</trkpt>
<trkpt lat="63.885887146" lon="-21.082786560">
<ele>11.113770</ele>
<time>2012-07-27T18:32:28Z</time>
<speed>6.820000</speed>
<extensions>
<speed>6.8</speed>
<temp>0.00</temp>
<bpm>0</bpm>
<rpm>0.00</rpm>
</extensions>
</trkpt>
<trkpt lat="63.885604858" lon="-21.083072662">
<ele>11.290283</ele>
<time>2012-07-27T18:32:33Z</time>
<speed>7.100000</speed>
<extensions>
<speed>7.1</speed>
<temp>0.00</temp>
<bpm>0</bpm>
<rpm>0.00</rpm>
</extensions>
</trkpt>
<trkpt lat="63.885314941" lon="-21.083375931">
<ele>11.022705</ele>
<time>2012-07-27T18:32:38Z</time>
<speed>6.750000</speed>
<extensions>
<speed>6.7</speed>
<temp>0.00</temp>
<bpm>0</bpm>
<rpm>0.00</rpm>
</extensions>
</trkpt>
<trkpt lat="63.885028839" lon="-21.083663940">
<ele>10.954346</ele>
<time>2012-07-27T18:32:43Z</time>
<speed>6.660000</speed>
<extensions>
<speed>6.7</speed>
<temp>0.00</temp>
<bpm>0</bpm>
<rpm>0.00</rpm>
</extensions>
</trkpt>
<trkpt lat="63.884769440" lon="-21.083930969">
<ele>11.124512</ele>
<time>2012-07-27T18:32:48Z</time>
<speed>6.620000</speed>
<extensions>
<speed>6.6</speed>
<temp>0.00</temp>
<bpm>0</bpm>
<rpm>0.00</rpm>
</extensions>
</trkpt>
<trkpt lat="63.884487152" lon="-21.084226608">
<ele>11.755371</ele>
<time>2012-07-27T18:32:53Z</time>
<speed>7.020000</speed>
<extensions>
<speed>7.0</speed>
<temp>0.00</temp>
<bpm>0</bpm>
<rpm>0.00</rpm>
</extensions>
</trkpt>
<trkpt lat="63.884189606" lon="-21.084533691">
<ele>11.863037</ele>
<time>2012-07-27T18:32:58Z</time>
<speed>7.250000</speed>
<extensions>
<speed>7.3</speed>
<temp>0.00</temp>
<bpm>0</bpm>
<rpm>0.00</rpm>
</extensions>
</trkpt>
<trkpt lat="63.883914948" lon="-21.084835052">
<ele>12.062256</ele>
<time>2012-07-27T18:33:03Z</time>
<speed>6.410000</speed>
<extensions>
<speed>6.4</speed>
<temp>0.00</temp>
<bpm>0</bpm>
<rpm>0.00</rpm>
</extensions>
</trkpt>
<trkpt lat="63.883659363" lon="-21.085094452">
<ele>10.271973</ele>
<time>2012-07-27T18:33:08Z</time>
<speed>6.130000</speed>
<extensions>
<speed>6.1</speed>
<temp>0.00</temp>
<bpm>0</bpm>
<rpm>0.00</rpm>
</extensions>
</trkpt>
<trkpt lat="63.883399963" lon="-21.085371017">
<ele>10.217773</ele>
<time>2012-07-27T18:33:13Z</time>
<speed>6.540000</speed>
<extensions>
<speed>6.5</speed>
<temp>0.00</temp>
<bpm>0</bpm>
<rpm>0.00</rpm>
</extensions>
</trkpt>
<trkpt lat="63.883144379" lon="-21.085620880">
<ele>10.180908</ele>
<time>2012-07-27T18:33:18Z</time>
<speed>5.950000</speed>
<extensions>
<speed>6.0</speed>
<temp>0.00</temp>
<bpm>0</bpm>
<rpm>0.00</rpm>
</extensions>
</trkpt>
<trkpt lat="63.882919312" lon="-21.085866928">
<ele>10.158203</ele>
<time>2012-07-27T18:33:23Z</time>
<speed>5.430000</speed>
<extensions>
<speed>5.4</speed>
<temp>0.00</temp>
<bpm>0</bpm>
<rpm>0.00</rpm>
</extensions>
</trkpt>
<trkpt lat="63.882678986" lon="-21.086112976">
<ele>10.162109</ele>
<time>2012-07-27T18:33:28Z</time>
<speed>6.190000</speed>
<extensions>
<speed>6.2</speed>
<temp>0.00</temp>
<bpm>0</bpm>
<rpm>0.00</rpm>
</extensions>
</trkpt>
<trkpt lat="63.882419586" lon="-21.086364746">
<ele>10.260254</ele>
<time>2012-07-27T18:33:33Z</time>
<speed>6.550000</speed>
<extensions>
<speed>6.5</speed>
<temp>0.00</temp>
<bpm>0</bpm>
<rpm>0.00</rpm>
</extensions>
</trkpt>
<trkpt lat="63.882133484" lon="-21.086648941">
<ele>9.879883</ele>
<time>2012-07-27T18:33:38Z</time>
<speed>7.050000</speed>
<extensions>
<speed>7.0</speed>
<temp>0.00</temp>
<bpm>0</bpm>
<rpm>0.00</rpm>
</extensions>
</trkpt>
<trkpt lat="63.881858826" lon="-21.086912155">
<ele>9.040283</ele>
<time>2012-07-27T18:33:43Z</time>
<speed>6.260000</speed>
<extensions>
<speed>6.3</speed>
<temp>0.00</temp>
<bpm>0</bpm>
<rpm>0.00</rpm>
</extensions>
</trkpt>
<trkpt lat="63.881603241" lon="-21.087167740">
<ele>9.544678</ele>
<time>2012-07-27T18:33:48Z</time>
<speed>6.690000</speed>
<extensions>
<speed>6.7</speed>
<temp>0.00</temp>
<bpm>0</bpm>
<rpm>0.00</rpm>
</extensions>
</trkpt>
<trkpt lat="63.881332397" lon="-21.087442398">
<ele>9.680420</ele>
<time>2012-07-27T18:33:53Z</time>
<speed>6.690000</speed>
<extensions>
<speed>6.7</speed>
<temp>0.00</temp>
<bpm>0</bpm>
<rpm>0.00</rpm>
</extensions>
</trkpt>
<trkpt lat="63.881072998" lon="-21.087707520">
<ele>9.987793</ele>
<time>2012-07-27T18:33:58Z</time>
<speed>6.000000</speed>
<extensions>
<speed>6.0</speed>
<temp>0.00</temp>
<bpm>0</bpm>
<rpm>0.00</rpm>
</extensions>
</trkpt>
<trkpt lat="63.880817413" lon="-21.087970734">
<ele>9.785889</ele>
<time>2012-07-27T18:34:03Z</time>
<speed>6.380000</speed>
<extensions>
<speed>6.4</speed>
<temp>0.00</temp>
<bpm>0</bpm>
<rpm>0.00</rpm>
</extensions>
</trkpt>
<trkpt lat="63.880542755" lon="-21.088249207">
<ele>9.819092</ele>
<time>2012-07-27T18:34:08Z</time>
<speed>6.740000</speed>
<extensions>
<speed>6.7</speed>
<temp>0.00</temp>
<bpm>0</bpm>
<rpm>0.00</rpm>
</extensions>
</trkpt>
<trkpt lat="63.880275726" lon="-21.088521957">
<ele>9.970459</ele>
<time>2012-07-27T18:34:13Z</time>
<speed>6.350000</speed>
<extensions>
<speed>6.4</speed>
<temp>0.00</temp>
<bpm>0</bpm>
<rpm>0.00</rpm>
</extensions>
</trkpt>
<trkpt lat="63.880027771" lon="-21.088758469">
<ele>10.142578</ele>
<time>2012-07-27T18:34:18Z</time>
<speed>5.870000</speed>
<extensions>
<speed>5.9</speed>
<temp>0.00</temp>
<bpm>0</bpm>
<rpm>0.00</rpm>
</extensions>
</trkpt>
<trkpt lat="63.879776001" lon="-21.089027405">
<ele>10.311035</ele>
<time>2012-07-27T18:34:23Z</time>
<speed>6.330000</speed>
<extensions>
<speed>6.3</speed>
<temp>0.00</temp>
<bpm>0</bpm>
<rpm>0.00</rpm>
</extensions>
</trkpt>
<trkpt lat="63.879508972" lon="-21.089315414">
<ele>9.907227</ele>
<time>2012-07-27T18:34:28Z</time>
<speed>6.610000</speed>
<extensions>
<speed>6.6</speed>
<temp>0.00</temp>
<bpm>0</bpm>
<rpm>0.00</rpm>
</extensions>
</trkpt>
<trkpt lat="63.879230499" lon="-21.089595795">
<ele>9.906982</ele>
<time>2012-07-27T18:34:33Z</time>
<speed>6.720000</speed>
<extensions>
<speed>6.7</speed>
<temp>0.00</temp>
<bpm>0</bpm>
<rpm>0.00</rpm>
</extensions>
</trkpt>
<trkpt lat="63.878955841" lon="-21.089876175">
<ele>9.867432</ele>
<time>2012-07-27T18:34:38Z</time>
<speed>6.920000</speed>
<extensions>
<speed>6.9</speed>
<temp>0.00</temp>
<bpm>0</bpm>
<rpm>0.00</rpm>
</extensions>
</trkpt>
<trkpt lat="63.878692627" lon="-21.090131760">
<ele>10.215088</ele>
<time>2012-07-27T18:34:43Z</time>
<speed>6.100000</speed>
<extensions>
<speed>6.1</speed>
<temp>0.00</temp>
<bpm>0</bpm>
<rpm>0.00</rpm>
</extensions>
</trkpt>
<trkpt lat="63.878433228" lon="-21.090391159">
<ele>10.011963</ele>
<time>2012-07-27T18:34:48Z</time>
<speed>6.590000</speed>
<extensions>
<speed>6.6</speed>
<temp>0.00</temp>
<bpm>0</bpm>
<rpm>0.00</rpm>
</extensions>
</trkpt>
<trkpt lat="63.878154755" lon="-21.090684891">
<ele>10.256836</ele>
<time>2012-07-27T18:34:53Z</time>
<speed>6.910000</speed>
<extensions>
<speed>6.9</speed>
<temp>0.00</temp>
<bpm>0</bpm>
<rpm>0.00</rpm>
</extensions>
</trkpt>
<trkpt lat="63.877864838" lon="-21.090993881">
<ele>10.263672</ele>
<time>2012-07-27T18:34:58Z</time>
<speed>7.290000</speed>
<extensions>
<speed>7.3</speed>
<temp>0.00</temp>
<bpm>0</bpm>
<rpm>0.00</rpm>
</extensions>
</trkpt>
<trkpt lat="63.877555847" lon="-21.091299057">
<ele>10.115723</ele>
<time>2012-07-27T18:35:03Z</time>
<speed>7.700000</speed>
<extensions>
<speed>7.7</speed>
<temp>0.00</temp>
<bpm>0</bpm>
<rpm>0.00</rpm>
</extensions>
</trkpt>
<trkpt lat="63.877235413" lon="-21.091630936">
<ele>10.100830</ele>
<time>2012-07-27T18:35:08Z</time>
<speed>7.470000</speed>
<extensions>
<speed>7.5</speed>
<temp>0.00</temp>
<bpm>0</bpm>
<rpm>0.00</rpm>
</extensions>
</trkpt>
<trkpt lat="63.876914978" lon="-21.091951370">
<ele>10.105957</ele>
<time>2012-07-27T18:35:13Z</time>
<speed>7.590000</speed>
<extensions>
<speed>7.6</speed>
<temp>0.00</temp>
<bpm>0</bpm>
<rpm>0.00</rpm>
</extensions>
</trkpt>
<trkpt lat="63.876628876" lon="-21.092247009">
<ele>10.496094</ele>
<time>2012-07-27T18:35:18Z</time>
<speed>6.600000</speed>
<extensions>
<speed>6.6</speed>
<temp>0.00</temp>
<bpm>0</bpm>
<rpm>0.00</rpm>
</extensions>
</trkpt>
<trkpt lat="63.876365662" lon="-21.092515945">
<ele>10.720459</ele>
<time>2012-07-27T18:35:23Z</time>
<speed>6.630000</speed>
<extensions>
<speed>6.6</speed>
<temp>0.00</temp>
<bpm>0</bpm>
<rpm>0.00</rpm>
</extensions>
</trkpt>
<trkpt lat="63.876087189" lon="-21.092803955">
<ele>11.069824</ele>
<time>2012-07-27T18:35:28Z</time>
<speed>6.970000</speed>
<extensions>
<speed>7.0</speed>
<temp>0.00</temp>
<bpm>0</bpm>
<rpm>0.00</rpm>
</extensions>
</trkpt>
<trkpt lat="63.875801086" lon="-21.093103409">
<ele>11.120850</ele>
<time>2012-07-27T18:35:33Z</time>
<speed>7.170000</speed>
<extensions>
<speed>7.2</speed>
<temp>0.00</temp>
<bpm>0</bpm>
<rpm>0.00</rpm>
</extensions>
</trkpt>
<trkpt lat="63.875522614" lon="-21.093408585">
<ele>10.877441</ele>
<time>2012-07-27T18:35:38Z</time>
<speed>6.310000</speed>
<extensions>
<speed>6.3</speed>
<temp>0.00</temp>
<bpm>0</bpm>
<rpm>0.00</rpm>
</extensions>
</trkpt>
<trkpt lat="63.875259399" lon="-21.093685150">
<ele>10.821777</ele>
<time>2012-07-27T18:35:43Z</time>
<speed>6.700000</speed>
<extensions>
<speed>6.7</speed>
<temp>0.00</temp>
<bpm>0</bpm>
<rpm>0.00</rpm>
</extensions>
</trkpt>
<trkpt lat="63.874973297" lon="-21.093994141">
<ele>10.264648</ele>
<time>2012-07-27T18:35:48Z</time>
<speed>7.250000</speed>
<extensions>
<speed>7.3</speed>
<temp>0.00</temp>
<bpm>0</bpm>
<rpm>0.00</rpm>
</extensions>
</trkpt>
<trkpt lat="63.874668121" lon="-21.094314575">
<ele>9.670410</ele>
<time>2012-07-27T18:35:53Z</time>
<speed>7.440000</speed>
<extensions>
<speed>7.4</speed>
<temp>0.00</temp>
<bpm>0</bpm>
<rpm>0.00</rpm>
</extensions>
</trkpt>
<trkpt lat="63.874355316" lon="-21.094640732">
<ele>9.681152</ele>
<time>2012-07-27T18:35:58Z</time>
<speed>7.730000</speed>
<extensions>
<speed>7.7</speed>
<temp>0.00</temp>
<bpm>0</bpm>
<rpm>0.00</rpm>
</extensions>
</trkpt>
<trkpt lat="63.874038696" lon="-21.094982147">
<ele>9.640625</ele>
<time>2012-07-27T18:36:03Z</time>
<speed>8.050000</speed>
<extensions>
<speed>8.0</speed>
<temp>0.00</temp>
<bpm>0</bpm>
<rpm>0.00</rpm>
</extensions>
</trkpt>
<trkpt lat="63.873722076" lon="-21.095333099">
<ele>9.390869</ele>
<time>2012-07-27T18:36:08Z</time>
<speed>7.250000</speed>
<extensions>
<speed>7.3</speed>
<temp>0.00</temp>
<bpm>0</bpm>
<rpm>0.00</rpm>
</extensions>
</trkpt>
<trkpt lat="63.873435974" lon="-21.095636368">
<ele>9.560059</ele>
<time>2012-07-27T18:36:13Z</time>
<speed>7.230000</speed>
<extensions>
<speed>7.2</speed>
<temp>0.00</temp>
<bpm>0</bpm>
<rpm>0.00</rpm>
</extensions>
</trkpt>
<trkpt lat="63.873134613" lon="-21.095966339">
<ele>9.203369</ele>
<time>2012-07-27T18:36:18Z</time>
<speed>7.700000</speed>
<extensions>
<speed>7.7</speed>
<temp>0.00</temp>
<bpm>0</bpm>
<rpm>0.00</rpm>
</extensions>
</trkpt>
<trkpt lat="63.872817993" lon="-21.096305847">
<ele>8.926514</ele>
<time>2012-07-27T18:36:23Z</time>
<speed>7.690000</speed>
<extensions>
<speed>7.7</speed>
<temp>0.00</temp>
<bpm>0</bpm>
<rpm>0.00</rpm>
</extensions>
</trkpt>
<trkpt lat="63.872516632" lon="-21.096630096">
<ele>8.532715</ele>
<time>2012-07-27T18:36:28Z</time>
<speed>7.540000</speed>
<extensions>
<speed>7.5</speed>
<temp>0.00</temp>
<bpm>0</bpm>
<rpm>0.00</rpm>
</extensions>
</trkpt>
<trkpt lat="63.872203827" lon="-21.096956253">
<ele>8.210205</ele>
<time>2012-07-27T18:36:33Z</time>
<speed>7.680000</speed>
<extensions>
<speed>7.7</speed>
<temp>0.00</temp>
<bpm>0</bpm>
<rpm>0.00</rpm>
</extensions>
</trkpt>
<trkpt lat="63.871898651" lon="-21.097276688">
<ele>7.876343</ele>
<time>2012-07-27T18:36:38Z</time>
<speed>7.110000</speed>
<extensions>
<speed>7.1</speed>
<temp>0.00</temp>
<bpm>0</bpm>
<rpm>0.00</rpm>
</extensions>
</trkpt>
<trkpt lat="63.871623993" lon="-21.097578049">
<ele>7.911133</ele>
<time>2012-07-27T18:36:43Z</time>
<speed>6.240000</speed>
<extensions>
<speed>6.2</speed>
<temp>0.00</temp>
<bpm>0</bpm>
<rpm>0.00</rpm>
</extensions>
</trkpt>
<trkpt lat="63.871372223" lon="-21.097833633">
<ele>8.623779</ele>
<time>2012-07-27T18:36:48Z</time>
<speed>6.540000</speed>
<extensions>
<speed>6.5</speed>
<temp>0.00</temp>
<bpm>0</bpm>
<rpm>0.00</rpm>
</extensions>
</trkpt>
<trkpt lat="63.871105194" lon="-21.098089218">
<ele>9.458008</ele>
<time>2012-07-27T18:36:53Z</time>
<speed>6.830000</speed>
<extensions>
<speed>6.8</speed>
<temp>0.00</temp>
<bpm>0</bpm>
<rpm>0.00</rpm>
</extensions>
</trkpt>
<trkpt lat="63.870822906" lon="-21.098398209">
<ele>9.765381</ele>
<time>2012-07-27T18:36:58Z</time>
<speed>7.040000</speed>
<extensions>
<speed>7.0</speed>
<temp>0.00</temp>
<bpm>0</bpm>
<rpm>0.00</rpm>
</extensions>
</trkpt>
<trkpt lat="63.870529175" lon="-21.098712921">
<ele>10.053711</ele>
<time>2012-07-27T18:37:03Z</time>
<speed>6.710000</speed>
<extensions>
<speed>6.7</speed>
<temp>0.00</temp>
<bpm>0</bpm>
<rpm>0.00</rpm>
</extensions>
</trkpt>
<trkpt lat="63.870212555" lon="-21.099052429">
<ele>10.156250</ele>
<time>2012-07-27T18:37:08Z</time>
<speed>7.550000</speed>
<extensions>
<speed>7.6</speed>
<temp>0.00</temp>
<bpm>0</bpm>
<rpm>0.00</rpm>
</extensions>
</trkpt>
<trkpt lat="63.869934082" lon="-21.099372864">
<ele>10.228516</ele>
<time>2012-07-27T18:37:13Z</time>
<speed>6.780000</speed>
<extensions>
<speed>6.8</speed>
<temp>0.00</temp>
<bpm>0</bpm>
<rpm>0.00</rpm>
</extensions>
</trkpt>
<trkpt lat="63.869655609" lon="-21.099645615">
<ele>10.310791</ele>
<time>2012-07-27T18:37:18Z</time>
<speed>7.140000</speed>
<extensions>
<speed>7.1</speed>
<temp>0.00</temp>
<bpm>0</bpm>
<rpm>0.00</rpm>
</extensions>
</trkpt>
<trkpt lat="63.869365692" lon="-21.099956512">
<ele>10.676025</ele>
<time>2012-07-27T18:37:23Z</time>
<speed>7.310000</speed>
<extensions>
<speed>7.3</speed>
<temp>0.00</temp>
<bpm>0</bpm>
<rpm>0.00</rpm>
</extensions>
</trkpt>
<trkpt lat="63.869098663" lon="-21.100254059">
<ele>10.589600</ele>
<time>2012-07-27T18:37:28Z</time>
<speed>5.980000</speed>
<extensions>
<speed>6.0</speed>
<temp>0.00</temp>
<bpm>0</bpm>
<rpm>0.00</rpm>
</extensions>
</trkpt>
<trkpt lat="63.868865967" lon="-21.100502014">
<ele>10.683105</ele>
<time>2012-07-27T18:37:33Z</time>
<speed>5.400000</speed>
<extensions>
<speed>5.4</speed>
<temp>0.00</temp>
<bpm>0</bpm>
<rpm>0.00</rpm>
</extensions>
</trkpt>
<trkpt lat="63.868629456" lon="-21.100767136">
<ele>10.429443</ele>
<time>2012-07-27T18:37:38Z</time>
<speed>5.990000</speed>
<extensions>
<speed>6.0</speed>
<temp>0.00</temp>
<bpm>0</bpm>
<rpm>0.00</rpm>
</extensions>
</trkpt>
<trkpt lat="63.868381500" lon="-21.101039886">
<ele>10.179443</ele>
<time>2012-07-27T18:37:43Z</time>
<speed>6.350000</speed>
<extensions>
<speed>6.4</speed>
<temp>0.00</temp>
<bpm>0</bpm>
<rpm>0.00</rpm>
</extensions>
</trkpt>
<trkpt lat="63.868118286" lon="-21.101299286">
<ele>10.890625</ele>
<time>2012-07-27T18:37:48Z</time>
<speed>6.600000</speed>
<extensions>
<speed>6.6</speed>
<temp>0.00</temp>
<bpm>0</bpm>
<rpm>0.00</rpm>
</extensions>
</trkpt>
<trkpt lat="63.867847443" lon="-21.101591110">
<ele>11.155273</ele>
<time>2012-07-27T18:37:53Z</time>
<speed>6.730000</speed>
<extensions>
<speed>6.7</speed>
<temp>0.00</temp>
<bpm>0</bpm>
<rpm>0.00</rpm>
</extensions>
</trkpt>
<trkpt lat="63.867561340" lon="-21.101917267">
<ele>10.241211</ele>
<time>2012-07-27T18:37:58Z</time>
<speed>7.050000</speed>
<extensions>
<speed>7.0</speed>
<temp>0.00</temp>
<bpm>0</bpm>
<rpm>0.00</rpm>
</extensions>
</trkpt>
<trkpt lat="63.867298126" lon="-21.102188110">
<ele>10.412598</ele>
<time>2012-07-27T18:38:03Z</time>
<speed>5.630000</speed>
<extensions>
<speed>5.6</speed>
<temp>0.00</temp>
<bpm>0</bpm>
<rpm>0.00</rpm>
</extensions>
</trkpt>
<trkpt lat="63.867065430" lon="-21.102437973">
<ele>9.993408</ele>
<time>2012-07-27T18:38:08Z</time>
<speed>5.780000</speed>
<extensions>
<speed>5.8</speed>
<temp>0.00</temp>
<bpm>0</bpm>
<rpm>0.00</rpm>
</extensions>
</trkpt>
<trkpt lat="63.866821289" lon="-21.102693558">
<ele>9.908203</ele>
<time>2012-07-27T18:38:13Z</time>
<speed>6.090000</speed>
<extensions>
<speed>6.1</speed>
<temp>0.00</temp>
<bpm>0</bpm>
<rpm>0.00</rpm>
</extensions>
</trkpt>
<trkpt lat="63.866588593" lon="-21.102962494">
<ele>10.022705</ele>
<time>2012-07-27T18:38:18Z</time>
<speed>5.440000</speed>
<extensions>
<speed>5.4</speed>
<temp>0.00</temp>
<bpm>0</bpm>
<rpm>0.00</rpm>
</extensions>
</trkpt>
<trkpt lat="63.866374969" lon="-21.103195190">
<ele>9.848633</ele>
<time>2012-07-27T18:38:23Z</time>
<speed>5.010000</speed>
<extensions>
<speed>5.0</speed>
<temp>0.00</temp>
<bpm>0</bpm>
<rpm>0.00</rpm>
</extensions>
</trkpt>
<trkpt lat="63.866180420" lon="-21.103408813">
<ele>9.875488</ele>
<time>2012-07-27T18:38:28Z</time>
<speed>5.500000</speed>
<extensions>
<speed>5.5</speed>
<temp>0.00</temp>
<bpm>0</bpm>
<rpm>0.00</rpm>
</extensions>
</trkpt>
<trkpt lat="63.865947723" lon="-21.103656769">
<ele>9.886719</ele>
<time>2012-07-27T18:38:33Z</time>
<speed>6.210000</speed>
<extensions>
<speed>6.2</speed>
<temp>0.00</temp>
<bpm>0</bpm>
<rpm>0.00</rpm>
</extensions>
</trkpt>
<trkpt lat="63.865707397" lon="-21.103914261">
<ele>9.570801</ele>
<time>2012-07-27T18:38:38Z</time>
<speed>5.510000</speed>
<extensions>
<speed>5.5</speed>
<temp>0.00</temp>
<bpm>0</bpm>
<rpm>0.00</rpm>
</extensions>
</trkpt>
<trkpt lat="63.865467072" lon="-21.104183197">
<ele>9.530029</ele>
<time>2012-07-27T18:38:43Z</time>
<speed>6.220000</speed>
<extensions>
<speed>6.2</speed>
<temp>0.00</temp>
<bpm>0</bpm>
<rpm>0.00</rpm>
</extensions>
</trkpt>
<trkpt lat="63.865196228" lon="-21.104473114">
<ele>9.251709</ele>
<time>2012-07-27T18:38:48Z</time>
<speed>6.780000</speed>
<extensions>
<speed>6.8</speed>
<temp>0.00</temp>
<bpm>0</bpm>
<rpm>0.00</rpm>
</extensions>
</trkpt>
<trkpt lat="63.864933014" lon="-21.104753494">
<ele>8.854736</ele>
<time>2012-07-27T18:38:53Z</time>
<speed>6.080000</speed>
<extensions>
<speed>6.1</speed>
<temp>0.00</temp>
<bpm>0</bpm>
<rpm>0.00</rpm>
</extensions>
</trkpt>
<trkpt lat="63.864685059" lon="-21.105022430">
<ele>8.508057</ele>
<time>2012-07-27T18:38:58Z</time>
<speed>6.280000</speed>
<extensions>
<speed>6.3</speed>
<temp>0.00</temp>
<bpm>0</bpm>
<rpm>0.00</rpm>
</extensions>
</trkpt>
<trkpt lat="63.864414215" lon="-21.105302811">
<ele>8.012939</ele>
<time>2012-07-27T18:39:03Z</time>
<speed>6.840000</speed>
<extensions>
<speed>6.8</speed>
<temp>0.00</temp>
<bpm>0</bpm>
<rpm>0.00</rpm>
</extensions>
</trkpt>
<trkpt lat="63.864131927" lon="-21.105592728">
<ele>7.659790</ele>
<time>2012-07-27T18:39:08Z</time>
<speed>6.660000</speed>
<extensions>
<speed>6.7</speed>
<temp>0.00</temp>
<bpm>0</bpm>
<rpm>0.00</rpm>
</extensions>
</trkpt>
<trkpt lat="63.863883972" lon="-21.105863571">
<ele>7.615234</ele>
<time>2012-07-27T18:39:13Z</time>
<speed>5.710000</speed>
<extensions>
<speed>5.7</speed>
<temp>0.00</temp>
<bpm>0</bpm>
<rpm>0.00</rpm>
</extensions>
</trkpt>
<trkpt lat="63.863643646" lon="-21.106121063">
<ele>7.672119</ele>
<time>2012-07-27T18:39:18Z</time>
<speed>6.270000</speed>
<extensions>
<speed>6.3</speed>
<temp>0.00</temp>
<bpm>0</bpm>
<rpm>0.00</rpm>
</extensions>
</trkpt>
<trkpt lat="63.863380432" lon="-21.106357574">
<ele>7.505249</ele>
<time>2012-07-27T18:39:23Z</time>
<speed>6.780000</speed>
<extensions>
<speed>6.8</speed>
<temp>0.00</temp>
<bpm>0</bpm>
<rpm>0.00</rpm>
</extensions>
</trkpt>
<trkpt lat="63.863124847" lon="-21.106641769">
<ele>7.808960</ele>
<time>2012-07-27T18:39:28Z</time>
<speed>5.850000</speed>
<extensions>
<speed>5.8</speed>
<temp>0.00</temp>
<bpm>0</bpm>
<rpm>0.00</rpm>
</extensions>
</trkpt>
<trkpt lat="63.862892151" lon="-21.106916428">
<ele>8.100342</ele>
<time>2012-07-27T18:39:33Z</time>
<speed>5.650000</speed>
<extensions>
<speed>5.7</speed>
<temp>0.00</temp>
<bpm>0</bpm>
<rpm>0.00</rpm>
</extensions>
</trkpt>
<trkpt lat="63.862651825" lon="-21.107172012">
<ele>8.242188</ele>
<time>2012-07-27T18:39:38Z</time>
<speed>6.120000</speed>
<extensions>
<speed>6.1</speed>
<temp>0.00</temp>
<bpm>0</bpm>
<rpm>0.00</rpm>
</extensions>
</trkpt>
<trkpt lat="63.862411499" lon="-21.107437134">
<ele>8.165527</ele>
<time>2012-07-27T18:39:43Z</time>
<speed>5.580000</speed>
<extensions>
<speed>5.6</speed>
<temp>0.00</temp>
<bpm>0</bpm>
<rpm>0.00</rpm>
</extensions>
</trkpt>
<trkpt lat="63.862190247" lon="-21.107675552">
<ele>8.502930</ele>
<time>2012-07-27T18:39:48Z</time>
<speed>5.460000</speed>
<extensions>
<speed>5.5</speed>
<temp>0.00</temp>
<bpm>0</bpm>
<rpm>0.00</rpm>
</extensions>
</trkpt>
<trkpt lat="63.861953735" lon="-21.107925415">
<ele>8.889648</ele>
<time>2012-07-27T18:39:53Z</time>
<speed>5.910000</speed>
<extensions>
<speed>5.9</speed>
<temp>0.00</temp>
<bpm>0</bpm>
<rpm>0.00</rpm>
</extensions>
</trkpt>
<trkpt lat="63.861713409" lon="-21.108213425">
<ele>8.921875</ele>
<time>2012-07-27T18:39:58Z</time>
<speed>6.060000</speed>
<extensions>
<speed>6.1</speed>
<temp>0.00</temp>
<bpm>0</bpm>
<rpm>0.00</rpm>
</extensions>
</trkpt>
<trkpt lat="63.861492157" lon="-21.108503342">
<ele>8.976074</ele>
<time>2012-07-27T18:40:03Z</time>
<speed>5.140000</speed>
<extensions>
<speed>5.1</speed>
<temp>0.00</temp>
<bpm>0</bpm>
<rpm>0.00</rpm>
</extensions>
</trkpt>
<trkpt lat="63.861320496" lon="-21.108778000">
<ele>8.784912</ele>
<time>2012-07-27T18:40:08Z</time>
<speed>4.290000</speed>
<extensions>
<speed>4.3</speed>
<temp>0.00</temp>
<bpm>0</bpm>
<rpm>0.00</rpm>
</extensions>
</trkpt>
<trkpt lat="63.861186981" lon="-21.109006882">
<ele>8.910156</ele>
<time>2012-07-27T18:40:13Z</time>
<speed>3.230000</speed>
<extensions>
<speed>3.2</speed>
<temp>0.00</temp>
<bpm>0</bpm>
<rpm>0.00</rpm>
</extensions>
</trkpt>
<trkpt lat="63.861114502" lon="-21.109149933">
<ele>8.976074</ele>
<time>2012-07-27T18:40:18Z</time>
<speed>0.910000</speed>
<extensions>
<speed>0.9</speed>
<temp>0.00</temp>
<bpm>0</bpm>
<rpm>0.00</rpm>
</extensions>
</trkpt>
<trkpt lat="63.861110687" lon="-21.109153748">
<ele>9.171875</ele>
<time>2012-07-27T18:40:23Z</time>
<extensions>
<speed>0.0</speed>
<temp>0.00</temp>
<bpm>0</bpm>
<rpm>0.00</rpm>
</extensions>
</trkpt>
<trkpt lat="63.861110687" lon="-21.109155655">
<ele>9.235352</ele>
<time>2012-07-27T18:40:28Z</time>
<extensions>
<speed>0.0</speed>
<temp>0.00</temp>
<bpm>0</bpm>
<rpm>0.00</rpm>
</extensions>
</trkpt>
<trkpt lat="63.861110687" lon="-21.109155655">
<ele>9.295654</ele>
<time>2012-07-27T18:40:33Z</time>
<speed>0.020000</speed>
<extensions>
<speed>0.0</speed>
<temp>0.00</temp>
<bpm>0</bpm>
<rpm>0.00</rpm>
</extensions>
</trkpt>
<trkpt lat="63.861110687" lon="-21.109151840">
<ele>9.211182</ele>
<time>2012-07-27T18:40:38Z</time>
<extensions>
<speed>0.0</speed>
<temp>0.00</temp>
<bpm>0</bpm>
<rpm>0.00</rpm>
</extensions>
</trkpt>
<trkpt lat="63.861110687" lon="-21.109151840">
<ele>9.161621</ele>
<time>2012-07-27T18:40:43Z</time>
<speed>0.010000</speed>
<extensions>
<speed>0.0</speed>
<temp>0.00</temp>
<bpm>0</bpm>
<rpm>0.00</rpm>
</extensions>
</trkpt>
<trkpt lat="63.861110687" lon="-21.109151840">
<ele>9.141113</ele>
<time>2012-07-27T18:40:48Z</time>
<extensions>
<speed>0.0</speed>
<temp>0.00</temp>
<bpm>0</bpm>
<rpm>0.00</rpm>
</extensions>
</trkpt>
<trkpt lat="63.861110687" lon="-21.109151840">
<ele>9.115234</ele>
<time>2012-07-27T18:40:53Z</time>
<extensions>
<speed>0.0</speed>
<temp>0.00</temp>
<bpm>0</bpm>
<rpm>0.00</rpm>
</extensions>
</trkpt>
<trkpt lat="63.861110687" lon="-21.109151840">
<ele>9.114258</ele>
<time>2012-07-27T18:40:58Z</time>
<speed>0.010000</speed>
<extensions>
<speed>0.0</speed>
<temp>0.00</temp>
<bpm>0</bpm>
<rpm>0.00</rpm>
</extensions>
</trkpt>
<trkpt lat="63.861110687" lon="-21.109151840">
<ele>9.114746</ele>
<time>2012-07-27T18:41:03Z</time>
<extensions>
<speed>0.0</speed>
<temp>0.00</temp>
<bpm>0</bpm>
<rpm>0.00</rpm>
</extensions>
</trkpt>
<trkpt lat="63.861110687" lon="-21.109151840">
<ele>9.108398</ele>
<time>2012-07-27T18:41:08Z</time>
<extensions>
<speed>0.0</speed>
<temp>0.00</temp>
<bpm>0</bpm>
<rpm>0.00</rpm>
</extensions>
</trkpt>
<trkpt lat="63.861110687" lon="-21.109151840">
<ele>9.118896</ele>
<time>2012-07-27T18:41:13Z</time>
<extensions>
<speed>0.0</speed>
<temp>0.00</temp>
<bpm>0</bpm>
<rpm>0.00</rpm>
</extensions>
</trkpt>
<trkpt lat="63.861110687" lon="-21.109151840">
<ele>9.124756</ele>
<time>2012-07-27T18:41:18Z</time>
<speed>0.030000</speed>
<extensions>
<speed>0.0</speed>
<temp>0.00</temp>
<bpm>0</bpm>
<rpm>0.00</rpm>
</extensions>
</trkpt>
<trkpt lat="63.861110687" lon="-21.109151840">
<ele>9.119141</ele>
<time>2012-07-27T18:41:23Z</time>
<extensions>
<speed>0.0</speed>
<temp>0.00</temp>
<bpm>0</bpm>
<rpm>0.00</rpm>
</extensions>
</trkpt>
<trkpt lat="63.861110687" lon="-21.109151840">
<ele>9.113281</ele>
<time>2012-07-27T18:41:28Z</time>
<speed>0.010000</speed>
<extensions>
<speed>0.0</speed>
<temp>0.00</temp>
<bpm>0</bpm>
<rpm>0.00</rpm>
</extensions>
</trkpt>
<trkpt lat="63.861110687" lon="-21.109151840">
<ele>9.111084</ele>
<time>2012-07-27T18:41:33Z</time>
<extensions>
<speed>0.0</speed>
<temp>0.00</temp>
<bpm>0</bpm>
<rpm>0.00</rpm>
</extensions>
</trkpt>
<trkpt lat="63.861110687" lon="-21.109151840">
<ele>9.115479</ele>
<time>2012-07-27T18:41:38Z</time>
<extensions>
<speed>0.0</speed>
<temp>0.00</temp>
<bpm>0</bpm>
<rpm>0.00</rpm>
</extensions>
</trkpt>
<trkpt lat="63.861110687" lon="-21.109151840">
<ele>9.113281</ele>
<time>2012-07-27T18:41:43Z</time>
<extensions>
<speed>0.0</speed>
<temp>0.00</temp>
<bpm>0</bpm>
<rpm>0.00</rpm>
</extensions>
</trkpt>
<trkpt lat="63.861110687" lon="-21.109151840">
<ele>9.111084</ele>
<time>2012-07-27T18:41:48Z</time>
<extensions>
<speed>0.0</speed>
<temp>0.00</temp>
<bpm>0</bpm>
<rpm>0.00</rpm>
</extensions>
</trkpt>
<trkpt lat="63.861110687" lon="-21.109151840">
<ele>9.110107</ele>
<time>2012-07-27T18:41:53Z</time>
<extensions>
<speed>0.0</speed>
<temp>0.00</temp>
<bpm>0</bpm>
<rpm>0.00</rpm>
</extensions>
</trkpt>
<trkpt lat="63.861110687" lon="-21.109151840">
<ele>9.110107</ele>
<time>2012-07-27T18:41:58Z</time>
<speed>0.010000</speed>
<extensions>
<speed>0.0</speed>
<temp>0.00</temp>
<bpm>0</bpm>
<rpm>0.00</rpm>
</extensions>
</trkpt>
<trkpt lat="63.861114502" lon="-21.109151840">
<ele>9.109863</ele>
<time>2012-07-27T18:42:03Z</time>
<extensions>
<speed>0.0</speed>
<temp>0.00</temp>
<bpm>0</bpm>
<rpm>0.00</rpm>
</extensions>
</trkpt>
<trkpt lat="63.861114502" lon="-21.109149933">
<ele>9.110352</ele>
<time>2012-07-27T18:42:08Z</time>
<speed>0.020000</speed>
<extensions>
<speed>0.0</speed>
<temp>0.00</temp>
<bpm>0</bpm>
<rpm>0.00</rpm>
</extensions>
</trkpt>
<trkpt lat="63.861114502" lon="-21.109149933">
<ele>9.112061</ele>
<time>2012-07-27T18:42:13Z</time>
<extensions>
<speed>0.0</speed>
<temp>0.00</temp>
<bpm>0</bpm>
<rpm>0.00</rpm>
</extensions>
</trkpt>
<trkpt lat="63.861114502" lon="-21.109149933">
<ele>9.116943</ele>
<time>2012-07-27T18:42:18Z</time>
<extensions>
<speed>0.0</speed>
<temp>0.00</temp>
<bpm>0</bpm>
<rpm>0.00</rpm>
</extensions>
</trkpt>
<trkpt lat="63.861114502" lon="-21.109149933">
<ele>9.120361</ele>
<time>2012-07-27T18:42:23Z</time>
<speed>0.010000</speed>
<extensions>
<speed>0.0</speed>
<temp>0.00</temp>
<bpm>0</bpm>
<rpm>0.00</rpm>
</extensions>
</trkpt>
<trkpt lat="63.861114502" lon="-21.109151840">
<ele>9.125488</ele>
<time>2012-07-27T18:42:28Z</time>
<extensions>
<speed>0.0</speed>
<temp>0.00</temp>
<bpm>0</bpm>
<rpm>0.00</rpm>
</extensions>
</trkpt>
<trkpt lat="63.861106873" lon="-21.109161377">
<ele>9.102051</ele>
<time>2012-07-27T18:42:33Z</time>
<speed>1.270000</speed>
<extensions>
<speed>1.3</speed>
<temp>0.00</temp>
<bpm>0</bpm>
<rpm>0.00</rpm>
</extensions>
</trkpt>
<trkpt lat="63.860996246" lon="-21.109333038">
<ele>9.301758</ele>
<time>2012-07-27T18:42:38Z</time>
<speed>4.220000</speed>
<extensions>
<speed>4.2</speed>
<temp>0.00</temp>
<bpm>0</bpm>
<rpm>0.00</rpm>
</extensions>
</trkpt>
<trkpt lat="63.860832214" lon="-21.109685898">
<ele>8.366699</ele>
<time>2012-07-27T18:42:43Z</time>
<speed>5.270000</speed>
<extensions>
<speed>5.3</speed>
<temp>0.00</temp>
<bpm>0</bpm>
<rpm>0.00</rpm>
</extensions>
</trkpt>
<trkpt lat="63.860652924" lon="-21.110113144">
<ele>7.648804</ele>
<time>2012-07-27T18:42:48Z</time>
<speed>5.860000</speed>
<extensions>
<speed>5.9</speed>
<temp>0.00</temp>
<bpm>0</bpm>
<rpm>0.00</rpm>
</extensions>
</trkpt>
<trkpt lat="63.860481262" lon="-21.110574722">
<ele>7.221436</ele>
<time>2012-07-27T18:42:53Z</time>
<speed>6.070000</speed>
<extensions>
<speed>6.1</speed>
<temp>0.00</temp>
<bpm>0</bpm>
<rpm>0.00</rpm>
</extensions>
</trkpt>
<trkpt lat="63.860305786" lon="-21.111059189">
<ele>7.074951</ele>
<time>2012-07-27T18:42:58Z</time>
<speed>5.840000</speed>
<extensions>
<speed>5.8</speed>
<temp>0.00</temp>
<bpm>0</bpm>
<rpm>0.00</rpm>
</extensions>
</trkpt>
<trkpt lat="63.860153198" lon="-21.111572266">
<ele>8.740723</ele>
<time>2012-07-27T18:43:03Z</time>
<speed>6.660000</speed>
<extensions>
<speed>6.7</speed>
<temp>0.00</temp>
<bpm>0</bpm>
<rpm>0.00</rpm>
</extensions>
</trkpt>
<trkpt lat="63.860000610" lon="-21.112159729">
<ele>10.117188</ele>
<time>2012-07-27T18:43:08Z</time>
<speed>6.690000</speed>
<extensions>
<speed>6.7</speed>
<temp>0.00</temp>
<bpm>0</bpm>
<rpm>0.00</rpm>
</extensions>
</trkpt>
<trkpt lat="63.859870911" lon="-21.112762451">
<ele>9.439453</ele>
<time>2012-07-27T18:43:13Z</time>
<speed>6.770000</speed>
<extensions>
<speed>6.8</speed>
<temp>0.00</temp>
<bpm>0</bpm>
<rpm>0.00</rpm>
</extensions>
</trkpt>
<trkpt lat="63.859752655" lon="-21.113416672">
<ele>8.901367</ele>
<time>2012-07-27T18:43:18Z</time>
<speed>6.950000</speed>
<extensions>
<speed>7.0</speed>
<temp>0.00</temp>
<bpm>0</bpm>
<rpm>0.00</rpm>
</extensions>
</trkpt>
<trkpt lat="63.859657288" lon="-21.114099503">
<ele>8.817871</ele>
<time>2012-07-27T18:43:23Z</time>
<speed>7.000000</speed>
<extensions>
<speed>7.0</speed>
<temp>0.00</temp>
<bpm>0</bpm>
<rpm>0.00</rpm>
</extensions>
</trkpt>
<trkpt lat="63.859577179" lon="-21.114784241">
<ele>8.775391</ele>
<time>2012-07-27T18:43:28Z</time>
<speed>6.910000</speed>
<extensions>
<speed>6.9</speed>
<temp>0.00</temp>
<bpm>0</bpm>
<rpm>0.00</rpm>
</extensions>
</trkpt>
<trkpt lat="63.859531403" lon="-21.115476608">
<ele>8.736084</ele>
<time>2012-07-27T18:43:33Z</time>
<speed>7.150000</speed>
<extensions>
<speed>7.1</speed>
<temp>0.00</temp>
<bpm>0</bpm>
<rpm>0.00</rpm>
</extensions>
</trkpt>
<trkpt lat="63.859512329" lon="-21.116214752">
<ele>8.565430</ele>
<time>2012-07-27T18:43:38Z</time>
<speed>6.960000</speed>
<extensions>
<speed>7.0</speed>
<temp>0.00</temp>
<bpm>0</bpm>
<rpm>0.00</rpm>
</extensions>
</trkpt>
<trkpt lat="63.859519958" lon="-21.116907120">
<ele>8.052734</ele>
<time>2012-07-27T18:43:43Z</time>
<speed>6.440000</speed>
<extensions>
<speed>6.4</speed>
<temp>0.00</temp>
<bpm>0</bpm>
<rpm>0.00</rpm>
</extensions>
</trkpt>
<trkpt lat="63.859539032" lon="-21.117603302">
<ele>7.834351</ele>
<time>2012-07-27T18:43:48Z</time>
<speed>7.310000</speed>
<extensions>
<speed>7.3</speed>
<temp>0.00</temp>
<bpm>0</bpm>
<rpm>0.00</rpm>
</extensions>
</trkpt>
<trkpt lat="63.859592438" lon="-21.118339539">
<ele>7.624878</ele>
<time>2012-07-27T18:43:53Z</time>
<speed>7.080000</speed>
<extensions>
<speed>7.1</speed>
<temp>0.00</temp>
<bpm>0</bpm>
<rpm>0.00</rpm>
</extensions>
</trkpt>
<trkpt lat="63.859653473" lon="-21.118982315">
<ele>7.554688</ele>
<time>2012-07-27T18:43:58Z</time>
<speed>6.160000</speed>
<extensions>
<speed>6.2</speed>
<temp>0.00</temp>
<bpm>0</bpm>
<rpm>0.00</rpm>
</extensions>
</trkpt>
<trkpt lat="63.859737396" lon="-21.119544983">
<ele>7.380371</ele>
<time>2012-07-27T18:44:03Z</time>
<speed>5.850000</speed>
<extensions>
<speed>5.8</speed>
<temp>0.00</temp>
<bpm>0</bpm>
<rpm>0.00</rpm>
</extensions>
</trkpt>
<trkpt lat="63.859821320" lon="-21.120073318">
<ele>7.612549</ele>
<time>2012-07-27T18:44:08Z</time>
<speed>5.220000</speed>
<extensions>
<speed>5.2</speed>
<temp>0.00</temp>
<bpm>0</bpm>
<rpm>0.00</rpm>
</extensions>
</trkpt>
<trkpt lat="63.859901428" lon="-21.120500565">
<ele>7.197266</ele>
<time>2012-07-27T18:44:13Z</time>
<speed>4.330000</speed>
<extensions>
<speed>4.3</speed>
<temp>0.00</temp>
<bpm>0</bpm>
<rpm>0.00</rpm>
</extensions>
</trkpt>
<trkpt lat="63.859985352" lon="-21.120889664">
<ele>7.289185</ele>
<time>2012-07-27T18:44:18Z</time>
<speed>4.180000</speed>
<extensions>
<speed>4.2</speed>
<temp>0.00</temp>
<bpm>0</bpm>
<rpm>0.00</rpm>
</extensions>
</trkpt>
<trkpt lat="63.860080719" lon="-21.121276855">
<ele>7.064941</ele>
<time>2012-07-27T18:44:23Z</time>
<speed>4.630000</speed>
<extensions>
<speed>4.6</speed>
<temp>0.00</temp>
<bpm>0</bpm>
<rpm>0.00</rpm>
</extensions>
</trkpt>
<trkpt lat="63.860191345" lon="-21.121713638">
<ele>6.562866</ele>
<time>2012-07-27T18:44:28Z</time>
<speed>4.970000</speed>
<extensions>
<speed>5.0</speed>
<temp>0.00</temp>
<bpm>0</bpm>
<rpm>0.00</rpm>
</extensions>
</trkpt>
<trkpt lat="63.860298157" lon="-21.122152328">
<ele>6.251831</ele>
<time>2012-07-27T18:44:33Z</time>
<speed>4.630000</speed>
<extensions>
<speed>4.6</speed>
<temp>0.00</temp>
<bpm>0</bpm>
<rpm>0.00</rpm>
</extensions>
</trkpt>
<trkpt lat="63.860397339" lon="-21.122509003">
<ele>5.812256</ele>
<time>2012-07-27T18:44:38Z</time>
<speed>3.900000</speed>
<extensions>
<speed>3.9</speed>
<temp>0.00</temp>
<bpm>0</bpm>
<rpm>0.00</rpm>
</extensions>
</trkpt>
<trkpt lat="63.860481262" lon="-21.122837067">
<ele>5.184448</ele>
<time>2012-07-27T18:44:43Z</time>
<speed>3.620000</speed>
<extensions>
<speed>3.6</speed>
<temp>0.00</temp>
<bpm>0</bpm>
<rpm>0.00</rpm>
</extensions>
</trkpt>
<trkpt lat="63.860561371" lon="-21.123159409">
<ele>4.901855</ele>
<time>2012-07-27T18:44:48Z</time>
<speed>3.660000</speed>
<extensions>
<speed>3.7</speed>
<temp>0.00</temp>
<bpm>0</bpm>
<rpm>0.00</rpm>
</extensions>
</trkpt>
<trkpt lat="63.860637665" lon="-21.123447418">
<ele>4.567505</ele>
<time>2012-07-27T18:44:53Z</time>
<speed>2.970000</speed>
<extensions>
<speed>3.0</speed>
<temp>0.00</temp>
<bpm>0</bpm>
<rpm>0.00</rpm>
</extensions>
</trkpt>
<trkpt lat="63.860691071" lon="-21.123678207">
<ele>4.198975</ele>
<time>2012-07-27T18:44:58Z</time>
<speed>2.260000</speed>
<extensions>
<speed>2.3</speed>
<temp>0.00</temp>
<bpm>0</bpm>
<rpm>0.00</rpm>
</extensions>
</trkpt>
<trkpt lat="63.860736847" lon="-21.123849869">
<ele>4.218262</ele>
<time>2012-07-27T18:45:03Z</time>
<speed>2.140000</speed>
<extensions>
<speed>2.1</speed>
<temp>0.00</temp>
<bpm>0</bpm>
<rpm>0.00</rpm>
</extensions>
</trkpt>
<trkpt lat="63.860790253" lon="-21.124040604">
<ele>3.966980</ele>
<time>2012-07-27T18:45:08Z</time>
<speed>2.090000</speed>
<extensions>
<speed>2.1</speed>
<temp>0.00</temp>
<bpm>0</bpm>
<rpm>0.00</rpm>
</extensions>
</trkpt>
<trkpt lat="63.860836029" lon="-21.124267578">
<ele>3.814209</ele>
<time>2012-07-27T18:45:13Z</time>
<speed>2.810000</speed>
<extensions>
<speed>2.8</speed>
<temp>0.00</temp>
<bpm>0</bpm>
<rpm>0.00</rpm>
</extensions>
</trkpt>
<trkpt lat="63.860900879" lon="-21.124534607">
<ele>3.969177</ele>
<time>2012-07-27T18:45:18Z</time>
<speed>2.900000</speed>
<extensions>
<speed>2.9</speed>
<temp>0.00</temp>
<bpm>0</bpm>
<rpm>0.00</rpm>
</extensions>
</trkpt>
<trkpt lat="63.860954285" lon="-21.124773026">
<ele>4.488037</ele>
<time>2012-07-27T18:45:23Z</time>
<speed>3.040000</speed>
<extensions>
<speed>3.0</speed>
<temp>0.00</temp>
<bpm>0</bpm>
<rpm>0.00</rpm>
</extensions>
</trkpt>
<trkpt lat="63.861030579" lon="-21.125055313">
<ele>4.108643</ele>
<time>2012-07-27T18:45:28Z</time>
<speed>3.340000</speed>
<extensions>
<speed>3.3</speed>
<temp>0.00</temp>
<bpm>0</bpm>
<rpm>0.00</rpm>
</extensions>
</trkpt>
<trkpt lat="63.861114502" lon="-21.125389099">
<ele>3.772766</ele>
<time>2012-07-27T18:45:33Z</time>
<speed>4.130000</speed>
<extensions>
<speed>4.1</speed>
<temp>0.00</temp>
<bpm>0</bpm>
<rpm>0.00</rpm>
</extensions>
</trkpt>
<trkpt lat="63.861217499" lon="-21.125772476">
<ele>3.098328</ele>
<time>2012-07-27T18:45:38Z</time>
<speed>4.420000</speed>
<extensions>
<speed>4.4</speed>
<temp>0.00</temp>
<bpm>0</bpm>
<rpm>0.00</rpm>
</extensions>
</trkpt>
<trkpt lat="63.861312866" lon="-21.126157761">
<ele>3.013184</ele>
<time>2012-07-27T18:45:43Z</time>
<speed>3.910000</speed>
<extensions>
<speed>3.9</speed>
<temp>0.00</temp>
<bpm>0</bpm>
<rpm>0.00</rpm>
</extensions>
</trkpt>
<trkpt lat="63.861381531" lon="-21.126480103">
<ele>4.003052</ele>
<time>2012-07-27T18:45:48Z</time>
<speed>3.260000</speed>
<extensions>
<speed>3.3</speed>
<temp>0.00</temp>
<bpm>0</bpm>
<rpm>0.00</rpm>
</extensions>
</trkpt>
<trkpt lat="63.861457825" lon="-21.126762390">
<ele>4.195923</ele>
<time>2012-07-27T18:45:53Z</time>
<speed>3.280000</speed>
<extensions>
<speed>3.3</speed>
<temp>0.00</temp>
<bpm>0</bpm>
<rpm>0.00</rpm>
</extensions>
</trkpt>
<trkpt lat="63.861541748" lon="-21.127075195">
<ele>4.283447</ele>
<time>2012-07-27T18:45:58Z</time>
<speed>3.590000</speed>
<extensions>
<speed>3.6</speed>
<temp>0.00</temp>
<bpm>0</bpm>
<rpm>0.00</rpm>
</extensions>
</trkpt>
<trkpt lat="63.861621857" lon="-21.127408981">
<ele>3.743103</ele>
<time>2012-07-27T18:46:03Z</time>
<speed>3.900000</speed>
<extensions>
<speed>3.9</speed>
<temp>0.00</temp>
<bpm>0</bpm>
<rpm>0.00</rpm>
</extensions>
</trkpt>
<trkpt lat="63.861709595" lon="-21.127758026">
<ele>3.732605</ele>
<time>2012-07-27T18:46:08Z</time>
<speed>4.030000</speed>
<extensions>
<speed>4.0</speed>
<temp>0.00</temp>
<bpm>0</bpm>
<rpm>0.00</rpm>
</extensions>
</trkpt>
<trkpt lat="63.861808777" lon="-21.128126144">
<ele>4.054077</ele>
<time>2012-07-27T18:46:13Z</time>
<speed>4.090000</speed>
<extensions>
<speed>4.1</speed>
<temp>0.00</temp>
<bpm>0</bpm>
<rpm>0.00</rpm>
</extensions>
</trkpt>
<trkpt lat="63.861900330" lon="-21.128477097">
<ele>4.006226</ele>
<time>2012-07-27T18:46:18Z</time>
<speed>3.780000</speed>
<extensions>
<speed>3.8</speed>
<temp>0.00</temp>
<bpm>0</bpm>
<rpm>0.00</rpm>
</extensions>
</trkpt>
<trkpt lat="63.861988068" lon="-21.128820419">
<ele>3.817261</ele>
<time>2012-07-27T18:46:23Z</time>
<speed>4.090000</speed>
<extensions>
<speed>4.1</speed>
<temp>0.00</temp>
<bpm>0</bpm>
<rpm>0.00</rpm>
</extensions>
</trkpt>
<trkpt lat="63.862091064" lon="-21.129230499">
<ele>3.737488</ele>
<time>2012-07-27T18:46:28Z</time>
<speed>5.040000</speed>
<extensions>
<speed>5.0</speed>
<temp>0.00</temp>
<bpm>0</bpm>
<rpm>0.00</rpm>
</extensions>
</trkpt>
<trkpt lat="63.862209320" lon="-21.129688263">
<ele>3.923645</ele>
<time>2012-07-27T18:46:33Z</time>
<speed>5.210000</speed>
<extensions>
<speed>5.2</speed>
<temp>0.00</temp>
<bpm>0</bpm>
<rpm>0.00</rpm>
</extensions>
</trkpt>
<trkpt lat="63.862327576" lon="-21.130161285">
<ele>3.807617</ele>
<time>2012-07-27T18:46:38Z</time>
<speed>5.380000</speed>
<extensions>
<speed>5.4</speed>
<temp>0.00</temp>
<bpm>0</bpm>
<rpm>0.00</rpm>
</extensions>
</trkpt>
<trkpt lat="63.862445831" lon="-21.130628586">
<ele>3.633911</ele>
<time>2012-07-27T18:46:43Z</time>
<speed>4.770000</speed>
<extensions>
<speed>4.8</speed>
<temp>0.00</temp>
<bpm>0</bpm>
<rpm>0.00</rpm>
</extensions>
</trkpt>
<trkpt lat="63.862545013" lon="-21.131025314">
<ele>4.050171</ele>
<time>2012-07-27T18:46:48Z</time>
<speed>4.490000</speed>
<extensions>
<speed>4.5</speed>
<temp>0.00</temp>
<bpm>0</bpm>
<rpm>0.00</rpm>
</extensions>
</trkpt>
<trkpt lat="63.862644196" lon="-21.131416321">
<ele>4.031128</ele>
<time>2012-07-27T18:46:53Z</time>
<speed>4.470000</speed>
<extensions>
<speed>4.5</speed>
<temp>0.00</temp>
<bpm>0</bpm>
<rpm>0.00</rpm>
</extensions>
</trkpt>
<trkpt lat="63.862743378" lon="-21.131814957">
<ele>3.968079</ele>
<time>2012-07-27T18:46:58Z</time>
<speed>4.600000</speed>
<extensions>
<speed>4.6</speed>
<temp>0.00</temp>
<bpm>0</bpm>
<rpm>0.00</rpm>
</extensions>
</trkpt>
<trkpt lat="63.862854004" lon="-21.132211685">
<ele>3.262024</ele>
<time>2012-07-27T18:47:03Z</time>
<speed>4.560000</speed>
<extensions>
<speed>4.6</speed>
<temp>0.00</temp>
<bpm>0</bpm>
<rpm>0.00</rpm>
</extensions>
</trkpt>
<trkpt lat="63.862949371" lon="-21.132623672">
<ele>3.306335</ele>
<time>2012-07-27T18:47:08Z</time>
<speed>4.660000</speed>
<extensions>
<speed>4.7</speed>
<temp>0.00</temp>
<bpm>0</bpm>
<rpm>0.00</rpm>
</extensions>
</trkpt>
<trkpt lat="63.863044739" lon="-21.133010864">
<ele>3.377808</ele>
<time>2012-07-27T18:47:13Z</time>
<speed>4.320000</speed>
<extensions>
<speed>4.3</speed>
<temp>0.00</temp>
<bpm>0</bpm>
<rpm>0.00</rpm>
</extensions>
</trkpt>
<trkpt lat="63.863143921" lon="-21.133430481">
<ele>3.190369</ele>
<time>2012-07-27T18:47:18Z</time>
<speed>4.760000</speed>
<extensions>
<speed>4.8</speed>
<temp>0.00</temp>
<bpm>0</bpm>
<rpm>0.00</rpm>
</extensions>
</trkpt>
<trkpt lat="63.863235474" lon="-21.133781433">
<ele>3.224792</ele>
<time>2012-07-27T18:47:23Z</time>
<speed>3.600000</speed>
<extensions>
<speed>3.6</speed>
<temp>0.00</temp>
<bpm>0</bpm>
<rpm>0.00</rpm>
</extensions>
</trkpt>
<trkpt lat="63.863323212" lon="-21.134122849">
<ele>2.652283</ele>
<time>2012-07-27T18:47:28Z</time>
<speed>4.680000</speed>
<extensions>
<speed>4.7</speed>
<temp>0.00</temp>
<bpm>0</bpm>
<rpm>0.00</rpm>
</extensions>
</trkpt>
<trkpt lat="63.863433838" lon="-21.134561539">
<ele>2.378235</ele>
<time>2012-07-27T18:47:33Z</time>
<speed>4.930000</speed>
<extensions>
<speed>4.9</speed>
<temp>0.00</temp>
<bpm>0</bpm>
<rpm>0.00</rpm>
</extensions>
</trkpt>
<trkpt lat="63.863540649" lon="-21.135002136">
<ele>2.723145</ele>
<time>2012-07-27T18:47:38Z</time>
<speed>4.840000</speed>
<extensions>
<speed>4.8</speed>
<temp>0.00</temp>
<bpm>0</bpm>
<rpm>0.00</rpm>
</extensions>
</trkpt>
<trkpt lat="63.863647461" lon="-21.135435104">
<ele>2.907288</ele>
<time>2012-07-27T18:47:43Z</time>
<speed>4.810000</speed>
<extensions>
<speed>4.8</speed>
<temp>0.00</temp>
<bpm>0</bpm>
<rpm>0.00</rpm>
</extensions>
</trkpt>
<trkpt lat="63.863758087" lon="-21.135864258">
<ele>2.720337</ele>
<time>2012-07-27T18:47:48Z</time>
<speed>5.000000</speed>
<extensions>
<speed>5.0</speed>
<temp>0.00</temp>
<bpm>0</bpm>
<rpm>0.00</rpm>
</extensions>
</trkpt>
<trkpt lat="63.863864899" lon="-21.136331558">
<ele>3.185547</ele>
<time>2012-07-27T18:47:53Z</time>
<speed>5.390000</speed>
<extensions>
<speed>5.4</speed>
<temp>0.00</temp>
<bpm>0</bpm>
<rpm>0.00</rpm>
</extensions>
</trkpt>
<trkpt lat="63.863983154" lon="-21.136770248">
<ele>3.012207</ele>
<time>2012-07-27T18:47:58Z</time>
<speed>4.450000</speed>
<extensions>
<speed>4.5</speed>
<temp>0.00</temp>
<bpm>0</bpm>
<rpm>0.00</rpm>
</extensions>
</trkpt>
<trkpt lat="63.864074707" lon="-21.137119293">
<ele>2.988708</ele>
<time>2012-07-27T18:48:03Z</time>
<speed>3.980000</speed>
<extensions>
<speed>4.0</speed>
<temp>0.00</temp>
<bpm>0</bpm>
<rpm>0.00</rpm>
</extensions>
</trkpt>
<trkpt lat="63.864151001" lon="-21.137409210">
<ele>2.948853</ele>
<time>2012-07-27T18:48:08Z</time>
<speed>2.800000</speed>
<extensions>
<speed>2.8</speed>
<temp>0.00</temp>
<bpm>0</bpm>
<rpm>0.00</rpm>
</extensions>
</trkpt>
<trkpt lat="63.864200592" lon="-21.137603760">
<ele>3.158386</ele>
<time>2012-07-27T18:48:13Z</time>
<speed>1.660000</speed>
<extensions>
<speed>1.7</speed>
<temp>0.00</temp>
<bpm>0</bpm>
<rpm>0.00</rpm>
</extensions>
</trkpt>
<trkpt lat="63.864238739" lon="-21.137737274">
<ele>3.782776</ele>
<time>2012-07-27T18:48:18Z</time>
<speed>1.320000</speed>
<extensions>
<speed>1.3</speed>
<temp>0.00</temp>
<bpm>0</bpm>
<rpm>0.00</rpm>
</extensions>
</trkpt>
<trkpt lat="63.864265442" lon="-21.137895584">
<ele>3.921265</ele>
<time>2012-07-27T18:48:23Z</time>
<speed>1.620000</speed>
<extensions>
<speed>1.6</speed>
<temp>0.00</temp>
<bpm>0</bpm>
<rpm>0.00</rpm>
</extensions>
</trkpt>
<trkpt lat="63.864288330" lon="-21.137998581">
<ele>3.690186</ele>
<time>2012-07-27T18:48:28Z</time>
<speed>1.650000</speed>
<extensions>
<speed>1.7</speed>
<temp>0.00</temp>
<bpm>0</bpm>
<rpm>0.00</rpm>
</extensions>
</trkpt>
<trkpt lat="63.864330292" lon="-21.138198853">
<ele>3.262451</ele>
<time>2012-07-27T18:48:33Z</time>
<speed>2.430000</speed>
<extensions>
<speed>2.4</speed>
<temp>0.00</temp>
<bpm>0</bpm>
<rpm>0.00</rpm>
</extensions>
</trkpt>
<trkpt lat="63.864398956" lon="-21.138467789">
<ele>3.330261</ele>
<time>2012-07-27T18:48:38Z</time>
<speed>3.530000</speed>
<extensions>
<speed>3.5</speed>
<temp>0.00</temp>
<bpm>0</bpm>
<rpm>0.00</rpm>
</extensions>
</trkpt>
<trkpt lat="63.864467621" lon="-21.138744354">
<ele>3.604797</ele>
<time>2012-07-27T18:48:43Z</time>
<speed>2.710000</speed>
<extensions>
<speed>2.7</speed>
<temp>0.00</temp>
<bpm>0</bpm>
<rpm>0.00</rpm>
</extensions>
</trkpt>
<trkpt lat="63.864536285" lon="-21.139034271">
<ele>3.747681</ele>
<time>2012-07-27T18:48:48Z</time>
<speed>3.740000</speed>
<extensions>
<speed>3.7</speed>
<temp>0.00</temp>
<bpm>0</bpm>
<rpm>0.00</rpm>
</extensions>
</trkpt>
<trkpt lat="63.864631653" lon="-21.139373779">
<ele>3.507019</ele>
<time>2012-07-27T18:48:53Z</time>
<speed>3.960000</speed>
<extensions>
<speed>4.0</speed>
<temp>0.00</temp>
<bpm>0</bpm>
<rpm>0.00</rpm>
</extensions>
</trkpt>
<trkpt lat="63.864723206" lon="-21.139730453">
<ele>3.327759</ele>
<time>2012-07-27T18:48:58Z</time>
<speed>4.060000</speed>
<extensions>
<speed>4.1</speed>
<temp>0.00</temp>
<bpm>0</bpm>
<rpm>0.00</rpm>
</extensions>
</trkpt>
<trkpt lat="63.864818573" lon="-21.140092850">
<ele>3.079102</ele>
<time>2012-07-27T18:49:03Z</time>
<speed>4.200000</speed>
<extensions>
<speed>4.2</speed>
<temp>0.00</temp>
<bpm>0</bpm>
<rpm>0.00</rpm>
</extensions>
</trkpt>
<trkpt lat="63.864917755" lon="-21.140455246">
<ele>3.030396</ele>
<time>2012-07-27T18:49:08Z</time>
<speed>4.220000</speed>
<extensions>
<speed>4.2</speed>
<temp>0.00</temp>
<bpm>0</bpm>
<rpm>0.00</rpm>
</extensions>
</trkpt>
<trkpt lat="63.865013123" lon="-21.140829086">
<ele>2.913879</ele>
<time>2012-07-27T18:49:13Z</time>
<speed>4.330000</speed>
<extensions>
<speed>4.3</speed>
<temp>0.00</temp>
<bpm>0</bpm>
<rpm>0.00</rpm>
</extensions>
</trkpt>
<trkpt lat="63.865116119" lon="-21.141222000">
<ele>2.676208</ele>
<time>2012-07-27T18:49:18Z</time>
<speed>4.520000</speed>
<extensions>
<speed>4.5</speed>
<temp>0.00</temp>
<bpm>0</bpm>
<rpm>0.00</rpm>
</extensions>
</trkpt>
<trkpt lat="63.865215302" lon="-21.141618729">
<ele>2.902771</ele>
<time>2012-07-27T18:49:23Z</time>
<speed>4.650000</speed>
<extensions>
<speed>4.6</speed>
<temp>0.00</temp>
<bpm>0</bpm>
<rpm>0.00</rpm>
</extensions>
</trkpt>
<trkpt lat="63.865318298" lon="-21.142026901">
<ele>2.859314</ele>
<time>2012-07-27T18:49:28Z</time>
<speed>4.730000</speed>
<extensions>
<speed>4.7</speed>
<temp>0.00</temp>
<bpm>0</bpm>
<rpm>0.00</rpm>
</extensions>
</trkpt>
<trkpt lat="63.865432739" lon="-21.142442703">
<ele>2.837830</ele>
<time>2012-07-27T18:49:33Z</time>
<speed>4.860000</speed>
<extensions>
<speed>4.9</speed>
<temp>0.00</temp>
<bpm>0</bpm>
<rpm>0.00</rpm>
</extensions>
</trkpt>
<trkpt lat="63.865550995" lon="-21.142889023">
<ele>2.928711</ele>
<time>2012-07-27T18:49:38Z</time>
<speed>5.370000</speed>
<extensions>
<speed>5.4</speed>
<temp>0.00</temp>
<bpm>0</bpm>
<rpm>0.00</rpm>
</extensions>
</trkpt>
<trkpt lat="63.865673065" lon="-21.143369675">
<ele>2.932373</ele>
<time>2012-07-27T18:49:43Z</time>
<speed>5.520000</speed>
<extensions>
<speed>5.5</speed>
<temp>0.00</temp>
<bpm>0</bpm>
<rpm>0.00</rpm>
</extensions>
</trkpt>
<trkpt lat="63.865810394" lon="-21.143873215">
<ele>3.147522</ele>
<time>2012-07-27T18:49:48Z</time>
<speed>5.820000</speed>
<extensions>
<speed>5.8</speed>
<temp>0.00</temp>
<bpm>0</bpm>
<rpm>0.00</rpm>
</extensions>
</trkpt>
<trkpt lat="63.865936279" lon="-21.144325256">
<ele>2.963806</ele>
<time>2012-07-27T18:49:53Z</time>
<speed>4.990000</speed>
<extensions>
<speed>5.0</speed>
<temp>0.00</temp>
<bpm>0</bpm>
<rpm>0.00</rpm>
</extensions>
</trkpt>
<trkpt lat="63.866058350" lon="-21.144788742">
<ele>2.959229</ele>
<time>2012-07-27T18:49:58Z</time>
<speed>5.450000</speed>
<extensions>
<speed>5.5</speed>
<temp>0.00</temp>
<bpm>0</bpm>
<rpm>0.00</rpm>
</extensions>
</trkpt>
<trkpt lat="63.866184235" lon="-21.145269394">
<ele>2.773010</ele>
<time>2012-07-27T18:50:03Z</time>
<speed>5.450000</speed>
<extensions>
<speed>5.5</speed>
<temp>0.00</temp>
<bpm>0</bpm>
<rpm>0.00</rpm>
</extensions>
</trkpt>
<trkpt lat="63.866302490" lon="-21.145708084">
<ele>2.675842</ele>
<time>2012-07-27T18:50:08Z</time>
<speed>4.620000</speed>
<extensions>
<speed>4.6</speed>
<temp>0.00</temp>
<bpm>0</bpm>
<rpm>0.00</rpm>
</extensions>
</trkpt>
<trkpt lat="63.866405487" lon="-21.146112442">
<ele>2.942810</ele>
<time>2012-07-27T18:50:13Z</time>
<speed>4.780000</speed>
<extensions>
<speed>4.8</speed>
<temp>0.00</temp>
<bpm>0</bpm>
<rpm>0.00</rpm>
</extensions>
</trkpt>
<trkpt lat="63.866516113" lon="-21.146514893">
<ele>2.873413</ele>
<time>2012-07-27T18:50:18Z</time>
<speed>4.680000</speed>
<extensions>
<speed>4.7</speed>
<temp>0.00</temp>
<bpm>0</bpm>
<rpm>0.00</rpm>
</extensions>
</trkpt>
<trkpt lat="63.866634369" lon="-21.146923065">
<ele>2.663696</ele>
<time>2012-07-27T18:50:23Z</time>
<speed>4.910000</speed>
<extensions>
<speed>4.9</speed>
<temp>0.00</temp>
<bpm>0</bpm>
<rpm>0.00</rpm>
</extensions>
</trkpt>
<trkpt lat="63.866744995" lon="-21.147357941">
<ele>3.271667</ele>
<time>2012-07-27T18:50:28Z</time>
<speed>5.140000</speed>
<extensions>
<speed>5.1</speed>
<temp>0.00</temp>
<bpm>0</bpm>
<rpm>0.00</rpm>
</extensions>
</trkpt>
<trkpt lat="63.866870880" lon="-21.147800446">
<ele>3.201965</ele>
<time>2012-07-27T18:50:33Z</time>
<speed>5.140000</speed>
<extensions>
<speed>5.1</speed>
<temp>0.00</temp>
<bpm>0</bpm>
<rpm>0.00</rpm>
</extensions>
</trkpt>
<trkpt lat="63.867000580" lon="-21.148244858">
<ele>2.454285</ele>
<time>2012-07-27T18:50:38Z</time>
<speed>5.350000</speed>
<extensions>
<speed>5.4</speed>
<temp>0.00</temp>
<bpm>0</bpm>
<rpm>0.00</rpm>
</extensions>
</trkpt>
<trkpt lat="63.867134094" lon="-21.148717880">
<ele>1.694946</ele>
<time>2012-07-27T18:50:43Z</time>
<speed>5.240000</speed>
<extensions>
<speed>5.2</speed>
<temp>0.00</temp>
<bpm>0</bpm>
<rpm>0.00</rpm>
</extensions>
</trkpt>
<trkpt lat="63.867248535" lon="-21.149139404">
<ele>1.798004</ele>
<time>2012-07-27T18:50:48Z</time>
<speed>4.900000</speed>
<extensions>
<speed>4.9</speed>
<temp>0.00</temp>
<bpm>0</bpm>
<rpm>0.00</rpm>
</extensions>
</trkpt>
<trkpt lat="63.867378235" lon="-21.149591446">
<ele>1.816284</ele>
<time>2012-07-27T18:50:53Z</time>
<speed>5.240000</speed>
<extensions>
<speed>5.2</speed>
<temp>0.00</temp>
<bpm>0</bpm>
<rpm>0.00</rpm>
</extensions>
</trkpt>
<trkpt lat="63.867496490" lon="-21.150051117">
<ele>1.655457</ele>
<time>2012-07-27T18:50:58Z</time>
<speed>5.340000</speed>
<extensions>
<speed>5.3</speed>
<temp>0.00</temp>
<bpm>0</bpm>
<rpm>0.00</rpm>
</extensions>
</trkpt>
<trkpt lat="63.867622375" lon="-21.150516510">
<ele>1.418793</ele>
<time>2012-07-27T18:51:03Z</time>
<speed>5.320000</speed>
<extensions>
<speed>5.3</speed>
<temp>0.00</temp>
<bpm>0</bpm>
<rpm>0.00</rpm>
</extensions>
</trkpt>
<trkpt lat="63.867748260" lon="-21.150985718">
<ele>1.432465</ele>
<time>2012-07-27T18:51:08Z</time>
<speed>5.400000</speed>
<extensions>
<speed>5.4</speed>
<temp>0.00</temp>
<bpm>0</bpm>
<rpm>0.00</rpm>
</extensions>
</trkpt>
<trkpt lat="63.867877960" lon="-21.151422501">
<ele>2.414673</ele>
<time>2012-07-27T18:51:13Z</time>
<speed>4.860000</speed>
<extensions>
<speed>4.9</speed>
<temp>0.00</temp>
<bpm>0</bpm>
<rpm>0.00</rpm>
</extensions>
</trkpt>
<trkpt lat="63.867996216" lon="-21.151840210">
<ele>2.721008</ele>
<time>2012-07-27T18:51:18Z</time>
<speed>5.100000</speed>
<extensions>
<speed>5.1</speed>
<temp>0.00</temp>
<bpm>0</bpm>
<rpm>0.00</rpm>
</extensions>
</trkpt>
<trkpt lat="63.868106842" lon="-21.152286530">
<ele>2.618896</ele>
<time>2012-07-27T18:51:23Z</time>
<speed>5.270000</speed>
<extensions>
<speed>5.3</speed>
<temp>0.00</temp>
<bpm>0</bpm>
<rpm>0.00</rpm>
</extensions>
</trkpt>
<trkpt lat="63.868221283" lon="-21.152706146">
<ele>3.007996</ele>
<time>2012-07-27T18:51:28Z</time>
<speed>4.340000</speed>
<extensions>
<speed>4.3</speed>
<temp>0.00</temp>
<bpm>0</bpm>
<rpm>0.00</rpm>
</extensions>
</trkpt>
<trkpt lat="63.868320465" lon="-21.153020859">
<ele>3.454163</ele>
<time>2012-07-27T18:51:33Z</time>
<speed>3.350000</speed>
<extensions>
<speed>3.4</speed>
<temp>0.00</temp>
<bpm>0</bpm>
<rpm>0.00</rpm>
</extensions>
</trkpt>
<trkpt lat="63.868400574" lon="-21.153335571">
<ele>3.746765</ele>
<time>2012-07-27T18:51:38Z</time>
<speed>4.150000</speed>
<extensions>
<speed>4.1</speed>
<temp>0.00</temp>
<bpm>0</bpm>
<rpm>0.00</rpm>
</extensions>
</trkpt>
<trkpt lat="63.868511200" lon="-21.153736115">
<ele>4.067139</ele>
<time>2012-07-27T18:51:43Z</time>
<speed>4.640000</speed>
<extensions>
<speed>4.6</speed>
<temp>0.00</temp>
<bpm>0</bpm>
<rpm>0.00</rpm>
</extensions>
</trkpt>
<trkpt lat="63.868614197" lon="-21.154125214">
<ele>3.903748</ele>
<time>2012-07-27T18:51:48Z</time>
<speed>4.460000</speed>
<extensions>
<speed>4.5</speed>
<temp>0.00</temp>
<bpm>0</bpm>
<rpm>0.00</rpm>
</extensions>
</trkpt>
<trkpt lat="63.868721008" lon="-21.154527664">
<ele>3.717896</ele>
<time>2012-07-27T18:51:53Z</time>
<speed>4.780000</speed>
<extensions>
<speed>4.8</speed>
<temp>0.00</temp>
<bpm>0</bpm>
<rpm>0.00</rpm>
</extensions>
</trkpt>
<trkpt lat="63.868843079" lon="-21.154956818">
<ele>3.496765</ele>
<time>2012-07-27T18:51:58Z</time>
<speed>4.900000</speed>
<extensions>
<speed>4.9</speed>
<temp>0.00</temp>
<bpm>0</bpm>
<rpm>0.00</rpm>
</extensions>
</trkpt>
<trkpt lat="63.868946075" lon="-21.155363083">
<ele>3.424805</ele>
<time>2012-07-27T18:52:03Z</time>
<speed>4.790000</speed>
<extensions>
<speed>4.8</speed>
<temp>0.00</temp>
<bpm>0</bpm>
<rpm>0.00</rpm>
</extensions>
</trkpt>
<trkpt lat="63.869056702" lon="-21.155796051">
<ele>3.989990</ele>
<time>2012-07-27T18:52:08Z</time>
<speed>4.730000</speed>
<extensions>
<speed>4.7</speed>
<temp>0.00</temp>
<bpm>0</bpm>
<rpm>0.00</rpm>
</extensions>
</trkpt>
<trkpt lat="63.869155884" lon="-21.156137466">
<ele>4.208008</ele>
<time>2012-07-27T18:52:13Z</time>
<speed>3.750000</speed>
<extensions>
<speed>3.8</speed>
<temp>0.00</temp>
<bpm>0</bpm>
<rpm>0.00</rpm>
</extensions>
</trkpt>
<trkpt lat="63.869255066" lon="-21.156494141">
<ele>4.175781</ele>
<time>2012-07-27T18:52:18Z</time>
<speed>4.750000</speed>
<extensions>
<speed>4.8</speed>
<temp>0.00</temp>
<bpm>0</bpm>
<rpm>0.00</rpm>
</extensions>
</trkpt>
<trkpt lat="63.869369507" lon="-21.156938553">
<ele>3.965332</ele>
<time>2012-07-27T18:52:23Z</time>
<speed>5.200000</speed>
<extensions>
<speed>5.2</speed>
<temp>0.00</temp>
<bpm>0</bpm>
<rpm>0.00</rpm>
</extensions>
</trkpt>
<trkpt lat="63.869491577" lon="-21.157405853">
<ele>3.856628</ele>
<time>2012-07-27T18:52:28Z</time>
<speed>5.210000</speed>
<extensions>
<speed>5.2</speed>
<temp>0.00</temp>
<bpm>0</bpm>
<rpm>0.00</rpm>
</extensions>
</trkpt>
<trkpt lat="63.869609833" lon="-21.157861710">
<ele>4.016357</ele>
<time>2012-07-27T18:52:33Z</time>
<speed>5.120000</speed>
<extensions>
<speed>5.1</speed>
<temp>0.00</temp>
<bpm>0</bpm>
<rpm>0.00</rpm>
</extensions>
</trkpt>
<trkpt lat="63.869724274" lon="-21.158311844">
<ele>4.469727</ele>
<time>2012-07-27T18:52:38Z</time>
<speed>5.190000</speed>
<extensions>
<speed>5.2</speed>
<temp>0.00</temp>
<bpm>0</bpm>
<rpm>0.00</rpm>
</extensions>
</trkpt>
<trkpt lat="63.869823456" lon="-21.158742905">
<ele>4.141479</ele>
<time>2012-07-27T18:52:43Z</time>
<speed>3.550000</speed>
<extensions>
<speed>3.5</speed>
<temp>0.00</temp>
<bpm>0</bpm>
<rpm>0.00</rpm>
</extensions>
</trkpt>
<trkpt lat="63.869915009" lon="-21.159076691">
<ele>3.980957</ele>
<time>2012-07-27T18:52:48Z</time>
<speed>4.320000</speed>
<extensions>
<speed>4.3</speed>
<temp>0.00</temp>
<bpm>0</bpm>
<rpm>0.00</rpm>
</extensions>
</trkpt>
<trkpt lat="63.870029449" lon="-21.159496307">
<ele>4.257324</ele>
<time>2012-07-27T18:52:53Z</time>
<speed>5.230000</speed>
<extensions>
<speed>5.2</speed>
<temp>0.00</temp>
<bpm>0</bpm>
<rpm>0.00</rpm>
</extensions>
</trkpt>
<trkpt lat="63.870140076" lon="-21.159934998">
<ele>3.852234</ele>
<time>2012-07-27T18:52:58Z</time>
<speed>4.280000</speed>
<extensions>
<speed>4.3</speed>
<temp>0.00</temp>
<bpm>0</bpm>
<rpm>0.00</rpm>
</extensions>
</trkpt>
<trkpt lat="63.870235443" lon="-21.160295486">
<ele>2.895325</ele>
<time>2012-07-27T18:53:03Z</time>
<speed>4.420000</speed>
<extensions>
<speed>4.4</speed>
<temp>0.00</temp>
<bpm>0</bpm>
<rpm>0.00</rpm>
</extensions>
</trkpt>
<trkpt lat="63.870338440" lon="-21.160715103">
<ele>2.526001</ele>
<time>2012-07-27T18:53:08Z</time>
<speed>5.030000</speed>
<extensions>
<speed>5.0</speed>
<temp>0.00</temp>
<bpm>0</bpm>
<rpm>0.00</rpm>
</extensions>
</trkpt>
<trkpt lat="63.870452881" lon="-21.161186218">
<ele>2.502014</ele>
<time>2012-07-27T18:53:13Z</time>
<speed>5.240000</speed>
<extensions>
<speed>5.2</speed>
<temp>0.00</temp>
<bpm>0</bpm>
<rpm>0.00</rpm>
</extensions>
</trkpt>
<trkpt lat="63.870571136" lon="-21.161655426">
<ele>2.111450</ele>
<time>2012-07-27T18:53:18Z</time>
<speed>5.230000</speed>
<extensions>
<speed>5.2</speed>
<temp>0.00</temp>
<bpm>0</bpm>
<rpm>0.00</rpm>
</extensions>
</trkpt>
<trkpt lat="63.870681763" lon="-21.162109375">
<ele>2.133911</ele>
<time>2012-07-27T18:53:23Z</time>
<speed>4.940000</speed>
<extensions>
<speed>4.9</speed>
<temp>0.00</temp>
<bpm>0</bpm>
<rpm>0.00</rpm>
</extensions>
</trkpt>
<trkpt lat="63.870792389" lon="-21.162548065">
<ele>2.485291</ele>
<time>2012-07-27T18:53:28Z</time>
<speed>5.030000</speed>
<extensions>
<speed>5.0</speed>
<temp>0.00</temp>
<bpm>0</bpm>
<rpm>0.00</rpm>
</extensions>
</trkpt>
<trkpt lat="63.870903015" lon="-21.163000107">
<ele>2.200623</ele>
<time>2012-07-27T18:53:33Z</time>
<speed>5.240000</speed>
<extensions>
<speed>5.2</speed>
<temp>0.00</temp>
<bpm>0</bpm>
<rpm>0.00</rpm>
</extensions>
</trkpt>
<trkpt lat="63.871013641" lon="-21.163442612">
<ele>2.081238</ele>
<time>2012-07-27T18:53:38Z</time>
<speed>4.710000</speed>
<extensions>
<speed>4.7</speed>
<temp>0.00</temp>
<bpm>0</bpm>
<rpm>0.00</rpm>
</extensions>
</trkpt>
<trkpt lat="63.871116638" lon="-21.163852692">
<ele>1.753876</ele>
<time>2012-07-27T18:53:43Z</time>
<speed>4.840000</speed>
<extensions>
<speed>4.8</speed>
<temp>0.00</temp>
<bpm>0</bpm>
<rpm>0.00</rpm>
</extensions>
</trkpt>
<trkpt lat="63.871223450" lon="-21.164289474">
<ele>1.765198</ele>
<time>2012-07-27T18:53:48Z</time>
<speed>5.140000</speed>
<extensions>
<speed>5.1</speed>
<temp>0.00</temp>
<bpm>0</bpm>
<rpm>0.00</rpm>
</extensions>
</trkpt>
<trkpt lat="63.871326447" lon="-21.164720535">
<ele>2.079712</ele>
<time>2012-07-27T18:53:53Z</time>
<speed>4.090000</speed>
<extensions>
<speed>4.1</speed>
<temp>0.00</temp>
<bpm>0</bpm>
<rpm>0.00</rpm>
</extensions>
</trkpt>
<trkpt lat="63.871395111" lon="-21.165033340">
<ele>2.258606</ele>
<time>2012-07-27T18:53:58Z</time>
<speed>3.270000</speed>
<extensions>
<speed>3.3</speed>
<temp>0.00</temp>
<bpm>0</bpm>
<rpm>0.00</rpm>
</extensions>
</trkpt>
<trkpt lat="63.871467590" lon="-21.165344238">
<ele>2.413574</ele>
<time>2012-07-27T18:54:03Z</time>
<speed>3.940000</speed>
<extensions>
<speed>3.9</speed>
<temp>0.00</temp>
<bpm>0</bpm>
<rpm>0.00</rpm>
</extensions>
</trkpt>
<trkpt lat="63.871562958" lon="-21.165718079">
<ele>2.435974</ele>
<time>2012-07-27T18:54:08Z</time>
<speed>4.360000</speed>
<extensions>
<speed>4.4</speed>
<temp>0.00</temp>
<bpm>0</bpm>
<rpm>0.00</rpm>
</extensions>
</trkpt>
<trkpt lat="63.871669769" lon="-21.166118622">
<ele>2.989441</ele>
<time>2012-07-27T18:54:13Z</time>
<speed>5.450000</speed>
<extensions>
<speed>5.5</speed>
<temp>0.00</temp>
<bpm>0</bpm>
<rpm>0.00</rpm>
</extensions>
</trkpt>
<trkpt lat="63.871772766" lon="-21.166564941">
<ele>3.330505</ele>
<time>2012-07-27T18:54:18Z</time>
<speed>4.960000</speed>
<extensions>
<speed>5.0</speed>
<temp>0.00</temp>
<bpm>0</bpm>
<rpm>0.00</rpm>
</extensions>
</trkpt>
<trkpt lat="63.871860504" lon="-21.166931152">
<ele>3.500183</ele>
<time>2012-07-27T18:54:23Z</time>
<speed>3.680000</speed>
<extensions>
<speed>3.7</speed>
<temp>0.00</temp>
<bpm>0</bpm>
<rpm>0.00</rpm>
</extensions>
</trkpt>
<trkpt lat="63.871944427" lon="-21.167297363">
<ele>4.011597</ele>
<time>2012-07-27T18:54:28Z</time>
<speed>4.390000</speed>
<extensions>
<speed>4.4</speed>
<temp>0.00</temp>
<bpm>0</bpm>
<rpm>0.00</rpm>
</extensions>
</trkpt>
<trkpt lat="63.872047424" lon="-21.167690277">
<ele>4.101929</ele>
<time>2012-07-27T18:54:33Z</time>
<speed>4.370000</speed>
<extensions>
<speed>4.4</speed>
<temp>0.00</temp>
<bpm>0</bpm>
<rpm>0.00</rpm>
</extensions>
</trkpt>
<trkpt lat="63.872138977" lon="-21.168087006">
<ele>4.056885</ele>
<time>2012-07-27T18:54:38Z</time>
<speed>4.520000</speed>
<extensions>
<speed>4.5</speed>
<temp>0.00</temp>
<bpm>0</bpm>
<rpm>0.00</rpm>
</extensions>
</trkpt>
<trkpt lat="63.872238159" lon="-21.168493271">
<ele>3.096558</ele>
<time>2012-07-27T18:54:43Z</time>
<speed>4.660000</speed>
<extensions>
<speed>4.7</speed>
<temp>0.00</temp>
<bpm>0</bpm>
<rpm>0.00</rpm>
</extensions>
</trkpt>
<trkpt lat="63.872325897" lon="-21.168869019">
<ele>2.751221</ele>
<time>2012-07-27T18:54:48Z</time>
<speed>3.680000</speed>
<extensions>
<speed>3.7</speed>
<temp>0.00</temp>
<bpm>0</bpm>
<rpm>0.00</rpm>
</extensions>
</trkpt>
<trkpt lat="63.872406006" lon="-21.169197083">
<ele>3.169922</ele>
<time>2012-07-27T18:54:53Z</time>
<speed>4.140000</speed>
<extensions>
<speed>4.1</speed>
<temp>0.00</temp>
<bpm>0</bpm>
<rpm>0.00</rpm>
</extensions>
</trkpt>
<trkpt lat="63.872497559" lon="-21.169595718">
<ele>2.860474</ele>
<time>2012-07-27T18:54:58Z</time>
<speed>4.620000</speed>
<extensions>
<speed>4.6</speed>
<temp>0.00</temp>
<bpm>0</bpm>
<rpm>0.00</rpm>
</extensions>
</trkpt>
<trkpt lat="63.872589111" lon="-21.170013428">
<ele>2.829712</ele>
<time>2012-07-27T18:55:03Z</time>
<speed>4.000000</speed>
<extensions>
<speed>4.0</speed>
<temp>0.00</temp>
<bpm>0</bpm>
<rpm>0.00</rpm>
</extensions>
</trkpt>
<trkpt lat="63.872653961" lon="-21.170309067">
<ele>2.717041</ele>
<time>2012-07-27T18:55:08Z</time>
<speed>2.920000</speed>
<extensions>
<speed>2.9</speed>
<temp>0.00</temp>
<bpm>0</bpm>
<rpm>0.00</rpm>
</extensions>
</trkpt>
<trkpt lat="63.872711182" lon="-21.170562744">
<ele>3.066467</ele>
<time>2012-07-27T18:55:13Z</time>
<speed>3.290000</speed>
<extensions>
<speed>3.3</speed>
<temp>0.00</temp>
<bpm>0</bpm>
<rpm>0.00</rpm>
</extensions>
</trkpt>
<trkpt lat="63.872798920" lon="-21.170925140">
<ele>3.086121</ele>
<time>2012-07-27T18:55:18Z</time>
<speed>4.690000</speed>
<extensions>
<speed>4.7</speed>
<temp>0.00</temp>
<bpm>0</bpm>
<rpm>0.00</rpm>
</extensions>
</trkpt>
<trkpt lat="63.872905731" lon="-21.171361923">
<ele>2.884827</ele>
<time>2012-07-27T18:55:23Z</time>
<speed>4.900000</speed>
<extensions>
<speed>4.9</speed>
<temp>0.00</temp>
<bpm>0</bpm>
<rpm>0.00</rpm>
</extensions>
</trkpt>
<trkpt lat="63.873008728" lon="-21.171804428">
<ele>2.618835</ele>
<time>2012-07-27T18:55:28Z</time>
<speed>4.940000</speed>
<extensions>
<speed>4.9</speed>
<temp>0.00</temp>
<bpm>0</bpm>
<rpm>0.00</rpm>
</extensions>
</trkpt>
<trkpt lat="63.873111725" lon="-21.172266006">
<ele>2.746643</ele>
<time>2012-07-27T18:55:33Z</time>
<speed>5.120000</speed>
<extensions>
<speed>5.1</speed>
<temp>0.00</temp>
<bpm>0</bpm>
<rpm>0.00</rpm>
</extensions>
</trkpt>
<trkpt lat="63.873214722" lon="-21.172716141">
<ele>2.574036</ele>
<time>2012-07-27T18:55:38Z</time>
<speed>5.130000</speed>
<extensions>
<speed>5.1</speed>
<temp>0.00</temp>
<bpm>0</bpm>
<rpm>0.00</rpm>
</extensions>
</trkpt>
<trkpt lat="63.873325348" lon="-21.173212051">
<ele>2.303528</ele>
<time>2012-07-27T18:55:43Z</time>
<speed>5.120000</speed>
<extensions>
<speed>5.1</speed>
<temp>0.00</temp>
<bpm>0</bpm>
<rpm>0.00</rpm>
</extensions>
</trkpt>
<trkpt lat="63.873416901" lon="-21.173624039">
<ele>2.188232</ele>
<time>2012-07-27T18:55:48Z</time>
<speed>4.620000</speed>
<extensions>
<speed>4.6</speed>
<temp>0.00</temp>
<bpm>0</bpm>
<rpm>0.00</rpm>
</extensions>
</trkpt>
<trkpt lat="63.873519897" lon="-21.174068451">
<ele>2.109070</ele>
<time>2012-07-27T18:55:53Z</time>
<speed>5.150000</speed>
<extensions>
<speed>5.2</speed>
<temp>0.00</temp>
<bpm>0</bpm>
<rpm>0.00</rpm>
</extensions>
</trkpt>
<trkpt lat="63.873626709" lon="-21.174516678">
<ele>1.297302</ele>
<time>2012-07-27T18:55:58Z</time>
<speed>4.630000</speed>
<extensions>
<speed>4.6</speed>
<temp>0.00</temp>
<bpm>0</bpm>
<rpm>0.00</rpm>
</extensions>
</trkpt>
<trkpt lat="63.873714447" lon="-21.174900055">
<ele>1.647278</ele>
<time>2012-07-27T18:56:03Z</time>
<speed>4.240000</speed>
<extensions>
<speed>4.2</speed>
<temp>0.00</temp>
<bpm>0</bpm>
<rpm>0.00</rpm>
</extensions>
</trkpt>
<trkpt lat="63.873806000" lon="-21.175312042">
<ele>2.114563</ele>
<time>2012-07-27T18:56:08Z</time>
<speed>4.740000</speed>
<extensions>
<speed>4.7</speed>
<temp>0.00</temp>
<bpm>0</bpm>
<rpm>0.00</rpm>
</extensions>
</trkpt>
<trkpt lat="63.873905182" lon="-21.175724030">
<ele>2.230774</ele>
<time>2012-07-27T18:56:13Z</time>
<speed>4.590000</speed>
<extensions>
<speed>4.6</speed>
<temp>0.00</temp>
<bpm>0</bpm>
<rpm>0.00</rpm>
</extensions>
</trkpt>
<trkpt lat="63.873989105" lon="-21.176155090">
<ele>2.092285</ele>
<time>2012-07-27T18:56:18Z</time>
<speed>4.730000</speed>
<extensions>
<speed>4.7</speed>
<temp>0.00</temp>
<bpm>0</bpm>
<rpm>0.00</rpm>
</extensions>
</trkpt>
<trkpt lat="63.874092102" lon="-21.176580429">
<ele>2.359680</ele>
<time>2012-07-27T18:56:23Z</time>
<speed>4.780000</speed>
<extensions>
<speed>4.8</speed>
<temp>0.00</temp>
<bpm>0</bpm>
<rpm>0.00</rpm>
</extensions>
</trkpt>
<trkpt lat="63.874187469" lon="-21.177005768">
<ele>2.295654</ele>
<time>2012-07-27T18:56:28Z</time>
<speed>4.700000</speed>
<extensions>
<speed>4.7</speed>
<temp>0.00</temp>
<bpm>0</bpm>
<rpm>0.00</rpm>
</extensions>
</trkpt>
<trkpt lat="63.874290466" lon="-21.177446365">
<ele>3.170227</ele>
<time>2012-07-27T18:56:33Z</time>
<speed>5.390000</speed>
<extensions>
<speed>5.4</speed>
<temp>0.00</temp>
<bpm>0</bpm>
<rpm>0.00</rpm>
</extensions>
</trkpt>
<trkpt lat="63.874389648" lon="-21.177885056">
<ele>2.842102</ele>
<time>2012-07-27T18:56:38Z</time>
<speed>4.730000</speed>
<extensions>
<speed>4.7</speed>
<temp>0.00</temp>
<bpm>0</bpm>
<rpm>0.00</rpm>
</extensions>
</trkpt>
<trkpt lat="63.874485016" lon="-21.178316116">
<ele>2.635620</ele>
<time>2012-07-27T18:56:43Z</time>
<speed>4.630000</speed>
<extensions>
<speed>4.6</speed>
<temp>0.00</temp>
<bpm>0</bpm>
<rpm>0.00</rpm>
</extensions>
</trkpt>
<trkpt lat="63.874572754" lon="-21.178731918">
<ele>1.978943</ele>
<time>2012-07-27T18:56:48Z</time>
<speed>4.830000</speed>
<extensions>
<speed>4.8</speed>
<temp>0.00</temp>
<bpm>0</bpm>
<rpm>0.00</rpm>
</extensions>
</trkpt>
<trkpt lat="63.874675751" lon="-21.179162979">
<ele>1.969849</ele>
<time>2012-07-27T18:56:53Z</time>
<speed>4.730000</speed>
<extensions>
<speed>4.7</speed>
<temp>0.00</temp>
<bpm>0</bpm>
<rpm>0.00</rpm>
</extensions>
</trkpt>
<trkpt lat="63.874759674" lon="-21.179512024">
<ele>2.215698</ele>
<time>2012-07-27T18:56:58Z</time>
<speed>3.560000</speed>
<extensions>
<speed>3.6</speed>
<temp>0.00</temp>
<bpm>0</bpm>
<rpm>0.00</rpm>
</extensions>
</trkpt>
<trkpt lat="63.874835968" lon="-21.179861069">
<ele>2.227234</ele>
<time>2012-07-27T18:57:03Z</time>
<speed>4.350000</speed>
<extensions>
<speed>4.3</speed>
<temp>0.00</temp>
<bpm>0</bpm>
<rpm>0.00</rpm>
</extensions>
</trkpt>
<trkpt lat="63.874927521" lon="-21.180263519">
<ele>2.298889</ele>
<time>2012-07-27T18:57:08Z</time>
<speed>4.550000</speed>
<extensions>
<speed>4.5</speed>
<temp>0.00</temp>
<bpm>0</bpm>
<rpm>0.00</rpm>
</extensions>
</trkpt>
<trkpt lat="63.875022888" lon="-21.180704117">
<ele>3.372925</ele>
<time>2012-07-27T18:57:13Z</time>
<speed>5.040000</speed>
<extensions>
<speed>5.0</speed>
<temp>0.00</temp>
<bpm>0</bpm>
<rpm>0.00</rpm>
</extensions>
</trkpt>
<trkpt lat="63.875122070" lon="-21.181125641">
<ele>3.305664</ele>
<time>2012-07-27T18:57:18Z</time>
<speed>3.980000</speed>
<extensions>
<speed>4.0</speed>
<temp>0.00</temp>
<bpm>0</bpm>
<rpm>0.00</rpm>
</extensions>
</trkpt>
<trkpt lat="63.875209808" lon="-21.181497574">
<ele>3.129333</ele>
<time>2012-07-27T18:57:23Z</time>
<speed>4.710000</speed>
<extensions>
<speed>4.7</speed>
<temp>0.00</temp>
<bpm>0</bpm>
<rpm>0.00</rpm>
</extensions>
</trkpt>
<trkpt lat="63.875312805" lon="-21.181957245">
<ele>3.007446</ele>
<time>2012-07-27T18:57:28Z</time>
<speed>5.210000</speed>
<extensions>
<speed>5.2</speed>
<temp>0.00</temp>
<bpm>0</bpm>
<rpm>0.00</rpm>
</extensions>
</trkpt>
<trkpt lat="63.875415802" lon="-21.182413101">
<ele>2.961731</ele>
<time>2012-07-27T18:57:33Z</time>
<speed>4.280000</speed>
<extensions>
<speed>4.3</speed>
<temp>0.00</temp>
<bpm>0</bpm>
<rpm>0.00</rpm>
</extensions>
</trkpt>
<trkpt lat="63.875507355" lon="-21.182840347">
<ele>2.798828</ele>
<time>2012-07-27T18:57:38Z</time>
<speed>4.940000</speed>
<extensions>
<speed>4.9</speed>
<temp>0.00</temp>
<bpm>0</bpm>
<rpm>0.00</rpm>
</extensions>
</trkpt>
<trkpt lat="63.875610352" lon="-21.183292389">
<ele>2.891785</ele>
<time>2012-07-27T18:57:43Z</time>
<speed>5.090000</speed>
<extensions>
<speed>5.1</speed>
<temp>0.00</temp>
<bpm>0</bpm>
<rpm>0.00</rpm>
</extensions>
</trkpt>
<trkpt lat="63.875717163" lon="-21.183761597">
<ele>2.840454</ele>
<time>2012-07-27T18:57:48Z</time>
<speed>5.320000</speed>
<extensions>
<speed>5.3</speed>
<temp>0.00</temp>
<bpm>0</bpm>
<rpm>0.00</rpm>
</extensions>
</trkpt>
<trkpt lat="63.875812531" lon="-21.184171677">
<ele>2.994751</ele>
<time>2012-07-27T18:57:53Z</time>
<speed>3.960000</speed>
<extensions>
<speed>4.0</speed>
<temp>0.00</temp>
<bpm>0</bpm>
<rpm>0.00</rpm>
</extensions>
</trkpt>
<trkpt lat="63.875896454" lon="-21.184556961">
<ele>2.838501</ele>
<time>2012-07-27T18:57:58Z</time>
<speed>4.300000</speed>
<extensions>
<speed>4.3</speed>
<temp>0.00</temp>
<bpm>0</bpm>
<rpm>0.00</rpm>
</extensions>
</trkpt>
<trkpt lat="63.875991821" lon="-21.184972763">
<ele>2.976990</ele>
<time>2012-07-27T18:58:03Z</time>
<speed>4.740000</speed>
<extensions>
<speed>4.7</speed>
<temp>0.00</temp>
<bpm>0</bpm>
<rpm>0.00</rpm>
</extensions>
</trkpt>
<trkpt lat="63.876098633" lon="-21.185403824">
<ele>2.801880</ele>
<time>2012-07-27T18:58:08Z</time>
<speed>4.480000</speed>
<extensions>
<speed>4.5</speed>
<temp>0.00</temp>
<bpm>0</bpm>
<rpm>0.00</rpm>
</extensions>
</trkpt>
<trkpt lat="63.876186371" lon="-21.185747147">
<ele>3.125854</ele>
<time>2012-07-27T18:58:13Z</time>
<speed>3.750000</speed>
<extensions>
<speed>3.8</speed>
<temp>0.00</temp>
<bpm>0</bpm>
<rpm>0.00</rpm>
</extensions>
</trkpt>
<trkpt lat="63.876285553" lon="-21.186098099">
<ele>3.380737</ele>
<time>2012-07-27T18:58:18Z</time>
<speed>4.110000</speed>
<extensions>
<speed>4.1</speed>
<temp>0.00</temp>
<bpm>0</bpm>
<rpm>0.00</rpm>
</extensions>
</trkpt>
<trkpt lat="63.876377106" lon="-21.186435699">
<ele>3.016418</ele>
<time>2012-07-27T18:58:23Z</time>
<speed>4.060000</speed>
<extensions>
<speed>4.1</speed>
<temp>0.00</temp>
<bpm>0</bpm>
<rpm>0.00</rpm>
</extensions>
</trkpt>
<trkpt lat="63.876487732" lon="-21.186807632">
<ele>3.108032</ele>
<time>2012-07-27T18:58:28Z</time>
<speed>4.550000</speed>
<extensions>
<speed>4.5</speed>
<temp>0.00</temp>
<bpm>0</bpm>
<rpm>0.00</rpm>
</extensions>
</trkpt>
<trkpt lat="63.876613617" lon="-21.187196732">
<ele>3.506348</ele>
<time>2012-07-27T18:58:33Z</time>
<speed>4.920000</speed>
<extensions>
<speed>4.9</speed>
<temp>0.00</temp>
<bpm>0</bpm>
<rpm>0.00</rpm>
</extensions>
</trkpt>
<trkpt lat="63.876754761" lon="-21.187612534">
<ele>3.540222</ele>
<time>2012-07-27T18:58:38Z</time>
<speed>5.010000</speed>
<extensions>
<speed>5.0</speed>
<temp>0.00</temp>
<bpm>0</bpm>
<rpm>0.00</rpm>
</extensions>
</trkpt>
<trkpt lat="63.876884460" lon="-21.187982559">
<ele>4.559448</ele>
<time>2012-07-27T18:58:43Z</time>
<speed>3.660000</speed>
<extensions>
<speed>3.7</speed>
<temp>0.00</temp>
<bpm>0</bpm>
<rpm>0.00</rpm>
</extensions>
</trkpt>
<trkpt lat="63.876972198" lon="-21.188219070">
<ele>5.475952</ele>
<time>2012-07-27T18:58:48Z</time>
<speed>2.370000</speed>
<extensions>
<speed>2.4</speed>
<temp>0.00</temp>
<bpm>0</bpm>
<rpm>0.00</rpm>
</extensions>
</trkpt>
<trkpt lat="63.876987457" lon="-21.188217163">
<ele>5.222656</ele>
<time>2012-07-27T18:58:53Z</time>
<speed>0.570000</speed>
<extensions>
<speed>0.6</speed>
<temp>0.00</temp>
<bpm>0</bpm>
<rpm>0.00</rpm>
</extensions>
</trkpt>
<trkpt lat="63.876991272" lon="-21.188213348">
<ele>4.959839</ele>
<time>2012-07-27T18:58:58Z</time>
<speed>0.030000</speed>
<extensions>
<speed>0.0</speed>
<temp>0.00</temp>
<bpm>0</bpm>
<rpm>0.00</rpm>
</extensions>
</trkpt>
<trkpt lat="63.876991272" lon="-21.188211441">
<ele>4.957520</ele>
<time>2012-07-27T18:59:03Z</time>
<speed>0.010000</speed>
<extensions>
<speed>0.0</speed>
<temp>0.00</temp>
<bpm>0</bpm>
<rpm>0.00</rpm>
</extensions>
</trkpt>
<trkpt lat="63.876991272" lon="-21.188209534">
<ele>5.071167</ele>
<time>2012-07-27T18:59:08Z</time>
<speed>0.010000</speed>
<extensions>
<speed>0.0</speed>
<temp>0.00</temp>
<bpm>0</bpm>
<rpm>0.00</rpm>
</extensions>
</trkpt>
<trkpt lat="63.876991272" lon="-21.188209534">
<ele>5.057007</ele>
<time>2012-07-27T18:59:13Z</time>
<extensions>
<speed>0.0</speed>
<temp>0.00</temp>
<bpm>0</bpm>
<rpm>0.00</rpm>
</extensions>
</trkpt>
<trkpt lat="63.876998901" lon="-21.188211441">
<ele>5.020386</ele>
<time>2012-07-27T18:59:18Z</time>
<speed>0.770000</speed>
<extensions>
<speed>0.8</speed>
<temp>0.00</temp>
<bpm>0</bpm>
<rpm>0.00</rpm>
</extensions>
</trkpt>
<trkpt lat="63.877029419" lon="-21.188358307">
<ele>5.722412</ele>
<time>2012-07-27T18:59:23Z</time>
<speed>2.860000</speed>
<extensions>
<speed>2.9</speed>
<temp>0.00</temp>
<bpm>0</bpm>
<rpm>0.00</rpm>
</extensions>
</trkpt>
<trkpt lat="63.877140045" lon="-21.188627243">
<ele>5.722412</ele>
<time>2012-07-27T18:59:28Z</time>
<speed>3.950000</speed>
<extensions>
<speed>4.0</speed>
<temp>0.00</temp>
<bpm>0</bpm>
<rpm>0.00</rpm>
</extensions>
</trkpt>
<trkpt lat="63.877273560" lon="-21.188934326">
<ele>5.200073</ele>
<time>2012-07-27T18:59:33Z</time>
<speed>4.330000</speed>
<extensions>
<speed>4.3</speed>
<temp>0.00</temp>
<bpm>0</bpm>
<rpm>0.00</rpm>
</extensions>
</trkpt>
<trkpt lat="63.877399445" lon="-21.189222336">
<ele>5.115601</ele>
<time>2012-07-27T18:59:38Z</time>
<speed>3.860000</speed>
<extensions>
<speed>3.9</speed>
<temp>0.00</temp>
<bpm>0</bpm>
<rpm>0.00</rpm>
</extensions>
</trkpt>
<trkpt lat="63.877532959" lon="-21.189502716">
<ele>5.084961</ele>
<time>2012-07-27T18:59:43Z</time>
<speed>3.950000</speed>
<extensions>
<speed>4.0</speed>
<temp>0.00</temp>
<bpm>0</bpm>
<rpm>0.00</rpm>
</extensions>
</trkpt>
<trkpt lat="63.877670288" lon="-21.189771652">
<ele>5.150269</ele>
<time>2012-07-27T18:59:48Z</time>
<speed>4.090000</speed>
<extensions>
<speed>4.1</speed>
<temp>0.00</temp>
<bpm>0</bpm>
<rpm>0.00</rpm>
</extensions>
</trkpt>
<trkpt lat="63.877811432" lon="-21.190027237">
<ele>5.476440</ele>
<time>2012-07-27T18:59:53Z</time>
<speed>3.460000</speed>
<extensions>
<speed>3.5</speed>
<temp>0.00</temp>
<bpm>0</bpm>
<rpm>0.00</rpm>
</extensions>
</trkpt>
<trkpt lat="63.877902985" lon="-21.190212250">
<ele>5.289673</ele>
<time>2012-07-27T18:59:58Z</time>
<speed>3.130000</speed>
<extensions>
<speed>3.1</speed>
<temp>0.00</temp>
<bpm>0</bpm>
<rpm>0.00</rpm>
</extensions>
</trkpt>
<trkpt lat="63.878005981" lon="-21.190391541">
<ele>5.660156</ele>
<time>2012-07-27T19:00:03Z</time>
<speed>2.320000</speed>
<extensions>
<speed>2.3</speed>
<temp>0.00</temp>
<bpm>0</bpm>
<rpm>0.00</rpm>
</extensions>
</trkpt>
<trkpt lat="63.878040314" lon="-21.190435410">
<ele>5.179199</ele>
<time>2012-07-27T19:00:08Z</time>
<speed>0.170000</speed>
<extensions>
<speed>0.2</speed>
<temp>0.00</temp>
<bpm>0</bpm>
<rpm>0.00</rpm>
</extensions>
</trkpt>
<trkpt lat="63.878036499" lon="-21.190433502">
<ele>5.467285</ele>
<time>2012-07-27T19:00:13Z</time>
<extensions>
<speed>0.0</speed>
<temp>0.00</temp>
<bpm>0</bpm>
<rpm>0.00</rpm>
</extensions>
</trkpt>
<trkpt lat="63.878036499" lon="-21.190433502">
<ele>5.476929</ele>
<time>2012-07-27T19:00:18Z</time>
<speed>0.010000</speed>
<extensions>
<speed>0.0</speed>
<temp>0.00</temp>
<bpm>0</bpm>
<rpm>0.00</rpm>
</extensions>
</trkpt>
<trkpt lat="63.878036499" lon="-21.190425873">
<ele>5.398315</ele>
<time>2012-07-27T19:00:23Z</time>
<speed>0.020000</speed>
<extensions>
<speed>0.0</speed>
<temp>0.00</temp>
<bpm>0</bpm>
<rpm>0.00</rpm>
</extensions>
</trkpt>
<trkpt lat="63.878036499" lon="-21.190425873">
<ele>5.416016</ele>
<time>2012-07-27T19:00:28Z</time>
<speed>0.020000</speed>
<extensions>
<speed>0.0</speed>
<temp>0.00</temp>
<bpm>0</bpm>
<rpm>0.00</rpm>
</extensions>
</trkpt>
<trkpt lat="63.878036499" lon="-21.190425873">
<ele>5.430054</ele>
<time>2012-07-27T19:00:33Z</time>
<extensions>
<speed>0.0</speed>
<temp>0.00</temp>
<bpm>0</bpm>
<rpm>0.00</rpm>
</extensions>
</trkpt>
<trkpt lat="63.878036499" lon="-21.190429688">
<ele>5.436523</ele>
<time>2012-07-27T19:00:38Z</time>
<speed>0.010000</speed>
<extensions>
<speed>0.0</speed>
<temp>0.00</temp>
<bpm>0</bpm>
<rpm>0.00</rpm>
</extensions>
</trkpt>
<trkpt lat="63.878036499" lon="-21.190427780">
<ele>5.442993</ele>
<time>2012-07-27T19:00:43Z</time>
<speed>0.040000</speed>
<extensions>
<speed>0.0</speed>
<temp>0.00</temp>
<bpm>0</bpm>
<rpm>0.00</rpm>
</extensions>
</trkpt>
<trkpt lat="63.878036499" lon="-21.190427780">
<ele>5.444580</ele>
<time>2012-07-27T19:00:48Z</time>
<extensions>
<speed>0.0</speed>
<temp>0.00</temp>
<bpm>0</bpm>
<rpm>0.00</rpm>
</extensions>
</trkpt>
<trkpt lat="63.878036499" lon="-21.190427780">
<ele>5.441162</ele>
<time>2012-07-27T19:00:53Z</time>
<speed>0.010000</speed>
<extensions>
<speed>0.0</speed>
<temp>0.00</temp>
<bpm>0</bpm>
<rpm>0.00</rpm>
</extensions>
</trkpt>
<trkpt lat="63.878036499" lon="-21.190427780">
<ele>5.441650</ele>
<time>2012-07-27T19:00:58Z</time>
<speed>0.010000</speed>
<extensions>
<speed>0.0</speed>
<temp>0.00</temp>
<bpm>0</bpm>
<rpm>0.00</rpm>
</extensions>
</trkpt>
<trkpt lat="63.878036499" lon="-21.190427780">
<ele>5.437866</ele>
<time>2012-07-27T19:01:03Z</time>
<extensions>
<speed>0.0</speed>
<temp>0.00</temp>
<bpm>0</bpm>
<rpm>0.00</rpm>
</extensions>
</trkpt>
<trkpt lat="63.878036499" lon="-21.190427780">
<ele>5.433716</ele>
<time>2012-07-27T19:01:08Z</time>
<speed>0.010000</speed>
<extensions>
<speed>0.0</speed>
<temp>0.00</temp>
<bpm>0</bpm>
<rpm>0.00</rpm>
</extensions>
</trkpt>
<trkpt lat="63.878036499" lon="-21.190427780">
<ele>5.436035</ele>
<time>2012-07-27T19:01:13Z</time>
<speed>0.010000</speed>
<extensions>
<speed>0.0</speed>
<temp>0.00</temp>
<bpm>0</bpm>
<rpm>0.00</rpm>
</extensions>
</trkpt>
<trkpt lat="63.878036499" lon="-21.190425873">
<ele>5.427246</ele>
<time>2012-07-27T19:01:18Z</time>
<speed>0.200000</speed>
<extensions>
<speed>0.2</speed>
<temp>0.00</temp>
<bpm>0</bpm>
<rpm>0.00</rpm>
</extensions>
</trkpt>
<trkpt lat="63.878044128" lon="-21.190416336">
<ele>5.506836</ele>
<time>2012-07-27T19:01:23Z</time>
<speed>0.300000</speed>
<extensions>
<speed>0.3</speed>
<temp>0.00</temp>
<bpm>0</bpm>
<rpm>0.00</rpm>
</extensions>
</trkpt>
<trkpt lat="63.878055573" lon="-21.190462112">
<ele>5.619873</ele>
<time>2012-07-27T19:01:28Z</time>
<speed>0.620000</speed>
<extensions>
<speed>0.6</speed>
<temp>0.00</temp>
<bpm>0</bpm>
<rpm>0.00</rpm>
</extensions>
</trkpt>
<trkpt lat="63.878067017" lon="-21.190515518">
<ele>5.773071</ele>
<time>2012-07-27T19:01:33Z</time>
<speed>0.150000</speed>
<extensions>
<speed>0.2</speed>
<temp>0.00</temp>
<bpm>0</bpm>
<rpm>0.00</rpm>
</extensions>
</trkpt>
<trkpt lat="63.878070831" lon="-21.190526962">
<ele>5.857178</ele>
<time>2012-07-27T19:01:38Z</time>
<speed>0.100000</speed>
<extensions>
<speed>0.1</speed>
<temp>0.00</temp>
<bpm>0</bpm>
<rpm>0.00</rpm>
</extensions>
</trkpt>
<trkpt lat="63.878116608" lon="-21.190601349">
<ele>5.631836</ele>
<time>2012-07-27T19:01:43Z</time>
<speed>1.920000</speed>
<extensions>
<speed>1.9</speed>
<temp>0.00</temp>
<bpm>0</bpm>
<rpm>0.00</rpm>
</extensions>
</trkpt>
<trkpt lat="63.878211975" lon="-21.190774918">
<ele>5.664185</ele>
<time>2012-07-27T19:01:48Z</time>
<speed>3.170000</speed>
<extensions>
<speed>3.2</speed>
<temp>0.00</temp>
<bpm>0</bpm>
<rpm>0.00</rpm>
</extensions>
</trkpt>
<trkpt lat="63.878330231" lon="-21.190973282">
<ele>6.076416</ele>
<time>2012-07-27T19:01:53Z</time>
<speed>3.150000</speed>
<extensions>
<speed>3.2</speed>
<temp>0.00</temp>
<bpm>0</bpm>
<rpm>0.00</rpm>
</extensions>
</trkpt>
<trkpt lat="63.878437042" lon="-21.191177368">
<ele>5.846191</ele>
<time>2012-07-27T19:01:58Z</time>
<speed>3.280000</speed>
<extensions>
<speed>3.3</speed>
<temp>0.00</temp>
<bpm>0</bpm>
<rpm>0.00</rpm>
</extensions>
</trkpt>
<trkpt lat="63.878543854" lon="-21.191373825">
<ele>5.296265</ele>
<time>2012-07-27T19:02:03Z</time>
<speed>3.200000</speed>
<extensions>
<speed>3.2</speed>
<temp>0.00</temp>
<bpm>0</bpm>
<rpm>0.00</rpm>
</extensions>
</trkpt>
<trkpt lat="63.878662109" lon="-21.191583633">
<ele>5.722534</ele>
<time>2012-07-27T19:02:08Z</time>
<speed>3.250000</speed>
<extensions>
<speed>3.2</speed>
<temp>0.00</temp>
<bpm>0</bpm>
<rpm>0.00</rpm>
</extensions>
</trkpt>
<trkpt lat="63.878776550" lon="-21.191829681">
<ele>6.308960</ele>
<time>2012-07-27T19:02:13Z</time>
<speed>3.400000</speed>
<extensions>
<speed>3.4</speed>
<temp>0.00</temp>
<bpm>0</bpm>
<rpm>0.00</rpm>
</extensions>
</trkpt>
<trkpt lat="63.878883362" lon="-21.192060471">
<ele>7.143311</ele>
<time>2012-07-27T19:02:18Z</time>
<speed>3.400000</speed>
<extensions>
<speed>3.4</speed>
<temp>0.00</temp>
<bpm>0</bpm>
<rpm>0.00</rpm>
</extensions>
</trkpt>
<trkpt lat="63.879001617" lon="-21.192302704">
<ele>7.219116</ele>
<time>2012-07-27T19:02:23Z</time>
<speed>3.340000</speed>
<extensions>
<speed>3.3</speed>
<temp>0.00</temp>
<bpm>0</bpm>
<rpm>0.00</rpm>
</extensions>
</trkpt>
<trkpt lat="63.879096985" lon="-21.192564011">
<ele>7.748169</ele>
<time>2012-07-27T19:02:28Z</time>
<speed>3.420000</speed>
<extensions>
<speed>3.4</speed>
<temp>0.00</temp>
<bpm>0</bpm>
<rpm>0.00</rpm>
</extensions>
</trkpt>
<trkpt lat="63.879207611" lon="-21.192829132">
<ele>8.248047</ele>
<time>2012-07-27T19:02:33Z</time>
<speed>3.690000</speed>
<extensions>
<speed>3.7</speed>
<temp>0.00</temp>
<bpm>0</bpm>
<rpm>0.00</rpm>
</extensions>
</trkpt>
<trkpt lat="63.879310608" lon="-21.193092346">
<ele>8.343506</ele>
<time>2012-07-27T19:02:38Z</time>
<speed>3.460000</speed>
<extensions>
<speed>3.5</speed>
<temp>0.00</temp>
<bpm>0</bpm>
<rpm>0.00</rpm>
</extensions>
</trkpt>
<trkpt lat="63.879402161" lon="-21.193353653">
<ele>7.689453</ele>
<time>2012-07-27T19:02:43Z</time>
<speed>3.620000</speed>
<extensions>
<speed>3.6</speed>
<temp>0.00</temp>
<bpm>0</bpm>
<rpm>0.00</rpm>
</extensions>
</trkpt>
<trkpt lat="63.879486084" lon="-21.193634033">
<ele>7.050415</ele>
<time>2012-07-27T19:02:48Z</time>
<speed>3.170000</speed>
<extensions>
<speed>3.2</speed>
<temp>0.00</temp>
<bpm>0</bpm>
<rpm>0.00</rpm>
</extensions>
</trkpt>
<trkpt lat="63.879573822" lon="-21.193948746">
<ele>7.957642</ele>
<time>2012-07-27T19:02:53Z</time>
<speed>3.440000</speed>
<extensions>
<speed>3.4</speed>
<temp>0.00</temp>
<bpm>0</bpm>
<rpm>0.00</rpm>
</extensions>
</trkpt>
<trkpt lat="63.879673004" lon="-21.194280624">
<ele>8.051758</ele>
<time>2012-07-27T19:02:58Z</time>
<speed>4.130000</speed>
<extensions>
<speed>4.1</speed>
<temp>0.00</temp>
<bpm>0</bpm>
<rpm>0.00</rpm>
</extensions>
</trkpt>
<trkpt lat="63.879768372" lon="-21.194641113">
<ele>7.955078</ele>
<time>2012-07-27T19:03:03Z</time>
<speed>4.240000</speed>
<extensions>
<speed>4.2</speed>
<temp>0.00</temp>
<bpm>0</bpm>
<rpm>0.00</rpm>
</extensions>
</trkpt>
<trkpt lat="63.879859924" lon="-21.195020676">
<ele>7.801147</ele>
<time>2012-07-27T19:03:08Z</time>
<speed>4.110000</speed>
<extensions>
<speed>4.1</speed>
<temp>0.00</temp>
<bpm>0</bpm>
<rpm>0.00</rpm>
</extensions>
</trkpt>
<trkpt lat="63.879951477" lon="-21.195402145">
<ele>7.859741</ele>
<time>2012-07-27T19:03:13Z</time>
<speed>4.290000</speed>
<extensions>
<speed>4.3</speed>
<temp>0.00</temp>
<bpm>0</bpm>
<rpm>0.00</rpm>
</extensions>
</trkpt>
<trkpt lat="63.880027771" lon="-21.195800781">
<ele>7.278931</ele>
<time>2012-07-27T19:03:18Z</time>
<speed>3.910000</speed>
<extensions>
<speed>3.9</speed>
<temp>0.00</temp>
<bpm>0</bpm>
<rpm>0.00</rpm>
</extensions>
</trkpt>
<trkpt lat="63.880104065" lon="-21.196193695">
<ele>7.754639</ele>
<time>2012-07-27T19:03:23Z</time>
<speed>4.360000</speed>
<extensions>
<speed>4.4</speed>
<temp>0.00</temp>
<bpm>0</bpm>
<rpm>0.00</rpm>
</extensions>
</trkpt>
<trkpt lat="63.880176544" lon="-21.196634293">
<ele>7.990356</ele>
<time>2012-07-27T19:03:28Z</time>
<speed>4.650000</speed>
<extensions>
<speed>4.6</speed>
<temp>0.00</temp>
<bpm>0</bpm>
<rpm>0.00</rpm>
</extensions>
</trkpt>
<trkpt lat="63.880249023" lon="-21.197099686">
<ele>8.071289</ele>
<time>2012-07-27T19:03:33Z</time>
<speed>4.640000</speed>
<extensions>
<speed>4.6</speed>
<temp>0.00</temp>
<bpm>0</bpm>
<rpm>0.00</rpm>
</extensions>
</trkpt>
<trkpt lat="63.880302429" lon="-21.197570801">
<ele>7.944702</ele>
<time>2012-07-27T19:03:38Z</time>
<speed>4.940000</speed>
<extensions>
<speed>4.9</speed>
<temp>0.00</temp>
<bpm>0</bpm>
<rpm>0.00</rpm>
</extensions>
</trkpt>
<trkpt lat="63.880336761" lon="-21.197973251">
<ele>8.077393</ele>
<time>2012-07-27T19:03:43Z</time>
<speed>3.280000</speed>
<extensions>
<speed>3.3</speed>
<temp>0.00</temp>
<bpm>0</bpm>
<rpm>0.00</rpm>
</extensions>
</trkpt>
<trkpt lat="63.880363464" lon="-21.198366165">
<ele>8.447998</ele>
<time>2012-07-27T19:03:48Z</time>
<speed>4.490000</speed>
<extensions>
<speed>4.5</speed>
<temp>0.00</temp>
<bpm>0</bpm>
<rpm>0.00</rpm>
</extensions>
</trkpt>
<trkpt lat="63.880386353" lon="-21.198839188">
<ele>8.985352</ele>
<time>2012-07-27T19:03:53Z</time>
<speed>4.170000</speed>
<extensions>
<speed>4.2</speed>
<temp>0.00</temp>
<bpm>0</bpm>
<rpm>0.00</rpm>
</extensions>
</trkpt>
<trkpt lat="63.880409241" lon="-21.199287415">
<ele>9.269775</ele>
<time>2012-07-27T19:03:58Z</time>
<speed>4.850000</speed>
<extensions>
<speed>4.8</speed>
<temp>0.00</temp>
<bpm>0</bpm>
<rpm>0.00</rpm>
</extensions>
</trkpt>
<trkpt lat="63.880420685" lon="-21.199764252">
<ele>9.780762</ele>
<time>2012-07-27T19:04:03Z</time>
<speed>4.320000</speed>
<extensions>
<speed>4.3</speed>
<temp>0.00</temp>
<bpm>0</bpm>
<rpm>0.00</rpm>
</extensions>
</trkpt>
<trkpt lat="63.880432129" lon="-21.200115204">
<ele>10.685059</ele>
<time>2012-07-27T19:04:08Z</time>
<speed>2.720000</speed>
<extensions>
<speed>2.7</speed>
<temp>0.00</temp>
<bpm>0</bpm>
<rpm>0.00</rpm>
</extensions>
</trkpt>
<trkpt lat="63.880443573" lon="-21.200340271">
<ele>10.941406</ele>
<time>2012-07-27T19:04:13Z</time>
<speed>2.230000</speed>
<extensions>
<speed>2.2</speed>
<temp>0.00</temp>
<bpm>0</bpm>
<rpm>0.00</rpm>
</extensions>
</trkpt>
<trkpt lat="63.880439758" lon="-21.200662613">
<ele>10.909668</ele>
<time>2012-07-27T19:04:18Z</time>
<speed>3.930000</speed>
<extensions>
<speed>3.9</speed>
<temp>0.00</temp>
<bpm>0</bpm>
<rpm>0.00</rpm>
</extensions>
</trkpt>
<trkpt lat="63.880416870" lon="-21.201080322">
<ele>11.112305</ele>
<time>2012-07-27T19:04:23Z</time>
<speed>3.840000</speed>
<extensions>
<speed>3.8</speed>
<temp>0.00</temp>
<bpm>0</bpm>
<rpm>0.00</rpm>
</extensions>
</trkpt>
<trkpt lat="63.880405426" lon="-21.201398849">
<ele>11.442139</ele>
<time>2012-07-27T19:04:28Z</time>
<speed>2.470000</speed>
<extensions>
<speed>2.5</speed>
<temp>0.00</temp>
<bpm>0</bpm>
<rpm>0.00</rpm>
</extensions>
</trkpt>
<trkpt lat="63.880405426" lon="-21.201599121">
<ele>11.976318</ele>
<time>2012-07-27T19:04:33Z</time>
<speed>1.880000</speed>
<extensions>
<speed>1.9</speed>
<temp>0.00</temp>
<bpm>0</bpm>
<rpm>0.00</rpm>
</extensions>
</trkpt>
<trkpt lat="63.880386353" lon="-21.201774597">
<ele>12.250000</ele>
<time>2012-07-27T19:04:38Z</time>
<speed>2.050000</speed>
<extensions>
<speed>2.1</speed>
<temp>0.00</temp>
<bpm>0</bpm>
<rpm>0.00</rpm>
</extensions>
</trkpt>
<trkpt lat="63.880363464" lon="-21.202020645">
<ele>11.922119</ele>
<time>2012-07-27T19:04:43Z</time>
<speed>2.430000</speed>
<extensions>
<speed>2.4</speed>
<temp>0.00</temp>
<bpm>0</bpm>
<rpm>0.00</rpm>
</extensions>
</trkpt>
<trkpt lat="63.880352020" lon="-21.202196121">
<ele>11.697021</ele>
<time>2012-07-27T19:04:48Z</time>
<speed>1.250000</speed>
<extensions>
<speed>1.3</speed>
<temp>0.00</temp>
<bpm>0</bpm>
<rpm>0.00</rpm>
</extensions>
</trkpt>
<trkpt lat="63.880359650" lon="-21.202260971">
<ele>10.836426</ele>
<time>2012-07-27T19:04:53Z</time>
<speed>0.010000</speed>
<extensions>
<speed>0.0</speed>
<temp>0.00</temp>
<bpm>0</bpm>
<rpm>0.00</rpm>
</extensions>
</trkpt>
<trkpt lat="63.880355835" lon="-21.202259064">
<ele>9.976074</ele>
<time>2012-07-27T19:04:58Z</time>
<speed>0.030000</speed>
<extensions>
<speed>0.0</speed>
<temp>0.00</temp>
<bpm>0</bpm>
<rpm>0.00</rpm>
</extensions>
</trkpt>
<trkpt lat="63.880355835" lon="-21.202260971">
<ele>9.846680</ele>
<time>2012-07-27T19:05:03Z</time>
<speed>0.020000</speed>
<extensions>
<speed>0.0</speed>
<temp>0.00</temp>
<bpm>0</bpm>
<rpm>0.00</rpm>
</extensions>
</trkpt>
<trkpt lat="63.880355835" lon="-21.202262878">
<ele>9.756348</ele>
<time>2012-07-27T19:05:08Z</time>
<speed>0.020000</speed>
<extensions>
<speed>0.0</speed>
<temp>0.00</temp>
<bpm>0</bpm>
<rpm>0.00</rpm>
</extensions>
</trkpt>
<trkpt lat="63.880355835" lon="-21.202262878">
<ele>9.712402</ele>
<time>2012-07-27T19:05:13Z</time>
<speed>0.020000</speed>
<extensions>
<speed>0.0</speed>
<temp>0.00</temp>
<bpm>0</bpm>
<rpm>0.00</rpm>
</extensions>
</trkpt>
<trkpt lat="63.880355835" lon="-21.202262878">
<ele>9.777832</ele>
<time>2012-07-27T19:05:18Z</time>
<speed>0.010000</speed>
<extensions>
<speed>0.0</speed>
<temp>0.00</temp>
<bpm>0</bpm>
<rpm>0.00</rpm>
</extensions>
</trkpt>
<trkpt lat="63.880355835" lon="-21.202260971">
<ele>9.871582</ele>
<time>2012-07-27T19:05:23Z</time>
<extensions>
<speed>0.0</speed>
<temp>0.00</temp>
<bpm>0</bpm>
<rpm>0.00</rpm>
</extensions>
</trkpt>
<trkpt lat="63.880355835" lon="-21.202259064">
<ele>9.929443</ele>
<time>2012-07-27T19:05:28Z</time>
<extensions>
<speed>0.0</speed>
<temp>0.00</temp>
<bpm>0</bpm>
<rpm>0.00</rpm>
</extensions>
</trkpt>
<trkpt lat="63.880355835" lon="-21.202259064">
<ele>9.944580</ele>
<time>2012-07-27T19:05:33Z</time>
<extensions>
<speed>0.0</speed>
<temp>0.00</temp>
<bpm>0</bpm>
<rpm>0.00</rpm>
</extensions>
</trkpt>
<trkpt lat="63.880355835" lon="-21.202259064">
<ele>9.957520</ele>
<time>2012-07-27T19:05:38Z</time>
<extensions>
<speed>0.0</speed>
<temp>0.00</temp>
<bpm>0</bpm>
<rpm>0.00</rpm>
</extensions>
</trkpt>
<trkpt lat="63.880355835" lon="-21.202259064">
<ele>9.962158</ele>
<time>2012-07-27T19:05:43Z</time>
<extensions>
<speed>0.0</speed>
<temp>0.00</temp>
<bpm>0</bpm>
<rpm>0.00</rpm>
</extensions>
</trkpt>
<trkpt lat="63.880355835" lon="-21.202259064">
<ele>9.962891</ele>
<time>2012-07-27T19:05:48Z</time>
<extensions>
<speed>0.0</speed>
<temp>0.00</temp>
<bpm>0</bpm>
<rpm>0.00</rpm>
</extensions>
</trkpt>
<trkpt lat="63.880355835" lon="-21.202259064">
<ele>9.962646</ele>
<time>2012-07-27T19:05:53Z</time>
<speed>0.010000</speed>
<extensions>
<speed>0.0</speed>
<temp>0.00</temp>
<bpm>0</bpm>
<rpm>0.00</rpm>
</extensions>
</trkpt>
<trkpt lat="63.880355835" lon="-21.202259064">
<ele>9.968994</ele>
<time>2012-07-27T19:05:58Z</time>
<speed>0.010000</speed>
<extensions>
<speed>0.0</speed>
<temp>0.00</temp>
<bpm>0</bpm>
<rpm>0.00</rpm>
</extensions>
</trkpt>
<trkpt lat="63.880355835" lon="-21.202257156">
<ele>9.972412</ele>
<time>2012-07-27T19:06:03Z</time>
<speed>0.010000</speed>
<extensions>
<speed>0.0</speed>
<temp>0.00</temp>
<bpm>0</bpm>
<rpm>0.00</rpm>
</extensions>
</trkpt>
<trkpt lat="63.880355835" lon="-21.202257156">
<ele>9.980225</ele>
<time>2012-07-27T19:06:08Z</time>
<speed>0.010000</speed>
<extensions>
<speed>0.0</speed>
<temp>0.00</temp>
<bpm>0</bpm>
<rpm>0.00</rpm>
</extensions>
</trkpt>
<trkpt lat="63.880355835" lon="-21.202257156">
<ele>9.989990</ele>
<time>2012-07-27T19:06:13Z</time>
<extensions>
<speed>0.0</speed>
<temp>0.00</temp>
<bpm>0</bpm>
<rpm>0.00</rpm>
</extensions>
</trkpt>
<trkpt lat="63.880355835" lon="-21.202257156">
<ele>9.992676</ele>
<time>2012-07-27T19:06:18Z</time>
<extensions>
<speed>0.0</speed>
<temp>0.00</temp>
<bpm>0</bpm>
<rpm>0.00</rpm>
</extensions>
</trkpt>
<trkpt lat="63.880355835" lon="-21.202257156">
<ele>10.013428</ele>
<time>2012-07-27T19:06:23Z</time>
<speed>0.010000</speed>
<extensions>
<speed>0.0</speed>
<temp>0.00</temp>
<bpm>0</bpm>
<rpm>0.00</rpm>
</extensions>
</trkpt>
<trkpt lat="63.880355835" lon="-21.202257156">
<ele>10.019287</ele>
<time>2012-07-27T19:06:28Z</time>
<extensions>
<speed>0.0</speed>
<temp>0.00</temp>
<bpm>0</bpm>
<rpm>0.00</rpm>
</extensions>
</trkpt>
<trkpt lat="63.880355835" lon="-21.202257156">
<ele>10.032471</ele>
<time>2012-07-27T19:06:33Z</time>
<extensions>
<speed>0.0</speed>
<temp>0.00</temp>
<bpm>0</bpm>
<rpm>0.00</rpm>
</extensions>
</trkpt>
<trkpt lat="63.880355835" lon="-21.202255249">
<ele>10.044189</ele>
<time>2012-07-27T19:06:38Z</time>
<speed>0.010000</speed>
<extensions>
<speed>0.0</speed>
<temp>0.00</temp>
<bpm>0</bpm>
<rpm>0.00</rpm>
</extensions>
</trkpt>
<trkpt lat="63.880355835" lon="-21.202255249">
<ele>10.047852</ele>
<time>2012-07-27T19:06:43Z</time>
<speed>0.030000</speed>
<extensions>
<speed>0.0</speed>
<temp>0.00</temp>
<bpm>0</bpm>
<rpm>0.00</rpm>
</extensions>
</trkpt>
<trkpt lat="63.880344391" lon="-21.202302933">
<ele>10.275146</ele>
<time>2012-07-27T19:06:48Z</time>
<speed>1.200000</speed>
<extensions>
<speed>1.2</speed>
<temp>0.00</temp>
<bpm>0</bpm>
<rpm>0.00</rpm>
</extensions>
</trkpt>
<trkpt lat="63.880317688" lon="-21.202541351">
<ele>11.166016</ele>
<time>2012-07-27T19:06:53Z</time>
<speed>3.040000</speed>
<extensions>
<speed>3.0</speed>
<temp>0.00</temp>
<bpm>0</bpm>
<rpm>0.00</rpm>
</extensions>
</trkpt>
<trkpt lat="63.880279541" lon="-21.202873230">
<ele>11.397949</ele>
<time>2012-07-27T19:06:58Z</time>
<speed>3.600000</speed>
<extensions>
<speed>3.6</speed>
<temp>0.00</temp>
<bpm>0</bpm>
<rpm>0.00</rpm>
</extensions>
</trkpt>
<trkpt lat="63.880233765" lon="-21.203275681">
<ele>12.118164</ele>
<time>2012-07-27T19:07:03Z</time>
<speed>4.250000</speed>
<extensions>
<speed>4.3</speed>
<temp>0.00</temp>
<bpm>0</bpm>
<rpm>0.00</rpm>
</extensions>
</trkpt>
<trkpt lat="63.880184174" lon="-21.203691483">
<ele>12.621582</ele>
<time>2012-07-27T19:07:08Z</time>
<speed>3.860000</speed>
<extensions>
<speed>3.9</speed>
<temp>0.00</temp>
<bpm>0</bpm>
<rpm>0.00</rpm>
</extensions>
</trkpt>
<trkpt lat="63.880130768" lon="-21.204080582">
<ele>13.291748</ele>
<time>2012-07-27T19:07:13Z</time>
<speed>4.420000</speed>
<extensions>
<speed>4.4</speed>
<temp>0.00</temp>
<bpm>0</bpm>
<rpm>0.00</rpm>
</extensions>
</trkpt>
<trkpt lat="63.880050659" lon="-21.204507828">
<ele>13.913818</ele>
<time>2012-07-27T19:07:18Z</time>
<speed>4.670000</speed>
<extensions>
<speed>4.7</speed>
<temp>0.00</temp>
<bpm>0</bpm>
<rpm>0.00</rpm>
</extensions>
</trkpt>
<trkpt lat="63.879966736" lon="-21.204977036">
<ele>14.844482</ele>
<time>2012-07-27T19:07:23Z</time>
<speed>5.110000</speed>
<extensions>
<speed>5.1</speed>
<temp>0.00</temp>
<bpm>0</bpm>
<rpm>0.00</rpm>
</extensions>
</trkpt>
<trkpt lat="63.879875183" lon="-21.205474854">
<ele>15.417480</ele>
<time>2012-07-27T19:07:28Z</time>
<speed>5.430000</speed>
<extensions>
<speed>5.4</speed>
<temp>0.00</temp>
<bpm>0</bpm>
<rpm>0.00</rpm>
</extensions>
</trkpt>
<trkpt lat="63.879779816" lon="-21.205972672">
<ele>15.223877</ele>
<time>2012-07-27T19:07:33Z</time>
<speed>5.050000</speed>
<extensions>
<speed>5.1</speed>
<temp>0.00</temp>
<bpm>0</bpm>
<rpm>0.00</rpm>
</extensions>
</trkpt>
<trkpt lat="63.879673004" lon="-21.206466675">
<ele>15.345459</ele>
<time>2012-07-27T19:07:38Z</time>
<speed>5.430000</speed>
<extensions>
<speed>5.4</speed>
<temp>0.00</temp>
<bpm>0</bpm>
<rpm>0.00</rpm>
</extensions>
</trkpt>
<trkpt lat="63.879570007" lon="-21.206991196">
<ele>15.695801</ele>
<time>2012-07-27T19:07:43Z</time>
<speed>5.580000</speed>
<extensions>
<speed>5.6</speed>
<temp>0.00</temp>
<bpm>0</bpm>
<rpm>0.00</rpm>
</extensions>
</trkpt>
<trkpt lat="63.879467010" lon="-21.207485199">
<ele>15.991943</ele>
<time>2012-07-27T19:07:48Z</time>
<speed>4.790000</speed>
<extensions>
<speed>4.8</speed>
<temp>0.00</temp>
<bpm>0</bpm>
<rpm>0.00</rpm>
</extensions>
</trkpt>
<trkpt lat="63.879383087" lon="-21.207883835">
<ele>16.645020</ele>
<time>2012-07-27T19:07:53Z</time>
<speed>3.880000</speed>
<extensions>
<speed>3.9</speed>
<temp>0.00</temp>
<bpm>0</bpm>
<rpm>0.00</rpm>
</extensions>
</trkpt>
<trkpt lat="63.879302979" lon="-21.208326340">
<ele>16.786133</ele>
<time>2012-07-27T19:07:58Z</time>
<speed>4.910000</speed>
<extensions>
<speed>4.9</speed>
<temp>0.00</temp>
<bpm>0</bpm>
<rpm>0.00</rpm>
</extensions>
</trkpt>
<trkpt lat="63.879211426" lon="-21.208818436">
<ele>17.879883</ele>
<time>2012-07-27T19:08:03Z</time>
<speed>5.290000</speed>
<extensions>
<speed>5.3</speed>
<temp>0.00</temp>
<bpm>0</bpm>
<rpm>0.00</rpm>
</extensions>
</trkpt>
<trkpt lat="63.879116058" lon="-21.209314346">
<ele>17.316406</ele>
<time>2012-07-27T19:08:08Z</time>
<speed>5.660000</speed>
<extensions>
<speed>5.7</speed>
<temp>0.00</temp>
<bpm>0</bpm>
<rpm>0.00</rpm>
</extensions>
</trkpt>
<trkpt lat="63.879013062" lon="-21.209838867">
<ele>17.799805</ele>
<time>2012-07-27T19:08:13Z</time>
<speed>5.750000</speed>
<extensions>
<speed>5.8</speed>
<temp>0.00</temp>
<bpm>0</bpm>
<rpm>0.00</rpm>
</extensions>
</trkpt>
<trkpt lat="63.878910065" lon="-21.210369110">
<ele>18.733398</ele>
<time>2012-07-27T19:08:18Z</time>
<speed>5.710000</speed>
<extensions>
<speed>5.7</speed>
<temp>0.00</temp>
<bpm>0</bpm>
<rpm>0.00</rpm>
</extensions>
</trkpt>
<trkpt lat="63.878818512" lon="-21.210937500">
<ele>22.056641</ele>
<time>2012-07-27T19:08:23Z</time>
<speed>6.090000</speed>
<extensions>
<speed>6.1</speed>
<temp>0.00</temp>
<bpm>0</bpm>
<rpm>0.00</rpm>
</extensions>
</trkpt>
<trkpt lat="63.878711700" lon="-21.211481094">
<ele>22.219238</ele>
<time>2012-07-27T19:08:28Z</time>
<speed>5.720000</speed>
<extensions>
<speed>5.7</speed>
<temp>0.00</temp>
<bpm>0</bpm>
<rpm>0.00</rpm>
</extensions>
</trkpt>
<trkpt lat="63.878601074" lon="-21.212011337">
<ele>22.817383</ele>
<time>2012-07-27T19:08:33Z</time>
<speed>5.750000</speed>
<extensions>
<speed>5.8</speed>
<temp>0.00</temp>
<bpm>0</bpm>
<rpm>0.00</rpm>
</extensions>
</trkpt>
<trkpt lat="63.878498077" lon="-21.212535858">
<ele>23.375000</ele>
<time>2012-07-27T19:08:38Z</time>
<speed>5.770000</speed>
<extensions>
<speed>5.8</speed>
<temp>0.00</temp>
<bpm>0</bpm>
<rpm>0.00</rpm>
</extensions>
</trkpt>
<trkpt lat="63.878383636" lon="-21.213073730">
<ele>23.302246</ele>
<time>2012-07-27T19:08:43Z</time>
<speed>5.870000</speed>
<extensions>
<speed>5.9</speed>
<temp>0.00</temp>
<bpm>0</bpm>
<rpm>0.00</rpm>
</extensions>
</trkpt>
<trkpt lat="63.878303528" lon="-21.213617325">
<ele>21.876953</ele>
<time>2012-07-27T19:08:48Z</time>
<speed>6.110000</speed>
<extensions>
<speed>6.1</speed>
<temp>0.00</temp>
<bpm>0</bpm>
<rpm>0.00</rpm>
</extensions>
</trkpt>
<trkpt lat="63.878227234" lon="-21.214214325">
<ele>20.877930</ele>
<time>2012-07-27T19:08:53Z</time>
<speed>6.150000</speed>
<extensions>
<speed>6.1</speed>
<temp>0.00</temp>
<bpm>0</bpm>
<rpm>0.00</rpm>
</extensions>
</trkpt>
<trkpt lat="63.878154755" lon="-21.214826584">
<ele>19.867676</ele>
<time>2012-07-27T19:08:58Z</time>
<speed>6.430000</speed>
<extensions>
<speed>6.4</speed>
<temp>0.00</temp>
<bpm>0</bpm>
<rpm>0.00</rpm>
</extensions>
</trkpt>
<trkpt lat="63.878097534" lon="-21.215476990">
<ele>19.108398</ele>
<time>2012-07-27T19:09:03Z</time>
<speed>6.200000</speed>
<extensions>
<speed>6.2</speed>
<temp>0.00</temp>
<bpm>0</bpm>
<rpm>0.00</rpm>
</extensions>
</trkpt>
<trkpt lat="63.878067017" lon="-21.216068268">
<ele>18.122559</ele>
<time>2012-07-27T19:09:08Z</time>
<speed>5.560000</speed>
<extensions>
<speed>5.6</speed>
<temp>0.00</temp>
<bpm>0</bpm>
<rpm>0.00</rpm>
</extensions>
</trkpt>
<trkpt lat="63.878040314" lon="-21.216667175">
<ele>17.652344</ele>
<time>2012-07-27T19:09:13Z</time>
<speed>5.910000</speed>
<extensions>
<speed>5.9</speed>
<temp>0.00</temp>
<bpm>0</bpm>
<rpm>0.00</rpm>
</extensions>
</trkpt>
<trkpt lat="63.878036499" lon="-21.217157364">
<ele>17.281250</ele>
<time>2012-07-27T19:09:18Z</time>
<speed>3.280000</speed>
<extensions>
<speed>3.3</speed>
<temp>0.00</temp>
<bpm>0</bpm>
<rpm>0.00</rpm>
</extensions>
</trkpt>
<trkpt lat="63.878032684" lon="-21.217313766">
<ele>17.124512</ele>
<time>2012-07-27T19:09:23Z</time>
<speed>0.670000</speed>
<extensions>
<speed>0.7</speed>
<temp>0.00</temp>
<bpm>0</bpm>
<rpm>0.00</rpm>
</extensions>
</trkpt>
<trkpt lat="63.877967834" lon="-21.217285156">
<ele>16.452637</ele>
<time>2012-07-27T19:09:28Z</time>
<speed>2.470000</speed>
<extensions>
<speed>2.5</speed>
<temp>0.00</temp>
<bpm>0</bpm>
<rpm>0.00</rpm>
</extensions>
</trkpt>
<trkpt lat="63.877822876" lon="-21.217216492">
<ele>15.272217</ele>
<time>2012-07-27T19:09:33Z</time>
<speed>2.980000</speed>
<extensions>
<speed>3.0</speed>
<temp>0.00</temp>
<bpm>0</bpm>
<rpm>0.00</rpm>
</extensions>
</trkpt>
<trkpt lat="63.877731323" lon="-21.217271805">
<ele>14.915283</ele>
<time>2012-07-27T19:09:38Z</time>
<speed>0.090000</speed>
<extensions>
<speed>0.1</speed>
<temp>0.00</temp>
<bpm>0</bpm>
<rpm>0.00</rpm>
</extensions>
</trkpt>
<trkpt lat="63.877731323" lon="-21.217279434">
<ele>15.066895</ele>
<time>2012-07-27T19:09:43Z</time>
<extensions>
<speed>0.0</speed>
<temp>0.00</temp>
<bpm>0</bpm>
<rpm>0.00</rpm>
</extensions>
</trkpt>
<trkpt lat="63.877731323" lon="-21.217279434">
<ele>15.062988</ele>
<time>2012-07-27T19:09:48Z</time>
<extensions>
<speed>0.0</speed>
<temp>0.00</temp>
<bpm>0</bpm>
<rpm>0.00</rpm>
</extensions>
</trkpt>
<trkpt lat="63.877731323" lon="-21.217279434">
<ele>15.070801</ele>
<time>2012-07-27T19:09:53Z</time>
<extensions>
<speed>0.0</speed>
<temp>0.00</temp>
<bpm>0</bpm>
<rpm>0.00</rpm>
</extensions>
</trkpt>
<trkpt lat="63.877731323" lon="-21.217279434">
<ele>15.045166</ele>
<time>2012-07-27T19:09:58Z</time>
<extensions>
<speed>0.0</speed>
<temp>0.00</temp>
<bpm>0</bpm>
<rpm>0.00</rpm>
</extensions>
</trkpt>
<trkpt lat="63.877731323" lon="-21.217279434">
<ele>15.052490</ele>
<time>2012-07-27T19:10:03Z</time>
<extensions>
<speed>0.0</speed>
<temp>0.00</temp>
<bpm>0</bpm>
<rpm>0.00</rpm>
</extensions>
</trkpt>
<trkpt lat="63.877731323" lon="-21.217279434">
<ele>15.007080</ele>
<time>2012-07-27T19:10:08Z</time>
<extensions>
<speed>0.0</speed>
<temp>0.00</temp>
<bpm>0</bpm>
<rpm>0.00</rpm>
</extensions>
</trkpt>
<trkpt lat="63.877731323" lon="-21.217279434">
<ele>14.993164</ele>
<time>2012-07-27T19:10:13Z</time>
<extensions>
<speed>0.0</speed>
<temp>0.00</temp>
<bpm>0</bpm>
<rpm>0.00</rpm>
</extensions>
</trkpt>
<trkpt lat="63.877731323" lon="-21.217279434">
<ele>15.000000</ele>
<time>2012-07-27T19:10:18Z</time>
<extensions>
<speed>0.0</speed>
<temp>0.00</temp>
<bpm>0</bpm>
<rpm>0.00</rpm>
</extensions>
</trkpt>
<trkpt lat="63.877731323" lon="-21.217279434">
<ele>14.992432</ele>
<time>2012-07-27T19:10:23Z</time>
<extensions>
<speed>0.0</speed>
<temp>0.00</temp>
<bpm>0</bpm>
<rpm>0.00</rpm>
</extensions>
</trkpt>
<trkpt lat="63.877731323" lon="-21.217279434">
<ele>14.992188</ele>
<time>2012-07-27T19:10:28Z</time>
<extensions>
<speed>0.0</speed>
<temp>0.00</temp>
<bpm>0</bpm>
<rpm>0.00</rpm>
</extensions>
</trkpt>
<trkpt lat="63.877731323" lon="-21.217279434">
<ele>15.000732</ele>
<time>2012-07-27T19:10:33Z</time>
<extensions>
<speed>0.0</speed>
<temp>0.00</temp>
<bpm>0</bpm>
<rpm>0.00</rpm>
</extensions>
</trkpt>
<trkpt lat="63.877731323" lon="-21.217279434">
<ele>15.003662</ele>
<time>2012-07-27T19:10:38Z</time>
<speed>0.010000</speed>
<extensions>
<speed>0.0</speed>
<temp>0.00</temp>
<bpm>0</bpm>
<rpm>0.00</rpm>
</extensions>
</trkpt>
<trkpt lat="63.877731323" lon="-21.217279434">
<ele>14.995605</ele>
<time>2012-07-27T19:10:43Z</time>
<extensions>
<speed>0.0</speed>
<temp>0.00</temp>
<bpm>0</bpm>
<rpm>0.00</rpm>
</extensions>
</trkpt>
<trkpt lat="63.877731323" lon="-21.217279434">
<ele>14.986816</ele>
<time>2012-07-27T19:10:48Z</time>
<extensions>
<speed>0.0</speed>
<temp>0.00</temp>
<bpm>0</bpm>
<rpm>0.00</rpm>
</extensions>
</trkpt>
<trkpt lat="63.877731323" lon="-21.217279434">
<ele>14.985840</ele>
<time>2012-07-27T19:10:53Z</time>
<extensions>
<speed>0.0</speed>
<temp>0.00</temp>
<bpm>0</bpm>
<rpm>0.00</rpm>
</extensions>
</trkpt>
<trkpt lat="63.877731323" lon="-21.217279434">
<ele>14.988281</ele>
<time>2012-07-27T19:10:58Z</time>
<speed>0.010000</speed>
<extensions>
<speed>0.0</speed>
<temp>0.00</temp>
<bpm>0</bpm>
<rpm>0.00</rpm>
</extensions>
</trkpt>
<trkpt lat="63.877731323" lon="-21.217279434">
<ele>14.997314</ele>
<time>2012-07-27T19:11:03Z</time>
<extensions>
<speed>0.0</speed>
<temp>0.00</temp>
<bpm>0</bpm>
<rpm>0.00</rpm>
</extensions>
</trkpt>
<trkpt lat="63.877731323" lon="-21.217279434">
<ele>15.002930</ele>
<time>2012-07-27T19:11:08Z</time>
<extensions>
<speed>0.0</speed>
<temp>0.00</temp>
<bpm>0</bpm>
<rpm>0.00</rpm>
</extensions>
</trkpt>
<trkpt lat="63.877731323" lon="-21.217281342">
<ele>15.002197</ele>
<time>2012-07-27T19:11:13Z</time>
<extensions>
<speed>0.0</speed>
<temp>0.00</temp>
<bpm>0</bpm>
<rpm>0.00</rpm>
</extensions>
</trkpt>
<trkpt lat="63.877731323" lon="-21.217281342">
<ele>14.995361</ele>
<time>2012-07-27T19:11:18Z</time>
<speed>0.010000</speed>
<extensions>
<speed>0.0</speed>
<temp>0.00</temp>
<bpm>0</bpm>
<rpm>0.00</rpm>
</extensions>
</trkpt>
<trkpt lat="63.877731323" lon="-21.217281342">
<ele>14.996582</ele>
<time>2012-07-27T19:11:23Z</time>
<extensions>
<speed>0.0</speed>
<temp>0.00</temp>
<bpm>0</bpm>
<rpm>0.00</rpm>
</extensions>
</trkpt>
<trkpt lat="63.877731323" lon="-21.217281342">
<ele>15.003906</ele>
<time>2012-07-27T19:11:28Z</time>
<extensions>
<speed>0.0</speed>
<temp>0.00</temp>
<bpm>0</bpm>
<rpm>0.00</rpm>
</extensions>
</trkpt>
<trkpt lat="63.877731323" lon="-21.217281342">
<ele>15.009033</ele>
<time>2012-07-27T19:11:33Z</time>
<speed>0.010000</speed>
<extensions>
<speed>0.0</speed>
<temp>0.00</temp>
<bpm>0</bpm>
<rpm>0.00</rpm>
</extensions>
</trkpt>
<trkpt lat="63.877731323" lon="-21.217281342">
<ele>15.010010</ele>
<time>2012-07-27T19:11:38Z</time>
<speed>0.020000</speed>
<extensions>
<speed>0.0</speed>
<temp>0.00</temp>
<bpm>0</bpm>
<rpm>0.00</rpm>
</extensions>
</trkpt>
<trkpt lat="63.877731323" lon="-21.217281342">
<ele>15.014648</ele>
<time>2012-07-27T19:11:43Z</time>
<extensions>
<speed>0.0</speed>
<temp>0.00</temp>
<bpm>0</bpm>
<rpm>0.00</rpm>
</extensions>
</trkpt>
<trkpt lat="63.877731323" lon="-21.217281342">
<ele>15.008789</ele>
<time>2012-07-27T19:11:48Z</time>
<extensions>
<speed>0.0</speed>
<temp>0.00</temp>
<bpm>0</bpm>
<rpm>0.00</rpm>
</extensions>
</trkpt>
<trkpt lat="63.877731323" lon="-21.217281342">
<ele>15.007813</ele>
<time>2012-07-27T19:11:53Z</time>
<extensions>
<speed>0.0</speed>
<temp>0.00</temp>
<bpm>0</bpm>
<rpm>0.00</rpm>
</extensions>
</trkpt>
<trkpt lat="63.877731323" lon="-21.217281342">
<ele>15.011719</ele>
<time>2012-07-27T19:11:58Z</time>
<extensions>
<speed>0.0</speed>
<temp>0.00</temp>
<bpm>0</bpm>
<rpm>0.00</rpm>
</extensions>
</trkpt>
<trkpt lat="63.877731323" lon="-21.217281342">
<ele>15.008301</ele>
<time>2012-07-27T19:12:03Z</time>
<speed>0.010000</speed>
<extensions>
<speed>0.0</speed>
<temp>0.00</temp>
<bpm>0</bpm>
<rpm>0.00</rpm>
</extensions>
</trkpt>
<trkpt lat="63.877731323" lon="-21.217281342">
<ele>15.015625</ele>
<time>2012-07-27T19:12:08Z</time>
<extensions>
<speed>0.0</speed>
<temp>0.00</temp>
<bpm>0</bpm>
<rpm>0.00</rpm>
</extensions>
</trkpt>
<trkpt lat="63.877731323" lon="-21.217281342">
<ele>15.022949</ele>
<time>2012-07-27T19:12:13Z</time>
<extensions>
<speed>0.0</speed>
<temp>0.00</temp>
<bpm>0</bpm>
<rpm>0.00</rpm>
</extensions>
</trkpt>
<trkpt lat="63.877731323" lon="-21.217283249">
<ele>15.013184</ele>
<time>2012-07-27T19:12:18Z</time>
<speed>0.030000</speed>
<extensions>
<speed>0.0</speed>
<temp>0.00</temp>
<bpm>0</bpm>
<rpm>0.00</rpm>
</extensions>
</trkpt>
<trkpt lat="63.877731323" lon="-21.217283249">
<ele>15.018311</ele>
<time>2012-07-27T19:12:23Z</time>
<extensions>
<speed>0.0</speed>
<temp>0.00</temp>
<bpm>0</bpm>
<rpm>0.00</rpm>
</extensions>
</trkpt>
<trkpt lat="63.877731323" lon="-21.217283249">
<ele>15.015137</ele>
<time>2012-07-27T19:12:28Z</time>
<speed>0.010000</speed>
<extensions>
<speed>0.0</speed>
<temp>0.00</temp>
<bpm>0</bpm>
<rpm>0.00</rpm>
</extensions>
</trkpt>
<trkpt lat="63.877731323" lon="-21.217283249">
<ele>15.017578</ele>
<time>2012-07-27T19:12:33Z</time>
<extensions>
<speed>0.0</speed>
<temp>0.00</temp>
<bpm>0</bpm>
<rpm>0.00</rpm>
</extensions>
</trkpt>
<trkpt lat="63.877731323" lon="-21.217283249">
<ele>15.021240</ele>
<time>2012-07-27T19:12:38Z</time>
<speed>0.010000</speed>
<extensions>
<speed>0.0</speed>
<temp>0.00</temp>
<bpm>0</bpm>
<rpm>0.00</rpm>
</extensions>
</trkpt>
<trkpt lat="63.877731323" lon="-21.217283249">
<ele>15.017822</ele>
<time>2012-07-27T19:12:43Z</time>
<extensions>
<speed>0.0</speed>
<temp>0.00</temp>
<bpm>0</bpm>
<rpm>0.00</rpm>
</extensions>
</trkpt>
<trkpt lat="63.877731323" lon="-21.217283249">
<ele>15.016846</ele>
<time>2012-07-27T19:12:48Z</time>
<extensions>
<speed>0.0</speed>
<temp>0.00</temp>
<bpm>0</bpm>
<rpm>0.00</rpm>
</extensions>
</trkpt>
<trkpt lat="63.877731323" lon="-21.217283249">
<ele>15.019775</ele>
<time>2012-07-27T19:12:53Z</time>
<extensions>
<speed>0.0</speed>
<temp>0.00</temp>
<bpm>0</bpm>
<rpm>0.00</rpm>
</extensions>
</trkpt>
<trkpt lat="63.877731323" lon="-21.217283249">
<ele>15.019287</ele>
<time>2012-07-27T19:12:58Z</time>
<speed>0.010000</speed>
<extensions>
<speed>0.0</speed>
<temp>0.00</temp>
<bpm>0</bpm>
<rpm>0.00</rpm>
</extensions>
</trkpt>
<trkpt lat="63.877731323" lon="-21.217283249">
<ele>15.026123</ele>
<time>2012-07-27T19:13:03Z</time>
<extensions>
<speed>0.0</speed>
<temp>0.00</temp>
<bpm>0</bpm>
<rpm>0.00</rpm>
</extensions>
</trkpt>
<trkpt lat="63.877731323" lon="-21.217283249">
<ele>15.026367</ele>
<time>2012-07-27T19:13:08Z</time>
<extensions>
<speed>0.0</speed>
<temp>0.00</temp>
<bpm>0</bpm>
<rpm>0.00</rpm>
</extensions>
</trkpt>
<trkpt lat="63.877731323" lon="-21.217285156">
<ele>15.028564</ele>
<time>2012-07-27T19:13:13Z</time>
<extensions>
<speed>0.0</speed>
<temp>0.00</temp>
<bpm>0</bpm>
<rpm>0.00</rpm>
</extensions>
</trkpt>
<trkpt lat="63.877731323" lon="-21.217285156">
<ele>15.029053</ele>
<time>2012-07-27T19:13:18Z</time>
<extensions>
<speed>0.0</speed>
<temp>0.00</temp>
<bpm>0</bpm>
<rpm>0.00</rpm>
</extensions>
</trkpt>
<trkpt lat="63.877731323" lon="-21.217285156">
<ele>15.030029</ele>
<time>2012-07-27T19:13:23Z</time>
<speed>0.010000</speed>
<extensions>
<speed>0.0</speed>
<temp>0.00</temp>
<bpm>0</bpm>
<rpm>0.00</rpm>
</extensions>
</trkpt>
<trkpt lat="63.877731323" lon="-21.217285156">
<ele>15.039551</ele>
<time>2012-07-27T19:13:28Z</time>
<extensions>
<speed>0.0</speed>
<temp>0.00</temp>
<bpm>0</bpm>
<rpm>0.00</rpm>
</extensions>
</trkpt>
<trkpt lat="63.877731323" lon="-21.217285156">
<ele>15.045166</ele>
<time>2012-07-27T19:13:33Z</time>
<speed>0.010000</speed>
<extensions>
<speed>0.0</speed>
<temp>0.00</temp>
<bpm>0</bpm>
<rpm>0.00</rpm>
</extensions>
</trkpt>
<trkpt lat="63.877731323" lon="-21.217285156">
<ele>15.042236</ele>
<time>2012-07-27T19:13:38Z</time>
<extensions>
<speed>0.0</speed>
<temp>0.00</temp>
<bpm>0</bpm>
<rpm>0.00</rpm>
</extensions>
</trkpt>
<trkpt lat="63.877731323" lon="-21.217285156">
<ele>15.040283</ele>
<time>2012-07-27T19:13:43Z</time>
<extensions>
<speed>0.0</speed>
<temp>0.00</temp>
<bpm>0</bpm>
<rpm>0.00</rpm>
</extensions>
</trkpt>
<trkpt lat="63.877731323" lon="-21.217285156">
<ele>15.046631</ele>
<time>2012-07-27T19:13:48Z</time>
<extensions>
<speed>0.0</speed>
<temp>0.00</temp>
<bpm>0</bpm>
<rpm>0.00</rpm>
</extensions>
</trkpt>
<trkpt lat="63.877731323" lon="-21.217285156">
<ele>15.047852</ele>
<time>2012-07-27T19:13:53Z</time>
<extensions>
<speed>0.0</speed>
<temp>0.00</temp>
<bpm>0</bpm>
<rpm>0.00</rpm>
</extensions>
</trkpt>
<trkpt lat="63.877731323" lon="-21.217285156">
<ele>15.046143</ele>
<time>2012-07-27T19:13:58Z</time>
<extensions>
<speed>0.0</speed>
<temp>0.00</temp>
<bpm>0</bpm>
<rpm>0.00</rpm>
</extensions>
</trkpt>
<trkpt lat="63.877731323" lon="-21.217285156">
<ele>15.050293</ele>
<time>2012-07-27T19:14:03Z</time>
<extensions>
<speed>0.0</speed>
<temp>0.00</temp>
<bpm>0</bpm>
<rpm>0.00</rpm>
</extensions>
</trkpt>
<trkpt lat="63.877731323" lon="-21.217285156">
<ele>15.049316</ele>
<time>2012-07-27T19:14:08Z</time>
<speed>0.010000</speed>
<extensions>
<speed>0.0</speed>
<temp>0.00</temp>
<bpm>0</bpm>
<rpm>0.00</rpm>
</extensions>
</trkpt>
<trkpt lat="63.877731323" lon="-21.217287064">
<ele>15.049316</ele>
<time>2012-07-27T19:14:13Z</time>
<extensions>
<speed>0.0</speed>
<temp>0.00</temp>
<bpm>0</bpm>
<rpm>0.00</rpm>
</extensions>
</trkpt>
<trkpt lat="63.877731323" lon="-21.217287064">
<ele>15.051025</ele>
<time>2012-07-27T19:14:18Z</time>
<extensions>
<speed>0.0</speed>
<temp>0.00</temp>
<bpm>0</bpm>
<rpm>0.00</rpm>
</extensions>
</trkpt>
<trkpt lat="63.877731323" lon="-21.217287064">
<ele>15.054932</ele>
<time>2012-07-27T19:14:23Z</time>
<extensions>
<speed>0.0</speed>
<temp>0.00</temp>
<bpm>0</bpm>
<rpm>0.00</rpm>
</extensions>
</trkpt>
<trkpt lat="63.877731323" lon="-21.217287064">
<ele>15.053955</ele>
<time>2012-07-27T19:14:28Z</time>
<extensions>
<speed>0.0</speed>
<temp>0.00</temp>
<bpm>0</bpm>
<rpm>0.00</rpm>
</extensions>
</trkpt>
<trkpt lat="63.877731323" lon="-21.217287064">
<ele>15.053955</ele>
<time>2012-07-27T19:14:33Z</time>
<speed>0.040000</speed>
<extensions>
<speed>0.0</speed>
<temp>0.00</temp>
<bpm>0</bpm>
<rpm>0.00</rpm>
</extensions>
</trkpt>
<trkpt lat="63.877731323" lon="-21.217287064">
<ele>15.068115</ele>
<time>2012-07-27T19:14:38Z</time>
<speed>0.010000</speed>
<extensions>
<speed>0.0</speed>
<temp>0.00</temp>
<bpm>0</bpm>
<rpm>0.00</rpm>
</extensions>
</trkpt>
<trkpt lat="63.877731323" lon="-21.217287064">
<ele>15.070801</ele>
<time>2012-07-27T19:14:43Z</time>
<extensions>
<speed>0.0</speed>
<temp>0.00</temp>
<bpm>0</bpm>
<rpm>0.00</rpm>
</extensions>
</trkpt>
<trkpt lat="63.877731323" lon="-21.217287064">
<ele>15.074951</ele>
<time>2012-07-27T19:14:48Z</time>
<speed>0.010000</speed>
<extensions>
<speed>0.0</speed>
<temp>0.00</temp>
<bpm>0</bpm>
<rpm>0.00</rpm>
</extensions>
</trkpt>
<trkpt lat="63.877731323" lon="-21.217287064">
<ele>15.076172</ele>
<time>2012-07-27T19:14:53Z</time>
<extensions>
<speed>0.0</speed>
<temp>0.00</temp>
<bpm>0</bpm>
<rpm>0.00</rpm>
</extensions>
</trkpt>
<trkpt lat="63.877731323" lon="-21.217287064">
<ele>15.075928</ele>
<time>2012-07-27T19:14:58Z</time>
<extensions>
<speed>0.0</speed>
<temp>0.00</temp>
<bpm>0</bpm>
<rpm>0.00</rpm>
</extensions>
</trkpt>
<trkpt lat="63.877731323" lon="-21.217287064">
<ele>15.070801</ele>
<time>2012-07-27T19:15:03Z</time>
<extensions>
<speed>0.0</speed>
<temp>0.00</temp>
<bpm>0</bpm>
<rpm>0.00</rpm>
</extensions>
</trkpt>
<trkpt lat="63.877731323" lon="-21.217287064">
<ele>15.068604</ele>
<time>2012-07-27T19:15:08Z</time>
<extensions>
<speed>0.0</speed>
<temp>0.00</temp>
<bpm>0</bpm>
<rpm>0.00</rpm>
</extensions>
</trkpt>
<trkpt lat="63.877731323" lon="-21.217287064">
<ele>15.070313</ele>
<time>2012-07-27T19:15:13Z</time>
<extensions>
<speed>0.0</speed>
<temp>0.00</temp>
<bpm>0</bpm>
<rpm>0.00</rpm>
</extensions>
</trkpt>
<trkpt lat="63.877731323" lon="-21.217287064">
<ele>15.066895</ele>
<time>2012-07-27T19:15:18Z</time>
<speed>0.010000</speed>
<extensions>
<speed>0.0</speed>
<temp>0.00</temp>
<bpm>0</bpm>
<rpm>0.00</rpm>
</extensions>
</trkpt>
<trkpt lat="63.877731323" lon="-21.217287064">
<ele>15.065918</ele>
<time>2012-07-27T19:15:23Z</time>
<extensions>
<speed>0.0</speed>
<temp>0.00</temp>
<bpm>0</bpm>
<rpm>0.00</rpm>
</extensions>
</trkpt>
<trkpt lat="63.877731323" lon="-21.217287064">
<ele>15.065918</ele>
<time>2012-07-27T19:15:28Z</time>
<speed>0.010000</speed>
<extensions>
<speed>0.0</speed>
<temp>0.00</temp>
<bpm>0</bpm>
<rpm>0.00</rpm>
</extensions>
</trkpt>
<trkpt lat="63.877731323" lon="-21.217287064">
<ele>15.063965</ele>
<time>2012-07-27T19:15:33Z</time>
<extensions>
<speed>0.0</speed>
<temp>0.00</temp>
<bpm>0</bpm>
<rpm>0.00</rpm>
</extensions>
</trkpt>
<trkpt lat="63.877731323" lon="-21.217287064">
<ele>15.062988</ele>
<time>2012-07-27T19:15:38Z</time>
<extensions>
<speed>0.0</speed>
<temp>0.00</temp>
<bpm>0</bpm>
<rpm>0.00</rpm>
</extensions>
</trkpt>
<trkpt lat="63.877731323" lon="-21.217287064">
<ele>15.057129</ele>
<time>2012-07-27T19:15:43Z</time>
<extensions>
<speed>0.0</speed>
<temp>0.00</temp>
<bpm>0</bpm>
<rpm>0.00</rpm>
</extensions>
</trkpt>
<trkpt lat="63.877731323" lon="-21.217287064">
<ele>15.053955</ele>
<time>2012-07-27T19:15:48Z</time>
<extensions>
<speed>0.0</speed>
<temp>0.00</temp>
<bpm>0</bpm>
<rpm>0.00</rpm>
</extensions>
</trkpt>
<trkpt lat="63.877731323" lon="-21.217287064">
<ele>15.054443</ele>
<time>2012-07-27T19:15:53Z</time>
<extensions>
<speed>0.0</speed>
<temp>0.00</temp>
<bpm>0</bpm>
<rpm>0.00</rpm>
</extensions>
</trkpt>
<trkpt lat="63.877731323" lon="-21.217287064">
<ele>15.055908</ele>
<time>2012-07-27T19:15:58Z</time>
<extensions>
<speed>0.0</speed>
<temp>0.00</temp>
<bpm>0</bpm>
<rpm>0.00</rpm>
</extensions>
</trkpt>
<trkpt lat="63.877731323" lon="-21.217288971">
<ele>15.053711</ele>
<time>2012-07-27T19:16:03Z</time>
<extensions>
<speed>0.0</speed>
<temp>0.00</temp>
<bpm>0</bpm>
<rpm>0.00</rpm>
</extensions>
</trkpt>
<trkpt lat="63.877731323" lon="-21.217288971">
<ele>15.048340</ele>
<time>2012-07-27T19:16:08Z</time>
<extensions>
<speed>0.0</speed>
<temp>0.00</temp>
<bpm>0</bpm>
<rpm>0.00</rpm>
</extensions>
</trkpt>
<trkpt lat="63.877731323" lon="-21.217288971">
<ele>15.045654</ele>
<time>2012-07-27T19:16:13Z</time>
<extensions>
<speed>0.0</speed>
<temp>0.00</temp>
<bpm>0</bpm>
<rpm>0.00</rpm>
</extensions>
</trkpt>
<trkpt lat="63.877731323" lon="-21.217288971">
<ele>15.047607</ele>
<time>2012-07-27T19:16:18Z</time>
<speed>0.380000</speed>
<extensions>
<speed>0.4</speed>
<temp>0.00</temp>
<bpm>0</bpm>
<rpm>0.00</rpm>
</extensions>
</trkpt>
<trkpt lat="63.877735138" lon="-21.217287064">
<ele>15.025879</ele>
<time>2012-07-27T19:16:23Z</time>
<extensions>
<speed>0.0</speed>
<temp>0.00</temp>
<bpm>0</bpm>
<rpm>0.00</rpm>
</extensions>
</trkpt>
<trkpt lat="63.877735138" lon="-21.217287064">
<ele>15.022217</ele>
<time>2012-07-27T19:16:28Z</time>
<extensions>
<speed>0.0</speed>
<temp>0.00</temp>
<bpm>0</bpm>
<rpm>0.00</rpm>
</extensions>
</trkpt>
<trkpt lat="63.877735138" lon="-21.217288971">
<ele>15.021484</ele>
<time>2012-07-27T19:16:33Z</time>
<extensions>
<speed>0.0</speed>
<temp>0.00</temp>
<bpm>0</bpm>
<rpm>0.00</rpm>
</extensions>
</trkpt>
<trkpt lat="63.877735138" lon="-21.217287064">
<ele>15.024902</ele>
<time>2012-07-27T19:16:38Z</time>
<extensions>
<speed>0.0</speed>
<temp>0.00</temp>
<bpm>0</bpm>
<rpm>0.00</rpm>
</extensions>
</trkpt>
<trkpt lat="63.877735138" lon="-21.217287064">
<ele>15.027100</ele>
<time>2012-07-27T19:16:43Z</time>
<extensions>
<speed>0.0</speed>
<temp>0.00</temp>
<bpm>0</bpm>
<rpm>0.00</rpm>
</extensions>
</trkpt>
<trkpt lat="63.877731323" lon="-21.217288971">
<ele>15.026367</ele>
<time>2012-07-27T19:16:48Z</time>
<extensions>
<speed>0.0</speed>
<temp>0.00</temp>
<bpm>0</bpm>
<rpm>0.00</rpm>
</extensions>
</trkpt>
<trkpt lat="63.877731323" lon="-21.217288971">
<ele>15.031738</ele>
<time>2012-07-27T19:16:53Z</time>
<extensions>
<speed>0.0</speed>
<temp>0.00</temp>
<bpm>0</bpm>
<rpm>0.00</rpm>
</extensions>
</trkpt>
<trkpt lat="63.877731323" lon="-21.217288971">
<ele>15.035645</ele>
<time>2012-07-27T19:16:58Z</time>
<extensions>
<speed>0.0</speed>
<temp>0.00</temp>
<bpm>0</bpm>
<rpm>0.00</rpm>
</extensions>
</trkpt>
<trkpt lat="63.877731323" lon="-21.217288971">
<ele>15.038086</ele>
<time>2012-07-27T19:17:03Z</time>
<extensions>
<speed>0.0</speed>
<temp>0.00</temp>
<bpm>0</bpm>
<rpm>0.00</rpm>
</extensions>
</trkpt>
<trkpt lat="63.877731323" lon="-21.217288971">
<ele>15.041504</ele>
<time>2012-07-27T19:17:08Z</time>
<speed>0.010000</speed>
<extensions>
<speed>0.0</speed>
<temp>0.00</temp>
<bpm>0</bpm>
<rpm>0.00</rpm>
</extensions>
</trkpt>
<trkpt lat="63.877731323" lon="-21.217288971">
<ele>15.045654</ele>
<time>2012-07-27T19:17:13Z</time>
<extensions>
<speed>0.0</speed>
<temp>0.00</temp>
<bpm>0</bpm>
<rpm>0.00</rpm>
</extensions>
</trkpt>
<trkpt lat="63.877731323" lon="-21.217288971">
<ele>15.046875</ele>
<time>2012-07-27T19:17:18Z</time>
<extensions>
<speed>0.0</speed>
<temp>0.00</temp>
<bpm>0</bpm>
<rpm>0.00</rpm>
</extensions>
</trkpt>
<trkpt lat="63.877731323" lon="-21.217288971">
<ele>15.044434</ele>
<time>2012-07-27T19:17:23Z</time>
<extensions>
<speed>0.0</speed>
<temp>0.00</temp>
<bpm>0</bpm>
<rpm>0.00</rpm>
</extensions>
</trkpt>
<trkpt lat="63.877731323" lon="-21.217288971">
<ele>15.051270</ele>
<time>2012-07-27T19:17:28Z</time>
<extensions>
<speed>0.0</speed>
<temp>0.00</temp>
<bpm>0</bpm>
<rpm>0.00</rpm>
</extensions>
</trkpt>
<trkpt lat="63.877731323" lon="-21.217288971">
<ele>15.050781</ele>
<time>2012-07-27T19:17:33Z</time>
<extensions>
<speed>0.0</speed>
<temp>0.00</temp>
<bpm>0</bpm>
<rpm>0.00</rpm>
</extensions>
</trkpt>
<trkpt lat="63.877731323" lon="-21.217288971">
<ele>15.048828</ele>
<time>2012-07-27T19:17:38Z</time>
<extensions>
<speed>0.0</speed>
<temp>0.00</temp>
<bpm>0</bpm>
<rpm>0.00</rpm>
</extensions>
</trkpt>
<trkpt lat="63.877731323" lon="-21.217288971">
<ele>15.047852</ele>
<time>2012-07-27T19:17:43Z</time>
<speed>0.020000</speed>
<extensions>
<speed>0.0</speed>
<temp>0.00</temp>
<bpm>0</bpm>
<rpm>0.00</rpm>
</extensions>
</trkpt>
<trkpt lat="63.877731323" lon="-21.217288971">
<ele>15.047119</ele>
<time>2012-07-27T19:17:48Z</time>
<speed>0.010000</speed>
<extensions>
<speed>0.0</speed>
<temp>0.00</temp>
<bpm>0</bpm>
<rpm>0.00</rpm>
</extensions>
</trkpt>
<trkpt lat="63.877731323" lon="-21.217288971">
<ele>15.046143</ele>
<time>2012-07-27T19:17:53Z</time>
<speed>0.010000</speed>
<extensions>
<speed>0.0</speed>
<temp>0.00</temp>
<bpm>0</bpm>
<rpm>0.00</rpm>
</extensions>
</trkpt>
<trkpt lat="63.877731323" lon="-21.217288971">
<ele>15.068848</ele>
<time>2012-07-27T19:17:58Z</time>
<speed>0.050000</speed>
<extensions>
<speed>0.1</speed>
<temp>0.00</temp>
<bpm>0</bpm>
<rpm>0.00</rpm>
</extensions>
</trkpt>
<trkpt lat="63.877735138" lon="-21.217269897">
<ele>14.735840</ele>
<time>2012-07-27T19:18:03Z</time>
<speed>0.080000</speed>
<extensions>
<speed>0.1</speed>
<temp>0.00</temp>
<bpm>0</bpm>
<rpm>0.00</rpm>
</extensions>
</trkpt>
<trkpt lat="63.877742767" lon="-21.217266083">
<ele>14.726563</ele>
<time>2012-07-27T19:18:08Z</time>
<speed>0.300000</speed>
<extensions>
<speed>0.3</speed>
<temp>0.00</temp>
<bpm>0</bpm>
<rpm>0.00</rpm>
</extensions>
</trkpt>
<trkpt lat="63.877777100" lon="-21.217248917">
<ele>14.500488</ele>
<time>2012-07-27T19:18:13Z</time>
<speed>1.050000</speed>
<extensions>
<speed>1.0</speed>
<temp>0.00</temp>
<bpm>0</bpm>
<rpm>0.00</rpm>
</extensions>
</trkpt>
<trkpt lat="63.877830505" lon="-21.217222214">
<ele>14.295166</ele>
<time>2012-07-27T19:18:18Z</time>
<speed>1.140000</speed>
<extensions>
<speed>1.1</speed>
<temp>0.00</temp>
<bpm>0</bpm>
<rpm>0.00</rpm>
</extensions>
</trkpt>
<trkpt lat="63.877880096" lon="-21.217224121">
<ele>13.961670</ele>
<time>2012-07-27T19:18:23Z</time>
<speed>1.070000</speed>
<extensions>
<speed>1.1</speed>
<temp>0.00</temp>
<bpm>0</bpm>
<rpm>0.00</rpm>
</extensions>
</trkpt>
<trkpt lat="63.877929688" lon="-21.217208862">
<ele>13.954834</ele>
<time>2012-07-27T19:18:28Z</time>
<speed>0.970000</speed>
<extensions>
<speed>1.0</speed>
<temp>0.00</temp>
<bpm>0</bpm>
<rpm>0.00</rpm>
</extensions>
</trkpt>
<trkpt lat="63.877983093" lon="-21.217227936">
<ele>14.344727</ele>
<time>2012-07-27T19:18:33Z</time>
<speed>1.400000</speed>
<extensions>
<speed>1.4</speed>
<temp>0.00</temp>
<bpm>0</bpm>
<rpm>0.00</rpm>
</extensions>
</trkpt>
<trkpt lat="63.878021240" lon="-21.217308044">
<ele>14.062012</ele>
<time>2012-07-27T19:18:38Z</time>
<speed>0.740000</speed>
<extensions>
<speed>0.7</speed>
<temp>0.00</temp>
<bpm>0</bpm>
<rpm>0.00</rpm>
</extensions>
</trkpt>
<trkpt lat="63.878021240" lon="-21.217329025">
<ele>14.080078</ele>
<time>2012-07-27T19:18:43Z</time>
<speed>0.070000</speed>
<extensions>
<speed>0.1</speed>
<temp>0.00</temp>
<bpm>0</bpm>
<rpm>0.00</rpm>
</extensions>
</trkpt>
<trkpt lat="63.878021240" lon="-21.217334747">
<ele>14.117188</ele>
<time>2012-07-27T19:18:48Z</time>
<speed>0.180000</speed>
<extensions>
<speed>0.2</speed>
<temp>0.00</temp>
<bpm>0</bpm>
<rpm>0.00</rpm>
</extensions>
</trkpt>
<trkpt lat="63.878021240" lon="-21.217414856">
<ele>13.725586</ele>
<time>2012-07-27T19:18:53Z</time>
<speed>1.650000</speed>
<extensions>
<speed>1.7</speed>
<temp>0.00</temp>
<bpm>0</bpm>
<rpm>0.00</rpm>
</extensions>
</trkpt>
<trkpt lat="63.878032684" lon="-21.217626572">
<ele>13.479736</ele>
<time>2012-07-27T19:18:58Z</time>
<speed>2.920000</speed>
<extensions>
<speed>2.9</speed>
<temp>0.00</temp>
<bpm>0</bpm>
<rpm>0.00</rpm>
</extensions>
</trkpt>
<trkpt lat="63.878047943" lon="-21.217987061">
<ele>13.071289</ele>
<time>2012-07-27T19:19:03Z</time>
<speed>3.840000</speed>
<extensions>
<speed>3.8</speed>
<temp>0.00</temp>
<bpm>0</bpm>
<rpm>0.00</rpm>
</extensions>
</trkpt>
<trkpt lat="63.878067017" lon="-21.218378067">
<ele>12.863281</ele>
<time>2012-07-27T19:19:08Z</time>
<speed>3.740000</speed>
<extensions>
<speed>3.7</speed>
<temp>0.00</temp>
<bpm>0</bpm>
<rpm>0.00</rpm>
</extensions>
</trkpt>
<trkpt lat="63.878086090" lon="-21.218803406">
<ele>12.832764</ele>
<time>2012-07-27T19:19:13Z</time>
<speed>4.420000</speed>
<extensions>
<speed>4.4</speed>
<temp>0.00</temp>
<bpm>0</bpm>
<rpm>0.00</rpm>
</extensions>
</trkpt>
<trkpt lat="63.878124237" lon="-21.219232559">
<ele>12.250488</ele>
<time>2012-07-27T19:19:18Z</time>
<speed>4.090000</speed>
<extensions>
<speed>4.1</speed>
<temp>0.00</temp>
<bpm>0</bpm>
<rpm>0.00</rpm>
</extensions>
</trkpt>
<trkpt lat="63.878166199" lon="-21.219650269">
<ele>12.153809</ele>
<time>2012-07-27T19:19:23Z</time>
<speed>4.310000</speed>
<extensions>
<speed>4.3</speed>
<temp>0.00</temp>
<bpm>0</bpm>
<rpm>0.00</rpm>
</extensions>
</trkpt>
<trkpt lat="63.878223419" lon="-21.220079422">
<ele>12.286133</ele>
<time>2012-07-27T19:19:28Z</time>
<speed>4.480000</speed>
<extensions>
<speed>4.5</speed>
<temp>0.00</temp>
<bpm>0</bpm>
<rpm>0.00</rpm>
</extensions>
</trkpt>
<trkpt lat="63.878280640" lon="-21.220504761">
<ele>12.034912</ele>
<time>2012-07-27T19:19:33Z</time>
<speed>4.180000</speed>
<extensions>
<speed>4.2</speed>
<temp>0.00</temp>
<bpm>0</bpm>
<rpm>0.00</rpm>
</extensions>
</trkpt>
<trkpt lat="63.878337860" lon="-21.220863342">
<ele>12.011963</ele>
<time>2012-07-27T19:19:38Z</time>
<speed>3.810000</speed>
<extensions>
<speed>3.8</speed>
<temp>0.00</temp>
<bpm>0</bpm>
<rpm>0.00</rpm>
</extensions>
</trkpt>
<trkpt lat="63.878410339" lon="-21.221231461">
<ele>12.013916</ele>
<time>2012-07-27T19:19:43Z</time>
<speed>4.390000</speed>
<extensions>
<speed>4.4</speed>
<temp>0.00</temp>
<bpm>0</bpm>
<rpm>0.00</rpm>
</extensions>
</trkpt>
<trkpt lat="63.878498077" lon="-21.221647263">
<ele>11.971191</ele>
<time>2012-07-27T19:19:48Z</time>
<speed>4.770000</speed>
<extensions>
<speed>4.8</speed>
<temp>0.00</temp>
<bpm>0</bpm>
<rpm>0.00</rpm>
</extensions>
</trkpt>
<trkpt lat="63.878604889" lon="-21.222084045">
<ele>11.685547</ele>
<time>2012-07-27T19:19:53Z</time>
<speed>4.930000</speed>
<extensions>
<speed>4.9</speed>
<temp>0.00</temp>
<bpm>0</bpm>
<rpm>0.00</rpm>
</extensions>
</trkpt>
<trkpt lat="63.878692627" lon="-21.222446442">
<ele>11.540527</ele>
<time>2012-07-27T19:19:58Z</time>
<speed>3.870000</speed>
<extensions>
<speed>3.9</speed>
<temp>0.00</temp>
<bpm>0</bpm>
<rpm>0.00</rpm>
</extensions>
</trkpt>
<trkpt lat="63.878780365" lon="-21.222806931">
<ele>12.252197</ele>
<time>2012-07-27T19:20:03Z</time>
<speed>4.100000</speed>
<extensions>
<speed>4.1</speed>
<temp>0.00</temp>
<bpm>0</bpm>
<rpm>0.00</rpm>
</extensions>
</trkpt>
<trkpt lat="63.878871918" lon="-21.223129272">
<ele>12.768799</ele>
<time>2012-07-27T19:20:08Z</time>
<speed>3.320000</speed>
<extensions>
<speed>3.3</speed>
<temp>0.00</temp>
<bpm>0</bpm>
<rpm>0.00</rpm>
</extensions>
</trkpt>
<trkpt lat="63.878921509" lon="-21.223354340">
<ele>13.410889</ele>
<time>2012-07-27T19:20:13Z</time>
<speed>1.870000</speed>
<extensions>
<speed>1.9</speed>
<temp>0.00</temp>
<bpm>0</bpm>
<rpm>0.00</rpm>
</extensions>
</trkpt>
<trkpt lat="63.878955841" lon="-21.223482132">
<ele>13.318359</ele>
<time>2012-07-27T19:20:18Z</time>
<speed>1.380000</speed>
<extensions>
<speed>1.4</speed>
<temp>0.00</temp>
<bpm>0</bpm>
<rpm>0.00</rpm>
</extensions>
</trkpt>
<trkpt lat="63.878990173" lon="-21.223598480">
<ele>12.803223</ele>
<time>2012-07-27T19:20:23Z</time>
<speed>1.220000</speed>
<extensions>
<speed>1.2</speed>
<temp>0.00</temp>
<bpm>0</bpm>
<rpm>0.00</rpm>
</extensions>
</trkpt>
<trkpt lat="63.879016876" lon="-21.223600388">
<ele>13.375244</ele>
<time>2012-07-27T19:20:28Z</time>
<speed>0.150000</speed>
<extensions>
<speed>0.2</speed>
<temp>0.00</temp>
<bpm>0</bpm>
<rpm>0.00</rpm>
</extensions>
</trkpt>
<trkpt lat="63.879016876" lon="-21.223602295">
<ele>13.288818</ele>
<time>2012-07-27T19:20:33Z</time>
<extensions>
<speed>0.0</speed>
<temp>0.00</temp>
<bpm>0</bpm>
<rpm>0.00</rpm>
</extensions>
</trkpt>
<trkpt lat="63.879016876" lon="-21.223602295">
<ele>13.292725</ele>
<time>2012-07-27T19:20:38Z</time>
<extensions>
<speed>0.0</speed>
<temp>0.00</temp>
<bpm>0</bpm>
<rpm>0.00</rpm>
</extensions>
</trkpt>
<trkpt lat="63.879016876" lon="-21.223600388">
<ele>13.289795</ele>
<time>2012-07-27T19:20:43Z</time>
<speed>0.100000</speed>
<extensions>
<speed>0.1</speed>
<temp>0.00</temp>
<bpm>0</bpm>
<rpm>0.00</rpm>
</extensions>
</trkpt>
<trkpt lat="63.879043579" lon="-21.223730087">
<ele>12.600342</ele>
<time>2012-07-27T19:20:48Z</time>
<speed>2.450000</speed>
<extensions>
<speed>2.4</speed>
<temp>0.00</temp>
<bpm>0</bpm>
<rpm>0.00</rpm>
</extensions>
</trkpt>
<trkpt lat="63.879096985" lon="-21.223918915">
<ele>12.540283</ele>
<time>2012-07-27T19:20:53Z</time>
<speed>2.090000</speed>
<extensions>
<speed>2.1</speed>
<temp>0.00</temp>
<bpm>0</bpm>
<rpm>0.00</rpm>
</extensions>
</trkpt>
<trkpt lat="63.879165649" lon="-21.224145889">
<ele>12.610352</ele>
<time>2012-07-27T19:20:58Z</time>
<speed>2.560000</speed>
<extensions>
<speed>2.6</speed>
<temp>0.00</temp>
<bpm>0</bpm>
<rpm>0.00</rpm>
</extensions>
</trkpt>
<trkpt lat="63.879215240" lon="-21.224336624">
<ele>12.382080</ele>
<time>2012-07-27T19:21:03Z</time>
<speed>1.770000</speed>
<extensions>
<speed>1.8</speed>
<temp>0.00</temp>
<bpm>0</bpm>
<rpm>0.00</rpm>
</extensions>
</trkpt>
<trkpt lat="63.879245758" lon="-21.224443436">
<ele>13.362061</ele>
<time>2012-07-27T19:21:08Z</time>
<speed>0.920000</speed>
<extensions>
<speed>0.9</speed>
<temp>0.00</temp>
<bpm>0</bpm>
<rpm>0.00</rpm>
</extensions>
</trkpt>
<trkpt lat="63.879295349" lon="-21.224624634">
<ele>13.324219</ele>
<time>2012-07-27T19:21:13Z</time>
<speed>2.610000</speed>
<extensions>
<speed>2.6</speed>
<temp>0.00</temp>
<bpm>0</bpm>
<rpm>0.00</rpm>
</extensions>
</trkpt>
<trkpt lat="63.879352570" lon="-21.224840164">
<ele>13.205566</ele>
<time>2012-07-27T19:21:18Z</time>
<speed>1.910000</speed>
<extensions>
<speed>1.9</speed>
<temp>0.00</temp>
<bpm>0</bpm>
<rpm>0.00</rpm>
</extensions>
</trkpt>
<trkpt lat="63.879405975" lon="-21.225078583">
<ele>12.501465</ele>
<time>2012-07-27T19:21:23Z</time>
<speed>3.000000</speed>
<extensions>
<speed>3.0</speed>
<temp>0.00</temp>
<bpm>0</bpm>
<rpm>0.00</rpm>
</extensions>
</trkpt>
<trkpt lat="63.879482269" lon="-21.225406647">
<ele>12.550049</ele>
<time>2012-07-27T19:21:28Z</time>
<speed>4.070000</speed>
<extensions>
<speed>4.1</speed>
<temp>0.00</temp>
<bpm>0</bpm>
<rpm>0.00</rpm>
</extensions>
</trkpt>
<trkpt lat="63.879577637" lon="-21.225793839">
<ele>11.972412</ele>
<time>2012-07-27T19:21:33Z</time>
<speed>4.320000</speed>
<extensions>
<speed>4.3</speed>
<temp>0.00</temp>
<bpm>0</bpm>
<rpm>0.00</rpm>
</extensions>
</trkpt>
<trkpt lat="63.879665375" lon="-21.226200104">
<ele>11.974365</ele>
<time>2012-07-27T19:21:38Z</time>
<speed>4.430000</speed>
<extensions>
<speed>4.4</speed>
<temp>0.00</temp>
<bpm>0</bpm>
<rpm>0.00</rpm>
</extensions>
</trkpt>
<trkpt lat="63.879753113" lon="-21.226615906">
<ele>12.049072</ele>
<time>2012-07-27T19:21:43Z</time>
<speed>4.670000</speed>
<extensions>
<speed>4.7</speed>
<temp>0.00</temp>
<bpm>0</bpm>
<rpm>0.00</rpm>
</extensions>
</trkpt>
<trkpt lat="63.879837036" lon="-21.227064133">
<ele>11.828613</ele>
<time>2012-07-27T19:21:48Z</time>
<speed>4.490000</speed>
<extensions>
<speed>4.5</speed>
<temp>0.00</temp>
<bpm>0</bpm>
<rpm>0.00</rpm>
</extensions>
</trkpt>
<trkpt lat="63.879905701" lon="-21.227426529">
<ele>11.244629</ele>
<time>2012-07-27T19:21:53Z</time>
<speed>3.220000</speed>
<extensions>
<speed>3.2</speed>
<temp>0.00</temp>
<bpm>0</bpm>
<rpm>0.00</rpm>
</extensions>
</trkpt>
<trkpt lat="63.879955292" lon="-21.227684021">
<ele>10.851318</ele>
<time>2012-07-27T19:21:58Z</time>
<speed>2.270000</speed>
<extensions>
<speed>2.3</speed>
<temp>0.00</temp>
<bpm>0</bpm>
<rpm>0.00</rpm>
</extensions>
</trkpt>
<trkpt lat="63.879985809" lon="-21.227928162">
<ele>10.593506</ele>
<time>2012-07-27T19:22:03Z</time>
<speed>3.390000</speed>
<extensions>
<speed>3.4</speed>
<temp>0.00</temp>
<bpm>0</bpm>
<rpm>0.00</rpm>
</extensions>
</trkpt>
<trkpt lat="63.880027771" lon="-21.228277206">
<ele>9.566895</ele>
<time>2012-07-27T19:22:08Z</time>
<speed>3.490000</speed>
<extensions>
<speed>3.5</speed>
<temp>0.00</temp>
<bpm>0</bpm>
<rpm>0.00</rpm>
</extensions>
</trkpt>
<trkpt lat="63.880081177" lon="-21.228588104">
<ele>9.667236</ele>
<time>2012-07-27T19:22:13Z</time>
<speed>2.750000</speed>
<extensions>
<speed>2.7</speed>
<temp>0.00</temp>
<bpm>0</bpm>
<rpm>0.00</rpm>
</extensions>
</trkpt>
<trkpt lat="63.880115509" lon="-21.228815079">
<ele>10.140625</ele>
<time>2012-07-27T19:22:18Z</time>
<speed>2.120000</speed>
<extensions>
<speed>2.1</speed>
<temp>0.00</temp>
<bpm>0</bpm>
<rpm>0.00</rpm>
</extensions>
</trkpt>
<trkpt lat="63.880146027" lon="-21.228960037">
<ele>10.771729</ele>
<time>2012-07-27T19:22:23Z</time>
<speed>1.350000</speed>
<extensions>
<speed>1.4</speed>
<temp>0.00</temp>
<bpm>0</bpm>
<rpm>0.00</rpm>
</extensions>
</trkpt>
<trkpt lat="63.880168915" lon="-21.229084015">
<ele>11.478027</ele>
<time>2012-07-27T19:22:28Z</time>
<speed>1.500000</speed>
<extensions>
<speed>1.5</speed>
<temp>0.00</temp>
<bpm>0</bpm>
<rpm>0.00</rpm>
</extensions>
</trkpt>
<trkpt lat="63.880199432" lon="-21.229249954">
<ele>12.127686</ele>
<time>2012-07-27T19:22:33Z</time>
<speed>2.510000</speed>
<extensions>
<speed>2.5</speed>
<temp>0.00</temp>
<bpm>0</bpm>
<rpm>0.00</rpm>
</extensions>
</trkpt>
<trkpt lat="63.880252838" lon="-21.229516983">
<ele>11.944336</ele>
<time>2012-07-27T19:22:38Z</time>
<speed>3.000000</speed>
<extensions>
<speed>3.0</speed>
<temp>0.00</temp>
<bpm>0</bpm>
<rpm>0.00</rpm>
</extensions>
</trkpt>
<trkpt lat="63.880298615" lon="-21.229732513">
<ele>11.963623</ele>
<time>2012-07-27T19:22:43Z</time>
<speed>1.810000</speed>
<extensions>
<speed>1.8</speed>
<temp>0.00</temp>
<bpm>0</bpm>
<rpm>0.00</rpm>
</extensions>
</trkpt>
<trkpt lat="63.880329132" lon="-21.229915619">
<ele>11.798584</ele>
<time>2012-07-27T19:22:48Z</time>
<speed>2.490000</speed>
<extensions>
<speed>2.5</speed>
<temp>0.00</temp>
<bpm>0</bpm>
<rpm>0.00</rpm>
</extensions>
</trkpt>
<trkpt lat="63.880378723" lon="-21.230184555">
<ele>12.407959</ele>
<time>2012-07-27T19:22:53Z</time>
<speed>2.790000</speed>
<extensions>
<speed>2.8</speed>
<temp>0.00</temp>
<bpm>0</bpm>
<rpm>0.00</rpm>
</extensions>
</trkpt>
<trkpt lat="63.880416870" lon="-21.230430603">
<ele>12.418701</ele>
<time>2012-07-27T19:22:58Z</time>
<speed>2.690000</speed>
<extensions>
<speed>2.7</speed>
<temp>0.00</temp>
<bpm>0</bpm>
<rpm>0.00</rpm>
</extensions>
</trkpt>
<trkpt lat="63.880458832" lon="-21.230690002">
<ele>12.598633</ele>
<time>2012-07-27T19:23:03Z</time>
<speed>2.640000</speed>
<extensions>
<speed>2.6</speed>
<temp>0.00</temp>
<bpm>0</bpm>
<rpm>0.00</rpm>
</extensions>
</trkpt>
<trkpt lat="63.880504608" lon="-21.230957031">
<ele>12.540283</ele>
<time>2012-07-27T19:23:08Z</time>
<speed>2.780000</speed>
<extensions>
<speed>2.8</speed>
<temp>0.00</temp>
<bpm>0</bpm>
<rpm>0.00</rpm>
</extensions>
</trkpt>
<trkpt lat="63.880546570" lon="-21.231222153">
<ele>12.625732</ele>
<time>2012-07-27T19:23:13Z</time>
<speed>2.780000</speed>
<extensions>
<speed>2.8</speed>
<temp>0.00</temp>
<bpm>0</bpm>
<rpm>0.00</rpm>
</extensions>
</trkpt>
<trkpt lat="63.880588531" lon="-21.231510162">
<ele>12.982422</ele>
<time>2012-07-27T19:23:18Z</time>
<speed>3.010000</speed>
<extensions>
<speed>3.0</speed>
<temp>0.00</temp>
<bpm>0</bpm>
<rpm>0.00</rpm>
</extensions>
</trkpt>
<trkpt lat="63.880622864" lon="-21.231744766">
<ele>12.838379</ele>
<time>2012-07-27T19:23:23Z</time>
<speed>1.900000</speed>
<extensions>
<speed>1.9</speed>
<temp>0.00</temp>
<bpm>0</bpm>
<rpm>0.00</rpm>
</extensions>
</trkpt>
<trkpt lat="63.880653381" lon="-21.231912613">
<ele>13.095703</ele>
<time>2012-07-27T19:23:28Z</time>
<speed>2.130000</speed>
<extensions>
<speed>2.1</speed>
<temp>0.00</temp>
<bpm>0</bpm>
<rpm>0.00</rpm>
</extensions>
</trkpt>
<trkpt lat="63.880695343" lon="-21.232156754">
<ele>12.665527</ele>
<time>2012-07-27T19:23:33Z</time>
<speed>3.200000</speed>
<extensions>
<speed>3.2</speed>
<temp>0.00</temp>
<bpm>0</bpm>
<rpm>0.00</rpm>
</extensions>
</trkpt>
<trkpt lat="63.880748749" lon="-21.232475281">
<ele>12.085449</ele>
<time>2012-07-27T19:23:38Z</time>
<speed>3.420000</speed>
<extensions>
<speed>3.4</speed>
<temp>0.00</temp>
<bpm>0</bpm>
<rpm>0.00</rpm>
</extensions>
</trkpt>
<trkpt lat="63.880813599" lon="-21.232826233">
<ele>12.134277</ele>
<time>2012-07-27T19:23:43Z</time>
<speed>4.170000</speed>
<extensions>
<speed>4.2</speed>
<temp>0.00</temp>
<bpm>0</bpm>
<rpm>0.00</rpm>
</extensions>
</trkpt>
<trkpt lat="63.880886078" lon="-21.233236313">
<ele>12.139160</ele>
<time>2012-07-27T19:23:48Z</time>
<speed>4.500000</speed>
<extensions>
<speed>4.5</speed>
<temp>0.00</temp>
<bpm>0</bpm>
<rpm>0.00</rpm>
</extensions>
</trkpt>
<trkpt lat="63.880966187" lon="-21.233667374">
<ele>11.573730</ele>
<time>2012-07-27T19:23:53Z</time>
<speed>4.610000</speed>
<extensions>
<speed>4.6</speed>
<temp>0.00</temp>
<bpm>0</bpm>
<rpm>0.00</rpm>
</extensions>
</trkpt>
<trkpt lat="63.881038666" lon="-21.234104156">
<ele>11.705322</ele>
<time>2012-07-27T19:23:58Z</time>
<speed>4.660000</speed>
<extensions>
<speed>4.7</speed>
<temp>0.00</temp>
<bpm>0</bpm>
<rpm>0.00</rpm>
</extensions>
</trkpt>
<trkpt lat="63.881118774" lon="-21.234544754">
<ele>11.426025</ele>
<time>2012-07-27T19:24:03Z</time>
<speed>4.730000</speed>
<extensions>
<speed>4.7</speed>
<temp>0.00</temp>
<bpm>0</bpm>
<rpm>0.00</rpm>
</extensions>
</trkpt>
<trkpt lat="63.881187439" lon="-21.234987259">
<ele>11.722900</ele>
<time>2012-07-27T19:24:08Z</time>
<speed>4.600000</speed>
<extensions>
<speed>4.6</speed>
<temp>0.00</temp>
<bpm>0</bpm>
<rpm>0.00</rpm>
</extensions>
</trkpt>
<trkpt lat="63.881267548" lon="-21.235420227">
<ele>11.418457</ele>
<time>2012-07-27T19:24:13Z</time>
<speed>4.850000</speed>
<extensions>
<speed>4.8</speed>
<temp>0.00</temp>
<bpm>0</bpm>
<rpm>0.00</rpm>
</extensions>
</trkpt>
<trkpt lat="63.881343842" lon="-21.235813141">
<ele>11.120850</ele>
<time>2012-07-27T19:24:18Z</time>
<speed>3.790000</speed>
<extensions>
<speed>3.8</speed>
<temp>0.00</temp>
<bpm>0</bpm>
<rpm>0.00</rpm>
</extensions>
</trkpt>
<trkpt lat="63.881412506" lon="-21.236234665">
<ele>10.908203</ele>
<time>2012-07-27T19:24:23Z</time>
<speed>4.860000</speed>
<extensions>
<speed>4.9</speed>
<temp>0.00</temp>
<bpm>0</bpm>
<rpm>0.00</rpm>
</extensions>
</trkpt>
<trkpt lat="63.881500244" lon="-21.236700058">
<ele>10.553223</ele>
<time>2012-07-27T19:24:28Z</time>
<speed>4.920000</speed>
<extensions>
<speed>4.9</speed>
<temp>0.00</temp>
<bpm>0</bpm>
<rpm>0.00</rpm>
</extensions>
</trkpt>
<trkpt lat="63.881584167" lon="-21.237161636">
<ele>10.224121</ele>
<time>2012-07-27T19:24:33Z</time>
<speed>4.860000</speed>
<extensions>
<speed>4.9</speed>
<temp>0.00</temp>
<bpm>0</bpm>
<rpm>0.00</rpm>
</extensions>
</trkpt>
<trkpt lat="63.881664276" lon="-21.237609863">
<ele>10.607910</ele>
<time>2012-07-27T19:24:38Z</time>
<speed>4.880000</speed>
<extensions>
<speed>4.9</speed>
<temp>0.00</temp>
<bpm>0</bpm>
<rpm>0.00</rpm>
</extensions>
</trkpt>
<trkpt lat="63.881752014" lon="-21.238069534">
<ele>10.345703</ele>
<time>2012-07-27T19:24:43Z</time>
<speed>4.820000</speed>
<extensions>
<speed>4.8</speed>
<temp>0.00</temp>
<bpm>0</bpm>
<rpm>0.00</rpm>
</extensions>
</trkpt>
<trkpt lat="63.881835938" lon="-21.238531113">
<ele>10.529297</ele>
<time>2012-07-27T19:24:48Z</time>
<speed>4.790000</speed>
<extensions>
<speed>4.8</speed>
<temp>0.00</temp>
<bpm>0</bpm>
<rpm>0.00</rpm>
</extensions>
</trkpt>
<trkpt lat="63.881923676" lon="-21.238983154">
<ele>10.671143</ele>
<time>2012-07-27T19:24:53Z</time>
<speed>4.910000</speed>
<extensions>
<speed>4.9</speed>
<temp>0.00</temp>
<bpm>0</bpm>
<rpm>0.00</rpm>
</extensions>
</trkpt>
<trkpt lat="63.882003784" lon="-21.239435196">
<ele>10.748047</ele>
<time>2012-07-27T19:24:58Z</time>
<speed>4.890000</speed>
<extensions>
<speed>4.9</speed>
<temp>0.00</temp>
<bpm>0</bpm>
<rpm>0.00</rpm>
</extensions>
</trkpt>
<trkpt lat="63.882087708" lon="-21.239877701">
<ele>11.596436</ele>
<time>2012-07-27T19:25:03Z</time>
<speed>4.860000</speed>
<extensions>
<speed>4.9</speed>
<temp>0.00</temp>
<bpm>0</bpm>
<rpm>0.00</rpm>
</extensions>
</trkpt>
<trkpt lat="63.882171631" lon="-21.240322113">
<ele>12.011963</ele>
<time>2012-07-27T19:25:08Z</time>
<speed>4.910000</speed>
<extensions>
<speed>4.9</speed>
<temp>0.00</temp>
<bpm>0</bpm>
<rpm>0.00</rpm>
</extensions>
</trkpt>
<trkpt lat="63.882259369" lon="-21.240768433">
<ele>12.154785</ele>
<time>2012-07-27T19:25:13Z</time>
<speed>4.060000</speed>
<extensions>
<speed>4.1</speed>
<temp>0.00</temp>
<bpm>0</bpm>
<rpm>0.00</rpm>
</extensions>
</trkpt>
<trkpt lat="63.882335663" lon="-21.241151810">
<ele>12.342773</ele>
<time>2012-07-27T19:25:18Z</time>
<speed>4.560000</speed>
<extensions>
<speed>4.6</speed>
<temp>0.00</temp>
<bpm>0</bpm>
<rpm>0.00</rpm>
</extensions>
</trkpt>
<trkpt lat="63.882423401" lon="-21.241590500">
<ele>12.497314</ele>
<time>2012-07-27T19:25:23Z</time>
<speed>4.910000</speed>
<extensions>
<speed>4.9</speed>
<temp>0.00</temp>
<bpm>0</bpm>
<rpm>0.00</rpm>
</extensions>
</trkpt>
<trkpt lat="63.882514954" lon="-21.242059708">
<ele>12.324707</ele>
<time>2012-07-27T19:25:28Z</time>
<speed>5.210000</speed>
<extensions>
<speed>5.2</speed>
<temp>0.00</temp>
<bpm>0</bpm>
<rpm>0.00</rpm>
</extensions>
</trkpt>
<trkpt lat="63.882602692" lon="-21.242479324">
<ele>12.060547</ele>
<time>2012-07-27T19:25:33Z</time>
<speed>4.550000</speed>
<extensions>
<speed>4.5</speed>
<temp>0.00</temp>
<bpm>0</bpm>
<rpm>0.00</rpm>
</extensions>
</trkpt>
<trkpt lat="63.882698059" lon="-21.242948532">
<ele>11.695068</ele>
<time>2012-07-27T19:25:38Z</time>
<speed>4.900000</speed>
<extensions>
<speed>4.9</speed>
<temp>0.00</temp>
<bpm>0</bpm>
<rpm>0.00</rpm>
</extensions>
</trkpt>
<trkpt lat="63.882785797" lon="-21.243370056">
<ele>12.736816</ele>
<time>2012-07-27T19:25:43Z</time>
<speed>4.770000</speed>
<extensions>
<speed>4.8</speed>
<temp>0.00</temp>
<bpm>0</bpm>
<rpm>0.00</rpm>
</extensions>
</trkpt>
<trkpt lat="63.882873535" lon="-21.243820190">
<ele>12.719238</ele>
<time>2012-07-27T19:25:48Z</time>
<speed>5.130000</speed>
<extensions>
<speed>5.1</speed>
<temp>0.00</temp>
<bpm>0</bpm>
<rpm>0.00</rpm>
</extensions>
</trkpt>
<trkpt lat="63.882968903" lon="-21.244310379">
<ele>12.890869</ele>
<time>2012-07-27T19:25:53Z</time>
<speed>5.030000</speed>
<extensions>
<speed>5.0</speed>
<temp>0.00</temp>
<bpm>0</bpm>
<rpm>0.00</rpm>
</extensions>
</trkpt>
<trkpt lat="63.883052826" lon="-21.244720459">
<ele>12.890869</ele>
<time>2012-07-27T19:25:58Z</time>
<speed>4.410000</speed>
<extensions>
<speed>4.4</speed>
<temp>0.00</temp>
<bpm>0</bpm>
<rpm>0.00</rpm>
</extensions>
</trkpt>
<trkpt lat="63.883136749" lon="-21.245153427">
<ele>12.721680</ele>
<time>2012-07-27T19:26:03Z</time>
<speed>4.850000</speed>
<extensions>
<speed>4.8</speed>
<temp>0.00</temp>
<bpm>0</bpm>
<rpm>0.00</rpm>
</extensions>
</trkpt>
<trkpt lat="63.883228302" lon="-21.245586395">
<ele>12.947266</ele>
<time>2012-07-27T19:26:08Z</time>
<speed>3.980000</speed>
<extensions>
<speed>4.0</speed>
<temp>0.00</temp>
<bpm>0</bpm>
<rpm>0.00</rpm>
</extensions>
</trkpt>
<trkpt lat="63.883281708" lon="-21.245834351">
<ele>12.336182</ele>
<time>2012-07-27T19:26:13Z</time>
<speed>1.850000</speed>
<extensions>
<speed>1.8</speed>
<temp>0.00</temp>
<bpm>0</bpm>
<rpm>0.00</rpm>
</extensions>
</trkpt>
<trkpt lat="63.883308411" lon="-21.245965958">
<ele>11.898926</ele>
<time>2012-07-27T19:26:18Z</time>
<speed>2.290000</speed>
<extensions>
<speed>2.3</speed>
<temp>0.00</temp>
<bpm>0</bpm>
<rpm>0.00</rpm>
</extensions>
</trkpt>
<trkpt lat="63.883377075" lon="-21.246253967">
<ele>11.957031</ele>
<time>2012-07-27T19:26:23Z</time>
<speed>3.900000</speed>
<extensions>
<speed>3.9</speed>
<temp>0.00</temp>
<bpm>0</bpm>
<rpm>0.00</rpm>
</extensions>
</trkpt>
<trkpt lat="63.883453369" lon="-21.246639252">
<ele>12.294678</ele>
<time>2012-07-27T19:26:28Z</time>
<speed>4.060000</speed>
<extensions>
<speed>4.1</speed>
<temp>0.00</temp>
<bpm>0</bpm>
<rpm>0.00</rpm>
</extensions>
</trkpt>
<trkpt lat="63.883541107" lon="-21.247049332">
<ele>12.197021</ele>
<time>2012-07-27T19:26:33Z</time>
<speed>4.730000</speed>
<extensions>
<speed>4.7</speed>
<temp>0.00</temp>
<bpm>0</bpm>
<rpm>0.00</rpm>
</extensions>
</trkpt>
<trkpt lat="63.883632660" lon="-21.247482300">
<ele>12.511963</ele>
<time>2012-07-27T19:26:38Z</time>
<speed>4.380000</speed>
<extensions>
<speed>4.4</speed>
<temp>0.00</temp>
<bpm>0</bpm>
<rpm>0.00</rpm>
</extensions>
</trkpt>
<trkpt lat="63.883720398" lon="-21.247888565">
<ele>11.945557</ele>
<time>2012-07-27T19:26:43Z</time>
<speed>4.590000</speed>
<extensions>
<speed>4.6</speed>
<temp>0.00</temp>
<bpm>0</bpm>
<rpm>0.00</rpm>
</extensions>
</trkpt>
<trkpt lat="63.883815765" lon="-21.248327255">
<ele>11.964111</ele>
<time>2012-07-27T19:26:48Z</time>
<speed>4.980000</speed>
<extensions>
<speed>5.0</speed>
<temp>0.00</temp>
<bpm>0</bpm>
<rpm>0.00</rpm>
</extensions>
</trkpt>
<trkpt lat="63.883895874" lon="-21.248691559">
<ele>11.627930</ele>
<time>2012-07-27T19:26:53Z</time>
<speed>3.040000</speed>
<extensions>
<speed>3.0</speed>
<temp>0.00</temp>
<bpm>0</bpm>
<rpm>0.00</rpm>
</extensions>
</trkpt>
<trkpt lat="63.883972168" lon="-21.249052048">
<ele>11.403809</ele>
<time>2012-07-27T19:26:58Z</time>
<speed>4.130000</speed>
<extensions>
<speed>4.1</speed>
<temp>0.00</temp>
<bpm>0</bpm>
<rpm>0.00</rpm>
</extensions>
</trkpt>
<trkpt lat="63.884048462" lon="-21.249427795">
<ele>11.770264</ele>
<time>2012-07-27T19:27:03Z</time>
<speed>4.010000</speed>
<extensions>
<speed>4.0</speed>
<temp>0.00</temp>
<bpm>0</bpm>
<rpm>0.00</rpm>
</extensions>
</trkpt>
<trkpt lat="63.884128571" lon="-21.249801636">
<ele>12.320313</ele>
<time>2012-07-27T19:27:08Z</time>
<speed>4.140000</speed>
<extensions>
<speed>4.1</speed>
<temp>0.00</temp>
<bpm>0</bpm>
<rpm>0.00</rpm>
</extensions>
</trkpt>
<trkpt lat="63.884216309" lon="-21.250190735">
<ele>12.418701</ele>
<time>2012-07-27T19:27:13Z</time>
<speed>4.580000</speed>
<extensions>
<speed>4.6</speed>
<temp>0.00</temp>
<bpm>0</bpm>
<rpm>0.00</rpm>
</extensions>
</trkpt>
<trkpt lat="63.884304047" lon="-21.250621796">
<ele>12.597412</ele>
<time>2012-07-27T19:27:18Z</time>
<speed>4.700000</speed>
<extensions>
<speed>4.7</speed>
<temp>0.00</temp>
<bpm>0</bpm>
<rpm>0.00</rpm>
</extensions>
</trkpt>
<trkpt lat="63.884395599" lon="-21.251043320">
<ele>12.418457</ele>
<time>2012-07-27T19:27:23Z</time>
<speed>4.900000</speed>
<extensions>
<speed>4.9</speed>
<temp>0.00</temp>
<bpm>0</bpm>
<rpm>0.00</rpm>
</extensions>
</trkpt>
<trkpt lat="63.884483337" lon="-21.251476288">
<ele>11.986084</ele>
<time>2012-07-27T19:27:28Z</time>
<speed>3.980000</speed>
<extensions>
<speed>4.0</speed>
<temp>0.00</temp>
<bpm>0</bpm>
<rpm>0.00</rpm>
</extensions>
</trkpt>
<trkpt lat="63.884548187" lon="-21.251760483">
<ele>11.749268</ele>
<time>2012-07-27T19:27:33Z</time>
<speed>2.460000</speed>
<extensions>
<speed>2.5</speed>
<temp>0.00</temp>
<bpm>0</bpm>
<rpm>0.00</rpm>
</extensions>
</trkpt>
<trkpt lat="63.884590149" lon="-21.251953125">
<ele>11.668213</ele>
<time>2012-07-27T19:27:38Z</time>
<speed>2.170000</speed>
<extensions>
<speed>2.2</speed>
<temp>0.00</temp>
<bpm>0</bpm>
<rpm>0.00</rpm>
</extensions>
</trkpt>
<trkpt lat="63.884643555" lon="-21.252218246">
<ele>11.375732</ele>
<time>2012-07-27T19:27:43Z</time>
<speed>3.220000</speed>
<extensions>
<speed>3.2</speed>
<temp>0.00</temp>
<bpm>0</bpm>
<rpm>0.00</rpm>
</extensions>
</trkpt>
<trkpt lat="63.884712219" lon="-21.252540588">
<ele>11.292725</ele>
<time>2012-07-27T19:27:48Z</time>
<speed>3.530000</speed>
<extensions>
<speed>3.5</speed>
<temp>0.00</temp>
<bpm>0</bpm>
<rpm>0.00</rpm>
</extensions>
</trkpt>
<trkpt lat="63.884784698" lon="-21.252885818">
<ele>11.389160</ele>
<time>2012-07-27T19:27:53Z</time>
<speed>3.990000</speed>
<extensions>
<speed>4.0</speed>
<temp>0.00</temp>
<bpm>0</bpm>
<rpm>0.00</rpm>
</extensions>
</trkpt>
<trkpt lat="63.884853363" lon="-21.253273010">
<ele>11.186279</ele>
<time>2012-07-27T19:27:58Z</time>
<speed>4.390000</speed>
<extensions>
<speed>4.4</speed>
<temp>0.00</temp>
<bpm>0</bpm>
<rpm>0.00</rpm>
</extensions>
</trkpt>
<trkpt lat="63.884933472" lon="-21.253723145">
<ele>11.441162</ele>
<time>2012-07-27T19:28:03Z</time>
<speed>4.870000</speed>
<extensions>
<speed>4.9</speed>
<temp>0.00</temp>
<bpm>0</bpm>
<rpm>0.00</rpm>
</extensions>
</trkpt>
<trkpt lat="63.885013580" lon="-21.254207611">
<ele>11.538574</ele>
<time>2012-07-27T19:28:08Z</time>
<speed>4.550000</speed>
<extensions>
<speed>4.5</speed>
<temp>0.00</temp>
<bpm>0</bpm>
<rpm>0.00</rpm>
</extensions>
</trkpt>
<trkpt lat="63.885101318" lon="-21.254629135">
<ele>11.606445</ele>
<time>2012-07-27T19:28:13Z</time>
<speed>4.820000</speed>
<extensions>
<speed>4.8</speed>
<temp>0.00</temp>
<bpm>0</bpm>
<rpm>0.00</rpm>
</extensions>
</trkpt>
<trkpt lat="63.885177612" lon="-21.255107880">
<ele>11.691406</ele>
<time>2012-07-27T19:28:18Z</time>
<speed>4.870000</speed>
<extensions>
<speed>4.9</speed>
<temp>0.00</temp>
<bpm>0</bpm>
<rpm>0.00</rpm>
</extensions>
</trkpt>
<trkpt lat="63.885253906" lon="-21.255556107">
<ele>11.746826</ele>
<time>2012-07-27T19:28:23Z</time>
<speed>4.710000</speed>
<extensions>
<speed>4.7</speed>
<temp>0.00</temp>
<bpm>0</bpm>
<rpm>0.00</rpm>
</extensions>
</trkpt>
<trkpt lat="63.885330200" lon="-21.256027222">
<ele>11.863770</ele>
<time>2012-07-27T19:28:28Z</time>
<speed>5.000000</speed>
<extensions>
<speed>5.0</speed>
<temp>0.00</temp>
<bpm>0</bpm>
<rpm>0.00</rpm>
</extensions>
</trkpt>
<trkpt lat="63.885417938" lon="-21.256507874">
<ele>11.991699</ele>
<time>2012-07-27T19:28:33Z</time>
<speed>4.660000</speed>
<extensions>
<speed>4.7</speed>
<temp>0.00</temp>
<bpm>0</bpm>
<rpm>0.00</rpm>
</extensions>
</trkpt>
<trkpt lat="63.885490417" lon="-21.256921768">
<ele>11.749023</ele>
<time>2012-07-27T19:28:38Z</time>
<speed>4.540000</speed>
<extensions>
<speed>4.5</speed>
<temp>0.00</temp>
<bpm>0</bpm>
<rpm>0.00</rpm>
</extensions>
</trkpt>
<trkpt lat="63.885555267" lon="-21.257369995">
<ele>11.777344</ele>
<time>2012-07-27T19:28:43Z</time>
<speed>4.850000</speed>
<extensions>
<speed>4.8</speed>
<temp>0.00</temp>
<bpm>0</bpm>
<rpm>0.00</rpm>
</extensions>
</trkpt>
<trkpt lat="63.885616302" lon="-21.257823944">
<ele>11.559326</ele>
<time>2012-07-27T19:28:48Z</time>
<speed>4.040000</speed>
<extensions>
<speed>4.0</speed>
<temp>0.00</temp>
<bpm>0</bpm>
<rpm>0.00</rpm>
</extensions>
</trkpt>
<trkpt lat="63.885681152" lon="-21.258205414">
<ele>11.542480</ele>
<time>2012-07-27T19:28:53Z</time>
<speed>4.450000</speed>
<extensions>
<speed>4.5</speed>
<temp>0.00</temp>
<bpm>0</bpm>
<rpm>0.00</rpm>
</extensions>
</trkpt>
<trkpt lat="63.885746002" lon="-21.258676529">
<ele>11.533691</ele>
<time>2012-07-27T19:28:58Z</time>
<speed>5.140000</speed>
<extensions>
<speed>5.1</speed>
<temp>0.00</temp>
<bpm>0</bpm>
<rpm>0.00</rpm>
</extensions>
</trkpt>
<trkpt lat="63.885814667" lon="-21.259170532">
<ele>11.262451</ele>
<time>2012-07-27T19:29:03Z</time>
<speed>5.110000</speed>
<extensions>
<speed>5.1</speed>
<temp>0.00</temp>
<bpm>0</bpm>
<rpm>0.00</rpm>
</extensions>
</trkpt>
<trkpt lat="63.885875702" lon="-21.259641647">
<ele>11.148682</ele>
<time>2012-07-27T19:29:08Z</time>
<speed>4.160000</speed>
<extensions>
<speed>4.2</speed>
<temp>0.00</temp>
<bpm>0</bpm>
<rpm>0.00</rpm>
</extensions>
</trkpt>
<trkpt lat="63.885936737" lon="-21.260065079">
<ele>11.325195</ele>
<time>2012-07-27T19:29:13Z</time>
<speed>4.700000</speed>
<extensions>
<speed>4.7</speed>
<temp>0.00</temp>
<bpm>0</bpm>
<rpm>0.00</rpm>
</extensions>
</trkpt>
<trkpt lat="63.885997772" lon="-21.260545731">
<ele>11.262451</ele>
<time>2012-07-27T19:29:18Z</time>
<speed>5.020000</speed>
<extensions>
<speed>5.0</speed>
<temp>0.00</temp>
<bpm>0</bpm>
<rpm>0.00</rpm>
</extensions>
</trkpt>
<trkpt lat="63.886062622" lon="-21.261058807">
<ele>10.871582</ele>
<time>2012-07-27T19:29:23Z</time>
<speed>5.070000</speed>
<extensions>
<speed>5.1</speed>
<temp>0.00</temp>
<bpm>0</bpm>
<rpm>0.00</rpm>
</extensions>
</trkpt>
<trkpt lat="63.886116028" lon="-21.261493683">
<ele>10.665039</ele>
<time>2012-07-27T19:29:28Z</time>
<speed>3.860000</speed>
<extensions>
<speed>3.9</speed>
<temp>0.00</temp>
<bpm>0</bpm>
<rpm>0.00</rpm>
</extensions>
</trkpt>
<trkpt lat="63.886154175" lon="-21.261831284">
<ele>10.385986</ele>
<time>2012-07-27T19:29:33Z</time>
<speed>3.420000</speed>
<extensions>
<speed>3.4</speed>
<temp>0.00</temp>
<bpm>0</bpm>
<rpm>0.00</rpm>
</extensions>
</trkpt>
<trkpt lat="63.886203766" lon="-21.262187958">
<ele>10.037842</ele>
<time>2012-07-27T19:29:38Z</time>
<speed>4.160000</speed>
<extensions>
<speed>4.2</speed>
<temp>0.00</temp>
<bpm>0</bpm>
<rpm>0.00</rpm>
</extensions>
</trkpt>
<trkpt lat="63.886245728" lon="-21.262634277">
<ele>10.104004</ele>
<time>2012-07-27T19:29:43Z</time>
<speed>4.630000</speed>
<extensions>
<speed>4.6</speed>
<temp>0.00</temp>
<bpm>0</bpm>
<rpm>0.00</rpm>
</extensions>
</trkpt>
<trkpt lat="63.886295319" lon="-21.263107300">
<ele>9.780029</ele>
<time>2012-07-27T19:29:48Z</time>
<speed>4.740000</speed>
<extensions>
<speed>4.7</speed>
<temp>0.00</temp>
<bpm>0</bpm>
<rpm>0.00</rpm>
</extensions>
</trkpt>
<trkpt lat="63.886337280" lon="-21.263580322">
<ele>10.005371</ele>
<time>2012-07-27T19:29:53Z</time>
<speed>4.900000</speed>
<extensions>
<speed>4.9</speed>
<temp>0.00</temp>
<bpm>0</bpm>
<rpm>0.00</rpm>
</extensions>
</trkpt>
<trkpt lat="63.886386871" lon="-21.264068604">
<ele>10.143066</ele>
<time>2012-07-27T19:29:58Z</time>
<speed>4.960000</speed>
<extensions>
<speed>5.0</speed>
<temp>0.00</temp>
<bpm>0</bpm>
<rpm>0.00</rpm>
</extensions>
</trkpt>
<trkpt lat="63.886432648" lon="-21.264566422">
<ele>10.416748</ele>
<time>2012-07-27T19:30:03Z</time>
<speed>4.960000</speed>
<extensions>
<speed>5.0</speed>
<temp>0.00</temp>
<bpm>0</bpm>
<rpm>0.00</rpm>
</extensions>
</trkpt>
<trkpt lat="63.886486053" lon="-21.265073776">
<ele>10.388916</ele>
<time>2012-07-27T19:30:08Z</time>
<speed>5.000000</speed>
<extensions>
<speed>5.0</speed>
<temp>0.00</temp>
<bpm>0</bpm>
<rpm>0.00</rpm>
</extensions>
</trkpt>
<trkpt lat="63.886531830" lon="-21.265581131">
<ele>10.796631</ele>
<time>2012-07-27T19:30:13Z</time>
<speed>5.210000</speed>
<extensions>
<speed>5.2</speed>
<temp>0.00</temp>
<bpm>0</bpm>
<rpm>0.00</rpm>
</extensions>
</trkpt>
<trkpt lat="63.886569977" lon="-21.266027451">
<ele>10.896973</ele>
<time>2012-07-27T19:30:18Z</time>
<speed>3.710000</speed>
<extensions>
<speed>3.7</speed>
<temp>0.00</temp>
<bpm>0</bpm>
<rpm>0.00</rpm>
</extensions>
</trkpt>
<trkpt lat="63.886596680" lon="-21.266355515">
<ele>10.927490</ele>
<time>2012-07-27T19:30:23Z</time>
<speed>3.350000</speed>
<extensions>
<speed>3.4</speed>
<temp>0.00</temp>
<bpm>0</bpm>
<rpm>0.00</rpm>
</extensions>
</trkpt>
<trkpt lat="63.886623383" lon="-21.266729355">
<ele>10.949707</ele>
<time>2012-07-27T19:30:28Z</time>
<speed>3.910000</speed>
<extensions>
<speed>3.9</speed>
<temp>0.00</temp>
<bpm>0</bpm>
<rpm>0.00</rpm>
</extensions>
</trkpt>
<trkpt lat="63.886657715" lon="-21.267152786">
<ele>11.121094</ele>
<time>2012-07-27T19:30:33Z</time>
<speed>4.370000</speed>
<extensions>
<speed>4.4</speed>
<temp>0.00</temp>
<bpm>0</bpm>
<rpm>0.00</rpm>
</extensions>
</trkpt>
<trkpt lat="63.886688232" lon="-21.267589569">
<ele>11.002441</ele>
<time>2012-07-27T19:30:38Z</time>
<speed>3.830000</speed>
<extensions>
<speed>3.8</speed>
<temp>0.00</temp>
<bpm>0</bpm>
<rpm>0.00</rpm>
</extensions>
</trkpt>
<trkpt lat="63.886714935" lon="-21.267955780">
<ele>11.000000</ele>
<time>2012-07-27T19:30:43Z</time>
<speed>3.980000</speed>
<extensions>
<speed>4.0</speed>
<temp>0.00</temp>
<bpm>0</bpm>
<rpm>0.00</rpm>
</extensions>
</trkpt>
<trkpt lat="63.886749268" lon="-21.268402100">
<ele>11.251221</ele>
<time>2012-07-27T19:30:48Z</time>
<speed>4.570000</speed>
<extensions>
<speed>4.6</speed>
<temp>0.00</temp>
<bpm>0</bpm>
<rpm>0.00</rpm>
</extensions>
</trkpt>
<trkpt lat="63.886772156" lon="-21.268831253">
<ele>11.423584</ele>
<time>2012-07-27T19:30:53Z</time>
<speed>3.740000</speed>
<extensions>
<speed>3.7</speed>
<temp>0.00</temp>
<bpm>0</bpm>
<rpm>0.00</rpm>
</extensions>
</trkpt>
<trkpt lat="63.886798859" lon="-21.269260406">
<ele>11.392578</ele>
<time>2012-07-27T19:30:58Z</time>
<speed>4.530000</speed>
<extensions>
<speed>4.5</speed>
<temp>0.00</temp>
<bpm>0</bpm>
<rpm>0.00</rpm>
</extensions>
</trkpt>
<trkpt lat="63.886825562" lon="-21.269723892">
<ele>11.651611</ele>
<time>2012-07-27T19:31:03Z</time>
<speed>4.970000</speed>
<extensions>
<speed>5.0</speed>
<temp>0.00</temp>
<bpm>0</bpm>
<rpm>0.00</rpm>
</extensions>
</trkpt>
<trkpt lat="63.886848450" lon="-21.270206451">
<ele>11.661133</ele>
<time>2012-07-27T19:31:08Z</time>
<speed>4.990000</speed>
<extensions>
<speed>5.0</speed>
<temp>0.00</temp>
<bpm>0</bpm>
<rpm>0.00</rpm>
</extensions>
</trkpt>
<trkpt lat="63.886867523" lon="-21.270723343">
<ele>11.780518</ele>
<time>2012-07-27T19:31:13Z</time>
<speed>4.910000</speed>
<extensions>
<speed>4.9</speed>
<temp>0.00</temp>
<bpm>0</bpm>
<rpm>0.00</rpm>
</extensions>
</trkpt>
<trkpt lat="63.886886597" lon="-21.271221161">
<ele>11.659180</ele>
<time>2012-07-27T19:31:18Z</time>
<speed>4.890000</speed>
<extensions>
<speed>4.9</speed>
<temp>0.00</temp>
<bpm>0</bpm>
<rpm>0.00</rpm>
</extensions>
</trkpt>
<trkpt lat="63.886913300" lon="-21.271743774">
<ele>11.824219</ele>
<time>2012-07-27T19:31:23Z</time>
<speed>5.190000</speed>
<extensions>
<speed>5.2</speed>
<temp>0.00</temp>
<bpm>0</bpm>
<rpm>0.00</rpm>
</extensions>
</trkpt>
<trkpt lat="63.886936188" lon="-21.272277832">
<ele>11.625000</ele>
<time>2012-07-27T19:31:28Z</time>
<speed>4.960000</speed>
<extensions>
<speed>5.0</speed>
<temp>0.00</temp>
<bpm>0</bpm>
<rpm>0.00</rpm>
</extensions>
</trkpt>
<trkpt lat="63.886959076" lon="-21.272724152">
<ele>11.920654</ele>
<time>2012-07-27T19:31:33Z</time>
<speed>4.530000</speed>
<extensions>
<speed>4.5</speed>
<temp>0.00</temp>
<bpm>0</bpm>
<rpm>0.00</rpm>
</extensions>
</trkpt>
<trkpt lat="63.886978149" lon="-21.273221970">
<ele>11.714355</ele>
<time>2012-07-27T19:31:38Z</time>
<speed>5.110000</speed>
<extensions>
<speed>5.1</speed>
<temp>0.00</temp>
<bpm>0</bpm>
<rpm>0.00</rpm>
</extensions>
</trkpt>
<trkpt lat="63.886997223" lon="-21.273746490">
<ele>11.832764</ele>
<time>2012-07-27T19:31:43Z</time>
<speed>5.120000</speed>
<extensions>
<speed>5.1</speed>
<temp>0.00</temp>
<bpm>0</bpm>
<rpm>0.00</rpm>
</extensions>
</trkpt>
<trkpt lat="63.887027740" lon="-21.274290085">
<ele>11.257324</ele>
<time>2012-07-27T19:31:48Z</time>
<speed>5.470000</speed>
<extensions>
<speed>5.5</speed>
<temp>0.00</temp>
<bpm>0</bpm>
<rpm>0.00</rpm>
</extensions>
</trkpt>
<trkpt lat="63.887050629" lon="-21.274759293">
<ele>11.273682</ele>
<time>2012-07-27T19:31:53Z</time>
<speed>3.920000</speed>
<extensions>
<speed>3.9</speed>
<temp>0.00</temp>
<bpm>0</bpm>
<rpm>0.00</rpm>
</extensions>
</trkpt>
<trkpt lat="63.887062073" lon="-21.275148392">
<ele>11.046875</ele>
<time>2012-07-27T19:31:58Z</time>
<speed>4.220000</speed>
<extensions>
<speed>4.2</speed>
<temp>0.00</temp>
<bpm>0</bpm>
<rpm>0.00</rpm>
</extensions>
</trkpt>
<trkpt lat="63.887088776" lon="-21.275604248">
<ele>10.940186</ele>
<time>2012-07-27T19:32:03Z</time>
<speed>4.780000</speed>
<extensions>
<speed>4.8</speed>
<temp>0.00</temp>
<bpm>0</bpm>
<rpm>0.00</rpm>
</extensions>
</trkpt>
<trkpt lat="63.887115479" lon="-21.276102066">
<ele>10.755127</ele>
<time>2012-07-27T19:32:08Z</time>
<speed>5.100000</speed>
<extensions>
<speed>5.1</speed>
<temp>0.00</temp>
<bpm>0</bpm>
<rpm>0.00</rpm>
</extensions>
</trkpt>
<trkpt lat="63.887145996" lon="-21.276638031">
<ele>10.857422</ele>
<time>2012-07-27T19:32:13Z</time>
<speed>5.410000</speed>
<extensions>
<speed>5.4</speed>
<temp>0.00</temp>
<bpm>0</bpm>
<rpm>0.00</rpm>
</extensions>
</trkpt>
<trkpt lat="63.887176514" lon="-21.277189255">
<ele>10.523438</ele>
<time>2012-07-27T19:32:18Z</time>
<speed>5.460000</speed>
<extensions>
<speed>5.5</speed>
<temp>0.00</temp>
<bpm>0</bpm>
<rpm>0.00</rpm>
</extensions>
</trkpt>
<trkpt lat="63.887203217" lon="-21.277681351">
<ele>10.087158</ele>
<time>2012-07-27T19:32:23Z</time>
<speed>4.440000</speed>
<extensions>
<speed>4.4</speed>
<temp>0.00</temp>
<bpm>0</bpm>
<rpm>0.00</rpm>
</extensions>
</trkpt>
<trkpt lat="63.887229919" lon="-21.278167725">
<ele>9.837891</ele>
<time>2012-07-27T19:32:28Z</time>
<speed>5.160000</speed>
<extensions>
<speed>5.2</speed>
<temp>0.00</temp>
<bpm>0</bpm>
<rpm>0.00</rpm>
</extensions>
</trkpt>
<trkpt lat="63.887264252" lon="-21.278720856">
<ele>9.942139</ele>
<time>2012-07-27T19:32:33Z</time>
<speed>5.520000</speed>
<extensions>
<speed>5.5</speed>
<temp>0.00</temp>
<bpm>0</bpm>
<rpm>0.00</rpm>
</extensions>
</trkpt>
<trkpt lat="63.887294769" lon="-21.279241562">
<ele>9.817627</ele>
<time>2012-07-27T19:32:38Z</time>
<speed>4.600000</speed>
<extensions>
<speed>4.6</speed>
<temp>0.00</temp>
<bpm>0</bpm>
<rpm>0.00</rpm>
</extensions>
</trkpt>
<trkpt lat="63.887321472" lon="-21.279699326">
<ele>9.801514</ele>
<time>2012-07-27T19:32:43Z</time>
<speed>4.710000</speed>
<extensions>
<speed>4.7</speed>
<temp>0.00</temp>
<bpm>0</bpm>
<rpm>0.00</rpm>
</extensions>
</trkpt>
<trkpt lat="63.887351990" lon="-21.280178070">
<ele>9.547119</ele>
<time>2012-07-27T19:32:48Z</time>
<speed>4.980000</speed>
<extensions>
<speed>5.0</speed>
<temp>0.00</temp>
<bpm>0</bpm>
<rpm>0.00</rpm>
</extensions>
</trkpt>
<trkpt lat="63.887390137" lon="-21.280691147">
<ele>9.521729</ele>
<time>2012-07-27T19:32:53Z</time>
<speed>5.200000</speed>
<extensions>
<speed>5.2</speed>
<temp>0.00</temp>
<bpm>0</bpm>
<rpm>0.00</rpm>
</extensions>
</trkpt>
<trkpt lat="63.887420654" lon="-21.281250000">
<ele>9.696289</ele>
<time>2012-07-27T19:32:58Z</time>
<speed>5.660000</speed>
<extensions>
<speed>5.7</speed>
<temp>0.00</temp>
<bpm>0</bpm>
<rpm>0.00</rpm>
</extensions>
</trkpt>
<trkpt lat="63.887454987" lon="-21.281742096">
<ele>9.412354</ele>
<time>2012-07-27T19:33:03Z</time>
<speed>4.210000</speed>
<extensions>
<speed>4.2</speed>
<temp>0.00</temp>
<bpm>0</bpm>
<rpm>0.00</rpm>
</extensions>
</trkpt>
<trkpt lat="63.887481689" lon="-21.282178879">
<ele>9.691162</ele>
<time>2012-07-27T19:33:08Z</time>
<speed>4.570000</speed>
<extensions>
<speed>4.6</speed>
<temp>0.00</temp>
<bpm>0</bpm>
<rpm>0.00</rpm>
</extensions>
</trkpt>
<trkpt lat="63.887519836" lon="-21.282661438">
<ele>9.521729</ele>
<time>2012-07-27T19:33:13Z</time>
<speed>4.990000</speed>
<extensions>
<speed>5.0</speed>
<temp>0.00</temp>
<bpm>0</bpm>
<rpm>0.00</rpm>
</extensions>
</trkpt>
<trkpt lat="63.887561798" lon="-21.283195496">
<ele>9.280029</ele>
<time>2012-07-27T19:33:18Z</time>
<speed>5.330000</speed>
<extensions>
<speed>5.3</speed>
<temp>0.00</temp>
<bpm>0</bpm>
<rpm>0.00</rpm>
</extensions>
</trkpt>
<trkpt lat="63.887596130" lon="-21.283683777">
<ele>9.222656</ele>
<time>2012-07-27T19:33:23Z</time>
<speed>4.150000</speed>
<extensions>
<speed>4.1</speed>
<temp>0.00</temp>
<bpm>0</bpm>
<rpm>0.00</rpm>
</extensions>
</trkpt>
<trkpt lat="63.887626648" lon="-21.284091949">
<ele>9.020020</ele>
<time>2012-07-27T19:33:28Z</time>
<speed>4.600000</speed>
<extensions>
<speed>4.6</speed>
<temp>0.00</temp>
<bpm>0</bpm>
<rpm>0.00</rpm>
</extensions>
</trkpt>
<trkpt lat="63.887660980" lon="-21.284589767">
<ele>8.867432</ele>
<time>2012-07-27T19:33:33Z</time>
<speed>5.220000</speed>
<extensions>
<speed>5.2</speed>
<temp>0.00</temp>
<bpm>0</bpm>
<rpm>0.00</rpm>
</extensions>
</trkpt>
<trkpt lat="63.887702942" lon="-21.285118103">
<ele>8.948242</ele>
<time>2012-07-27T19:33:38Z</time>
<speed>5.370000</speed>
<extensions>
<speed>5.4</speed>
<temp>0.00</temp>
<bpm>0</bpm>
<rpm>0.00</rpm>
</extensions>
</trkpt>
<trkpt lat="63.887744904" lon="-21.285612106">
<ele>8.738281</ele>
<time>2012-07-27T19:33:43Z</time>
<speed>5.040000</speed>
<extensions>
<speed>5.0</speed>
<temp>0.00</temp>
<bpm>0</bpm>
<rpm>0.00</rpm>
</extensions>
</trkpt>
<trkpt lat="63.887779236" lon="-21.286111832">
<ele>8.909668</ele>
<time>2012-07-27T19:33:48Z</time>
<speed>5.340000</speed>
<extensions>
<speed>5.3</speed>
<temp>0.00</temp>
<bpm>0</bpm>
<rpm>0.00</rpm>
</extensions>
</trkpt>
<trkpt lat="63.887813568" lon="-21.286602020">
<ele>8.887451</ele>
<time>2012-07-27T19:33:53Z</time>
<speed>4.890000</speed>
<extensions>
<speed>4.9</speed>
<temp>0.00</temp>
<bpm>0</bpm>
<rpm>0.00</rpm>
</extensions>
</trkpt>
<trkpt lat="63.887855530" lon="-21.287090302">
<ele>8.916992</ele>
<time>2012-07-27T19:33:58Z</time>
<speed>4.700000</speed>
<extensions>
<speed>4.7</speed>
<temp>0.00</temp>
<bpm>0</bpm>
<rpm>0.00</rpm>
</extensions>
</trkpt>
<trkpt lat="63.887886047" lon="-21.287513733">
<ele>8.368652</ele>
<time>2012-07-27T19:34:03Z</time>
<speed>4.150000</speed>
<extensions>
<speed>4.1</speed>
<temp>0.00</temp>
<bpm>0</bpm>
<rpm>0.00</rpm>
</extensions>
</trkpt>
<trkpt lat="63.887928009" lon="-21.287963867">
<ele>8.289551</ele>
<time>2012-07-27T19:34:08Z</time>
<speed>4.590000</speed>
<extensions>
<speed>4.6</speed>
<temp>0.00</temp>
<bpm>0</bpm>
<rpm>0.00</rpm>
</extensions>
</trkpt>
<trkpt lat="63.887966156" lon="-21.288457870">
<ele>8.076172</ele>
<time>2012-07-27T19:34:13Z</time>
<speed>5.290000</speed>
<extensions>
<speed>5.3</speed>
<temp>0.00</temp>
<bpm>0</bpm>
<rpm>0.00</rpm>
</extensions>
</trkpt>
<trkpt lat="63.888019562" lon="-21.289016724">
<ele>7.617554</ele>
<time>2012-07-27T19:34:18Z</time>
<speed>5.420000</speed>
<extensions>
<speed>5.4</speed>
<temp>0.00</temp>
<bpm>0</bpm>
<rpm>0.00</rpm>
</extensions>
</trkpt>
<trkpt lat="63.888069153" lon="-21.289546967">
<ele>7.812378</ele>
<time>2012-07-27T19:34:23Z</time>
<speed>5.470000</speed>
<extensions>
<speed>5.5</speed>
<temp>0.00</temp>
<bpm>0</bpm>
<rpm>0.00</rpm>
</extensions>
</trkpt>
<trkpt lat="63.888111115" lon="-21.290042877">
<ele>7.959106</ele>
<time>2012-07-27T19:34:28Z</time>
<speed>4.320000</speed>
<extensions>
<speed>4.3</speed>
<temp>0.00</temp>
<bpm>0</bpm>
<rpm>0.00</rpm>
</extensions>
</trkpt>
<trkpt lat="63.888153076" lon="-21.290494919">
<ele>8.093506</ele>
<time>2012-07-27T19:34:33Z</time>
<speed>5.140000</speed>
<extensions>
<speed>5.1</speed>
<temp>0.00</temp>
<bpm>0</bpm>
<rpm>0.00</rpm>
</extensions>
</trkpt>
<trkpt lat="63.888210297" lon="-21.291034698">
<ele>7.982910</ele>
<time>2012-07-27T19:34:38Z</time>
<speed>5.470000</speed>
<extensions>
<speed>5.5</speed>
<temp>0.00</temp>
<bpm>0</bpm>
<rpm>0.00</rpm>
</extensions>
</trkpt>
<trkpt lat="63.888259888" lon="-21.291522980">
<ele>7.917236</ele>
<time>2012-07-27T19:34:43Z</time>
<speed>4.190000</speed>
<extensions>
<speed>4.2</speed>
<temp>0.00</temp>
<bpm>0</bpm>
<rpm>0.00</rpm>
</extensions>
</trkpt>
<trkpt lat="63.888294220" lon="-21.291969299">
<ele>7.872559</ele>
<time>2012-07-27T19:34:48Z</time>
<speed>4.750000</speed>
<extensions>
<speed>4.8</speed>
<temp>0.00</temp>
<bpm>0</bpm>
<rpm>0.00</rpm>
</extensions>
</trkpt>
<trkpt lat="63.888343811" lon="-21.292476654">
<ele>7.659546</ele>
<time>2012-07-27T19:34:53Z</time>
<speed>5.150000</speed>
<extensions>
<speed>5.2</speed>
<temp>0.00</temp>
<bpm>0</bpm>
<rpm>0.00</rpm>
</extensions>
</trkpt>
<trkpt lat="63.888393402" lon="-21.292987823">
<ele>7.424194</ele>
<time>2012-07-27T19:34:58Z</time>
<speed>5.200000</speed>
<extensions>
<speed>5.2</speed>
<temp>0.00</temp>
<bpm>0</bpm>
<rpm>0.00</rpm>
</extensions>
</trkpt>
<trkpt lat="63.888446808" lon="-21.293502808">
<ele>7.417725</ele>
<time>2012-07-27T19:35:03Z</time>
<speed>5.300000</speed>
<extensions>
<speed>5.3</speed>
<temp>0.00</temp>
<bpm>0</bpm>
<rpm>0.00</rpm>
</extensions>
</trkpt>
<trkpt lat="63.888496399" lon="-21.294034958">
<ele>8.239258</ele>
<time>2012-07-27T19:35:08Z</time>
<speed>4.880000</speed>
<extensions>
<speed>4.9</speed>
<temp>0.00</temp>
<bpm>0</bpm>
<rpm>0.00</rpm>
</extensions>
</trkpt>
<trkpt lat="63.888553619" lon="-21.294490814">
<ele>8.357910</ele>
<time>2012-07-27T19:35:13Z</time>
<speed>4.430000</speed>
<extensions>
<speed>4.4</speed>
<temp>0.00</temp>
<bpm>0</bpm>
<rpm>0.00</rpm>
</extensions>
</trkpt>
<trkpt lat="63.888603210" lon="-21.294973373">
<ele>8.675293</ele>
<time>2012-07-27T19:35:18Z</time>
<speed>5.230000</speed>
<extensions>
<speed>5.2</speed>
<temp>0.00</temp>
<bpm>0</bpm>
<rpm>0.00</rpm>
</extensions>
</trkpt>
<trkpt lat="63.888660431" lon="-21.295505524">
<ele>8.114502</ele>
<time>2012-07-27T19:35:23Z</time>
<speed>5.540000</speed>
<extensions>
<speed>5.5</speed>
<temp>0.00</temp>
<bpm>0</bpm>
<rpm>0.00</rpm>
</extensions>
</trkpt>
<trkpt lat="63.888717651" lon="-21.296051025">
<ele>8.413574</ele>
<time>2012-07-27T19:35:28Z</time>
<speed>5.650000</speed>
<extensions>
<speed>5.7</speed>
<temp>0.00</temp>
<bpm>0</bpm>
<rpm>0.00</rpm>
</extensions>
</trkpt>
<trkpt lat="63.888771057" lon="-21.296550751">
<ele>9.251465</ele>
<time>2012-07-27T19:35:33Z</time>
<speed>4.750000</speed>
<extensions>
<speed>4.8</speed>
<temp>0.00</temp>
<bpm>0</bpm>
<rpm>0.00</rpm>
</extensions>
</trkpt>
<trkpt lat="63.888824463" lon="-21.297052383">
<ele>9.355225</ele>
<time>2012-07-27T19:35:38Z</time>
<speed>5.340000</speed>
<extensions>
<speed>5.3</speed>
<temp>0.00</temp>
<bpm>0</bpm>
<rpm>0.00</rpm>
</extensions>
</trkpt>
<trkpt lat="63.888885498" lon="-21.297597885">
<ele>9.245850</ele>
<time>2012-07-27T19:35:43Z</time>
<speed>5.520000</speed>
<extensions>
<speed>5.5</speed>
<temp>0.00</temp>
<bpm>0</bpm>
<rpm>0.00</rpm>
</extensions>
</trkpt>
<trkpt lat="63.888950348" lon="-21.298130035">
<ele>10.470947</ele>
<time>2012-07-27T19:35:48Z</time>
<speed>5.470000</speed>
<extensions>
<speed>5.5</speed>
<temp>0.00</temp>
<bpm>0</bpm>
<rpm>0.00</rpm>
</extensions>
</trkpt>
<trkpt lat="63.888999939" lon="-21.298618317">
<ele>10.266113</ele>
<time>2012-07-27T19:35:53Z</time>
<speed>4.390000</speed>
<extensions>
<speed>4.4</speed>
<temp>0.00</temp>
<bpm>0</bpm>
<rpm>0.00</rpm>
</extensions>
</trkpt>
<trkpt lat="63.889041901" lon="-21.298990250">
<ele>10.036621</ele>
<time>2012-07-27T19:35:58Z</time>
<speed>3.290000</speed>
<extensions>
<speed>3.3</speed>
<temp>0.00</temp>
<bpm>0</bpm>
<rpm>0.00</rpm>
</extensions>
</trkpt>
<trkpt lat="63.889080048" lon="-21.299316406">
<ele>9.750488</ele>
<time>2012-07-27T19:36:03Z</time>
<speed>3.830000</speed>
<extensions>
<speed>3.8</speed>
<temp>0.00</temp>
<bpm>0</bpm>
<rpm>0.00</rpm>
</extensions>
</trkpt>
<trkpt lat="63.889122009" lon="-21.299732208">
<ele>9.781494</ele>
<time>2012-07-27T19:36:08Z</time>
<speed>4.610000</speed>
<extensions>
<speed>4.6</speed>
<temp>0.00</temp>
<bpm>0</bpm>
<rpm>0.00</rpm>
</extensions>
</trkpt>
<trkpt lat="63.889163971" lon="-21.300233841">
<ele>8.834473</ele>
<time>2012-07-27T19:36:13Z</time>
<speed>5.170000</speed>
<extensions>
<speed>5.2</speed>
<temp>0.00</temp>
<bpm>0</bpm>
<rpm>0.00</rpm>
</extensions>
</trkpt>
<trkpt lat="63.889213562" lon="-21.300754547">
<ele>9.146484</ele>
<time>2012-07-27T19:36:18Z</time>
<speed>5.440000</speed>
<extensions>
<speed>5.4</speed>
<temp>0.00</temp>
<bpm>0</bpm>
<rpm>0.00</rpm>
</extensions>
</trkpt>
<trkpt lat="63.889259338" lon="-21.301307678">
<ele>9.699463</ele>
<time>2012-07-27T19:36:23Z</time>
<speed>5.640000</speed>
<extensions>
<speed>5.6</speed>
<temp>0.00</temp>
<bpm>0</bpm>
<rpm>0.00</rpm>
</extensions>
</trkpt>
<trkpt lat="63.889308929" lon="-21.301816940">
<ele>9.438477</ele>
<time>2012-07-27T19:36:28Z</time>
<speed>4.610000</speed>
<extensions>
<speed>4.6</speed>
<temp>0.00</temp>
<bpm>0</bpm>
<rpm>0.00</rpm>
</extensions>
</trkpt>
<trkpt lat="63.889350891" lon="-21.302291870">
<ele>9.580811</ele>
<time>2012-07-27T19:36:33Z</time>
<speed>4.940000</speed>
<extensions>
<speed>4.9</speed>
<temp>0.00</temp>
<bpm>0</bpm>
<rpm>0.00</rpm>
</extensions>
</trkpt>
<trkpt lat="63.889392853" lon="-21.302783966">
<ele>9.828857</ele>
<time>2012-07-27T19:36:38Z</time>
<speed>5.000000</speed>
<extensions>
<speed>5.0</speed>
<temp>0.00</temp>
<bpm>0</bpm>
<rpm>0.00</rpm>
</extensions>
</trkpt>
<trkpt lat="63.889431000" lon="-21.303318024">
<ele>9.931396</ele>
<time>2012-07-27T19:36:43Z</time>
<speed>5.460000</speed>
<extensions>
<speed>5.5</speed>
<temp>0.00</temp>
<bpm>0</bpm>
<rpm>0.00</rpm>
</extensions>
</trkpt>
<trkpt lat="63.889472961" lon="-21.303825378">
<ele>9.581055</ele>
<time>2012-07-27T19:36:48Z</time>
<speed>4.420000</speed>
<extensions>
<speed>4.4</speed>
<temp>0.00</temp>
<bpm>0</bpm>
<rpm>0.00</rpm>
</extensions>
</trkpt>
<trkpt lat="63.889495850" lon="-21.304206848">
<ele>9.199707</ele>
<time>2012-07-27T19:36:53Z</time>
<speed>3.300000</speed>
<extensions>
<speed>3.3</speed>
<temp>0.00</temp>
<bpm>0</bpm>
<rpm>0.00</rpm>
</extensions>
</trkpt>
<trkpt lat="63.889518738" lon="-21.304531097">
<ele>9.188477</ele>
<time>2012-07-27T19:36:58Z</time>
<speed>3.390000</speed>
<extensions>
<speed>3.4</speed>
<temp>0.00</temp>
<bpm>0</bpm>
<rpm>0.00</rpm>
</extensions>
</trkpt>
<trkpt lat="63.889549255" lon="-21.304929733">
<ele>8.572510</ele>
<time>2012-07-27T19:37:03Z</time>
<speed>4.250000</speed>
<extensions>
<speed>4.3</speed>
<temp>0.00</temp>
<bpm>0</bpm>
<rpm>0.00</rpm>
</extensions>
</trkpt>
<trkpt lat="63.889583588" lon="-21.305374146">
<ele>8.196533</ele>
<time>2012-07-27T19:37:08Z</time>
<speed>4.670000</speed>
<extensions>
<speed>4.7</speed>
<temp>0.00</temp>
<bpm>0</bpm>
<rpm>0.00</rpm>
</extensions>
</trkpt>
<trkpt lat="63.889617920" lon="-21.305822372">
<ele>7.976196</ele>
<time>2012-07-27T19:37:13Z</time>
<speed>4.150000</speed>
<extensions>
<speed>4.1</speed>
<temp>0.00</temp>
<bpm>0</bpm>
<rpm>0.00</rpm>
</extensions>
</trkpt>
<trkpt lat="63.889644623" lon="-21.306249619">
<ele>7.778076</ele>
<time>2012-07-27T19:37:18Z</time>
<speed>4.670000</speed>
<extensions>
<speed>4.7</speed>
<temp>0.00</temp>
<bpm>0</bpm>
<rpm>0.00</rpm>
</extensions>
</trkpt>
<trkpt lat="63.889675140" lon="-21.306737900">
<ele>7.558594</ele>
<time>2012-07-27T19:37:23Z</time>
<speed>4.860000</speed>
<extensions>
<speed>4.9</speed>
<temp>0.00</temp>
<bpm>0</bpm>
<rpm>0.00</rpm>
</extensions>
</trkpt>
<trkpt lat="63.889705658" lon="-21.307226181">
<ele>7.457031</ele>
<time>2012-07-27T19:37:28Z</time>
<speed>5.010000</speed>
<extensions>
<speed>5.0</speed>
<temp>0.00</temp>
<bpm>0</bpm>
<rpm>0.00</rpm>
</extensions>
</trkpt>
<trkpt lat="63.889728546" lon="-21.307680130">
<ele>7.260986</ele>
<time>2012-07-27T19:37:33Z</time>
<speed>3.950000</speed>
<extensions>
<speed>4.0</speed>
<temp>0.00</temp>
<bpm>0</bpm>
<rpm>0.00</rpm>
</extensions>
</trkpt>
<trkpt lat="63.889747620" lon="-21.308082581">
<ele>6.763794</ele>
<time>2012-07-27T19:37:38Z</time>
<speed>4.390000</speed>
<extensions>
<speed>4.4</speed>
<temp>0.00</temp>
<bpm>0</bpm>
<rpm>0.00</rpm>
</extensions>
</trkpt>
<trkpt lat="63.889774323" lon="-21.308561325">
<ele>6.828369</ele>
<time>2012-07-27T19:37:43Z</time>
<speed>4.950000</speed>
<extensions>
<speed>4.9</speed>
<temp>0.00</temp>
<bpm>0</bpm>
<rpm>0.00</rpm>
</extensions>
</trkpt>
<trkpt lat="63.889793396" lon="-21.309070587">
<ele>6.501953</ele>
<time>2012-07-27T19:37:48Z</time>
<speed>4.820000</speed>
<extensions>
<speed>4.8</speed>
<temp>0.00</temp>
<bpm>0</bpm>
<rpm>0.00</rpm>
</extensions>
</trkpt>
<trkpt lat="63.889812469" lon="-21.309562683">
<ele>6.182861</ele>
<time>2012-07-27T19:37:53Z</time>
<speed>4.950000</speed>
<extensions>
<speed>4.9</speed>
<temp>0.00</temp>
<bpm>0</bpm>
<rpm>0.00</rpm>
</extensions>
</trkpt>
<trkpt lat="63.889839172" lon="-21.309963226">
<ele>5.972290</ele>
<time>2012-07-27T19:37:58Z</time>
<speed>3.510000</speed>
<extensions>
<speed>3.5</speed>
<temp>0.00</temp>
<bpm>0</bpm>
<rpm>0.00</rpm>
</extensions>
</trkpt>
<trkpt lat="63.889850616" lon="-21.310363770">
<ele>5.427856</ele>
<time>2012-07-27T19:38:03Z</time>
<speed>4.410000</speed>
<extensions>
<speed>4.4</speed>
<temp>0.00</temp>
<bpm>0</bpm>
<rpm>0.00</rpm>
</extensions>
</trkpt>
<trkpt lat="63.889865875" lon="-21.310838699">
<ele>5.270508</ele>
<time>2012-07-27T19:38:08Z</time>
<speed>4.910000</speed>
<extensions>
<speed>4.9</speed>
<temp>0.00</temp>
<bpm>0</bpm>
<rpm>0.00</rpm>
</extensions>
</trkpt>
<trkpt lat="63.889881134" lon="-21.311281204">
<ele>5.522583</ele>
<time>2012-07-27T19:38:13Z</time>
<speed>3.760000</speed>
<extensions>
<speed>3.8</speed>
<temp>0.00</temp>
<bpm>0</bpm>
<rpm>0.00</rpm>
</extensions>
</trkpt>
<trkpt lat="63.889881134" lon="-21.311605453">
<ele>5.319458</ele>
<time>2012-07-27T19:38:18Z</time>
<speed>2.830000</speed>
<extensions>
<speed>2.8</speed>
<temp>0.00</temp>
<bpm>0</bpm>
<rpm>0.00</rpm>
</extensions>
</trkpt>
<trkpt lat="63.889896393" lon="-21.311708450">
<ele>5.698242</ele>
<time>2012-07-27T19:38:23Z</time>
<speed>0.080000</speed>
<extensions>
<speed>0.1</speed>
<temp>0.00</temp>
<bpm>0</bpm>
<rpm>0.00</rpm>
</extensions>
</trkpt>
<trkpt lat="63.889900208" lon="-21.311712265">
<ele>5.809937</ele>
<time>2012-07-27T19:38:28Z</time>
<speed>0.080000</speed>
<extensions>
<speed>0.1</speed>
<temp>0.00</temp>
<bpm>0</bpm>
<rpm>0.00</rpm>
</extensions>
</trkpt>
<trkpt lat="63.889900208" lon="-21.311712265">
<ele>5.773804</ele>
<time>2012-07-27T19:38:33Z</time>
<speed>0.010000</speed>
<extensions>
<speed>0.0</speed>
<temp>0.00</temp>
<bpm>0</bpm>
<rpm>0.00</rpm>
</extensions>
</trkpt>
<trkpt lat="63.889900208" lon="-21.311712265">
<ele>5.735596</ele>
<time>2012-07-27T19:38:38Z</time>
<speed>0.030000</speed>
<extensions>
<speed>0.0</speed>
<temp>0.00</temp>
<bpm>0</bpm>
<rpm>0.00</rpm>
</extensions>
</trkpt>
<trkpt lat="63.889900208" lon="-21.311712265">
<ele>5.739014</ele>
<time>2012-07-27T19:38:43Z</time>
<speed>0.100000</speed>
<extensions>
<speed>0.1</speed>
<temp>0.00</temp>
<bpm>0</bpm>
<rpm>0.00</rpm>
</extensions>
</trkpt>
<trkpt lat="63.889900208" lon="-21.311714172">
<ele>5.229126</ele>
<time>2012-07-27T19:38:48Z</time>
<speed>0.010000</speed>
<extensions>
<speed>0.0</speed>
<temp>0.00</temp>
<bpm>0</bpm>
<rpm>0.00</rpm>
</extensions>
</trkpt>
<trkpt lat="63.889896393" lon="-21.311714172">
<ele>5.179810</ele>
<time>2012-07-27T19:38:53Z</time>
<speed>0.010000</speed>
<extensions>
<speed>0.0</speed>
<temp>0.00</temp>
<bpm>0</bpm>
<rpm>0.00</rpm>
</extensions>
</trkpt>
<trkpt lat="63.889896393" lon="-21.311710358">
<ele>5.905151</ele>
<time>2012-07-27T19:38:58Z</time>
<speed>0.040000</speed>
<extensions>
<speed>0.0</speed>
<temp>0.00</temp>
<bpm>0</bpm>
<rpm>0.00</rpm>
</extensions>
</trkpt>
<trkpt lat="63.889896393" lon="-21.311710358">
<ele>6.353271</ele>
<time>2012-07-27T19:39:03Z</time>
<extensions>
<speed>0.0</speed>
<temp>0.00</temp>
<bpm>0</bpm>
<rpm>0.00</rpm>
</extensions>
</trkpt>
<trkpt lat="63.889896393" lon="-21.311710358">
<ele>6.449585</ele>
<time>2012-07-27T19:39:08Z</time>
<speed>0.010000</speed>
<extensions>
<speed>0.0</speed>
<temp>0.00</temp>
<bpm>0</bpm>
<rpm>0.00</rpm>
</extensions>
</trkpt>
<trkpt lat="63.889896393" lon="-21.311710358">
<ele>6.462646</ele>
<time>2012-07-27T19:39:13Z</time>
<extensions>
<speed>0.0</speed>
<temp>0.00</temp>
<bpm>0</bpm>
<rpm>0.00</rpm>
</extensions>
</trkpt>
<trkpt lat="63.889896393" lon="-21.311710358">
<ele>6.463013</ele>
<time>2012-07-27T19:39:18Z</time>
<speed>0.010000</speed>
<extensions>
<speed>0.0</speed>
<temp>0.00</temp>
<bpm>0</bpm>
<rpm>0.00</rpm>
</extensions>
</trkpt>
<trkpt lat="63.889896393" lon="-21.311710358">
<ele>6.467529</ele>
<time>2012-07-27T19:39:23Z</time>
<extensions>
<speed>0.0</speed>
<temp>0.00</temp>
<bpm>0</bpm>
<rpm>0.00</rpm>
</extensions>
</trkpt>
<trkpt lat="63.889896393" lon="-21.311710358">
<ele>6.471558</ele>
<time>2012-07-27T19:39:28Z</time>
<speed>0.010000</speed>
<extensions>
<speed>0.0</speed>
<temp>0.00</temp>
<bpm>0</bpm>
<rpm>0.00</rpm>
</extensions>
</trkpt>
<trkpt lat="63.889896393" lon="-21.311708450">
<ele>6.494141</ele>
<time>2012-07-27T19:39:33Z</time>
<speed>0.030000</speed>
<extensions>
<speed>0.0</speed>
<temp>0.00</temp>
<bpm>0</bpm>
<rpm>0.00</rpm>
</extensions>
</trkpt>
<trkpt lat="63.889896393" lon="-21.311708450">
<ele>6.495850</ele>
<time>2012-07-27T19:39:38Z</time>
<extensions>
<speed>0.0</speed>
<temp>0.00</temp>
<bpm>0</bpm>
<rpm>0.00</rpm>
</extensions>
</trkpt>
<trkpt lat="63.889896393" lon="-21.311710358">
<ele>6.497192</ele>
<time>2012-07-27T19:39:43Z</time>
<extensions>
<speed>0.0</speed>
<temp>0.00</temp>
<bpm>0</bpm>
<rpm>0.00</rpm>
</extensions>
</trkpt>
<trkpt lat="63.889896393" lon="-21.311710358">
<ele>6.498657</ele>
<time>2012-07-27T19:39:48Z</time>
<extensions>
<speed>0.0</speed>
<temp>0.00</temp>
<bpm>0</bpm>
<rpm>0.00</rpm>
</extensions>
</trkpt>
<trkpt lat="63.889896393" lon="-21.311710358">
<ele>6.499878</ele>
<time>2012-07-27T19:39:53Z</time>
<speed>0.010000</speed>
<extensions>
<speed>0.0</speed>
<temp>0.00</temp>
<bpm>0</bpm>
<rpm>0.00</rpm>
</extensions>
</trkpt>
<trkpt lat="63.889896393" lon="-21.311708450">
<ele>6.501099</ele>
<time>2012-07-27T19:39:58Z</time>
<extensions>
<speed>0.0</speed>
<temp>0.00</temp>
<bpm>0</bpm>
<rpm>0.00</rpm>
</extensions>
</trkpt>
<trkpt lat="63.889896393" lon="-21.311708450">
<ele>6.504272</ele>
<time>2012-07-27T19:40:03Z</time>
<extensions>
<speed>0.0</speed>
<temp>0.00</temp>
<bpm>0</bpm>
<rpm>0.00</rpm>
</extensions>
</trkpt>
<trkpt lat="63.889896393" lon="-21.311708450">
<ele>6.510620</ele>
<time>2012-07-27T19:40:08Z</time>
<speed>0.020000</speed>
<extensions>
<speed>0.0</speed>
<temp>0.00</temp>
<bpm>0</bpm>
<rpm>0.00</rpm>
</extensions>
</trkpt>
<trkpt lat="63.889896393" lon="-21.311708450">
<ele>6.514404</ele>
<time>2012-07-27T19:40:13Z</time>
<speed>0.010000</speed>
<extensions>
<speed>0.0</speed>
<temp>0.00</temp>
<bpm>0</bpm>
<rpm>0.00</rpm>
</extensions>
</trkpt>
<trkpt lat="63.889896393" lon="-21.311708450">
<ele>6.518188</ele>
<time>2012-07-27T19:40:18Z</time>
<extensions>
<speed>0.0</speed>
<temp>0.00</temp>
<bpm>0</bpm>
<rpm>0.00</rpm>
</extensions>
</trkpt>
<trkpt lat="63.889896393" lon="-21.311708450">
<ele>6.514526</ele>
<time>2012-07-27T19:40:23Z</time>
<extensions>
<speed>0.0</speed>
<temp>0.00</temp>
<bpm>0</bpm>
<rpm>0.00</rpm>
</extensions>
</trkpt>
<trkpt lat="63.889896393" lon="-21.311708450">
<ele>6.515991</ele>
<time>2012-07-27T19:40:28Z</time>
<extensions>
<speed>0.0</speed>
<temp>0.00</temp>
<bpm>0</bpm>
<rpm>0.00</rpm>
</extensions>
</trkpt>
<trkpt lat="63.889896393" lon="-21.311708450">
<ele>6.517944</ele>
<time>2012-07-27T19:40:33Z</time>
<extensions>
<speed>0.0</speed>
<temp>0.00</temp>
<bpm>0</bpm>
<rpm>0.00</rpm>
</extensions>
</trkpt>
<trkpt lat="63.889896393" lon="-21.311708450">
<ele>6.520630</ele>
<time>2012-07-27T19:40:38Z</time>
<extensions>
<speed>0.0</speed>
<temp>0.00</temp>
<bpm>0</bpm>
<rpm>0.00</rpm>
</extensions>
</trkpt>
<trkpt lat="63.889896393" lon="-21.311708450">
<ele>6.521606</ele>
<time>2012-07-27T19:40:43Z</time>
<speed>0.010000</speed>
<extensions>
<speed>0.0</speed>
<temp>0.00</temp>
<bpm>0</bpm>
<rpm>0.00</rpm>
</extensions>
</trkpt>
<trkpt lat="63.889896393" lon="-21.311708450">
<ele>6.517456</ele>
<time>2012-07-27T19:40:48Z</time>
<speed>0.010000</speed>
<extensions>
<speed>0.0</speed>
<temp>0.00</temp>
<bpm>0</bpm>
<rpm>0.00</rpm>
</extensions>
</trkpt>
<trkpt lat="63.889896393" lon="-21.311708450">
<ele>6.553345</ele>
<time>2012-07-27T19:40:53Z</time>
<extensions>
<speed>0.0</speed>
<temp>0.00</temp>
<bpm>0</bpm>
<rpm>0.00</rpm>
</extensions>
</trkpt>
<trkpt lat="63.889896393" lon="-21.311708450">
<ele>6.549927</ele>
<time>2012-07-27T19:40:58Z</time>
<extensions>
<speed>0.0</speed>
<temp>0.00</temp>
<bpm>0</bpm>
<rpm>0.00</rpm>
</extensions>
</trkpt>
<trkpt lat="63.889896393" lon="-21.311708450">
<ele>6.531372</ele>
<time>2012-07-27T19:41:03Z</time>
<extensions>
<speed>0.0</speed>
<temp>0.00</temp>
<bpm>0</bpm>
<rpm>0.00</rpm>
</extensions>
</trkpt>
<trkpt lat="63.889896393" lon="-21.311708450">
<ele>6.525146</ele>
<time>2012-07-27T19:41:08Z</time>
<extensions>
<speed>0.0</speed>
<temp>0.00</temp>
<bpm>0</bpm>
<rpm>0.00</rpm>
</extensions>
</trkpt>
<trkpt lat="63.889896393" lon="-21.311708450">
<ele>6.536133</ele>
<time>2012-07-27T19:41:13Z</time>
<extensions>
<speed>0.0</speed>
<temp>0.00</temp>
<bpm>0</bpm>
<rpm>0.00</rpm>
</extensions>
</trkpt>
<trkpt lat="63.889896393" lon="-21.311708450">
<ele>6.534058</ele>
<time>2012-07-27T19:41:18Z</time>
<extensions>
<speed>0.0</speed>
<temp>0.00</temp>
<bpm>0</bpm>
<rpm>0.00</rpm>
</extensions>
</trkpt>
<trkpt lat="63.889896393" lon="-21.311708450">
<ele>6.538574</ele>
<time>2012-07-27T19:41:23Z</time>
<speed>0.010000</speed>
<extensions>
<speed>0.0</speed>
<temp>0.00</temp>
<bpm>0</bpm>
<rpm>0.00</rpm>
</extensions>
</trkpt>
<trkpt lat="63.889896393" lon="-21.311708450">
<ele>6.540771</ele>
<time>2012-07-27T19:41:28Z</time>
<extensions>
<speed>0.0</speed>
<temp>0.00</temp>
<bpm>0</bpm>
<rpm>0.00</rpm>
</extensions>
</trkpt>
<trkpt lat="63.889896393" lon="-21.311708450">
<ele>6.547485</ele>
<time>2012-07-27T19:41:33Z</time>
<extensions>
<speed>0.0</speed>
<temp>0.00</temp>
<bpm>0</bpm>
<rpm>0.00</rpm>
</extensions>
</trkpt>
<trkpt lat="63.889896393" lon="-21.311708450">
<ele>6.544678</ele>
<time>2012-07-27T19:41:38Z</time>
<extensions>
<speed>0.0</speed>
<temp>0.00</temp>
<bpm>0</bpm>
<rpm>0.00</rpm>
</extensions>
</trkpt>
<trkpt lat="63.889896393" lon="-21.311708450">
<ele>6.546753</ele>
<time>2012-07-27T19:41:43Z</time>
<extensions>
<speed>0.0</speed>
<temp>0.00</temp>
<bpm>0</bpm>
<rpm>0.00</rpm>
</extensions>
</trkpt>
<trkpt lat="63.889896393" lon="-21.311708450">
<ele>6.542236</ele>
<time>2012-07-27T19:41:48Z</time>
<speed>0.010000</speed>
<extensions>
<speed>0.0</speed>
<temp>0.00</temp>
<bpm>0</bpm>
<rpm>0.00</rpm>
</extensions>
</trkpt>
<trkpt lat="63.889896393" lon="-21.311708450">
<ele>6.540894</ele>
<time>2012-07-27T19:41:53Z</time>
<speed>0.010000</speed>
<extensions>
<speed>0.0</speed>
<temp>0.00</temp>
<bpm>0</bpm>
<rpm>0.00</rpm>
</extensions>
</trkpt>
<trkpt lat="63.889896393" lon="-21.311708450">
<ele>6.558594</ele>
<time>2012-07-27T19:41:58Z</time>
<extensions>
<speed>0.0</speed>
<temp>0.00</temp>
<bpm>0</bpm>
<rpm>0.00</rpm>
</extensions>
</trkpt>
<trkpt lat="63.889896393" lon="-21.311708450">
<ele>6.566406</ele>
<time>2012-07-27T19:42:03Z</time>
<extensions>
<speed>0.0</speed>
<temp>0.00</temp>
<bpm>0</bpm>
<rpm>0.00</rpm>
</extensions>
</trkpt>
<trkpt lat="63.889896393" lon="-21.311708450">
<ele>6.571777</ele>
<time>2012-07-27T19:42:08Z</time>
<extensions>
<speed>0.0</speed>
<temp>0.00</temp>
<bpm>0</bpm>
<rpm>0.00</rpm>
</extensions>
</trkpt>
<trkpt lat="63.889896393" lon="-21.311708450">
<ele>6.579468</ele>
<time>2012-07-27T19:42:13Z</time>
<extensions>
<speed>0.0</speed>
<temp>0.00</temp>
<bpm>0</bpm>
<rpm>0.00</rpm>
</extensions>
</trkpt>
<trkpt lat="63.889896393" lon="-21.311708450">
<ele>6.588135</ele>
<time>2012-07-27T19:42:18Z</time>
<speed>0.010000</speed>
<extensions>
<speed>0.0</speed>
<temp>0.00</temp>
<bpm>0</bpm>
<rpm>0.00</rpm>
</extensions>
</trkpt>
<trkpt lat="63.889896393" lon="-21.311708450">
<ele>6.580200</ele>
<time>2012-07-27T19:42:23Z</time>
<speed>0.060000</speed>
<extensions>
<speed>0.1</speed>
<temp>0.00</temp>
<bpm>0</bpm>
<rpm>0.00</rpm>
</extensions>
</trkpt>
<trkpt lat="63.889892578" lon="-21.311756134">
<ele>6.462524</ele>
<time>2012-07-27T19:42:28Z</time>
<speed>0.700000</speed>
<extensions>
<speed>0.7</speed>
<temp>0.00</temp>
<bpm>0</bpm>
<rpm>0.00</rpm>
</extensions>
</trkpt>
<trkpt lat="63.889896393" lon="-21.311788559">
<ele>6.436890</ele>
<time>2012-07-27T19:42:33Z</time>
<speed>0.080000</speed>
<extensions>
<speed>0.1</speed>
<temp>0.00</temp>
<bpm>0</bpm>
<rpm>0.00</rpm>
</extensions>
</trkpt>
<trkpt lat="63.889896393" lon="-21.311790466">
<ele>6.525146</ele>
<time>2012-07-27T19:42:38Z</time>
<speed>0.030000</speed>
<extensions>
<speed>0.0</speed>
<temp>0.00</temp>
<bpm>0</bpm>
<rpm>0.00</rpm>
</extensions>
</trkpt>
<trkpt lat="63.889896393" lon="-21.311790466">
<ele>6.599609</ele>
<time>2012-07-27T19:42:43Z</time>
<speed>0.020000</speed>
<extensions>
<speed>0.0</speed>
<temp>0.00</temp>
<bpm>0</bpm>
<rpm>0.00</rpm>
</extensions>
</trkpt>
<trkpt lat="63.889896393" lon="-21.311790466">
<ele>6.606934</ele>
<time>2012-07-27T19:42:48Z</time>
<speed>0.010000</speed>
<extensions>
<speed>0.0</speed>
<temp>0.00</temp>
<bpm>0</bpm>
<rpm>0.00</rpm>
</extensions>
</trkpt>
<trkpt lat="63.889896393" lon="-21.311790466">
<ele>6.604858</ele>
<time>2012-07-27T19:42:53Z</time>
<speed>0.010000</speed>
<extensions>
<speed>0.0</speed>
<temp>0.00</temp>
<bpm>0</bpm>
<rpm>0.00</rpm>
</extensions>
</trkpt>
<trkpt lat="63.889896393" lon="-21.311790466">
<ele>6.596680</ele>
<time>2012-07-27T19:42:58Z</time>
<speed>0.010000</speed>
<extensions>
<speed>0.0</speed>
<temp>0.00</temp>
<bpm>0</bpm>
<rpm>0.00</rpm>
</extensions>
</trkpt>
<trkpt lat="63.889896393" lon="-21.311790466">
<ele>6.598511</ele>
<time>2012-07-27T19:43:03Z</time>
<speed>0.030000</speed>
<extensions>
<speed>0.0</speed>
<temp>0.00</temp>
<bpm>0</bpm>
<rpm>0.00</rpm>
</extensions>
</trkpt>
<trkpt lat="63.889896393" lon="-21.311790466">
<ele>6.591675</ele>
<time>2012-07-27T19:43:08Z</time>
<speed>0.470000</speed>
<extensions>
<speed>0.5</speed>
<temp>0.00</temp>
<bpm>0</bpm>
<rpm>0.00</rpm>
</extensions>
</trkpt>
<trkpt lat="63.889892578" lon="-21.312002182">
<ele>6.308350</ele>
<time>2012-07-27T19:43:13Z</time>
<speed>2.970000</speed>
<extensions>
<speed>3.0</speed>
<temp>0.00</temp>
<bpm>0</bpm>
<rpm>0.00</rpm>
</extensions>
</trkpt>
<trkpt lat="63.889904022" lon="-21.312360764">
<ele>5.551392</ele>
<time>2012-07-27T19:43:18Z</time>
<speed>3.620000</speed>
<extensions>
<speed>3.6</speed>
<temp>0.00</temp>
<bpm>0</bpm>
<rpm>0.00</rpm>
</extensions>
</trkpt>
<trkpt lat="63.889915466" lon="-21.312734604">
<ele>4.767334</ele>
<time>2012-07-27T19:43:23Z</time>
<speed>3.610000</speed>
<extensions>
<speed>3.6</speed>
<temp>0.00</temp>
<bpm>0</bpm>
<rpm>0.00</rpm>
</extensions>
</trkpt>
<trkpt lat="63.889926910" lon="-21.313100815">
<ele>4.585693</ele>
<time>2012-07-27T19:43:28Z</time>
<speed>3.570000</speed>
<extensions>
<speed>3.6</speed>
<temp>0.00</temp>
<bpm>0</bpm>
<rpm>0.00</rpm>
</extensions>
</trkpt>
<trkpt lat="63.889934540" lon="-21.313488007">
<ele>4.131348</ele>
<time>2012-07-27T19:43:33Z</time>
<speed>3.770000</speed>
<extensions>
<speed>3.8</speed>
<temp>0.00</temp>
<bpm>0</bpm>
<rpm>0.00</rpm>
</extensions>
</trkpt>
<trkpt lat="63.889949799" lon="-21.313896179">
<ele>3.812683</ele>
<time>2012-07-27T19:43:38Z</time>
<speed>4.040000</speed>
<extensions>
<speed>4.0</speed>
<temp>0.00</temp>
<bpm>0</bpm>
<rpm>0.00</rpm>
</extensions>
</trkpt>
<trkpt lat="63.889957428" lon="-21.314294815">
<ele>3.408997</ele>
<time>2012-07-27T19:43:43Z</time>
<speed>3.890000</speed>
<extensions>
<speed>3.9</speed>
<temp>0.00</temp>
<bpm>0</bpm>
<rpm>0.00</rpm>
</extensions>
</trkpt>
<trkpt lat="63.889961243" lon="-21.314691544">
<ele>3.406006</ele>
<time>2012-07-27T19:43:48Z</time>
<speed>4.020000</speed>
<extensions>
<speed>4.0</speed>
<temp>0.00</temp>
<bpm>0</bpm>
<rpm>0.00</rpm>
</extensions>
</trkpt>
<trkpt lat="63.889961243" lon="-21.315086365">
<ele>2.674927</ele>
<time>2012-07-27T19:43:53Z</time>
<speed>3.650000</speed>
<extensions>
<speed>3.7</speed>
<temp>0.00</temp>
<bpm>0</bpm>
<rpm>0.00</rpm>
</extensions>
</trkpt>
<trkpt lat="63.889968872" lon="-21.315458298">
<ele>1.802490</ele>
<time>2012-07-27T19:43:58Z</time>
<speed>3.810000</speed>
<extensions>
<speed>3.8</speed>
<temp>0.00</temp>
<bpm>0</bpm>
<rpm>0.00</rpm>
</extensions>
</trkpt>
<trkpt lat="63.889976501" lon="-21.315839767">
<ele>2.356812</ele>
<time>2012-07-27T19:44:03Z</time>
<speed>3.700000</speed>
<extensions>
<speed>3.7</speed>
<temp>0.00</temp>
<bpm>0</bpm>
<rpm>0.00</rpm>
</extensions>
</trkpt>
<trkpt lat="63.889976501" lon="-21.316209793">
<ele>1.560822</ele>
<time>2012-07-27T19:44:08Z</time>
<speed>3.730000</speed>
<extensions>
<speed>3.7</speed>
<temp>0.00</temp>
<bpm>0</bpm>
<rpm>0.00</rpm>
</extensions>
</trkpt>
<trkpt lat="63.889976501" lon="-21.316577911">
<ele>1.360321</ele>
<time>2012-07-27T19:44:13Z</time>
<speed>3.590000</speed>
<extensions>
<speed>3.6</speed>
<temp>0.00</temp>
<bpm>0</bpm>
<rpm>0.00</rpm>
</extensions>
</trkpt>
<trkpt lat="63.889976501" lon="-21.316955566">
<ele>0.760742</ele>
<time>2012-07-27T19:44:18Z</time>
<speed>3.740000</speed>
<extensions>
<speed>3.7</speed>
<temp>0.00</temp>
<bpm>0</bpm>
<rpm>0.00</rpm>
</extensions>
</trkpt>
<trkpt lat="63.889976501" lon="-21.317316055">
<ele>0.820602</ele>
<time>2012-07-27T19:44:23Z</time>
<speed>3.650000</speed>
<extensions>
<speed>3.7</speed>
<temp>0.00</temp>
<bpm>0</bpm>
<rpm>0.00</rpm>
</extensions>
</trkpt>
<trkpt lat="63.889976501" lon="-21.317699432">
<ele>0.480858</ele>
<time>2012-07-27T19:44:28Z</time>
<speed>3.600000</speed>
<extensions>
<speed>3.6</speed>
<temp>0.00</temp>
<bpm>0</bpm>
<rpm>0.00</rpm>
</extensions>
</trkpt>
<trkpt lat="63.889972687" lon="-21.318037033">
<ele>0.884079</ele>
<time>2012-07-27T19:44:33Z</time>
<speed>3.540000</speed>
<extensions>
<speed>3.5</speed>
<temp>0.00</temp>
<bpm>0</bpm>
<rpm>0.00</rpm>
</extensions>
</trkpt>
<trkpt lat="63.889968872" lon="-21.318412781">
<ele>-0.591705</ele>
<time>2012-07-27T19:44:38Z</time>
<speed>3.740000</speed>
<extensions>
<speed>3.7</speed>
<temp>0.00</temp>
<bpm>0</bpm>
<rpm>0.00</rpm>
</extensions>
</trkpt>
<trkpt lat="63.889968872" lon="-21.318786621">
<ele>-0.554199</ele>
<time>2012-07-27T19:44:43Z</time>
<speed>3.870000</speed>
<extensions>
<speed>3.9</speed>
<temp>0.00</temp>
<bpm>0</bpm>
<rpm>0.00</rpm>
</extensions>
</trkpt>
<trkpt lat="63.889965057" lon="-21.319164276">
<ele>-0.310875</ele>
<time>2012-07-27T19:44:48Z</time>
<speed>3.750000</speed>
<extensions>
<speed>3.8</speed>
<temp>0.00</temp>
<bpm>0</bpm>
<rpm>0.00</rpm>
</extensions>
</trkpt>
<trkpt lat="63.889961243" lon="-21.319574356">
<ele>-2.115967</ele>
<time>2012-07-27T19:44:53Z</time>
<speed>3.860000</speed>
<extensions>
<speed>3.9</speed>
<temp>0.00</temp>
<bpm>0</bpm>
<rpm>0.00</rpm>
</extensions>
</trkpt>
<trkpt lat="63.889953613" lon="-21.319971085">
<ele>-2.265015</ele>
<time>2012-07-27T19:44:58Z</time>
<speed>3.630000</speed>
<extensions>
<speed>3.6</speed>
<temp>0.00</temp>
<bpm>0</bpm>
<rpm>0.00</rpm>
</extensions>
</trkpt>
<trkpt lat="63.889949799" lon="-21.320337296">
<ele>-2.065613</ele>
<time>2012-07-27T19:45:03Z</time>
<speed>4.090000</speed>
<extensions>
<speed>4.1</speed>
<temp>0.00</temp>
<bpm>0</bpm>
<rpm>0.00</rpm>
</extensions>
</trkpt>
<trkpt lat="63.889949799" lon="-21.320709229">
<ele>-1.016449</ele>
<time>2012-07-27T19:45:08Z</time>
<speed>3.690000</speed>
<extensions>
<speed>3.7</speed>
<temp>0.00</temp>
<bpm>0</bpm>
<rpm>0.00</rpm>
</extensions>
</trkpt>
<trkpt lat="63.889949799" lon="-21.321060181">
<ele>-0.323540</ele>
<time>2012-07-27T19:45:13Z</time>
<speed>3.580000</speed>
<extensions>
<speed>3.6</speed>
<temp>0.00</temp>
<bpm>0</bpm>
<rpm>0.00</rpm>
</extensions>
</trkpt>
<trkpt lat="63.889938354" lon="-21.321414948">
<ele>0.292557</ele>
<time>2012-07-27T19:45:18Z</time>
<speed>3.370000</speed>
<extensions>
<speed>3.4</speed>
<temp>0.00</temp>
<bpm>0</bpm>
<rpm>0.00</rpm>
</extensions>
</trkpt>
<trkpt lat="63.889938354" lon="-21.321771622">
<ele>0.580780</ele>
<time>2012-07-27T19:45:23Z</time>
<speed>3.230000</speed>
<extensions>
<speed>3.2</speed>
<temp>0.00</temp>
<bpm>0</bpm>
<rpm>0.00</rpm>
</extensions>
</trkpt>
<trkpt lat="63.889926910" lon="-21.322107315">
<ele>0.513306</ele>
<time>2012-07-27T19:45:28Z</time>
<speed>2.850000</speed>
<extensions>
<speed>2.9</speed>
<temp>0.00</temp>
<bpm>0</bpm>
<rpm>0.00</rpm>
</extensions>
</trkpt>
<trkpt lat="63.889919281" lon="-21.322383881">
<ele>0.179424</ele>
<time>2012-07-27T19:45:33Z</time>
<speed>2.830000</speed>
<extensions>
<speed>2.8</speed>
<temp>0.00</temp>
<bpm>0</bpm>
<rpm>0.00</rpm>
</extensions>
</trkpt>
<trkpt lat="63.889911652" lon="-21.322643280">
<ele>0.543869</ele>
<time>2012-07-27T19:45:38Z</time>
<speed>2.860000</speed>
<extensions>
<speed>2.9</speed>
<temp>0.00</temp>
<bpm>0</bpm>
<rpm>0.00</rpm>
</extensions>
</trkpt>
<trkpt lat="63.889904022" lon="-21.322944641">
<ele>1.143311</ele>
<time>2012-07-27T19:45:43Z</time>
<speed>3.220000</speed>
<extensions>
<speed>3.2</speed>
<temp>0.00</temp>
<bpm>0</bpm>
<rpm>0.00</rpm>
</extensions>
</trkpt>
<trkpt lat="63.889896393" lon="-21.323217392">
<ele>1.873108</ele>
<time>2012-07-27T19:45:48Z</time>
<speed>2.180000</speed>
<extensions>
<speed>2.2</speed>
<temp>0.00</temp>
<bpm>0</bpm>
<rpm>0.00</rpm>
</extensions>
</trkpt>
<trkpt lat="63.889884949" lon="-21.323499680">
<ele>2.303040</ele>
<time>2012-07-27T19:45:53Z</time>
<speed>2.900000</speed>
<extensions>
<speed>2.9</speed>
<temp>0.00</temp>
<bpm>0</bpm>
<rpm>0.00</rpm>
</extensions>
</trkpt>
<trkpt lat="63.889877319" lon="-21.323808670">
<ele>1.688995</ele>
<time>2012-07-27T19:45:58Z</time>
<speed>2.800000</speed>
<extensions>
<speed>2.8</speed>
<temp>0.00</temp>
<bpm>0</bpm>
<rpm>0.00</rpm>
</extensions>
</trkpt>
<trkpt lat="63.889869690" lon="-21.324102402">
<ele>0.059690</ele>
<time>2012-07-27T19:46:03Z</time>
<speed>2.780000</speed>
<extensions>
<speed>2.8</speed>
<temp>0.00</temp>
<bpm>0</bpm>
<rpm>0.00</rpm>
</extensions>
</trkpt>
<trkpt lat="63.889858246" lon="-21.324357986">
<ele>0.554001</ele>
<time>2012-07-27T19:46:08Z</time>
<speed>2.800000</speed>
<extensions>
<speed>2.8</speed>
<temp>0.00</temp>
<bpm>0</bpm>
<rpm>0.00</rpm>
</extensions>
</trkpt>
<trkpt lat="63.889842987" lon="-21.324623108">
<ele>0.948486</ele>
<time>2012-07-27T19:46:13Z</time>
<speed>2.640000</speed>
<extensions>
<speed>2.6</speed>
<temp>0.00</temp>
<bpm>0</bpm>
<rpm>0.00</rpm>
</extensions>
</trkpt>
<trkpt lat="63.889831543" lon="-21.324903488">
<ele>-0.674362</ele>
<time>2012-07-27T19:46:18Z</time>
<speed>2.830000</speed>
<extensions>
<speed>2.8</speed>
<temp>0.00</temp>
<bpm>0</bpm>
<rpm>0.00</rpm>
</extensions>
</trkpt>
<trkpt lat="63.889816284" lon="-21.325176239">
<ele>0.026169</ele>
<time>2012-07-27T19:46:23Z</time>
<speed>2.570000</speed>
<extensions>
<speed>2.6</speed>
<temp>0.00</temp>
<bpm>0</bpm>
<rpm>0.00</rpm>
</extensions>
</trkpt>
<trkpt lat="63.889804840" lon="-21.325456619">
<ele>-0.024550</ele>
<time>2012-07-27T19:46:28Z</time>
<speed>2.880000</speed>
<extensions>
<speed>2.9</speed>
<temp>0.00</temp>
<bpm>0</bpm>
<rpm>0.00</rpm>
</extensions>
</trkpt>
<trkpt lat="63.889797211" lon="-21.325706482">
<ele>0.124060</ele>
<time>2012-07-27T19:46:33Z</time>
<speed>2.550000</speed>
<extensions>
<speed>2.6</speed>
<temp>0.00</temp>
<bpm>0</bpm>
<rpm>0.00</rpm>
</extensions>
</trkpt>
<trkpt lat="63.889781952" lon="-21.325973511">
<ele>0.787048</ele>
<time>2012-07-27T19:46:38Z</time>
<speed>2.650000</speed>
<extensions>
<speed>2.6</speed>
<temp>0.00</temp>
<bpm>0</bpm>
<rpm>0.00</rpm>
</extensions>
</trkpt>
<trkpt lat="63.889774323" lon="-21.326234818">
<ele>0.545319</ele>
<time>2012-07-27T19:46:43Z</time>
<speed>2.490000</speed>
<extensions>
<speed>2.5</speed>
<temp>0.00</temp>
<bpm>0</bpm>
<rpm>0.00</rpm>
</extensions>
</trkpt>
<trkpt lat="63.889759064" lon="-21.326509476">
<ele>0.607300</ele>
<time>2012-07-27T19:46:48Z</time>
<speed>2.930000</speed>
<extensions>
<speed>2.9</speed>
<temp>0.00</temp>
<bpm>0</bpm>
<rpm>0.00</rpm>
</extensions>
</trkpt>
<trkpt lat="63.889747620" lon="-21.326814651">
<ele>0.904968</ele>
<time>2012-07-27T19:46:53Z</time>
<speed>3.180000</speed>
<extensions>
<speed>3.2</speed>
<temp>0.00</temp>
<bpm>0</bpm>
<rpm>0.00</rpm>
</extensions>
</trkpt>
<trkpt lat="63.889732361" lon="-21.327072144">
<ele>0.175198</ele>
<time>2012-07-27T19:46:58Z</time>
<speed>1.880000</speed>
<extensions>
<speed>1.9</speed>
<temp>0.00</temp>
<bpm>0</bpm>
<rpm>0.00</rpm>
</extensions>
</trkpt>
<trkpt lat="63.889717102" lon="-21.327318192">
<ele>0.540680</ele>
<time>2012-07-27T19:47:03Z</time>
<speed>3.370000</speed>
<extensions>
<speed>3.4</speed>
<temp>0.00</temp>
<bpm>0</bpm>
<rpm>0.00</rpm>
</extensions>
</trkpt>
<trkpt lat="63.889701843" lon="-21.327646255">
<ele>0.684250</ele>
<time>2012-07-27T19:47:08Z</time>
<speed>3.180000</speed>
<extensions>
<speed>3.2</speed>
<temp>0.00</temp>
<bpm>0</bpm>
<rpm>0.00</rpm>
</extensions>
</trkpt>
<trkpt lat="63.889686584" lon="-21.327981949">
<ele>0.468437</ele>
<time>2012-07-27T19:47:13Z</time>
<speed>3.350000</speed>
<extensions>
<speed>3.4</speed>
<temp>0.00</temp>
<bpm>0</bpm>
<rpm>0.00</rpm>
</extensions>
</trkpt>
<trkpt lat="63.889663696" lon="-21.328336716">
<ele>0.063099</ele>
<time>2012-07-27T19:47:18Z</time>
<speed>3.650000</speed>
<extensions>
<speed>3.7</speed>
<temp>0.00</temp>
<bpm>0</bpm>
<rpm>0.00</rpm>
</extensions>
</trkpt>
<trkpt lat="63.889644623" lon="-21.328706741">
<ele>-0.164852</ele>
<time>2012-07-27T19:47:23Z</time>
<speed>3.570000</speed>
<extensions>
<speed>3.6</speed>
<temp>0.00</temp>
<bpm>0</bpm>
<rpm>0.00</rpm>
</extensions>
</trkpt>
<trkpt lat="63.889614105" lon="-21.329103470">
<ele>0.219299</ele>
<time>2012-07-27T19:47:28Z</time>
<speed>3.980000</speed>
<extensions>
<speed>4.0</speed>
<temp>0.00</temp>
<bpm>0</bpm>
<rpm>0.00</rpm>
</extensions>
</trkpt>
<trkpt lat="63.889587402" lon="-21.329515457">
<ele>0.371132</ele>
<time>2012-07-27T19:47:33Z</time>
<speed>4.350000</speed>
<extensions>
<speed>4.3</speed>
<temp>0.00</temp>
<bpm>0</bpm>
<rpm>0.00</rpm>
</extensions>
</trkpt>
<trkpt lat="63.889560699" lon="-21.329912186">
<ele>0.375107</ele>
<time>2012-07-27T19:47:38Z</time>
<speed>3.870000</speed>
<extensions>
<speed>3.9</speed>
<temp>0.00</temp>
<bpm>0</bpm>
<rpm>0.00</rpm>
</extensions>
</trkpt>
<trkpt lat="63.889537811" lon="-21.330337524">
<ele>0.629852</ele>
<time>2012-07-27T19:47:43Z</time>
<speed>4.440000</speed>
<extensions>
<speed>4.4</speed>
<temp>0.00</temp>
<bpm>0</bpm>
<rpm>0.00</rpm>
</extensions>
</trkpt>
<trkpt lat="63.889503479" lon="-21.330753326">
<ele>1.262726</ele>
<time>2012-07-27T19:47:48Z</time>
<speed>3.320000</speed>
<extensions>
<speed>3.3</speed>
<temp>0.00</temp>
<bpm>0</bpm>
<rpm>0.00</rpm>
</extensions>
</trkpt>
<trkpt lat="63.889480591" lon="-21.331110001">
<ele>1.900452</ele>
<time>2012-07-27T19:47:53Z</time>
<speed>4.010000</speed>
<extensions>
<speed>4.0</speed>
<temp>0.00</temp>
<bpm>0</bpm>
<rpm>0.00</rpm>
</extensions>
</trkpt>
<trkpt lat="63.889453888" lon="-21.331544876">
<ele>1.996979</ele>
<time>2012-07-27T19:47:58Z</time>
<speed>4.370000</speed>
<extensions>
<speed>4.4</speed>
<temp>0.00</temp>
<bpm>0</bpm>
<rpm>0.00</rpm>
</extensions>
</trkpt>
<trkpt lat="63.889419556" lon="-21.332021713">
<ele>1.876007</ele>
<time>2012-07-27T19:48:03Z</time>
<speed>4.770000</speed>
<extensions>
<speed>4.8</speed>
<temp>0.00</temp>
<bpm>0</bpm>
<rpm>0.00</rpm>
</extensions>
</trkpt>
<trkpt lat="63.889389038" lon="-21.332433701">
<ele>2.267456</ele>
<time>2012-07-27T19:48:08Z</time>
<speed>4.140000</speed>
<extensions>
<speed>4.1</speed>
<temp>0.00</temp>
<bpm>0</bpm>
<rpm>0.00</rpm>
</extensions>
</trkpt>
<trkpt lat="63.889358521" lon="-21.332897186">
<ele>2.390503</ele>
<time>2012-07-27T19:48:13Z</time>
<speed>4.960000</speed>
<extensions>
<speed>5.0</speed>
<temp>0.00</temp>
<bpm>0</bpm>
<rpm>0.00</rpm>
</extensions>
</trkpt>
<trkpt lat="63.889331818" lon="-21.333351135">
<ele>2.073853</ele>
<time>2012-07-27T19:48:18Z</time>
<speed>3.730000</speed>
<extensions>
<speed>3.7</speed>
<temp>0.00</temp>
<bpm>0</bpm>
<rpm>0.00</rpm>
</extensions>
</trkpt>
<trkpt lat="63.889305115" lon="-21.333774567">
<ele>2.540466</ele>
<time>2012-07-27T19:48:23Z</time>
<speed>4.640000</speed>
<extensions>
<speed>4.6</speed>
<temp>0.00</temp>
<bpm>0</bpm>
<rpm>0.00</rpm>
</extensions>
</trkpt>
<trkpt lat="63.889286041" lon="-21.334253311">
<ele>3.089661</ele>
<time>2012-07-27T19:48:28Z</time>
<speed>4.620000</speed>
<extensions>
<speed>4.6</speed>
<temp>0.00</temp>
<bpm>0</bpm>
<rpm>0.00</rpm>
</extensions>
</trkpt>
<trkpt lat="63.889263153" lon="-21.334724426">
<ele>3.464844</ele>
<time>2012-07-27T19:48:33Z</time>
<speed>4.530000</speed>
<extensions>
<speed>4.5</speed>
<temp>0.00</temp>
<bpm>0</bpm>
<rpm>0.00</rpm>
</extensions>
</trkpt>
<trkpt lat="63.889247894" lon="-21.335153580">
<ele>4.165649</ele>
<time>2012-07-27T19:48:38Z</time>
<speed>4.260000</speed>
<extensions>
<speed>4.3</speed>
<temp>0.00</temp>
<bpm>0</bpm>
<rpm>0.00</rpm>
</extensions>
</trkpt>
<trkpt lat="63.889236450" lon="-21.335559845">
<ele>4.387573</ele>
<time>2012-07-27T19:48:43Z</time>
<speed>4.030000</speed>
<extensions>
<speed>4.0</speed>
<temp>0.00</temp>
<bpm>0</bpm>
<rpm>0.00</rpm>
</extensions>
</trkpt>
<trkpt lat="63.889240265" lon="-21.336000443">
<ele>4.613647</ele>
<time>2012-07-27T19:48:48Z</time>
<speed>4.220000</speed>
<extensions>
<speed>4.2</speed>
<temp>0.00</temp>
<bpm>0</bpm>
<rpm>0.00</rpm>
</extensions>
</trkpt>
<trkpt lat="63.889240265" lon="-21.336431503">
<ele>4.770020</ele>
<time>2012-07-27T19:48:53Z</time>
<speed>4.660000</speed>
<extensions>
<speed>4.7</speed>
<temp>0.00</temp>
<bpm>0</bpm>
<rpm>0.00</rpm>
</extensions>
</trkpt>
<trkpt lat="63.889247894" lon="-21.336923599">
<ele>5.119995</ele>
<time>2012-07-27T19:48:58Z</time>
<speed>4.120000</speed>
<extensions>
<speed>4.1</speed>
<temp>0.00</temp>
<bpm>0</bpm>
<rpm>0.00</rpm>
</extensions>
</trkpt>
<trkpt lat="63.889270782" lon="-21.337318420">
<ele>5.351685</ele>
<time>2012-07-27T19:49:03Z</time>
<speed>4.250000</speed>
<extensions>
<speed>4.3</speed>
<temp>0.00</temp>
<bpm>0</bpm>
<rpm>0.00</rpm>
</extensions>
</trkpt>
<trkpt lat="63.889289856" lon="-21.337779999">
<ele>5.671021</ele>
<time>2012-07-27T19:49:08Z</time>
<speed>4.750000</speed>
<extensions>
<speed>4.8</speed>
<temp>0.00</temp>
<bpm>0</bpm>
<rpm>0.00</rpm>
</extensions>
</trkpt>
<trkpt lat="63.889316559" lon="-21.338197708">
<ele>5.767944</ele>
<time>2012-07-27T19:49:13Z</time>
<speed>3.670000</speed>
<extensions>
<speed>3.7</speed>
<temp>0.00</temp>
<bpm>0</bpm>
<rpm>0.00</rpm>
</extensions>
</trkpt>
<trkpt lat="63.889343262" lon="-21.338525772">
<ele>6.870117</ele>
<time>2012-07-27T19:49:18Z</time>
<speed>3.480000</speed>
<extensions>
<speed>3.5</speed>
<temp>0.00</temp>
<bpm>0</bpm>
<rpm>0.00</rpm>
</extensions>
</trkpt>
<trkpt lat="63.889381409" lon="-21.338939667">
<ele>7.110352</ele>
<time>2012-07-27T19:49:23Z</time>
<speed>4.710000</speed>
<extensions>
<speed>4.7</speed>
<temp>0.00</temp>
<bpm>0</bpm>
<rpm>0.00</rpm>
</extensions>
</trkpt>
<trkpt lat="63.889423370" lon="-21.339399338">
<ele>7.446533</ele>
<time>2012-07-27T19:49:28Z</time>
<speed>4.210000</speed>
<extensions>
<speed>4.2</speed>
<temp>0.00</temp>
<bpm>0</bpm>
<rpm>0.00</rpm>
</extensions>
</trkpt>
<trkpt lat="63.889472961" lon="-21.339864731">
<ele>7.747559</ele>
<time>2012-07-27T19:49:33Z</time>
<speed>5.000000</speed>
<extensions>
<speed>5.0</speed>
<temp>0.00</temp>
<bpm>0</bpm>
<rpm>0.00</rpm>
</extensions>
</trkpt>
<trkpt lat="63.889530182" lon="-21.340333939">
<ele>8.020264</ele>
<time>2012-07-27T19:49:38Z</time>
<speed>4.140000</speed>
<extensions>
<speed>4.1</speed>
<temp>0.00</temp>
<bpm>0</bpm>
<rpm>0.00</rpm>
</extensions>
</trkpt>
<trkpt lat="63.889587402" lon="-21.340726852">
<ele>8.449707</ele>
<time>2012-07-27T19:49:43Z</time>
<speed>4.290000</speed>
<extensions>
<speed>4.3</speed>
<temp>0.00</temp>
<bpm>0</bpm>
<rpm>0.00</rpm>
</extensions>
</trkpt>
<trkpt lat="63.889656067" lon="-21.341169357">
<ele>8.538574</ele>
<time>2012-07-27T19:49:48Z</time>
<speed>5.000000</speed>
<extensions>
<speed>5.0</speed>
<temp>0.00</temp>
<bpm>0</bpm>
<rpm>0.00</rpm>
</extensions>
</trkpt>
<trkpt lat="63.889720917" lon="-21.341594696">
<ele>9.106689</ele>
<time>2012-07-27T19:49:53Z</time>
<speed>3.800000</speed>
<extensions>
<speed>3.8</speed>
<temp>0.00</temp>
<bpm>0</bpm>
<rpm>0.00</rpm>
</extensions>
</trkpt>
<trkpt lat="63.889789581" lon="-21.341964722">
<ele>9.578857</ele>
<time>2012-07-27T19:49:58Z</time>
<speed>4.020000</speed>
<extensions>
<speed>4.0</speed>
<temp>0.00</temp>
<bpm>0</bpm>
<rpm>0.00</rpm>
</extensions>
</trkpt>
<trkpt lat="63.889850616" lon="-21.342317581">
<ele>9.475586</ele>
<time>2012-07-27T19:50:03Z</time>
<speed>3.940000</speed>
<extensions>
<speed>3.9</speed>
<temp>0.00</temp>
<bpm>0</bpm>
<rpm>0.00</rpm>
</extensions>
</trkpt>
<trkpt lat="63.889911652" lon="-21.342695236">
<ele>9.729248</ele>
<time>2012-07-27T19:50:08Z</time>
<speed>3.780000</speed>
<extensions>
<speed>3.8</speed>
<temp>0.00</temp>
<bpm>0</bpm>
<rpm>0.00</rpm>
</extensions>
</trkpt>
<trkpt lat="63.889987946" lon="-21.343038559">
<ele>10.114746</ele>
<time>2012-07-27T19:50:13Z</time>
<speed>3.980000</speed>
<extensions>
<speed>4.0</speed>
<temp>0.00</temp>
<bpm>0</bpm>
<rpm>0.00</rpm>
</extensions>
</trkpt>
<trkpt lat="63.890060425" lon="-21.343446732">
<ele>10.123291</ele>
<time>2012-07-27T19:50:18Z</time>
<speed>4.120000</speed>
<extensions>
<speed>4.1</speed>
<temp>0.00</temp>
<bpm>0</bpm>
<rpm>0.00</rpm>
</extensions>
</trkpt>
<trkpt lat="63.890136719" lon="-21.343835831">
<ele>10.549316</ele>
<time>2012-07-27T19:50:23Z</time>
<speed>4.440000</speed>
<extensions>
<speed>4.4</speed>
<temp>0.00</temp>
<bpm>0</bpm>
<rpm>0.00</rpm>
</extensions>
</trkpt>
<trkpt lat="63.890216827" lon="-21.344255447">
<ele>10.882080</ele>
<time>2012-07-27T19:50:28Z</time>
<speed>3.830000</speed>
<extensions>
<speed>3.8</speed>
<temp>0.00</temp>
<bpm>0</bpm>
<rpm>0.00</rpm>
</extensions>
</trkpt>
<trkpt lat="63.890281677" lon="-21.344615936">
<ele>11.017090</ele>
<time>2012-07-27T19:50:33Z</time>
<speed>4.100000</speed>
<extensions>
<speed>4.1</speed>
<temp>0.00</temp>
<bpm>0</bpm>
<rpm>0.00</rpm>
</extensions>
</trkpt>
<trkpt lat="63.890354156" lon="-21.345045090">
<ele>11.066162</ele>
<time>2012-07-27T19:50:38Z</time>
<speed>3.930000</speed>
<extensions>
<speed>3.9</speed>
<temp>0.00</temp>
<bpm>0</bpm>
<rpm>0.00</rpm>
</extensions>
</trkpt>
<trkpt lat="63.890415192" lon="-21.345396042">
<ele>11.236084</ele>
<time>2012-07-27T19:50:43Z</time>
<speed>3.770000</speed>
<extensions>
<speed>3.8</speed>
<temp>0.00</temp>
<bpm>0</bpm>
<rpm>0.00</rpm>
</extensions>
</trkpt>
<trkpt lat="63.890483856" lon="-21.345767975">
<ele>11.232422</ele>
<time>2012-07-27T19:50:48Z</time>
<speed>4.070000</speed>
<extensions>
<speed>4.1</speed>
<temp>0.00</temp>
<bpm>0</bpm>
<rpm>0.00</rpm>
</extensions>
</trkpt>
<trkpt lat="63.890541077" lon="-21.346097946">
<ele>11.094482</ele>
<time>2012-07-27T19:50:53Z</time>
<speed>2.840000</speed>
<extensions>
<speed>2.8</speed>
<temp>0.00</temp>
<bpm>0</bpm>
<rpm>0.00</rpm>
</extensions>
</trkpt>
<trkpt lat="63.890594482" lon="-21.346437454">
<ele>11.306885</ele>
<time>2012-07-27T19:50:58Z</time>
<speed>4.240000</speed>
<extensions>
<speed>4.2</speed>
<temp>0.00</temp>
<bpm>0</bpm>
<rpm>0.00</rpm>
</extensions>
</trkpt>
<trkpt lat="63.890663147" lon="-21.346860886">
<ele>11.454590</ele>
<time>2012-07-27T19:51:03Z</time>
<speed>4.300000</speed>
<extensions>
<speed>4.3</speed>
<temp>0.00</temp>
<bpm>0</bpm>
<rpm>0.00</rpm>
</extensions>
</trkpt>
<trkpt lat="63.890716553" lon="-21.347196579">
<ele>11.217773</ele>
<time>2012-07-27T19:51:08Z</time>
<speed>2.970000</speed>
<extensions>
<speed>3.0</speed>
<temp>0.00</temp>
<bpm>0</bpm>
<rpm>0.00</rpm>
</extensions>
</trkpt>
<trkpt lat="63.890766144" lon="-21.347524643">
<ele>11.246826</ele>
<time>2012-07-27T19:51:13Z</time>
<speed>3.810000</speed>
<extensions>
<speed>3.8</speed>
<temp>0.00</temp>
<bpm>0</bpm>
<rpm>0.00</rpm>
</extensions>
</trkpt>
<trkpt lat="63.890819550" lon="-21.347932816">
<ele>11.134277</ele>
<time>2012-07-27T19:51:18Z</time>
<speed>4.380000</speed>
<extensions>
<speed>4.4</speed>
<temp>0.00</temp>
<bpm>0</bpm>
<rpm>0.00</rpm>
</extensions>
</trkpt>
<trkpt lat="63.890869141" lon="-21.348400116">
<ele>11.064697</ele>
<time>2012-07-27T19:51:23Z</time>
<speed>4.840000</speed>
<extensions>
<speed>4.8</speed>
<temp>0.00</temp>
<bpm>0</bpm>
<rpm>0.00</rpm>
</extensions>
</trkpt>
<trkpt lat="63.890914917" lon="-21.348892212">
<ele>11.218994</ele>
<time>2012-07-27T19:51:28Z</time>
<speed>4.410000</speed>
<extensions>
<speed>4.4</speed>
<temp>0.00</temp>
<bpm>0</bpm>
<rpm>0.00</rpm>
</extensions>
</trkpt>
<trkpt lat="63.890945435" lon="-21.349296570">
<ele>10.952881</ele>
<time>2012-07-27T19:51:33Z</time>
<speed>4.230000</speed>
<extensions>
<speed>4.2</speed>
<temp>0.00</temp>
<bpm>0</bpm>
<rpm>0.00</rpm>
</extensions>
</trkpt>
<trkpt lat="63.890975952" lon="-21.349746704">
<ele>11.076416</ele>
<time>2012-07-27T19:51:38Z</time>
<speed>4.530000</speed>
<extensions>
<speed>4.5</speed>
<temp>0.00</temp>
<bpm>0</bpm>
<rpm>0.00</rpm>
</extensions>
</trkpt>
<trkpt lat="63.891002655" lon="-21.350187302">
<ele>11.367676</ele>
<time>2012-07-27T19:51:43Z</time>
<speed>4.430000</speed>
<extensions>
<speed>4.4</speed>
<temp>0.00</temp>
<bpm>0</bpm>
<rpm>0.00</rpm>
</extensions>
</trkpt>
<trkpt lat="63.891021729" lon="-21.350650787">
<ele>11.239258</ele>
<time>2012-07-27T19:51:48Z</time>
<speed>4.600000</speed>
<extensions>
<speed>4.6</speed>
<temp>0.00</temp>
<bpm>0</bpm>
<rpm>0.00</rpm>
</extensions>
</trkpt>
<trkpt lat="63.891033173" lon="-21.351047516">
<ele>11.194336</ele>
<time>2012-07-27T19:51:53Z</time>
<speed>3.080000</speed>
<extensions>
<speed>3.1</speed>
<temp>0.00</temp>
<bpm>0</bpm>
<rpm>0.00</rpm>
</extensions>
</trkpt>
<trkpt lat="63.891040802" lon="-21.351360321">
<ele>11.003662</ele>
<time>2012-07-27T19:51:58Z</time>
<speed>3.580000</speed>
<extensions>
<speed>3.6</speed>
<temp>0.00</temp>
<bpm>0</bpm>
<rpm>0.00</rpm>
</extensions>
</trkpt>
<trkpt lat="63.891040802" lon="-21.351751328">
<ele>10.933594</ele>
<time>2012-07-27T19:52:03Z</time>
<speed>3.980000</speed>
<extensions>
<speed>4.0</speed>
<temp>0.00</temp>
<bpm>0</bpm>
<rpm>0.00</rpm>
</extensions>
</trkpt>
<trkpt lat="63.891048431" lon="-21.352155685">
<ele>10.790283</ele>
<time>2012-07-27T19:52:08Z</time>
<speed>4.070000</speed>
<extensions>
<speed>4.1</speed>
<temp>0.00</temp>
<bpm>0</bpm>
<rpm>0.00</rpm>
</extensions>
</trkpt>
<trkpt lat="63.891048431" lon="-21.352561951">
<ele>10.779785</ele>
<time>2012-07-27T19:52:13Z</time>
<speed>4.100000</speed>
<extensions>
<speed>4.1</speed>
<temp>0.00</temp>
<bpm>0</bpm>
<rpm>0.00</rpm>
</extensions>
</trkpt>
<trkpt lat="63.891048431" lon="-21.352993011">
<ele>10.865479</ele>
<time>2012-07-27T19:52:18Z</time>
<speed>4.200000</speed>
<extensions>
<speed>4.2</speed>
<temp>0.00</temp>
<bpm>0</bpm>
<rpm>0.00</rpm>
</extensions>
</trkpt>
<trkpt lat="63.891044617" lon="-21.353376389">
<ele>10.844238</ele>
<time>2012-07-27T19:52:23Z</time>
<speed>2.980000</speed>
<extensions>
<speed>3.0</speed>
<temp>0.00</temp>
<bpm>0</bpm>
<rpm>0.00</rpm>
</extensions>
</trkpt>
<trkpt lat="63.891048431" lon="-21.353607178">
<ele>10.972412</ele>
<time>2012-07-27T19:52:28Z</time>
<speed>2.310000</speed>
<extensions>
<speed>2.3</speed>
<temp>0.00</temp>
<bpm>0</bpm>
<rpm>0.00</rpm>
</extensions>
</trkpt>
<trkpt lat="63.891044617" lon="-21.353921890">
<ele>10.986816</ele>
<time>2012-07-27T19:52:33Z</time>
<speed>3.550000</speed>
<extensions>
<speed>3.5</speed>
<temp>0.00</temp>
<bpm>0</bpm>
<rpm>0.00</rpm>
</extensions>
</trkpt>
<trkpt lat="63.891036987" lon="-21.354320526">
<ele>10.638916</ele>
<time>2012-07-27T19:52:38Z</time>
<speed>4.350000</speed>
<extensions>
<speed>4.3</speed>
<temp>0.00</temp>
<bpm>0</bpm>
<rpm>0.00</rpm>
</extensions>
</trkpt>
<trkpt lat="63.891040802" lon="-21.354751587">
<ele>9.386963</ele>
<time>2012-07-27T19:52:43Z</time>
<speed>4.530000</speed>
<extensions>
<speed>4.5</speed>
<temp>0.00</temp>
<bpm>0</bpm>
<rpm>0.00</rpm>
</extensions>
</trkpt>
<trkpt lat="63.891033173" lon="-21.355192184">
<ele>9.221436</ele>
<time>2012-07-27T19:52:48Z</time>
<speed>4.560000</speed>
<extensions>
<speed>4.6</speed>
<temp>0.00</temp>
<bpm>0</bpm>
<rpm>0.00</rpm>
</extensions>
</trkpt>
<trkpt lat="63.891040802" lon="-21.355602264">
<ele>9.241699</ele>
<time>2012-07-27T19:52:53Z</time>
<speed>3.920000</speed>
<extensions>
<speed>3.9</speed>
<temp>0.00</temp>
<bpm>0</bpm>
<rpm>0.00</rpm>
</extensions>
</trkpt>
<trkpt lat="63.891040802" lon="-21.356014252">
<ele>9.014404</ele>
<time>2012-07-27T19:52:58Z</time>
<speed>4.200000</speed>
<extensions>
<speed>4.2</speed>
<temp>0.00</temp>
<bpm>0</bpm>
<rpm>0.00</rpm>
</extensions>
</trkpt>
<trkpt lat="63.891044617" lon="-21.356451035">
<ele>9.103027</ele>
<time>2012-07-27T19:53:03Z</time>
<speed>4.490000</speed>
<extensions>
<speed>4.5</speed>
<temp>0.00</temp>
<bpm>0</bpm>
<rpm>0.00</rpm>
</extensions>
</trkpt>
<trkpt lat="63.891048431" lon="-21.356916428">
<ele>9.301758</ele>
<time>2012-07-27T19:53:08Z</time>
<speed>3.940000</speed>
<extensions>
<speed>3.9</speed>
<temp>0.00</temp>
<bpm>0</bpm>
<rpm>0.00</rpm>
</extensions>
</trkpt>
<trkpt lat="63.891052246" lon="-21.357219696">
<ele>9.352051</ele>
<time>2012-07-27T19:53:13Z</time>
<speed>2.210000</speed>
<extensions>
<speed>2.2</speed>
<temp>0.00</temp>
<bpm>0</bpm>
<rpm>0.00</rpm>
</extensions>
</trkpt>
<trkpt lat="63.891048431" lon="-21.357425690">
<ele>9.634277</ele>
<time>2012-07-27T19:53:18Z</time>
<speed>2.530000</speed>
<extensions>
<speed>2.5</speed>
<temp>0.00</temp>
<bpm>0</bpm>
<rpm>0.00</rpm>
</extensions>
</trkpt>
<trkpt lat="63.891063690" lon="-21.357742310">
<ele>9.565674</ele>
<time>2012-07-27T19:53:23Z</time>
<speed>3.430000</speed>
<extensions>
<speed>3.4</speed>
<temp>0.00</temp>
<bpm>0</bpm>
<rpm>0.00</rpm>
</extensions>
</trkpt>
<trkpt lat="63.891086578" lon="-21.358119965">
<ele>9.673828</ele>
<time>2012-07-27T19:53:28Z</time>
<speed>3.870000</speed>
<extensions>
<speed>3.9</speed>
<temp>0.00</temp>
<bpm>0</bpm>
<rpm>0.00</rpm>
</extensions>
</trkpt>
<trkpt lat="63.891105652" lon="-21.358512878">
<ele>9.980225</ele>
<time>2012-07-27T19:53:33Z</time>
<speed>3.870000</speed>
<extensions>
<speed>3.9</speed>
<temp>0.00</temp>
<bpm>0</bpm>
<rpm>0.00</rpm>
</extensions>
</trkpt>
<trkpt lat="63.891132355" lon="-21.358919144">
<ele>10.316895</ele>
<time>2012-07-27T19:53:38Z</time>
<speed>4.180000</speed>
<extensions>
<speed>4.2</speed>
<temp>0.00</temp>
<bpm>0</bpm>
<rpm>0.00</rpm>
</extensions>
</trkpt>
<trkpt lat="63.891155243" lon="-21.359327316">
<ele>10.800049</ele>
<time>2012-07-27T19:53:43Z</time>
<speed>3.360000</speed>
<extensions>
<speed>3.4</speed>
<temp>0.00</temp>
<bpm>0</bpm>
<rpm>0.00</rpm>
</extensions>
</trkpt>
<trkpt lat="63.891178131" lon="-21.359584808">
<ele>11.161133</ele>
<time>2012-07-27T19:53:48Z</time>
<speed>2.560000</speed>
<extensions>
<speed>2.6</speed>
<temp>0.00</temp>
<bpm>0</bpm>
<rpm>0.00</rpm>
</extensions>
</trkpt>
<trkpt lat="63.891197205" lon="-21.359907150">
<ele>11.568359</ele>
<time>2012-07-27T19:53:53Z</time>
<speed>3.720000</speed>
<extensions>
<speed>3.7</speed>
<temp>0.00</temp>
<bpm>0</bpm>
<rpm>0.00</rpm>
</extensions>
</trkpt>
<trkpt lat="63.891227722" lon="-21.360321045">
<ele>12.052979</ele>
<time>2012-07-27T19:53:58Z</time>
<speed>3.570000</speed>
<extensions>
<speed>3.6</speed>
<temp>0.00</temp>
<bpm>0</bpm>
<rpm>0.00</rpm>
</extensions>
</trkpt>
<trkpt lat="63.891265869" lon="-21.360664368">
<ele>11.921875</ele>
<time>2012-07-27T19:54:03Z</time>
<speed>3.920000</speed>
<extensions>
<speed>3.9</speed>
<temp>0.00</temp>
<bpm>0</bpm>
<rpm>0.00</rpm>
</extensions>
</trkpt>
<trkpt lat="63.891304016" lon="-21.361085892">
<ele>12.261230</ele>
<time>2012-07-27T19:54:08Z</time>
<speed>3.910000</speed>
<extensions>
<speed>3.9</speed>
<temp>0.00</temp>
<bpm>0</bpm>
<rpm>0.00</rpm>
</extensions>
</trkpt>
<trkpt lat="63.891342163" lon="-21.361492157">
<ele>12.506104</ele>
<time>2012-07-27T19:54:13Z</time>
<speed>4.070000</speed>
<extensions>
<speed>4.1</speed>
<temp>0.00</temp>
<bpm>0</bpm>
<rpm>0.00</rpm>
</extensions>
</trkpt>
<trkpt lat="63.891387939" lon="-21.361824036">
<ele>12.498047</ele>
<time>2012-07-27T19:54:18Z</time>
<speed>3.110000</speed>
<extensions>
<speed>3.1</speed>
<temp>0.00</temp>
<bpm>0</bpm>
<rpm>0.00</rpm>
</extensions>
</trkpt>
<trkpt lat="63.891426086" lon="-21.362140656">
<ele>12.833496</ele>
<time>2012-07-27T19:54:23Z</time>
<speed>3.450000</speed>
<extensions>
<speed>3.5</speed>
<temp>0.00</temp>
<bpm>0</bpm>
<rpm>0.00</rpm>
</extensions>
</trkpt>
<trkpt lat="63.891471863" lon="-21.362497330">
<ele>12.957031</ele>
<time>2012-07-27T19:54:28Z</time>
<speed>3.710000</speed>
<extensions>
<speed>3.7</speed>
<temp>0.00</temp>
<bpm>0</bpm>
<rpm>0.00</rpm>
</extensions>
</trkpt>
<trkpt lat="63.891525269" lon="-21.362876892">
<ele>13.150879</ele>
<time>2012-07-27T19:54:33Z</time>
<speed>4.020000</speed>
<extensions>
<speed>4.0</speed>
<temp>0.00</temp>
<bpm>0</bpm>
<rpm>0.00</rpm>
</extensions>
</trkpt>
<trkpt lat="63.891571045" lon="-21.363283157">
<ele>13.713867</ele>
<time>2012-07-27T19:54:38Z</time>
<speed>4.570000</speed>
<extensions>
<speed>4.6</speed>
<temp>0.00</temp>
<bpm>0</bpm>
<rpm>0.00</rpm>
</extensions>
</trkpt>
<trkpt lat="63.891620636" lon="-21.363666534">
<ele>13.757080</ele>
<time>2012-07-27T19:54:43Z</time>
<speed>3.230000</speed>
<extensions>
<speed>3.2</speed>
<temp>0.00</temp>
<bpm>0</bpm>
<rpm>0.00</rpm>
</extensions>
</trkpt>
<trkpt lat="63.891674042" lon="-21.363975525">
<ele>14.003174</ele>
<time>2012-07-27T19:54:48Z</time>
<speed>3.540000</speed>
<extensions>
<speed>3.5</speed>
<temp>0.00</temp>
<bpm>0</bpm>
<rpm>0.00</rpm>
</extensions>
</trkpt>
<trkpt lat="63.891796112" lon="-21.364139557">
<ele>13.933838</ele>
<time>2012-07-27T19:54:53Z</time>
<speed>2.670000</speed>
<extensions>
<speed>2.7</speed>
<temp>0.00</temp>
<bpm>0</bpm>
<rpm>0.00</rpm>
</extensions>
</trkpt>
<trkpt lat="63.891925812" lon="-21.364234924">
<ele>13.455078</ele>
<time>2012-07-27T19:54:58Z</time>
<speed>2.940000</speed>
<extensions>
<speed>2.9</speed>
<temp>0.00</temp>
<bpm>0</bpm>
<rpm>0.00</rpm>
</extensions>
</trkpt>
<trkpt lat="63.892009735" lon="-21.364398956">
<ele>13.661133</ele>
<time>2012-07-27T19:55:03Z</time>
<speed>1.640000</speed>
<extensions>
<speed>1.6</speed>
<temp>0.00</temp>
<bpm>0</bpm>
<rpm>0.00</rpm>
</extensions>
</trkpt>
<trkpt lat="63.892013550" lon="-21.364423752">
<ele>13.833252</ele>
<time>2012-07-27T19:55:08Z</time>
<speed>0.020000</speed>
<extensions>
<speed>0.0</speed>
<temp>0.00</temp>
<bpm>0</bpm>
<rpm>0.00</rpm>
</extensions>
</trkpt>
<trkpt lat="63.892013550" lon="-21.364421844">
<ele>13.828613</ele>
<time>2012-07-27T19:55:13Z</time>
<speed>0.030000</speed>
<extensions>
<speed>0.0</speed>
<temp>0.00</temp>
<bpm>0</bpm>
<rpm>0.00</rpm>
</extensions>
</trkpt>
<trkpt lat="63.892013550" lon="-21.364421844">
<ele>13.807129</ele>
<time>2012-07-27T19:55:18Z</time>
<speed>0.020000</speed>
<extensions>
<speed>0.0</speed>
<temp>0.00</temp>
<bpm>0</bpm>
<rpm>0.00</rpm>
</extensions>
</trkpt>
<trkpt lat="63.892013550" lon="-21.364421844">
<ele>13.770996</ele>
<time>2012-07-27T19:55:23Z</time>
<speed>0.020000</speed>
<extensions>
<speed>0.0</speed>
<temp>0.00</temp>
<bpm>0</bpm>
<rpm>0.00</rpm>
</extensions>
</trkpt>
<trkpt lat="63.892013550" lon="-21.364421844">
<ele>13.741455</ele>
<time>2012-07-27T19:55:28Z</time>
<speed>0.020000</speed>
<extensions>
<speed>0.0</speed>
<temp>0.00</temp>
<bpm>0</bpm>
<rpm>0.00</rpm>
</extensions>
</trkpt>
<trkpt lat="63.892013550" lon="-21.364421844">
<ele>13.711182</ele>
<time>2012-07-27T19:55:33Z</time>
<speed>0.020000</speed>
<extensions>
<speed>0.0</speed>
<temp>0.00</temp>
<bpm>0</bpm>
<rpm>0.00</rpm>
</extensions>
</trkpt>
<trkpt lat="63.892013550" lon="-21.364421844">
<ele>13.691895</ele>
<time>2012-07-27T19:55:38Z</time>
<extensions>
<speed>0.0</speed>
<temp>0.00</temp>
<bpm>0</bpm>
<rpm>0.00</rpm>
</extensions>
</trkpt>
<trkpt lat="63.892013550" lon="-21.364421844">
<ele>13.681396</ele>
<time>2012-07-27T19:55:43Z</time>
<speed>0.010000</speed>
<extensions>
<speed>0.0</speed>
<temp>0.00</temp>
<bpm>0</bpm>
<rpm>0.00</rpm>
</extensions>
</trkpt>
<trkpt lat="63.892013550" lon="-21.364421844">
<ele>13.680664</ele>
<time>2012-07-27T19:55:48Z</time>
<extensions>
<speed>0.0</speed>
<temp>0.00</temp>
<bpm>0</bpm>
<rpm>0.00</rpm>
</extensions>
</trkpt>
<trkpt lat="63.892013550" lon="-21.364421844">
<ele>13.673828</ele>
<time>2012-07-27T19:55:53Z</time>
<extensions>
<speed>0.0</speed>
<temp>0.00</temp>
<bpm>0</bpm>
<rpm>0.00</rpm>
</extensions>
</trkpt>
<trkpt lat="63.892013550" lon="-21.364421844">
<ele>13.664063</ele>
<time>2012-07-27T19:55:58Z</time>
<extensions>
<speed>0.0</speed>
<temp>0.00</temp>
<bpm>0</bpm>
<rpm>0.00</rpm>
</extensions>
</trkpt>
<trkpt lat="63.892013550" lon="-21.364419937">
<ele>13.658936</ele>
<time>2012-07-27T19:56:03Z</time>
<extensions>
<speed>0.0</speed>
<temp>0.00</temp>
<bpm>0</bpm>
<rpm>0.00</rpm>
</extensions>
</trkpt>
<trkpt lat="63.892013550" lon="-21.364419937">
<ele>13.654297</ele>
<time>2012-07-27T19:56:08Z</time>
<extensions>
<speed>0.0</speed>
<temp>0.00</temp>
<bpm>0</bpm>
<rpm>0.00</rpm>
</extensions>
</trkpt>
<trkpt lat="63.892013550" lon="-21.364419937">
<ele>13.650146</ele>
<time>2012-07-27T19:56:13Z</time>
<extensions>
<speed>0.0</speed>
<temp>0.00</temp>
<bpm>0</bpm>
<rpm>0.00</rpm>
</extensions>
</trkpt>
<trkpt lat="63.892009735" lon="-21.364419937">
<ele>13.677246</ele>
<time>2012-07-27T19:56:18Z</time>
<extensions>
<speed>0.0</speed>
<temp>0.00</temp>
<bpm>0</bpm>
<rpm>0.00</rpm>
</extensions>
</trkpt>
<trkpt lat="63.892009735" lon="-21.364419937">
<ele>13.671875</ele>
<time>2012-07-27T19:56:23Z</time>
<extensions>
<speed>0.0</speed>
<temp>0.00</temp>
<bpm>0</bpm>
<rpm>0.00</rpm>
</extensions>
</trkpt>
<trkpt lat="63.892009735" lon="-21.364419937">
<ele>13.666016</ele>
<time>2012-07-27T19:56:28Z</time>
<speed>0.010000</speed>
<extensions>
<speed>0.0</speed>
<temp>0.00</temp>
<bpm>0</bpm>
<rpm>0.00</rpm>
</extensions>
</trkpt>
<trkpt lat="63.892009735" lon="-21.364419937">
<ele>13.659912</ele>
<time>2012-07-27T19:56:33Z</time>
<extensions>
<speed>0.0</speed>
<temp>0.00</temp>
<bpm>0</bpm>
<rpm>0.00</rpm>
</extensions>
</trkpt>
<trkpt lat="63.892009735" lon="-21.364419937">
<ele>13.655518</ele>
<time>2012-07-27T19:56:38Z</time>
<speed>0.010000</speed>
<extensions>
<speed>0.0</speed>
<temp>0.00</temp>
<bpm>0</bpm>
<rpm>0.00</rpm>
</extensions>
</trkpt>
<trkpt lat="63.892009735" lon="-21.364419937">
<ele>13.646729</ele>
<time>2012-07-27T19:56:43Z</time>
<speed>0.010000</speed>
<extensions>
<speed>0.0</speed>
<temp>0.00</temp>
<bpm>0</bpm>
<rpm>0.00</rpm>
</extensions>
</trkpt>
<trkpt lat="63.892009735" lon="-21.364419937">
<ele>13.636719</ele>
<time>2012-07-27T19:56:48Z</time>
<extensions>
<speed>0.0</speed>
<temp>0.00</temp>
<bpm>0</bpm>
<rpm>0.00</rpm>
</extensions>
</trkpt>
<trkpt lat="63.892009735" lon="-21.364418030">
<ele>13.631836</ele>
<time>2012-07-27T19:56:53Z</time>
<extensions>
<speed>0.0</speed>
<temp>0.00</temp>
<bpm>0</bpm>
<rpm>0.00</rpm>
</extensions>
</trkpt>
<trkpt lat="63.892009735" lon="-21.364418030">
<ele>13.626953</ele>
<time>2012-07-27T19:56:58Z</time>
<speed>0.020000</speed>
<extensions>
<speed>0.0</speed>
<temp>0.00</temp>
<bpm>0</bpm>
<rpm>0.00</rpm>
</extensions>
</trkpt>
<trkpt lat="63.892009735" lon="-21.364418030">
<ele>13.624268</ele>
<time>2012-07-27T19:57:03Z</time>
<speed>0.040000</speed>
<extensions>
<speed>0.0</speed>
<temp>0.00</temp>
<bpm>0</bpm>
<rpm>0.00</rpm>
</extensions>
</trkpt>
<trkpt lat="63.892009735" lon="-21.364418030">
<ele>13.623535</ele>
<time>2012-07-27T19:57:08Z</time>
<extensions>
<speed>0.0</speed>
<temp>0.00</temp>
<bpm>0</bpm>
<rpm>0.00</rpm>
</extensions>
</trkpt>
<trkpt lat="63.892009735" lon="-21.364418030">
<ele>13.616211</ele>
<time>2012-07-27T19:57:13Z</time>
<extensions>
<speed>0.0</speed>
<temp>0.00</temp>
<bpm>0</bpm>
<rpm>0.00</rpm>
</extensions>
</trkpt>
<trkpt lat="63.892009735" lon="-21.364418030">
<ele>13.614502</ele>
<time>2012-07-27T19:57:18Z</time>
<speed>0.010000</speed>
<extensions>
<speed>0.0</speed>
<temp>0.00</temp>
<bpm>0</bpm>
<rpm>0.00</rpm>
</extensions>
</trkpt>
<trkpt lat="63.892009735" lon="-21.364418030">
<ele>13.608643</ele>
<time>2012-07-27T19:57:23Z</time>
<speed>0.120000</speed>
<extensions>
<speed>0.1</speed>
<temp>0.00</temp>
<bpm>0</bpm>
<rpm>0.00</rpm>
</extensions>
</trkpt>
<trkpt lat="63.892013550" lon="-21.364433289">
<ele>13.699707</ele>
<time>2012-07-27T19:57:28Z</time>
<speed>0.240000</speed>
<extensions>
<speed>0.2</speed>
<temp>0.00</temp>
<bpm>0</bpm>
<rpm>0.00</rpm>
</extensions>
</trkpt>
<trkpt lat="63.892013550" lon="-21.364439011">
<ele>13.705811</ele>
<time>2012-07-27T19:57:33Z</time>
<extensions>
<speed>0.0</speed>
<temp>0.00</temp>
<bpm>0</bpm>
<rpm>0.00</rpm>
</extensions>
</trkpt>
<trkpt lat="63.892013550" lon="-21.364439011">
<ele>13.709961</ele>
<time>2012-07-27T19:57:38Z</time>
<extensions>
<speed>0.0</speed>
<temp>0.00</temp>
<bpm>0</bpm>
<rpm>0.00</rpm>
</extensions>
</trkpt>
<trkpt lat="63.892013550" lon="-21.364439011">
<ele>13.718018</ele>
<time>2012-07-27T19:57:43Z</time>
<extensions>
<speed>0.0</speed>
<temp>0.00</temp>
<bpm>0</bpm>
<rpm>0.00</rpm>
</extensions>
</trkpt>
<trkpt lat="63.892013550" lon="-21.364448547">
<ele>13.673096</ele>
<time>2012-07-27T19:57:48Z</time>
<extensions>
<speed>0.0</speed>
<temp>0.00</temp>
<bpm>0</bpm>
<rpm>0.00</rpm>
</extensions>
</trkpt>
<trkpt lat="63.892013550" lon="-21.364450455">
<ele>13.722412</ele>
<time>2012-07-27T19:57:53Z</time>
<speed>0.060000</speed>
<extensions>
<speed>0.1</speed>
<temp>0.00</temp>
<bpm>0</bpm>
<rpm>0.00</rpm>
</extensions>
</trkpt>
<trkpt lat="63.892013550" lon="-21.364444733">
<ele>13.725098</ele>
<time>2012-07-27T19:57:58Z</time>
<speed>0.060000</speed>
<extensions>
<speed>0.1</speed>
<temp>0.00</temp>
<bpm>0</bpm>
<rpm>0.00</rpm>
</extensions>
</trkpt>
<trkpt lat="63.892013550" lon="-21.364439011">
<ele>13.782715</ele>
<time>2012-07-27T19:58:03Z</time>
<speed>0.020000</speed>
<extensions>
<speed>0.0</speed>
<temp>0.00</temp>
<bpm>0</bpm>
<rpm>0.00</rpm>
</extensions>
</trkpt>
<trkpt lat="63.892013550" lon="-21.364439011">
<ele>13.795166</ele>
<time>2012-07-27T19:58:08Z</time>
<speed>0.010000</speed>
<extensions>
<speed>0.0</speed>
<temp>0.00</temp>
<bpm>0</bpm>
<rpm>0.00</rpm>
</extensions>
</trkpt>
<trkpt lat="63.892013550" lon="-21.364442825">
<ele>13.793945</ele>
<time>2012-07-27T19:58:13Z</time>
<speed>0.010000</speed>
<extensions>
<speed>0.0</speed>
<temp>0.00</temp>
<bpm>0</bpm>
<rpm>0.00</rpm>
</extensions>
</trkpt>
<trkpt lat="63.892013550" lon="-21.364444733">
<ele>13.788818</ele>
<time>2012-07-27T19:58:18Z</time>
<extensions>
<speed>0.0</speed>
<temp>0.00</temp>
<bpm>0</bpm>
<rpm>0.00</rpm>
</extensions>
</trkpt>
<trkpt lat="63.892013550" lon="-21.364446640">
<ele>13.772217</ele>
<time>2012-07-27T19:58:23Z</time>
<speed>0.280000</speed>
<extensions>
<speed>0.3</speed>
<temp>0.00</temp>
<bpm>0</bpm>
<rpm>0.00</rpm>
</extensions>
</trkpt>
<trkpt lat="63.892013550" lon="-21.364446640">
<ele>13.767578</ele>
<time>2012-07-27T19:58:28Z</time>
<extensions>
<speed>0.0</speed>
<temp>0.00</temp>
<bpm>0</bpm>
<rpm>0.00</rpm>
</extensions>
</trkpt>
<trkpt lat="63.892013550" lon="-21.364446640">
<ele>13.772461</ele>
<time>2012-07-27T19:58:33Z</time>
<speed>0.030000</speed>
<extensions>
<speed>0.0</speed>
<temp>0.00</temp>
<bpm>0</bpm>
<rpm>0.00</rpm>
</extensions>
</trkpt>
<trkpt lat="63.892013550" lon="-21.364446640">
<ele>13.780762</ele>
<time>2012-07-27T19:58:38Z</time>
<speed>0.020000</speed>
<extensions>
<speed>0.0</speed>
<temp>0.00</temp>
<bpm>0</bpm>
<rpm>0.00</rpm>
</extensions>
</trkpt>
<trkpt lat="63.892013550" lon="-21.364446640">
<ele>13.788574</ele>
<time>2012-07-27T19:58:43Z</time>
<speed>0.070000</speed>
<extensions>
<speed>0.1</speed>
<temp>0.00</temp>
<bpm>0</bpm>
<rpm>0.00</rpm>
</extensions>
</trkpt>
<trkpt lat="63.892013550" lon="-21.364446640">
<ele>13.800781</ele>
<time>2012-07-27T19:58:48Z</time>
<extensions>
<speed>0.0</speed>
<temp>0.00</temp>
<bpm>0</bpm>
<rpm>0.00</rpm>
</extensions>
</trkpt>
<trkpt lat="63.892013550" lon="-21.364446640">
<ele>13.810303</ele>
<time>2012-07-27T19:58:53Z</time>
<speed>0.010000</speed>
<extensions>
<speed>0.0</speed>
<temp>0.00</temp>
<bpm>0</bpm>
<rpm>0.00</rpm>
</extensions>
</trkpt>
<trkpt lat="63.892013550" lon="-21.364446640">
<ele>13.816895</ele>
<time>2012-07-27T19:58:58Z</time>
<extensions>
<speed>0.0</speed>
<temp>0.00</temp>
<bpm>0</bpm>
<rpm>0.00</rpm>
</extensions>
</trkpt>
<trkpt lat="63.892013550" lon="-21.364446640">
<ele>13.828613</ele>
<time>2012-07-27T19:59:03Z</time>
<extensions>
<speed>0.0</speed>
<temp>0.00</temp>
<bpm>0</bpm>
<rpm>0.00</rpm>
</extensions>
</trkpt>
<trkpt lat="63.892013550" lon="-21.364446640">
<ele>13.840332</ele>
<time>2012-07-27T19:59:08Z</time>
<extensions>
<speed>0.0</speed>
<temp>0.00</temp>
<bpm>0</bpm>
<rpm>0.00</rpm>
</extensions>
</trkpt>
<trkpt lat="63.892013550" lon="-21.364446640">
<ele>13.852783</ele>
<time>2012-07-27T19:59:13Z</time>
<extensions>
<speed>0.0</speed>
<temp>0.00</temp>
<bpm>0</bpm>
<rpm>0.00</rpm>
</extensions>
</trkpt>
<trkpt lat="63.891998291" lon="-21.364448547">
<ele>13.725830</ele>
<time>2012-07-27T19:59:18Z</time>
<speed>0.510000</speed>
<extensions>
<speed>0.5</speed>
<temp>0.00</temp>
<bpm>0</bpm>
<rpm>0.00</rpm>
</extensions>
</trkpt>
<trkpt lat="63.891971588" lon="-21.364427567">
<ele>13.829834</ele>
<time>2012-07-27T19:59:23Z</time>
<speed>1.220000</speed>
<extensions>
<speed>1.2</speed>
<temp>0.00</temp>
<bpm>0</bpm>
<rpm>0.00</rpm>
</extensions>
</trkpt>
<trkpt lat="63.891941071" lon="-21.364311218">
<ele>13.940186</ele>
<time>2012-07-27T19:59:28Z</time>
<speed>1.360000</speed>
<extensions>
<speed>1.4</speed>
<temp>0.00</temp>
<bpm>0</bpm>
<rpm>0.00</rpm>
</extensions>
</trkpt>
<trkpt lat="63.891880035" lon="-21.364233017">
<ele>14.288818</ele>
<time>2012-07-27T19:59:33Z</time>
<speed>1.890000</speed>
<extensions>
<speed>1.9</speed>
<temp>0.00</temp>
<bpm>0</bpm>
<rpm>0.00</rpm>
</extensions>
</trkpt>
<trkpt lat="63.891811371" lon="-21.364236832">
<ele>14.681152</ele>
<time>2012-07-27T19:59:38Z</time>
<speed>1.530000</speed>
<extensions>
<speed>1.5</speed>
<temp>0.00</temp>
<bpm>0</bpm>
<rpm>0.00</rpm>
</extensions>
</trkpt>
<trkpt lat="63.891735077" lon="-21.364280701">
<ele>14.295410</ele>
<time>2012-07-27T19:59:43Z</time>
<speed>2.060000</speed>
<extensions>
<speed>2.1</speed>
<temp>0.00</temp>
<bpm>0</bpm>
<rpm>0.00</rpm>
</extensions>
</trkpt>
<trkpt lat="63.891647339" lon="-21.364326477">
<ele>13.821045</ele>
<time>2012-07-27T19:59:48Z</time>
<speed>2.350000</speed>
<extensions>
<speed>2.4</speed>
<temp>0.00</temp>
<bpm>0</bpm>
<rpm>0.00</rpm>
</extensions>
</trkpt>
<trkpt lat="63.891551971" lon="-21.364387512">
<ele>13.243896</ele>
<time>2012-07-27T19:59:53Z</time>
<speed>2.730000</speed>
<extensions>
<speed>2.7</speed>
<temp>0.00</temp>
<bpm>0</bpm>
<rpm>0.00</rpm>
</extensions>
</trkpt>
<trkpt lat="63.891407013" lon="-21.364473343">
<ele>12.412354</ele>
<time>2012-07-27T19:59:58Z</time>
<speed>3.510000</speed>
<extensions>
<speed>3.5</speed>
<temp>0.00</temp>
<bpm>0</bpm>
<rpm>0.00</rpm>
</extensions>
</trkpt>
<trkpt lat="63.891250610" lon="-21.364593506">
<ele>13.747314</ele>
<time>2012-07-27T20:00:03Z</time>
<speed>4.050000</speed>
<extensions>
<speed>4.0</speed>
<temp>0.00</temp>
<bpm>0</bpm>
<rpm>0.00</rpm>
</extensions>
</trkpt>
<trkpt lat="63.891071320" lon="-21.364721298">
<ele>12.864258</ele>
<time>2012-07-27T20:00:08Z</time>
<speed>4.460000</speed>
<extensions>
<speed>4.5</speed>
<temp>0.00</temp>
<bpm>0</bpm>
<rpm>0.00</rpm>
</extensions>
</trkpt>
<trkpt lat="63.890861511" lon="-21.364887238">
<ele>12.178711</ele>
<time>2012-07-27T20:00:13Z</time>
<speed>5.150000</speed>
<extensions>
<speed>5.2</speed>
<temp>0.00</temp>
<bpm>0</bpm>
<rpm>0.00</rpm>
</extensions>
</trkpt>
<trkpt lat="63.890628815" lon="-21.365102768">
<ele>11.871826</ele>
<time>2012-07-27T20:00:18Z</time>
<speed>6.330000</speed>
<extensions>
<speed>6.3</speed>
<temp>0.00</temp>
<bpm>0</bpm>
<rpm>0.00</rpm>
</extensions>
</trkpt>
<trkpt lat="63.890342712" lon="-21.365392685">
<ele>12.315430</ele>
<time>2012-07-27T20:00:23Z</time>
<speed>7.430000</speed>
<extensions>
<speed>7.4</speed>
<temp>0.00</temp>
<bpm>0</bpm>
<rpm>0.00</rpm>
</extensions>
</trkpt>
<trkpt lat="63.890045166" lon="-21.365764618">
<ele>12.856201</ele>
<time>2012-07-27T20:00:28Z</time>
<speed>8.190000</speed>
<extensions>
<speed>8.2</speed>
<temp>0.00</temp>
<bpm>0</bpm>
<rpm>0.00</rpm>
</extensions>
</trkpt>
<trkpt lat="63.889743805" lon="-21.366180420">
<ele>13.215576</ele>
<time>2012-07-27T20:00:33Z</time>
<speed>7.710000</speed>
<extensions>
<speed>7.7</speed>
<temp>0.00</temp>
<bpm>0</bpm>
<rpm>0.00</rpm>
</extensions>
</trkpt>
<trkpt lat="63.889465332" lon="-21.366609573">
<ele>14.063477</ele>
<time>2012-07-27T20:00:38Z</time>
<speed>7.210000</speed>
<extensions>
<speed>7.2</speed>
<temp>0.00</temp>
<bpm>0</bpm>
<rpm>0.00</rpm>
</extensions>
</trkpt>
<trkpt lat="63.889202118" lon="-21.367061615">
<ele>14.264404</ele>
<time>2012-07-27T20:00:43Z</time>
<speed>7.310000</speed>
<extensions>
<speed>7.3</speed>
<temp>0.00</temp>
<bpm>0</bpm>
<rpm>0.00</rpm>
</extensions>
</trkpt>
<trkpt lat="63.888973236" lon="-21.367500305">
<ele>14.715820</ele>
<time>2012-07-27T20:00:48Z</time>
<speed>6.560000</speed>
<extensions>
<speed>6.6</speed>
<temp>0.00</temp>
<bpm>0</bpm>
<rpm>0.00</rpm>
</extensions>
</trkpt>
<trkpt lat="63.888759613" lon="-21.367952347">
<ele>14.232422</ele>
<time>2012-07-27T20:00:53Z</time>
<speed>6.920000</speed>
<extensions>
<speed>6.9</speed>
<temp>0.00</temp>
<bpm>0</bpm>
<rpm>0.00</rpm>
</extensions>
</trkpt>
<trkpt lat="63.888530731" lon="-21.368452072">
<ele>13.893799</ele>
<time>2012-07-27T20:00:58Z</time>
<speed>7.160000</speed>
<extensions>
<speed>7.2</speed>
<temp>0.00</temp>
<bpm>0</bpm>
<rpm>0.00</rpm>
</extensions>
</trkpt>
<trkpt lat="63.888305664" lon="-21.368968964">
<ele>13.738525</ele>
<time>2012-07-27T20:01:03Z</time>
<speed>7.190000</speed>
<extensions>
<speed>7.2</speed>
<temp>0.00</temp>
<bpm>0</bpm>
<rpm>0.00</rpm>
</extensions>
</trkpt>
<trkpt lat="63.888072968" lon="-21.369491577">
<ele>13.087402</ele>
<time>2012-07-27T20:01:08Z</time>
<speed>7.110000</speed>
<extensions>
<speed>7.1</speed>
<temp>0.00</temp>
<bpm>0</bpm>
<rpm>0.00</rpm>
</extensions>
</trkpt>
<trkpt lat="63.887840271" lon="-21.370008469">
<ele>12.356201</ele>
<time>2012-07-27T20:01:13Z</time>
<speed>7.360000</speed>
<extensions>
<speed>7.4</speed>
<temp>0.00</temp>
<bpm>0</bpm>
<rpm>0.00</rpm>
</extensions>
</trkpt>
<trkpt lat="63.887596130" lon="-21.370540619">
<ele>11.822021</ele>
<time>2012-07-27T20:01:18Z</time>
<speed>7.400000</speed>
<extensions>
<speed>7.4</speed>
<temp>0.00</temp>
<bpm>0</bpm>
<rpm>0.00</rpm>
</extensions>
</trkpt>
<trkpt lat="63.887348175" lon="-21.371053696">
<ele>11.893066</ele>
<time>2012-07-27T20:01:23Z</time>
<speed>7.250000</speed>
<extensions>
<speed>7.3</speed>
<temp>0.00</temp>
<bpm>0</bpm>
<rpm>0.00</rpm>
</extensions>
</trkpt>
<trkpt lat="63.887119293" lon="-21.371507645">
<ele>11.873047</ele>
<time>2012-07-27T20:01:28Z</time>
<speed>6.340000</speed>
<extensions>
<speed>6.3</speed>
<temp>0.00</temp>
<bpm>0</bpm>
<rpm>0.00</rpm>
</extensions>
</trkpt>
<trkpt lat="63.886894226" lon="-21.371923447">
<ele>11.611816</ele>
<time>2012-07-27T20:01:33Z</time>
<speed>6.990000</speed>
<extensions>
<speed>7.0</speed>
<temp>0.00</temp>
<bpm>0</bpm>
<rpm>0.00</rpm>
</extensions>
</trkpt>
<trkpt lat="63.886634827" lon="-21.372350693">
<ele>12.085205</ele>
<time>2012-07-27T20:01:38Z</time>
<speed>7.180000</speed>
<extensions>
<speed>7.2</speed>
<temp>0.00</temp>
<bpm>0</bpm>
<rpm>0.00</rpm>
</extensions>
</trkpt>
<trkpt lat="63.886375427" lon="-21.372747421">
<ele>12.531738</ele>
<time>2012-07-27T20:01:43Z</time>
<speed>6.400000</speed>
<extensions>
<speed>6.4</speed>
<temp>0.00</temp>
<bpm>0</bpm>
<rpm>0.00</rpm>
</extensions>
</trkpt>
<trkpt lat="63.886131287" lon="-21.373113632">
<ele>12.886719</ele>
<time>2012-07-27T20:01:48Z</time>
<speed>6.460000</speed>
<extensions>
<speed>6.5</speed>
<temp>0.00</temp>
<bpm>0</bpm>
<rpm>0.00</rpm>
</extensions>
</trkpt>
<trkpt lat="63.885883331" lon="-21.373447418">
<ele>13.904297</ele>
<time>2012-07-27T20:01:53Z</time>
<speed>6.580000</speed>
<extensions>
<speed>6.6</speed>
<temp>0.00</temp>
<bpm>0</bpm>
<rpm>0.00</rpm>
</extensions>
</trkpt>
<trkpt lat="63.885616302" lon="-21.373771667">
<ele>14.204102</ele>
<time>2012-07-27T20:01:58Z</time>
<speed>6.850000</speed>
<extensions>
<speed>6.8</speed>
<temp>0.00</temp>
<bpm>0</bpm>
<rpm>0.00</rpm>
</extensions>
</trkpt>
<trkpt lat="63.885356903" lon="-21.374076843">
<ele>14.599365</ele>
<time>2012-07-27T20:02:03Z</time>
<speed>5.930000</speed>
<extensions>
<speed>5.9</speed>
<temp>0.00</temp>
<bpm>0</bpm>
<rpm>0.00</rpm>
</extensions>
</trkpt>
<trkpt lat="63.885116577" lon="-21.374338150">
<ele>14.619873</ele>
<time>2012-07-27T20:02:08Z</time>
<speed>6.300000</speed>
<extensions>
<speed>6.3</speed>
<temp>0.00</temp>
<bpm>0</bpm>
<rpm>0.00</rpm>
</extensions>
</trkpt>
<trkpt lat="63.884853363" lon="-21.374626160">
<ele>14.598877</ele>
<time>2012-07-27T20:02:13Z</time>
<speed>6.490000</speed>
<extensions>
<speed>6.5</speed>
<temp>0.00</temp>
<bpm>0</bpm>
<rpm>0.00</rpm>
</extensions>
</trkpt>
<trkpt lat="63.884582520" lon="-21.374900818">
<ele>14.933594</ele>
<time>2012-07-27T20:02:18Z</time>
<speed>6.720000</speed>
<extensions>
<speed>6.7</speed>
<temp>0.00</temp>
<bpm>0</bpm>
<rpm>0.00</rpm>
</extensions>
</trkpt>
<trkpt lat="63.884311676" lon="-21.375169754">
<ele>15.166748</ele>
<time>2012-07-27T20:02:23Z</time>
<speed>6.660000</speed>
<extensions>
<speed>6.7</speed>
<temp>0.00</temp>
<bpm>0</bpm>
<rpm>0.00</rpm>
</extensions>
</trkpt>
<trkpt lat="63.884059906" lon="-21.375421524">
<ele>15.273926</ele>
<time>2012-07-27T20:02:28Z</time>
<speed>5.730000</speed>
<extensions>
<speed>5.7</speed>
<temp>0.00</temp>
<bpm>0</bpm>
<rpm>0.00</rpm>
</extensions>
</trkpt>
<trkpt lat="63.883811951" lon="-21.375640869">
<ele>15.256348</ele>
<time>2012-07-27T20:02:33Z</time>
<speed>6.440000</speed>
<extensions>
<speed>6.4</speed>
<temp>0.00</temp>
<bpm>0</bpm>
<rpm>0.00</rpm>
</extensions>
</trkpt>
<trkpt lat="63.883522034" lon="-21.375896454">
<ele>16.284180</ele>
<time>2012-07-27T20:02:38Z</time>
<speed>7.150000</speed>
<extensions>
<speed>7.1</speed>
<temp>0.00</temp>
<bpm>0</bpm>
<rpm>0.00</rpm>
</extensions>
</trkpt>
<trkpt lat="63.883220673" lon="-21.376155853">
<ele>16.087891</ele>
<time>2012-07-27T20:02:43Z</time>
<speed>7.320000</speed>
<extensions>
<speed>7.3</speed>
<temp>0.00</temp>
<bpm>0</bpm>
<rpm>0.00</rpm>
</extensions>
</trkpt>
<trkpt lat="63.882911682" lon="-21.376417160">
<ele>16.079590</ele>
<time>2012-07-27T20:02:48Z</time>
<speed>7.580000</speed>
<extensions>
<speed>7.6</speed>
<temp>0.00</temp>
<bpm>0</bpm>
<rpm>0.00</rpm>
</extensions>
</trkpt>
<trkpt lat="63.882583618" lon="-21.376676559">
<ele>15.067627</ele>
<time>2012-07-27T20:02:53Z</time>
<speed>7.520000</speed>
<extensions>
<speed>7.5</speed>
<temp>0.00</temp>
<bpm>0</bpm>
<rpm>0.00</rpm>
</extensions>
</trkpt>
<trkpt lat="63.882263184" lon="-21.376928329">
<ele>14.876465</ele>
<time>2012-07-27T20:02:58Z</time>
<speed>6.920000</speed>
<extensions>
<speed>6.9</speed>
<temp>0.00</temp>
<bpm>0</bpm>
<rpm>0.00</rpm>
</extensions>
</trkpt>
<trkpt lat="63.881984711" lon="-21.377141953">
<ele>14.604248</ele>
<time>2012-07-27T20:03:03Z</time>
<speed>6.490000</speed>
<extensions>
<speed>6.5</speed>
<temp>0.00</temp>
<bpm>0</bpm>
<rpm>0.00</rpm>
</extensions>
</trkpt>
<trkpt lat="63.881710052" lon="-21.377346039">
<ele>14.384033</ele>
<time>2012-07-27T20:03:08Z</time>
<speed>6.580000</speed>
<extensions>
<speed>6.6</speed>
<temp>0.00</temp>
<bpm>0</bpm>
<rpm>0.00</rpm>
</extensions>
</trkpt>
<trkpt lat="63.881446838" lon="-21.377544403">
<ele>13.747559</ele>
<time>2012-07-27T20:03:13Z</time>
<speed>5.620000</speed>
<extensions>
<speed>5.6</speed>
<temp>0.00</temp>
<bpm>0</bpm>
<rpm>0.00</rpm>
</extensions>
</trkpt>
<trkpt lat="63.881206512" lon="-21.377727509">
<ele>13.560791</ele>
<time>2012-07-27T20:03:18Z</time>
<speed>5.960000</speed>
<extensions>
<speed>6.0</speed>
<temp>0.00</temp>
<bpm>0</bpm>
<rpm>0.00</rpm>
</extensions>
</trkpt>
<trkpt lat="63.880943298" lon="-21.377922058">
<ele>13.266357</ele>
<time>2012-07-27T20:03:23Z</time>
<speed>6.390000</speed>
<extensions>
<speed>6.4</speed>
<temp>0.00</temp>
<bpm>0</bpm>
<rpm>0.00</rpm>
</extensions>
</trkpt>
<trkpt lat="63.880645752" lon="-21.378120422">
<ele>13.030273</ele>
<time>2012-07-27T20:03:28Z</time>
<speed>7.370000</speed>
<extensions>
<speed>7.4</speed>
<temp>0.00</temp>
<bpm>0</bpm>
<rpm>0.00</rpm>
</extensions>
</trkpt>
<trkpt lat="63.880344391" lon="-21.378330231">
<ele>12.297119</ele>
<time>2012-07-27T20:03:33Z</time>
<speed>6.580000</speed>
<extensions>
<speed>6.6</speed>
<temp>0.00</temp>
<bpm>0</bpm>
<rpm>0.00</rpm>
</extensions>
</trkpt>
<trkpt lat="63.880069733" lon="-21.378501892">
<ele>12.099121</ele>
<time>2012-07-27T20:03:38Z</time>
<speed>6.430000</speed>
<extensions>
<speed>6.4</speed>
<temp>0.00</temp>
<bpm>0</bpm>
<rpm>0.00</rpm>
</extensions>
</trkpt>
<trkpt lat="63.879779816" lon="-21.378677368">
<ele>11.905762</ele>
<time>2012-07-27T20:03:43Z</time>
<speed>6.710000</speed>
<extensions>
<speed>6.7</speed>
<temp>0.00</temp>
<bpm>0</bpm>
<rpm>0.00</rpm>
</extensions>
</trkpt>
<trkpt lat="63.879497528" lon="-21.378860474">
<ele>11.598633</ele>
<time>2012-07-27T20:03:48Z</time>
<speed>6.300000</speed>
<extensions>
<speed>6.3</speed>
<temp>0.00</temp>
<bpm>0</bpm>
<rpm>0.00</rpm>
</extensions>
</trkpt>
<trkpt lat="63.879241943" lon="-21.379009247">
<ele>11.366943</ele>
<time>2012-07-27T20:03:53Z</time>
<speed>5.800000</speed>
<extensions>
<speed>5.8</speed>
<temp>0.00</temp>
<bpm>0</bpm>
<rpm>0.00</rpm>
</extensions>
</trkpt>
<trkpt lat="63.878982544" lon="-21.379173279">
<ele>11.276123</ele>
<time>2012-07-27T20:03:58Z</time>
<speed>6.340000</speed>
<extensions>
<speed>6.3</speed>
<temp>0.00</temp>
<bpm>0</bpm>
<rpm>0.00</rpm>
</extensions>
</trkpt>
<trkpt lat="63.878723145" lon="-21.379320145">
<ele>10.843506</ele>
<time>2012-07-27T20:04:03Z</time>
<speed>5.660000</speed>
<extensions>
<speed>5.7</speed>
<temp>0.00</temp>
<bpm>0</bpm>
<rpm>0.00</rpm>
</extensions>
</trkpt>
<trkpt lat="63.878505707" lon="-21.379449844">
<ele>11.105713</ele>
<time>2012-07-27T20:04:08Z</time>
<speed>4.790000</speed>
<extensions>
<speed>4.8</speed>
<temp>0.00</temp>
<bpm>0</bpm>
<rpm>0.00</rpm>
</extensions>
</trkpt>
<trkpt lat="63.878273010" lon="-21.379583359">
<ele>11.054199</ele>
<time>2012-07-27T20:04:13Z</time>
<speed>5.550000</speed>
<extensions>
<speed>5.5</speed>
<temp>0.00</temp>
<bpm>0</bpm>
<rpm>0.00</rpm>
</extensions>
</trkpt>
<trkpt lat="63.878017426" lon="-21.379722595">
<ele>10.653076</ele>
<time>2012-07-27T20:04:18Z</time>
<speed>5.950000</speed>
<extensions>
<speed>6.0</speed>
<temp>0.00</temp>
<bpm>0</bpm>
<rpm>0.00</rpm>
</extensions>
</trkpt>
<trkpt lat="63.877735138" lon="-21.379861832">
<ele>10.850098</ele>
<time>2012-07-27T20:04:23Z</time>
<speed>6.400000</speed>
<extensions>
<speed>6.4</speed>
<temp>0.00</temp>
<bpm>0</bpm>
<rpm>0.00</rpm>
</extensions>
</trkpt>
<trkpt lat="63.877449036" lon="-21.380022049">
<ele>10.552490</ele>
<time>2012-07-27T20:04:28Z</time>
<speed>6.620000</speed>
<extensions>
<speed>6.6</speed>
<temp>0.00</temp>
<bpm>0</bpm>
<rpm>0.00</rpm>
</extensions>
</trkpt>
<trkpt lat="63.877170563" lon="-21.380153656">
<ele>10.165771</ele>
<time>2012-07-27T20:04:33Z</time>
<speed>5.940000</speed>
<extensions>
<speed>5.9</speed>
<temp>0.00</temp>
<bpm>0</bpm>
<rpm>0.00</rpm>
</extensions>
</trkpt>
<trkpt lat="63.876926422" lon="-21.380281448">
<ele>10.208008</ele>
<time>2012-07-27T20:04:38Z</time>
<speed>5.450000</speed>
<extensions>
<speed>5.5</speed>
<temp>0.00</temp>
<bpm>0</bpm>
<rpm>0.00</rpm>
</extensions>
</trkpt>
<trkpt lat="63.876678467" lon="-21.380397797">
<ele>9.871582</ele>
<time>2012-07-27T20:04:43Z</time>
<speed>6.120000</speed>
<extensions>
<speed>6.1</speed>
<temp>0.00</temp>
<bpm>0</bpm>
<rpm>0.00</rpm>
</extensions>
</trkpt>
<trkpt lat="63.876399994" lon="-21.380516052">
<ele>9.667969</ele>
<time>2012-07-27T20:04:48Z</time>
<speed>6.440000</speed>
<extensions>
<speed>6.4</speed>
<temp>0.00</temp>
<bpm>0</bpm>
<rpm>0.00</rpm>
</extensions>
</trkpt>
<trkpt lat="63.876113892" lon="-21.380659103">
<ele>9.517822</ele>
<time>2012-07-27T20:04:53Z</time>
<speed>6.590000</speed>
<extensions>
<speed>6.6</speed>
<temp>0.00</temp>
<bpm>0</bpm>
<rpm>0.00</rpm>
</extensions>
</trkpt>
<trkpt lat="63.875812531" lon="-21.380784988">
<ele>9.823730</ele>
<time>2012-07-27T20:04:58Z</time>
<speed>6.780000</speed>
<extensions>
<speed>6.8</speed>
<temp>0.00</temp>
<bpm>0</bpm>
<rpm>0.00</rpm>
</extensions>
</trkpt>
<trkpt lat="63.875507355" lon="-21.380908966">
<ele>9.805420</ele>
<time>2012-07-27T20:05:03Z</time>
<speed>7.040000</speed>
<extensions>
<speed>7.0</speed>
<temp>0.00</temp>
<bpm>0</bpm>
<rpm>0.00</rpm>
</extensions>
</trkpt>
<trkpt lat="63.875198364" lon="-21.381029129">
<ele>9.331299</ele>
<time>2012-07-27T20:05:08Z</time>
<speed>7.300000</speed>
<extensions>
<speed>7.3</speed>
<temp>0.00</temp>
<bpm>0</bpm>
<rpm>0.00</rpm>
</extensions>
</trkpt>
<trkpt lat="63.874858856" lon="-21.381160736">
<ele>8.641602</ele>
<time>2012-07-27T20:05:13Z</time>
<speed>7.940000</speed>
<extensions>
<speed>7.9</speed>
<temp>0.00</temp>
<bpm>0</bpm>
<rpm>0.00</rpm>
</extensions>
</trkpt>
<trkpt lat="63.874507904" lon="-21.381303787">
<ele>8.188232</ele>
<time>2012-07-27T20:05:18Z</time>
<speed>8.070000</speed>
<extensions>
<speed>8.1</speed>
<temp>0.00</temp>
<bpm>0</bpm>
<rpm>0.00</rpm>
</extensions>
</trkpt>
<trkpt lat="63.874153137" lon="-21.381458282">
<ele>7.667969</ele>
<time>2012-07-27T20:05:23Z</time>
<speed>7.750000</speed>
<extensions>
<speed>7.7</speed>
<temp>0.00</temp>
<bpm>0</bpm>
<rpm>0.00</rpm>
</extensions>
</trkpt>
<trkpt lat="63.873832703" lon="-21.381597519">
<ele>6.802612</ele>
<time>2012-07-27T20:05:28Z</time>
<speed>7.080000</speed>
<extensions>
<speed>7.1</speed>
<temp>0.00</temp>
<bpm>0</bpm>
<rpm>0.00</rpm>
</extensions>
</trkpt>
<trkpt lat="63.873512268" lon="-21.381769180">
<ele>7.363770</ele>
<time>2012-07-27T20:05:33Z</time>
<speed>7.460000</speed>
<extensions>
<speed>7.5</speed>
<temp>0.00</temp>
<bpm>0</bpm>
<rpm>0.00</rpm>
</extensions>
</trkpt>
<trkpt lat="63.873195648" lon="-21.381963730">
<ele>7.215698</ele>
<time>2012-07-27T20:05:38Z</time>
<speed>7.610000</speed>
<extensions>
<speed>7.6</speed>
<temp>0.00</temp>
<bpm>0</bpm>
<rpm>0.00</rpm>
</extensions>
</trkpt>
<trkpt lat="63.872875214" lon="-21.382186890">
<ele>7.530640</ele>
<time>2012-07-27T20:05:43Z</time>
<speed>6.950000</speed>
<extensions>
<speed>7.0</speed>
<temp>0.00</temp>
<bpm>0</bpm>
<rpm>0.00</rpm>
</extensions>
</trkpt>
<trkpt lat="63.872596741" lon="-21.382383347">
<ele>7.885742</ele>
<time>2012-07-27T20:05:48Z</time>
<speed>6.530000</speed>
<extensions>
<speed>6.5</speed>
<temp>0.00</temp>
<bpm>0</bpm>
<rpm>0.00</rpm>
</extensions>
</trkpt>
<trkpt lat="63.872310638" lon="-21.382595062">
<ele>8.529053</ele>
<time>2012-07-27T20:05:53Z</time>
<speed>6.800000</speed>
<extensions>
<speed>6.8</speed>
<temp>0.00</temp>
<bpm>0</bpm>
<rpm>0.00</rpm>
</extensions>
</trkpt>
<trkpt lat="63.872020721" lon="-21.382825851">
<ele>9.826416</ele>
<time>2012-07-27T20:05:58Z</time>
<speed>6.980000</speed>
<extensions>
<speed>7.0</speed>
<temp>0.00</temp>
<bpm>0</bpm>
<rpm>0.00</rpm>
</extensions>
</trkpt>
<trkpt lat="63.871715546" lon="-21.383096695">
<ele>10.733154</ele>
<time>2012-07-27T20:06:03Z</time>
<speed>7.490000</speed>
<extensions>
<speed>7.5</speed>
<temp>0.00</temp>
<bpm>0</bpm>
<rpm>0.00</rpm>
</extensions>
</trkpt>
<trkpt lat="63.871406555" lon="-21.383390427">
<ele>12.232422</ele>
<time>2012-07-27T20:06:08Z</time>
<speed>7.480000</speed>
<extensions>
<speed>7.5</speed>
<temp>0.00</temp>
<bpm>0</bpm>
<rpm>0.00</rpm>
</extensions>
</trkpt>
<trkpt lat="63.871097565" lon="-21.383720398">
<ele>12.684570</ele>
<time>2012-07-27T20:06:13Z</time>
<speed>7.570000</speed>
<extensions>
<speed>7.6</speed>
<temp>0.00</temp>
<bpm>0</bpm>
<rpm>0.00</rpm>
</extensions>
</trkpt>
<trkpt lat="63.870811462" lon="-21.384037018">
<ele>13.181152</ele>
<time>2012-07-27T20:06:18Z</time>
<speed>6.640000</speed>
<extensions>
<speed>6.6</speed>
<temp>0.00</temp>
<bpm>0</bpm>
<rpm>0.00</rpm>
</extensions>
</trkpt>
<trkpt lat="63.870559692" lon="-21.384332657">
<ele>13.353760</ele>
<time>2012-07-27T20:06:23Z</time>
<speed>6.690000</speed>
<extensions>
<speed>6.7</speed>
<temp>0.00</temp>
<bpm>0</bpm>
<rpm>0.00</rpm>
</extensions>
</trkpt>
<trkpt lat="63.870292664" lon="-21.384660721">
<ele>14.047852</ele>
<time>2012-07-27T20:06:28Z</time>
<speed>6.870000</speed>
<extensions>
<speed>6.9</speed>
<temp>0.00</temp>
<bpm>0</bpm>
<rpm>0.00</rpm>
</extensions>
</trkpt>
<trkpt lat="63.870021820" lon="-21.385026932">
<ele>14.122803</ele>
<time>2012-07-27T20:06:33Z</time>
<speed>7.030000</speed>
<extensions>
<speed>7.0</speed>
<temp>0.00</temp>
<bpm>0</bpm>
<rpm>0.00</rpm>
</extensions>
</trkpt>
<trkpt lat="63.869754791" lon="-21.385393143">
<ele>14.683105</ele>
<time>2012-07-27T20:06:38Z</time>
<speed>6.700000</speed>
<extensions>
<speed>6.7</speed>
<temp>0.00</temp>
<bpm>0</bpm>
<rpm>0.00</rpm>
</extensions>
</trkpt>
<trkpt lat="63.869525909" lon="-21.385732651">
<ele>15.454346</ele>
<time>2012-07-27T20:06:43Z</time>
<speed>5.720000</speed>
<extensions>
<speed>5.7</speed>
<temp>0.00</temp>
<bpm>0</bpm>
<rpm>0.00</rpm>
</extensions>
</trkpt>
<trkpt lat="63.869312286" lon="-21.386028290">
<ele>16.078613</ele>
<time>2012-07-27T20:06:48Z</time>
<speed>5.850000</speed>
<extensions>
<speed>5.8</speed>
<temp>0.00</temp>
<bpm>0</bpm>
<rpm>0.00</rpm>
</extensions>
</trkpt>
<trkpt lat="63.869098663" lon="-21.386373520">
<ele>16.363281</ele>
<time>2012-07-27T20:06:53Z</time>
<speed>5.460000</speed>
<extensions>
<speed>5.5</speed>
<temp>0.00</temp>
<bpm>0</bpm>
<rpm>0.00</rpm>
</extensions>
</trkpt>
<trkpt lat="63.868919373" lon="-21.386657715">
<ele>17.037598</ele>
<time>2012-07-27T20:06:58Z</time>
<speed>4.340000</speed>
<extensions>
<speed>4.3</speed>
<temp>0.00</temp>
<bpm>0</bpm>
<rpm>0.00</rpm>
</extensions>
</trkpt>
<trkpt lat="63.868774414" lon="-21.386909485">
<ele>17.584473</ele>
<time>2012-07-27T20:07:03Z</time>
<speed>4.070000</speed>
<extensions>
<speed>4.1</speed>
<temp>0.00</temp>
<bpm>0</bpm>
<rpm>0.00</rpm>
</extensions>
</trkpt>
<trkpt lat="63.868614197" lon="-21.387189865">
<ele>17.922363</ele>
<time>2012-07-27T20:07:08Z</time>
<speed>4.630000</speed>
<extensions>
<speed>4.6</speed>
<temp>0.00</temp>
<bpm>0</bpm>
<rpm>0.00</rpm>
</extensions>
</trkpt>
<trkpt lat="63.868446350" lon="-21.387493134">
<ele>19.186523</ele>
<time>2012-07-27T20:07:13Z</time>
<speed>4.950000</speed>
<extensions>
<speed>4.9</speed>
<temp>0.00</temp>
<bpm>0</bpm>
<rpm>0.00</rpm>
</extensions>
</trkpt>
<trkpt lat="63.868270874" lon="-21.387813568">
<ele>19.163086</ele>
<time>2012-07-27T20:07:18Z</time>
<speed>5.080000</speed>
<extensions>
<speed>5.1</speed>
<temp>0.00</temp>
<bpm>0</bpm>
<rpm>0.00</rpm>
</extensions>
</trkpt>
<trkpt lat="63.868068695" lon="-21.388139725">
<ele>19.000977</ele>
<time>2012-07-27T20:07:23Z</time>
<speed>5.910000</speed>
<extensions>
<speed>5.9</speed>
<temp>0.00</temp>
<bpm>0</bpm>
<rpm>0.00</rpm>
</extensions>
</trkpt>
<trkpt lat="63.867839813" lon="-21.388532639">
<ele>18.466797</ele>
<time>2012-07-27T20:07:28Z</time>
<speed>6.140000</speed>
<extensions>
<speed>6.1</speed>
<temp>0.00</temp>
<bpm>0</bpm>
<rpm>0.00</rpm>
</extensions>
</trkpt>
<trkpt lat="63.867618561" lon="-21.388866425">
<ele>18.443848</ele>
<time>2012-07-27T20:07:33Z</time>
<speed>6.010000</speed>
<extensions>
<speed>6.0</speed>
<temp>0.00</temp>
<bpm>0</bpm>
<rpm>0.00</rpm>
</extensions>
</trkpt>
<trkpt lat="63.867382050" lon="-21.389200211">
<ele>18.932617</ele>
<time>2012-07-27T20:07:38Z</time>
<speed>6.060000</speed>
<extensions>
<speed>6.1</speed>
<temp>0.00</temp>
<bpm>0</bpm>
<rpm>0.00</rpm>
</extensions>
</trkpt>
<trkpt lat="63.867145538" lon="-21.389474869">
<ele>18.842285</ele>
<time>2012-07-27T20:07:43Z</time>
<speed>5.610000</speed>
<extensions>
<speed>5.6</speed>
<temp>0.00</temp>
<bpm>0</bpm>
<rpm>0.00</rpm>
</extensions>
</trkpt>
<trkpt lat="63.866905212" lon="-21.389730453">
<ele>18.619629</ele>
<time>2012-07-27T20:07:48Z</time>
<speed>5.780000</speed>
<extensions>
<speed>5.8</speed>
<temp>0.00</temp>
<bpm>0</bpm>
<rpm>0.00</rpm>
</extensions>
</trkpt>
<trkpt lat="63.866680145" lon="-21.389949799">
<ele>18.894043</ele>
<time>2012-07-27T20:07:53Z</time>
<speed>5.130000</speed>
<extensions>
<speed>5.1</speed>
<temp>0.00</temp>
<bpm>0</bpm>
<rpm>0.00</rpm>
</extensions>
</trkpt>
<trkpt lat="63.866474152" lon="-21.390150070">
<ele>18.796875</ele>
<time>2012-07-27T20:07:58Z</time>
<speed>4.640000</speed>
<extensions>
<speed>4.6</speed>
<temp>0.00</temp>
<bpm>0</bpm>
<rpm>0.00</rpm>
</extensions>
</trkpt>
<trkpt lat="63.866287231" lon="-21.390306473">
<ele>18.808105</ele>
<time>2012-07-27T20:08:03Z</time>
<speed>4.270000</speed>
<extensions>
<speed>4.3</speed>
<temp>0.00</temp>
<bpm>0</bpm>
<rpm>0.00</rpm>
</extensions>
</trkpt>
<trkpt lat="63.866081238" lon="-21.390445709">
<ele>18.135254</ele>
<time>2012-07-27T20:08:08Z</time>
<speed>5.340000</speed>
<extensions>
<speed>5.3</speed>
<temp>0.00</temp>
<bpm>0</bpm>
<rpm>0.00</rpm>
</extensions>
</trkpt>
<trkpt lat="63.865844727" lon="-21.390592575">
<ele>16.969727</ele>
<time>2012-07-27T20:08:13Z</time>
<speed>5.150000</speed>
<extensions>
<speed>5.2</speed>
<temp>0.00</temp>
<bpm>0</bpm>
<rpm>0.00</rpm>
</extensions>
</trkpt>
<trkpt lat="63.865631104" lon="-21.390710831">
<ele>15.501953</ele>
<time>2012-07-27T20:08:18Z</time>
<speed>4.820000</speed>
<extensions>
<speed>4.8</speed>
<temp>0.00</temp>
<bpm>0</bpm>
<rpm>0.00</rpm>
</extensions>
</trkpt>
<trkpt lat="63.865486145" lon="-21.390977859">
<ele>14.918213</ele>
<time>2012-07-27T20:08:23Z</time>
<speed>3.740000</speed>
<extensions>
<speed>3.7</speed>
<temp>0.00</temp>
<bpm>0</bpm>
<rpm>0.00</rpm>
</extensions>
</trkpt>
<trkpt lat="63.865375519" lon="-21.391147614">
<ele>14.350586</ele>
<time>2012-07-27T20:08:28Z</time>
<speed>1.790000</speed>
<extensions>
<speed>1.8</speed>
<temp>0.00</temp>
<bpm>0</bpm>
<rpm>0.00</rpm>
</extensions>
</trkpt>
<trkpt lat="63.865360260" lon="-21.391164780">
<ele>14.642334</ele>
<time>2012-07-27T20:08:33Z</time>
<speed>0.020000</speed>
<extensions>
<speed>0.0</speed>
<temp>0.00</temp>
<bpm>0</bpm>
<rpm>0.00</rpm>
</extensions>
</trkpt>
<trkpt lat="63.865367889" lon="-21.391162872">
<ele>14.922852</ele>
<time>2012-07-27T20:08:38Z</time>
<extensions>
<speed>0.0</speed>
<temp>0.00</temp>
<bpm>0</bpm>
<rpm>0.00</rpm>
</extensions>
</trkpt>
<trkpt lat="63.865367889" lon="-21.391164780">
<ele>14.966309</ele>
<time>2012-07-27T20:08:43Z</time>
<extensions>
<speed>0.0</speed>
<temp>0.00</temp>
<bpm>0</bpm>
<rpm>0.00</rpm>
</extensions>
</trkpt>
<trkpt lat="63.865367889" lon="-21.391164780">
<ele>14.990479</ele>
<time>2012-07-27T20:08:48Z</time>
<extensions>
<speed>0.0</speed>
<temp>0.00</temp>
<bpm>0</bpm>
<rpm>0.00</rpm>
</extensions>
</trkpt>
<trkpt lat="63.865367889" lon="-21.391164780">
<ele>14.980469</ele>
<time>2012-07-27T20:08:53Z</time>
<speed>0.070000</speed>
<extensions>
<speed>0.1</speed>
<temp>0.00</temp>
<bpm>0</bpm>
<rpm>0.00</rpm>
</extensions>
</trkpt>
<trkpt lat="63.865367889" lon="-21.391164780">
<ele>14.938721</ele>
<time>2012-07-27T20:08:58Z</time>
<extensions>
<speed>0.0</speed>
<temp>0.00</temp>
<bpm>0</bpm>
<rpm>0.00</rpm>
</extensions>
</trkpt>
<trkpt lat="63.865367889" lon="-21.391166687">
<ele>14.934570</ele>
<time>2012-07-27T20:09:03Z</time>
<speed>0.020000</speed>
<extensions>
<speed>0.0</speed>
<temp>0.00</temp>
<bpm>0</bpm>
<rpm>0.00</rpm>
</extensions>
</trkpt>
<trkpt lat="63.865364075" lon="-21.391168594">
<ele>15.285889</ele>
<time>2012-07-27T20:09:08Z</time>
<extensions>
<speed>0.0</speed>
<temp>0.00</temp>
<bpm>0</bpm>
<rpm>0.00</rpm>
</extensions>
</trkpt>
<trkpt lat="63.865364075" lon="-21.391166687">
<ele>15.282227</ele>
<time>2012-07-27T20:09:13Z</time>
<extensions>
<speed>0.0</speed>
<temp>0.00</temp>
<bpm>0</bpm>
<rpm>0.00</rpm>
</extensions>
</trkpt>
<trkpt lat="63.865364075" lon="-21.391166687">
<ele>15.280762</ele>
<time>2012-07-27T20:09:18Z</time>
<extensions>
<speed>0.0</speed>
<temp>0.00</temp>
<bpm>0</bpm>
<rpm>0.00</rpm>
</extensions>
</trkpt>
<trkpt lat="63.865364075" lon="-21.391166687">
<ele>15.273193</ele>
<time>2012-07-27T20:09:23Z</time>
<speed>0.010000</speed>
<extensions>
<speed>0.0</speed>
<temp>0.00</temp>
<bpm>0</bpm>
<rpm>0.00</rpm>
</extensions>
</trkpt>
<trkpt lat="63.865364075" lon="-21.391166687">
<ele>15.269043</ele>
<time>2012-07-27T20:09:28Z</time>
<extensions>
<speed>0.0</speed>
<temp>0.00</temp>
<bpm>0</bpm>
<rpm>0.00</rpm>
</extensions>
</trkpt>
<trkpt lat="63.865364075" lon="-21.391166687">
<ele>15.267578</ele>
<time>2012-07-27T20:09:33Z</time>
<speed>0.010000</speed>
<extensions>
<speed>0.0</speed>
<temp>0.00</temp>
<bpm>0</bpm>
<rpm>0.00</rpm>
</extensions>
</trkpt>
<trkpt lat="63.865364075" lon="-21.391166687">
<ele>15.268555</ele>
<time>2012-07-27T20:09:38Z</time>
<speed>1.670000</speed>
<extensions>
<speed>1.7</speed>
<temp>0.00</temp>
<bpm>0</bpm>
<rpm>0.00</rpm>
</extensions>
</trkpt>
<trkpt lat="63.865238190" lon="-21.390996933">
<ele>15.478027</ele>
<time>2012-07-27T20:09:43Z</time>
<speed>3.940000</speed>
<extensions>
<speed>3.9</speed>
<temp>0.00</temp>
<bpm>0</bpm>
<rpm>0.00</rpm>
</extensions>
</trkpt>
<trkpt lat="63.865058899" lon="-21.390966415">
<ele>15.280029</ele>
<time>2012-07-27T20:09:48Z</time>
<speed>4.320000</speed>
<extensions>
<speed>4.3</speed>
<temp>0.00</temp>
<bpm>0</bpm>
<rpm>0.00</rpm>
</extensions>
</trkpt>
<trkpt lat="63.864841461" lon="-21.391040802">
<ele>14.918945</ele>
<time>2012-07-27T20:09:53Z</time>
<speed>5.330000</speed>
<extensions>
<speed>5.3</speed>
<temp>0.00</temp>
<bpm>0</bpm>
<rpm>0.00</rpm>
</extensions>
</trkpt>
<trkpt lat="63.864608765" lon="-21.391109467">
<ele>14.791748</ele>
<time>2012-07-27T20:09:58Z</time>
<speed>4.960000</speed>
<extensions>
<speed>5.0</speed>
<temp>0.00</temp>
<bpm>0</bpm>
<rpm>0.00</rpm>
</extensions>
</trkpt>
<trkpt lat="63.864402771" lon="-21.391145706">
<ele>14.547119</ele>
<time>2012-07-27T20:10:03Z</time>
<speed>4.220000</speed>
<extensions>
<speed>4.2</speed>
<temp>0.00</temp>
<bpm>0</bpm>
<rpm>0.00</rpm>
</extensions>
</trkpt>
<trkpt lat="63.864219666" lon="-21.391153336">
<ele>14.129883</ele>
<time>2012-07-27T20:10:08Z</time>
<speed>3.700000</speed>
<extensions>
<speed>3.7</speed>
<temp>0.00</temp>
<bpm>0</bpm>
<rpm>0.00</rpm>
</extensions>
</trkpt>
<trkpt lat="63.864040375" lon="-21.391157150">
<ele>13.537354</ele>
<time>2012-07-27T20:10:13Z</time>
<speed>4.210000</speed>
<extensions>
<speed>4.2</speed>
<temp>0.00</temp>
<bpm>0</bpm>
<rpm>0.00</rpm>
</extensions>
</trkpt>
<trkpt lat="63.863838196" lon="-21.391145706">
<ele>13.728271</ele>
<time>2012-07-27T20:10:18Z</time>
<speed>4.430000</speed>
<extensions>
<speed>4.4</speed>
<temp>0.00</temp>
<bpm>0</bpm>
<rpm>0.00</rpm>
</extensions>
</trkpt>
<trkpt lat="63.863655090" lon="-21.391119003">
<ele>13.458984</ele>
<time>2012-07-27T20:10:23Z</time>
<speed>3.570000</speed>
<extensions>
<speed>3.6</speed>
<temp>0.00</temp>
<bpm>0</bpm>
<rpm>0.00</rpm>
</extensions>
</trkpt>
<trkpt lat="63.863506317" lon="-21.391096115">
<ele>13.572754</ele>
<time>2012-07-27T20:10:28Z</time>
<speed>3.020000</speed>
<extensions>
<speed>3.0</speed>
<temp>0.00</temp>
<bpm>0</bpm>
<rpm>0.00</rpm>
</extensions>
</trkpt>
<trkpt lat="63.863338470" lon="-21.391044617">
<ele>14.196533</ele>
<time>2012-07-27T20:10:33Z</time>
<speed>4.210000</speed>
<extensions>
<speed>4.2</speed>
<temp>0.00</temp>
<bpm>0</bpm>
<rpm>0.00</rpm>
</extensions>
</trkpt>
<trkpt lat="63.863197327" lon="-21.391069412">
<ele>15.378174</ele>
<time>2012-07-27T20:10:38Z</time>
<speed>2.790000</speed>
<extensions>
<speed>2.8</speed>
<temp>0.00</temp>
<bpm>0</bpm>
<rpm>0.00</rpm>
</extensions>
</trkpt>
<trkpt lat="63.863143921" lon="-21.391233444">
<ele>14.942627</ele>
<time>2012-07-27T20:10:43Z</time>
<speed>1.940000</speed>
<extensions>
<speed>1.9</speed>
<temp>0.00</temp>
<bpm>0</bpm>
<rpm>0.00</rpm>
</extensions>
</trkpt>
<trkpt lat="63.863124847" lon="-21.391395569">
<ele>14.522949</ele>
<time>2012-07-27T20:10:48Z</time>
<speed>1.440000</speed>
<extensions>
<speed>1.4</speed>
<temp>0.00</temp>
<bpm>0</bpm>
<rpm>0.00</rpm>
</extensions>
</trkpt>
<trkpt lat="63.863121033" lon="-21.391477585">
<ele>14.860107</ele>
<time>2012-07-27T20:10:53Z</time>
<speed>0.040000</speed>
<extensions>
<speed>0.0</speed>
<temp>0.00</temp>
<bpm>0</bpm>
<rpm>0.00</rpm>
</extensions>
</trkpt>
<trkpt lat="63.863121033" lon="-21.391477585">
<ele>15.115479</ele>
<time>2012-07-27T20:10:58Z</time>
<extensions>
<speed>0.0</speed>
<temp>0.00</temp>
<bpm>0</bpm>
<rpm>0.00</rpm>
</extensions>
</trkpt>
<trkpt lat="63.863117218" lon="-21.391513824">
<ele>15.122314</ele>
<time>2012-07-27T20:11:03Z</time>
<speed>0.910000</speed>
<extensions>
<speed>0.9</speed>
<temp>0.00</temp>
<bpm>0</bpm>
<rpm>0.00</rpm>
</extensions>
</trkpt>
<trkpt lat="63.863109589" lon="-21.391546249">
<ele>15.146484</ele>
<time>2012-07-27T20:11:08Z</time>
<extensions>
<speed>0.0</speed>
<temp>0.00</temp>
<bpm>0</bpm>
<rpm>0.00</rpm>
</extensions>
</trkpt>
<trkpt lat="63.863109589" lon="-21.391546249">
<ele>15.151367</ele>
<time>2012-07-27T20:11:13Z</time>
<extensions>
<speed>0.0</speed>
<temp>0.00</temp>
<bpm>0</bpm>
<rpm>0.00</rpm>
</extensions>
</trkpt>
<trkpt lat="63.863105774" lon="-21.391546249">
<ele>15.149658</ele>
<time>2012-07-27T20:11:18Z</time>
<speed>0.010000</speed>
<extensions>
<speed>0.0</speed>
<temp>0.00</temp>
<bpm>0</bpm>
<rpm>0.00</rpm>
</extensions>
</trkpt>
<trkpt lat="63.863109589" lon="-21.391546249">
<ele>15.142822</ele>
<time>2012-07-27T20:11:23Z</time>
<speed>0.010000</speed>
<extensions>
<speed>0.0</speed>
<temp>0.00</temp>
<bpm>0</bpm>
<rpm>0.00</rpm>
</extensions>
</trkpt>
<trkpt lat="63.863109589" lon="-21.391546249">
<ele>15.139648</ele>
<time>2012-07-27T20:11:28Z</time>
<speed>0.010000</speed>
<extensions>
<speed>0.0</speed>
<temp>0.00</temp>
<bpm>0</bpm>
<rpm>0.00</rpm>
</extensions>
</trkpt>
<trkpt lat="63.863105774" lon="-21.391546249">
<ele>15.135742</ele>
<time>2012-07-27T20:11:33Z</time>
<extensions>
<speed>0.0</speed>
<temp>0.00</temp>
<bpm>0</bpm>
<rpm>0.00</rpm>
</extensions>
</trkpt>
<trkpt lat="63.863105774" lon="-21.391546249">
<ele>15.129883</ele>
<time>2012-07-27T20:11:38Z</time>
<extensions>
<speed>0.0</speed>
<temp>0.00</temp>
<bpm>0</bpm>
<rpm>0.00</rpm>
</extensions>
</trkpt>
<trkpt lat="63.863105774" lon="-21.391546249">
<ele>15.124512</ele>
<time>2012-07-27T20:11:43Z</time>
<extensions>
<speed>0.0</speed>
<temp>0.00</temp>
<bpm>0</bpm>
<rpm>0.00</rpm>
</extensions>
</trkpt>
<trkpt lat="63.863105774" lon="-21.391546249">
<ele>15.116943</ele>
<time>2012-07-27T20:11:48Z</time>
<extensions>
<speed>0.0</speed>
<temp>0.00</temp>
<bpm>0</bpm>
<rpm>0.00</rpm>
</extensions>
</trkpt>
<trkpt lat="63.863105774" lon="-21.391546249">
<ele>15.115479</ele>
<time>2012-07-27T20:11:53Z</time>
<extensions>
<speed>0.0</speed>
<temp>0.00</temp>
<bpm>0</bpm>
<rpm>0.00</rpm>
</extensions>
</trkpt>
<trkpt lat="63.863105774" lon="-21.391546249">
<ele>15.113525</ele>
<time>2012-07-27T20:11:58Z</time>
<extensions>
<speed>0.0</speed>
<temp>0.00</temp>
<bpm>0</bpm>
<rpm>0.00</rpm>
</extensions>
</trkpt>
<trkpt lat="63.863105774" lon="-21.391546249">
<ele>15.111084</ele>
<time>2012-07-27T20:12:03Z</time>
<extensions>
<speed>0.0</speed>
<temp>0.00</temp>
<bpm>0</bpm>
<rpm>0.00</rpm>
</extensions>
</trkpt>
<trkpt lat="63.863105774" lon="-21.391546249">
<ele>15.111572</ele>
<time>2012-07-27T20:12:08Z</time>
<extensions>
<speed>0.0</speed>
<temp>0.00</temp>
<bpm>0</bpm>
<rpm>0.00</rpm>
</extensions>
</trkpt>
<trkpt lat="63.863105774" lon="-21.391546249">
<ele>15.112549</ele>
<time>2012-07-27T20:12:13Z</time>
<speed>0.010000</speed>
<extensions>
<speed>0.0</speed>
<temp>0.00</temp>
<bpm>0</bpm>
<rpm>0.00</rpm>
</extensions>
</trkpt>
<trkpt lat="63.863105774" lon="-21.391546249">
<ele>15.113770</ele>
<time>2012-07-27T20:12:18Z</time>
<extensions>
<speed>0.0</speed>
<temp>0.00</temp>
<bpm>0</bpm>
<rpm>0.00</rpm>
</extensions>
</trkpt>
<trkpt lat="63.863094330" lon="-21.391628265">
<ele>14.861572</ele>
<time>2012-07-27T20:12:23Z</time>
<speed>1.960000</speed>
<extensions>
<speed>2.0</speed>
<temp>0.00</temp>
<bpm>0</bpm>
<rpm>0.00</rpm>
</extensions>
</trkpt>
<trkpt lat="63.863067627" lon="-21.391807556">
<ele>14.719971</ele>
<time>2012-07-27T20:12:28Z</time>
<speed>0.500000</speed>
<extensions>
<speed>0.5</speed>
<temp>0.00</temp>
<bpm>0</bpm>
<rpm>0.00</rpm>
</extensions>
</trkpt>
<trkpt lat="63.863067627" lon="-21.391809464">
<ele>14.102051</ele>
<time>2012-07-27T20:12:33Z</time>
<extensions>
<speed>0.0</speed>
<temp>0.00</temp>
<bpm>0</bpm>
<rpm>0.00</rpm>
</extensions>
</trkpt>
<trkpt lat="63.863067627" lon="-21.391809464">
<ele>14.094238</ele>
<time>2012-07-27T20:12:38Z</time>
<extensions>
<speed>0.0</speed>
<temp>0.00</temp>
<bpm>0</bpm>
<rpm>0.00</rpm>
</extensions>
</trkpt>
<trkpt lat="63.863067627" lon="-21.391811371">
<ele>14.075684</ele>
<time>2012-07-27T20:12:43Z</time>
<speed>0.010000</speed>
<extensions>
<speed>0.0</speed>
<temp>0.00</temp>
<bpm>0</bpm>
<rpm>0.00</rpm>
</extensions>
</trkpt>
<trkpt lat="63.863067627" lon="-21.391811371">
<ele>14.086914</ele>
<time>2012-07-27T20:12:48Z</time>
<extensions>
<speed>0.0</speed>
<temp>0.00</temp>
<bpm>0</bpm>
<rpm>0.00</rpm>
</extensions>
</trkpt>
<trkpt lat="63.863067627" lon="-21.391813278">
<ele>14.076172</ele>
<time>2012-07-27T20:12:53Z</time>
<speed>0.010000</speed>
<extensions>
<speed>0.0</speed>
<temp>0.00</temp>
<bpm>0</bpm>
<rpm>0.00</rpm>
</extensions>
</trkpt>
<trkpt lat="63.863067627" lon="-21.391813278">
<ele>14.080566</ele>
<time>2012-07-27T20:12:58Z</time>
<speed>0.010000</speed>
<extensions>
<speed>0.0</speed>
<temp>0.00</temp>
<bpm>0</bpm>
<rpm>0.00</rpm>
</extensions>
</trkpt>
<trkpt lat="63.863067627" lon="-21.391813278">
<ele>14.079346</ele>
<time>2012-07-27T20:13:03Z</time>
<extensions>
<speed>0.0</speed>
<temp>0.00</temp>
<bpm>0</bpm>
<rpm>0.00</rpm>
</extensions>
</trkpt>
<trkpt lat="63.863052368" lon="-21.391902924">
<ele>14.072021</ele>
<time>2012-07-27T20:13:08Z</time>
<speed>2.240000</speed>
<extensions>
<speed>2.2</speed>
<temp>0.00</temp>
<bpm>0</bpm>
<rpm>0.00</rpm>
</extensions>
</trkpt>
<trkpt lat="63.863018036" lon="-21.392147064">
<ele>14.046875</ele>
<time>2012-07-27T20:13:13Z</time>
<speed>2.460000</speed>
<extensions>
<speed>2.5</speed>
<temp>0.00</temp>
<bpm>0</bpm>
<rpm>0.00</rpm>
</extensions>
</trkpt>
<trkpt lat="63.862979889" lon="-21.392362595">
<ele>14.328857</ele>
<time>2012-07-27T20:13:18Z</time>
<speed>2.210000</speed>
<extensions>
<speed>2.2</speed>
<temp>0.00</temp>
<bpm>0</bpm>
<rpm>0.00</rpm>
</extensions>
</trkpt>
<trkpt lat="63.862937927" lon="-21.392606735">
<ele>14.726074</ele>
<time>2012-07-27T20:13:23Z</time>
<speed>2.770000</speed>
<extensions>
<speed>2.8</speed>
<temp>0.00</temp>
<bpm>0</bpm>
<rpm>0.00</rpm>
</extensions>
</trkpt>
<trkpt lat="63.862899780" lon="-21.392778397">
<ele>14.586426</ele>
<time>2012-07-27T20:13:28Z</time>
<speed>1.460000</speed>
<extensions>
<speed>1.5</speed>
<temp>0.00</temp>
<bpm>0</bpm>
<rpm>0.00</rpm>
</extensions>
</trkpt>
<trkpt lat="63.862861633" lon="-21.392978668">
<ele>14.513672</ele>
<time>2012-07-27T20:13:33Z</time>
<speed>2.730000</speed>
<extensions>
<speed>2.7</speed>
<temp>0.00</temp>
<bpm>0</bpm>
<rpm>0.00</rpm>
</extensions>
</trkpt>
<trkpt lat="63.862808228" lon="-21.393264771">
<ele>14.444336</ele>
<time>2012-07-27T20:13:38Z</time>
<speed>3.300000</speed>
<extensions>
<speed>3.3</speed>
<temp>0.00</temp>
<bpm>0</bpm>
<rpm>0.00</rpm>
</extensions>
</trkpt>
<trkpt lat="63.862743378" lon="-21.393598557">
<ele>15.544434</ele>
<time>2012-07-27T20:13:43Z</time>
<speed>3.000000</speed>
<extensions>
<speed>3.0</speed>
<temp>0.00</temp>
<bpm>0</bpm>
<rpm>0.00</rpm>
</extensions>
</trkpt>
<trkpt lat="63.862678528" lon="-21.393867493">
<ele>15.540039</ele>
<time>2012-07-27T20:13:48Z</time>
<speed>3.690000</speed>
<extensions>
<speed>3.7</speed>
<temp>0.00</temp>
<bpm>0</bpm>
<rpm>0.00</rpm>
</extensions>
</trkpt>
<trkpt lat="63.862583160" lon="-21.394250870">
<ele>15.685791</ele>
<time>2012-07-27T20:13:53Z</time>
<speed>5.100000</speed>
<extensions>
<speed>5.1</speed>
<temp>0.00</temp>
<bpm>0</bpm>
<rpm>0.00</rpm>
</extensions>
</trkpt>
<trkpt lat="63.862472534" lon="-21.394611359">
<ele>16.012207</ele>
<time>2012-07-27T20:13:58Z</time>
<speed>4.120000</speed>
<extensions>
<speed>4.1</speed>
<temp>0.00</temp>
<bpm>0</bpm>
<rpm>0.00</rpm>
</extensions>
</trkpt>
<trkpt lat="63.862354279" lon="-21.394952774">
<ele>15.581787</ele>
<time>2012-07-27T20:14:03Z</time>
<speed>4.680000</speed>
<extensions>
<speed>4.7</speed>
<temp>0.00</temp>
<bpm>0</bpm>
<rpm>0.00</rpm>
</extensions>
</trkpt>
<trkpt lat="63.862197876" lon="-21.395301819">
<ele>15.151855</ele>
<time>2012-07-27T20:14:08Z</time>
<speed>4.720000</speed>
<extensions>
<speed>4.7</speed>
<temp>0.00</temp>
<bpm>0</bpm>
<rpm>0.00</rpm>
</extensions>
</trkpt>
<trkpt lat="63.862060547" lon="-21.395587921">
<ele>15.371582</ele>
<time>2012-07-27T20:14:13Z</time>
<speed>3.780000</speed>
<extensions>
<speed>3.8</speed>
<temp>0.00</temp>
<bpm>0</bpm>
<rpm>0.00</rpm>
</extensions>
</trkpt>
<trkpt lat="63.861957550" lon="-21.395784378">
<ele>15.238525</ele>
<time>2012-07-27T20:14:18Z</time>
<speed>2.650000</speed>
<extensions>
<speed>2.6</speed>
<temp>0.00</temp>
<bpm>0</bpm>
<rpm>0.00</rpm>
</extensions>
</trkpt>
<trkpt lat="63.861881256" lon="-21.395908356">
<ele>15.595947</ele>
<time>2012-07-27T20:14:23Z</time>
<speed>1.760000</speed>
<extensions>
<speed>1.8</speed>
<temp>0.00</temp>
<bpm>0</bpm>
<rpm>0.00</rpm>
</extensions>
</trkpt>
<trkpt lat="63.861797333" lon="-21.396030426">
<ele>15.855957</ele>
<time>2012-07-27T20:14:28Z</time>
<speed>3.350000</speed>
<extensions>
<speed>3.4</speed>
<temp>0.00</temp>
<bpm>0</bpm>
<rpm>0.00</rpm>
</extensions>
</trkpt>
<trkpt lat="63.861640930" lon="-21.396261215">
<ele>16.039063</ele>
<time>2012-07-27T20:14:33Z</time>
<speed>4.390000</speed>
<extensions>
<speed>4.4</speed>
<temp>0.00</temp>
<bpm>0</bpm>
<rpm>0.00</rpm>
</extensions>
</trkpt>
<trkpt lat="63.861488342" lon="-21.396486282">
<ele>16.608398</ele>
<time>2012-07-27T20:14:38Z</time>
<speed>3.730000</speed>
<extensions>
<speed>3.7</speed>
<temp>0.00</temp>
<bpm>0</bpm>
<rpm>0.00</rpm>
</extensions>
</trkpt>
<trkpt lat="63.861339569" lon="-21.396688461">
<ele>16.978027</ele>
<time>2012-07-27T20:14:43Z</time>
<speed>4.000000</speed>
<extensions>
<speed>4.0</speed>
<temp>0.00</temp>
<bpm>0</bpm>
<rpm>0.00</rpm>
</extensions>
</trkpt>
<trkpt lat="63.861171722" lon="-21.396940231">
<ele>17.418457</ele>
<time>2012-07-27T20:14:48Z</time>
<speed>4.670000</speed>
<extensions>
<speed>4.7</speed>
<temp>0.00</temp>
<bpm>0</bpm>
<rpm>0.00</rpm>
</extensions>
</trkpt>
<trkpt lat="63.860984802" lon="-21.397218704">
<ele>18.077637</ele>
<time>2012-07-27T20:14:53Z</time>
<speed>5.000000</speed>
<extensions>
<speed>5.0</speed>
<temp>0.00</temp>
<bpm>0</bpm>
<rpm>0.00</rpm>
</extensions>
</trkpt>
<trkpt lat="63.860790253" lon="-21.397493362">
<ele>18.786621</ele>
<time>2012-07-27T20:14:58Z</time>
<speed>5.010000</speed>
<extensions>
<speed>5.0</speed>
<temp>0.00</temp>
<bpm>0</bpm>
<rpm>0.00</rpm>
</extensions>
</trkpt>
<trkpt lat="63.860610962" lon="-21.397758484">
<ele>19.075195</ele>
<time>2012-07-27T20:15:03Z</time>
<speed>4.370000</speed>
<extensions>
<speed>4.4</speed>
<temp>0.00</temp>
<bpm>0</bpm>
<rpm>0.00</rpm>
</extensions>
</trkpt>
<trkpt lat="63.860439301" lon="-21.398010254">
<ele>18.769531</ele>
<time>2012-07-27T20:15:08Z</time>
<speed>4.830000</speed>
<extensions>
<speed>4.8</speed>
<temp>0.00</temp>
<bpm>0</bpm>
<rpm>0.00</rpm>
</extensions>
</trkpt>
<trkpt lat="63.860252380" lon="-21.398307800">
<ele>19.067383</ele>
<time>2012-07-27T20:15:13Z</time>
<speed>5.160000</speed>
<extensions>
<speed>5.2</speed>
<temp>0.00</temp>
<bpm>0</bpm>
<rpm>0.00</rpm>
</extensions>
</trkpt>
<trkpt lat="63.860061646" lon="-21.398612976">
<ele>19.975586</ele>
<time>2012-07-27T20:15:18Z</time>
<speed>5.610000</speed>
<extensions>
<speed>5.6</speed>
<temp>0.00</temp>
<bpm>0</bpm>
<rpm>0.00</rpm>
</extensions>
</trkpt>
<trkpt lat="63.859867096" lon="-21.398931503">
<ele>20.833496</ele>
<time>2012-07-27T20:15:23Z</time>
<speed>5.460000</speed>
<extensions>
<speed>5.5</speed>
<temp>0.00</temp>
<bpm>0</bpm>
<rpm>0.00</rpm>
</extensions>
</trkpt>
<trkpt lat="63.859676361" lon="-21.399276733">
<ele>20.794922</ele>
<time>2012-07-27T20:15:28Z</time>
<speed>5.600000</speed>
<extensions>
<speed>5.6</speed>
<temp>0.00</temp>
<bpm>0</bpm>
<rpm>0.00</rpm>
</extensions>
</trkpt>
<trkpt lat="63.859481812" lon="-21.399618149">
<ele>20.801270</ele>
<time>2012-07-27T20:15:33Z</time>
<speed>5.640000</speed>
<extensions>
<speed>5.6</speed>
<temp>0.00</temp>
<bpm>0</bpm>
<rpm>0.00</rpm>
</extensions>
</trkpt>
<trkpt lat="63.859283447" lon="-21.399982452">
<ele>21.169922</ele>
<time>2012-07-27T20:15:38Z</time>
<speed>5.800000</speed>
<extensions>
<speed>5.8</speed>
<temp>0.00</temp>
<bpm>0</bpm>
<rpm>0.00</rpm>
</extensions>
</trkpt>
<trkpt lat="63.859081268" lon="-21.400341034">
<ele>20.665039</ele>
<time>2012-07-27T20:15:43Z</time>
<speed>4.790000</speed>
<extensions>
<speed>4.8</speed>
<temp>0.00</temp>
<bpm>0</bpm>
<rpm>0.00</rpm>
</extensions>
</trkpt>
<trkpt lat="63.858894348" lon="-21.400709152">
<ele>20.857422</ele>
<time>2012-07-27T20:15:48Z</time>
<speed>5.590000</speed>
<extensions>
<speed>5.6</speed>
<temp>0.00</temp>
<bpm>0</bpm>
<rpm>0.00</rpm>
</extensions>
</trkpt>
<trkpt lat="63.858699799" lon="-21.401090622">
<ele>20.882813</ele>
<time>2012-07-27T20:15:53Z</time>
<speed>5.900000</speed>
<extensions>
<speed>5.9</speed>
<temp>0.00</temp>
<bpm>0</bpm>
<rpm>0.00</rpm>
</extensions>
</trkpt>
<trkpt lat="63.858509064" lon="-21.401489258">
<ele>21.437500</ele>
<time>2012-07-27T20:15:58Z</time>
<speed>4.920000</speed>
<extensions>
<speed>4.9</speed>
<temp>0.00</temp>
<bpm>0</bpm>
<rpm>0.00</rpm>
</extensions>
</trkpt>
<trkpt lat="63.858375549" lon="-21.401754379">
<ele>21.456055</ele>
<time>2012-07-27T20:16:03Z</time>
<speed>3.470000</speed>
<extensions>
<speed>3.5</speed>
<temp>0.00</temp>
<bpm>0</bpm>
<rpm>0.00</rpm>
</extensions>
</trkpt>
<trkpt lat="63.858280182" lon="-21.401960373">
<ele>21.812988</ele>
<time>2012-07-27T20:16:08Z</time>
<speed>2.320000</speed>
<extensions>
<speed>2.3</speed>
<temp>0.00</temp>
<bpm>0</bpm>
<rpm>0.00</rpm>
</extensions>
</trkpt>
<trkpt lat="63.858222961" lon="-21.402086258">
<ele>21.636230</ele>
<time>2012-07-27T20:16:13Z</time>
<speed>1.560000</speed>
<extensions>
<speed>1.6</speed>
<temp>0.00</temp>
<bpm>0</bpm>
<rpm>0.00</rpm>
</extensions>
</trkpt>
<trkpt lat="63.858158112" lon="-21.402217865">
<ele>21.860840</ele>
<time>2012-07-27T20:16:18Z</time>
<speed>2.780000</speed>
<extensions>
<speed>2.8</speed>
<temp>0.00</temp>
<bpm>0</bpm>
<rpm>0.00</rpm>
</extensions>
</trkpt>
<trkpt lat="63.858051300" lon="-21.402462006">
<ele>21.481934</ele>
<time>2012-07-27T20:16:23Z</time>
<speed>3.980000</speed>
<extensions>
<speed>4.0</speed>
<temp>0.00</temp>
<bpm>0</bpm>
<rpm>0.00</rpm>
</extensions>
</trkpt>
<trkpt lat="63.857913971" lon="-21.402799606">
<ele>21.413086</ele>
<time>2012-07-27T20:16:28Z</time>
<speed>4.810000</speed>
<extensions>
<speed>4.8</speed>
<temp>0.00</temp>
<bpm>0</bpm>
<rpm>0.00</rpm>
</extensions>
</trkpt>
<trkpt lat="63.857765198" lon="-21.403163910">
<ele>21.203125</ele>
<time>2012-07-27T20:16:33Z</time>
<speed>5.010000</speed>
<extensions>
<speed>5.0</speed>
<temp>0.00</temp>
<bpm>0</bpm>
<rpm>0.00</rpm>
</extensions>
</trkpt>
<trkpt lat="63.857601166" lon="-21.403530121">
<ele>20.939453</ele>
<time>2012-07-27T20:16:38Z</time>
<speed>5.130000</speed>
<extensions>
<speed>5.1</speed>
<temp>0.00</temp>
<bpm>0</bpm>
<rpm>0.00</rpm>
</extensions>
</trkpt>
<trkpt lat="63.857440948" lon="-21.403936386">
<ele>21.226074</ele>
<time>2012-07-27T20:16:43Z</time>
<speed>5.410000</speed>
<extensions>
<speed>5.4</speed>
<temp>0.00</temp>
<bpm>0</bpm>
<rpm>0.00</rpm>
</extensions>
</trkpt>
<trkpt lat="63.857273102" lon="-21.404335022">
<ele>21.578125</ele>
<time>2012-07-27T20:16:48Z</time>
<speed>5.100000</speed>
<extensions>
<speed>5.1</speed>
<temp>0.00</temp>
<bpm>0</bpm>
<rpm>0.00</rpm>
</extensions>
</trkpt>
<trkpt lat="63.857124329" lon="-21.404720306">
<ele>21.224609</ele>
<time>2012-07-27T20:16:53Z</time>
<speed>5.000000</speed>
<extensions>
<speed>5.0</speed>
<temp>0.00</temp>
<bpm>0</bpm>
<rpm>0.00</rpm>
</extensions>
</trkpt>
<trkpt lat="63.856971741" lon="-21.405124664">
<ele>21.263184</ele>
<time>2012-07-27T20:16:58Z</time>
<speed>5.430000</speed>
<extensions>
<speed>5.4</speed>
<temp>0.00</temp>
<bpm>0</bpm>
<rpm>0.00</rpm>
</extensions>
</trkpt>
<trkpt lat="63.856803894" lon="-21.405561447">
<ele>21.375488</ele>
<time>2012-07-27T20:17:03Z</time>
<speed>5.440000</speed>
<extensions>
<speed>5.4</speed>
<temp>0.00</temp>
<bpm>0</bpm>
<rpm>0.00</rpm>
</extensions>
</trkpt>
<trkpt lat="63.856674194" lon="-21.405908585">
<ele>21.440918</ele>
<time>2012-07-27T20:17:08Z</time>
<speed>3.830000</speed>
<extensions>
<speed>3.8</speed>
<temp>0.00</temp>
<bpm>0</bpm>
<rpm>0.00</rpm>
</extensions>
</trkpt>
<trkpt lat="63.856575012" lon="-21.406181335">
<ele>21.467285</ele>
<time>2012-07-27T20:17:13Z</time>
<speed>3.640000</speed>
<extensions>
<speed>3.6</speed>
<temp>0.00</temp>
<bpm>0</bpm>
<rpm>0.00</rpm>
</extensions>
</trkpt>
<trkpt lat="63.856468201" lon="-21.406499863">
<ele>21.672363</ele>
<time>2012-07-27T20:17:18Z</time>
<speed>4.200000</speed>
<extensions>
<speed>4.2</speed>
<temp>0.00</temp>
<bpm>0</bpm>
<rpm>0.00</rpm>
</extensions>
</trkpt>
<trkpt lat="63.856342316" lon="-21.406862259">
<ele>21.461914</ele>
<time>2012-07-27T20:17:23Z</time>
<speed>4.780000</speed>
<extensions>
<speed>4.8</speed>
<temp>0.00</temp>
<bpm>0</bpm>
<rpm>0.00</rpm>
</extensions>
</trkpt>
<trkpt lat="63.856201172" lon="-21.407279968">
<ele>21.145508</ele>
<time>2012-07-27T20:17:28Z</time>
<speed>5.250000</speed>
<extensions>
<speed>5.2</speed>
<temp>0.00</temp>
<bpm>0</bpm>
<rpm>0.00</rpm>
</extensions>
</trkpt>
<trkpt lat="63.856060028" lon="-21.407724380">
<ele>21.280762</ele>
<time>2012-07-27T20:17:33Z</time>
<speed>5.530000</speed>
<extensions>
<speed>5.5</speed>
<temp>0.00</temp>
<bpm>0</bpm>
<rpm>0.00</rpm>
</extensions>
</trkpt>
<trkpt lat="63.855903625" lon="-21.408205032">
<ele>21.039063</ele>
<time>2012-07-27T20:17:38Z</time>
<speed>5.930000</speed>
<extensions>
<speed>5.9</speed>
<temp>0.00</temp>
<bpm>0</bpm>
<rpm>0.00</rpm>
</extensions>
</trkpt>
<trkpt lat="63.855773926" lon="-21.408639908">
<ele>21.104004</ele>
<time>2012-07-27T20:17:43Z</time>
<speed>4.720000</speed>
<extensions>
<speed>4.7</speed>
<temp>0.00</temp>
<bpm>0</bpm>
<rpm>0.00</rpm>
</extensions>
</trkpt>
<trkpt lat="63.855644226" lon="-21.409078598">
<ele>21.152832</ele>
<time>2012-07-27T20:17:48Z</time>
<speed>5.610000</speed>
<extensions>
<speed>5.6</speed>
<temp>0.00</temp>
<bpm>0</bpm>
<rpm>0.00</rpm>
</extensions>
</trkpt>
<trkpt lat="63.855518341" lon="-21.409511566">
<ele>21.201172</ele>
<time>2012-07-27T20:17:53Z</time>
<speed>4.340000</speed>
<extensions>
<speed>4.3</speed>
<temp>0.00</temp>
<bpm>0</bpm>
<rpm>0.00</rpm>
</extensions>
</trkpt>
<trkpt lat="63.855422974" lon="-21.409851074">
<ele>21.618164</ele>
<time>2012-07-27T20:17:58Z</time>
<speed>4.120000</speed>
<extensions>
<speed>4.1</speed>
<temp>0.00</temp>
<bpm>0</bpm>
<rpm>0.00</rpm>
</extensions>
</trkpt>
<trkpt lat="63.855319977" lon="-21.410245895">
<ele>21.570801</ele>
<time>2012-07-27T20:18:03Z</time>
<speed>4.660000</speed>
<extensions>
<speed>4.7</speed>
<temp>0.00</temp>
<bpm>0</bpm>
<rpm>0.00</rpm>
</extensions>
</trkpt>
<trkpt lat="63.855201721" lon="-21.410665512">
<ele>21.730957</ele>
<time>2012-07-27T20:18:08Z</time>
<speed>4.790000</speed>
<extensions>
<speed>4.8</speed>
<temp>0.00</temp>
<bpm>0</bpm>
<rpm>0.00</rpm>
</extensions>
</trkpt>
<trkpt lat="63.855098724" lon="-21.411035538">
<ele>21.739258</ele>
<time>2012-07-27T20:18:13Z</time>
<speed>3.610000</speed>
<extensions>
<speed>3.6</speed>
<temp>0.00</temp>
<bpm>0</bpm>
<rpm>0.00</rpm>
</extensions>
</trkpt>
<trkpt lat="63.855026245" lon="-21.411346436">
<ele>21.702148</ele>
<time>2012-07-27T20:18:18Z</time>
<speed>3.810000</speed>
<extensions>
<speed>3.8</speed>
<temp>0.00</temp>
<bpm>0</bpm>
<rpm>0.00</rpm>
</extensions>
</trkpt>
<trkpt lat="63.854930878" lon="-21.411725998">
<ele>21.952637</ele>
<time>2012-07-27T20:18:23Z</time>
<speed>4.420000</speed>
<extensions>
<speed>4.4</speed>
<temp>0.00</temp>
<bpm>0</bpm>
<rpm>0.00</rpm>
</extensions>
</trkpt>
<trkpt lat="63.854835510" lon="-21.412122726">
<ele>22.009277</ele>
<time>2012-07-27T20:18:28Z</time>
<speed>4.360000</speed>
<extensions>
<speed>4.4</speed>
<temp>0.00</temp>
<bpm>0</bpm>
<rpm>0.00</rpm>
</extensions>
</trkpt>
<trkpt lat="63.854743958" lon="-21.412528992">
<ele>22.449219</ele>
<time>2012-07-27T20:18:33Z</time>
<speed>4.640000</speed>
<extensions>
<speed>4.6</speed>
<temp>0.00</temp>
<bpm>0</bpm>
<rpm>0.00</rpm>
</extensions>
</trkpt>
<trkpt lat="63.854644775" lon="-21.412952423">
<ele>22.347168</ele>
<time>2012-07-27T20:18:38Z</time>
<speed>4.800000</speed>
<extensions>
<speed>4.8</speed>
<temp>0.00</temp>
<bpm>0</bpm>
<rpm>0.00</rpm>
</extensions>
</trkpt>
<trkpt lat="63.854549408" lon="-21.413381577">
<ele>22.426758</ele>
<time>2012-07-27T20:18:43Z</time>
<speed>4.260000</speed>
<extensions>
<speed>4.3</speed>
<temp>0.00</temp>
<bpm>0</bpm>
<rpm>0.00</rpm>
</extensions>
</trkpt>
<trkpt lat="63.854480743" lon="-21.413719177">
<ele>22.676270</ele>
<time>2012-07-27T20:18:48Z</time>
<speed>3.630000</speed>
<extensions>
<speed>3.6</speed>
<temp>0.00</temp>
<bpm>0</bpm>
<rpm>0.00</rpm>
</extensions>
</trkpt>
<trkpt lat="63.854400635" lon="-21.414085388">
<ele>22.549805</ele>
<time>2012-07-27T20:18:53Z</time>
<speed>4.320000</speed>
<extensions>
<speed>4.3</speed>
<temp>0.00</temp>
<bpm>0</bpm>
<rpm>0.00</rpm>
</extensions>
</trkpt>
<trkpt lat="63.854320526" lon="-21.414491653">
<ele>22.822266</ele>
<time>2012-07-27T20:18:58Z</time>
<speed>4.420000</speed>
<extensions>
<speed>4.4</speed>
<temp>0.00</temp>
<bpm>0</bpm>
<rpm>0.00</rpm>
</extensions>
</trkpt>
<trkpt lat="63.854236603" lon="-21.414897919">
<ele>22.907715</ele>
<time>2012-07-27T20:19:03Z</time>
<speed>4.510000</speed>
<extensions>
<speed>4.5</speed>
<temp>0.00</temp>
<bpm>0</bpm>
<rpm>0.00</rpm>
</extensions>
</trkpt>
<trkpt lat="63.854152679" lon="-21.415309906">
<ele>22.877441</ele>
<time>2012-07-27T20:19:08Z</time>
<speed>4.320000</speed>
<extensions>
<speed>4.3</speed>
<temp>0.00</temp>
<bpm>0</bpm>
<rpm>0.00</rpm>
</extensions>
</trkpt>
<trkpt lat="63.854076385" lon="-21.415721893">
<ele>23.769531</ele>
<time>2012-07-27T20:19:13Z</time>
<speed>4.610000</speed>
<extensions>
<speed>4.6</speed>
<temp>0.00</temp>
<bpm>0</bpm>
<rpm>0.00</rpm>
</extensions>
</trkpt>
<trkpt lat="63.853996277" lon="-21.416158676">
<ele>24.370605</ele>
<time>2012-07-27T20:19:18Z</time>
<speed>4.790000</speed>
<extensions>
<speed>4.8</speed>
<temp>0.00</temp>
<bpm>0</bpm>
<rpm>0.00</rpm>
</extensions>
</trkpt>
<trkpt lat="63.853908539" lon="-21.416622162">
<ele>24.361328</ele>
<time>2012-07-27T20:19:23Z</time>
<speed>5.010000</speed>
<extensions>
<speed>5.0</speed>
<temp>0.00</temp>
<bpm>0</bpm>
<rpm>0.00</rpm>
</extensions>
</trkpt>
<trkpt lat="63.853843689" lon="-21.417047501">
<ele>24.466797</ele>
<time>2012-07-27T20:19:28Z</time>
<speed>3.850000</speed>
<extensions>
<speed>3.8</speed>
<temp>0.00</temp>
<bpm>0</bpm>
<rpm>0.00</rpm>
</extensions>
</trkpt>
<trkpt lat="63.853790283" lon="-21.417352676">
<ele>24.692383</ele>
<time>2012-07-27T20:19:33Z</time>
<speed>3.330000</speed>
<extensions>
<speed>3.3</speed>
<temp>0.00</temp>
<bpm>0</bpm>
<rpm>0.00</rpm>
</extensions>
</trkpt>
<trkpt lat="63.853729248" lon="-21.417730331">
<ele>25.208496</ele>
<time>2012-07-27T20:19:38Z</time>
<speed>4.430000</speed>
<extensions>
<speed>4.4</speed>
<temp>0.00</temp>
<bpm>0</bpm>
<rpm>0.00</rpm>
</extensions>
</trkpt>
<trkpt lat="63.853664398" lon="-21.418167114">
<ele>25.393066</ele>
<time>2012-07-27T20:19:43Z</time>
<speed>4.690000</speed>
<extensions>
<speed>4.7</speed>
<temp>0.00</temp>
<bpm>0</bpm>
<rpm>0.00</rpm>
</extensions>
</trkpt>
<trkpt lat="63.853595734" lon="-21.418622971">
<ele>25.455078</ele>
<time>2012-07-27T20:19:48Z</time>
<speed>4.860000</speed>
<extensions>
<speed>4.9</speed>
<temp>0.00</temp>
<bpm>0</bpm>
<rpm>0.00</rpm>
</extensions>
</trkpt>
<trkpt lat="63.853534698" lon="-21.419094086">
<ele>25.920410</ele>
<time>2012-07-27T20:19:53Z</time>
<speed>4.900000</speed>
<extensions>
<speed>4.9</speed>
<temp>0.00</temp>
<bpm>0</bpm>
<rpm>0.00</rpm>
</extensions>
</trkpt>
<trkpt lat="63.853473663" lon="-21.419513702">
<ele>26.352539</ele>
<time>2012-07-27T20:19:58Z</time>
<speed>3.650000</speed>
<extensions>
<speed>3.7</speed>
<temp>0.00</temp>
<bpm>0</bpm>
<rpm>0.00</rpm>
</extensions>
</trkpt>
<trkpt lat="63.853427887" lon="-21.419809341">
<ele>26.437988</ele>
<time>2012-07-27T20:20:03Z</time>
<speed>3.120000</speed>
<extensions>
<speed>3.1</speed>
<temp>0.00</temp>
<bpm>0</bpm>
<rpm>0.00</rpm>
</extensions>
</trkpt>
<trkpt lat="63.853382111" lon="-21.420166016">
<ele>26.536133</ele>
<time>2012-07-27T20:20:08Z</time>
<speed>3.980000</speed>
<extensions>
<speed>4.0</speed>
<temp>0.00</temp>
<bpm>0</bpm>
<rpm>0.00</rpm>
</extensions>
</trkpt>
<trkpt lat="63.853340149" lon="-21.420557022">
<ele>26.467773</ele>
<time>2012-07-27T20:20:13Z</time>
<speed>4.250000</speed>
<extensions>
<speed>4.3</speed>
<temp>0.00</temp>
<bpm>0</bpm>
<rpm>0.00</rpm>
</extensions>
</trkpt>
<trkpt lat="63.853279114" lon="-21.420999527">
<ele>26.724609</ele>
<time>2012-07-27T20:20:18Z</time>
<speed>4.580000</speed>
<extensions>
<speed>4.6</speed>
<temp>0.00</temp>
<bpm>0</bpm>
<rpm>0.00</rpm>
</extensions>
</trkpt>
<trkpt lat="63.853225708" lon="-21.421478271">
<ele>27.163574</ele>
<time>2012-07-27T20:20:23Z</time>
<speed>4.890000</speed>
<extensions>
<speed>4.9</speed>
<temp>0.00</temp>
<bpm>0</bpm>
<rpm>0.00</rpm>
</extensions>
</trkpt>
<trkpt lat="63.853172302" lon="-21.421955109">
<ele>27.490723</ele>
<time>2012-07-27T20:20:28Z</time>
<speed>4.870000</speed>
<extensions>
<speed>4.9</speed>
<temp>0.00</temp>
<bpm>0</bpm>
<rpm>0.00</rpm>
</extensions>
</trkpt>
<trkpt lat="63.853130341" lon="-21.422426224">
<ele>27.471191</ele>
<time>2012-07-27T20:20:33Z</time>
<speed>4.640000</speed>
<extensions>
<speed>4.6</speed>
<temp>0.00</temp>
<bpm>0</bpm>
<rpm>0.00</rpm>
</extensions>
</trkpt>
<trkpt lat="63.853080750" lon="-21.422895432">
<ele>27.535645</ele>
<time>2012-07-27T20:20:38Z</time>
<speed>4.700000</speed>
<extensions>
<speed>4.7</speed>
<temp>0.00</temp>
<bpm>0</bpm>
<rpm>0.00</rpm>
</extensions>
</trkpt>
<trkpt lat="63.853038788" lon="-21.423355103">
<ele>27.519531</ele>
<time>2012-07-27T20:20:43Z</time>
<speed>4.680000</speed>
<extensions>
<speed>4.7</speed>
<temp>0.00</temp>
<bpm>0</bpm>
<rpm>0.00</rpm>
</extensions>
</trkpt>
<trkpt lat="63.853000641" lon="-21.423786163">
<ele>27.633301</ele>
<time>2012-07-27T20:20:48Z</time>
<speed>3.420000</speed>
<extensions>
<speed>3.4</speed>
<temp>0.00</temp>
<bpm>0</bpm>
<rpm>0.00</rpm>
</extensions>
</trkpt>
<trkpt lat="63.852973938" lon="-21.424095154">
<ele>27.807129</ele>
<time>2012-07-27T20:20:53Z</time>
<speed>3.390000</speed>
<extensions>
<speed>3.4</speed>
<temp>0.00</temp>
<bpm>0</bpm>
<rpm>0.00</rpm>
</extensions>
</trkpt>
<trkpt lat="63.852943420" lon="-21.424467087">
<ele>27.888672</ele>
<time>2012-07-27T20:20:58Z</time>
<speed>4.040000</speed>
<extensions>
<speed>4.0</speed>
<temp>0.00</temp>
<bpm>0</bpm>
<rpm>0.00</rpm>
</extensions>
</trkpt>
<trkpt lat="63.852912903" lon="-21.424882889">
<ele>28.033691</ele>
<time>2012-07-27T20:21:03Z</time>
<speed>4.130000</speed>
<extensions>
<speed>4.1</speed>
<temp>0.00</temp>
<bpm>0</bpm>
<rpm>0.00</rpm>
</extensions>
</trkpt>
<trkpt lat="63.852882385" lon="-21.425308228">
<ele>28.317871</ele>
<time>2012-07-27T20:21:08Z</time>
<speed>4.220000</speed>
<extensions>
<speed>4.2</speed>
<temp>0.00</temp>
<bpm>0</bpm>
<rpm>0.00</rpm>
</extensions>
</trkpt>
<trkpt lat="63.852851868" lon="-21.425720215">
<ele>28.275391</ele>
<time>2012-07-27T20:21:13Z</time>
<speed>4.290000</speed>
<extensions>
<speed>4.3</speed>
<temp>0.00</temp>
<bpm>0</bpm>
<rpm>0.00</rpm>
</extensions>
</trkpt>
<trkpt lat="63.852825165" lon="-21.426147461">
<ele>28.895508</ele>
<time>2012-07-27T20:21:18Z</time>
<speed>4.180000</speed>
<extensions>
<speed>4.2</speed>
<temp>0.00</temp>
<bpm>0</bpm>
<rpm>0.00</rpm>
</extensions>
</trkpt>
<trkpt lat="63.852798462" lon="-21.426565170">
<ele>28.797852</ele>
<time>2012-07-27T20:21:23Z</time>
<speed>4.290000</speed>
<extensions>
<speed>4.3</speed>
<temp>0.00</temp>
<bpm>0</bpm>
<rpm>0.00</rpm>
</extensions>
</trkpt>
<trkpt lat="63.852764130" lon="-21.427005768">
<ele>28.669434</ele>
<time>2012-07-27T20:21:28Z</time>
<speed>4.540000</speed>
<extensions>
<speed>4.5</speed>
<temp>0.00</temp>
<bpm>0</bpm>
<rpm>0.00</rpm>
</extensions>
</trkpt>
<trkpt lat="63.852756500" lon="-21.427429199">
<ele>28.327148</ele>
<time>2012-07-27T20:21:33Z</time>
<speed>3.390000</speed>
<extensions>
<speed>3.4</speed>
<temp>0.00</temp>
<bpm>0</bpm>
<rpm>0.00</rpm>
</extensions>
</trkpt>
<trkpt lat="63.852741241" lon="-21.427692413">
<ele>28.692383</ele>
<time>2012-07-27T20:21:38Z</time>
<speed>2.340000</speed>
<extensions>
<speed>2.3</speed>
<temp>0.00</temp>
<bpm>0</bpm>
<rpm>0.00</rpm>
</extensions>
</trkpt>
<trkpt lat="63.852729797" lon="-21.428018570">
<ele>28.494629</ele>
<time>2012-07-27T20:21:43Z</time>
<speed>3.980000</speed>
<extensions>
<speed>4.0</speed>
<temp>0.00</temp>
<bpm>0</bpm>
<rpm>0.00</rpm>
</extensions>
</trkpt>
<trkpt lat="63.852718353" lon="-21.428434372">
<ele>28.249512</ele>
<time>2012-07-27T20:21:48Z</time>
<speed>4.290000</speed>
<extensions>
<speed>4.3</speed>
<temp>0.00</temp>
<bpm>0</bpm>
<rpm>0.00</rpm>
</extensions>
</trkpt>
<trkpt lat="63.852699280" lon="-21.428899765">
<ele>28.260254</ele>
<time>2012-07-27T20:21:53Z</time>
<speed>4.860000</speed>
<extensions>
<speed>4.9</speed>
<temp>0.00</temp>
<bpm>0</bpm>
<rpm>0.00</rpm>
</extensions>
</trkpt>
<trkpt lat="63.852684021" lon="-21.429338455">
<ele>28.474121</ele>
<time>2012-07-27T20:21:58Z</time>
<speed>3.440000</speed>
<extensions>
<speed>3.4</speed>
<temp>0.00</temp>
<bpm>0</bpm>
<rpm>0.00</rpm>
</extensions>
</trkpt>
<trkpt lat="63.852680206" lon="-21.429679871">
<ele>28.855469</ele>
<time>2012-07-27T20:22:03Z</time>
<speed>4.040000</speed>
<extensions>
<speed>4.0</speed>
<temp>0.00</temp>
<bpm>0</bpm>
<rpm>0.00</rpm>
</extensions>
</trkpt>
<trkpt lat="63.852661133" lon="-21.430118561">
<ele>29.017090</ele>
<time>2012-07-27T20:22:08Z</time>
<speed>4.570000</speed>
<extensions>
<speed>4.6</speed>
<temp>0.00</temp>
<bpm>0</bpm>
<rpm>0.00</rpm>
</extensions>
</trkpt>
<trkpt lat="63.852649689" lon="-21.430574417">
<ele>29.057129</ele>
<time>2012-07-27T20:22:13Z</time>
<speed>3.660000</speed>
<extensions>
<speed>3.7</speed>
<temp>0.00</temp>
<bpm>0</bpm>
<rpm>0.00</rpm>
</extensions>
</trkpt>
<trkpt lat="63.852638245" lon="-21.430953979">
<ele>29.423828</ele>
<time>2012-07-27T20:22:18Z</time>
<speed>4.060000</speed>
<extensions>
<speed>4.1</speed>
<temp>0.00</temp>
<bpm>0</bpm>
<rpm>0.00</rpm>
</extensions>
</trkpt>
<trkpt lat="63.852626801" lon="-21.431394577">
<ele>29.498535</ele>
<time>2012-07-27T20:22:23Z</time>
<speed>4.600000</speed>
<extensions>
<speed>4.6</speed>
<temp>0.00</temp>
<bpm>0</bpm>
<rpm>0.00</rpm>
</extensions>
</trkpt>
<trkpt lat="63.852611542" lon="-21.431837082">
<ele>29.647949</ele>
<time>2012-07-27T20:22:28Z</time>
<speed>3.470000</speed>
<extensions>
<speed>3.5</speed>
<temp>0.00</temp>
<bpm>0</bpm>
<rpm>0.00</rpm>
</extensions>
</trkpt>
<trkpt lat="63.852600098" lon="-21.432147980">
<ele>29.940918</ele>
<time>2012-07-27T20:22:33Z</time>
<speed>2.500000</speed>
<extensions>
<speed>2.5</speed>
<temp>0.00</temp>
<bpm>0</bpm>
<rpm>0.00</rpm>
</extensions>
</trkpt>
<trkpt lat="63.852600098" lon="-21.432460785">
<ele>29.852051</ele>
<time>2012-07-27T20:22:38Z</time>
<speed>3.540000</speed>
<extensions>
<speed>3.5</speed>
<temp>0.00</temp>
<bpm>0</bpm>
<rpm>0.00</rpm>
</extensions>
</trkpt>
<trkpt lat="63.852588654" lon="-21.432830811">
<ele>29.715332</ele>
<time>2012-07-27T20:22:43Z</time>
<speed>3.720000</speed>
<extensions>
<speed>3.7</speed>
<temp>0.00</temp>
<bpm>0</bpm>
<rpm>0.00</rpm>
</extensions>
</trkpt>
<trkpt lat="63.852573395" lon="-21.433246613">
<ele>29.785645</ele>
<time>2012-07-27T20:22:48Z</time>
<speed>4.440000</speed>
<extensions>
<speed>4.4</speed>
<temp>0.00</temp>
<bpm>0</bpm>
<rpm>0.00</rpm>
</extensions>
</trkpt>
<trkpt lat="63.852565765" lon="-21.433658600">
<ele>29.499512</ele>
<time>2012-07-27T20:22:53Z</time>
<speed>3.280000</speed>
<extensions>
<speed>3.3</speed>
<temp>0.00</temp>
<bpm>0</bpm>
<rpm>0.00</rpm>
</extensions>
</trkpt>
<trkpt lat="63.852554321" lon="-21.433921814">
<ele>29.148438</ele>
<time>2012-07-27T20:22:58Z</time>
<speed>1.910000</speed>
<extensions>
<speed>1.9</speed>
<temp>0.00</temp>
<bpm>0</bpm>
<rpm>0.00</rpm>
</extensions>
</trkpt>
<trkpt lat="63.852546692" lon="-21.434097290">
<ele>29.179199</ele>
<time>2012-07-27T20:23:03Z</time>
<speed>2.500000</speed>
<extensions>
<speed>2.5</speed>
<temp>0.00</temp>
<bpm>0</bpm>
<rpm>0.00</rpm>
</extensions>
</trkpt>
<trkpt lat="63.852539063" lon="-21.434417725">
<ele>29.008301</ele>
<time>2012-07-27T20:23:08Z</time>
<speed>3.620000</speed>
<extensions>
<speed>3.6</speed>
<temp>0.00</temp>
<bpm>0</bpm>
<rpm>0.00</rpm>
</extensions>
</trkpt>
<trkpt lat="63.852523804" lon="-21.434806824">
<ele>29.443359</ele>
<time>2012-07-27T20:23:13Z</time>
<speed>3.990000</speed>
<extensions>
<speed>4.0</speed>
<temp>0.00</temp>
<bpm>0</bpm>
<rpm>0.00</rpm>
</extensions>
</trkpt>
<trkpt lat="63.852504730" lon="-21.435237885">
<ele>29.374512</ele>
<time>2012-07-27T20:23:18Z</time>
<speed>4.290000</speed>
<extensions>
<speed>4.3</speed>
<temp>0.00</temp>
<bpm>0</bpm>
<rpm>0.00</rpm>
</extensions>
</trkpt>
<trkpt lat="63.852485657" lon="-21.435672760">
<ele>29.064453</ele>
<time>2012-07-27T20:23:23Z</time>
<speed>4.420000</speed>
<extensions>
<speed>4.4</speed>
<temp>0.00</temp>
<bpm>0</bpm>
<rpm>0.00</rpm>
</extensions>
</trkpt>
<trkpt lat="63.852466583" lon="-21.436130524">
<ele>28.757324</ele>
<time>2012-07-27T20:23:28Z</time>
<speed>4.590000</speed>
<extensions>
<speed>4.6</speed>
<temp>0.00</temp>
<bpm>0</bpm>
<rpm>0.00</rpm>
</extensions>
</trkpt>
<trkpt lat="63.852451324" lon="-21.436578751">
<ele>28.907715</ele>
<time>2012-07-27T20:23:33Z</time>
<speed>3.750000</speed>
<extensions>
<speed>3.8</speed>
<temp>0.00</temp>
<bpm>0</bpm>
<rpm>0.00</rpm>
</extensions>
</trkpt>
<trkpt lat="63.852432251" lon="-21.437011719">
<ele>28.622070</ele>
<time>2012-07-27T20:23:38Z</time>
<speed>4.580000</speed>
<extensions>
<speed>4.6</speed>
<temp>0.00</temp>
<bpm>0</bpm>
<rpm>0.00</rpm>
</extensions>
</trkpt>
<trkpt lat="63.852416992" lon="-21.437484741">
<ele>28.471680</ele>
<time>2012-07-27T20:23:43Z</time>
<speed>4.700000</speed>
<extensions>
<speed>4.7</speed>
<temp>0.00</temp>
<bpm>0</bpm>
<rpm>0.00</rpm>
</extensions>
</trkpt>
<trkpt lat="63.852390289" lon="-21.437963486">
<ele>28.112793</ele>
<time>2012-07-27T20:23:48Z</time>
<speed>4.130000</speed>
<extensions>
<speed>4.1</speed>
<temp>0.00</temp>
<bpm>0</bpm>
<rpm>0.00</rpm>
</extensions>
</trkpt>
<trkpt lat="63.852375031" lon="-21.438310623">
<ele>28.288574</ele>
<time>2012-07-27T20:23:53Z</time>
<speed>2.730000</speed>
<extensions>
<speed>2.7</speed>
<temp>0.00</temp>
<bpm>0</bpm>
<rpm>0.00</rpm>
</extensions>
</trkpt>
<trkpt lat="63.852363586" lon="-21.438585281">
<ele>28.535645</ele>
<time>2012-07-27T20:23:58Z</time>
<speed>3.630000</speed>
<extensions>
<speed>3.6</speed>
<temp>0.00</temp>
<bpm>0</bpm>
<rpm>0.00</rpm>
</extensions>
</trkpt>
<trkpt lat="63.852344513" lon="-21.439008713">
<ele>28.755371</ele>
<time>2012-07-27T20:24:03Z</time>
<speed>4.480000</speed>
<extensions>
<speed>4.5</speed>
<temp>0.00</temp>
<bpm>0</bpm>
<rpm>0.00</rpm>
</extensions>
</trkpt>
<trkpt lat="63.852313995" lon="-21.439485550">
<ele>28.479004</ele>
<time>2012-07-27T20:24:08Z</time>
<speed>5.040000</speed>
<extensions>
<speed>5.0</speed>
<temp>0.00</temp>
<bpm>0</bpm>
<rpm>0.00</rpm>
</extensions>
</trkpt>
<trkpt lat="63.852283478" lon="-21.439971924">
<ele>28.362793</ele>
<time>2012-07-27T20:24:13Z</time>
<speed>4.210000</speed>
<extensions>
<speed>4.2</speed>
<temp>0.00</temp>
<bpm>0</bpm>
<rpm>0.00</rpm>
</extensions>
</trkpt>
<trkpt lat="63.852268219" lon="-21.440347672">
<ele>28.351074</ele>
<time>2012-07-27T20:24:18Z</time>
<speed>3.100000</speed>
<extensions>
<speed>3.1</speed>
<temp>0.00</temp>
<bpm>0</bpm>
<rpm>0.00</rpm>
</extensions>
</trkpt>
<trkpt lat="63.852249146" lon="-21.440713882">
<ele>28.576660</ele>
<time>2012-07-27T20:24:23Z</time>
<speed>4.320000</speed>
<extensions>
<speed>4.3</speed>
<temp>0.00</temp>
<bpm>0</bpm>
<rpm>0.00</rpm>
</extensions>
</trkpt>
<trkpt lat="63.852226257" lon="-21.441188812">
<ele>28.546387</ele>
<time>2012-07-27T20:24:28Z</time>
<speed>4.800000</speed>
<extensions>
<speed>4.8</speed>
<temp>0.00</temp>
<bpm>0</bpm>
<rpm>0.00</rpm>
</extensions>
</trkpt>
<trkpt lat="63.852195740" lon="-21.441682816">
<ele>28.716797</ele>
<time>2012-07-27T20:24:33Z</time>
<speed>4.830000</speed>
<extensions>
<speed>4.8</speed>
<temp>0.00</temp>
<bpm>0</bpm>
<rpm>0.00</rpm>
</extensions>
</trkpt>
<trkpt lat="63.852169037" lon="-21.442161560">
<ele>28.943359</ele>
<time>2012-07-27T20:24:38Z</time>
<speed>4.150000</speed>
<extensions>
<speed>4.1</speed>
<temp>0.00</temp>
<bpm>0</bpm>
<rpm>0.00</rpm>
</extensions>
</trkpt>
<trkpt lat="63.852142334" lon="-21.442548752">
<ele>28.935547</ele>
<time>2012-07-27T20:24:43Z</time>
<speed>4.370000</speed>
<extensions>
<speed>4.4</speed>
<temp>0.00</temp>
<bpm>0</bpm>
<rpm>0.00</rpm>
</extensions>
</trkpt>
<trkpt lat="63.852115631" lon="-21.443017960">
<ele>29.037598</ele>
<time>2012-07-27T20:24:48Z</time>
<speed>4.970000</speed>
<extensions>
<speed>5.0</speed>
<temp>0.00</temp>
<bpm>0</bpm>
<rpm>0.00</rpm>
</extensions>
</trkpt>
<trkpt lat="63.852081299" lon="-21.443508148">
<ele>29.062988</ele>
<time>2012-07-27T20:24:53Z</time>
<speed>4.990000</speed>
<extensions>
<speed>5.0</speed>
<temp>0.00</temp>
<bpm>0</bpm>
<rpm>0.00</rpm>
</extensions>
</trkpt>
<trkpt lat="63.852054596" lon="-21.444011688">
<ele>29.001465</ele>
<time>2012-07-27T20:24:58Z</time>
<speed>4.360000</speed>
<extensions>
<speed>4.4</speed>
<temp>0.00</temp>
<bpm>0</bpm>
<rpm>0.00</rpm>
</extensions>
</trkpt>
<trkpt lat="63.852035522" lon="-21.444379807">
<ele>28.814453</ele>
<time>2012-07-27T20:25:03Z</time>
<speed>3.010000</speed>
<extensions>
<speed>3.0</speed>
<temp>0.00</temp>
<bpm>0</bpm>
<rpm>0.00</rpm>
</extensions>
</trkpt>
<trkpt lat="63.852012634" lon="-21.444692612">
<ele>28.676758</ele>
<time>2012-07-27T20:25:08Z</time>
<speed>3.850000</speed>
<extensions>
<speed>3.8</speed>
<temp>0.00</temp>
<bpm>0</bpm>
<rpm>0.00</rpm>
</extensions>
</trkpt>
<trkpt lat="63.851982117" lon="-21.445121765">
<ele>28.297363</ele>
<time>2012-07-27T20:25:13Z</time>
<speed>4.400000</speed>
<extensions>
<speed>4.4</speed>
<temp>0.00</temp>
<bpm>0</bpm>
<rpm>0.00</rpm>
</extensions>
</trkpt>
<trkpt lat="63.851947784" lon="-21.445569992">
<ele>28.479004</ele>
<time>2012-07-27T20:25:18Z</time>
<speed>4.540000</speed>
<extensions>
<speed>4.5</speed>
<temp>0.00</temp>
<bpm>0</bpm>
<rpm>0.00</rpm>
</extensions>
</trkpt>
<trkpt lat="63.851917267" lon="-21.446035385">
<ele>28.641113</ele>
<time>2012-07-27T20:25:23Z</time>
<speed>4.210000</speed>
<extensions>
<speed>4.2</speed>
<temp>0.00</temp>
<bpm>0</bpm>
<rpm>0.00</rpm>
</extensions>
</trkpt>
<trkpt lat="63.851890564" lon="-21.446435928">
<ele>28.981934</ele>
<time>2012-07-27T20:25:28Z</time>
<speed>4.460000</speed>
<extensions>
<speed>4.5</speed>
<temp>0.00</temp>
<bpm>0</bpm>
<rpm>0.00</rpm>
</extensions>
</trkpt>
<trkpt lat="63.851848602" lon="-21.446907043">
<ele>29.124023</ele>
<time>2012-07-27T20:25:33Z</time>
<speed>4.890000</speed>
<extensions>
<speed>4.9</speed>
<temp>0.00</temp>
<bpm>0</bpm>
<rpm>0.00</rpm>
</extensions>
</trkpt>
<trkpt lat="63.851810455" lon="-21.447404861">
<ele>29.361328</ele>
<time>2012-07-27T20:25:38Z</time>
<speed>5.270000</speed>
<extensions>
<speed>5.3</speed>
<temp>0.00</temp>
<bpm>0</bpm>
<rpm>0.00</rpm>
</extensions>
</trkpt>
<trkpt lat="63.851772308" lon="-21.447973251">
<ele>29.240723</ele>
<time>2012-07-27T20:25:43Z</time>
<speed>5.610000</speed>
<extensions>
<speed>5.6</speed>
<temp>0.00</temp>
<bpm>0</bpm>
<rpm>0.00</rpm>
</extensions>
</trkpt>
<trkpt lat="63.851730347" lon="-21.448551178">
<ele>29.105469</ele>
<time>2012-07-27T20:25:48Z</time>
<speed>5.660000</speed>
<extensions>
<speed>5.7</speed>
<temp>0.00</temp>
<bpm>0</bpm>
<rpm>0.00</rpm>
</extensions>
</trkpt>
<trkpt lat="63.851692200" lon="-21.449056625">
<ele>28.788574</ele>
<time>2012-07-27T20:25:53Z</time>
<speed>4.370000</speed>
<extensions>
<speed>4.4</speed>
<temp>0.00</temp>
<bpm>0</bpm>
<rpm>0.00</rpm>
</extensions>
</trkpt>
<trkpt lat="63.851665497" lon="-21.449399948">
<ele>28.661133</ele>
<time>2012-07-27T20:25:58Z</time>
<speed>2.760000</speed>
<extensions>
<speed>2.8</speed>
<temp>0.00</temp>
<bpm>0</bpm>
<rpm>0.00</rpm>
</extensions>
</trkpt>
<trkpt lat="63.851638794" lon="-21.449707031">
<ele>28.768555</ele>
<time>2012-07-27T20:26:03Z</time>
<speed>3.090000</speed>
<extensions>
<speed>3.1</speed>
<temp>0.00</temp>
<bpm>0</bpm>
<rpm>0.00</rpm>
</extensions>
</trkpt>
<trkpt lat="63.851608276" lon="-21.450057983">
<ele>28.419434</ele>
<time>2012-07-27T20:26:08Z</time>
<speed>3.800000</speed>
<extensions>
<speed>3.8</speed>
<temp>0.00</temp>
<bpm>0</bpm>
<rpm>0.00</rpm>
</extensions>
</trkpt>
<trkpt lat="63.851566315" lon="-21.450479507">
<ele>28.479492</ele>
<time>2012-07-27T20:26:13Z</time>
<speed>4.250000</speed>
<extensions>
<speed>4.3</speed>
<temp>0.00</temp>
<bpm>0</bpm>
<rpm>0.00</rpm>
</extensions>
</trkpt>
<trkpt lat="63.851528168" lon="-21.450912476">
<ele>28.147949</ele>
<time>2012-07-27T20:26:18Z</time>
<speed>4.480000</speed>
<extensions>
<speed>4.5</speed>
<temp>0.00</temp>
<bpm>0</bpm>
<rpm>0.00</rpm>
</extensions>
</trkpt>
<trkpt lat="63.851493835" lon="-21.451303482">
<ele>28.118652</ele>
<time>2012-07-27T20:26:23Z</time>
<speed>3.880000</speed>
<extensions>
<speed>3.9</speed>
<temp>0.00</temp>
<bpm>0</bpm>
<rpm>0.00</rpm>
</extensions>
</trkpt>
<trkpt lat="63.851455688" lon="-21.451763153">
<ele>27.918457</ele>
<time>2012-07-27T20:26:28Z</time>
<speed>4.650000</speed>
<extensions>
<speed>4.6</speed>
<temp>0.00</temp>
<bpm>0</bpm>
<rpm>0.00</rpm>
</extensions>
</trkpt>
<trkpt lat="63.851409912" lon="-21.452220917">
<ele>28.192871</ele>
<time>2012-07-27T20:26:33Z</time>
<speed>4.800000</speed>
<extensions>
<speed>4.8</speed>
<temp>0.00</temp>
<bpm>0</bpm>
<rpm>0.00</rpm>
</extensions>
</trkpt>
<trkpt lat="63.851367950" lon="-21.452672958">
<ele>28.253906</ele>
<time>2012-07-27T20:26:38Z</time>
<speed>3.740000</speed>
<extensions>
<speed>3.7</speed>
<temp>0.00</temp>
<bpm>0</bpm>
<rpm>0.00</rpm>
</extensions>
</trkpt>
<trkpt lat="63.851329803" lon="-21.453022003">
<ele>27.975586</ele>
<time>2012-07-27T20:26:43Z</time>
<speed>3.420000</speed>
<extensions>
<speed>3.4</speed>
<temp>0.00</temp>
<bpm>0</bpm>
<rpm>0.00</rpm>
</extensions>
</trkpt>
<trkpt lat="63.851295471" lon="-21.453428268">
<ele>28.105469</ele>
<time>2012-07-27T20:26:48Z</time>
<speed>4.460000</speed>
<extensions>
<speed>4.5</speed>
<temp>0.00</temp>
<bpm>0</bpm>
<rpm>0.00</rpm>
</extensions>
</trkpt>
<trkpt lat="63.851249695" lon="-21.453880310">
<ele>28.041504</ele>
<time>2012-07-27T20:26:53Z</time>
<speed>4.690000</speed>
<extensions>
<speed>4.7</speed>
<temp>0.00</temp>
<bpm>0</bpm>
<rpm>0.00</rpm>
</extensions>
</trkpt>
<trkpt lat="63.851203918" lon="-21.454357147">
<ele>27.978027</ele>
<time>2012-07-27T20:26:58Z</time>
<speed>4.800000</speed>
<extensions>
<speed>4.8</speed>
<temp>0.00</temp>
<bpm>0</bpm>
<rpm>0.00</rpm>
</extensions>
</trkpt>
<trkpt lat="63.851161957" lon="-21.454828262">
<ele>27.928223</ele>
<time>2012-07-27T20:27:03Z</time>
<speed>4.790000</speed>
<extensions>
<speed>4.8</speed>
<temp>0.00</temp>
<bpm>0</bpm>
<rpm>0.00</rpm>
</extensions>
</trkpt>
<trkpt lat="63.851123810" lon="-21.455238342">
<ele>27.846680</ele>
<time>2012-07-27T20:27:08Z</time>
<speed>3.400000</speed>
<extensions>
<speed>3.4</speed>
<temp>0.00</temp>
<bpm>0</bpm>
<rpm>0.00</rpm>
</extensions>
</trkpt>
<trkpt lat="63.851093292" lon="-21.455484390">
<ele>28.280273</ele>
<time>2012-07-27T20:27:13Z</time>
<speed>2.000000</speed>
<extensions>
<speed>2.0</speed>
<temp>0.00</temp>
<bpm>0</bpm>
<rpm>0.00</rpm>
</extensions>
</trkpt>
<trkpt lat="63.851074219" lon="-21.455631256">
<ele>28.382324</ele>
<time>2012-07-27T20:27:18Z</time>
<speed>2.040000</speed>
<extensions>
<speed>2.0</speed>
<temp>0.00</temp>
<bpm>0</bpm>
<rpm>0.00</rpm>
</extensions>
</trkpt>
<trkpt lat="63.851039886" lon="-21.455949783">
<ele>28.441406</ele>
<time>2012-07-27T20:27:23Z</time>
<speed>3.750000</speed>
<extensions>
<speed>3.8</speed>
<temp>0.00</temp>
<bpm>0</bpm>
<rpm>0.00</rpm>
</extensions>
</trkpt>
<trkpt lat="63.850997925" lon="-21.456369400">
<ele>28.433594</ele>
<time>2012-07-27T20:27:28Z</time>
<speed>4.420000</speed>
<extensions>
<speed>4.4</speed>
<temp>0.00</temp>
<bpm>0</bpm>
<rpm>0.00</rpm>
</extensions>
</trkpt>
<trkpt lat="63.850959778" lon="-21.456809998">
<ele>28.172852</ele>
<time>2012-07-27T20:27:33Z</time>
<speed>4.420000</speed>
<extensions>
<speed>4.4</speed>
<temp>0.00</temp>
<bpm>0</bpm>
<rpm>0.00</rpm>
</extensions>
</trkpt>
<trkpt lat="63.850914001" lon="-21.457197189">
<ele>28.041504</ele>
<time>2012-07-27T20:27:38Z</time>
<speed>4.150000</speed>
<extensions>
<speed>4.1</speed>
<temp>0.00</temp>
<bpm>0</bpm>
<rpm>0.00</rpm>
</extensions>
</trkpt>
<trkpt lat="63.850860596" lon="-21.457645416">
<ele>27.974609</ele>
<time>2012-07-27T20:27:43Z</time>
<speed>4.740000</speed>
<extensions>
<speed>4.7</speed>
<temp>0.00</temp>
<bpm>0</bpm>
<rpm>0.00</rpm>
</extensions>
</trkpt>
<trkpt lat="63.850807190" lon="-21.458116531">
<ele>27.909668</ele>
<time>2012-07-27T20:27:48Z</time>
<speed>4.280000</speed>
<extensions>
<speed>4.3</speed>
<temp>0.00</temp>
<bpm>0</bpm>
<rpm>0.00</rpm>
</extensions>
</trkpt>
<trkpt lat="63.850749969" lon="-21.458482742">
<ele>27.532227</ele>
<time>2012-07-27T20:27:53Z</time>
<speed>3.460000</speed>
<extensions>
<speed>3.5</speed>
<temp>0.00</temp>
<bpm>0</bpm>
<rpm>0.00</rpm>
</extensions>
</trkpt>
<trkpt lat="63.850715637" lon="-21.458845139">
<ele>27.233398</ele>
<time>2012-07-27T20:27:58Z</time>
<speed>4.390000</speed>
<extensions>
<speed>4.4</speed>
<temp>0.00</temp>
<bpm>0</bpm>
<rpm>0.00</rpm>
</extensions>
</trkpt>
<trkpt lat="63.850662231" lon="-21.459318161">
<ele>27.231445</ele>
<time>2012-07-27T20:28:03Z</time>
<speed>5.090000</speed>
<extensions>
<speed>5.1</speed>
<temp>0.00</temp>
<bpm>0</bpm>
<rpm>0.00</rpm>
</extensions>
</trkpt>
<trkpt lat="63.850616455" lon="-21.459793091">
<ele>27.716797</ele>
<time>2012-07-27T20:28:08Z</time>
<speed>4.010000</speed>
<extensions>
<speed>4.0</speed>
<temp>0.00</temp>
<bpm>0</bpm>
<rpm>0.00</rpm>
</extensions>
</trkpt>
<trkpt lat="63.850570679" lon="-21.460126877">
<ele>27.926758</ele>
<time>2012-07-27T20:28:13Z</time>
<speed>2.930000</speed>
<extensions>
<speed>2.9</speed>
<temp>0.00</temp>
<bpm>0</bpm>
<rpm>0.00</rpm>
</extensions>
</trkpt>
<trkpt lat="63.850536346" lon="-21.460453033">
<ele>28.175293</ele>
<time>2012-07-27T20:28:18Z</time>
<speed>3.840000</speed>
<extensions>
<speed>3.8</speed>
<temp>0.00</temp>
<bpm>0</bpm>
<rpm>0.00</rpm>
</extensions>
</trkpt>
<trkpt lat="63.850482941" lon="-21.460832596">
<ele>28.083496</ele>
<time>2012-07-27T20:28:23Z</time>
<speed>4.280000</speed>
<extensions>
<speed>4.3</speed>
<temp>0.00</temp>
<bpm>0</bpm>
<rpm>0.00</rpm>
</extensions>
</trkpt>
<trkpt lat="63.850429535" lon="-21.461286545">
<ele>28.046875</ele>
<time>2012-07-27T20:28:28Z</time>
<speed>4.720000</speed>
<extensions>
<speed>4.7</speed>
<temp>0.00</temp>
<bpm>0</bpm>
<rpm>0.00</rpm>
</extensions>
</trkpt>
<trkpt lat="63.850379944" lon="-21.461719513">
<ele>28.040527</ele>
<time>2012-07-27T20:28:33Z</time>
<speed>3.900000</speed>
<extensions>
<speed>3.9</speed>
<temp>0.00</temp>
<bpm>0</bpm>
<rpm>0.00</rpm>
</extensions>
</trkpt>
<trkpt lat="63.850326538" lon="-21.462093353">
<ele>27.846680</ele>
<time>2012-07-27T20:28:38Z</time>
<speed>4.340000</speed>
<extensions>
<speed>4.3</speed>
<temp>0.00</temp>
<bpm>0</bpm>
<rpm>0.00</rpm>
</extensions>
</trkpt>
<trkpt lat="63.850265503" lon="-21.462528229">
<ele>27.833496</ele>
<time>2012-07-27T20:28:43Z</time>
<speed>4.590000</speed>
<extensions>
<speed>4.6</speed>
<temp>0.00</temp>
<bpm>0</bpm>
<rpm>0.00</rpm>
</extensions>
</trkpt>
<trkpt lat="63.850212097" lon="-21.463022232">
<ele>27.874023</ele>
<time>2012-07-27T20:28:48Z</time>
<speed>4.970000</speed>
<extensions>
<speed>5.0</speed>
<temp>0.00</temp>
<bpm>0</bpm>
<rpm>0.00</rpm>
</extensions>
</trkpt>
<trkpt lat="63.850147247" lon="-21.463523865">
<ele>27.703125</ele>
<time>2012-07-27T20:28:53Z</time>
<speed>5.400000</speed>
<extensions>
<speed>5.4</speed>
<temp>0.00</temp>
<bpm>0</bpm>
<rpm>0.00</rpm>
</extensions>
</trkpt>
<trkpt lat="63.850074768" lon="-21.464050293">
<ele>27.650879</ele>
<time>2012-07-27T20:28:58Z</time>
<speed>5.430000</speed>
<extensions>
<speed>5.4</speed>
<temp>0.00</temp>
<bpm>0</bpm>
<rpm>0.00</rpm>
</extensions>
</trkpt>
<trkpt lat="63.850021362" lon="-21.464496613">
<ele>27.287109</ele>
<time>2012-07-27T20:29:03Z</time>
<speed>4.550000</speed>
<extensions>
<speed>4.5</speed>
<temp>0.00</temp>
<bpm>0</bpm>
<rpm>0.00</rpm>
</extensions>
</trkpt>
<trkpt lat="63.849956512" lon="-21.464948654">
<ele>27.212891</ele>
<time>2012-07-27T20:29:08Z</time>
<speed>5.140000</speed>
<extensions>
<speed>5.1</speed>
<temp>0.00</temp>
<bpm>0</bpm>
<rpm>0.00</rpm>
</extensions>
</trkpt>
<trkpt lat="63.849884033" lon="-21.465490341">
<ele>27.409668</ele>
<time>2012-07-27T20:29:13Z</time>
<speed>5.610000</speed>
<extensions>
<speed>5.6</speed>
<temp>0.00</temp>
<bpm>0</bpm>
<rpm>0.00</rpm>
</extensions>
</trkpt>
<trkpt lat="63.849815369" lon="-21.466007233">
<ele>27.159180</ele>
<time>2012-07-27T20:29:18Z</time>
<speed>4.670000</speed>
<extensions>
<speed>4.7</speed>
<temp>0.00</temp>
<bpm>0</bpm>
<rpm>0.00</rpm>
</extensions>
</trkpt>
<trkpt lat="63.849761963" lon="-21.466409683">
<ele>27.317871</ele>
<time>2012-07-27T20:29:23Z</time>
<speed>3.410000</speed>
<extensions>
<speed>3.4</speed>
<temp>0.00</temp>
<bpm>0</bpm>
<rpm>0.00</rpm>
</extensions>
</trkpt>
<trkpt lat="63.849700928" lon="-21.466766357">
<ele>27.340820</ele>
<time>2012-07-27T20:29:28Z</time>
<speed>4.310000</speed>
<extensions>
<speed>4.3</speed>
<temp>0.00</temp>
<bpm>0</bpm>
<rpm>0.00</rpm>
</extensions>
</trkpt>
<trkpt lat="63.849636078" lon="-21.467205048">
<ele>27.298340</ele>
<time>2012-07-27T20:29:33Z</time>
<speed>4.530000</speed>
<extensions>
<speed>4.5</speed>
<temp>0.00</temp>
<bpm>0</bpm>
<rpm>0.00</rpm>
</extensions>
</trkpt>
<trkpt lat="63.849586487" lon="-21.467567444">
<ele>27.317871</ele>
<time>2012-07-27T20:29:38Z</time>
<speed>3.120000</speed>
<extensions>
<speed>3.1</speed>
<temp>0.00</temp>
<bpm>0</bpm>
<rpm>0.00</rpm>
</extensions>
</trkpt>
<trkpt lat="63.849548340" lon="-21.467826843">
<ele>27.003418</ele>
<time>2012-07-27T20:29:43Z</time>
<speed>2.820000</speed>
<extensions>
<speed>2.8</speed>
<temp>0.00</temp>
<bpm>0</bpm>
<rpm>0.00</rpm>
</extensions>
</trkpt>
<trkpt lat="63.849498749" lon="-21.468141556">
<ele>26.578613</ele>
<time>2012-07-27T20:29:48Z</time>
<speed>3.510000</speed>
<extensions>
<speed>3.5</speed>
<temp>0.00</temp>
<bpm>0</bpm>
<rpm>0.00</rpm>
</extensions>
</trkpt>
<trkpt lat="63.849441528" lon="-21.468513489">
<ele>26.519043</ele>
<time>2012-07-27T20:29:53Z</time>
<speed>4.160000</speed>
<extensions>
<speed>4.2</speed>
<temp>0.00</temp>
<bpm>0</bpm>
<rpm>0.00</rpm>
</extensions>
</trkpt>
<trkpt lat="63.849376678" lon="-21.468936920">
<ele>26.109375</ele>
<time>2012-07-27T20:29:58Z</time>
<speed>4.690000</speed>
<extensions>
<speed>4.7</speed>
<temp>0.00</temp>
<bpm>0</bpm>
<rpm>0.00</rpm>
</extensions>
</trkpt>
<trkpt lat="63.849311829" lon="-21.469394684">
<ele>26.051270</ele>
<time>2012-07-27T20:30:03Z</time>
<speed>4.760000</speed>
<extensions>
<speed>4.8</speed>
<temp>0.00</temp>
<bpm>0</bpm>
<rpm>0.00</rpm>
</extensions>
</trkpt>
<trkpt lat="63.849235535" lon="-21.469846725">
<ele>26.014160</ele>
<time>2012-07-27T20:30:08Z</time>
<speed>4.840000</speed>
<extensions>
<speed>4.8</speed>
<temp>0.00</temp>
<bpm>0</bpm>
<rpm>0.00</rpm>
</extensions>
</trkpt>
<trkpt lat="63.849170685" lon="-21.470327377">
<ele>25.967285</ele>
<time>2012-07-27T20:30:13Z</time>
<speed>4.880000</speed>
<extensions>
<speed>4.9</speed>
<temp>0.00</temp>
<bpm>0</bpm>
<rpm>0.00</rpm>
</extensions>
</trkpt>
<trkpt lat="63.849094391" lon="-21.470798492">
<ele>25.808594</ele>
<time>2012-07-27T20:30:18Z</time>
<speed>5.110000</speed>
<extensions>
<speed>5.1</speed>
<temp>0.00</temp>
<bpm>0</bpm>
<rpm>0.00</rpm>
</extensions>
</trkpt>
<trkpt lat="63.849010468" lon="-21.471309662">
<ele>25.459961</ele>
<time>2012-07-27T20:30:23Z</time>
<speed>5.480000</speed>
<extensions>
<speed>5.5</speed>
<temp>0.00</temp>
<bpm>0</bpm>
<rpm>0.00</rpm>
</extensions>
</trkpt>
<trkpt lat="63.848926544" lon="-21.471832275">
<ele>25.337891</ele>
<time>2012-07-27T20:30:28Z</time>
<speed>5.560000</speed>
<extensions>
<speed>5.6</speed>
<temp>0.00</temp>
<bpm>0</bpm>
<rpm>0.00</rpm>
</extensions>
</trkpt>
<trkpt lat="63.848842621" lon="-21.472351074">
<ele>25.421875</ele>
<time>2012-07-27T20:30:33Z</time>
<speed>4.820000</speed>
<extensions>
<speed>4.8</speed>
<temp>0.00</temp>
<bpm>0</bpm>
<rpm>0.00</rpm>
</extensions>
</trkpt>
<trkpt lat="63.848770142" lon="-21.472772598">
<ele>25.170898</ele>
<time>2012-07-27T20:30:38Z</time>
<speed>4.330000</speed>
<extensions>
<speed>4.3</speed>
<temp>0.00</temp>
<bpm>0</bpm>
<rpm>0.00</rpm>
</extensions>
</trkpt>
<trkpt lat="63.848693848" lon="-21.473243713">
<ele>25.087891</ele>
<time>2012-07-27T20:30:43Z</time>
<speed>5.100000</speed>
<extensions>
<speed>5.1</speed>
<temp>0.00</temp>
<bpm>0</bpm>
<rpm>0.00</rpm>
</extensions>
</trkpt>
<trkpt lat="63.848606110" lon="-21.473741531">
<ele>24.956055</ele>
<time>2012-07-27T20:30:48Z</time>
<speed>5.280000</speed>
<extensions>
<speed>5.3</speed>
<temp>0.00</temp>
<bpm>0</bpm>
<rpm>0.00</rpm>
</extensions>
</trkpt>
<trkpt lat="63.848518372" lon="-21.474246979">
<ele>24.610352</ele>
<time>2012-07-27T20:30:53Z</time>
<speed>5.260000</speed>
<extensions>
<speed>5.3</speed>
<temp>0.00</temp>
<bpm>0</bpm>
<rpm>0.00</rpm>
</extensions>
</trkpt>
<trkpt lat="63.848434448" lon="-21.474721909">
<ele>24.165527</ele>
<time>2012-07-27T20:30:58Z</time>
<speed>4.990000</speed>
<extensions>
<speed>5.0</speed>
<temp>0.00</temp>
<bpm>0</bpm>
<rpm>0.00</rpm>
</extensions>
</trkpt>
<trkpt lat="63.848354340" lon="-21.475194931">
<ele>23.919434</ele>
<time>2012-07-27T20:31:03Z</time>
<speed>5.270000</speed>
<extensions>
<speed>5.3</speed>
<temp>0.00</temp>
<bpm>0</bpm>
<rpm>0.00</rpm>
</extensions>
</trkpt>
<trkpt lat="63.848262787" lon="-21.475700378">
<ele>23.195801</ele>
<time>2012-07-27T20:31:08Z</time>
<speed>5.440000</speed>
<extensions>
<speed>5.4</speed>
<temp>0.00</temp>
<bpm>0</bpm>
<rpm>0.00</rpm>
</extensions>
</trkpt>
<trkpt lat="63.848171234" lon="-21.476226807">
<ele>23.395508</ele>
<time>2012-07-27T20:31:13Z</time>
<speed>5.600000</speed>
<extensions>
<speed>5.6</speed>
<temp>0.00</temp>
<bpm>0</bpm>
<rpm>0.00</rpm>
</extensions>
</trkpt>
<trkpt lat="63.848075867" lon="-21.476747513">
<ele>23.597168</ele>
<time>2012-07-27T20:31:18Z</time>
<speed>5.550000</speed>
<extensions>
<speed>5.5</speed>
<temp>0.00</temp>
<bpm>0</bpm>
<rpm>0.00</rpm>
</extensions>
</trkpt>
<trkpt lat="63.847995758" lon="-21.477203369">
<ele>23.876953</ele>
<time>2012-07-27T20:31:23Z</time>
<speed>4.010000</speed>
<extensions>
<speed>4.0</speed>
<temp>0.00</temp>
<bpm>0</bpm>
<rpm>0.00</rpm>
</extensions>
</trkpt>
<trkpt lat="63.847923279" lon="-21.477582932">
<ele>23.574707</ele>
<time>2012-07-27T20:31:28Z</time>
<speed>4.510000</speed>
<extensions>
<speed>4.5</speed>
<temp>0.00</temp>
<bpm>0</bpm>
<rpm>0.00</rpm>
</extensions>
</trkpt>
<trkpt lat="63.847839355" lon="-21.478050232">
<ele>23.907715</ele>
<time>2012-07-27T20:31:33Z</time>
<speed>5.100000</speed>
<extensions>
<speed>5.1</speed>
<temp>0.00</temp>
<bpm>0</bpm>
<rpm>0.00</rpm>
</extensions>
</trkpt>
<trkpt lat="63.847747803" lon="-21.478532791">
<ele>24.028320</ele>
<time>2012-07-27T20:31:38Z</time>
<speed>5.260000</speed>
<extensions>
<speed>5.3</speed>
<temp>0.00</temp>
<bpm>0</bpm>
<rpm>0.00</rpm>
</extensions>
</trkpt>
<trkpt lat="63.847656250" lon="-21.479015350">
<ele>24.153809</ele>
<time>2012-07-27T20:31:43Z</time>
<speed>5.240000</speed>
<extensions>
<speed>5.2</speed>
<temp>0.00</temp>
<bpm>0</bpm>
<rpm>0.00</rpm>
</extensions>
</trkpt>
<trkpt lat="63.847568512" lon="-21.479490280">
<ele>24.176270</ele>
<time>2012-07-27T20:31:48Z</time>
<speed>4.510000</speed>
<extensions>
<speed>4.5</speed>
<temp>0.00</temp>
<bpm>0</bpm>
<rpm>0.00</rpm>
</extensions>
</trkpt>
<trkpt lat="63.847488403" lon="-21.479864120">
<ele>24.130859</ele>
<time>2012-07-27T20:31:53Z</time>
<speed>4.120000</speed>
<extensions>
<speed>4.1</speed>
<temp>0.00</temp>
<bpm>0</bpm>
<rpm>0.00</rpm>
</extensions>
</trkpt>
<trkpt lat="63.847408295" lon="-21.480291367">
<ele>24.222168</ele>
<time>2012-07-27T20:31:58Z</time>
<speed>4.810000</speed>
<extensions>
<speed>4.8</speed>
<temp>0.00</temp>
<bpm>0</bpm>
<rpm>0.00</rpm>
</extensions>
</trkpt>
<trkpt lat="63.847328186" lon="-21.480684280">
<ele>24.374023</ele>
<time>2012-07-27T20:32:03Z</time>
<speed>3.450000</speed>
<extensions>
<speed>3.5</speed>
<temp>0.00</temp>
<bpm>0</bpm>
<rpm>0.00</rpm>
</extensions>
</trkpt>
<trkpt lat="63.847263336" lon="-21.480983734">
<ele>24.224121</ele>
<time>2012-07-27T20:32:08Z</time>
<speed>3.640000</speed>
<extensions>
<speed>3.6</speed>
<temp>0.00</temp>
<bpm>0</bpm>
<rpm>0.00</rpm>
</extensions>
</trkpt>
<trkpt lat="63.847190857" lon="-21.481359482">
<ele>24.424316</ele>
<time>2012-07-27T20:32:13Z</time>
<speed>4.260000</speed>
<extensions>
<speed>4.3</speed>
<temp>0.00</temp>
<bpm>0</bpm>
<rpm>0.00</rpm>
</extensions>
</trkpt>
<trkpt lat="63.847106934" lon="-21.481765747">
<ele>24.490234</ele>
<time>2012-07-27T20:32:18Z</time>
<speed>4.590000</speed>
<extensions>
<speed>4.6</speed>
<temp>0.00</temp>
<bpm>0</bpm>
<rpm>0.00</rpm>
</extensions>
</trkpt>
<trkpt lat="63.847019196" lon="-21.482204437">
<ele>24.236816</ele>
<time>2012-07-27T20:32:23Z</time>
<speed>4.620000</speed>
<extensions>
<speed>4.6</speed>
<temp>0.00</temp>
<bpm>0</bpm>
<rpm>0.00</rpm>
</extensions>
</trkpt>
<trkpt lat="63.846958160" lon="-21.482545853">
<ele>24.467285</ele>
<time>2012-07-27T20:32:28Z</time>
<speed>2.870000</speed>
<extensions>
<speed>2.9</speed>
<temp>0.00</temp>
<bpm>0</bpm>
<rpm>0.00</rpm>
</extensions>
</trkpt>
<trkpt lat="63.846900940" lon="-21.482799530">
<ele>24.343750</ele>
<time>2012-07-27T20:32:33Z</time>
<speed>3.370000</speed>
<extensions>
<speed>3.4</speed>
<temp>0.00</temp>
<bpm>0</bpm>
<rpm>0.00</rpm>
</extensions>
</trkpt>
<trkpt lat="63.846824646" lon="-21.483163834">
<ele>23.955078</ele>
<time>2012-07-27T20:32:38Z</time>
<speed>4.570000</speed>
<extensions>
<speed>4.6</speed>
<temp>0.00</temp>
<bpm>0</bpm>
<rpm>0.00</rpm>
</extensions>
</trkpt>
<trkpt lat="63.846736908" lon="-21.483608246">
<ele>23.968750</ele>
<time>2012-07-27T20:32:43Z</time>
<speed>5.010000</speed>
<extensions>
<speed>5.0</speed>
<temp>0.00</temp>
<bpm>0</bpm>
<rpm>0.00</rpm>
</extensions>
</trkpt>
<trkpt lat="63.846641541" lon="-21.484083176">
<ele>23.916992</ele>
<time>2012-07-27T20:32:48Z</time>
<speed>4.810000</speed>
<extensions>
<speed>4.8</speed>
<temp>0.00</temp>
<bpm>0</bpm>
<rpm>0.00</rpm>
</extensions>
</trkpt>
<trkpt lat="63.846565247" lon="-21.484457016">
<ele>23.809082</ele>
<time>2012-07-27T20:32:53Z</time>
<speed>3.490000</speed>
<extensions>
<speed>3.5</speed>
<temp>0.00</temp>
<bpm>0</bpm>
<rpm>0.00</rpm>
</extensions>
</trkpt>
<trkpt lat="63.846488953" lon="-21.484842300">
<ele>23.877441</ele>
<time>2012-07-27T20:32:58Z</time>
<speed>4.470000</speed>
<extensions>
<speed>4.5</speed>
<temp>0.00</temp>
<bpm>0</bpm>
<rpm>0.00</rpm>
</extensions>
</trkpt>
<trkpt lat="63.846397400" lon="-21.485273361">
<ele>23.845703</ele>
<time>2012-07-27T20:33:03Z</time>
<speed>4.850000</speed>
<extensions>
<speed>4.8</speed>
<temp>0.00</temp>
<bpm>0</bpm>
<rpm>0.00</rpm>
</extensions>
</trkpt>
<trkpt lat="63.846305847" lon="-21.485723495">
<ele>24.220703</ele>
<time>2012-07-27T20:33:08Z</time>
<speed>5.060000</speed>
<extensions>
<speed>5.1</speed>
<temp>0.00</temp>
<bpm>0</bpm>
<rpm>0.00</rpm>
</extensions>
</trkpt>
<trkpt lat="63.846210480" lon="-21.486166000">
<ele>24.517578</ele>
<time>2012-07-27T20:33:13Z</time>
<speed>4.330000</speed>
<extensions>
<speed>4.3</speed>
<temp>0.00</temp>
<bpm>0</bpm>
<rpm>0.00</rpm>
</extensions>
</trkpt>
<trkpt lat="63.846138000" lon="-21.486501694">
<ele>24.708008</ele>
<time>2012-07-27T20:33:18Z</time>
<speed>3.570000</speed>
<extensions>
<speed>3.6</speed>
<temp>0.00</temp>
<bpm>0</bpm>
<rpm>0.00</rpm>
</extensions>
</trkpt>
<trkpt lat="63.846065521" lon="-21.486877441">
<ele>24.647461</ele>
<time>2012-07-27T20:33:23Z</time>
<speed>4.400000</speed>
<extensions>
<speed>4.4</speed>
<temp>0.00</temp>
<bpm>0</bpm>
<rpm>0.00</rpm>
</extensions>
</trkpt>
<trkpt lat="63.845981598" lon="-21.487300873">
<ele>24.960449</ele>
<time>2012-07-27T20:33:28Z</time>
<speed>4.730000</speed>
<extensions>
<speed>4.7</speed>
<temp>0.00</temp>
<bpm>0</bpm>
<rpm>0.00</rpm>
</extensions>
</trkpt>
<trkpt lat="63.845893860" lon="-21.487741470">
<ele>25.174316</ele>
<time>2012-07-27T20:33:33Z</time>
<speed>4.850000</speed>
<extensions>
<speed>4.8</speed>
<temp>0.00</temp>
<bpm>0</bpm>
<rpm>0.00</rpm>
</extensions>
</trkpt>
<trkpt lat="63.845802307" lon="-21.488206863">
<ele>25.291992</ele>
<time>2012-07-27T20:33:38Z</time>
<speed>5.430000</speed>
<extensions>
<speed>5.4</speed>
<temp>0.00</temp>
<bpm>0</bpm>
<rpm>0.00</rpm>
</extensions>
</trkpt>
<trkpt lat="63.845714569" lon="-21.488643646">
<ele>25.399902</ele>
<time>2012-07-27T20:33:43Z</time>
<speed>4.070000</speed>
<extensions>
<speed>4.1</speed>
<temp>0.00</temp>
<bpm>0</bpm>
<rpm>0.00</rpm>
</extensions>
</trkpt>
<trkpt lat="63.845642090" lon="-21.489000320">
<ele>25.660156</ele>
<time>2012-07-27T20:33:48Z</time>
<speed>4.170000</speed>
<extensions>
<speed>4.2</speed>
<temp>0.00</temp>
<bpm>0</bpm>
<rpm>0.00</rpm>
</extensions>
</trkpt>
<trkpt lat="63.845561981" lon="-21.489425659">
<ele>26.092285</ele>
<time>2012-07-27T20:33:53Z</time>
<speed>4.770000</speed>
<extensions>
<speed>4.8</speed>
<temp>0.00</temp>
<bpm>0</bpm>
<rpm>0.00</rpm>
</extensions>
</trkpt>
<trkpt lat="63.845470428" lon="-21.489881516">
<ele>26.282715</ele>
<time>2012-07-27T20:33:58Z</time>
<speed>5.260000</speed>
<extensions>
<speed>5.3</speed>
<temp>0.00</temp>
<bpm>0</bpm>
<rpm>0.00</rpm>
</extensions>
</trkpt>
<trkpt lat="63.845386505" lon="-21.490320206">
<ele>26.333984</ele>
<time>2012-07-27T20:34:03Z</time>
<speed>3.700000</speed>
<extensions>
<speed>3.7</speed>
<temp>0.00</temp>
<bpm>0</bpm>
<rpm>0.00</rpm>
</extensions>
</trkpt>
<trkpt lat="63.845321655" lon="-21.490705490">
<ele>26.365723</ele>
<time>2012-07-27T20:34:08Z</time>
<speed>4.330000</speed>
<extensions>
<speed>4.3</speed>
<temp>0.00</temp>
<bpm>0</bpm>
<rpm>0.00</rpm>
</extensions>
</trkpt>
<trkpt lat="63.845249176" lon="-21.491142273">
<ele>26.935059</ele>
<time>2012-07-27T20:34:13Z</time>
<speed>4.630000</speed>
<extensions>
<speed>4.6</speed>
<temp>0.00</temp>
<bpm>0</bpm>
<rpm>0.00</rpm>
</extensions>
</trkpt>
<trkpt lat="63.845165253" lon="-21.491575241">
<ele>26.784180</ele>
<time>2012-07-27T20:34:18Z</time>
<speed>4.690000</speed>
<extensions>
<speed>4.7</speed>
<temp>0.00</temp>
<bpm>0</bpm>
<rpm>0.00</rpm>
</extensions>
</trkpt>
<trkpt lat="63.845092773" lon="-21.492019653">
<ele>27.120117</ele>
<time>2012-07-27T20:34:23Z</time>
<speed>4.730000</speed>
<extensions>
<speed>4.7</speed>
<temp>0.00</temp>
<bpm>0</bpm>
<rpm>0.00</rpm>
</extensions>
</trkpt>
<trkpt lat="63.845012665" lon="-21.492464066">
<ele>27.326172</ele>
<time>2012-07-27T20:34:28Z</time>
<speed>4.860000</speed>
<extensions>
<speed>4.9</speed>
<temp>0.00</temp>
<bpm>0</bpm>
<rpm>0.00</rpm>
</extensions>
</trkpt>
<trkpt lat="63.844940186" lon="-21.492889404">
<ele>27.450195</ele>
<time>2012-07-27T20:34:33Z</time>
<speed>3.840000</speed>
<extensions>
<speed>3.8</speed>
<temp>0.00</temp>
<bpm>0</bpm>
<rpm>0.00</rpm>
</extensions>
</trkpt>
<trkpt lat="63.844879150" lon="-21.493213654">
<ele>27.922363</ele>
<time>2012-07-27T20:34:38Z</time>
<speed>3.580000</speed>
<extensions>
<speed>3.6</speed>
<temp>0.00</temp>
<bpm>0</bpm>
<rpm>0.00</rpm>
</extensions>
</trkpt>
<trkpt lat="63.844810486" lon="-21.493593216">
<ele>27.916504</ele>
<time>2012-07-27T20:34:43Z</time>
<speed>4.420000</speed>
<extensions>
<speed>4.4</speed>
<temp>0.00</temp>
<bpm>0</bpm>
<rpm>0.00</rpm>
</extensions>
</trkpt>
<trkpt lat="63.844738007" lon="-21.494028091">
<ele>28.006836</ele>
<time>2012-07-27T20:34:48Z</time>
<speed>4.590000</speed>
<extensions>
<speed>4.6</speed>
<temp>0.00</temp>
<bpm>0</bpm>
<rpm>0.00</rpm>
</extensions>
</trkpt>
<trkpt lat="63.844673157" lon="-21.494413376">
<ele>28.452148</ele>
<time>2012-07-27T20:34:53Z</time>
<speed>3.680000</speed>
<extensions>
<speed>3.7</speed>
<temp>0.00</temp>
<bpm>0</bpm>
<rpm>0.00</rpm>
</extensions>
</trkpt>
<trkpt lat="63.844608307" lon="-21.494796753">
<ele>28.348145</ele>
<time>2012-07-27T20:34:58Z</time>
<speed>4.370000</speed>
<extensions>
<speed>4.4</speed>
<temp>0.00</temp>
<bpm>0</bpm>
<rpm>0.00</rpm>
</extensions>
</trkpt>
<trkpt lat="63.844535828" lon="-21.495229721">
<ele>28.583984</ele>
<time>2012-07-27T20:35:03Z</time>
<speed>4.680000</speed>
<extensions>
<speed>4.7</speed>
<temp>0.00</temp>
<bpm>0</bpm>
<rpm>0.00</rpm>
</extensions>
</trkpt>
<trkpt lat="63.844455719" lon="-21.495689392">
<ele>28.684082</ele>
<time>2012-07-27T20:35:08Z</time>
<speed>5.130000</speed>
<extensions>
<speed>5.1</speed>
<temp>0.00</temp>
<bpm>0</bpm>
<rpm>0.00</rpm>
</extensions>
</trkpt>
<trkpt lat="63.844379425" lon="-21.496114731">
<ele>28.566406</ele>
<time>2012-07-27T20:35:13Z</time>
<speed>3.590000</speed>
<extensions>
<speed>3.6</speed>
<temp>0.00</temp>
<bpm>0</bpm>
<rpm>0.00</rpm>
</extensions>
</trkpt>
<trkpt lat="63.844329834" lon="-21.496459961">
<ele>28.641113</ele>
<time>2012-07-27T20:35:18Z</time>
<speed>3.010000</speed>
<extensions>
<speed>3.0</speed>
<temp>0.00</temp>
<bpm>0</bpm>
<rpm>0.00</rpm>
</extensions>
</trkpt>
<trkpt lat="63.844287872" lon="-21.496713638">
<ele>28.527344</ele>
<time>2012-07-27T20:35:23Z</time>
<speed>2.330000</speed>
<extensions>
<speed>2.3</speed>
<temp>0.00</temp>
<bpm>0</bpm>
<rpm>0.00</rpm>
</extensions>
</trkpt>
<trkpt lat="63.844242096" lon="-21.496913910">
<ele>28.198730</ele>
<time>2012-07-27T20:35:28Z</time>
<speed>2.680000</speed>
<extensions>
<speed>2.7</speed>
<temp>0.00</temp>
<bpm>0</bpm>
<rpm>0.00</rpm>
</extensions>
</trkpt>
<trkpt lat="63.844203949" lon="-21.497249603">
<ele>28.006836</ele>
<time>2012-07-27T20:35:33Z</time>
<speed>3.880000</speed>
<extensions>
<speed>3.9</speed>
<temp>0.00</temp>
<bpm>0</bpm>
<rpm>0.00</rpm>
</extensions>
</trkpt>
<trkpt lat="63.844146729" lon="-21.497667313">
<ele>28.126465</ele>
<time>2012-07-27T20:35:38Z</time>
<speed>4.470000</speed>
<extensions>
<speed>4.5</speed>
<temp>0.00</temp>
<bpm>0</bpm>
<rpm>0.00</rpm>
</extensions>
</trkpt>
<trkpt lat="63.844074249" lon="-21.498125076">
<ele>28.929688</ele>
<time>2012-07-27T20:35:43Z</time>
<speed>4.680000</speed>
<extensions>
<speed>4.7</speed>
<temp>0.00</temp>
<bpm>0</bpm>
<rpm>0.00</rpm>
</extensions>
</trkpt>
<trkpt lat="63.844005585" lon="-21.498594284">
<ele>28.629883</ele>
<time>2012-07-27T20:35:48Z</time>
<speed>5.020000</speed>
<extensions>
<speed>5.0</speed>
<temp>0.00</temp>
<bpm>0</bpm>
<rpm>0.00</rpm>
</extensions>
</trkpt>
<trkpt lat="63.843933105" lon="-21.499053955">
<ele>28.042480</ele>
<time>2012-07-27T20:35:53Z</time>
<speed>5.000000</speed>
<extensions>
<speed>5.0</speed>
<temp>0.00</temp>
<bpm>0</bpm>
<rpm>0.00</rpm>
</extensions>
</trkpt>
<trkpt lat="63.843872070" lon="-21.499532700">
<ele>28.055664</ele>
<time>2012-07-27T20:35:58Z</time>
<speed>4.960000</speed>
<extensions>
<speed>5.0</speed>
<temp>0.00</temp>
<bpm>0</bpm>
<rpm>0.00</rpm>
</extensions>
</trkpt>
<trkpt lat="63.843799591" lon="-21.500028610">
<ele>28.072266</ele>
<time>2012-07-27T20:36:03Z</time>
<speed>5.170000</speed>
<extensions>
<speed>5.2</speed>
<temp>0.00</temp>
<bpm>0</bpm>
<rpm>0.00</rpm>
</extensions>
</trkpt>
<trkpt lat="63.843727112" lon="-21.500480652">
<ele>28.135742</ele>
<time>2012-07-27T20:36:08Z</time>
<speed>4.290000</speed>
<extensions>
<speed>4.3</speed>
<temp>0.00</temp>
<bpm>0</bpm>
<rpm>0.00</rpm>
</extensions>
</trkpt>
<trkpt lat="63.843681335" lon="-21.500864029">
<ele>27.923340</ele>
<time>2012-07-27T20:36:13Z</time>
<speed>3.480000</speed>
<extensions>
<speed>3.5</speed>
<temp>0.00</temp>
<bpm>0</bpm>
<rpm>0.00</rpm>
</extensions>
</trkpt>
<trkpt lat="63.843639374" lon="-21.501148224">
<ele>28.117188</ele>
<time>2012-07-27T20:36:18Z</time>
<speed>2.620000</speed>
<extensions>
<speed>2.6</speed>
<temp>0.00</temp>
<bpm>0</bpm>
<rpm>0.00</rpm>
</extensions>
</trkpt>
<trkpt lat="63.843597412" lon="-21.501445770">
<ele>28.075684</ele>
<time>2012-07-27T20:36:23Z</time>
<speed>3.660000</speed>
<extensions>
<speed>3.7</speed>
<temp>0.00</temp>
<bpm>0</bpm>
<rpm>0.00</rpm>
</extensions>
</trkpt>
<trkpt lat="63.843540192" lon="-21.501836777">
<ele>28.023926</ele>
<time>2012-07-27T20:36:28Z</time>
<speed>4.400000</speed>
<extensions>
<speed>4.4</speed>
<temp>0.00</temp>
<bpm>0</bpm>
<rpm>0.00</rpm>
</extensions>
</trkpt>
<trkpt lat="63.843482971" lon="-21.502296448">
<ele>28.146973</ele>
<time>2012-07-27T20:36:33Z</time>
<speed>4.680000</speed>
<extensions>
<speed>4.7</speed>
<temp>0.00</temp>
<bpm>0</bpm>
<rpm>0.00</rpm>
</extensions>
</trkpt>
<trkpt lat="63.843418121" lon="-21.502780914">
<ele>28.170410</ele>
<time>2012-07-27T20:36:38Z</time>
<speed>4.930000</speed>
<extensions>
<speed>4.9</speed>
<temp>0.00</temp>
<bpm>0</bpm>
<rpm>0.00</rpm>
</extensions>
</trkpt>
<trkpt lat="63.843357086" lon="-21.503200531">
<ele>28.043945</ele>
<time>2012-07-27T20:36:43Z</time>
<speed>3.730000</speed>
<extensions>
<speed>3.7</speed>
<temp>0.00</temp>
<bpm>0</bpm>
<rpm>0.00</rpm>
</extensions>
</trkpt>
<trkpt lat="63.843315125" lon="-21.503515244">
<ele>28.097168</ele>
<time>2012-07-27T20:36:48Z</time>
<speed>3.240000</speed>
<extensions>
<speed>3.2</speed>
<temp>0.00</temp>
<bpm>0</bpm>
<rpm>0.00</rpm>
</extensions>
</trkpt>
<trkpt lat="63.843261719" lon="-21.503866196">
<ele>27.768066</ele>
<time>2012-07-27T20:36:53Z</time>
<speed>4.290000</speed>
<extensions>
<speed>4.3</speed>
<temp>0.00</temp>
<bpm>0</bpm>
<rpm>0.00</rpm>
</extensions>
</trkpt>
<trkpt lat="63.843212128" lon="-21.504306793">
<ele>27.531250</ele>
<time>2012-07-27T20:36:58Z</time>
<speed>4.700000</speed>
<extensions>
<speed>4.7</speed>
<temp>0.00</temp>
<bpm>0</bpm>
<rpm>0.00</rpm>
</extensions>
</trkpt>
<trkpt lat="63.843154907" lon="-21.504783630">
<ele>27.650879</ele>
<time>2012-07-27T20:37:03Z</time>
<speed>4.970000</speed>
<extensions>
<speed>5.0</speed>
<temp>0.00</temp>
<bpm>0</bpm>
<rpm>0.00</rpm>
</extensions>
</trkpt>
<trkpt lat="63.843093872" lon="-21.505281448">
<ele>27.892578</ele>
<time>2012-07-27T20:37:08Z</time>
<speed>5.260000</speed>
<extensions>
<speed>5.3</speed>
<temp>0.00</temp>
<bpm>0</bpm>
<rpm>0.00</rpm>
</extensions>
</trkpt>
<trkpt lat="63.843032837" lon="-21.505802155">
<ele>27.993164</ele>
<time>2012-07-27T20:37:13Z</time>
<speed>5.110000</speed>
<extensions>
<speed>5.1</speed>
<temp>0.00</temp>
<bpm>0</bpm>
<rpm>0.00</rpm>
</extensions>
</trkpt>
<trkpt lat="63.842979431" lon="-21.506299973">
<ele>27.914551</ele>
<time>2012-07-27T20:37:18Z</time>
<speed>4.800000</speed>
<extensions>
<speed>4.8</speed>
<temp>0.00</temp>
<bpm>0</bpm>
<rpm>0.00</rpm>
</extensions>
</trkpt>
<trkpt lat="63.842937469" lon="-21.506683350">
<ele>27.581055</ele>
<time>2012-07-27T20:37:23Z</time>
<speed>3.040000</speed>
<extensions>
<speed>3.0</speed>
<temp>0.00</temp>
<bpm>0</bpm>
<rpm>0.00</rpm>
</extensions>
</trkpt>
<trkpt lat="63.842903137" lon="-21.506942749">
<ele>27.772949</ele>
<time>2012-07-27T20:37:28Z</time>
<speed>3.250000</speed>
<extensions>
<speed>3.2</speed>
<temp>0.00</temp>
<bpm>0</bpm>
<rpm>0.00</rpm>
</extensions>
</trkpt>
<trkpt lat="63.842861176" lon="-21.507318497">
<ele>27.747559</ele>
<time>2012-07-27T20:37:33Z</time>
<speed>4.300000</speed>
<extensions>
<speed>4.3</speed>
<temp>0.00</temp>
<bpm>0</bpm>
<rpm>0.00</rpm>
</extensions>
</trkpt>
<trkpt lat="63.842803955" lon="-21.507761002">
<ele>27.593262</ele>
<time>2012-07-27T20:37:38Z</time>
<speed>4.620000</speed>
<extensions>
<speed>4.6</speed>
<temp>0.00</temp>
<bpm>0</bpm>
<rpm>0.00</rpm>
</extensions>
</trkpt>
<trkpt lat="63.842765808" lon="-21.508159637">
<ele>27.330566</ele>
<time>2012-07-27T20:37:43Z</time>
<speed>4.010000</speed>
<extensions>
<speed>4.0</speed>
<temp>0.00</temp>
<bpm>0</bpm>
<rpm>0.00</rpm>
</extensions>
</trkpt>
<trkpt lat="63.842712402" lon="-21.508577347">
<ele>26.740234</ele>
<time>2012-07-27T20:37:48Z</time>
<speed>4.460000</speed>
<extensions>
<speed>4.5</speed>
<temp>0.00</temp>
<bpm>0</bpm>
<rpm>0.00</rpm>
</extensions>
</trkpt>
<trkpt lat="63.842662811" lon="-21.509040833">
<ele>27.359375</ele>
<time>2012-07-27T20:37:53Z</time>
<speed>4.740000</speed>
<extensions>
<speed>4.7</speed>
<temp>0.00</temp>
<bpm>0</bpm>
<rpm>0.00</rpm>
</extensions>
</trkpt>
<trkpt lat="63.842613220" lon="-21.509531021">
<ele>27.715332</ele>
<time>2012-07-27T20:37:58Z</time>
<speed>5.320000</speed>
<extensions>
<speed>5.3</speed>
<temp>0.00</temp>
<bpm>0</bpm>
<rpm>0.00</rpm>
</extensions>
</trkpt>
<trkpt lat="63.842552185" lon="-21.510055542">
<ele>27.889648</ele>
<time>2012-07-27T20:38:03Z</time>
<speed>5.060000</speed>
<extensions>
<speed>5.1</speed>
<temp>0.00</temp>
<bpm>0</bpm>
<rpm>0.00</rpm>
</extensions>
</trkpt>
<trkpt lat="63.842510223" lon="-21.510446548">
<ele>28.025391</ele>
<time>2012-07-27T20:38:08Z</time>
<speed>3.330000</speed>
<extensions>
<speed>3.3</speed>
<temp>0.00</temp>
<bpm>0</bpm>
<rpm>0.00</rpm>
</extensions>
</trkpt>
<trkpt lat="63.842483521" lon="-21.510700226">
<ele>28.091797</ele>
<time>2012-07-27T20:38:13Z</time>
<speed>2.120000</speed>
<extensions>
<speed>2.1</speed>
<temp>0.00</temp>
<bpm>0</bpm>
<rpm>0.00</rpm>
</extensions>
</trkpt>
<trkpt lat="63.842464447" lon="-21.510873795">
<ele>28.186523</ele>
<time>2012-07-27T20:38:18Z</time>
<speed>1.330000</speed>
<extensions>
<speed>1.3</speed>
<temp>0.00</temp>
<bpm>0</bpm>
<rpm>0.00</rpm>
</extensions>
</trkpt>
<trkpt lat="63.842453003" lon="-21.510988235">
<ele>28.247559</ele>
<time>2012-07-27T20:38:23Z</time>
<speed>1.930000</speed>
<extensions>
<speed>1.9</speed>
<temp>0.00</temp>
<bpm>0</bpm>
<rpm>0.00</rpm>
</extensions>
</trkpt>
<trkpt lat="63.842426300" lon="-21.511253357">
<ele>28.466309</ele>
<time>2012-07-27T20:38:28Z</time>
<speed>3.440000</speed>
<extensions>
<speed>3.4</speed>
<temp>0.00</temp>
<bpm>0</bpm>
<rpm>0.00</rpm>
</extensions>
</trkpt>
<trkpt lat="63.842388153" lon="-21.511657715">
<ele>28.263672</ele>
<time>2012-07-27T20:38:33Z</time>
<speed>4.340000</speed>
<extensions>
<speed>4.3</speed>
<temp>0.00</temp>
<bpm>0</bpm>
<rpm>0.00</rpm>
</extensions>
</trkpt>
<trkpt lat="63.842350006" lon="-21.512128830">
<ele>28.881836</ele>
<time>2012-07-27T20:38:38Z</time>
<speed>4.620000</speed>
<extensions>
<speed>4.6</speed>
<temp>0.00</temp>
<bpm>0</bpm>
<rpm>0.00</rpm>
</extensions>
</trkpt>
<trkpt lat="63.842311859" lon="-21.512514114">
<ele>28.791992</ele>
<time>2012-07-27T20:38:43Z</time>
<speed>3.280000</speed>
<extensions>
<speed>3.3</speed>
<temp>0.00</temp>
<bpm>0</bpm>
<rpm>0.00</rpm>
</extensions>
</trkpt>
<trkpt lat="63.842273712" lon="-21.512865067">
<ele>28.547363</ele>
<time>2012-07-27T20:38:48Z</time>
<speed>4.080000</speed>
<extensions>
<speed>4.1</speed>
<temp>0.00</temp>
<bpm>0</bpm>
<rpm>0.00</rpm>
</extensions>
</trkpt>
<trkpt lat="63.842235565" lon="-21.513298035">
<ele>28.315430</ele>
<time>2012-07-27T20:38:53Z</time>
<speed>3.980000</speed>
<extensions>
<speed>4.0</speed>
<temp>0.00</temp>
<bpm>0</bpm>
<rpm>0.00</rpm>
</extensions>
</trkpt>
<trkpt lat="63.842205048" lon="-21.513639450">
<ele>28.050781</ele>
<time>2012-07-27T20:38:58Z</time>
<speed>2.790000</speed>
<extensions>
<speed>2.8</speed>
<temp>0.00</temp>
<bpm>0</bpm>
<rpm>0.00</rpm>
</extensions>
</trkpt>
<trkpt lat="63.842189789" lon="-21.513916016">
<ele>27.888184</ele>
<time>2012-07-27T20:39:03Z</time>
<speed>3.270000</speed>
<extensions>
<speed>3.3</speed>
<temp>0.00</temp>
<bpm>0</bpm>
<rpm>0.00</rpm>
</extensions>
</trkpt>
<trkpt lat="63.842151642" lon="-21.514312744">
<ele>27.842773</ele>
<time>2012-07-27T20:39:08Z</time>
<speed>4.420000</speed>
<extensions>
<speed>4.4</speed>
<temp>0.00</temp>
<bpm>0</bpm>
<rpm>0.00</rpm>
</extensions>
</trkpt>
<trkpt lat="63.842109680" lon="-21.514802933">
<ele>27.796875</ele>
<time>2012-07-27T20:39:13Z</time>
<speed>4.890000</speed>
<extensions>
<speed>4.9</speed>
<temp>0.00</temp>
<bpm>0</bpm>
<rpm>0.00</rpm>
</extensions>
</trkpt>
<trkpt lat="63.842063904" lon="-21.515295029">
<ele>27.667480</ele>
<time>2012-07-27T20:39:18Z</time>
<speed>4.720000</speed>
<extensions>
<speed>4.7</speed>
<temp>0.00</temp>
<bpm>0</bpm>
<rpm>0.00</rpm>
</extensions>
</trkpt>
<trkpt lat="63.842021942" lon="-21.515705109">
<ele>27.317871</ele>
<time>2012-07-27T20:39:23Z</time>
<speed>3.540000</speed>
<extensions>
<speed>3.5</speed>
<temp>0.00</temp>
<bpm>0</bpm>
<rpm>0.00</rpm>
</extensions>
</trkpt>
<trkpt lat="63.841995239" lon="-21.516069412">
<ele>27.277832</ele>
<time>2012-07-27T20:39:28Z</time>
<speed>4.080000</speed>
<extensions>
<speed>4.1</speed>
<temp>0.00</temp>
<bpm>0</bpm>
<rpm>0.00</rpm>
</extensions>
</trkpt>
<trkpt lat="63.841957092" lon="-21.516527176">
<ele>28.114746</ele>
<time>2012-07-27T20:39:33Z</time>
<speed>4.690000</speed>
<extensions>
<speed>4.7</speed>
<temp>0.00</temp>
<bpm>0</bpm>
<rpm>0.00</rpm>
</extensions>
</trkpt>
<trkpt lat="63.841926575" lon="-21.517007828">
<ele>28.005859</ele>
<time>2012-07-27T20:39:38Z</time>
<speed>4.980000</speed>
<extensions>
<speed>5.0</speed>
<temp>0.00</temp>
<bpm>0</bpm>
<rpm>0.00</rpm>
</extensions>
</trkpt>
<trkpt lat="63.841888428" lon="-21.517503738">
<ele>27.992676</ele>
<time>2012-07-27T20:39:43Z</time>
<speed>4.470000</speed>
<extensions>
<speed>4.5</speed>
<temp>0.00</temp>
<bpm>0</bpm>
<rpm>0.00</rpm>
</extensions>
</trkpt>
<trkpt lat="63.841857910" lon="-21.517900467">
<ele>27.468262</ele>
<time>2012-07-27T20:39:48Z</time>
<speed>3.760000</speed>
<extensions>
<speed>3.8</speed>
<temp>0.00</temp>
<bpm>0</bpm>
<rpm>0.00</rpm>
</extensions>
</trkpt>
<trkpt lat="63.841823578" lon="-21.518335342">
<ele>27.427734</ele>
<time>2012-07-27T20:39:53Z</time>
<speed>4.710000</speed>
<extensions>
<speed>4.7</speed>
<temp>0.00</temp>
<bpm>0</bpm>
<rpm>0.00</rpm>
</extensions>
</trkpt>
<trkpt lat="63.841789246" lon="-21.518827438">
<ele>27.177246</ele>
<time>2012-07-27T20:39:58Z</time>
<speed>5.030000</speed>
<extensions>
<speed>5.0</speed>
<temp>0.00</temp>
<bpm>0</bpm>
<rpm>0.00</rpm>
</extensions>
</trkpt>
<trkpt lat="63.841758728" lon="-21.519294739">
<ele>26.785156</ele>
<time>2012-07-27T20:40:03Z</time>
<speed>4.160000</speed>
<extensions>
<speed>4.2</speed>
<temp>0.00</temp>
<bpm>0</bpm>
<rpm>0.00</rpm>
</extensions>
</trkpt>
<trkpt lat="63.841732025" lon="-21.519639969">
<ele>26.499023</ele>
<time>2012-07-27T20:40:08Z</time>
<speed>2.930000</speed>
<extensions>
<speed>2.9</speed>
<temp>0.00</temp>
<bpm>0</bpm>
<rpm>0.00</rpm>
</extensions>
</trkpt>
<trkpt lat="63.841716766" lon="-21.519876480">
<ele>26.607910</ele>
<time>2012-07-27T20:40:13Z</time>
<speed>2.360000</speed>
<extensions>
<speed>2.4</speed>
<temp>0.00</temp>
<bpm>0</bpm>
<rpm>0.00</rpm>
</extensions>
</trkpt>
<trkpt lat="63.841697693" lon="-21.520189285">
<ele>26.603027</ele>
<time>2012-07-27T20:40:18Z</time>
<speed>3.690000</speed>
<extensions>
<speed>3.7</speed>
<temp>0.00</temp>
<bpm>0</bpm>
<rpm>0.00</rpm>
</extensions>
</trkpt>
<trkpt lat="63.841670990" lon="-21.520603180">
<ele>26.654785</ele>
<time>2012-07-27T20:40:23Z</time>
<speed>4.300000</speed>
<extensions>
<speed>4.3</speed>
<temp>0.00</temp>
<bpm>0</bpm>
<rpm>0.00</rpm>
</extensions>
</trkpt>
<trkpt lat="63.841640472" lon="-21.521064758">
<ele>26.469238</ele>
<time>2012-07-27T20:40:28Z</time>
<speed>4.510000</speed>
<extensions>
<speed>4.5</speed>
<temp>0.00</temp>
<bpm>0</bpm>
<rpm>0.00</rpm>
</extensions>
</trkpt>
<trkpt lat="63.841613770" lon="-21.521520615">
<ele>26.399414</ele>
<time>2012-07-27T20:40:33Z</time>
<speed>4.650000</speed>
<extensions>
<speed>4.6</speed>
<temp>0.00</temp>
<bpm>0</bpm>
<rpm>0.00</rpm>
</extensions>
</trkpt>
<trkpt lat="63.841590881" lon="-21.521978378">
<ele>26.290039</ele>
<time>2012-07-27T20:40:38Z</time>
<speed>4.100000</speed>
<extensions>
<speed>4.1</speed>
<temp>0.00</temp>
<bpm>0</bpm>
<rpm>0.00</rpm>
</extensions>
</trkpt>
<trkpt lat="63.841567993" lon="-21.522327423">
<ele>25.932129</ele>
<time>2012-07-27T20:40:43Z</time>
<speed>2.740000</speed>
<extensions>
<speed>2.7</speed>
<temp>0.00</temp>
<bpm>0</bpm>
<rpm>0.00</rpm>
</extensions>
</trkpt>
<trkpt lat="63.841548920" lon="-21.522542953">
<ele>25.926270</ele>
<time>2012-07-27T20:40:48Z</time>
<speed>1.700000</speed>
<extensions>
<speed>1.7</speed>
<temp>0.00</temp>
<bpm>0</bpm>
<rpm>0.00</rpm>
</extensions>
</trkpt>
<trkpt lat="63.841537476" lon="-21.522781372">
<ele>25.399414</ele>
<time>2012-07-27T20:40:53Z</time>
<speed>3.270000</speed>
<extensions>
<speed>3.3</speed>
<temp>0.00</temp>
<bpm>0</bpm>
<rpm>0.00</rpm>
</extensions>
</trkpt>
<trkpt lat="63.841518402" lon="-21.523178101">
<ele>25.151855</ele>
<time>2012-07-27T20:40:58Z</time>
<speed>4.040000</speed>
<extensions>
<speed>4.0</speed>
<temp>0.00</temp>
<bpm>0</bpm>
<rpm>0.00</rpm>
</extensions>
</trkpt>
<trkpt lat="63.841491699" lon="-21.523521423">
<ele>24.996094</ele>
<time>2012-07-27T20:41:03Z</time>
<speed>2.840000</speed>
<extensions>
<speed>2.8</speed>
<temp>0.00</temp>
<bpm>0</bpm>
<rpm>0.00</rpm>
</extensions>
</trkpt>
<trkpt lat="63.841537476" lon="-21.523687363">
<ele>22.576172</ele>
<time>2012-07-27T20:41:08Z</time>
<speed>0.140000</speed>
<extensions>
<speed>0.1</speed>
<temp>0.00</temp>
<bpm>0</bpm>
<rpm>0.00</rpm>
</extensions>
</trkpt>
<trkpt lat="63.841537476" lon="-21.523687363">
<ele>22.338379</ele>
<time>2012-07-27T20:41:13Z</time>
<speed>0.070000</speed>
<extensions>
<speed>0.1</speed>
<temp>0.00</temp>
<bpm>0</bpm>
<rpm>0.00</rpm>
</extensions>
</trkpt>
<trkpt lat="63.841537476" lon="-21.523687363">
<ele>22.330566</ele>
<time>2012-07-27T20:41:18Z</time>
<extensions>
<speed>0.0</speed>
<temp>0.00</temp>
<bpm>0</bpm>
<rpm>0.00</rpm>
</extensions>
</trkpt>
<trkpt lat="63.841537476" lon="-21.523687363">
<ele>22.312500</ele>
<time>2012-07-27T20:41:23Z</time>
<extensions>
<speed>0.0</speed>
<temp>0.00</temp>
<bpm>0</bpm>
<rpm>0.00</rpm>
</extensions>
</trkpt>
<trkpt lat="63.841537476" lon="-21.523687363">
<ele>22.296875</ele>
<time>2012-07-27T20:41:28Z</time>
<extensions>
<speed>0.0</speed>
<temp>0.00</temp>
<bpm>0</bpm>
<rpm>0.00</rpm>
</extensions>
</trkpt>
<trkpt lat="63.841537476" lon="-21.523687363">
<ele>22.274902</ele>
<time>2012-07-27T20:41:33Z</time>
<extensions>
<speed>0.0</speed>
<temp>0.00</temp>
<bpm>0</bpm>
<rpm>0.00</rpm>
</extensions>
</trkpt>
<trkpt lat="63.841537476" lon="-21.523687363">
<ele>22.246582</ele>
<time>2012-07-27T20:41:38Z</time>
<extensions>
<speed>0.0</speed>
<temp>0.00</temp>
<bpm>0</bpm>
<rpm>0.00</rpm>
</extensions>
</trkpt>
<trkpt lat="63.841537476" lon="-21.523687363">
<ele>22.231934</ele>
<time>2012-07-27T20:41:43Z</time>
<extensions>
<speed>0.0</speed>
<temp>0.00</temp>
<bpm>0</bpm>
<rpm>0.00</rpm>
</extensions>
</trkpt>
<trkpt lat="63.841537476" lon="-21.523687363">
<ele>22.226563</ele>
<time>2012-07-27T20:41:48Z</time>
<extensions>
<speed>0.0</speed>
<temp>0.00</temp>
<bpm>0</bpm>
<rpm>0.00</rpm>
</extensions>
</trkpt>
<trkpt lat="63.841537476" lon="-21.523687363">
<ele>22.219238</ele>
<time>2012-07-27T20:41:53Z</time>
<extensions>
<speed>0.0</speed>
<temp>0.00</temp>
<bpm>0</bpm>
<rpm>0.00</rpm>
</extensions>
</trkpt>
<trkpt lat="63.841537476" lon="-21.523687363">
<ele>22.211914</ele>
<time>2012-07-27T20:41:58Z</time>
<extensions>
<speed>0.0</speed>
<temp>0.00</temp>
<bpm>0</bpm>
<rpm>0.00</rpm>
</extensions>
</trkpt>
<trkpt lat="63.841537476" lon="-21.523687363">
<ele>22.210938</ele>
<time>2012-07-27T20:42:03Z</time>
<extensions>
<speed>0.0</speed>
<temp>0.00</temp>
<bpm>0</bpm>
<rpm>0.00</rpm>
</extensions>
</trkpt>
<trkpt lat="63.841537476" lon="-21.523687363">
<ele>22.202148</ele>
<time>2012-07-27T20:42:08Z</time>
<extensions>
<speed>0.0</speed>
<temp>0.00</temp>
<bpm>0</bpm>
<rpm>0.00</rpm>
</extensions>
</trkpt>
<trkpt lat="63.841537476" lon="-21.523687363">
<ele>22.194336</ele>
<time>2012-07-27T20:42:13Z</time>
<extensions>
<speed>0.0</speed>
<temp>0.00</temp>
<bpm>0</bpm>
<rpm>0.00</rpm>
</extensions>
</trkpt>
<trkpt lat="63.841537476" lon="-21.523687363">
<ele>22.183594</ele>
<time>2012-07-27T20:42:18Z</time>
<extensions>
<speed>0.0</speed>
<temp>0.00</temp>
<bpm>0</bpm>
<rpm>0.00</rpm>
</extensions>
</trkpt>
<trkpt lat="63.841537476" lon="-21.523687363">
<ele>22.170410</ele>
<time>2012-07-27T20:42:23Z</time>
<extensions>
<speed>0.0</speed>
<temp>0.00</temp>
<bpm>0</bpm>
<rpm>0.00</rpm>
</extensions>
</trkpt>
<trkpt lat="63.841537476" lon="-21.523687363">
<ele>22.157715</ele>
<time>2012-07-27T20:42:28Z</time>
<extensions>
<speed>0.0</speed>
<temp>0.00</temp>
<bpm>0</bpm>
<rpm>0.00</rpm>
</extensions>
</trkpt>
<trkpt lat="63.841537476" lon="-21.523687363">
<ele>22.143066</ele>
<time>2012-07-27T20:42:33Z</time>
<extensions>
<speed>0.0</speed>
<temp>0.00</temp>
<bpm>0</bpm>
<rpm>0.00</rpm>
</extensions>
</trkpt>
<trkpt lat="63.841537476" lon="-21.523685455">
<ele>22.126953</ele>
<time>2012-07-27T20:42:38Z</time>
<extensions>
<speed>0.0</speed>
<temp>0.00</temp>
<bpm>0</bpm>
<rpm>0.00</rpm>
</extensions>
</trkpt>
<trkpt lat="63.841537476" lon="-21.523685455">
<ele>22.117676</ele>
<time>2012-07-27T20:42:43Z</time>
<extensions>
<speed>0.0</speed>
<temp>0.00</temp>
<bpm>0</bpm>
<rpm>0.00</rpm>
</extensions>
</trkpt>
<trkpt lat="63.841537476" lon="-21.523685455">
<ele>22.105469</ele>
<time>2012-07-27T20:42:48Z</time>
<extensions>
<speed>0.0</speed>
<temp>0.00</temp>
<bpm>0</bpm>
<rpm>0.00</rpm>
</extensions>
</trkpt>
<trkpt lat="63.841537476" lon="-21.523685455">
<ele>22.089355</ele>
<time>2012-07-27T20:42:53Z</time>
<extensions>
<speed>0.0</speed>
<temp>0.00</temp>
<bpm>0</bpm>
<rpm>0.00</rpm>
</extensions>
</trkpt>
<trkpt lat="63.841537476" lon="-21.523685455">
<ele>22.076660</ele>
<time>2012-07-27T20:42:58Z</time>
<extensions>
<speed>0.0</speed>
<temp>0.00</temp>
<bpm>0</bpm>
<rpm>0.00</rpm>
</extensions>
</trkpt>
<trkpt lat="63.841537476" lon="-21.523685455">
<ele>22.069336</ele>
<time>2012-07-27T20:43:03Z</time>
<speed>0.010000</speed>
<extensions>
<speed>0.0</speed>
<temp>0.00</temp>
<bpm>0</bpm>
<rpm>0.00</rpm>
</extensions>
</trkpt>
<trkpt lat="63.841537476" lon="-21.523685455">
<ele>22.056641</ele>
<time>2012-07-27T20:43:08Z</time>
<extensions>
<speed>0.0</speed>
<temp>0.00</temp>
<bpm>0</bpm>
<rpm>0.00</rpm>
</extensions>
</trkpt>
<trkpt lat="63.841537476" lon="-21.523683548">
<ele>22.044434</ele>
<time>2012-07-27T20:43:13Z</time>
<extensions>
<speed>0.0</speed>
<temp>0.00</temp>
<bpm>0</bpm>
<rpm>0.00</rpm>
</extensions>
</trkpt>
<trkpt lat="63.841537476" lon="-21.523683548">
<ele>22.029785</ele>
<time>2012-07-27T20:43:18Z</time>
<extensions>
<speed>0.0</speed>
<temp>0.00</temp>
<bpm>0</bpm>
<rpm>0.00</rpm>
</extensions>
</trkpt>
<trkpt lat="63.841537476" lon="-21.523683548">
<ele>22.018066</ele>
<time>2012-07-27T20:43:23Z</time>
<extensions>
<speed>0.0</speed>
<temp>0.00</temp>
<bpm>0</bpm>
<rpm>0.00</rpm>
</extensions>
</trkpt>
<trkpt lat="63.841537476" lon="-21.523683548">
<ele>22.006348</ele>
<time>2012-07-27T20:43:28Z</time>
<extensions>
<speed>0.0</speed>
<temp>0.00</temp>
<bpm>0</bpm>
<rpm>0.00</rpm>
</extensions>
</trkpt>
<trkpt lat="63.841537476" lon="-21.523683548">
<ele>21.994629</ele>
<time>2012-07-27T20:43:33Z</time>
<extensions>
<speed>0.0</speed>
<temp>0.00</temp>
<bpm>0</bpm>
<rpm>0.00</rpm>
</extensions>
</trkpt>
<trkpt lat="63.841537476" lon="-21.523683548">
<ele>21.984375</ele>
<time>2012-07-27T20:43:38Z</time>
<extensions>
<speed>0.0</speed>
<temp>0.00</temp>
<bpm>0</bpm>
<rpm>0.00</rpm>
</extensions>
</trkpt>
<trkpt lat="63.841537476" lon="-21.523683548">
<ele>21.976074</ele>
<time>2012-07-27T20:43:43Z</time>
<extensions>
<speed>0.0</speed>
<temp>0.00</temp>
<bpm>0</bpm>
<rpm>0.00</rpm>
</extensions>
</trkpt>
<trkpt lat="63.841537476" lon="-21.523681641">
<ele>21.966309</ele>
<time>2012-07-27T20:43:48Z</time>
<extensions>
<speed>0.0</speed>
<temp>0.00</temp>
<bpm>0</bpm>
<rpm>0.00</rpm>
</extensions>
</trkpt>
<trkpt lat="63.841537476" lon="-21.523681641">
<ele>21.951660</ele>
<time>2012-07-27T20:43:53Z</time>
<extensions>
<speed>0.0</speed>
<temp>0.00</temp>
<bpm>0</bpm>
<rpm>0.00</rpm>
</extensions>
</trkpt>
<trkpt lat="63.841537476" lon="-21.523681641">
<ele>21.940918</ele>
<time>2012-07-27T20:43:58Z</time>
<extensions>
<speed>0.0</speed>
<temp>0.00</temp>
<bpm>0</bpm>
<rpm>0.00</rpm>
</extensions>
</trkpt>
<trkpt lat="63.841537476" lon="-21.523681641">
<ele>21.930176</ele>
<time>2012-07-27T20:44:03Z</time>
<extensions>
<speed>0.0</speed>
<temp>0.00</temp>
<bpm>0</bpm>
<rpm>0.00</rpm>
</extensions>
</trkpt>
<trkpt lat="63.841537476" lon="-21.523681641">
<ele>21.918945</ele>
<time>2012-07-27T20:44:08Z</time>
<extensions>
<speed>0.0</speed>
<temp>0.00</temp>
<bpm>0</bpm>
<rpm>0.00</rpm>
</extensions>
</trkpt>
<trkpt lat="63.841537476" lon="-21.523681641">
<ele>21.912109</ele>
<time>2012-07-27T20:44:13Z</time>
<extensions>
<speed>0.0</speed>
<temp>0.00</temp>
<bpm>0</bpm>
<rpm>0.00</rpm>
</extensions>
</trkpt>
<trkpt lat="63.841537476" lon="-21.523679733">
<ele>21.900879</ele>
<time>2012-07-27T20:44:18Z</time>
<extensions>
<speed>0.0</speed>
<temp>0.00</temp>
<bpm>0</bpm>
<rpm>0.00</rpm>
</extensions>
</trkpt>
<trkpt lat="63.841537476" lon="-21.523679733">
<ele>21.891602</ele>
<time>2012-07-27T20:44:23Z</time>
<extensions>
<speed>0.0</speed>
<temp>0.00</temp>
<bpm>0</bpm>
<rpm>0.00</rpm>
</extensions>
</trkpt>
<trkpt lat="63.841537476" lon="-21.523679733">
<ele>21.882813</ele>
<time>2012-07-27T20:44:28Z</time>
<extensions>
<speed>0.0</speed>
<temp>0.00</temp>
<bpm>0</bpm>
<rpm>0.00</rpm>
</extensions>
</trkpt>
<trkpt lat="63.841537476" lon="-21.523679733">
<ele>21.874023</ele>
<time>2012-07-27T20:44:33Z</time>
<extensions>
<speed>0.0</speed>
<temp>0.00</temp>
<bpm>0</bpm>
<rpm>0.00</rpm>
</extensions>
</trkpt>
<trkpt lat="63.841537476" lon="-21.523679733">
<ele>21.866211</ele>
<time>2012-07-27T20:44:38Z</time>
<extensions>
<speed>0.0</speed>
<temp>0.00</temp>
<bpm>0</bpm>
<rpm>0.00</rpm>
</extensions>
</trkpt>
<trkpt lat="63.841537476" lon="-21.523679733">
<ele>21.859375</ele>
<time>2012-07-27T20:44:43Z</time>
<speed>0.010000</speed>
<extensions>
<speed>0.0</speed>
<temp>0.00</temp>
<bpm>0</bpm>
<rpm>0.00</rpm>
</extensions>
</trkpt>
<trkpt lat="63.841537476" lon="-21.523679733">
<ele>21.852539</ele>
<time>2012-07-27T20:44:48Z</time>
<extensions>
<speed>0.0</speed>
<temp>0.00</temp>
<bpm>0</bpm>
<rpm>0.00</rpm>
</extensions>
</trkpt>
<trkpt lat="63.841537476" lon="-21.523679733">
<ele>21.848633</ele>
<time>2012-07-27T20:44:53Z</time>
<extensions>
<speed>0.0</speed>
<temp>0.00</temp>
<bpm>0</bpm>
<rpm>0.00</rpm>
</extensions>
</trkpt>
<trkpt lat="63.841537476" lon="-21.523677826">
<ele>21.840820</ele>
<time>2012-07-27T20:44:58Z</time>
<extensions>
<speed>0.0</speed>
<temp>0.00</temp>
<bpm>0</bpm>
<rpm>0.00</rpm>
</extensions>
</trkpt>
<trkpt lat="63.841537476" lon="-21.523677826">
<ele>21.829102</ele>
<time>2012-07-27T20:45:03Z</time>
<extensions>
<speed>0.0</speed>
<temp>0.00</temp>
<bpm>0</bpm>
<rpm>0.00</rpm>
</extensions>
</trkpt>
<trkpt lat="63.841537476" lon="-21.523677826">
<ele>21.821289</ele>
<time>2012-07-27T20:45:08Z</time>
<extensions>
<speed>0.0</speed>
<temp>0.00</temp>
<bpm>0</bpm>
<rpm>0.00</rpm>
</extensions>
</trkpt>
<trkpt lat="63.841537476" lon="-21.523677826">
<ele>21.814941</ele>
<time>2012-07-27T20:45:13Z</time>
<extensions>
<speed>0.0</speed>
<temp>0.00</temp>
<bpm>0</bpm>
<rpm>0.00</rpm>
</extensions>
</trkpt>
<trkpt lat="63.841537476" lon="-21.523677826">
<ele>21.805664</ele>
<time>2012-07-27T20:45:18Z</time>
<extensions>
<speed>0.0</speed>
<temp>0.00</temp>
<bpm>0</bpm>
<rpm>0.00</rpm>
</extensions>
</trkpt>
<trkpt lat="63.841537476" lon="-21.523677826">
<ele>21.795410</ele>
<time>2012-07-27T20:45:23Z</time>
<extensions>
<speed>0.0</speed>
<temp>0.00</temp>
<bpm>0</bpm>
<rpm>0.00</rpm>
</extensions>
</trkpt>
<trkpt lat="63.841537476" lon="-21.523677826">
<ele>21.783203</ele>
<time>2012-07-27T20:45:28Z</time>
<extensions>
<speed>0.0</speed>
<temp>0.00</temp>
<bpm>0</bpm>
<rpm>0.00</rpm>
</extensions>
</trkpt>
<trkpt lat="63.841537476" lon="-21.523677826">
<ele>21.773438</ele>
<time>2012-07-27T20:45:33Z</time>
<extensions>
<speed>0.0</speed>
<temp>0.00</temp>
<bpm>0</bpm>
<rpm>0.00</rpm>
</extensions>
</trkpt>
<trkpt lat="63.841537476" lon="-21.523675919">
<ele>21.762207</ele>
<time>2012-07-27T20:45:38Z</time>
<extensions>
<speed>0.0</speed>
<temp>0.00</temp>
<bpm>0</bpm>
<rpm>0.00</rpm>
</extensions>
</trkpt>
<trkpt lat="63.841537476" lon="-21.523675919">
<ele>21.757324</ele>
<time>2012-07-27T20:45:43Z</time>
<extensions>
<speed>0.0</speed>
<temp>0.00</temp>
<bpm>0</bpm>
<rpm>0.00</rpm>
</extensions>
</trkpt>
<trkpt lat="63.841537476" lon="-21.523675919">
<ele>21.753418</ele>
<time>2012-07-27T20:45:48Z</time>
<extensions>
<speed>0.0</speed>
<temp>0.00</temp>
<bpm>0</bpm>
<rpm>0.00</rpm>
</extensions>
</trkpt>
<trkpt lat="63.841537476" lon="-21.523675919">
<ele>21.747559</ele>
<time>2012-07-27T20:45:53Z</time>
<extensions>
<speed>0.0</speed>
<temp>0.00</temp>
<bpm>0</bpm>
<rpm>0.00</rpm>
</extensions>
</trkpt>
<trkpt lat="63.841537476" lon="-21.523675919">
<ele>21.740234</ele>
<time>2012-07-27T20:45:58Z</time>
<speed>0.010000</speed>
<extensions>
<speed>0.0</speed>
<temp>0.00</temp>
<bpm>0</bpm>
<rpm>0.00</rpm>
</extensions>
</trkpt>
<trkpt lat="63.841537476" lon="-21.523675919">
<ele>21.730469</ele>
<time>2012-07-27T20:46:03Z</time>
<extensions>
<speed>0.0</speed>
<temp>0.00</temp>
<bpm>0</bpm>
<rpm>0.00</rpm>
</extensions>
</trkpt>
<trkpt lat="63.841537476" lon="-21.523675919">
<ele>21.721191</ele>
<time>2012-07-27T20:46:08Z</time>
<extensions>
<speed>0.0</speed>
<temp>0.00</temp>
<bpm>0</bpm>
<rpm>0.00</rpm>
</extensions>
</trkpt>
<trkpt lat="63.841537476" lon="-21.523675919">
<ele>21.708496</ele>
<time>2012-07-27T20:46:13Z</time>
<extensions>
<speed>0.0</speed>
<temp>0.00</temp>
<bpm>0</bpm>
<rpm>0.00</rpm>
</extensions>
</trkpt>
<trkpt lat="63.841537476" lon="-21.523675919">
<ele>21.692383</ele>
<time>2012-07-27T20:46:18Z</time>
<extensions>
<speed>0.0</speed>
<temp>0.00</temp>
<bpm>0</bpm>
<rpm>0.00</rpm>
</extensions>
</trkpt>
<trkpt lat="63.841537476" lon="-21.523674011">
<ele>21.679688</ele>
<time>2012-07-27T20:46:23Z</time>
<extensions>
<speed>0.0</speed>
<temp>0.00</temp>
<bpm>0</bpm>
<rpm>0.00</rpm>
</extensions>
</trkpt>
<trkpt lat="63.841537476" lon="-21.523674011">
<ele>21.674805</ele>
<time>2012-07-27T20:46:28Z</time>
<extensions>
<speed>0.0</speed>
<temp>0.00</temp>
<bpm>0</bpm>
<rpm>0.00</rpm>
</extensions>
</trkpt>
<trkpt lat="63.841537476" lon="-21.523674011">
<ele>21.665527</ele>
<time>2012-07-27T20:46:33Z</time>
<extensions>
<speed>0.0</speed>
<temp>0.00</temp>
<bpm>0</bpm>
<rpm>0.00</rpm>
</extensions>
</trkpt>
<trkpt lat="63.841537476" lon="-21.523674011">
<ele>21.659668</ele>
<time>2012-07-27T20:46:38Z</time>
<extensions>
<speed>0.0</speed>
<temp>0.00</temp>
<bpm>0</bpm>
<rpm>0.00</rpm>
</extensions>
</trkpt>
<trkpt lat="63.841537476" lon="-21.523674011">
<ele>21.651855</ele>
<time>2012-07-27T20:46:43Z</time>
<extensions>
<speed>0.0</speed>
<temp>0.00</temp>
<bpm>0</bpm>
<rpm>0.00</rpm>
</extensions>
</trkpt>
<trkpt lat="63.841537476" lon="-21.523674011">
<ele>21.645996</ele>
<time>2012-07-27T20:46:48Z</time>
<extensions>
<speed>0.0</speed>
<temp>0.00</temp>
<bpm>0</bpm>
<rpm>0.00</rpm>
</extensions>
</trkpt>
<trkpt lat="63.841537476" lon="-21.523674011">
<ele>21.641113</ele>
<time>2012-07-27T20:46:53Z</time>
<extensions>
<speed>0.0</speed>
<temp>0.00</temp>
<bpm>0</bpm>
<rpm>0.00</rpm>
</extensions>
</trkpt>
<trkpt lat="63.841537476" lon="-21.523672104">
<ele>21.634277</ele>
<time>2012-07-27T20:46:58Z</time>
<extensions>
<speed>0.0</speed>
<temp>0.00</temp>
<bpm>0</bpm>
<rpm>0.00</rpm>
</extensions>
</trkpt>
<trkpt lat="63.841537476" lon="-21.523672104">
<ele>21.628418</ele>
<time>2012-07-27T20:47:03Z</time>
<extensions>
<speed>0.0</speed>
<temp>0.00</temp>
<bpm>0</bpm>
<rpm>0.00</rpm>
</extensions>
</trkpt>
<trkpt lat="63.841537476" lon="-21.523672104">
<ele>21.621582</ele>
<time>2012-07-27T20:47:08Z</time>
<extensions>
<speed>0.0</speed>
<temp>0.00</temp>
<bpm>0</bpm>
<rpm>0.00</rpm>
</extensions>
</trkpt>
<trkpt lat="63.841537476" lon="-21.523672104">
<ele>21.612793</ele>
<time>2012-07-27T20:47:13Z</time>
<extensions>
<speed>0.0</speed>
<temp>0.00</temp>
<bpm>0</bpm>
<rpm>0.00</rpm>
</extensions>
</trkpt>
<trkpt lat="63.841537476" lon="-21.523672104">
<ele>21.606445</ele>
<time>2012-07-27T20:47:18Z</time>
<extensions>
<speed>0.0</speed>
<temp>0.00</temp>
<bpm>0</bpm>
<rpm>0.00</rpm>
</extensions>
</trkpt>
<trkpt lat="63.841537476" lon="-21.523672104">
<ele>21.603516</ele>
<time>2012-07-27T20:47:23Z</time>
<speed>0.010000</speed>
<extensions>
<speed>0.0</speed>
<temp>0.00</temp>
<bpm>0</bpm>
<rpm>0.00</rpm>
</extensions>
</trkpt>
<trkpt lat="63.841537476" lon="-21.523672104">
<ele>21.597656</ele>
<time>2012-07-27T20:47:28Z</time>
<speed>0.010000</speed>
<extensions>
<speed>0.0</speed>
<temp>0.00</temp>
<bpm>0</bpm>
<rpm>0.00</rpm>
</extensions>
</trkpt>
<trkpt lat="63.841537476" lon="-21.523670197">
<ele>21.594727</ele>
<time>2012-07-27T20:47:33Z</time>
<extensions>
<speed>0.0</speed>
<temp>0.00</temp>
<bpm>0</bpm>
<rpm>0.00</rpm>
</extensions>
</trkpt>
<trkpt lat="63.841537476" lon="-21.523670197">
<ele>21.584473</ele>
<time>2012-07-27T20:47:38Z</time>
<extensions>
<speed>0.0</speed>
<temp>0.00</temp>
<bpm>0</bpm>
<rpm>0.00</rpm>
</extensions>
</trkpt>
<trkpt lat="63.841537476" lon="-21.523670197">
<ele>21.573730</ele>
<time>2012-07-27T20:47:43Z</time>
<extensions>
<speed>0.0</speed>
<temp>0.00</temp>
<bpm>0</bpm>
<rpm>0.00</rpm>
</extensions>
</trkpt>
<trkpt lat="63.841537476" lon="-21.523670197">
<ele>21.566895</ele>
<time>2012-07-27T20:47:48Z</time>
<extensions>
<speed>0.0</speed>
<temp>0.00</temp>
<bpm>0</bpm>
<rpm>0.00</rpm>
</extensions>
</trkpt>
<trkpt lat="63.841537476" lon="-21.523670197">
<ele>21.566406</ele>
<time>2012-07-27T20:47:53Z</time>
<extensions>
<speed>0.0</speed>
<temp>0.00</temp>
<bpm>0</bpm>
<rpm>0.00</rpm>
</extensions>
</trkpt>
<trkpt lat="63.841537476" lon="-21.523670197">
<ele>21.556152</ele>
<time>2012-07-27T20:47:58Z</time>
<extensions>
<speed>0.0</speed>
<temp>0.00</temp>
<bpm>0</bpm>
<rpm>0.00</rpm>
</extensions>
</trkpt>
<trkpt lat="63.841537476" lon="-21.523668289">
<ele>21.553711</ele>
<time>2012-07-27T20:48:03Z</time>
<extensions>
<speed>0.0</speed>
<temp>0.00</temp>
<bpm>0</bpm>
<rpm>0.00</rpm>
</extensions>
</trkpt>
<trkpt lat="63.841537476" lon="-21.523668289">
<ele>21.551758</ele>
<time>2012-07-27T20:48:08Z</time>
<speed>0.010000</speed>
<extensions>
<speed>0.0</speed>
<temp>0.00</temp>
<bpm>0</bpm>
<rpm>0.00</rpm>
</extensions>
</trkpt>
<trkpt lat="63.841537476" lon="-21.523668289">
<ele>21.544434</ele>
<time>2012-07-27T20:48:13Z</time>
<extensions>
<speed>0.0</speed>
<temp>0.00</temp>
<bpm>0</bpm>
<rpm>0.00</rpm>
</extensions>
</trkpt>
<trkpt lat="63.841537476" lon="-21.523668289">
<ele>21.536621</ele>
<time>2012-07-27T20:48:18Z</time>
<extensions>
<speed>0.0</speed>
<temp>0.00</temp>
<bpm>0</bpm>
<rpm>0.00</rpm>
</extensions>
</trkpt>
<trkpt lat="63.841537476" lon="-21.523668289">
<ele>21.524902</ele>
<time>2012-07-27T20:48:23Z</time>
<extensions>
<speed>0.0</speed>
<temp>0.00</temp>
<bpm>0</bpm>
<rpm>0.00</rpm>
</extensions>
</trkpt>
<trkpt lat="63.841537476" lon="-21.523668289">
<ele>21.514160</ele>
<time>2012-07-27T20:48:28Z</time>
<extensions>
<speed>0.0</speed>
<temp>0.00</temp>
<bpm>0</bpm>
<rpm>0.00</rpm>
</extensions>
</trkpt>
<trkpt lat="63.841537476" lon="-21.523666382">
<ele>21.510742</ele>
<time>2012-07-27T20:48:33Z</time>
<extensions>
<speed>0.0</speed>
<temp>0.00</temp>
<bpm>0</bpm>
<rpm>0.00</rpm>
</extensions>
</trkpt>
<trkpt lat="63.841537476" lon="-21.523666382">
<ele>21.500000</ele>
<time>2012-07-27T20:48:38Z</time>
<extensions>
<speed>0.0</speed>
<temp>0.00</temp>
<bpm>0</bpm>
<rpm>0.00</rpm>
</extensions>
</trkpt>
<trkpt lat="63.841537476" lon="-21.523666382">
<ele>21.490234</ele>
<time>2012-07-27T20:48:43Z</time>
<extensions>
<speed>0.0</speed>
<temp>0.00</temp>
<bpm>0</bpm>
<rpm>0.00</rpm>
</extensions>
</trkpt>
<trkpt lat="63.841537476" lon="-21.523666382">
<ele>21.479492</ele>
<time>2012-07-27T20:48:48Z</time>
<extensions>
<speed>0.0</speed>
<temp>0.00</temp>
<bpm>0</bpm>
<rpm>0.00</rpm>
</extensions>
</trkpt>
<trkpt lat="63.841537476" lon="-21.523666382">
<ele>21.468750</ele>
<time>2012-07-27T20:48:53Z</time>
<extensions>
<speed>0.0</speed>
<temp>0.00</temp>
<bpm>0</bpm>
<rpm>0.00</rpm>
</extensions>
</trkpt>
<trkpt lat="63.841537476" lon="-21.523666382">
<ele>21.458496</ele>
<time>2012-07-27T20:48:58Z</time>
<extensions>
<speed>0.0</speed>
<temp>0.00</temp>
<bpm>0</bpm>
<rpm>0.00</rpm>
</extensions>
</trkpt>
<trkpt lat="63.841537476" lon="-21.523664474">
<ele>21.447754</ele>
<time>2012-07-27T20:49:03Z</time>
<extensions>
<speed>0.0</speed>
<temp>0.00</temp>
<bpm>0</bpm>
<rpm>0.00</rpm>
</extensions>
</trkpt>
<trkpt lat="63.841537476" lon="-21.523664474">
<ele>21.441406</ele>
<time>2012-07-27T20:49:08Z</time>
<extensions>
<speed>0.0</speed>
<temp>0.00</temp>
<bpm>0</bpm>
<rpm>0.00</rpm>
</extensions>
</trkpt>
<trkpt lat="63.841537476" lon="-21.523664474">
<ele>21.436035</ele>
<time>2012-07-27T20:49:13Z</time>
<extensions>
<speed>0.0</speed>
<temp>0.00</temp>
<bpm>0</bpm>
<rpm>0.00</rpm>
</extensions>
</trkpt>
<trkpt lat="63.841537476" lon="-21.523664474">
<ele>21.426758</ele>
<time>2012-07-27T20:49:18Z</time>
<extensions>
<speed>0.0</speed>
<temp>0.00</temp>
<bpm>0</bpm>
<rpm>0.00</rpm>
</extensions>
</trkpt>
<trkpt lat="63.841537476" lon="-21.523664474">
<ele>21.418457</ele>
<time>2012-07-27T20:49:23Z</time>
<extensions>
<speed>0.0</speed>
<temp>0.00</temp>
<bpm>0</bpm>
<rpm>0.00</rpm>
</extensions>
</trkpt>
<trkpt lat="63.841537476" lon="-21.523664474">
<ele>21.410156</ele>
<time>2012-07-27T20:49:28Z</time>
<extensions>
<speed>0.0</speed>
<temp>0.00</temp>
<bpm>0</bpm>
<rpm>0.00</rpm>
</extensions>
</trkpt>
<trkpt lat="63.841537476" lon="-21.523662567">
<ele>21.397949</ele>
<time>2012-07-27T20:49:33Z</time>
<extensions>
<speed>0.0</speed>
<temp>0.00</temp>
<bpm>0</bpm>
<rpm>0.00</rpm>
</extensions>
</trkpt>
<trkpt lat="63.841537476" lon="-21.523662567">
<ele>21.392090</ele>
<time>2012-07-27T20:49:38Z</time>
<extensions>
<speed>0.0</speed>
<temp>0.00</temp>
<bpm>0</bpm>
<rpm>0.00</rpm>
</extensions>
</trkpt>
<trkpt lat="63.841537476" lon="-21.523662567">
<ele>21.393066</ele>
<time>2012-07-27T20:49:43Z</time>
<speed>0.070000</speed>
<extensions>
<speed>0.1</speed>
<temp>0.00</temp>
<bpm>0</bpm>
<rpm>0.00</rpm>
</extensions>
</trkpt>
<trkpt lat="63.841537476" lon="-21.523664474">
<ele>21.512207</ele>
<time>2012-07-27T20:49:48Z</time>
<speed>0.500000</speed>
<extensions>
<speed>0.5</speed>
<temp>0.00</temp>
<bpm>0</bpm>
<rpm>0.00</rpm>
</extensions>
</trkpt>
<trkpt lat="63.841518402" lon="-21.523696899">
<ele>20.383789</ele>
<time>2012-07-27T20:49:53Z</time>
<speed>0.100000</speed>
<extensions>
<speed>0.1</speed>
<temp>0.00</temp>
<bpm>0</bpm>
<rpm>0.00</rpm>
</extensions>
</trkpt>
<trkpt lat="63.841514587" lon="-21.523693085">
<ele>19.820313</ele>
<time>2012-07-27T20:49:58Z</time>
<speed>0.040000</speed>
<extensions>
<speed>0.0</speed>
<temp>0.00</temp>
<bpm>0</bpm>
<rpm>0.00</rpm>
</extensions>
</trkpt>
<trkpt lat="63.841514587" lon="-21.523694992">
<ele>19.325195</ele>
<time>2012-07-27T20:50:03Z</time>
<speed>0.010000</speed>
<extensions>
<speed>0.0</speed>
<temp>0.00</temp>
<bpm>0</bpm>
<rpm>0.00</rpm>
</extensions>
</trkpt>
<trkpt lat="63.841510773" lon="-21.523694992">
<ele>18.816406</ele>
<time>2012-07-27T20:50:08Z</time>
<speed>0.040000</speed>
<extensions>
<speed>0.0</speed>
<temp>0.00</temp>
<bpm>0</bpm>
<rpm>0.00</rpm>
</extensions>
</trkpt>
<trkpt lat="63.841510773" lon="-21.523694992">
<ele>18.306641</ele>
<time>2012-07-27T20:50:13Z</time>
<speed>0.020000</speed>
<extensions>
<speed>0.0</speed>
<temp>0.00</temp>
<bpm>0</bpm>
<rpm>0.00</rpm>
</extensions>
</trkpt>
<trkpt lat="63.841510773" lon="-21.523696899">
<ele>17.794922</ele>
<time>2012-07-27T20:50:18Z</time>
<speed>0.020000</speed>
<extensions>
<speed>0.0</speed>
<temp>0.00</temp>
<bpm>0</bpm>
<rpm>0.00</rpm>
</extensions>
</trkpt>
<trkpt lat="63.841506958" lon="-21.523696899">
<ele>17.245605</ele>
<time>2012-07-27T20:50:23Z</time>
<speed>0.020000</speed>
<extensions>
<speed>0.0</speed>
<temp>0.00</temp>
<bpm>0</bpm>
<rpm>0.00</rpm>
</extensions>
</trkpt>
<trkpt lat="63.841506958" lon="-21.523696899">
<ele>16.834961</ele>
<time>2012-07-27T20:50:28Z</time>
<speed>0.020000</speed>
<extensions>
<speed>0.0</speed>
<temp>0.00</temp>
<bpm>0</bpm>
<rpm>0.00</rpm>
</extensions>
</trkpt>
<trkpt lat="63.841506958" lon="-21.523696899">
<ele>16.627441</ele>
<time>2012-07-27T20:50:33Z</time>
<speed>0.020000</speed>
<extensions>
<speed>0.0</speed>
<temp>0.00</temp>
<bpm>0</bpm>
<rpm>0.00</rpm>
</extensions>
</trkpt>
<trkpt lat="63.841506958" lon="-21.523698807">
<ele>16.657715</ele>
<time>2012-07-27T20:50:38Z</time>
<speed>0.010000</speed>
<extensions>
<speed>0.0</speed>
<temp>0.00</temp>
<bpm>0</bpm>
<rpm>0.00</rpm>
</extensions>
</trkpt>
<trkpt lat="63.841506958" lon="-21.523698807">
<ele>16.657715</ele>
<time>2012-07-27T20:50:43Z</time>
<speed>0.010000</speed>
<extensions>
<speed>0.0</speed>
<temp>0.00</temp>
<bpm>0</bpm>
<rpm>0.00</rpm>
</extensions>
</trkpt>
<trkpt lat="63.841506958" lon="-21.523698807">
<ele>16.664551</ele>
<time>2012-07-27T20:50:48Z</time>
<extensions>
<speed>0.0</speed>
<temp>0.00</temp>
<bpm>0</bpm>
<rpm>0.00</rpm>
</extensions>
</trkpt>
<trkpt lat="63.841506958" lon="-21.523698807">
<ele>16.671387</ele>
<time>2012-07-27T20:50:53Z</time>
<extensions>
<speed>0.0</speed>
<temp>0.00</temp>
<bpm>0</bpm>
<rpm>0.00</rpm>
</extensions>
</trkpt>
<trkpt lat="63.841506958" lon="-21.523698807">
<ele>16.673340</ele>
<time>2012-07-27T20:50:58Z</time>
<extensions>
<speed>0.0</speed>
<temp>0.00</temp>
<bpm>0</bpm>
<rpm>0.00</rpm>
</extensions>
</trkpt>
<trkpt lat="63.841506958" lon="-21.523698807">
<ele>16.674316</ele>
<time>2012-07-27T20:51:03Z</time>
<speed>0.020000</speed>
<extensions>
<speed>0.0</speed>
<temp>0.00</temp>
<bpm>0</bpm>
<rpm>0.00</rpm>
</extensions>
</trkpt>
<trkpt lat="63.841506958" lon="-21.523698807">
<ele>16.677734</ele>
<time>2012-07-27T20:51:08Z</time>
<speed>0.010000</speed>
<extensions>
<speed>0.0</speed>
<temp>0.00</temp>
<bpm>0</bpm>
<rpm>0.00</rpm>
</extensions>
</trkpt>
<trkpt lat="63.841506958" lon="-21.523698807">
<ele>16.680176</ele>
<time>2012-07-27T20:51:13Z</time>
<extensions>
<speed>0.0</speed>
<temp>0.00</temp>
<bpm>0</bpm>
<rpm>0.00</rpm>
</extensions>
</trkpt>
<trkpt lat="63.841506958" lon="-21.523698807">
<ele>16.676758</ele>
<time>2012-07-27T20:51:18Z</time>
<speed>0.010000</speed>
<extensions>
<speed>0.0</speed>
<temp>0.00</temp>
<bpm>0</bpm>
<rpm>0.00</rpm>
</extensions>
</trkpt>
<trkpt lat="63.841506958" lon="-21.523696899">
<ele>16.675781</ele>
<time>2012-07-27T20:51:23Z</time>
<extensions>
<speed>0.0</speed>
<temp>0.00</temp>
<bpm>0</bpm>
<rpm>0.00</rpm>
</extensions>
</trkpt>
<trkpt lat="63.841506958" lon="-21.523696899">
<ele>16.676270</ele>
<time>2012-07-27T20:51:28Z</time>
<extensions>
<speed>0.0</speed>
<temp>0.00</temp>
<bpm>0</bpm>
<rpm>0.00</rpm>
</extensions>
</trkpt>
<trkpt lat="63.841506958" lon="-21.523696899">
<ele>16.676758</ele>
<time>2012-07-27T20:51:33Z</time>
<speed>0.010000</speed>
<extensions>
<speed>0.0</speed>
<temp>0.00</temp>
<bpm>0</bpm>
<rpm>0.00</rpm>
</extensions>
</trkpt>
<trkpt lat="63.841506958" lon="-21.523696899">
<ele>16.682129</ele>
<time>2012-07-27T20:51:38Z</time>
<speed>0.020000</speed>
<extensions>
<speed>0.0</speed>
<temp>0.00</temp>
<bpm>0</bpm>
<rpm>0.00</rpm>
</extensions>
</trkpt>
<trkpt lat="63.841506958" lon="-21.523696899">
<ele>16.688965</ele>
<time>2012-07-27T20:51:43Z</time>
<speed>0.020000</speed>
<extensions>
<speed>0.0</speed>
<temp>0.00</temp>
<bpm>0</bpm>
<rpm>0.00</rpm>
</extensions>
</trkpt>
<trkpt lat="63.841506958" lon="-21.523696899">
<ele>16.694336</ele>
<time>2012-07-27T20:51:48Z</time>
<extensions>
<speed>0.0</speed>
<temp>0.00</temp>
<bpm>0</bpm>
<rpm>0.00</rpm>
</extensions>
</trkpt>
<trkpt lat="63.841506958" lon="-21.523696899">
<ele>16.694336</ele>
<time>2012-07-27T20:51:53Z</time>
<speed>0.010000</speed>
<extensions>
<speed>0.0</speed>
<temp>0.00</temp>
<bpm>0</bpm>
<rpm>0.00</rpm>
</extensions>
</trkpt>
<trkpt lat="63.841506958" lon="-21.523696899">
<ele>16.690918</ele>
<time>2012-07-27T20:51:58Z</time>
<speed>0.020000</speed>
<extensions>
<speed>0.0</speed>
<temp>0.00</temp>
<bpm>0</bpm>
<rpm>0.00</rpm>
</extensions>
</trkpt>
<trkpt lat="63.841506958" lon="-21.523696899">
<ele>16.691895</ele>
<time>2012-07-27T20:52:03Z</time>
<extensions>
<speed>0.0</speed>
<temp>0.00</temp>
<bpm>0</bpm>
<rpm>0.00</rpm>
</extensions>
</trkpt>
<trkpt lat="63.841506958" lon="-21.523696899">
<ele>16.690430</ele>
<time>2012-07-27T20:52:08Z</time>
<speed>0.010000</speed>
<extensions>
<speed>0.0</speed>
<temp>0.00</temp>
<bpm>0</bpm>
<rpm>0.00</rpm>
</extensions>
</trkpt>
<trkpt lat="63.841506958" lon="-21.523694992">
<ele>16.682617</ele>
<time>2012-07-27T20:52:13Z</time>
<speed>0.010000</speed>
<extensions>
<speed>0.0</speed>
<temp>0.00</temp>
<bpm>0</bpm>
<rpm>0.00</rpm>
</extensions>
</trkpt>
<trkpt lat="63.841506958" lon="-21.523696899">
<ele>16.672363</ele>
<time>2012-07-27T20:52:18Z</time>
<extensions>
<speed>0.0</speed>
<temp>0.00</temp>
<bpm>0</bpm>
<rpm>0.00</rpm>
</extensions>
</trkpt>
<trkpt lat="63.841506958" lon="-21.523694992">
<ele>16.677246</ele>
<time>2012-07-27T20:52:23Z</time>
<speed>0.010000</speed>
<extensions>
<speed>0.0</speed>
<temp>0.00</temp>
<bpm>0</bpm>
<rpm>0.00</rpm>
</extensions>
</trkpt>
<trkpt lat="63.841506958" lon="-21.523694992">
<ele>16.680664</ele>
<time>2012-07-27T20:52:28Z</time>
<speed>0.020000</speed>
<extensions>
<speed>0.0</speed>
<temp>0.00</temp>
<bpm>0</bpm>
<rpm>0.00</rpm>
</extensions>
</trkpt>
<trkpt lat="63.841506958" lon="-21.523694992">
<ele>16.670410</ele>
<time>2012-07-27T20:52:33Z</time>
<extensions>
<speed>0.0</speed>
<temp>0.00</temp>
<bpm>0</bpm>
<rpm>0.00</rpm>
</extensions>
</trkpt>
<trkpt lat="63.841506958" lon="-21.523694992">
<ele>16.657227</ele>
<time>2012-07-27T20:52:38Z</time>
<speed>0.020000</speed>
<extensions>
<speed>0.0</speed>
<temp>0.00</temp>
<bpm>0</bpm>
<rpm>0.00</rpm>
</extensions>
</trkpt>
<trkpt lat="63.841506958" lon="-21.523694992">
<ele>16.665527</ele>
<time>2012-07-27T20:52:43Z</time>
<extensions>
<speed>0.0</speed>
<temp>0.00</temp>
<bpm>0</bpm>
<rpm>0.00</rpm>
</extensions>
</trkpt>
<trkpt lat="63.841506958" lon="-21.523694992">
<ele>16.675293</ele>
<time>2012-07-27T20:52:48Z</time>
<speed>0.010000</speed>
<extensions>
<speed>0.0</speed>
<temp>0.00</temp>
<bpm>0</bpm>
<rpm>0.00</rpm>
</extensions>
</trkpt>
<trkpt lat="63.841506958" lon="-21.523694992">
<ele>16.682617</ele>
<time>2012-07-27T20:52:53Z</time>
<extensions>
<speed>0.0</speed>
<temp>0.00</temp>
<bpm>0</bpm>
<rpm>0.00</rpm>
</extensions>
</trkpt>
<trkpt lat="63.841506958" lon="-21.523694992">
<ele>16.665039</ele>
<time>2012-07-27T20:52:58Z</time>
<speed>0.010000</speed>
<extensions>
<speed>0.0</speed>
<temp>0.00</temp>
<bpm>0</bpm>
<rpm>0.00</rpm>
</extensions>
</trkpt>
<trkpt lat="63.841506958" lon="-21.523694992">
<ele>16.641113</ele>
<time>2012-07-27T20:53:03Z</time>
<extensions>
<speed>0.0</speed>
<temp>0.00</temp>
<bpm>0</bpm>
<rpm>0.00</rpm>
</extensions>
</trkpt>
<trkpt lat="63.841506958" lon="-21.523694992">
<ele>16.625000</ele>
<time>2012-07-27T20:53:08Z</time>
<speed>0.010000</speed>
<extensions>
<speed>0.0</speed>
<temp>0.00</temp>
<bpm>0</bpm>
<rpm>0.00</rpm>
</extensions>
</trkpt>
<trkpt lat="63.841506958" lon="-21.523694992">
<ele>16.636719</ele>
<time>2012-07-27T20:53:13Z</time>
<extensions>
<speed>0.0</speed>
<temp>0.00</temp>
<bpm>0</bpm>
<rpm>0.00</rpm>
</extensions>
</trkpt>
<trkpt lat="63.841506958" lon="-21.523694992">
<ele>16.657227</ele>
<time>2012-07-27T20:53:18Z</time>
<speed>0.010000</speed>
<extensions>
<speed>0.0</speed>
<temp>0.00</temp>
<bpm>0</bpm>
<rpm>0.00</rpm>
</extensions>
</trkpt>
<trkpt lat="63.841506958" lon="-21.523693085">
<ele>16.666992</ele>
<time>2012-07-27T20:53:23Z</time>
<speed>0.010000</speed>
<extensions>
<speed>0.0</speed>
<temp>0.00</temp>
<bpm>0</bpm>
<rpm>0.00</rpm>
</extensions>
</trkpt>
<trkpt lat="63.841506958" lon="-21.523693085">
<ele>16.667969</ele>
<time>2012-07-27T20:53:28Z</time>
<extensions>
<speed>0.0</speed>
<temp>0.00</temp>
<bpm>0</bpm>
<rpm>0.00</rpm>
</extensions>
</trkpt>
<trkpt lat="63.841506958" lon="-21.523693085">
<ele>16.660645</ele>
<time>2012-07-27T20:53:33Z</time>
<speed>0.040000</speed>
<extensions>
<speed>0.0</speed>
<temp>0.00</temp>
<bpm>0</bpm>
<rpm>0.00</rpm>
</extensions>
</trkpt>
<trkpt lat="63.841506958" lon="-21.523691177">
<ele>16.656250</ele>
<time>2012-07-27T20:53:38Z</time>
<extensions>
<speed>0.0</speed>
<temp>0.00</temp>
<bpm>0</bpm>
<rpm>0.00</rpm>
</extensions>
</trkpt>
<trkpt lat="63.841506958" lon="-21.523691177">
<ele>16.641602</ele>
<time>2012-07-27T20:53:43Z</time>
<extensions>
<speed>0.0</speed>
<temp>0.00</temp>
<bpm>0</bpm>
<rpm>0.00</rpm>
</extensions>
</trkpt>
<trkpt lat="63.841506958" lon="-21.523691177">
<ele>16.640137</ele>
<time>2012-07-27T20:53:48Z</time>
<extensions>
<speed>0.0</speed>
<temp>0.00</temp>
<bpm>0</bpm>
<rpm>0.00</rpm>
</extensions>
</trkpt>
<trkpt lat="63.841506958" lon="-21.523691177">
<ele>16.633301</ele>
<time>2012-07-27T20:53:53Z</time>
<extensions>
<speed>0.0</speed>
<temp>0.00</temp>
<bpm>0</bpm>
<rpm>0.00</rpm>
</extensions>
</trkpt>
<trkpt lat="63.841506958" lon="-21.523691177">
<ele>16.629883</ele>
<time>2012-07-27T20:53:58Z</time>
<speed>0.090000</speed>
<extensions>
<speed>0.1</speed>
<temp>0.00</temp>
<bpm>0</bpm>
<rpm>0.00</rpm>
</extensions>
</trkpt>
<trkpt lat="63.841506958" lon="-21.523689270">
<ele>16.534180</ele>
<time>2012-07-27T20:54:03Z</time>
<speed>0.020000</speed>
<extensions>
<speed>0.0</speed>
<temp>0.00</temp>
<bpm>0</bpm>
<rpm>0.00</rpm>
</extensions>
</trkpt>
<trkpt lat="63.841506958" lon="-21.523689270">
<ele>16.547852</ele>
<time>2012-07-27T20:54:08Z</time>
<extensions>
<speed>0.0</speed>
<temp>0.00</temp>
<bpm>0</bpm>
<rpm>0.00</rpm>
</extensions>
</trkpt>
<trkpt lat="63.841506958" lon="-21.523689270">
<ele>16.564941</ele>
<time>2012-07-27T20:54:13Z</time>
<extensions>
<speed>0.0</speed>
<temp>0.00</temp>
<bpm>0</bpm>
<rpm>0.00</rpm>
</extensions>
</trkpt>
<trkpt lat="63.841506958" lon="-21.523689270">
<ele>16.578613</ele>
<time>2012-07-27T20:54:18Z</time>
<extensions>
<speed>0.0</speed>
<temp>0.00</temp>
<bpm>0</bpm>
<rpm>0.00</rpm>
</extensions>
</trkpt>
<trkpt lat="63.841506958" lon="-21.523689270">
<ele>16.583008</ele>
<time>2012-07-27T20:54:23Z</time>
<extensions>
<speed>0.0</speed>
<temp>0.00</temp>
<bpm>0</bpm>
<rpm>0.00</rpm>
</extensions>
</trkpt>
<trkpt lat="63.841506958" lon="-21.523689270">
<ele>16.586914</ele>
<time>2012-07-27T20:54:28Z</time>
<speed>0.020000</speed>
<extensions>
<speed>0.0</speed>
<temp>0.00</temp>
<bpm>0</bpm>
<rpm>0.00</rpm>
</extensions>
</trkpt>
<trkpt lat="63.841503143" lon="-21.523706436">
<ele>16.626953</ele>
<time>2012-07-27T20:54:33Z</time>
<speed>0.570000</speed>
<extensions>
<speed>0.6</speed>
<temp>0.00</temp>
<bpm>0</bpm>
<rpm>0.00</rpm>
</extensions>
</trkpt>
<trkpt lat="63.841476440" lon="-21.523719788">
<ele>17.558105</ele>
<time>2012-07-27T20:54:38Z</time>
<speed>0.330000</speed>
<extensions>
<speed>0.3</speed>
<temp>0.00</temp>
<bpm>0</bpm>
<rpm>0.00</rpm>
</extensions>
</trkpt>
<trkpt lat="63.841472626" lon="-21.523714066">
<ele>17.720703</ele>
<time>2012-07-27T20:54:43Z</time>
<speed>0.070000</speed>
<extensions>
<speed>0.1</speed>
<temp>0.00</temp>
<bpm>0</bpm>
<rpm>0.00</rpm>
</extensions>
</trkpt>
<trkpt lat="63.841445923" lon="-21.523687363">
<ele>17.911133</ele>
<time>2012-07-27T20:54:48Z</time>
<speed>1.040000</speed>
<extensions>
<speed>1.0</speed>
<temp>0.00</temp>
<bpm>0</bpm>
<rpm>0.00</rpm>
</extensions>
</trkpt>
<trkpt lat="63.841419220" lon="-21.523632050">
<ele>18.669434</ele>
<time>2012-07-27T20:54:53Z</time>
<speed>0.130000</speed>
<extensions>
<speed>0.1</speed>
<temp>0.00</temp>
<bpm>0</bpm>
<rpm>0.00</rpm>
</extensions>
</trkpt>
<trkpt lat="63.841403961" lon="-21.523466110">
<ele>17.720703</ele>
<time>2012-07-27T20:54:58Z</time>
<speed>3.090000</speed>
<extensions>
<speed>3.1</speed>
<temp>0.00</temp>
<bpm>0</bpm>
<rpm>0.00</rpm>
</extensions>
</trkpt>
<trkpt lat="63.841423035" lon="-21.523078918">
<ele>16.976074</ele>
<time>2012-07-27T20:55:03Z</time>
<speed>4.350000</speed>
<extensions>
<speed>4.3</speed>
<temp>0.00</temp>
<bpm>0</bpm>
<rpm>0.00</rpm>
</extensions>
</trkpt>
<trkpt lat="63.841449738" lon="-21.522600174">
<ele>16.524902</ele>
<time>2012-07-27T20:55:08Z</time>
<speed>4.780000</speed>
<extensions>
<speed>4.8</speed>
<temp>0.00</temp>
<bpm>0</bpm>
<rpm>0.00</rpm>
</extensions>
</trkpt>
<trkpt lat="63.841472626" lon="-21.522104263">
<ele>16.078125</ele>
<time>2012-07-27T20:55:13Z</time>
<speed>4.530000</speed>
<extensions>
<speed>4.5</speed>
<temp>0.00</temp>
<bpm>0</bpm>
<rpm>0.00</rpm>
</extensions>
</trkpt>
<trkpt lat="63.841499329" lon="-21.521671295">
<ele>15.762695</ele>
<time>2012-07-27T20:55:18Z</time>
<speed>4.470000</speed>
<extensions>
<speed>4.5</speed>
<temp>0.00</temp>
<bpm>0</bpm>
<rpm>0.00</rpm>
</extensions>
</trkpt>
<trkpt lat="63.841522217" lon="-21.521203995">
<ele>15.357422</ele>
<time>2012-07-27T20:55:23Z</time>
<speed>5.040000</speed>
<extensions>
<speed>5.0</speed>
<temp>0.00</temp>
<bpm>0</bpm>
<rpm>0.00</rpm>
</extensions>
</trkpt>
<trkpt lat="63.841556549" lon="-21.520673752">
<ele>15.115723</ele>
<time>2012-07-27T20:55:28Z</time>
<speed>5.070000</speed>
<extensions>
<speed>5.1</speed>
<temp>0.00</temp>
<bpm>0</bpm>
<rpm>0.00</rpm>
</extensions>
</trkpt>
<trkpt lat="63.841590881" lon="-21.520158768">
<ele>14.375000</ele>
<time>2012-07-27T20:55:33Z</time>
<speed>4.960000</speed>
<extensions>
<speed>5.0</speed>
<temp>0.00</temp>
<bpm>0</bpm>
<rpm>0.00</rpm>
</extensions>
</trkpt>
<trkpt lat="63.841621399" lon="-21.519741058">
<ele>13.917236</ele>
<time>2012-07-27T20:55:38Z</time>
<speed>3.650000</speed>
<extensions>
<speed>3.7</speed>
<temp>0.00</temp>
<bpm>0</bpm>
<rpm>0.00</rpm>
</extensions>
</trkpt>
<trkpt lat="63.841651917" lon="-21.519437790">
<ele>13.713623</ele>
<time>2012-07-27T20:55:43Z</time>
<speed>2.700000</speed>
<extensions>
<speed>2.7</speed>
<temp>0.00</temp>
<bpm>0</bpm>
<rpm>0.00</rpm>
</extensions>
</trkpt>
<trkpt lat="63.841678619" lon="-21.519098282">
<ele>13.732422</ele>
<time>2012-07-27T20:55:48Z</time>
<speed>4.000000</speed>
<extensions>
<speed>4.0</speed>
<temp>0.00</temp>
<bpm>0</bpm>
<rpm>0.00</rpm>
</extensions>
</trkpt>
<trkpt lat="63.841697693" lon="-21.518642426">
<ele>13.065918</ele>
<time>2012-07-27T20:55:53Z</time>
<speed>4.860000</speed>
<extensions>
<speed>4.9</speed>
<temp>0.00</temp>
<bpm>0</bpm>
<rpm>0.00</rpm>
</extensions>
</trkpt>
<trkpt lat="63.841735840" lon="-21.518108368">
<ele>13.169434</ele>
<time>2012-07-27T20:55:58Z</time>
<speed>6.060000</speed>
<extensions>
<speed>6.1</speed>
<temp>0.00</temp>
<bpm>0</bpm>
<rpm>0.00</rpm>
</extensions>
</trkpt>
<trkpt lat="63.841785431" lon="-21.517473221">
<ele>13.444580</ele>
<time>2012-07-27T20:56:03Z</time>
<speed>5.740000</speed>
<extensions>
<speed>5.7</speed>
<temp>0.00</temp>
<bpm>0</bpm>
<rpm>0.00</rpm>
</extensions>
</trkpt>
<trkpt lat="63.841819763" lon="-21.516944885">
<ele>13.141846</ele>
<time>2012-07-27T20:56:08Z</time>
<speed>5.170000</speed>
<extensions>
<speed>5.2</speed>
<temp>0.00</temp>
<bpm>0</bpm>
<rpm>0.00</rpm>
</extensions>
</trkpt>
<trkpt lat="63.841854095" lon="-21.516429901">
<ele>13.123047</ele>
<time>2012-07-27T20:56:13Z</time>
<speed>5.270000</speed>
<extensions>
<speed>5.3</speed>
<temp>0.00</temp>
<bpm>0</bpm>
<rpm>0.00</rpm>
</extensions>
</trkpt>
<trkpt lat="63.841907501" lon="-21.515886307">
<ele>13.364746</ele>
<time>2012-07-27T20:56:18Z</time>
<speed>5.620000</speed>
<extensions>
<speed>5.6</speed>
<temp>0.00</temp>
<bpm>0</bpm>
<rpm>0.00</rpm>
</extensions>
</trkpt>
<trkpt lat="63.841949463" lon="-21.515367508">
<ele>13.520264</ele>
<time>2012-07-27T20:56:23Z</time>
<speed>4.130000</speed>
<extensions>
<speed>4.1</speed>
<temp>0.00</temp>
<bpm>0</bpm>
<rpm>0.00</rpm>
</extensions>
</trkpt>
<trkpt lat="63.841957092" lon="-21.515302658">
<ele>13.105225</ele>
<time>2012-07-27T20:56:28Z</time>
<speed>0.010000</speed>
<extensions>
<speed>0.0</speed>
<temp>0.00</temp>
<bpm>0</bpm>
<rpm>0.00</rpm>
</extensions>
</trkpt>
<trkpt lat="63.841957092" lon="-21.515302658">
<ele>13.097412</ele>
<time>2012-07-27T20:56:33Z</time>
<extensions>
<speed>0.0</speed>
<temp>0.00</temp>
<bpm>0</bpm>
<rpm>0.00</rpm>
</extensions>
</trkpt>
<trkpt lat="63.841957092" lon="-21.515302658">
<ele>13.078613</ele>
<time>2012-07-27T20:56:38Z</time>
<extensions>
<speed>0.0</speed>
<temp>0.00</temp>
<bpm>0</bpm>
<rpm>0.00</rpm>
</extensions>
</trkpt>
<trkpt lat="63.841957092" lon="-21.515302658">
<ele>13.058838</ele>
<time>2012-07-27T20:56:43Z</time>
<extensions>
<speed>0.0</speed>
<temp>0.00</temp>
<bpm>0</bpm>
<rpm>0.00</rpm>
</extensions>
</trkpt>
<trkpt lat="63.841957092" lon="-21.515302658">
<ele>13.063965</ele>
<time>2012-07-27T20:56:48Z</time>
<extensions>
<speed>0.0</speed>
<temp>0.00</temp>
<bpm>0</bpm>
<rpm>0.00</rpm>
</extensions>
</trkpt>
<trkpt lat="63.841957092" lon="-21.515302658">
<ele>13.038574</ele>
<time>2012-07-27T20:56:53Z</time>
<extensions>
<speed>0.0</speed>
<temp>0.00</temp>
<bpm>0</bpm>
<rpm>0.00</rpm>
</extensions>
</trkpt>
<trkpt lat="63.841957092" lon="-21.515302658">
<ele>13.027588</ele>
<time>2012-07-27T20:56:58Z</time>
<extensions>
<speed>0.0</speed>
<temp>0.00</temp>
<bpm>0</bpm>
<rpm>0.00</rpm>
</extensions>
</trkpt>
<trkpt lat="63.841957092" lon="-21.515302658">
<ele>13.047852</ele>
<time>2012-07-27T20:57:03Z</time>
<extensions>
<speed>0.0</speed>
<temp>0.00</temp>
<bpm>0</bpm>
<rpm>0.00</rpm>
</extensions>
</trkpt>
<trkpt lat="63.841957092" lon="-21.515302658">
<ele>13.047607</ele>
<time>2012-07-27T20:57:08Z</time>
<extensions>
<speed>0.0</speed>
<temp>0.00</temp>
<bpm>0</bpm>
<rpm>0.00</rpm>
</extensions>
</trkpt>
<trkpt lat="63.841957092" lon="-21.515302658">
<ele>13.050293</ele>
<time>2012-07-27T20:57:13Z</time>
<speed>0.010000</speed>
<extensions>
<speed>0.0</speed>
<temp>0.00</temp>
<bpm>0</bpm>
<rpm>0.00</rpm>
</extensions>
</trkpt>
<trkpt lat="63.841957092" lon="-21.515302658">
<ele>13.052490</ele>
<time>2012-07-27T20:57:18Z</time>
<extensions>
<speed>0.0</speed>
<temp>0.00</temp>
<bpm>0</bpm>
<rpm>0.00</rpm>
</extensions>
</trkpt>
<trkpt lat="63.841957092" lon="-21.515302658">
<ele>13.047119</ele>
<time>2012-07-27T20:57:23Z</time>
<extensions>
<speed>0.0</speed>
<temp>0.00</temp>
<bpm>0</bpm>
<rpm>0.00</rpm>
</extensions>
</trkpt>
<trkpt lat="63.841957092" lon="-21.515302658">
<ele>13.047607</ele>
<time>2012-07-27T20:57:28Z</time>
<speed>0.010000</speed>
<extensions>
<speed>0.0</speed>
<temp>0.00</temp>
<bpm>0</bpm>
<rpm>0.00</rpm>
</extensions>
</trkpt>
<trkpt lat="63.841957092" lon="-21.515302658">
<ele>13.045166</ele>
<time>2012-07-27T20:57:33Z</time>
<extensions>
<speed>0.0</speed>
<temp>0.00</temp>
<bpm>0</bpm>
<rpm>0.00</rpm>
</extensions>
</trkpt>
<trkpt lat="63.841957092" lon="-21.515302658">
<ele>13.047607</ele>
<time>2012-07-27T20:57:38Z</time>
<extensions>
<speed>0.0</speed>
<temp>0.00</temp>
<bpm>0</bpm>
<rpm>0.00</rpm>
</extensions>
</trkpt>
<trkpt lat="63.841953278" lon="-21.515302658">
<ele>13.044922</ele>
<time>2012-07-27T20:57:43Z</time>
<speed>0.010000</speed>
<extensions>
<speed>0.0</speed>
<temp>0.00</temp>
<bpm>0</bpm>
<rpm>0.00</rpm>
</extensions>
</trkpt>
<trkpt lat="63.841953278" lon="-21.515302658">
<ele>13.041260</ele>
<time>2012-07-27T20:57:48Z</time>
<extensions>
<speed>0.0</speed>
<temp>0.00</temp>
<bpm>0</bpm>
<rpm>0.00</rpm>
</extensions>
</trkpt>
<trkpt lat="63.841953278" lon="-21.515302658">
<ele>13.034912</ele>
<time>2012-07-27T20:57:53Z</time>
<extensions>
<speed>0.0</speed>
<temp>0.00</temp>
<bpm>0</bpm>
<rpm>0.00</rpm>
</extensions>
</trkpt>
<trkpt lat="63.841953278" lon="-21.515302658">
<ele>13.034180</ele>
<time>2012-07-27T20:57:58Z</time>
<extensions>
<speed>0.0</speed>
<temp>0.00</temp>
<bpm>0</bpm>
<rpm>0.00</rpm>
</extensions>
</trkpt>
<trkpt lat="63.841953278" lon="-21.515302658">
<ele>13.032227</ele>
<time>2012-07-27T20:58:03Z</time>
<extensions>
<speed>0.0</speed>
<temp>0.00</temp>
<bpm>0</bpm>
<rpm>0.00</rpm>
</extensions>
</trkpt>
<trkpt lat="63.841953278" lon="-21.515302658">
<ele>13.023926</ele>
<time>2012-07-27T20:58:08Z</time>
<extensions>
<speed>0.0</speed>
<temp>0.00</temp>
<bpm>0</bpm>
<rpm>0.00</rpm>
</extensions>
</trkpt>
<trkpt lat="63.841953278" lon="-21.515302658">
<ele>13.022461</ele>
<time>2012-07-27T20:58:13Z</time>
<extensions>
<speed>0.0</speed>
<temp>0.00</temp>
<bpm>0</bpm>
<rpm>0.00</rpm>
</extensions>
</trkpt>
<trkpt lat="63.841953278" lon="-21.515302658">
<ele>13.021484</ele>
<time>2012-07-27T20:58:18Z</time>
<extensions>
<speed>0.0</speed>
<temp>0.00</temp>
<bpm>0</bpm>
<rpm>0.00</rpm>
</extensions>
</trkpt>
<trkpt lat="63.841953278" lon="-21.515302658">
<ele>13.020508</ele>
<time>2012-07-27T20:58:23Z</time>
<speed>0.020000</speed>
<extensions>
<speed>0.0</speed>
<temp>0.00</temp>
<bpm>0</bpm>
<rpm>0.00</rpm>
</extensions>
</trkpt>
<trkpt lat="63.841953278" lon="-21.515300751">
<ele>13.019043</ele>
<time>2012-07-27T20:58:28Z</time>
<speed>0.010000</speed>
<extensions>
<speed>0.0</speed>
<temp>0.00</temp>
<bpm>0</bpm>
<rpm>0.00</rpm>
</extensions>
</trkpt>
<trkpt lat="63.841953278" lon="-21.515300751">
<ele>13.021484</ele>
<time>2012-07-27T20:58:33Z</time>
<speed>0.030000</speed>
<extensions>
<speed>0.0</speed>
<temp>0.00</temp>
<bpm>0</bpm>
<rpm>0.00</rpm>
</extensions>
</trkpt>
<trkpt lat="63.841953278" lon="-21.515300751">
<ele>13.059814</ele>
<time>2012-07-27T20:58:38Z</time>
<extensions>
<speed>0.0</speed>
<temp>0.00</temp>
<bpm>0</bpm>
<rpm>0.00</rpm>
</extensions>
</trkpt>
<trkpt lat="63.841953278" lon="-21.515300751">
<ele>13.080566</ele>
<time>2012-07-27T20:58:43Z</time>
<extensions>
<speed>0.0</speed>
<temp>0.00</temp>
<bpm>0</bpm>
<rpm>0.00</rpm>
</extensions>
</trkpt>
<trkpt lat="63.841953278" lon="-21.515300751">
<ele>13.087158</ele>
<time>2012-07-27T20:58:48Z</time>
<extensions>
<speed>0.0</speed>
<temp>0.00</temp>
<bpm>0</bpm>
<rpm>0.00</rpm>
</extensions>
</trkpt>
<trkpt lat="63.841953278" lon="-21.515300751">
<ele>13.098389</ele>
<time>2012-07-27T20:58:53Z</time>
<extensions>
<speed>0.0</speed>
<temp>0.00</temp>
<bpm>0</bpm>
<rpm>0.00</rpm>
</extensions>
</trkpt>
<trkpt lat="63.841953278" lon="-21.515300751">
<ele>13.108887</ele>
<time>2012-07-27T20:58:58Z</time>
<extensions>
<speed>0.0</speed>
<temp>0.00</temp>
<bpm>0</bpm>
<rpm>0.00</rpm>
</extensions>
</trkpt>
<trkpt lat="63.841953278" lon="-21.515300751">
<ele>13.118896</ele>
<time>2012-07-27T20:59:03Z</time>
<speed>0.010000</speed>
<extensions>
<speed>0.0</speed>
<temp>0.00</temp>
<bpm>0</bpm>
<rpm>0.00</rpm>
</extensions>
</trkpt>
<trkpt lat="63.841953278" lon="-21.515300751">
<ele>13.127441</ele>
<time>2012-07-27T20:59:08Z</time>
<extensions>
<speed>0.0</speed>
<temp>0.00</temp>
<bpm>0</bpm>
<rpm>0.00</rpm>
</extensions>
</trkpt>
<trkpt lat="63.841953278" lon="-21.515300751">
<ele>13.133789</ele>
<time>2012-07-27T20:59:13Z</time>
<extensions>
<speed>0.0</speed>
<temp>0.00</temp>
<bpm>0</bpm>
<rpm>0.00</rpm>
</extensions>
</trkpt>
<trkpt lat="63.841953278" lon="-21.515300751">
<ele>13.138916</ele>
<time>2012-07-27T20:59:18Z</time>
<speed>0.010000</speed>
<extensions>
<speed>0.0</speed>
<temp>0.00</temp>
<bpm>0</bpm>
<rpm>0.00</rpm>
</extensions>
</trkpt>
<trkpt lat="63.841953278" lon="-21.515300751">
<ele>13.144043</ele>
<time>2012-07-27T20:59:23Z</time>
<extensions>
<speed>0.0</speed>
<temp>0.00</temp>
<bpm>0</bpm>
<rpm>0.00</rpm>
</extensions>
</trkpt>
<trkpt lat="63.841953278" lon="-21.515300751">
<ele>13.146240</ele>
<time>2012-07-27T20:59:28Z</time>
<extensions>
<speed>0.0</speed>
<temp>0.00</temp>
<bpm>0</bpm>
<rpm>0.00</rpm>
</extensions>
</trkpt>
<trkpt lat="63.841953278" lon="-21.515300751">
<ele>13.148682</ele>
<time>2012-07-27T20:59:33Z</time>
<extensions>
<speed>0.0</speed>
<temp>0.00</temp>
<bpm>0</bpm>
<rpm>0.00</rpm>
</extensions>
</trkpt>
<trkpt lat="63.841953278" lon="-21.515300751">
<ele>13.158447</ele>
<time>2012-07-27T20:59:38Z</time>
<extensions>
<speed>0.0</speed>
<temp>0.00</temp>
<bpm>0</bpm>
<rpm>0.00</rpm>
</extensions>
</trkpt>
<trkpt lat="63.841953278" lon="-21.515300751">
<ele>13.165527</ele>
<time>2012-07-27T20:59:43Z</time>
<speed>0.010000</speed>
<extensions>
<speed>0.0</speed>
<temp>0.00</temp>
<bpm>0</bpm>
<rpm>0.00</rpm>
</extensions>
</trkpt>
<trkpt lat="63.841953278" lon="-21.515300751">
<ele>13.173828</ele>
<time>2012-07-27T20:59:48Z</time>
<extensions>
<speed>0.0</speed>
<temp>0.00</temp>
<bpm>0</bpm>
<rpm>0.00</rpm>
</extensions>
</trkpt>
<trkpt lat="63.841953278" lon="-21.515300751">
<ele>13.183594</ele>
<time>2012-07-27T20:59:53Z</time>
<extensions>
<speed>0.0</speed>
<temp>0.00</temp>
<bpm>0</bpm>
<rpm>0.00</rpm>
</extensions>
</trkpt>
<trkpt lat="63.841953278" lon="-21.515300751">
<ele>13.194092</ele>
<time>2012-07-27T20:59:58Z</time>
<extensions>
<speed>0.0</speed>
<temp>0.00</temp>
<bpm>0</bpm>
<rpm>0.00</rpm>
</extensions>
</trkpt>
<trkpt lat="63.841953278" lon="-21.515300751">
<ele>13.203857</ele>
<time>2012-07-27T21:00:03Z</time>
<speed>0.010000</speed>
<extensions>
<speed>0.0</speed>
<temp>0.00</temp>
<bpm>0</bpm>
<rpm>0.00</rpm>
</extensions>
</trkpt>
<trkpt lat="63.841953278" lon="-21.515300751">
<ele>13.207764</ele>
<time>2012-07-27T21:00:08Z</time>
<extensions>
<speed>0.0</speed>
<temp>0.00</temp>
<bpm>0</bpm>
<rpm>0.00</rpm>
</extensions>
</trkpt>
<trkpt lat="63.841953278" lon="-21.515300751">
<ele>13.214600</ele>
<time>2012-07-27T21:00:13Z</time>
<extensions>
<speed>0.0</speed>
<temp>0.00</temp>
<bpm>0</bpm>
<rpm>0.00</rpm>
</extensions>
</trkpt>
<trkpt lat="63.841953278" lon="-21.515300751">
<ele>13.218018</ele>
<time>2012-07-27T21:00:18Z</time>
<extensions>
<speed>0.0</speed>
<temp>0.00</temp>
<bpm>0</bpm>
<rpm>0.00</rpm>
</extensions>
</trkpt>
<trkpt lat="63.841953278" lon="-21.515300751">
<ele>13.223633</ele>
<time>2012-07-27T21:00:23Z</time>
<extensions>
<speed>0.0</speed>
<temp>0.00</temp>
<bpm>0</bpm>
<rpm>0.00</rpm>
</extensions>
</trkpt>
<trkpt lat="63.841953278" lon="-21.515300751">
<ele>13.228027</ele>
<time>2012-07-27T21:00:28Z</time>
<extensions>
<speed>0.0</speed>
<temp>0.00</temp>
<bpm>0</bpm>
<rpm>0.00</rpm>
</extensions>
</trkpt>
<trkpt lat="63.841953278" lon="-21.515300751">
<ele>13.237061</ele>
<time>2012-07-27T21:00:33Z</time>
<extensions>
<speed>0.0</speed>
<temp>0.00</temp>
<bpm>0</bpm>
<rpm>0.00</rpm>
</extensions>
</trkpt>
<trkpt lat="63.841953278" lon="-21.515300751">
<ele>13.245850</ele>
<time>2012-07-27T21:00:38Z</time>
<extensions>
<speed>0.0</speed>
<temp>0.00</temp>
<bpm>0</bpm>
<rpm>0.00</rpm>
</extensions>
</trkpt>
<trkpt lat="63.841953278" lon="-21.515300751">
<ele>13.250244</ele>
<time>2012-07-27T21:00:43Z</time>
<extensions>
<speed>0.0</speed>
<temp>0.00</temp>
<bpm>0</bpm>
<rpm>0.00</rpm>
</extensions>
</trkpt>
<trkpt lat="63.841953278" lon="-21.515300751">
<ele>13.261963</ele>
<time>2012-07-27T21:00:48Z</time>
<extensions>
<speed>0.0</speed>
<temp>0.00</temp>
<bpm>0</bpm>
<rpm>0.00</rpm>
</extensions>
</trkpt>
<trkpt lat="63.841953278" lon="-21.515300751">
<ele>13.267334</ele>
<time>2012-07-27T21:00:53Z</time>
<speed>0.010000</speed>
<extensions>
<speed>0.0</speed>
<temp>0.00</temp>
<bpm>0</bpm>
<rpm>0.00</rpm>
</extensions>
</trkpt>
<trkpt lat="63.841953278" lon="-21.515300751">
<ele>13.273438</ele>
<time>2012-07-27T21:00:58Z</time>
<extensions>
<speed>0.0</speed>
<temp>0.00</temp>
<bpm>0</bpm>
<rpm>0.00</rpm>
</extensions>
</trkpt>
<trkpt lat="63.841953278" lon="-21.515300751">
<ele>13.274170</ele>
<time>2012-07-27T21:01:03Z</time>
<extensions>
<speed>0.0</speed>
<temp>0.00</temp>
<bpm>0</bpm>
<rpm>0.00</rpm>
</extensions>
</trkpt>
<trkpt lat="63.841953278" lon="-21.515300751">
<ele>13.285889</ele>
<time>2012-07-27T21:01:08Z</time>
<extensions>
<speed>0.0</speed>
<temp>0.00</temp>
<bpm>0</bpm>
<rpm>0.00</rpm>
</extensions>
</trkpt>
<trkpt lat="63.841953278" lon="-21.515300751">
<ele>13.294678</ele>
<time>2012-07-27T21:01:13Z</time>
<extensions>
<speed>0.0</speed>
<temp>0.00</temp>
<bpm>0</bpm>
<rpm>0.00</rpm>
</extensions>
</trkpt>
<trkpt lat="63.841953278" lon="-21.515300751">
<ele>13.301025</ele>
<time>2012-07-27T21:01:18Z</time>
<extensions>
<speed>0.0</speed>
<temp>0.00</temp>
<bpm>0</bpm>
<rpm>0.00</rpm>
</extensions>
</trkpt>
<trkpt lat="63.841953278" lon="-21.515300751">
<ele>13.318359</ele>
<time>2012-07-27T21:01:23Z</time>
<extensions>
<speed>0.0</speed>
<temp>0.00</temp>
<bpm>0</bpm>
<rpm>0.00</rpm>
</extensions>
</trkpt>
<trkpt lat="63.841953278" lon="-21.515300751">
<ele>13.333496</ele>
<time>2012-07-27T21:01:28Z</time>
<extensions>
<speed>0.0</speed>
<temp>0.00</temp>
<bpm>0</bpm>
<rpm>0.00</rpm>
</extensions>
</trkpt>
<trkpt lat="63.841953278" lon="-21.515300751">
<ele>13.339355</ele>
<time>2012-07-27T21:01:33Z</time>
<speed>0.020000</speed>
<extensions>
<speed>0.0</speed>
<temp>0.00</temp>
<bpm>0</bpm>
<rpm>0.00</rpm>
</extensions>
</trkpt>
<trkpt lat="63.841953278" lon="-21.515302658">
<ele>13.359619</ele>
<time>2012-07-27T21:01:38Z</time>
<speed>0.010000</speed>
<extensions>
<speed>0.0</speed>
<temp>0.00</temp>
<bpm>0</bpm>
<rpm>0.00</rpm>
</extensions>
</trkpt>
<trkpt lat="63.841953278" lon="-21.515302658">
<ele>13.362793</ele>
<time>2012-07-27T21:01:43Z</time>
<extensions>
<speed>0.0</speed>
<temp>0.00</temp>
<bpm>0</bpm>
<rpm>0.00</rpm>
</extensions>
</trkpt>
<trkpt lat="63.841953278" lon="-21.515302658">
<ele>13.369873</ele>
<time>2012-07-27T21:01:48Z</time>
<extensions>
<speed>0.0</speed>
<temp>0.00</temp>
<bpm>0</bpm>
<rpm>0.00</rpm>
</extensions>
</trkpt>
<trkpt lat="63.841953278" lon="-21.515302658">
<ele>13.376465</ele>
<time>2012-07-27T21:01:53Z</time>
<extensions>
<speed>0.0</speed>
<temp>0.00</temp>
<bpm>0</bpm>
<rpm>0.00</rpm>
</extensions>
</trkpt>
<trkpt lat="63.841953278" lon="-21.515302658">
<ele>13.383545</ele>
<time>2012-07-27T21:01:58Z</time>
<speed>0.010000</speed>
<extensions>
<speed>0.0</speed>
<temp>0.00</temp>
<bpm>0</bpm>
<rpm>0.00</rpm>
</extensions>
</trkpt>
<trkpt lat="63.841953278" lon="-21.515302658">
<ele>13.396240</ele>
<time>2012-07-27T21:02:03Z</time>
<speed>0.040000</speed>
<extensions>
<speed>0.0</speed>
<temp>0.00</temp>
<bpm>0</bpm>
<rpm>0.00</rpm>
</extensions>
</trkpt>
<trkpt lat="63.841957092" lon="-21.515287399">
<ele>13.476318</ele>
<time>2012-07-27T21:02:08Z</time>
<speed>0.900000</speed>
<extensions>
<speed>0.9</speed>
<temp>0.00</temp>
<bpm>0</bpm>
<rpm>0.00</rpm>
</extensions>
</trkpt>
<trkpt lat="63.842002869" lon="-21.515439987">
<ele>15.021729</ele>
<time>2012-07-27T21:02:13Z</time>
<speed>3.640000</speed>
<extensions>
<speed>3.6</speed>
<temp>0.00</temp>
<bpm>0</bpm>
<rpm>0.00</rpm>
</extensions>
</trkpt>
<trkpt lat="63.841987610" lon="-21.515872955">
<ele>15.003174</ele>
<time>2012-07-27T21:02:18Z</time>
<speed>4.680000</speed>
<extensions>
<speed>4.7</speed>
<temp>0.00</temp>
<bpm>0</bpm>
<rpm>0.00</rpm>
</extensions>
</trkpt>
<trkpt lat="63.841945648" lon="-21.516378403">
<ele>15.315918</ele>
<time>2012-07-27T21:02:23Z</time>
<speed>4.880000</speed>
<extensions>
<speed>4.9</speed>
<temp>0.00</temp>
<bpm>0</bpm>
<rpm>0.00</rpm>
</extensions>
</trkpt>
<trkpt lat="63.841907501" lon="-21.516883850">
<ele>17.219238</ele>
<time>2012-07-27T21:02:28Z</time>
<speed>4.820000</speed>
<extensions>
<speed>4.8</speed>
<temp>0.00</temp>
<bpm>0</bpm>
<rpm>0.00</rpm>
</extensions>
</trkpt>
<trkpt lat="63.841880798" lon="-21.517366409">
<ele>17.588867</ele>
<time>2012-07-27T21:02:33Z</time>
<speed>4.580000</speed>
<extensions>
<speed>4.6</speed>
<temp>0.00</temp>
<bpm>0</bpm>
<rpm>0.00</rpm>
</extensions>
</trkpt>
<trkpt lat="63.841850281" lon="-21.517822266">
<ele>18.313965</ele>
<time>2012-07-27T21:02:38Z</time>
<speed>4.370000</speed>
<extensions>
<speed>4.4</speed>
<temp>0.00</temp>
<bpm>0</bpm>
<rpm>0.00</rpm>
</extensions>
</trkpt>
<trkpt lat="63.841812134" lon="-21.518260956">
<ele>18.437500</ele>
<time>2012-07-27T21:02:43Z</time>
<speed>4.550000</speed>
<extensions>
<speed>4.5</speed>
<temp>0.00</temp>
<bpm>0</bpm>
<rpm>0.00</rpm>
</extensions>
</trkpt>
<trkpt lat="63.841781616" lon="-21.518693924">
<ele>18.875000</ele>
<time>2012-07-27T21:02:48Z</time>
<speed>4.240000</speed>
<extensions>
<speed>4.2</speed>
<temp>0.00</temp>
<bpm>0</bpm>
<rpm>0.00</rpm>
</extensions>
</trkpt>
<trkpt lat="63.841758728" lon="-21.519126892">
<ele>19.104980</ele>
<time>2012-07-27T21:02:53Z</time>
<speed>4.260000</speed>
<extensions>
<speed>4.3</speed>
<temp>0.00</temp>
<bpm>0</bpm>
<rpm>0.00</rpm>
</extensions>
</trkpt>
<trkpt lat="63.841728210" lon="-21.519556046">
<ele>19.438477</ele>
<time>2012-07-27T21:02:58Z</time>
<speed>4.110000</speed>
<extensions>
<speed>4.1</speed>
<temp>0.00</temp>
<bpm>0</bpm>
<rpm>0.00</rpm>
</extensions>
</trkpt>
<trkpt lat="63.841705322" lon="-21.519973755">
<ele>19.691895</ele>
<time>2012-07-27T21:03:03Z</time>
<speed>4.230000</speed>
<extensions>
<speed>4.2</speed>
<temp>0.00</temp>
<bpm>0</bpm>
<rpm>0.00</rpm>
</extensions>
</trkpt>
<trkpt lat="63.841674805" lon="-21.520381927">
<ele>19.474121</ele>
<time>2012-07-27T21:03:08Z</time>
<speed>4.090000</speed>
<extensions>
<speed>4.1</speed>
<temp>0.00</temp>
<bpm>0</bpm>
<rpm>0.00</rpm>
</extensions>
</trkpt>
<trkpt lat="63.841648102" lon="-21.520788193">
<ele>20.304199</ele>
<time>2012-07-27T21:03:13Z</time>
<speed>4.070000</speed>
<extensions>
<speed>4.1</speed>
<temp>0.00</temp>
<bpm>0</bpm>
<rpm>0.00</rpm>
</extensions>
</trkpt>
<trkpt lat="63.841621399" lon="-21.521198273">
<ele>20.469727</ele>
<time>2012-07-27T21:03:18Z</time>
<speed>3.940000</speed>
<extensions>
<speed>3.9</speed>
<temp>0.00</temp>
<bpm>0</bpm>
<rpm>0.00</rpm>
</extensions>
</trkpt>
<trkpt lat="63.841602325" lon="-21.521583557">
<ele>20.424316</ele>
<time>2012-07-27T21:03:23Z</time>
<speed>3.620000</speed>
<extensions>
<speed>3.6</speed>
<temp>0.00</temp>
<bpm>0</bpm>
<rpm>0.00</rpm>
</extensions>
</trkpt>
<trkpt lat="63.841579437" lon="-21.521984100">
<ele>20.362793</ele>
<time>2012-07-27T21:03:28Z</time>
<speed>3.960000</speed>
<extensions>
<speed>4.0</speed>
<temp>0.00</temp>
<bpm>0</bpm>
<rpm>0.00</rpm>
</extensions>
</trkpt>
<trkpt lat="63.841564178" lon="-21.522354126">
<ele>20.097656</ele>
<time>2012-07-27T21:03:33Z</time>
<speed>3.410000</speed>
<extensions>
<speed>3.4</speed>
<temp>0.00</temp>
<bpm>0</bpm>
<rpm>0.00</rpm>
</extensions>
</trkpt>
<trkpt lat="63.841541290" lon="-21.522712708">
<ele>20.338867</ele>
<time>2012-07-27T21:03:38Z</time>
<speed>3.430000</speed>
<extensions>
<speed>3.4</speed>
<temp>0.00</temp>
<bpm>0</bpm>
<rpm>0.00</rpm>
</extensions>
</trkpt>
<trkpt lat="63.841518402" lon="-21.523059845">
<ele>20.633789</ele>
<time>2012-07-27T21:03:43Z</time>
<speed>3.550000</speed>
<extensions>
<speed>3.5</speed>
<temp>0.00</temp>
<bpm>0</bpm>
<rpm>0.00</rpm>
</extensions>
</trkpt>
<trkpt lat="63.841495514" lon="-21.523410797">
<ele>20.661133</ele>
<time>2012-07-27T21:03:48Z</time>
<speed>3.510000</speed>
<extensions>
<speed>3.5</speed>
<temp>0.00</temp>
<bpm>0</bpm>
<rpm>0.00</rpm>
</extensions>
</trkpt>
<trkpt lat="63.841480255" lon="-21.523754120">
<ele>21.525879</ele>
<time>2012-07-27T21:03:53Z</time>
<speed>3.520000</speed>
<extensions>
<speed>3.5</speed>
<temp>0.00</temp>
<bpm>0</bpm>
<rpm>0.00</rpm>
</extensions>
</trkpt>
<trkpt lat="63.841457367" lon="-21.524105072">
<ele>21.292480</ele>
<time>2012-07-27T21:03:58Z</time>
<speed>3.590000</speed>
<extensions>
<speed>3.6</speed>
<temp>0.00</temp>
<bpm>0</bpm>
<rpm>0.00</rpm>
</extensions>
</trkpt>
<trkpt lat="63.841445923" lon="-21.524442673">
<ele>21.531738</ele>
<time>2012-07-27T21:04:03Z</time>
<speed>3.480000</speed>
<extensions>
<speed>3.5</speed>
<temp>0.00</temp>
<bpm>0</bpm>
<rpm>0.00</rpm>
</extensions>
</trkpt>
<trkpt lat="63.841423035" lon="-21.524805069">
<ele>21.193848</ele>
<time>2012-07-27T21:04:08Z</time>
<speed>3.560000</speed>
<extensions>
<speed>3.6</speed>
<temp>0.00</temp>
<bpm>0</bpm>
<rpm>0.00</rpm>
</extensions>
</trkpt>
<trkpt lat="63.841403961" lon="-21.525159836">
<ele>20.729980</ele>
<time>2012-07-27T21:04:13Z</time>
<speed>3.570000</speed>
<extensions>
<speed>3.6</speed>
<temp>0.00</temp>
<bpm>0</bpm>
<rpm>0.00</rpm>
</extensions>
</trkpt>
<trkpt lat="63.841392517" lon="-21.525510788">
<ele>21.795410</ele>
<time>2012-07-27T21:04:18Z</time>
<speed>3.580000</speed>
<extensions>
<speed>3.6</speed>
<temp>0.00</temp>
<bpm>0</bpm>
<rpm>0.00</rpm>
</extensions>
</trkpt>
<trkpt lat="63.841373444" lon="-21.525871277">
<ele>21.728027</ele>
<time>2012-07-27T21:04:23Z</time>
<speed>3.700000</speed>
<extensions>
<speed>3.7</speed>
<temp>0.00</temp>
<bpm>0</bpm>
<rpm>0.00</rpm>
</extensions>
</trkpt>
<trkpt lat="63.841365814" lon="-21.526247025">
<ele>21.387695</ele>
<time>2012-07-27T21:04:28Z</time>
<speed>3.510000</speed>
<extensions>
<speed>3.5</speed>
<temp>0.00</temp>
<bpm>0</bpm>
<rpm>0.00</rpm>
</extensions>
</trkpt>
<trkpt lat="63.841346741" lon="-21.526594162">
<ele>21.877930</ele>
<time>2012-07-27T21:04:33Z</time>
<speed>3.160000</speed>
<extensions>
<speed>3.2</speed>
<temp>0.00</temp>
<bpm>0</bpm>
<rpm>0.00</rpm>
</extensions>
</trkpt>
<trkpt lat="63.841331482" lon="-21.526922226">
<ele>21.448242</ele>
<time>2012-07-27T21:04:38Z</time>
<speed>3.410000</speed>
<extensions>
<speed>3.4</speed>
<temp>0.00</temp>
<bpm>0</bpm>
<rpm>0.00</rpm>
</extensions>
</trkpt>
<trkpt lat="63.841323853" lon="-21.527275085">
<ele>21.708984</ele>
<time>2012-07-27T21:04:43Z</time>
<speed>3.350000</speed>
<extensions>
<speed>3.4</speed>
<temp>0.00</temp>
<bpm>0</bpm>
<rpm>0.00</rpm>
</extensions>
</trkpt>
<trkpt lat="63.841316223" lon="-21.527605057">
<ele>21.600098</ele>
<time>2012-07-27T21:04:48Z</time>
<speed>3.380000</speed>
<extensions>
<speed>3.4</speed>
<temp>0.00</temp>
<bpm>0</bpm>
<rpm>0.00</rpm>
</extensions>
</trkpt>
<trkpt lat="63.841308594" lon="-21.527923584">
<ele>21.993164</ele>
<time>2012-07-27T21:04:53Z</time>
<speed>3.120000</speed>
<extensions>
<speed>3.1</speed>
<temp>0.00</temp>
<bpm>0</bpm>
<rpm>0.00</rpm>
</extensions>
</trkpt>
<trkpt lat="63.841289520" lon="-21.528270721">
<ele>21.791504</ele>
<time>2012-07-27T21:04:58Z</time>
<speed>3.600000</speed>
<extensions>
<speed>3.6</speed>
<temp>0.00</temp>
<bpm>0</bpm>
<rpm>0.00</rpm>
</extensions>
</trkpt>
<trkpt lat="63.841278076" lon="-21.528579712">
<ele>21.448242</ele>
<time>2012-07-27T21:05:03Z</time>
<speed>3.060000</speed>
<extensions>
<speed>3.1</speed>
<temp>0.00</temp>
<bpm>0</bpm>
<rpm>0.00</rpm>
</extensions>
</trkpt>
<trkpt lat="63.841266632" lon="-21.528905869">
<ele>21.365723</ele>
<time>2012-07-27T21:05:08Z</time>
<speed>3.260000</speed>
<extensions>
<speed>3.3</speed>
<temp>0.00</temp>
<bpm>0</bpm>
<rpm>0.00</rpm>
</extensions>
</trkpt>
<trkpt lat="63.841251373" lon="-21.529230118">
<ele>21.383789</ele>
<time>2012-07-27T21:05:13Z</time>
<speed>3.250000</speed>
<extensions>
<speed>3.2</speed>
<temp>0.00</temp>
<bpm>0</bpm>
<rpm>0.00</rpm>
</extensions>
</trkpt>
<trkpt lat="63.841239929" lon="-21.529571533">
<ele>21.104492</ele>
<time>2012-07-27T21:05:18Z</time>
<speed>3.400000</speed>
<extensions>
<speed>3.4</speed>
<temp>0.00</temp>
<bpm>0</bpm>
<rpm>0.00</rpm>
</extensions>
</trkpt>
<trkpt lat="63.841228485" lon="-21.529895782">
<ele>21.099609</ele>
<time>2012-07-27T21:05:23Z</time>
<speed>3.260000</speed>
<extensions>
<speed>3.3</speed>
<temp>0.00</temp>
<bpm>0</bpm>
<rpm>0.00</rpm>
</extensions>
</trkpt>
<trkpt lat="63.841217041" lon="-21.530227661">
<ele>20.943848</ele>
<time>2012-07-27T21:05:28Z</time>
<speed>3.130000</speed>
<extensions>
<speed>3.1</speed>
<temp>0.00</temp>
<bpm>0</bpm>
<rpm>0.00</rpm>
</extensions>
</trkpt>
<trkpt lat="63.841209412" lon="-21.530532837">
<ele>20.858398</ele>
<time>2012-07-27T21:05:33Z</time>
<speed>3.290000</speed>
<extensions>
<speed>3.3</speed>
<temp>0.00</temp>
<bpm>0</bpm>
<rpm>0.00</rpm>
</extensions>
</trkpt>
<trkpt lat="63.841201782" lon="-21.530809402">
<ele>21.143555</ele>
<time>2012-07-27T21:05:38Z</time>
<speed>2.980000</speed>
<extensions>
<speed>3.0</speed>
<temp>0.00</temp>
<bpm>0</bpm>
<rpm>0.00</rpm>
</extensions>
</trkpt>
<trkpt lat="63.841197968" lon="-21.531085968">
<ele>21.032227</ele>
<time>2012-07-27T21:05:43Z</time>
<speed>2.550000</speed>
<extensions>
<speed>2.6</speed>
<temp>0.00</temp>
<bpm>0</bpm>
<rpm>0.00</rpm>
</extensions>
</trkpt>
<trkpt lat="63.841194153" lon="-21.531370163">
<ele>20.697266</ele>
<time>2012-07-27T21:05:48Z</time>
<speed>2.760000</speed>
<extensions>
<speed>2.8</speed>
<temp>0.00</temp>
<bpm>0</bpm>
<rpm>0.00</rpm>
</extensions>
</trkpt>
<trkpt lat="63.841186523" lon="-21.531652451">
<ele>20.875488</ele>
<time>2012-07-27T21:05:53Z</time>
<speed>2.990000</speed>
<extensions>
<speed>3.0</speed>
<temp>0.00</temp>
<bpm>0</bpm>
<rpm>0.00</rpm>
</extensions>
</trkpt>
<trkpt lat="63.841171265" lon="-21.531967163">
<ele>21.257813</ele>
<time>2012-07-27T21:05:58Z</time>
<speed>2.640000</speed>
<extensions>
<speed>2.6</speed>
<temp>0.00</temp>
<bpm>0</bpm>
<rpm>0.00</rpm>
</extensions>
</trkpt>
<trkpt lat="63.841175079" lon="-21.532264709">
<ele>21.446777</ele>
<time>2012-07-27T21:06:03Z</time>
<speed>3.210000</speed>
<extensions>
<speed>3.2</speed>
<temp>0.00</temp>
<bpm>0</bpm>
<rpm>0.00</rpm>
</extensions>
</trkpt>
<trkpt lat="63.841171265" lon="-21.532569885">
<ele>21.596191</ele>
<time>2012-07-27T21:06:08Z</time>
<speed>2.860000</speed>
<extensions>
<speed>2.9</speed>
<temp>0.00</temp>
<bpm>0</bpm>
<rpm>0.00</rpm>
</extensions>
</trkpt>
<trkpt lat="63.841167450" lon="-21.532888412">
<ele>21.733398</ele>
<time>2012-07-27T21:06:13Z</time>
<speed>3.180000</speed>
<extensions>
<speed>3.2</speed>
<temp>0.00</temp>
<bpm>0</bpm>
<rpm>0.00</rpm>
</extensions>
</trkpt>
<trkpt lat="63.841156006" lon="-21.533193588">
<ele>21.907227</ele>
<time>2012-07-27T21:06:18Z</time>
<speed>3.100000</speed>
<extensions>
<speed>3.1</speed>
<temp>0.00</temp>
<bpm>0</bpm>
<rpm>0.00</rpm>
</extensions>
</trkpt>
<trkpt lat="63.841152191" lon="-21.533515930">
<ele>21.757324</ele>
<time>2012-07-27T21:06:23Z</time>
<speed>3.070000</speed>
<extensions>
<speed>3.1</speed>
<temp>0.00</temp>
<bpm>0</bpm>
<rpm>0.00</rpm>
</extensions>
</trkpt>
<trkpt lat="63.841152191" lon="-21.533786774">
<ele>21.007324</ele>
<time>2012-07-27T21:06:28Z</time>
<speed>2.220000</speed>
<extensions>
<speed>2.2</speed>
<temp>0.00</temp>
<bpm>0</bpm>
<rpm>0.00</rpm>
</extensions>
</trkpt>
<trkpt lat="63.841140747" lon="-21.534091949">
<ele>20.865234</ele>
<time>2012-07-27T21:06:33Z</time>
<speed>3.270000</speed>
<extensions>
<speed>3.3</speed>
<temp>0.00</temp>
<bpm>0</bpm>
<rpm>0.00</rpm>
</extensions>
</trkpt>
<trkpt lat="63.841133118" lon="-21.534393311">
<ele>21.807129</ele>
<time>2012-07-27T21:06:38Z</time>
<speed>2.730000</speed>
<extensions>
<speed>2.7</speed>
<temp>0.00</temp>
<bpm>0</bpm>
<rpm>0.00</rpm>
</extensions>
</trkpt>
<trkpt lat="63.841133118" lon="-21.534677505">
<ele>21.112793</ele>
<time>2012-07-27T21:06:43Z</time>
<speed>2.970000</speed>
<extensions>
<speed>3.0</speed>
<temp>0.00</temp>
<bpm>0</bpm>
<rpm>0.00</rpm>
</extensions>
</trkpt>
<trkpt lat="63.841125488" lon="-21.534975052">
<ele>20.817383</ele>
<time>2012-07-27T21:06:48Z</time>
<speed>3.160000</speed>
<extensions>
<speed>3.2</speed>
<temp>0.00</temp>
<bpm>0</bpm>
<rpm>0.00</rpm>
</extensions>
</trkpt>
<trkpt lat="63.841117859" lon="-21.535308838">
<ele>20.168945</ele>
<time>2012-07-27T21:06:53Z</time>
<speed>3.230000</speed>
<extensions>
<speed>3.2</speed>
<temp>0.00</temp>
<bpm>0</bpm>
<rpm>0.00</rpm>
</extensions>
</trkpt>
<trkpt lat="63.841114044" lon="-21.535623550">
<ele>19.687012</ele>
<time>2012-07-27T21:06:58Z</time>
<speed>3.180000</speed>
<extensions>
<speed>3.2</speed>
<temp>0.00</temp>
<bpm>0</bpm>
<rpm>0.00</rpm>
</extensions>
</trkpt>
<trkpt lat="63.841117859" lon="-21.535934448">
<ele>19.599609</ele>
<time>2012-07-27T21:07:03Z</time>
<speed>2.900000</speed>
<extensions>
<speed>2.9</speed>
<temp>0.00</temp>
<bpm>0</bpm>
<rpm>0.00</rpm>
</extensions>
</trkpt>
<trkpt lat="63.841110229" lon="-21.536231995">
<ele>19.348633</ele>
<time>2012-07-27T21:07:08Z</time>
<speed>3.230000</speed>
<extensions>
<speed>3.2</speed>
<temp>0.00</temp>
<bpm>0</bpm>
<rpm>0.00</rpm>
</extensions>
</trkpt>
<trkpt lat="63.841106415" lon="-21.536540985">
<ele>18.996094</ele>
<time>2012-07-27T21:07:13Z</time>
<speed>3.090000</speed>
<extensions>
<speed>3.1</speed>
<temp>0.00</temp>
<bpm>0</bpm>
<rpm>0.00</rpm>
</extensions>
</trkpt>
<trkpt lat="63.841098785" lon="-21.536848068">
<ele>18.343262</ele>
<time>2012-07-27T21:07:18Z</time>
<speed>2.970000</speed>
<extensions>
<speed>3.0</speed>
<temp>0.00</temp>
<bpm>0</bpm>
<rpm>0.00</rpm>
</extensions>
</trkpt>
<trkpt lat="63.841098785" lon="-21.537137985">
<ele>18.230469</ele>
<time>2012-07-27T21:07:23Z</time>
<speed>2.960000</speed>
<extensions>
<speed>3.0</speed>
<temp>0.00</temp>
<bpm>0</bpm>
<rpm>0.00</rpm>
</extensions>
</trkpt>
<trkpt lat="63.841110229" lon="-21.537462234">
<ele>17.780273</ele>
<time>2012-07-27T21:07:28Z</time>
<speed>2.980000</speed>
<extensions>
<speed>3.0</speed>
<temp>0.00</temp>
<bpm>0</bpm>
<rpm>0.00</rpm>
</extensions>
</trkpt>
<trkpt lat="63.841106415" lon="-21.537757874">
<ele>17.446777</ele>
<time>2012-07-27T21:07:33Z</time>
<speed>3.100000</speed>
<extensions>
<speed>3.1</speed>
<temp>0.00</temp>
<bpm>0</bpm>
<rpm>0.00</rpm>
</extensions>
</trkpt>
<trkpt lat="63.841102600" lon="-21.538070679">
<ele>17.145508</ele>
<time>2012-07-27T21:07:38Z</time>
<speed>2.850000</speed>
<extensions>
<speed>2.9</speed>
<temp>0.00</temp>
<bpm>0</bpm>
<rpm>0.00</rpm>
</extensions>
</trkpt>
<trkpt lat="63.841110229" lon="-21.538400650">
<ele>16.891602</ele>
<time>2012-07-27T21:07:43Z</time>
<speed>3.350000</speed>
<extensions>
<speed>3.4</speed>
<temp>0.00</temp>
<bpm>0</bpm>
<rpm>0.00</rpm>
</extensions>
</trkpt>
<trkpt lat="63.841117859" lon="-21.538753510">
<ele>16.798340</ele>
<time>2012-07-27T21:07:48Z</time>
<speed>3.340000</speed>
<extensions>
<speed>3.3</speed>
<temp>0.00</temp>
<bpm>0</bpm>
<rpm>0.00</rpm>
</extensions>
</trkpt>
<trkpt lat="63.841121674" lon="-21.539068222">
<ele>16.495605</ele>
<time>2012-07-27T21:07:53Z</time>
<speed>3.150000</speed>
<extensions>
<speed>3.2</speed>
<temp>0.00</temp>
<bpm>0</bpm>
<rpm>0.00</rpm>
</extensions>
</trkpt>
<trkpt lat="63.841121674" lon="-21.539409637">
<ele>16.273438</ele>
<time>2012-07-27T21:07:58Z</time>
<speed>3.440000</speed>
<extensions>
<speed>3.4</speed>
<temp>0.00</temp>
<bpm>0</bpm>
<rpm>0.00</rpm>
</extensions>
</trkpt>
<trkpt lat="63.841125488" lon="-21.539770126">
<ele>16.284668</ele>
<time>2012-07-27T21:08:03Z</time>
<speed>3.670000</speed>
<extensions>
<speed>3.7</speed>
<temp>0.00</temp>
<bpm>0</bpm>
<rpm>0.00</rpm>
</extensions>
</trkpt>
<trkpt lat="63.841125488" lon="-21.540134430">
<ele>15.740967</ele>
<time>2012-07-27T21:08:08Z</time>
<speed>3.770000</speed>
<extensions>
<speed>3.8</speed>
<temp>0.00</temp>
<bpm>0</bpm>
<rpm>0.00</rpm>
</extensions>
</trkpt>
<trkpt lat="63.841129303" lon="-21.540523529">
<ele>15.454102</ele>
<time>2012-07-27T21:08:13Z</time>
<speed>3.990000</speed>
<extensions>
<speed>4.0</speed>
<temp>0.00</temp>
<bpm>0</bpm>
<rpm>0.00</rpm>
</extensions>
</trkpt>
<trkpt lat="63.841136932" lon="-21.540931702">
<ele>16.478027</ele>
<time>2012-07-27T21:08:18Z</time>
<speed>3.670000</speed>
<extensions>
<speed>3.7</speed>
<temp>0.00</temp>
<bpm>0</bpm>
<rpm>0.00</rpm>
</extensions>
</trkpt>
<trkpt lat="63.841140747" lon="-21.541261673">
<ele>16.295410</ele>
<time>2012-07-27T21:08:23Z</time>
<speed>3.450000</speed>
<extensions>
<speed>3.5</speed>
<temp>0.00</temp>
<bpm>0</bpm>
<rpm>0.00</rpm>
</extensions>
</trkpt>
<trkpt lat="63.841156006" lon="-21.541658401">
<ele>15.754639</ele>
<time>2012-07-27T21:08:28Z</time>
<speed>3.800000</speed>
<extensions>
<speed>3.8</speed>
<temp>0.00</temp>
<bpm>0</bpm>
<rpm>0.00</rpm>
</extensions>
</trkpt>
<trkpt lat="63.841156006" lon="-21.542037964">
<ele>15.675293</ele>
<time>2012-07-27T21:08:33Z</time>
<speed>3.870000</speed>
<extensions>
<speed>3.9</speed>
<temp>0.00</temp>
<bpm>0</bpm>
<rpm>0.00</rpm>
</extensions>
</trkpt>
<trkpt lat="63.841156006" lon="-21.542440414">
<ele>15.370605</ele>
<time>2012-07-27T21:08:38Z</time>
<speed>3.730000</speed>
<extensions>
<speed>3.7</speed>
<temp>0.00</temp>
<bpm>0</bpm>
<rpm>0.00</rpm>
</extensions>
</trkpt>
<trkpt lat="63.841159821" lon="-21.542795181">
<ele>14.194336</ele>
<time>2012-07-27T21:08:43Z</time>
<speed>3.620000</speed>
<extensions>
<speed>3.6</speed>
<temp>0.00</temp>
<bpm>0</bpm>
<rpm>0.00</rpm>
</extensions>
</trkpt>
<trkpt lat="63.841167450" lon="-21.543188095">
<ele>14.143555</ele>
<time>2012-07-27T21:08:48Z</time>
<speed>3.810000</speed>
<extensions>
<speed>3.8</speed>
<temp>0.00</temp>
<bpm>0</bpm>
<rpm>0.00</rpm>
</extensions>
</trkpt>
<trkpt lat="63.841175079" lon="-21.543584824">
<ele>14.063965</ele>
<time>2012-07-27T21:08:53Z</time>
<speed>4.080000</speed>
<extensions>
<speed>4.1</speed>
<temp>0.00</temp>
<bpm>0</bpm>
<rpm>0.00</rpm>
</extensions>
</trkpt>
<trkpt lat="63.841190338" lon="-21.543935776">
<ele>13.764404</ele>
<time>2012-07-27T21:08:58Z</time>
<speed>2.870000</speed>
<extensions>
<speed>2.9</speed>
<temp>0.00</temp>
<bpm>0</bpm>
<rpm>0.00</rpm>
</extensions>
</trkpt>
<trkpt lat="63.841190338" lon="-21.544263840">
<ele>13.577148</ele>
<time>2012-07-27T21:09:03Z</time>
<speed>3.580000</speed>
<extensions>
<speed>3.6</speed>
<temp>0.00</temp>
<bpm>0</bpm>
<rpm>0.00</rpm>
</extensions>
</trkpt>
<trkpt lat="63.841197968" lon="-21.544643402">
<ele>13.336670</ele>
<time>2012-07-27T21:09:08Z</time>
<speed>3.770000</speed>
<extensions>
<speed>3.8</speed>
<temp>0.00</temp>
<bpm>0</bpm>
<rpm>0.00</rpm>
</extensions>
</trkpt>
<trkpt lat="63.841201782" lon="-21.544958115">
<ele>13.185547</ele>
<time>2012-07-27T21:09:13Z</time>
<speed>3.360000</speed>
<extensions>
<speed>3.4</speed>
<temp>0.00</temp>
<bpm>0</bpm>
<rpm>0.00</rpm>
</extensions>
</trkpt>
<trkpt lat="63.841220856" lon="-21.545358658">
<ele>13.532227</ele>
<time>2012-07-27T21:09:18Z</time>
<speed>4.050000</speed>
<extensions>
<speed>4.0</speed>
<temp>0.00</temp>
<bpm>0</bpm>
<rpm>0.00</rpm>
</extensions>
</trkpt>
<trkpt lat="63.841228485" lon="-21.545722961">
<ele>13.891602</ele>
<time>2012-07-27T21:09:23Z</time>
<speed>3.700000</speed>
<extensions>
<speed>3.7</speed>
<temp>0.00</temp>
<bpm>0</bpm>
<rpm>0.00</rpm>
</extensions>
</trkpt>
<trkpt lat="63.841239929" lon="-21.546140671">
<ele>13.870605</ele>
<time>2012-07-27T21:09:28Z</time>
<speed>4.250000</speed>
<extensions>
<speed>4.3</speed>
<temp>0.00</temp>
<bpm>0</bpm>
<rpm>0.00</rpm>
</extensions>
</trkpt>
<trkpt lat="63.841247559" lon="-21.546514511">
<ele>13.035889</ele>
<time>2012-07-27T21:09:33Z</time>
<speed>3.040000</speed>
<extensions>
<speed>3.0</speed>
<temp>0.00</temp>
<bpm>0</bpm>
<rpm>0.00</rpm>
</extensions>
</trkpt>
<trkpt lat="63.841255188" lon="-21.546815872">
<ele>13.245361</ele>
<time>2012-07-27T21:09:38Z</time>
<speed>3.400000</speed>
<extensions>
<speed>3.4</speed>
<temp>0.00</temp>
<bpm>0</bpm>
<rpm>0.00</rpm>
</extensions>
</trkpt>
<trkpt lat="63.841262817" lon="-21.547204971">
<ele>13.253418</ele>
<time>2012-07-27T21:09:43Z</time>
<speed>3.860000</speed>
<extensions>
<speed>3.9</speed>
<temp>0.00</temp>
<bpm>0</bpm>
<rpm>0.00</rpm>
</extensions>
</trkpt>
<trkpt lat="63.841278076" lon="-21.547603607">
<ele>13.419189</ele>
<time>2012-07-27T21:09:48Z</time>
<speed>4.100000</speed>
<extensions>
<speed>4.1</speed>
<temp>0.00</temp>
<bpm>0</bpm>
<rpm>0.00</rpm>
</extensions>
</trkpt>
<trkpt lat="63.841285706" lon="-21.547950745">
<ele>14.697998</ele>
<time>2012-07-27T21:09:53Z</time>
<speed>3.260000</speed>
<extensions>
<speed>3.3</speed>
<temp>0.00</temp>
<bpm>0</bpm>
<rpm>0.00</rpm>
</extensions>
</trkpt>
<trkpt lat="63.841304779" lon="-21.548330307">
<ele>15.052734</ele>
<time>2012-07-27T21:09:58Z</time>
<speed>3.850000</speed>
<extensions>
<speed>3.8</speed>
<temp>0.00</temp>
<bpm>0</bpm>
<rpm>0.00</rpm>
</extensions>
</trkpt>
<trkpt lat="63.841320038" lon="-21.548679352">
<ele>15.542236</ele>
<time>2012-07-27T21:10:03Z</time>
<speed>3.030000</speed>
<extensions>
<speed>3.0</speed>
<temp>0.00</temp>
<bpm>0</bpm>
<rpm>0.00</rpm>
</extensions>
</trkpt>
<trkpt lat="63.841331482" lon="-21.549028397">
<ele>17.114746</ele>
<time>2012-07-27T21:10:08Z</time>
<speed>3.850000</speed>
<extensions>
<speed>3.8</speed>
<temp>0.00</temp>
<bpm>0</bpm>
<rpm>0.00</rpm>
</extensions>
</trkpt>
<trkpt lat="63.841350555" lon="-21.549432755">
<ele>19.115234</ele>
<time>2012-07-27T21:10:13Z</time>
<speed>3.800000</speed>
<extensions>
<speed>3.8</speed>
<temp>0.00</temp>
<bpm>0</bpm>
<rpm>0.00</rpm>
</extensions>
</trkpt>
<trkpt lat="63.841362000" lon="-21.549774170">
<ele>19.918945</ele>
<time>2012-07-27T21:10:18Z</time>
<speed>3.660000</speed>
<extensions>
<speed>3.7</speed>
<temp>0.00</temp>
<bpm>0</bpm>
<rpm>0.00</rpm>
</extensions>
</trkpt>
<trkpt lat="63.841365814" lon="-21.550151825">
<ele>19.333008</ele>
<time>2012-07-27T21:10:23Z</time>
<speed>3.890000</speed>
<extensions>
<speed>3.9</speed>
<temp>0.00</temp>
<bpm>0</bpm>
<rpm>0.00</rpm>
</extensions>
</trkpt>
<trkpt lat="63.841377258" lon="-21.550483704">
<ele>20.065430</ele>
<time>2012-07-27T21:10:28Z</time>
<speed>3.000000</speed>
<extensions>
<speed>3.0</speed>
<temp>0.00</temp>
<bpm>0</bpm>
<rpm>0.00</rpm>
</extensions>
</trkpt>
<trkpt lat="63.841388702" lon="-21.550849915">
<ele>20.640137</ele>
<time>2012-07-27T21:10:33Z</time>
<speed>3.840000</speed>
<extensions>
<speed>3.8</speed>
<temp>0.00</temp>
<bpm>0</bpm>
<rpm>0.00</rpm>
</extensions>
</trkpt>
<trkpt lat="63.841388702" lon="-21.551225662">
<ele>18.956055</ele>
<time>2012-07-27T21:10:38Z</time>
<speed>3.900000</speed>
<extensions>
<speed>3.9</speed>
<temp>0.00</temp>
<bpm>0</bpm>
<rpm>0.00</rpm>
</extensions>
</trkpt>
<trkpt lat="63.841388702" lon="-21.551603317">
<ele>17.242188</ele>
<time>2012-07-27T21:10:43Z</time>
<speed>3.330000</speed>
<extensions>
<speed>3.3</speed>
<temp>0.00</temp>
<bpm>0</bpm>
<rpm>0.00</rpm>
</extensions>
</trkpt>
<trkpt lat="63.841403961" lon="-21.551891327">
<ele>17.954102</ele>
<time>2012-07-27T21:10:48Z</time>
<speed>2.250000</speed>
<extensions>
<speed>2.3</speed>
<temp>0.00</temp>
<bpm>0</bpm>
<rpm>0.00</rpm>
</extensions>
</trkpt>
<trkpt lat="63.841407776" lon="-21.552173615">
<ele>17.237305</ele>
<time>2012-07-27T21:10:53Z</time>
<speed>3.150000</speed>
<extensions>
<speed>3.2</speed>
<temp>0.00</temp>
<bpm>0</bpm>
<rpm>0.00</rpm>
</extensions>
</trkpt>
<trkpt lat="63.841411591" lon="-21.552474976">
<ele>16.943848</ele>
<time>2012-07-27T21:10:58Z</time>
<speed>2.640000</speed>
<extensions>
<speed>2.6</speed>
<temp>0.00</temp>
<bpm>0</bpm>
<rpm>0.00</rpm>
</extensions>
</trkpt>
<trkpt lat="63.841411591" lon="-21.552730560">
<ele>15.397705</ele>
<time>2012-07-27T21:11:03Z</time>
<speed>2.270000</speed>
<extensions>
<speed>2.3</speed>
<temp>0.00</temp>
<bpm>0</bpm>
<rpm>0.00</rpm>
</extensions>
</trkpt>
<trkpt lat="63.841407776" lon="-21.552913666">
<ele>12.513428</ele>
<time>2012-07-27T21:11:08Z</time>
<speed>1.560000</speed>
<extensions>
<speed>1.6</speed>
<temp>0.00</temp>
<bpm>0</bpm>
<rpm>0.00</rpm>
</extensions>
</trkpt>
<trkpt lat="63.841407776" lon="-21.553108215">
<ele>10.721191</ele>
<time>2012-07-27T21:11:13Z</time>
<speed>2.600000</speed>
<extensions>
<speed>2.6</speed>
<temp>0.00</temp>
<bpm>0</bpm>
<rpm>0.00</rpm>
</extensions>
</trkpt>
<trkpt lat="63.841400146" lon="-21.553409576">
<ele>10.046631</ele>
<time>2012-07-27T21:11:18Z</time>
<speed>3.110000</speed>
<extensions>
<speed>3.1</speed>
<temp>0.00</temp>
<bpm>0</bpm>
<rpm>0.00</rpm>
</extensions>
</trkpt>
<trkpt lat="63.841403961" lon="-21.553775787">
<ele>10.505615</ele>
<time>2012-07-27T21:11:23Z</time>
<speed>3.820000</speed>
<extensions>
<speed>3.8</speed>
<temp>0.00</temp>
<bpm>0</bpm>
<rpm>0.00</rpm>
</extensions>
</trkpt>
<trkpt lat="63.841419220" lon="-21.554109573">
<ele>9.946289</ele>
<time>2012-07-27T21:11:28Z</time>
<speed>3.260000</speed>
<extensions>
<speed>3.3</speed>
<temp>0.00</temp>
<bpm>0</bpm>
<rpm>0.00</rpm>
</extensions>
</trkpt>
<trkpt lat="63.841426849" lon="-21.554506302">
<ele>10.838867</ele>
<time>2012-07-27T21:11:33Z</time>
<speed>4.170000</speed>
<extensions>
<speed>4.2</speed>
<temp>0.00</temp>
<bpm>0</bpm>
<rpm>0.00</rpm>
</extensions>
</trkpt>
<trkpt lat="63.841430664" lon="-21.554935455">
<ele>11.437988</ele>
<time>2012-07-27T21:11:38Z</time>
<speed>3.790000</speed>
<extensions>
<speed>3.8</speed>
<temp>0.00</temp>
<bpm>0</bpm>
<rpm>0.00</rpm>
</extensions>
</trkpt>
<trkpt lat="63.841426849" lon="-21.555330276">
<ele>12.304199</ele>
<time>2012-07-27T21:11:43Z</time>
<speed>4.070000</speed>
<extensions>
<speed>4.1</speed>
<temp>0.00</temp>
<bpm>0</bpm>
<rpm>0.00</rpm>
</extensions>
</trkpt>
<trkpt lat="63.841430664" lon="-21.555744171">
<ele>12.904053</ele>
<time>2012-07-27T21:11:48Z</time>
<speed>3.680000</speed>
<extensions>
<speed>3.7</speed>
<temp>0.00</temp>
<bpm>0</bpm>
<rpm>0.00</rpm>
</extensions>
</trkpt>
<trkpt lat="63.841430664" lon="-21.556066513">
<ele>11.551025</ele>
<time>2012-07-27T21:11:53Z</time>
<speed>3.260000</speed>
<extensions>
<speed>3.3</speed>
<temp>0.00</temp>
<bpm>0</bpm>
<rpm>0.00</rpm>
</extensions>
</trkpt>
<trkpt lat="63.841426849" lon="-21.556427002">
<ele>10.772217</ele>
<time>2012-07-27T21:11:58Z</time>
<speed>3.780000</speed>
<extensions>
<speed>3.8</speed>
<temp>0.00</temp>
<bpm>0</bpm>
<rpm>0.00</rpm>
</extensions>
</trkpt>
<trkpt lat="63.841426849" lon="-21.556776047">
<ele>10.950684</ele>
<time>2012-07-27T21:12:03Z</time>
<speed>2.910000</speed>
<extensions>
<speed>2.9</speed>
<temp>0.00</temp>
<bpm>0</bpm>
<rpm>0.00</rpm>
</extensions>
</trkpt>
<trkpt lat="63.841415405" lon="-21.557109833">
<ele>10.377197</ele>
<time>2012-07-27T21:12:08Z</time>
<speed>3.740000</speed>
<extensions>
<speed>3.7</speed>
<temp>0.00</temp>
<bpm>0</bpm>
<rpm>0.00</rpm>
</extensions>
</trkpt>
<trkpt lat="63.841403961" lon="-21.557420731">
<ele>5.161255</ele>
<time>2012-07-27T21:12:13Z</time>
<speed>3.310000</speed>
<extensions>
<speed>3.3</speed>
<temp>0.00</temp>
<bpm>0</bpm>
<rpm>0.00</rpm>
</extensions>
</trkpt>
<trkpt lat="63.841403961" lon="-21.557788849">
<ele>5.893677</ele>
<time>2012-07-27T21:12:18Z</time>
<speed>3.040000</speed>
<extensions>
<speed>3.0</speed>
<temp>0.00</temp>
<bpm>0</bpm>
<rpm>0.00</rpm>
</extensions>
</trkpt>
<trkpt lat="63.841407776" lon="-21.558113098">
<ele>5.804199</ele>
<time>2012-07-27T21:12:23Z</time>
<speed>3.490000</speed>
<extensions>
<speed>3.5</speed>
<temp>0.00</temp>
<bpm>0</bpm>
<rpm>0.00</rpm>
</extensions>
</trkpt>
<trkpt lat="63.841403961" lon="-21.558494568">
<ele>4.984131</ele>
<time>2012-07-27T21:12:28Z</time>
<speed>3.900000</speed>
<extensions>
<speed>3.9</speed>
<temp>0.00</temp>
<bpm>0</bpm>
<rpm>0.00</rpm>
</extensions>
</trkpt>
<trkpt lat="63.841400146" lon="-21.558834076">
<ele>3.864929</ele>
<time>2012-07-27T21:12:33Z</time>
<speed>2.940000</speed>
<extensions>
<speed>2.9</speed>
<temp>0.00</temp>
<bpm>0</bpm>
<rpm>0.00</rpm>
</extensions>
</trkpt>
<trkpt lat="63.841396332" lon="-21.559188843">
<ele>4.514404</ele>
<time>2012-07-27T21:12:38Z</time>
<speed>3.120000</speed>
<extensions>
<speed>3.1</speed>
<temp>0.00</temp>
<bpm>0</bpm>
<rpm>0.00</rpm>
</extensions>
</trkpt>
<trkpt lat="63.841388702" lon="-21.559516907">
<ele>4.282715</ele>
<time>2012-07-27T21:12:43Z</time>
<speed>3.240000</speed>
<extensions>
<speed>3.2</speed>
<temp>0.00</temp>
<bpm>0</bpm>
<rpm>0.00</rpm>
</extensions>
</trkpt>
<trkpt lat="63.841388702" lon="-21.559843063">
<ele>4.505005</ele>
<time>2012-07-27T21:12:48Z</time>
<speed>3.310000</speed>
<extensions>
<speed>3.3</speed>
<temp>0.00</temp>
<bpm>0</bpm>
<rpm>0.00</rpm>
</extensions>
</trkpt>
<trkpt lat="63.841381073" lon="-21.560169220">
<ele>3.902649</ele>
<time>2012-07-27T21:12:53Z</time>
<speed>3.150000</speed>
<extensions>
<speed>3.2</speed>
<temp>0.00</temp>
<bpm>0</bpm>
<rpm>0.00</rpm>
</extensions>
</trkpt>
<trkpt lat="63.841365814" lon="-21.560516357">
<ele>3.360901</ele>
<time>2012-07-27T21:12:58Z</time>
<speed>3.550000</speed>
<extensions>
<speed>3.5</speed>
<temp>0.00</temp>
<bpm>0</bpm>
<rpm>0.00</rpm>
</extensions>
</trkpt>
<trkpt lat="63.841369629" lon="-21.560815811">
<ele>8.095459</ele>
<time>2012-07-27T21:13:03Z</time>
<speed>2.480000</speed>
<extensions>
<speed>2.5</speed>
<temp>0.00</temp>
<bpm>0</bpm>
<rpm>0.00</rpm>
</extensions>
</trkpt>
<trkpt lat="63.841362000" lon="-21.561126709">
<ele>8.447754</ele>
<time>2012-07-27T21:13:08Z</time>
<speed>3.190000</speed>
<extensions>
<speed>3.2</speed>
<temp>0.00</temp>
<bpm>0</bpm>
<rpm>0.00</rpm>
</extensions>
</trkpt>
<trkpt lat="63.841354370" lon="-21.561479568">
<ele>8.768311</ele>
<time>2012-07-27T21:13:13Z</time>
<speed>3.830000</speed>
<extensions>
<speed>3.8</speed>
<temp>0.00</temp>
<bpm>0</bpm>
<rpm>0.00</rpm>
</extensions>
</trkpt>
<trkpt lat="63.841342926" lon="-21.561813354">
<ele>8.331055</ele>
<time>2012-07-27T21:13:18Z</time>
<speed>3.340000</speed>
<extensions>
<speed>3.3</speed>
<temp>0.00</temp>
<bpm>0</bpm>
<rpm>0.00</rpm>
</extensions>
</trkpt>
<trkpt lat="63.841331482" lon="-21.562166214">
<ele>6.618164</ele>
<time>2012-07-27T21:13:23Z</time>
<speed>3.240000</speed>
<extensions>
<speed>3.2</speed>
<temp>0.00</temp>
<bpm>0</bpm>
<rpm>0.00</rpm>
</extensions>
</trkpt>
<trkpt lat="63.841323853" lon="-21.562503815">
<ele>7.789185</ele>
<time>2012-07-27T21:13:28Z</time>
<speed>3.730000</speed>
<extensions>
<speed>3.7</speed>
<temp>0.00</temp>
<bpm>0</bpm>
<rpm>0.00</rpm>
</extensions>
</trkpt>
<trkpt lat="63.841316223" lon="-21.562843323">
<ele>6.792603</ele>
<time>2012-07-27T21:13:33Z</time>
<speed>3.480000</speed>
<extensions>
<speed>3.5</speed>
<temp>0.00</temp>
<bpm>0</bpm>
<rpm>0.00</rpm>
</extensions>
</trkpt>
<trkpt lat="63.841304779" lon="-21.563224792">
<ele>6.717896</ele>
<time>2012-07-27T21:13:38Z</time>
<speed>3.790000</speed>
<extensions>
<speed>3.8</speed>
<temp>0.00</temp>
<bpm>0</bpm>
<rpm>0.00</rpm>
</extensions>
</trkpt>
<trkpt lat="63.841289520" lon="-21.563539505">
<ele>5.622070</ele>
<time>2012-07-27T21:13:43Z</time>
<speed>2.930000</speed>
<extensions>
<speed>2.9</speed>
<temp>0.00</temp>
<bpm>0</bpm>
<rpm>0.00</rpm>
</extensions>
</trkpt>
<trkpt lat="63.841278076" lon="-21.563886642">
<ele>7.176758</ele>
<time>2012-07-27T21:13:48Z</time>
<speed>3.610000</speed>
<extensions>
<speed>3.6</speed>
<temp>0.00</temp>
<bpm>0</bpm>
<rpm>0.00</rpm>
</extensions>
</trkpt>
<trkpt lat="63.841259003" lon="-21.564285278">
<ele>6.859741</ele>
<time>2012-07-27T21:13:53Z</time>
<speed>4.570000</speed>
<extensions>
<speed>4.6</speed>
<temp>0.00</temp>
<bpm>0</bpm>
<rpm>0.00</rpm>
</extensions>
</trkpt>
<trkpt lat="63.841247559" lon="-21.564666748">
<ele>6.528320</ele>
<time>2012-07-27T21:13:58Z</time>
<speed>3.860000</speed>
<extensions>
<speed>3.9</speed>
<temp>0.00</temp>
<bpm>0</bpm>
<rpm>0.00</rpm>
</extensions>
</trkpt>
<trkpt lat="63.841232300" lon="-21.565021515">
<ele>6.094604</ele>
<time>2012-07-27T21:14:03Z</time>
<speed>2.930000</speed>
<extensions>
<speed>2.9</speed>
<temp>0.00</temp>
<bpm>0</bpm>
<rpm>0.00</rpm>
</extensions>
</trkpt>
<trkpt lat="63.841220856" lon="-21.565351486">
<ele>6.678711</ele>
<time>2012-07-27T21:14:08Z</time>
<speed>3.480000</speed>
<extensions>
<speed>3.5</speed>
<temp>0.00</temp>
<bpm>0</bpm>
<rpm>0.00</rpm>
</extensions>
</trkpt>
<trkpt lat="63.841197968" lon="-21.565689087">
<ele>5.700562</ele>
<time>2012-07-27T21:14:13Z</time>
<speed>3.160000</speed>
<extensions>
<speed>3.2</speed>
<temp>0.00</temp>
<bpm>0</bpm>
<rpm>0.00</rpm>
</extensions>
</trkpt>
<trkpt lat="63.841182709" lon="-21.566061020">
<ele>6.017212</ele>
<time>2012-07-27T21:14:18Z</time>
<speed>3.900000</speed>
<extensions>
<speed>3.9</speed>
<temp>0.00</temp>
<bpm>0</bpm>
<rpm>0.00</rpm>
</extensions>
</trkpt>
<trkpt lat="63.841167450" lon="-21.566398621">
<ele>4.838745</ele>
<time>2012-07-27T21:14:23Z</time>
<speed>3.060000</speed>
<extensions>
<speed>3.1</speed>
<temp>0.00</temp>
<bpm>0</bpm>
<rpm>0.00</rpm>
</extensions>
</trkpt>
<trkpt lat="63.841152191" lon="-21.566747665">
<ele>3.898010</ele>
<time>2012-07-27T21:14:28Z</time>
<speed>3.310000</speed>
<extensions>
<speed>3.3</speed>
<temp>0.00</temp>
<bpm>0</bpm>
<rpm>0.00</rpm>
</extensions>
</trkpt>
<trkpt lat="63.841140747" lon="-21.567066193">
<ele>3.962402</ele>
<time>2012-07-27T21:14:33Z</time>
<speed>2.510000</speed>
<extensions>
<speed>2.5</speed>
<temp>0.00</temp>
<bpm>0</bpm>
<rpm>0.00</rpm>
</extensions>
</trkpt>
<trkpt lat="63.841125488" lon="-21.567411423">
<ele>6.121338</ele>
<time>2012-07-27T21:14:38Z</time>
<speed>3.690000</speed>
<extensions>
<speed>3.7</speed>
<temp>0.00</temp>
<bpm>0</bpm>
<rpm>0.00</rpm>
</extensions>
</trkpt>
<trkpt lat="63.841106415" lon="-21.567775726">
<ele>6.602905</ele>
<time>2012-07-27T21:14:43Z</time>
<speed>3.200000</speed>
<extensions>
<speed>3.2</speed>
<temp>0.00</temp>
<bpm>0</bpm>
<rpm>0.00</rpm>
</extensions>
</trkpt>
<trkpt lat="63.841087341" lon="-21.568065643">
<ele>5.738403</ele>
<time>2012-07-27T21:14:48Z</time>
<speed>2.400000</speed>
<extensions>
<speed>2.4</speed>
<temp>0.00</temp>
<bpm>0</bpm>
<rpm>0.00</rpm>
</extensions>
</trkpt>
<trkpt lat="63.841068268" lon="-21.568321228">
<ele>4.498291</ele>
<time>2012-07-27T21:14:53Z</time>
<speed>3.320000</speed>
<extensions>
<speed>3.3</speed>
<temp>0.00</temp>
<bpm>0</bpm>
<rpm>0.00</rpm>
</extensions>
</trkpt>
<trkpt lat="63.841053009" lon="-21.568666458">
<ele>3.591309</ele>
<time>2012-07-27T21:14:58Z</time>
<speed>2.940000</speed>
<extensions>
<speed>2.9</speed>
<temp>0.00</temp>
<bpm>0</bpm>
<rpm>0.00</rpm>
</extensions>
</trkpt>
<trkpt lat="63.841037750" lon="-21.568983078">
<ele>4.602661</ele>
<time>2012-07-27T21:15:03Z</time>
<speed>3.310000</speed>
<extensions>
<speed>3.3</speed>
<temp>0.00</temp>
<bpm>0</bpm>
<rpm>0.00</rpm>
</extensions>
</trkpt>
<trkpt lat="63.841018677" lon="-21.569320679">
<ele>4.248291</ele>
<time>2012-07-27T21:15:08Z</time>
<speed>3.490000</speed>
<extensions>
<speed>3.5</speed>
<temp>0.00</temp>
<bpm>0</bpm>
<rpm>0.00</rpm>
</extensions>
</trkpt>
<trkpt lat="63.840995789" lon="-21.569671631">
<ele>3.695557</ele>
<time>2012-07-27T21:15:13Z</time>
<speed>2.910000</speed>
<extensions>
<speed>2.9</speed>
<temp>0.00</temp>
<bpm>0</bpm>
<rpm>0.00</rpm>
</extensions>
</trkpt>
<trkpt lat="63.840976715" lon="-21.570011139">
<ele>3.469055</ele>
<time>2012-07-27T21:15:18Z</time>
<speed>3.600000</speed>
<extensions>
<speed>3.6</speed>
<temp>0.00</temp>
<bpm>0</bpm>
<rpm>0.00</rpm>
</extensions>
</trkpt>
<trkpt lat="63.840953827" lon="-21.570360184">
<ele>3.117981</ele>
<time>2012-07-27T21:15:23Z</time>
<speed>3.370000</speed>
<extensions>
<speed>3.4</speed>
<temp>0.00</temp>
<bpm>0</bpm>
<rpm>0.00</rpm>
</extensions>
</trkpt>
<trkpt lat="63.840930939" lon="-21.570714951">
<ele>3.952148</ele>
<time>2012-07-27T21:15:28Z</time>
<speed>3.730000</speed>
<extensions>
<speed>3.7</speed>
<temp>0.00</temp>
<bpm>0</bpm>
<rpm>0.00</rpm>
</extensions>
</trkpt>
<trkpt lat="63.840904236" lon="-21.571098328">
<ele>4.278687</ele>
<time>2012-07-27T21:15:33Z</time>
<speed>3.610000</speed>
<extensions>
<speed>3.6</speed>
<temp>0.00</temp>
<bpm>0</bpm>
<rpm>0.00</rpm>
</extensions>
</trkpt>
<trkpt lat="63.840881348" lon="-21.571485519">
<ele>3.856567</ele>
<time>2012-07-27T21:15:38Z</time>
<speed>4.010000</speed>
<extensions>
<speed>4.0</speed>
<temp>0.00</temp>
<bpm>0</bpm>
<rpm>0.00</rpm>
</extensions>
</trkpt>
<trkpt lat="63.840854645" lon="-21.571851730">
<ele>2.716370</ele>
<time>2012-07-27T21:15:43Z</time>
<speed>3.610000</speed>
<extensions>
<speed>3.6</speed>
<temp>0.00</temp>
<bpm>0</bpm>
<rpm>0.00</rpm>
</extensions>
</trkpt>
<trkpt lat="63.840827942" lon="-21.572254181">
<ele>2.831238</ele>
<time>2012-07-27T21:15:48Z</time>
<speed>4.400000</speed>
<extensions>
<speed>4.4</speed>
<temp>0.00</temp>
<bpm>0</bpm>
<rpm>0.00</rpm>
</extensions>
</trkpt>
<trkpt lat="63.840801239" lon="-21.572650909">
<ele>2.201416</ele>
<time>2012-07-27T21:15:53Z</time>
<speed>3.350000</speed>
<extensions>
<speed>3.4</speed>
<temp>0.00</temp>
<bpm>0</bpm>
<rpm>0.00</rpm>
</extensions>
</trkpt>
<trkpt lat="63.840778351" lon="-21.572969437">
<ele>3.010559</ele>
<time>2012-07-27T21:15:58Z</time>
<speed>3.640000</speed>
<extensions>
<speed>3.6</speed>
<temp>0.00</temp>
<bpm>0</bpm>
<rpm>0.00</rpm>
</extensions>
</trkpt>
<trkpt lat="63.840755463" lon="-21.573371887">
<ele>5.668457</ele>
<time>2012-07-27T21:16:03Z</time>
<speed>3.830000</speed>
<extensions>
<speed>3.8</speed>
<temp>0.00</temp>
<bpm>0</bpm>
<rpm>0.00</rpm>
</extensions>
</trkpt>
<trkpt lat="63.840724945" lon="-21.573738098">
<ele>5.937744</ele>
<time>2012-07-27T21:16:08Z</time>
<speed>3.810000</speed>
<extensions>
<speed>3.8</speed>
<temp>0.00</temp>
<bpm>0</bpm>
<rpm>0.00</rpm>
</extensions>
</trkpt>
<trkpt lat="63.840690613" lon="-21.574125290">
<ele>4.836182</ele>
<time>2012-07-27T21:16:13Z</time>
<speed>3.850000</speed>
<extensions>
<speed>3.8</speed>
<temp>0.00</temp>
<bpm>0</bpm>
<rpm>0.00</rpm>
</extensions>
</trkpt>
<trkpt lat="63.840660095" lon="-21.574506760">
<ele>3.326965</ele>
<time>2012-07-27T21:16:18Z</time>
<speed>3.900000</speed>
<extensions>
<speed>3.9</speed>
<temp>0.00</temp>
<bpm>0</bpm>
<rpm>0.00</rpm>
</extensions>
</trkpt>
<trkpt lat="63.840625763" lon="-21.574878693">
<ele>2.254761</ele>
<time>2012-07-27T21:16:23Z</time>
<speed>3.290000</speed>
<extensions>
<speed>3.3</speed>
<temp>0.00</temp>
<bpm>0</bpm>
<rpm>0.00</rpm>
</extensions>
</trkpt>
<trkpt lat="63.840591431" lon="-21.575250626">
<ele>1.845703</ele>
<time>2012-07-27T21:16:28Z</time>
<speed>4.130000</speed>
<extensions>
<speed>4.1</speed>
<temp>0.00</temp>
<bpm>0</bpm>
<rpm>0.00</rpm>
</extensions>
</trkpt>
<trkpt lat="63.840560913" lon="-21.575634003">
<ele>0.258347</ele>
<time>2012-07-27T21:16:33Z</time>
<speed>3.320000</speed>
<extensions>
<speed>3.3</speed>
<temp>0.00</temp>
<bpm>0</bpm>
<rpm>0.00</rpm>
</extensions>
</trkpt>
<trkpt lat="63.840518951" lon="-21.576002121">
<ele>-1.117218</ele>
<time>2012-07-27T21:16:38Z</time>
<speed>4.110000</speed>
<extensions>
<speed>4.1</speed>
<temp>0.00</temp>
<bpm>0</bpm>
<rpm>0.00</rpm>
</extensions>
</trkpt>
<trkpt lat="63.840488434" lon="-21.576353073">
<ele>-6.594360</ele>
<time>2012-07-27T21:16:43Z</time>
<speed>3.560000</speed>
<extensions>
<speed>3.6</speed>
<temp>0.00</temp>
<bpm>0</bpm>
<rpm>0.00</rpm>
</extensions>
</trkpt>
<trkpt lat="63.840454102" lon="-21.576713562">
<ele>-6.990356</ele>
<time>2012-07-27T21:16:48Z</time>
<speed>3.350000</speed>
<extensions>
<speed>3.4</speed>
<temp>0.00</temp>
<bpm>0</bpm>
<rpm>0.00</rpm>
</extensions>
</trkpt>
<trkpt lat="63.840419769" lon="-21.577018738">
<ele>-8.117676</ele>
<time>2012-07-27T21:16:53Z</time>
<speed>3.440000</speed>
<extensions>
<speed>3.4</speed>
<temp>0.00</temp>
<bpm>0</bpm>
<rpm>0.00</rpm>
</extensions>
</trkpt>
<trkpt lat="63.840393066" lon="-21.577373505">
<ele>-8.017822</ele>
<time>2012-07-27T21:16:58Z</time>
<speed>3.430000</speed>
<extensions>
<speed>3.4</speed>
<temp>0.00</temp>
<bpm>0</bpm>
<rpm>0.00</rpm>
</extensions>
</trkpt>
<trkpt lat="63.840358734" lon="-21.577714920">
<ele>-7.378662</ele>
<time>2012-07-27T21:17:03Z</time>
<speed>3.960000</speed>
<extensions>
<speed>4.0</speed>
<temp>0.00</temp>
<bpm>0</bpm>
<rpm>0.00</rpm>
</extensions>
</trkpt>
<trkpt lat="63.840332031" lon="-21.578083038">
<ele>-6.461182</ele>
<time>2012-07-27T21:17:08Z</time>
<speed>3.110000</speed>
<extensions>
<speed>3.1</speed>
<temp>0.00</temp>
<bpm>0</bpm>
<rpm>0.00</rpm>
</extensions>
</trkpt>
<trkpt lat="63.840290070" lon="-21.578441620">
<ele>-6.385620</ele>
<time>2012-07-27T21:17:13Z</time>
<speed>3.790000</speed>
<extensions>
<speed>3.8</speed>
<temp>0.00</temp>
<bpm>0</bpm>
<rpm>0.00</rpm>
</extensions>
</trkpt>
<trkpt lat="63.840251923" lon="-21.578817368">
<ele>-6.439209</ele>
<time>2012-07-27T21:17:18Z</time>
<speed>4.220000</speed>
<extensions>
<speed>4.2</speed>
<temp>0.00</temp>
<bpm>0</bpm>
<rpm>0.00</rpm>
</extensions>
</trkpt>
<trkpt lat="63.840217590" lon="-21.579223633">
<ele>-5.767212</ele>
<time>2012-07-27T21:17:23Z</time>
<speed>4.010000</speed>
<extensions>
<speed>4.0</speed>
<temp>0.00</temp>
<bpm>0</bpm>
<rpm>0.00</rpm>
</extensions>
</trkpt>
<trkpt lat="63.840171814" lon="-21.579658508">
<ele>-3.843872</ele>
<time>2012-07-27T21:17:28Z</time>
<speed>3.980000</speed>
<extensions>
<speed>4.0</speed>
<temp>0.00</temp>
<bpm>0</bpm>
<rpm>0.00</rpm>
</extensions>
</trkpt>
<trkpt lat="63.840129852" lon="-21.580062866">
<ele>-4.538086</ele>
<time>2012-07-27T21:17:33Z</time>
<speed>4.430000</speed>
<extensions>
<speed>4.4</speed>
<temp>0.00</temp>
<bpm>0</bpm>
<rpm>0.00</rpm>
</extensions>
</trkpt>
<trkpt lat="63.840087891" lon="-21.580480576">
<ele>-5.100586</ele>
<time>2012-07-27T21:17:38Z</time>
<speed>4.330000</speed>
<extensions>
<speed>4.3</speed>
<temp>0.00</temp>
<bpm>0</bpm>
<rpm>0.00</rpm>
</extensions>
</trkpt>
<trkpt lat="63.840038300" lon="-21.580905914">
<ele>-5.884033</ele>
<time>2012-07-27T21:17:43Z</time>
<speed>4.070000</speed>
<extensions>
<speed>4.1</speed>
<temp>0.00</temp>
<bpm>0</bpm>
<rpm>0.00</rpm>
</extensions>
</trkpt>
<trkpt lat="63.839992523" lon="-21.581321716">
<ele>-5.826050</ele>
<time>2012-07-27T21:17:48Z</time>
<speed>3.750000</speed>
<extensions>
<speed>3.8</speed>
<temp>0.00</temp>
<bpm>0</bpm>
<rpm>0.00</rpm>
</extensions>
</trkpt>
<trkpt lat="63.839942932" lon="-21.581766129">
<ele>-5.459717</ele>
<time>2012-07-27T21:17:53Z</time>
<speed>4.580000</speed>
<extensions>
<speed>4.6</speed>
<temp>0.00</temp>
<bpm>0</bpm>
<rpm>0.00</rpm>
</extensions>
</trkpt>
<trkpt lat="63.839897156" lon="-21.582197189">
<ele>-5.328613</ele>
<time>2012-07-27T21:17:58Z</time>
<speed>3.830000</speed>
<extensions>
<speed>3.8</speed>
<temp>0.00</temp>
<bpm>0</bpm>
<rpm>0.00</rpm>
</extensions>
</trkpt>
<trkpt lat="63.839843750" lon="-21.582599640">
<ele>-4.255371</ele>
<time>2012-07-27T21:18:03Z</time>
<speed>4.560000</speed>
<extensions>
<speed>4.6</speed>
<temp>0.00</temp>
<bpm>0</bpm>
<rpm>0.00</rpm>
</extensions>
</trkpt>
<trkpt lat="63.839790344" lon="-21.583045959">
<ele>-4.188354</ele>
<time>2012-07-27T21:18:08Z</time>
<speed>4.910000</speed>
<extensions>
<speed>4.9</speed>
<temp>0.00</temp>
<bpm>0</bpm>
<rpm>0.00</rpm>
</extensions>
</trkpt>
<trkpt lat="63.839733124" lon="-21.583505630">
<ele>-4.195557</ele>
<time>2012-07-27T21:18:13Z</time>
<speed>4.250000</speed>
<extensions>
<speed>4.3</speed>
<temp>0.00</temp>
<bpm>0</bpm>
<rpm>0.00</rpm>
</extensions>
</trkpt>
<trkpt lat="63.839675903" lon="-21.583957672">
<ele>-4.494385</ele>
<time>2012-07-27T21:18:18Z</time>
<speed>4.640000</speed>
<extensions>
<speed>4.6</speed>
<temp>0.00</temp>
<bpm>0</bpm>
<rpm>0.00</rpm>
</extensions>
</trkpt>
<trkpt lat="63.839618683" lon="-21.584398270">
<ele>-4.592773</ele>
<time>2012-07-27T21:18:23Z</time>
<speed>4.550000</speed>
<extensions>
<speed>4.5</speed>
<temp>0.00</temp>
<bpm>0</bpm>
<rpm>0.00</rpm>
</extensions>
</trkpt>
<trkpt lat="63.839553833" lon="-21.584880829">
<ele>-4.382568</ele>
<time>2012-07-27T21:18:28Z</time>
<speed>4.850000</speed>
<extensions>
<speed>4.8</speed>
<temp>0.00</temp>
<bpm>0</bpm>
<rpm>0.00</rpm>
</extensions>
</trkpt>
<trkpt lat="63.839492798" lon="-21.585321426">
<ele>-4.759155</ele>
<time>2012-07-27T21:18:33Z</time>
<speed>4.560000</speed>
<extensions>
<speed>4.6</speed>
<temp>0.00</temp>
<bpm>0</bpm>
<rpm>0.00</rpm>
</extensions>
</trkpt>
<trkpt lat="63.839435577" lon="-21.585771561">
<ele>-3.739746</ele>
<time>2012-07-27T21:18:38Z</time>
<speed>4.770000</speed>
<extensions>
<speed>4.8</speed>
<temp>0.00</temp>
<bpm>0</bpm>
<rpm>0.00</rpm>
</extensions>
</trkpt>
<trkpt lat="63.839366913" lon="-21.586256027">
<ele>-3.369568</ele>
<time>2012-07-27T21:18:43Z</time>
<speed>4.750000</speed>
<extensions>
<speed>4.8</speed>
<temp>0.00</temp>
<bpm>0</bpm>
<rpm>0.00</rpm>
</extensions>
</trkpt>
<trkpt lat="63.839305878" lon="-21.586685181">
<ele>-5.030640</ele>
<time>2012-07-27T21:18:48Z</time>
<speed>4.630000</speed>
<extensions>
<speed>4.6</speed>
<temp>0.00</temp>
<bpm>0</bpm>
<rpm>0.00</rpm>
</extensions>
</trkpt>
<trkpt lat="63.839241028" lon="-21.587123871">
<ele>-4.119263</ele>
<time>2012-07-27T21:18:53Z</time>
<speed>4.290000</speed>
<extensions>
<speed>4.3</speed>
<temp>0.00</temp>
<bpm>0</bpm>
<rpm>0.00</rpm>
</extensions>
</trkpt>
<trkpt lat="63.839176178" lon="-21.587562561">
<ele>-3.457031</ele>
<time>2012-07-27T21:18:58Z</time>
<speed>4.680000</speed>
<extensions>
<speed>4.7</speed>
<temp>0.00</temp>
<bpm>0</bpm>
<rpm>0.00</rpm>
</extensions>
</trkpt>
<trkpt lat="63.839118958" lon="-21.587978363">
<ele>-2.879822</ele>
<time>2012-07-27T21:19:03Z</time>
<speed>4.440000</speed>
<extensions>
<speed>4.4</speed>
<temp>0.00</temp>
<bpm>0</bpm>
<rpm>0.00</rpm>
</extensions>
</trkpt>
<trkpt lat="63.839046478" lon="-21.588455200">
<ele>-2.470459</ele>
<time>2012-07-27T21:19:08Z</time>
<speed>4.540000</speed>
<extensions>
<speed>4.5</speed>
<temp>0.00</temp>
<bpm>0</bpm>
<rpm>0.00</rpm>
</extensions>
</trkpt>
<trkpt lat="63.838973999" lon="-21.588891983">
<ele>-3.872009</ele>
<time>2012-07-27T21:19:13Z</time>
<speed>4.900000</speed>
<extensions>
<speed>4.9</speed>
<temp>0.00</temp>
<bpm>0</bpm>
<rpm>0.00</rpm>
</extensions>
</trkpt>
<trkpt lat="63.838905334" lon="-21.589342117">
<ele>-3.298157</ele>
<time>2012-07-27T21:19:18Z</time>
<speed>4.110000</speed>
<extensions>
<speed>4.1</speed>
<temp>0.00</temp>
<bpm>0</bpm>
<rpm>0.00</rpm>
</extensions>
</trkpt>
<trkpt lat="63.838844299" lon="-21.589736938">
<ele>-4.836792</ele>
<time>2012-07-27T21:19:23Z</time>
<speed>4.470000</speed>
<extensions>
<speed>4.5</speed>
<temp>0.00</temp>
<bpm>0</bpm>
<rpm>0.00</rpm>
</extensions>
</trkpt>
<trkpt lat="63.838783264" lon="-21.590160370">
<ele>-3.715393</ele>
<time>2012-07-27T21:19:28Z</time>
<speed>3.890000</speed>
<extensions>
<speed>3.9</speed>
<temp>0.00</temp>
<bpm>0</bpm>
<rpm>0.00</rpm>
</extensions>
</trkpt>
<trkpt lat="63.838722229" lon="-21.590507507">
<ele>-3.403992</ele>
<time>2012-07-27T21:19:33Z</time>
<speed>4.070000</speed>
<extensions>
<speed>4.1</speed>
<temp>0.00</temp>
<bpm>0</bpm>
<rpm>0.00</rpm>
</extensions>
</trkpt>
<trkpt lat="63.838665009" lon="-21.590909958">
<ele>-2.554199</ele>
<time>2012-07-27T21:19:38Z</time>
<speed>4.030000</speed>
<extensions>
<speed>4.0</speed>
<temp>0.00</temp>
<bpm>0</bpm>
<rpm>0.00</rpm>
</extensions>
</trkpt>
<trkpt lat="63.838603973" lon="-21.591278076">
<ele>-1.496887</ele>
<time>2012-07-27T21:19:43Z</time>
<speed>4.150000</speed>
<extensions>
<speed>4.1</speed>
<temp>0.00</temp>
<bpm>0</bpm>
<rpm>0.00</rpm>
</extensions>
</trkpt>
<trkpt lat="63.838539124" lon="-21.591690063">
<ele>-0.723206</ele>
<time>2012-07-27T21:19:48Z</time>
<speed>4.060000</speed>
<extensions>
<speed>4.1</speed>
<temp>0.00</temp>
<bpm>0</bpm>
<rpm>0.00</rpm>
</extensions>
</trkpt>
<trkpt lat="63.838474274" lon="-21.592105865">
<ele>-1.812988</ele>
<time>2012-07-27T21:19:53Z</time>
<speed>4.640000</speed>
<extensions>
<speed>4.6</speed>
<temp>0.00</temp>
<bpm>0</bpm>
<rpm>0.00</rpm>
</extensions>
</trkpt>
<trkpt lat="63.838401794" lon="-21.592523575">
<ele>-2.197083</ele>
<time>2012-07-27T21:19:58Z</time>
<speed>4.240000</speed>
<extensions>
<speed>4.2</speed>
<temp>0.00</temp>
<bpm>0</bpm>
<rpm>0.00</rpm>
</extensions>
</trkpt>
<trkpt lat="63.838317871" lon="-21.592958450">
<ele>-1.730011</ele>
<time>2012-07-27T21:20:03Z</time>
<speed>4.510000</speed>
<extensions>
<speed>4.5</speed>
<temp>0.00</temp>
<bpm>0</bpm>
<rpm>0.00</rpm>
</extensions>
</trkpt>
<trkpt lat="63.838253021" lon="-21.593353271">
<ele>-1.853577</ele>
<time>2012-07-27T21:20:08Z</time>
<speed>4.570000</speed>
<extensions>
<speed>4.6</speed>
<temp>0.00</temp>
<bpm>0</bpm>
<rpm>0.00</rpm>
</extensions>
</trkpt>
<trkpt lat="63.838176727" lon="-21.593801498">
<ele>-1.451324</ele>
<time>2012-07-27T21:20:13Z</time>
<speed>4.320000</speed>
<extensions>
<speed>4.3</speed>
<temp>0.00</temp>
<bpm>0</bpm>
<rpm>0.00</rpm>
</extensions>
</trkpt>
<trkpt lat="63.838100433" lon="-21.594190598">
<ele>-0.670120</ele>
<time>2012-07-27T21:20:18Z</time>
<speed>4.370000</speed>
<extensions>
<speed>4.4</speed>
<temp>0.00</temp>
<bpm>0</bpm>
<rpm>0.00</rpm>
</extensions>
</trkpt>
<trkpt lat="63.838027954" lon="-21.594612122">
<ele>-0.222469</ele>
<time>2012-07-27T21:20:23Z</time>
<speed>4.030000</speed>
<extensions>
<speed>4.0</speed>
<temp>0.00</temp>
<bpm>0</bpm>
<rpm>0.00</rpm>
</extensions>
</trkpt>
<trkpt lat="63.837966919" lon="-21.594955444">
<ele>0.146152</ele>
<time>2012-07-27T21:20:28Z</time>
<speed>3.890000</speed>
<extensions>
<speed>3.9</speed>
<temp>0.00</temp>
<bpm>0</bpm>
<rpm>0.00</rpm>
</extensions>
</trkpt>
<trkpt lat="63.837902069" lon="-21.595369339">
<ele>2.723999</ele>
<time>2012-07-27T21:20:33Z</time>
<speed>4.450000</speed>
<extensions>
<speed>4.5</speed>
<temp>0.00</temp>
<bpm>0</bpm>
<rpm>0.00</rpm>
</extensions>
</trkpt>
<trkpt lat="63.837825775" lon="-21.595788956">
<ele>3.215088</ele>
<time>2012-07-27T21:20:38Z</time>
<speed>3.980000</speed>
<extensions>
<speed>4.0</speed>
<temp>0.00</temp>
<bpm>0</bpm>
<rpm>0.00</rpm>
</extensions>
</trkpt>
<trkpt lat="63.837749481" lon="-21.596179962">
<ele>3.374268</ele>
<time>2012-07-27T21:20:43Z</time>
<speed>4.360000</speed>
<extensions>
<speed>4.4</speed>
<temp>0.00</temp>
<bpm>0</bpm>
<rpm>0.00</rpm>
</extensions>
</trkpt>
<trkpt lat="63.837669373" lon="-21.596574783">
<ele>3.288574</ele>
<time>2012-07-27T21:20:48Z</time>
<speed>3.830000</speed>
<extensions>
<speed>3.8</speed>
<temp>0.00</temp>
<bpm>0</bpm>
<rpm>0.00</rpm>
</extensions>
</trkpt>
<trkpt lat="63.837600708" lon="-21.596902847">
<ele>3.367493</ele>
<time>2012-07-27T21:20:53Z</time>
<speed>3.780000</speed>
<extensions>
<speed>3.8</speed>
<temp>0.00</temp>
<bpm>0</bpm>
<rpm>0.00</rpm>
</extensions>
</trkpt>
<trkpt lat="63.837532043" lon="-21.597270966">
<ele>2.597961</ele>
<time>2012-07-27T21:20:58Z</time>
<speed>4.030000</speed>
<extensions>
<speed>4.0</speed>
<temp>0.00</temp>
<bpm>0</bpm>
<rpm>0.00</rpm>
</extensions>
</trkpt>
<trkpt lat="63.837459564" lon="-21.597604752">
<ele>0.977295</ele>
<time>2012-07-27T21:21:03Z</time>
<speed>3.120000</speed>
<extensions>
<speed>3.1</speed>
<temp>0.00</temp>
<bpm>0</bpm>
<rpm>0.00</rpm>
</extensions>
</trkpt>
<trkpt lat="63.837406158" lon="-21.597900391">
<ele>1.506714</ele>
<time>2012-07-27T21:21:08Z</time>
<speed>3.360000</speed>
<extensions>
<speed>3.4</speed>
<temp>0.00</temp>
<bpm>0</bpm>
<rpm>0.00</rpm>
</extensions>
</trkpt>
<trkpt lat="63.837337494" lon="-21.598218918">
<ele>1.567322</ele>
<time>2012-07-27T21:21:13Z</time>
<speed>3.700000</speed>
<extensions>
<speed>3.7</speed>
<temp>0.00</temp>
<bpm>0</bpm>
<rpm>0.00</rpm>
</extensions>
</trkpt>
<trkpt lat="63.837280273" lon="-21.598535538">
<ele>2.473145</ele>
<time>2012-07-27T21:21:18Z</time>
<speed>3.490000</speed>
<extensions>
<speed>3.5</speed>
<temp>0.00</temp>
<bpm>0</bpm>
<rpm>0.00</rpm>
</extensions>
</trkpt>
<trkpt lat="63.837207794" lon="-21.598888397">
<ele>1.987823</ele>
<time>2012-07-27T21:21:23Z</time>
<speed>3.530000</speed>
<extensions>
<speed>3.5</speed>
<temp>0.00</temp>
<bpm>0</bpm>
<rpm>0.00</rpm>
</extensions>
</trkpt>
<trkpt lat="63.837135315" lon="-21.599203110">
<ele>3.258545</ele>
<time>2012-07-27T21:21:28Z</time>
<speed>3.660000</speed>
<extensions>
<speed>3.7</speed>
<temp>0.00</temp>
<bpm>0</bpm>
<rpm>0.00</rpm>
</extensions>
</trkpt>
<trkpt lat="63.837085724" lon="-21.599494934">
<ele>2.304199</ele>
<time>2012-07-27T21:21:33Z</time>
<speed>3.170000</speed>
<extensions>
<speed>3.2</speed>
<temp>0.00</temp>
<bpm>0</bpm>
<rpm>0.00</rpm>
</extensions>
</trkpt>
<trkpt lat="63.837020874" lon="-21.599792480">
<ele>1.933380</ele>
<time>2012-07-27T21:21:38Z</time>
<speed>3.420000</speed>
<extensions>
<speed>3.4</speed>
<temp>0.00</temp>
<bpm>0</bpm>
<rpm>0.00</rpm>
</extensions>
</trkpt>
<trkpt lat="63.836948395" lon="-21.600114822">
<ele>1.247162</ele>
<time>2012-07-27T21:21:43Z</time>
<speed>3.540000</speed>
<extensions>
<speed>3.5</speed>
<temp>0.00</temp>
<bpm>0</bpm>
<rpm>0.00</rpm>
</extensions>
</trkpt>
<trkpt lat="63.836891174" lon="-21.600393295">
<ele>0.610168</ele>
<time>2012-07-27T21:21:48Z</time>
<speed>2.830000</speed>
<extensions>
<speed>2.8</speed>
<temp>0.00</temp>
<bpm>0</bpm>
<rpm>0.00</rpm>
</extensions>
</trkpt>
<trkpt lat="63.836826324" lon="-21.600681305">
<ele>1.628845</ele>
<time>2012-07-27T21:21:53Z</time>
<speed>3.130000</speed>
<extensions>
<speed>3.1</speed>
<temp>0.00</temp>
<bpm>0</bpm>
<rpm>0.00</rpm>
</extensions>
</trkpt>
<trkpt lat="63.836776733" lon="-21.600948334">
<ele>2.732117</ele>
<time>2012-07-27T21:21:58Z</time>
<speed>2.630000</speed>
<extensions>
<speed>2.6</speed>
<temp>0.00</temp>
<bpm>0</bpm>
<rpm>0.00</rpm>
</extensions>
</trkpt>
<trkpt lat="63.836715698" lon="-21.601230621">
<ele>1.822784</ele>
<time>2012-07-27T21:22:03Z</time>
<speed>3.630000</speed>
<extensions>
<speed>3.6</speed>
<temp>0.00</temp>
<bpm>0</bpm>
<rpm>0.00</rpm>
</extensions>
</trkpt>
<trkpt lat="63.836654663" lon="-21.601493835">
<ele>1.606964</ele>
<time>2012-07-27T21:22:08Z</time>
<speed>2.340000</speed>
<extensions>
<speed>2.3</speed>
<temp>0.00</temp>
<bpm>0</bpm>
<rpm>0.00</rpm>
</extensions>
</trkpt>
<trkpt lat="63.836585999" lon="-21.601774216">
<ele>0.360741</ele>
<time>2012-07-27T21:22:13Z</time>
<speed>3.680000</speed>
<extensions>
<speed>3.7</speed>
<temp>0.00</temp>
<bpm>0</bpm>
<rpm>0.00</rpm>
</extensions>
</trkpt>
<trkpt lat="63.836521149" lon="-21.602064133">
<ele>1.112122</ele>
<time>2012-07-27T21:22:18Z</time>
<speed>2.900000</speed>
<extensions>
<speed>2.9</speed>
<temp>0.00</temp>
<bpm>0</bpm>
<rpm>0.00</rpm>
</extensions>
</trkpt>
<trkpt lat="63.836452484" lon="-21.602373123">
<ele>1.208679</ele>
<time>2012-07-27T21:22:23Z</time>
<speed>3.540000</speed>
<extensions>
<speed>3.5</speed>
<temp>0.00</temp>
<bpm>0</bpm>
<rpm>0.00</rpm>
</extensions>
</trkpt>
<trkpt lat="63.836387634" lon="-21.602668762">
<ele>1.304871</ele>
<time>2012-07-27T21:22:28Z</time>
<speed>3.310000</speed>
<extensions>
<speed>3.3</speed>
<temp>0.00</temp>
<bpm>0</bpm>
<rpm>0.00</rpm>
</extensions>
</trkpt>
<trkpt lat="63.836330414" lon="-21.602912903">
<ele>0.817734</ele>
<time>2012-07-27T21:22:33Z</time>
<speed>2.270000</speed>
<extensions>
<speed>2.3</speed>
<temp>0.00</temp>
<bpm>0</bpm>
<rpm>0.00</rpm>
</extensions>
</trkpt>
<trkpt lat="63.836269379" lon="-21.603162766">
<ele>0.294640</ele>
<time>2012-07-27T21:22:38Z</time>
<speed>3.450000</speed>
<extensions>
<speed>3.5</speed>
<temp>0.00</temp>
<bpm>0</bpm>
<rpm>0.00</rpm>
</extensions>
</trkpt>
<trkpt lat="63.836185455" lon="-21.603509903">
<ele>0.365997</ele>
<time>2012-07-27T21:22:43Z</time>
<speed>4.260000</speed>
<extensions>
<speed>4.3</speed>
<temp>0.00</temp>
<bpm>0</bpm>
<rpm>0.00</rpm>
</extensions>
</trkpt>
<trkpt lat="63.836101532" lon="-21.603868484">
<ele>1.240295</ele>
<time>2012-07-27T21:22:48Z</time>
<speed>4.090000</speed>
<extensions>
<speed>4.1</speed>
<temp>0.00</temp>
<bpm>0</bpm>
<rpm>0.00</rpm>
</extensions>
</trkpt>
<trkpt lat="63.836017609" lon="-21.604206085">
<ele>0.526917</ele>
<time>2012-07-27T21:22:53Z</time>
<speed>4.020000</speed>
<extensions>
<speed>4.0</speed>
<temp>0.00</temp>
<bpm>0</bpm>
<rpm>0.00</rpm>
</extensions>
</trkpt>
<trkpt lat="63.835941315" lon="-21.604530334">
<ele>0.334175</ele>
<time>2012-07-27T21:22:58Z</time>
<speed>3.540000</speed>
<extensions>
<speed>3.5</speed>
<temp>0.00</temp>
<bpm>0</bpm>
<rpm>0.00</rpm>
</extensions>
</trkpt>
<trkpt lat="63.835857391" lon="-21.604877472">
<ele>1.337799</ele>
<time>2012-07-27T21:23:03Z</time>
<speed>4.180000</speed>
<extensions>
<speed>4.2</speed>
<temp>0.00</temp>
<bpm>0</bpm>
<rpm>0.00</rpm>
</extensions>
</trkpt>
<trkpt lat="63.835769653" lon="-21.605207443">
<ele>1.595642</ele>
<time>2012-07-27T21:23:08Z</time>
<speed>3.920000</speed>
<extensions>
<speed>3.9</speed>
<temp>0.00</temp>
<bpm>0</bpm>
<rpm>0.00</rpm>
</extensions>
</trkpt>
<trkpt lat="63.835685730" lon="-21.605552673">
<ele>1.217712</ele>
<time>2012-07-27T21:23:13Z</time>
<speed>3.270000</speed>
<extensions>
<speed>3.3</speed>
<temp>0.00</temp>
<bpm>0</bpm>
<rpm>0.00</rpm>
</extensions>
</trkpt>
<trkpt lat="63.835605621" lon="-21.605863571">
<ele>0.674530</ele>
<time>2012-07-27T21:23:18Z</time>
<speed>3.770000</speed>
<extensions>
<speed>3.8</speed>
<temp>0.00</temp>
<bpm>0</bpm>
<rpm>0.00</rpm>
</extensions>
</trkpt>
<trkpt lat="63.835529327" lon="-21.606204987">
<ele>1.005859</ele>
<time>2012-07-27T21:23:23Z</time>
<speed>3.660000</speed>
<extensions>
<speed>3.7</speed>
<temp>0.00</temp>
<bpm>0</bpm>
<rpm>0.00</rpm>
</extensions>
</trkpt>
<trkpt lat="63.835449219" lon="-21.606550217">
<ele>3.406006</ele>
<time>2012-07-27T21:23:28Z</time>
<speed>3.730000</speed>
<extensions>
<speed>3.7</speed>
<temp>0.00</temp>
<bpm>0</bpm>
<rpm>0.00</rpm>
</extensions>
</trkpt>
<trkpt lat="63.835361481" lon="-21.606884003">
<ele>2.860413</ele>
<time>2012-07-27T21:23:33Z</time>
<speed>4.120000</speed>
<extensions>
<speed>4.1</speed>
<temp>0.00</temp>
<bpm>0</bpm>
<rpm>0.00</rpm>
</extensions>
</trkpt>
<trkpt lat="63.835269928" lon="-21.607248306">
<ele>3.685791</ele>
<time>2012-07-27T21:23:38Z</time>
<speed>3.970000</speed>
<extensions>
<speed>4.0</speed>
<temp>0.00</temp>
<bpm>0</bpm>
<rpm>0.00</rpm>
</extensions>
</trkpt>
<trkpt lat="63.835182190" lon="-21.607580185">
<ele>4.041260</ele>
<time>2012-07-27T21:23:43Z</time>
<speed>3.840000</speed>
<extensions>
<speed>3.8</speed>
<temp>0.00</temp>
<bpm>0</bpm>
<rpm>0.00</rpm>
</extensions>
</trkpt>
<trkpt lat="63.835094452" lon="-21.607944489">
<ele>4.569092</ele>
<time>2012-07-27T21:23:48Z</time>
<speed>4.040000</speed>
<extensions>
<speed>4.0</speed>
<temp>0.00</temp>
<bpm>0</bpm>
<rpm>0.00</rpm>
</extensions>
</trkpt>
<trkpt lat="63.835002899" lon="-21.608312607">
<ele>3.986389</ele>
<time>2012-07-27T21:23:53Z</time>
<speed>4.410000</speed>
<extensions>
<speed>4.4</speed>
<temp>0.00</temp>
<bpm>0</bpm>
<rpm>0.00</rpm>
</extensions>
</trkpt>
<trkpt lat="63.834926605" lon="-21.608650208">
<ele>3.995972</ele>
<time>2012-07-27T21:23:58Z</time>
<speed>3.630000</speed>
<extensions>
<speed>3.6</speed>
<temp>0.00</temp>
<bpm>0</bpm>
<rpm>0.00</rpm>
</extensions>
</trkpt>
<trkpt lat="63.834835052" lon="-21.609020233">
<ele>4.191650</ele>
<time>2012-07-27T21:24:03Z</time>
<speed>4.350000</speed>
<extensions>
<speed>4.3</speed>
<temp>0.00</temp>
<bpm>0</bpm>
<rpm>0.00</rpm>
</extensions>
</trkpt>
<trkpt lat="63.834743500" lon="-21.609413147">
<ele>4.610840</ele>
<time>2012-07-27T21:24:08Z</time>
<speed>4.390000</speed>
<extensions>
<speed>4.4</speed>
<temp>0.00</temp>
<bpm>0</bpm>
<rpm>0.00</rpm>
</extensions>
</trkpt>
<trkpt lat="63.834655762" lon="-21.609766006">
<ele>3.775146</ele>
<time>2012-07-27T21:24:13Z</time>
<speed>3.950000</speed>
<extensions>
<speed>4.0</speed>
<temp>0.00</temp>
<bpm>0</bpm>
<rpm>0.00</rpm>
</extensions>
</trkpt>
<trkpt lat="63.834571838" lon="-21.610132217">
<ele>3.002686</ele>
<time>2012-07-27T21:24:18Z</time>
<speed>3.910000</speed>
<extensions>
<speed>3.9</speed>
<temp>0.00</temp>
<bpm>0</bpm>
<rpm>0.00</rpm>
</extensions>
</trkpt>
<trkpt lat="63.834491730" lon="-21.610504150">
<ele>4.645264</ele>
<time>2012-07-27T21:24:23Z</time>
<speed>4.010000</speed>
<extensions>
<speed>4.0</speed>
<temp>0.00</temp>
<bpm>0</bpm>
<rpm>0.00</rpm>
</extensions>
</trkpt>
<trkpt lat="63.834411621" lon="-21.610885620">
<ele>6.129028</ele>
<time>2012-07-27T21:24:28Z</time>
<speed>4.200000</speed>
<extensions>
<speed>4.2</speed>
<temp>0.00</temp>
<bpm>0</bpm>
<rpm>0.00</rpm>
</extensions>
</trkpt>
<trkpt lat="63.834335327" lon="-21.611248016">
<ele>7.970581</ele>
<time>2012-07-27T21:24:33Z</time>
<speed>3.870000</speed>
<extensions>
<speed>3.9</speed>
<temp>0.00</temp>
<bpm>0</bpm>
<rpm>0.00</rpm>
</extensions>
</trkpt>
<trkpt lat="63.834255219" lon="-21.611627579">
<ele>10.186768</ele>
<time>2012-07-27T21:24:38Z</time>
<speed>4.280000</speed>
<extensions>
<speed>4.3</speed>
<temp>0.00</temp>
<bpm>0</bpm>
<rpm>0.00</rpm>
</extensions>
</trkpt>
<trkpt lat="63.834175110" lon="-21.611993790">
<ele>7.995850</ele>
<time>2012-07-27T21:24:43Z</time>
<speed>3.590000</speed>
<extensions>
<speed>3.6</speed>
<temp>0.00</temp>
<bpm>0</bpm>
<rpm>0.00</rpm>
</extensions>
</trkpt>
<trkpt lat="63.834106445" lon="-21.612342834">
<ele>8.370850</ele>
<time>2012-07-27T21:24:48Z</time>
<speed>4.140000</speed>
<extensions>
<speed>4.1</speed>
<temp>0.00</temp>
<bpm>0</bpm>
<rpm>0.00</rpm>
</extensions>
</trkpt>
<trkpt lat="63.834033966" lon="-21.612730026">
<ele>8.576172</ele>
<time>2012-07-27T21:24:53Z</time>
<speed>3.780000</speed>
<extensions>
<speed>3.8</speed>
<temp>0.00</temp>
<bpm>0</bpm>
<rpm>0.00</rpm>
</extensions>
</trkpt>
<trkpt lat="63.833965302" lon="-21.613098145">
<ele>6.602173</ele>
<time>2012-07-27T21:24:58Z</time>
<speed>4.290000</speed>
<extensions>
<speed>4.3</speed>
<temp>0.00</temp>
<bpm>0</bpm>
<rpm>0.00</rpm>
</extensions>
</trkpt>
<trkpt lat="63.833881378" lon="-21.613504410">
<ele>6.981445</ele>
<time>2012-07-27T21:25:03Z</time>
<speed>4.140000</speed>
<extensions>
<speed>4.1</speed>
<temp>0.00</temp>
<bpm>0</bpm>
<rpm>0.00</rpm>
</extensions>
</trkpt>
<trkpt lat="63.833812714" lon="-21.613893509">
<ele>6.764404</ele>
<time>2012-07-27T21:25:08Z</time>
<speed>4.400000</speed>
<extensions>
<speed>4.4</speed>
<temp>0.00</temp>
<bpm>0</bpm>
<rpm>0.00</rpm>
</extensions>
</trkpt>
<trkpt lat="63.833797455" lon="-21.613979340">
<ele>6.916382</ele>
<time>2012-07-27T21:26:05Z</time>
<speed>4.500000</speed>
<extensions>
<speed>4.5</speed>
<temp>0.00</temp>
<bpm>0</bpm>
<rpm>0.00</rpm>
</extensions>
</trkpt>
<trkpt lat="63.833721161" lon="-21.614376068">
<ele>8.277100</ele>
<time>2012-07-27T21:26:10Z</time>
<speed>3.810000</speed>
<extensions>
<speed>3.8</speed>
<temp>0.00</temp>
<bpm>0</bpm>
<rpm>0.00</rpm>
</extensions>
</trkpt>
<trkpt lat="63.833656311" lon="-21.614738464">
<ele>7.210571</ele>
<time>2012-07-27T21:26:15Z</time>
<speed>4.300000</speed>
<extensions>
<speed>4.3</speed>
<temp>0.00</temp>
<bpm>0</bpm>
<rpm>0.00</rpm>
</extensions>
</trkpt>
<trkpt lat="63.833595276" lon="-21.615159988">
<ele>7.691162</ele>
<time>2012-07-27T21:26:20Z</time>
<speed>4.240000</speed>
<extensions>
<speed>4.2</speed>
<temp>0.00</temp>
<bpm>0</bpm>
<rpm>0.00</rpm>
</extensions>
</trkpt>
<trkpt lat="63.833530426" lon="-21.615577698">
<ele>7.640747</ele>
<time>2012-07-27T21:26:25Z</time>
<speed>4.340000</speed>
<extensions>
<speed>4.3</speed>
<temp>0.00</temp>
<bpm>0</bpm>
<rpm>0.00</rpm>
</extensions>
</trkpt>
<trkpt lat="63.833461761" lon="-21.615993500">
<ele>8.642334</ele>
<time>2012-07-27T21:26:30Z</time>
<speed>4.190000</speed>
<extensions>
<speed>4.2</speed>
<temp>0.00</temp>
<bpm>0</bpm>
<rpm>0.00</rpm>
</extensions>
</trkpt>
<trkpt lat="63.833404541" lon="-21.616388321">
<ele>8.742676</ele>
<time>2012-07-27T21:26:35Z</time>
<speed>4.160000</speed>
<extensions>
<speed>4.2</speed>
<temp>0.00</temp>
<bpm>0</bpm>
<rpm>0.00</rpm>
</extensions>
</trkpt>
<trkpt lat="63.833335876" lon="-21.616788864">
<ele>8.194336</ele>
<time>2012-07-27T21:26:40Z</time>
<speed>4.230000</speed>
<extensions>
<speed>4.2</speed>
<temp>0.00</temp>
<bpm>0</bpm>
<rpm>0.00</rpm>
</extensions>
</trkpt>
<trkpt lat="63.833274841" lon="-21.617191315">
<ele>8.636963</ele>
<time>2012-07-27T21:26:45Z</time>
<speed>4.020000</speed>
<extensions>
<speed>4.0</speed>
<temp>0.00</temp>
<bpm>0</bpm>
<rpm>0.00</rpm>
</extensions>
</trkpt>
<trkpt lat="63.833213806" lon="-21.617597580">
<ele>8.656250</ele>
<time>2012-07-27T21:26:50Z</time>
<speed>4.320000</speed>
<extensions>
<speed>4.3</speed>
<temp>0.00</temp>
<bpm>0</bpm>
<rpm>0.00</rpm>
</extensions>
</trkpt>
<trkpt lat="63.833160400" lon="-21.617992401">
<ele>9.806885</ele>
<time>2012-07-27T21:26:55Z</time>
<speed>4.070000</speed>
<extensions>
<speed>4.1</speed>
<temp>0.00</temp>
<bpm>0</bpm>
<rpm>0.00</rpm>
</extensions>
</trkpt>
<trkpt lat="63.833095551" lon="-21.618392944">
<ele>8.649658</ele>
<time>2012-07-27T21:27:00Z</time>
<speed>4.050000</speed>
<extensions>
<speed>4.0</speed>
<temp>0.00</temp>
<bpm>0</bpm>
<rpm>0.00</rpm>
</extensions>
</trkpt>
<trkpt lat="63.833042145" lon="-21.618766785">
<ele>8.564209</ele>
<time>2012-07-27T21:27:05Z</time>
<speed>4.190000</speed>
<extensions>
<speed>4.2</speed>
<temp>0.00</temp>
<bpm>0</bpm>
<rpm>0.00</rpm>
</extensions>
</trkpt>
<trkpt lat="63.832988739" lon="-21.619134903">
<ele>8.368896</ele>
<time>2012-07-27T21:27:10Z</time>
<speed>3.790000</speed>
<extensions>
<speed>3.8</speed>
<temp>0.00</temp>
<bpm>0</bpm>
<rpm>0.00</rpm>
</extensions>
</trkpt>
<trkpt lat="63.832935333" lon="-21.619520187">
<ele>7.373901</ele>
<time>2012-07-27T21:27:15Z</time>
<speed>4.110000</speed>
<extensions>
<speed>4.1</speed>
<temp>0.00</temp>
<bpm>0</bpm>
<rpm>0.00</rpm>
</extensions>
</trkpt>
<trkpt lat="63.832881927" lon="-21.619888306">
<ele>8.584229</ele>
<time>2012-07-27T21:27:20Z</time>
<speed>3.330000</speed>
<extensions>
<speed>3.3</speed>
<temp>0.00</temp>
<bpm>0</bpm>
<rpm>0.00</rpm>
</extensions>
</trkpt>
<trkpt lat="63.832832336" lon="-21.620231628">
<ele>8.588135</ele>
<time>2012-07-27T21:27:25Z</time>
<speed>3.940000</speed>
<extensions>
<speed>3.9</speed>
<temp>0.00</temp>
<bpm>0</bpm>
<rpm>0.00</rpm>
</extensions>
</trkpt>
<trkpt lat="63.832786560" lon="-21.620626450">
<ele>11.382080</ele>
<time>2012-07-27T21:27:30Z</time>
<speed>3.120000</speed>
<extensions>
<speed>3.1</speed>
<temp>0.00</temp>
<bpm>0</bpm>
<rpm>0.00</rpm>
</extensions>
</trkpt>
<trkpt lat="63.832744598" lon="-21.620965958">
<ele>14.347900</ele>
<time>2012-07-27T21:27:35Z</time>
<speed>3.990000</speed>
<extensions>
<speed>4.0</speed>
<temp>0.00</temp>
<bpm>0</bpm>
<rpm>0.00</rpm>
</extensions>
</trkpt>
<trkpt lat="63.832695007" lon="-21.621355057">
<ele>14.657959</ele>
<time>2012-07-27T21:27:40Z</time>
<speed>3.370000</speed>
<extensions>
<speed>3.4</speed>
<temp>0.00</temp>
<bpm>0</bpm>
<rpm>0.00</rpm>
</extensions>
</trkpt>
<trkpt lat="63.832653046" lon="-21.621654510">
<ele>13.501953</ele>
<time>2012-07-27T21:27:45Z</time>
<speed>3.660000</speed>
<extensions>
<speed>3.7</speed>
<temp>0.00</temp>
<bpm>0</bpm>
<rpm>0.00</rpm>
</extensions>
</trkpt>
<trkpt lat="63.832607269" lon="-21.622032166">
<ele>12.058594</ele>
<time>2012-07-27T21:27:50Z</time>
<speed>4.030000</speed>
<extensions>
<speed>4.0</speed>
<temp>0.00</temp>
<bpm>0</bpm>
<rpm>0.00</rpm>
</extensions>
</trkpt>
<trkpt lat="63.832565308" lon="-21.622375488">
<ele>10.556152</ele>
<time>2012-07-27T21:27:55Z</time>
<speed>3.540000</speed>
<extensions>
<speed>3.5</speed>
<temp>0.00</temp>
<bpm>0</bpm>
<rpm>0.00</rpm>
</extensions>
</trkpt>
<trkpt lat="63.832519531" lon="-21.622776031">
<ele>11.002686</ele>
<time>2012-07-27T21:28:00Z</time>
<speed>4.110000</speed>
<extensions>
<speed>4.1</speed>
<temp>0.00</temp>
<bpm>0</bpm>
<rpm>0.00</rpm>
</extensions>
</trkpt>
<trkpt lat="63.832481384" lon="-21.623155594">
<ele>10.632568</ele>
<time>2012-07-27T21:28:05Z</time>
<speed>3.730000</speed>
<extensions>
<speed>3.7</speed>
<temp>0.00</temp>
<bpm>0</bpm>
<rpm>0.00</rpm>
</extensions>
</trkpt>
<trkpt lat="63.832427979" lon="-21.623552322">
<ele>10.705322</ele>
<time>2012-07-27T21:28:10Z</time>
<speed>4.040000</speed>
<extensions>
<speed>4.0</speed>
<temp>0.00</temp>
<bpm>0</bpm>
<rpm>0.00</rpm>
</extensions>
</trkpt>
<trkpt lat="63.832389832" lon="-21.623924255">
<ele>11.404541</ele>
<time>2012-07-27T21:28:15Z</time>
<speed>3.730000</speed>
<extensions>
<speed>3.7</speed>
<temp>0.00</temp>
<bpm>0</bpm>
<rpm>0.00</rpm>
</extensions>
</trkpt>
<trkpt lat="63.832351685" lon="-21.624307632">
<ele>10.528564</ele>
<time>2012-07-27T21:28:20Z</time>
<speed>4.250000</speed>
<extensions>
<speed>4.3</speed>
<temp>0.00</temp>
<bpm>0</bpm>
<rpm>0.00</rpm>
</extensions>
</trkpt>
<trkpt lat="63.832309723" lon="-21.624694824">
<ele>9.899658</ele>
<time>2012-07-27T21:28:25Z</time>
<speed>3.220000</speed>
<extensions>
<speed>3.2</speed>
<temp>0.00</temp>
<bpm>0</bpm>
<rpm>0.00</rpm>
</extensions>
</trkpt>
<trkpt lat="63.832290649" lon="-21.624952316">
<ele>9.822998</ele>
<time>2012-07-27T21:28:30Z</time>
<speed>2.280000</speed>
<extensions>
<speed>2.3</speed>
<temp>0.00</temp>
<bpm>0</bpm>
<rpm>0.00</rpm>
</extensions>
</trkpt>
<trkpt lat="63.832263947" lon="-21.625255585">
<ele>9.852783</ele>
<time>2012-07-27T21:28:35Z</time>
<speed>3.670000</speed>
<extensions>
<speed>3.7</speed>
<temp>0.00</temp>
<bpm>0</bpm>
<rpm>0.00</rpm>
</extensions>
</trkpt>
<trkpt lat="63.832229614" lon="-21.625600815">
<ele>8.096436</ele>
<time>2012-07-27T21:28:40Z</time>
<speed>3.630000</speed>
<extensions>
<speed>3.6</speed>
<temp>0.00</temp>
<bpm>0</bpm>
<rpm>0.00</rpm>
</extensions>
</trkpt>
<trkpt lat="63.832199097" lon="-21.625905991">
<ele>8.343506</ele>
<time>2012-07-27T21:28:45Z</time>
<speed>2.980000</speed>
<extensions>
<speed>3.0</speed>
<temp>0.00</temp>
<bpm>0</bpm>
<rpm>0.00</rpm>
</extensions>
</trkpt>
<trkpt lat="63.832168579" lon="-21.626239777">
<ele>8.382813</ele>
<time>2012-07-27T21:28:50Z</time>
<speed>3.580000</speed>
<extensions>
<speed>3.6</speed>
<temp>0.00</temp>
<bpm>0</bpm>
<rpm>0.00</rpm>
</extensions>
</trkpt>
<trkpt lat="63.832141876" lon="-21.626556396">
<ele>7.889648</ele>
<time>2012-07-27T21:28:55Z</time>
<speed>2.980000</speed>
<extensions>
<speed>3.0</speed>
<temp>0.00</temp>
<bpm>0</bpm>
<rpm>0.00</rpm>
</extensions>
</trkpt>
<trkpt lat="63.832126617" lon="-21.626817703">
<ele>8.934570</ele>
<time>2012-07-27T21:29:00Z</time>
<speed>3.220000</speed>
<extensions>
<speed>3.2</speed>
<temp>0.00</temp>
<bpm>0</bpm>
<rpm>0.00</rpm>
</extensions>
</trkpt>
<trkpt lat="63.832096100" lon="-21.627182007">
<ele>8.251709</ele>
<time>2012-07-27T21:29:05Z</time>
<speed>3.870000</speed>
<extensions>
<speed>3.9</speed>
<temp>0.00</temp>
<bpm>0</bpm>
<rpm>0.00</rpm>
</extensions>
</trkpt>
<trkpt lat="63.832065582" lon="-21.627582550">
<ele>8.987305</ele>
<time>2012-07-27T21:29:10Z</time>
<speed>4.150000</speed>
<extensions>
<speed>4.1</speed>
<temp>0.00</temp>
<bpm>0</bpm>
<rpm>0.00</rpm>
</extensions>
</trkpt>
<trkpt lat="63.832038879" lon="-21.627988815">
<ele>9.820068</ele>
<time>2012-07-27T21:29:15Z</time>
<speed>3.540000</speed>
<extensions>
<speed>3.5</speed>
<temp>0.00</temp>
<bpm>0</bpm>
<rpm>0.00</rpm>
</extensions>
</trkpt>
<trkpt lat="63.832004547" lon="-21.628385544">
<ele>10.371338</ele>
<time>2012-07-27T21:29:20Z</time>
<speed>4.400000</speed>
<extensions>
<speed>4.4</speed>
<temp>0.00</temp>
<bpm>0</bpm>
<rpm>0.00</rpm>
</extensions>
</trkpt>
<trkpt lat="63.831974030" lon="-21.628829956">
<ele>12.693115</ele>
<time>2012-07-27T21:29:25Z</time>
<speed>4.260000</speed>
<extensions>
<speed>4.3</speed>
<temp>0.00</temp>
<bpm>0</bpm>
<rpm>0.00</rpm>
</extensions>
</trkpt>
<trkpt lat="63.831947327" lon="-21.629207611">
<ele>12.659668</ele>
<time>2012-07-27T21:29:30Z</time>
<speed>3.770000</speed>
<extensions>
<speed>3.8</speed>
<temp>0.00</temp>
<bpm>0</bpm>
<rpm>0.00</rpm>
</extensions>
</trkpt>
<trkpt lat="63.831920624" lon="-21.629590988">
<ele>12.667480</ele>
<time>2012-07-27T21:29:35Z</time>
<speed>3.670000</speed>
<extensions>
<speed>3.7</speed>
<temp>0.00</temp>
<bpm>0</bpm>
<rpm>0.00</rpm>
</extensions>
</trkpt>
<trkpt lat="63.831897736" lon="-21.630014420">
<ele>12.338623</ele>
<time>2012-07-27T21:29:40Z</time>
<speed>4.450000</speed>
<extensions>
<speed>4.5</speed>
<temp>0.00</temp>
<bpm>0</bpm>
<rpm>0.00</rpm>
</extensions>
</trkpt>
<trkpt lat="63.831874847" lon="-21.630489349">
<ele>12.808350</ele>
<time>2012-07-27T21:29:45Z</time>
<speed>4.310000</speed>
<extensions>
<speed>4.3</speed>
<temp>0.00</temp>
<bpm>0</bpm>
<rpm>0.00</rpm>
</extensions>
</trkpt>
<trkpt lat="63.831859589" lon="-21.630876541">
<ele>14.344482</ele>
<time>2012-07-27T21:29:50Z</time>
<speed>3.870000</speed>
<extensions>
<speed>3.9</speed>
<temp>0.00</temp>
<bpm>0</bpm>
<rpm>0.00</rpm>
</extensions>
</trkpt>
<trkpt lat="63.831836700" lon="-21.631307602">
<ele>14.552246</ele>
<time>2012-07-27T21:29:55Z</time>
<speed>4.380000</speed>
<extensions>
<speed>4.4</speed>
<temp>0.00</temp>
<bpm>0</bpm>
<rpm>0.00</rpm>
</extensions>
</trkpt>
<trkpt lat="63.831813812" lon="-21.631734848">
<ele>13.154785</ele>
<time>2012-07-27T21:30:00Z</time>
<speed>4.100000</speed>
<extensions>
<speed>4.1</speed>
<temp>0.00</temp>
<bpm>0</bpm>
<rpm>0.00</rpm>
</extensions>
</trkpt>
<trkpt lat="63.831798553" lon="-21.632122040">
<ele>14.457520</ele>
<time>2012-07-27T21:30:05Z</time>
<speed>4.200000</speed>
<extensions>
<speed>4.2</speed>
<temp>0.00</temp>
<bpm>0</bpm>
<rpm>0.00</rpm>
</extensions>
</trkpt>
<trkpt lat="63.831779480" lon="-21.632575989">
<ele>14.080078</ele>
<time>2012-07-27T21:30:10Z</time>
<speed>4.800000</speed>
<extensions>
<speed>4.8</speed>
<temp>0.00</temp>
<bpm>0</bpm>
<rpm>0.00</rpm>
</extensions>
</trkpt>
<trkpt lat="63.831764221" lon="-21.633037567">
<ele>14.035889</ele>
<time>2012-07-27T21:30:15Z</time>
<speed>4.320000</speed>
<extensions>
<speed>4.3</speed>
<temp>0.00</temp>
<bpm>0</bpm>
<rpm>0.00</rpm>
</extensions>
</trkpt>
<trkpt lat="63.831745148" lon="-21.633510590">
<ele>13.956787</ele>
<time>2012-07-27T21:30:20Z</time>
<speed>4.810000</speed>
<extensions>
<speed>4.8</speed>
<temp>0.00</temp>
<bpm>0</bpm>
<rpm>0.00</rpm>
</extensions>
</trkpt>
<trkpt lat="63.831733704" lon="-21.633955002">
<ele>14.020996</ele>
<time>2012-07-27T21:30:25Z</time>
<speed>3.930000</speed>
<extensions>
<speed>3.9</speed>
<temp>0.00</temp>
<bpm>0</bpm>
<rpm>0.00</rpm>
</extensions>
</trkpt>
<trkpt lat="63.831726074" lon="-21.634317398">
<ele>13.998291</ele>
<time>2012-07-27T21:30:30Z</time>
<speed>3.790000</speed>
<extensions>
<speed>3.8</speed>
<temp>0.00</temp>
<bpm>0</bpm>
<rpm>0.00</rpm>
</extensions>
</trkpt>
<trkpt lat="63.831714630" lon="-21.634759903">
<ele>13.728516</ele>
<time>2012-07-27T21:30:35Z</time>
<speed>4.850000</speed>
<extensions>
<speed>4.8</speed>
<temp>0.00</temp>
<bpm>0</bpm>
<rpm>0.00</rpm>
</extensions>
</trkpt>
<trkpt lat="63.831703186" lon="-21.635238647">
<ele>13.504150</ele>
<time>2012-07-27T21:30:40Z</time>
<speed>4.140000</speed>
<extensions>
<speed>4.1</speed>
<temp>0.00</temp>
<bpm>0</bpm>
<rpm>0.00</rpm>
</extensions>
</trkpt>
<trkpt lat="63.831699371" lon="-21.635654449">
<ele>13.120117</ele>
<time>2012-07-27T21:30:45Z</time>
<speed>4.400000</speed>
<extensions>
<speed>4.4</speed>
<temp>0.00</temp>
<bpm>0</bpm>
<rpm>0.00</rpm>
</extensions>
</trkpt>
<trkpt lat="63.831695557" lon="-21.636114120">
<ele>12.851563</ele>
<time>2012-07-27T21:30:50Z</time>
<speed>4.380000</speed>
<extensions>
<speed>4.4</speed>
<temp>0.00</temp>
<bpm>0</bpm>
<rpm>0.00</rpm>
</extensions>
</trkpt>
<trkpt lat="63.831695557" lon="-21.636499405">
<ele>13.072021</ele>
<time>2012-07-27T21:30:55Z</time>
<speed>3.340000</speed>
<extensions>
<speed>3.3</speed>
<temp>0.00</temp>
<bpm>0</bpm>
<rpm>0.00</rpm>
</extensions>
</trkpt>
<trkpt lat="63.831691742" lon="-21.636911392">
<ele>12.960693</ele>
<time>2012-07-27T21:31:00Z</time>
<speed>4.500000</speed>
<extensions>
<speed>4.5</speed>
<temp>0.00</temp>
<bpm>0</bpm>
<rpm>0.00</rpm>
</extensions>
</trkpt>
<trkpt lat="63.831684113" lon="-21.637363434">
<ele>12.952148</ele>
<time>2012-07-27T21:31:05Z</time>
<speed>4.590000</speed>
<extensions>
<speed>4.6</speed>
<temp>0.00</temp>
<bpm>0</bpm>
<rpm>0.00</rpm>
</extensions>
</trkpt>
<trkpt lat="63.831684113" lon="-21.637825012">
<ele>13.120605</ele>
<time>2012-07-27T21:31:10Z</time>
<speed>4.280000</speed>
<extensions>
<speed>4.3</speed>
<temp>0.00</temp>
<bpm>0</bpm>
<rpm>0.00</rpm>
</extensions>
</trkpt>
<trkpt lat="63.831680298" lon="-21.638263702">
<ele>13.187988</ele>
<time>2012-07-27T21:31:15Z</time>
<speed>4.670000</speed>
<extensions>
<speed>4.7</speed>
<temp>0.00</temp>
<bpm>0</bpm>
<rpm>0.00</rpm>
</extensions>
</trkpt>
<trkpt lat="63.831684113" lon="-21.638698578">
<ele>13.347412</ele>
<time>2012-07-27T21:31:20Z</time>
<speed>3.860000</speed>
<extensions>
<speed>3.9</speed>
<temp>0.00</temp>
<bpm>0</bpm>
<rpm>0.00</rpm>
</extensions>
</trkpt>
<trkpt lat="63.831687927" lon="-21.639120102">
<ele>13.529541</ele>
<time>2012-07-27T21:31:25Z</time>
<speed>4.410000</speed>
<extensions>
<speed>4.4</speed>
<temp>0.00</temp>
<bpm>0</bpm>
<rpm>0.00</rpm>
</extensions>
</trkpt>
<trkpt lat="63.831695557" lon="-21.639558792">
<ele>13.449463</ele>
<time>2012-07-27T21:31:30Z</time>
<speed>3.910000</speed>
<extensions>
<speed>3.9</speed>
<temp>0.00</temp>
<bpm>0</bpm>
<rpm>0.00</rpm>
</extensions>
</trkpt>
<trkpt lat="63.831695557" lon="-21.639963150">
<ele>13.337891</ele>
<time>2012-07-27T21:31:35Z</time>
<speed>4.280000</speed>
<extensions>
<speed>4.3</speed>
<temp>0.00</temp>
<bpm>0</bpm>
<rpm>0.00</rpm>
</extensions>
</trkpt>
<trkpt lat="63.831710815" lon="-21.640398026">
<ele>13.718018</ele>
<time>2012-07-27T21:31:40Z</time>
<speed>3.780000</speed>
<extensions>
<speed>3.8</speed>
<temp>0.00</temp>
<bpm>0</bpm>
<rpm>0.00</rpm>
</extensions>
</trkpt>
<trkpt lat="63.831714630" lon="-21.640773773">
<ele>13.667236</ele>
<time>2012-07-27T21:31:45Z</time>
<speed>4.050000</speed>
<extensions>
<speed>4.0</speed>
<temp>0.00</temp>
<bpm>0</bpm>
<rpm>0.00</rpm>
</extensions>
</trkpt>
<trkpt lat="63.831722260" lon="-21.641160965">
<ele>14.013672</ele>
<time>2012-07-27T21:31:50Z</time>
<speed>3.320000</speed>
<extensions>
<speed>3.3</speed>
<temp>0.00</temp>
<bpm>0</bpm>
<rpm>0.00</rpm>
</extensions>
</trkpt>
<trkpt lat="63.831726074" lon="-21.641532898">
<ele>13.876465</ele>
<time>2012-07-27T21:31:55Z</time>
<speed>3.830000</speed>
<extensions>
<speed>3.8</speed>
<temp>0.00</temp>
<bpm>0</bpm>
<rpm>0.00</rpm>
</extensions>
</trkpt>
<trkpt lat="63.831741333" lon="-21.641881943">
<ele>13.649902</ele>
<time>2012-07-27T21:32:00Z</time>
<speed>3.740000</speed>
<extensions>
<speed>3.7</speed>
<temp>0.00</temp>
<bpm>0</bpm>
<rpm>0.00</rpm>
</extensions>
</trkpt>
<trkpt lat="63.831748962" lon="-21.642299652">
<ele>14.007324</ele>
<time>2012-07-27T21:32:05Z</time>
<speed>4.290000</speed>
<extensions>
<speed>4.3</speed>
<temp>0.00</temp>
<bpm>0</bpm>
<rpm>0.00</rpm>
</extensions>
</trkpt>
<trkpt lat="63.831768036" lon="-21.642694473">
<ele>14.935303</ele>
<time>2012-07-27T21:32:10Z</time>
<speed>3.460000</speed>
<extensions>
<speed>3.5</speed>
<temp>0.00</temp>
<bpm>0</bpm>
<rpm>0.00</rpm>
</extensions>
</trkpt>
<trkpt lat="63.831771851" lon="-21.642974854">
<ele>15.168213</ele>
<time>2012-07-27T21:32:15Z</time>
<speed>2.360000</speed>
<extensions>
<speed>2.4</speed>
<temp>0.00</temp>
<bpm>0</bpm>
<rpm>0.00</rpm>
</extensions>
</trkpt>
<trkpt lat="63.831790924" lon="-21.643350601">
<ele>15.206055</ele>
<time>2012-07-27T21:32:20Z</time>
<speed>4.030000</speed>
<extensions>
<speed>4.0</speed>
<temp>0.00</temp>
<bpm>0</bpm>
<rpm>0.00</rpm>
</extensions>
</trkpt>
<trkpt lat="63.831813812" lon="-21.643745422">
<ele>15.478516</ele>
<time>2012-07-27T21:32:25Z</time>
<speed>3.880000</speed>
<extensions>
<speed>3.9</speed>
<temp>0.00</temp>
<bpm>0</bpm>
<rpm>0.00</rpm>
</extensions>
</trkpt>
<trkpt lat="63.831829071" lon="-21.644159317">
<ele>15.521729</ele>
<time>2012-07-27T21:32:30Z</time>
<speed>4.120000</speed>
<extensions>
<speed>4.1</speed>
<temp>0.00</temp>
<bpm>0</bpm>
<rpm>0.00</rpm>
</extensions>
</trkpt>
<trkpt lat="63.831855774" lon="-21.644590378">
<ele>15.635254</ele>
<time>2012-07-27T21:32:35Z</time>
<speed>4.470000</speed>
<extensions>
<speed>4.5</speed>
<temp>0.00</temp>
<bpm>0</bpm>
<rpm>0.00</rpm>
</extensions>
</trkpt>
<trkpt lat="63.831874847" lon="-21.644973755">
<ele>15.733643</ele>
<time>2012-07-27T21:32:40Z</time>
<speed>3.070000</speed>
<extensions>
<speed>3.1</speed>
<temp>0.00</temp>
<bpm>0</bpm>
<rpm>0.00</rpm>
</extensions>
</trkpt>
<trkpt lat="63.831890106" lon="-21.645280838">
<ele>15.801270</ele>
<time>2012-07-27T21:32:45Z</time>
<speed>3.540000</speed>
<extensions>
<speed>3.5</speed>
<temp>0.00</temp>
<bpm>0</bpm>
<rpm>0.00</rpm>
</extensions>
</trkpt>
<trkpt lat="63.831912994" lon="-21.645679474">
<ele>15.959717</ele>
<time>2012-07-27T21:32:50Z</time>
<speed>4.300000</speed>
<extensions>
<speed>4.3</speed>
<temp>0.00</temp>
<bpm>0</bpm>
<rpm>0.00</rpm>
</extensions>
</trkpt>
<trkpt lat="63.831935883" lon="-21.646129608">
<ele>16.107422</ele>
<time>2012-07-27T21:32:55Z</time>
<speed>3.940000</speed>
<extensions>
<speed>3.9</speed>
<temp>0.00</temp>
<bpm>0</bpm>
<rpm>0.00</rpm>
</extensions>
</trkpt>
<trkpt lat="63.831966400" lon="-21.646522522">
<ele>16.281738</ele>
<time>2012-07-27T21:33:00Z</time>
<speed>4.330000</speed>
<extensions>
<speed>4.3</speed>
<temp>0.00</temp>
<bpm>0</bpm>
<rpm>0.00</rpm>
</extensions>
</trkpt>
<trkpt lat="63.831993103" lon="-21.646974564">
<ele>16.353516</ele>
<time>2012-07-27T21:33:05Z</time>
<speed>4.590000</speed>
<extensions>
<speed>4.6</speed>
<temp>0.00</temp>
<bpm>0</bpm>
<rpm>0.00</rpm>
</extensions>
</trkpt>
<trkpt lat="63.832019806" lon="-21.647420883">
<ele>16.729980</ele>
<time>2012-07-27T21:33:10Z</time>
<speed>3.720000</speed>
<extensions>
<speed>3.7</speed>
<temp>0.00</temp>
<bpm>0</bpm>
<rpm>0.00</rpm>
</extensions>
</trkpt>
<trkpt lat="63.832057953" lon="-21.647804260">
<ele>16.975098</ele>
<time>2012-07-27T21:33:15Z</time>
<speed>4.290000</speed>
<extensions>
<speed>4.3</speed>
<temp>0.00</temp>
<bpm>0</bpm>
<rpm>0.00</rpm>
</extensions>
</trkpt>
<trkpt lat="63.832096100" lon="-21.648252487">
<ele>17.357910</ele>
<time>2012-07-27T21:33:20Z</time>
<speed>4.620000</speed>
<extensions>
<speed>4.6</speed>
<temp>0.00</temp>
<bpm>0</bpm>
<rpm>0.00</rpm>
</extensions>
</trkpt>
<trkpt lat="63.832134247" lon="-21.648733139">
<ele>17.653320</ele>
<time>2012-07-27T21:33:25Z</time>
<speed>4.710000</speed>
<extensions>
<speed>4.7</speed>
<temp>0.00</temp>
<bpm>0</bpm>
<rpm>0.00</rpm>
</extensions>
</trkpt>
<trkpt lat="63.832168579" lon="-21.649145126">
<ele>18.019531</ele>
<time>2012-07-27T21:33:30Z</time>
<speed>3.550000</speed>
<extensions>
<speed>3.5</speed>
<temp>0.00</temp>
<bpm>0</bpm>
<rpm>0.00</rpm>
</extensions>
</trkpt>
<trkpt lat="63.832202911" lon="-21.649545670">
<ele>17.913086</ele>
<time>2012-07-27T21:33:35Z</time>
<speed>4.350000</speed>
<extensions>
<speed>4.3</speed>
<temp>0.00</temp>
<bpm>0</bpm>
<rpm>0.00</rpm>
</extensions>
</trkpt>
<trkpt lat="63.832237244" lon="-21.649988174">
<ele>18.090332</ele>
<time>2012-07-27T21:33:40Z</time>
<speed>4.210000</speed>
<extensions>
<speed>4.2</speed>
<temp>0.00</temp>
<bpm>0</bpm>
<rpm>0.00</rpm>
</extensions>
</trkpt>
<trkpt lat="63.832275391" lon="-21.650375366">
<ele>18.274902</ele>
<time>2012-07-27T21:33:45Z</time>
<speed>4.140000</speed>
<extensions>
<speed>4.1</speed>
<temp>0.00</temp>
<bpm>0</bpm>
<rpm>0.00</rpm>
</extensions>
</trkpt>
<trkpt lat="63.832317352" lon="-21.650793076">
<ele>18.540039</ele>
<time>2012-07-27T21:33:50Z</time>
<speed>4.400000</speed>
<extensions>
<speed>4.4</speed>
<temp>0.00</temp>
<bpm>0</bpm>
<rpm>0.00</rpm>
</extensions>
</trkpt>
<trkpt lat="63.832355499" lon="-21.651241302">
<ele>18.856934</ele>
<time>2012-07-27T21:33:55Z</time>
<speed>4.180000</speed>
<extensions>
<speed>4.2</speed>
<temp>0.00</temp>
<bpm>0</bpm>
<rpm>0.00</rpm>
</extensions>
</trkpt>
<trkpt lat="63.832405090" lon="-21.651618958">
<ele>19.145508</ele>
<time>2012-07-27T21:34:00Z</time>
<speed>4.110000</speed>
<extensions>
<speed>4.1</speed>
<temp>0.00</temp>
<bpm>0</bpm>
<rpm>0.00</rpm>
</extensions>
</trkpt>
<trkpt lat="63.832447052" lon="-21.652048111">
<ele>19.490723</ele>
<time>2012-07-27T21:34:05Z</time>
<speed>4.650000</speed>
<extensions>
<speed>4.6</speed>
<temp>0.00</temp>
<bpm>0</bpm>
<rpm>0.00</rpm>
</extensions>
</trkpt>
<trkpt lat="63.832496643" lon="-21.652442932">
<ele>19.901367</ele>
<time>2012-07-27T21:34:10Z</time>
<speed>3.380000</speed>
<extensions>
<speed>3.4</speed>
<temp>0.00</temp>
<bpm>0</bpm>
<rpm>0.00</rpm>
</extensions>
</trkpt>
<trkpt lat="63.832534790" lon="-21.652818680">
<ele>20.473145</ele>
<time>2012-07-27T21:34:15Z</time>
<speed>4.100000</speed>
<extensions>
<speed>4.1</speed>
<temp>0.00</temp>
<bpm>0</bpm>
<rpm>0.00</rpm>
</extensions>
</trkpt>
<trkpt lat="63.832584381" lon="-21.653251648">
<ele>20.825684</ele>
<time>2012-07-27T21:34:20Z</time>
<speed>4.560000</speed>
<extensions>
<speed>4.6</speed>
<temp>0.00</temp>
<bpm>0</bpm>
<rpm>0.00</rpm>
</extensions>
</trkpt>
<trkpt lat="63.832637787" lon="-21.653709412">
<ele>21.636719</ele>
<time>2012-07-27T21:34:25Z</time>
<speed>4.570000</speed>
<extensions>
<speed>4.6</speed>
<temp>0.00</temp>
<bpm>0</bpm>
<rpm>0.00</rpm>
</extensions>
</trkpt>
<trkpt lat="63.832675934" lon="-21.654092789">
<ele>22.130371</ele>
<time>2012-07-27T21:34:30Z</time>
<speed>3.360000</speed>
<extensions>
<speed>3.4</speed>
<temp>0.00</temp>
<bpm>0</bpm>
<rpm>0.00</rpm>
</extensions>
</trkpt>
<trkpt lat="63.832729340" lon="-21.654464722">
<ele>22.344238</ele>
<time>2012-07-27T21:34:35Z</time>
<speed>4.170000</speed>
<extensions>
<speed>4.2</speed>
<temp>0.00</temp>
<bpm>0</bpm>
<rpm>0.00</rpm>
</extensions>
</trkpt>
<trkpt lat="63.832790375" lon="-21.654884338">
<ele>22.624512</ele>
<time>2012-07-27T21:34:40Z</time>
<speed>4.380000</speed>
<extensions>
<speed>4.4</speed>
<temp>0.00</temp>
<bpm>0</bpm>
<rpm>0.00</rpm>
</extensions>
</trkpt>
<trkpt lat="63.832847595" lon="-21.655305862">
<ele>23.023926</ele>
<time>2012-07-27T21:34:45Z</time>
<speed>4.490000</speed>
<extensions>
<speed>4.5</speed>
<temp>0.00</temp>
<bpm>0</bpm>
<rpm>0.00</rpm>
</extensions>
</trkpt>
<trkpt lat="63.832908630" lon="-21.655763626">
<ele>23.658691</ele>
<time>2012-07-27T21:34:50Z</time>
<speed>4.640000</speed>
<extensions>
<speed>4.6</speed>
<temp>0.00</temp>
<bpm>0</bpm>
<rpm>0.00</rpm>
</extensions>
</trkpt>
<trkpt lat="63.832969666" lon="-21.656229019">
<ele>23.606934</ele>
<time>2012-07-27T21:34:55Z</time>
<speed>4.550000</speed>
<extensions>
<speed>4.5</speed>
<temp>0.00</temp>
<bpm>0</bpm>
<rpm>0.00</rpm>
</extensions>
</trkpt>
<trkpt lat="63.833026886" lon="-21.656608582">
<ele>23.962891</ele>
<time>2012-07-27T21:35:00Z</time>
<speed>3.700000</speed>
<extensions>
<speed>3.7</speed>
<temp>0.00</temp>
<bpm>0</bpm>
<rpm>0.00</rpm>
</extensions>
</trkpt>
<trkpt lat="63.833084106" lon="-21.657005310">
<ele>24.212402</ele>
<time>2012-07-27T21:35:05Z</time>
<speed>4.400000</speed>
<extensions>
<speed>4.4</speed>
<temp>0.00</temp>
<bpm>0</bpm>
<rpm>0.00</rpm>
</extensions>
</trkpt>
<trkpt lat="63.833148956" lon="-21.657447815">
<ele>24.470703</ele>
<time>2012-07-27T21:35:10Z</time>
<speed>4.690000</speed>
<extensions>
<speed>4.7</speed>
<temp>0.00</temp>
<bpm>0</bpm>
<rpm>0.00</rpm>
</extensions>
</trkpt>
<trkpt lat="63.833202362" lon="-21.657861710">
<ele>24.584473</ele>
<time>2012-07-27T21:35:15Z</time>
<speed>3.770000</speed>
<extensions>
<speed>3.8</speed>
<temp>0.00</temp>
<bpm>0</bpm>
<rpm>0.00</rpm>
</extensions>
</trkpt>
<trkpt lat="63.833267212" lon="-21.658237457">
<ele>24.782715</ele>
<time>2012-07-27T21:35:20Z</time>
<speed>4.230000</speed>
<extensions>
<speed>4.2</speed>
<temp>0.00</temp>
<bpm>0</bpm>
<rpm>0.00</rpm>
</extensions>
</trkpt>
<trkpt lat="63.833332062" lon="-21.658643723">
<ele>25.119141</ele>
<time>2012-07-27T21:35:25Z</time>
<speed>4.210000</speed>
<extensions>
<speed>4.2</speed>
<temp>0.00</temp>
<bpm>0</bpm>
<rpm>0.00</rpm>
</extensions>
</trkpt>
<trkpt lat="63.833396912" lon="-21.659048080">
<ele>25.245605</ele>
<time>2012-07-27T21:35:30Z</time>
<speed>4.290000</speed>
<extensions>
<speed>4.3</speed>
<temp>0.00</temp>
<bpm>0</bpm>
<rpm>0.00</rpm>
</extensions>
</trkpt>
<trkpt lat="63.833461761" lon="-21.659423828">
<ele>25.298340</ele>
<time>2012-07-27T21:35:35Z</time>
<speed>3.140000</speed>
<extensions>
<speed>3.1</speed>
<temp>0.00</temp>
<bpm>0</bpm>
<rpm>0.00</rpm>
</extensions>
</trkpt>
<trkpt lat="63.833503723" lon="-21.659681320">
<ele>25.313965</ele>
<time>2012-07-27T21:35:40Z</time>
<speed>3.360000</speed>
<extensions>
<speed>3.4</speed>
<temp>0.00</temp>
<bpm>0</bpm>
<rpm>0.00</rpm>
</extensions>
</trkpt>
<trkpt lat="63.833564758" lon="-21.660032272">
<ele>25.565918</ele>
<time>2012-07-27T21:35:45Z</time>
<speed>3.840000</speed>
<extensions>
<speed>3.8</speed>
<temp>0.00</temp>
<bpm>0</bpm>
<rpm>0.00</rpm>
</extensions>
</trkpt>
<trkpt lat="63.833629608" lon="-21.660413742">
<ele>25.530762</ele>
<time>2012-07-27T21:35:50Z</time>
<speed>3.990000</speed>
<extensions>
<speed>4.0</speed>
<temp>0.00</temp>
<bpm>0</bpm>
<rpm>0.00</rpm>
</extensions>
</trkpt>
<trkpt lat="63.833679199" lon="-21.660720825">
<ele>25.602051</ele>
<time>2012-07-27T21:35:55Z</time>
<speed>2.970000</speed>
<extensions>
<speed>3.0</speed>
<temp>0.00</temp>
<bpm>0</bpm>
<rpm>0.00</rpm>
</extensions>
</trkpt>
<trkpt lat="63.833740234" lon="-21.661048889">
<ele>25.718262</ele>
<time>2012-07-27T21:36:00Z</time>
<speed>3.980000</speed>
<extensions>
<speed>4.0</speed>
<temp>0.00</temp>
<bpm>0</bpm>
<rpm>0.00</rpm>
</extensions>
</trkpt>
<trkpt lat="63.833812714" lon="-21.661436081">
<ele>25.826660</ele>
<time>2012-07-27T21:36:05Z</time>
<speed>3.620000</speed>
<extensions>
<speed>3.6</speed>
<temp>0.00</temp>
<bpm>0</bpm>
<rpm>0.00</rpm>
</extensions>
</trkpt>
<trkpt lat="63.833873749" lon="-21.661739349">
<ele>25.972168</ele>
<time>2012-07-27T21:36:10Z</time>
<speed>3.450000</speed>
<extensions>
<speed>3.5</speed>
<temp>0.00</temp>
<bpm>0</bpm>
<rpm>0.00</rpm>
</extensions>
</trkpt>
<trkpt lat="63.833942413" lon="-21.662103653">
<ele>26.005371</ele>
<time>2012-07-27T21:36:15Z</time>
<speed>4.250000</speed>
<extensions>
<speed>4.3</speed>
<temp>0.00</temp>
<bpm>0</bpm>
<rpm>0.00</rpm>
</extensions>
</trkpt>
<trkpt lat="63.834022522" lon="-21.662523270">
<ele>26.384766</ele>
<time>2012-07-27T21:36:20Z</time>
<speed>4.630000</speed>
<extensions>
<speed>4.6</speed>
<temp>0.00</temp>
<bpm>0</bpm>
<rpm>0.00</rpm>
</extensions>
</trkpt>
<trkpt lat="63.834110260" lon="-21.662918091">
<ele>26.192383</ele>
<time>2012-07-27T21:36:25Z</time>
<speed>3.870000</speed>
<extensions>
<speed>3.9</speed>
<temp>0.00</temp>
<bpm>0</bpm>
<rpm>0.00</rpm>
</extensions>
</trkpt>
<trkpt lat="63.834190369" lon="-21.663311005">
<ele>25.683105</ele>
<time>2012-07-27T21:36:30Z</time>
<speed>4.650000</speed>
<extensions>
<speed>4.6</speed>
<temp>0.00</temp>
<bpm>0</bpm>
<rpm>0.00</rpm>
</extensions>
</trkpt>
<trkpt lat="63.834262848" lon="-21.663675308">
<ele>25.678223</ele>
<time>2012-07-27T21:36:35Z</time>
<speed>3.090000</speed>
<extensions>
<speed>3.1</speed>
<temp>0.00</temp>
<bpm>0</bpm>
<rpm>0.00</rpm>
</extensions>
</trkpt>
<trkpt lat="63.834320068" lon="-21.663959503">
<ele>25.897949</ele>
<time>2012-07-27T21:36:40Z</time>
<speed>3.670000</speed>
<extensions>
<speed>3.7</speed>
<temp>0.00</temp>
<bpm>0</bpm>
<rpm>0.00</rpm>
</extensions>
</trkpt>
<trkpt lat="63.834396362" lon="-21.664302826">
<ele>25.817383</ele>
<time>2012-07-27T21:36:45Z</time>
<speed>3.470000</speed>
<extensions>
<speed>3.5</speed>
<temp>0.00</temp>
<bpm>0</bpm>
<rpm>0.00</rpm>
</extensions>
</trkpt>
<trkpt lat="63.834453583" lon="-21.664606094">
<ele>25.680176</ele>
<time>2012-07-27T21:36:50Z</time>
<speed>3.620000</speed>
<extensions>
<speed>3.6</speed>
<temp>0.00</temp>
<bpm>0</bpm>
<rpm>0.00</rpm>
</extensions>
</trkpt>
<trkpt lat="63.834533691" lon="-21.664934158">
<ele>25.610352</ele>
<time>2012-07-27T21:36:55Z</time>
<speed>3.130000</speed>
<extensions>
<speed>3.1</speed>
<temp>0.00</temp>
<bpm>0</bpm>
<rpm>0.00</rpm>
</extensions>
</trkpt>
<trkpt lat="63.834583282" lon="-21.665159225">
<ele>25.444824</ele>
<time>2012-07-27T21:37:00Z</time>
<speed>1.820000</speed>
<extensions>
<speed>1.8</speed>
<temp>0.00</temp>
<bpm>0</bpm>
<rpm>0.00</rpm>
</extensions>
</trkpt>
</trkseg>
</trk>
</gpx>